<?xml version="1.0" encoding="UTF-8" standalone="no" ?>
<gpx xmlns="http://www.topografix.com/GPX/1/1" xmlns:xsi="http://www.w3.org/2001/XMLSchema-instance" xsi:schemaLocation="http://www.topografix.com/GPX/1/1 http://www.topografix.com/GPX/1/1/gpx.xsd" version="1.1" creator="VisuGPX - https://www.visugpx.com">
  <metadata>
    <name>2016-10-16 Bike ride-Saule d'Oingt</name>
    <desc><![CDATA[2016-10-16 Bike ride-Saule d'Oingt]]></desc>
  </metadata>
  <wpt lat="45.92457" lon="4.73735">
    <ele>174</ele>
    <name><![CDATA[2016-10-16 10:28 (Start)]]></name>
  </wpt>
  <wpt lat="45.92461" lon="4.73711">
    <ele>174</ele>
    <name><![CDATA[2016-10-16 10:28 (End)]]></name>
    <desc><![CDATA[Created by Google My Tracks on Android  Name: 2016-10-16 10:28 Activity type: biking Description: - Total distance: 40.26 km (25.0 mi) Total time: 2:14:25 Moving time: 2:12:33 Average speed: 17.97 km/h (11.2 mi/h) Average moving speed: 18.22 km/h (11.3 mi/h) Max speed: 47.03 km/h (29.2 mi/h) Average pace: 3:20 min/km (5:22 min/mi) Average moving pace: 3:18 min/km (5:18 min/mi) Fastest pace: 1:17 min/km (2:03 min/mi) Max elevation: 552 m (1812 ft) Min elevation: 165 m (543 ft) Elevation gain: 933 m (3060 ft) Max grade: 16 % Min grade: -23 % Recorded: 16/10/2016 10:28]]></desc>
  </wpt>
  <trk>
    <name><![CDATA[2016-10-16 10:28]]></name>
    <trkseg>
      <trkpt lat="45.92457" lon="4.73735">
        <ele>174</ele>
        <time>2016-10-16T08:28:47.924Z</time>
      </trkpt>
      <trkpt lat="45.92457" lon="4.73723">
        <ele>174</ele>
        <time>2016-10-16T08:29:47Z</time>
      </trkpt>
      <trkpt lat="45.9246" lon="4.73721">
        <ele>174</ele>
        <time>2016-10-16T08:29:48Z</time>
      </trkpt>
      <trkpt lat="45.92466" lon="4.73717">
        <ele>174</ele>
        <time>2016-10-16T08:29:51Z</time>
      </trkpt>
      <trkpt lat="45.92468" lon="4.73715">
        <ele>174</ele>
        <time>2016-10-16T08:29:52Z</time>
      </trkpt>
      <trkpt lat="45.92471" lon="4.73706">
        <ele>174</ele>
        <time>2016-10-16T08:29:56Z</time>
      </trkpt>
      <trkpt lat="45.92472" lon="4.73702">
        <ele>174</ele>
        <time>2016-10-16T08:29:57Z</time>
      </trkpt>
      <trkpt lat="45.92473" lon="4.7369">
        <ele>174</ele>
        <time>2016-10-16T08:30:00Z</time>
      </trkpt>
      <trkpt lat="45.92473" lon="4.73686">
        <ele>174</ele>
        <time>2016-10-16T08:30:01Z</time>
      </trkpt>
      <trkpt lat="45.92475" lon="4.73676">
        <ele>174</ele>
        <time>2016-10-16T08:30:03Z</time>
      </trkpt>
      <trkpt lat="45.92475" lon="4.73671">
        <ele>175</ele>
        <time>2016-10-16T08:30:04Z</time>
      </trkpt>
      <trkpt lat="45.92477" lon="4.73661">
        <ele>174</ele>
        <time>2016-10-16T08:30:06Z</time>
      </trkpt>
      <trkpt lat="45.92478" lon="4.73657">
        <ele>174</ele>
        <time>2016-10-16T08:30:07Z</time>
      </trkpt>
      <trkpt lat="45.92482" lon="4.73651">
        <ele>174</ele>
        <time>2016-10-16T08:30:09Z</time>
      </trkpt>
      <trkpt lat="45.92486" lon="4.73651">
        <ele>174</ele>
        <time>2016-10-16T08:30:10Z</time>
      </trkpt>
      <trkpt lat="45.92492" lon="4.73651">
        <ele>174</ele>
        <time>2016-10-16T08:30:12Z</time>
      </trkpt>
      <trkpt lat="45.92496" lon="4.73651">
        <ele>174</ele>
        <time>2016-10-16T08:30:13Z</time>
      </trkpt>
      <trkpt lat="45.92503" lon="4.7365">
        <ele>174</ele>
        <time>2016-10-16T08:30:15Z</time>
      </trkpt>
      <trkpt lat="45.92506" lon="4.73649">
        <ele>174</ele>
        <time>2016-10-16T08:30:16Z</time>
      </trkpt>
      <trkpt lat="45.92511" lon="4.7365">
        <ele>174</ele>
        <time>2016-10-16T08:30:17Z</time>
      </trkpt>
      <trkpt lat="45.92515" lon="4.73651">
        <ele>174</ele>
        <time>2016-10-16T08:30:18Z</time>
      </trkpt>
      <trkpt lat="45.92523" lon="4.73653">
        <ele>174</ele>
        <time>2016-10-16T08:30:20Z</time>
      </trkpt>
      <trkpt lat="45.92528" lon="4.73653">
        <ele>173</ele>
        <time>2016-10-16T08:30:21Z</time>
      </trkpt>
      <trkpt lat="45.92532" lon="4.73652">
        <ele>173</ele>
        <time>2016-10-16T08:30:22Z</time>
      </trkpt>
      <trkpt lat="45.92537" lon="4.73651">
        <ele>173</ele>
        <time>2016-10-16T08:30:23Z</time>
      </trkpt>
      <trkpt lat="45.92542" lon="4.7365">
        <ele>173</ele>
        <time>2016-10-16T08:30:24Z</time>
      </trkpt>
      <trkpt lat="45.92547" lon="4.73649">
        <ele>173</ele>
        <time>2016-10-16T08:30:25Z</time>
      </trkpt>
      <trkpt lat="45.92552" lon="4.73647">
        <ele>173</ele>
        <time>2016-10-16T08:30:26Z</time>
      </trkpt>
      <trkpt lat="45.92557" lon="4.73645">
        <ele>173</ele>
        <time>2016-10-16T08:30:27Z</time>
      </trkpt>
      <trkpt lat="45.92562" lon="4.73643">
        <ele>173</ele>
        <time>2016-10-16T08:30:28Z</time>
      </trkpt>
      <trkpt lat="45.92567" lon="4.73641">
        <ele>173</ele>
        <time>2016-10-16T08:30:29Z</time>
      </trkpt>
      <trkpt lat="45.92572" lon="4.73639">
        <ele>172</ele>
        <time>2016-10-16T08:30:30Z</time>
      </trkpt>
      <trkpt lat="45.92576" lon="4.73637">
        <ele>172</ele>
        <time>2016-10-16T08:30:31Z</time>
      </trkpt>
      <trkpt lat="45.92581" lon="4.73636">
        <ele>172</ele>
        <time>2016-10-16T08:30:32Z</time>
      </trkpt>
      <trkpt lat="45.92586" lon="4.73635">
        <ele>172</ele>
        <time>2016-10-16T08:30:33Z</time>
      </trkpt>
      <trkpt lat="45.92592" lon="4.73633">
        <ele>172</ele>
        <time>2016-10-16T08:30:34Z</time>
      </trkpt>
      <trkpt lat="45.92597" lon="4.73631">
        <ele>172</ele>
        <time>2016-10-16T08:30:35Z</time>
      </trkpt>
      <trkpt lat="45.92603" lon="4.73631">
        <ele>172</ele>
        <time>2016-10-16T08:30:36Z</time>
      </trkpt>
      <trkpt lat="45.92608" lon="4.73631">
        <ele>173</ele>
        <time>2016-10-16T08:30:37Z</time>
      </trkpt>
      <trkpt lat="45.92613" lon="4.73633">
        <ele>173</ele>
        <time>2016-10-16T08:30:38Z</time>
      </trkpt>
      <trkpt lat="45.92619" lon="4.73636">
        <ele>173</ele>
        <time>2016-10-16T08:30:39Z</time>
      </trkpt>
      <trkpt lat="45.92623" lon="4.73641">
        <ele>173</ele>
        <time>2016-10-16T08:30:40Z</time>
      </trkpt>
      <trkpt lat="45.92626" lon="4.73648">
        <ele>173</ele>
        <time>2016-10-16T08:30:41Z</time>
      </trkpt>
      <trkpt lat="45.92632" lon="4.73661">
        <ele>173</ele>
        <time>2016-10-16T08:30:43Z</time>
      </trkpt>
      <trkpt lat="45.92635" lon="4.73666">
        <ele>173</ele>
        <time>2016-10-16T08:30:44Z</time>
      </trkpt>
      <trkpt lat="45.92639" lon="4.73671">
        <ele>173</ele>
        <time>2016-10-16T08:30:45Z</time>
      </trkpt>
      <trkpt lat="45.92642" lon="4.73676">
        <ele>173</ele>
        <time>2016-10-16T08:30:46Z</time>
      </trkpt>
      <trkpt lat="45.92645" lon="4.73681">
        <ele>173</ele>
        <time>2016-10-16T08:30:47Z</time>
      </trkpt>
      <trkpt lat="45.92649" lon="4.73687">
        <ele>173</ele>
        <time>2016-10-16T08:30:48Z</time>
      </trkpt>
      <trkpt lat="45.92652" lon="4.73692">
        <ele>173</ele>
        <time>2016-10-16T08:30:49Z</time>
      </trkpt>
      <trkpt lat="45.92656" lon="4.73697">
        <ele>173</ele>
        <time>2016-10-16T08:30:50Z</time>
      </trkpt>
      <trkpt lat="45.92661" lon="4.73701">
        <ele>173</ele>
        <time>2016-10-16T08:30:51Z</time>
      </trkpt>
      <trkpt lat="45.92666" lon="4.73705">
        <ele>173</ele>
        <time>2016-10-16T08:30:52Z</time>
      </trkpt>
      <trkpt lat="45.92676" lon="4.73711">
        <ele>174</ele>
        <time>2016-10-16T08:30:54Z</time>
      </trkpt>
      <trkpt lat="45.92686" lon="4.73715">
        <ele>173</ele>
        <time>2016-10-16T08:30:56Z</time>
      </trkpt>
      <trkpt lat="45.92691" lon="4.73717">
        <ele>173</ele>
        <time>2016-10-16T08:30:57Z</time>
      </trkpt>
      <trkpt lat="45.92695" lon="4.73717">
        <ele>173</ele>
        <time>2016-10-16T08:30:58Z</time>
      </trkpt>
      <trkpt lat="45.927" lon="4.73719">
        <ele>173</ele>
        <time>2016-10-16T08:30:59Z</time>
      </trkpt>
      <trkpt lat="45.92705" lon="4.7372">
        <ele>173</ele>
        <time>2016-10-16T08:31:00Z</time>
      </trkpt>
      <trkpt lat="45.9271" lon="4.73722">
        <ele>173</ele>
        <time>2016-10-16T08:31:01Z</time>
      </trkpt>
      <trkpt lat="45.92715" lon="4.73723">
        <ele>173</ele>
        <time>2016-10-16T08:31:02Z</time>
      </trkpt>
      <trkpt lat="45.9272" lon="4.73725">
        <ele>173</ele>
        <time>2016-10-16T08:31:03Z</time>
      </trkpt>
      <trkpt lat="45.92729" lon="4.73727">
        <ele>173</ele>
        <time>2016-10-16T08:31:05Z</time>
      </trkpt>
      <trkpt lat="45.92733" lon="4.73727">
        <ele>173</ele>
        <time>2016-10-16T08:31:06Z</time>
      </trkpt>
      <trkpt lat="45.92738" lon="4.73726">
        <ele>173</ele>
        <time>2016-10-16T08:31:07Z</time>
      </trkpt>
      <trkpt lat="45.92743" lon="4.73726">
        <ele>173</ele>
        <time>2016-10-16T08:31:08Z</time>
      </trkpt>
      <trkpt lat="45.92747" lon="4.73724">
        <ele>173</ele>
        <time>2016-10-16T08:31:09Z</time>
      </trkpt>
      <trkpt lat="45.92752" lon="4.73726">
        <ele>172</ele>
        <time>2016-10-16T08:31:10Z</time>
      </trkpt>
      <trkpt lat="45.92756" lon="4.73727">
        <ele>172</ele>
        <time>2016-10-16T08:31:11Z</time>
      </trkpt>
      <trkpt lat="45.92764" lon="4.73726">
        <ele>172</ele>
        <time>2016-10-16T08:31:13Z</time>
      </trkpt>
      <trkpt lat="45.92769" lon="4.73726">
        <ele>172</ele>
        <time>2016-10-16T08:31:14Z</time>
      </trkpt>
      <trkpt lat="45.92774" lon="4.73726">
        <ele>172</ele>
        <time>2016-10-16T08:31:15Z</time>
      </trkpt>
      <trkpt lat="45.92779" lon="4.73727">
        <ele>172</ele>
        <time>2016-10-16T08:31:16Z</time>
      </trkpt>
      <trkpt lat="45.92787" lon="4.73723">
        <ele>172</ele>
        <time>2016-10-16T08:31:18Z</time>
      </trkpt>
      <trkpt lat="45.92788" lon="4.73718">
        <ele>172</ele>
        <time>2016-10-16T08:31:19Z</time>
      </trkpt>
      <trkpt lat="45.9279" lon="4.73709">
        <ele>172</ele>
        <time>2016-10-16T08:31:21Z</time>
      </trkpt>
      <trkpt lat="45.92791" lon="4.73702">
        <ele>172</ele>
        <time>2016-10-16T08:31:22Z</time>
      </trkpt>
      <trkpt lat="45.92793" lon="4.73695">
        <ele>172</ele>
        <time>2016-10-16T08:31:23Z</time>
      </trkpt>
      <trkpt lat="45.92794" lon="4.73687">
        <ele>172</ele>
        <time>2016-10-16T08:31:24Z</time>
      </trkpt>
      <trkpt lat="45.92795" lon="4.7368">
        <ele>172</ele>
        <time>2016-10-16T08:31:25Z</time>
      </trkpt>
      <trkpt lat="45.92797" lon="4.73674">
        <ele>172</ele>
        <time>2016-10-16T08:31:26Z</time>
      </trkpt>
      <trkpt lat="45.92798" lon="4.73667">
        <ele>172</ele>
        <time>2016-10-16T08:31:27Z</time>
      </trkpt>
      <trkpt lat="45.928" lon="4.7366">
        <ele>172</ele>
        <time>2016-10-16T08:31:28Z</time>
      </trkpt>
      <trkpt lat="45.92801" lon="4.73653">
        <ele>172</ele>
        <time>2016-10-16T08:31:29Z</time>
      </trkpt>
      <trkpt lat="45.92804" lon="4.73648">
        <ele>172</ele>
        <time>2016-10-16T08:31:30Z</time>
      </trkpt>
      <trkpt lat="45.9281" lon="4.7364">
        <ele>172</ele>
        <time>2016-10-16T08:31:32Z</time>
      </trkpt>
      <trkpt lat="45.92814" lon="4.73635">
        <ele>172</ele>
        <time>2016-10-16T08:31:33Z</time>
      </trkpt>
      <trkpt lat="45.92817" lon="4.73629">
        <ele>172</ele>
        <time>2016-10-16T08:31:34Z</time>
      </trkpt>
      <trkpt lat="45.92819" lon="4.73624">
        <ele>172</ele>
        <time>2016-10-16T08:31:35Z</time>
      </trkpt>
      <trkpt lat="45.92821" lon="4.73611">
        <ele>171</ele>
        <time>2016-10-16T08:31:37Z</time>
      </trkpt>
      <trkpt lat="45.92822" lon="4.73605">
        <ele>171</ele>
        <time>2016-10-16T08:31:38Z</time>
      </trkpt>
      <trkpt lat="45.92822" lon="4.73598">
        <ele>171</ele>
        <time>2016-10-16T08:31:39Z</time>
      </trkpt>
      <trkpt lat="45.92823" lon="4.7359">
        <ele>171</ele>
        <time>2016-10-16T08:31:40Z</time>
      </trkpt>
      <trkpt lat="45.92824" lon="4.73583">
        <ele>171</ele>
        <time>2016-10-16T08:31:41Z</time>
      </trkpt>
      <trkpt lat="45.92824" lon="4.73575">
        <ele>171</ele>
        <time>2016-10-16T08:31:42Z</time>
      </trkpt>
      <trkpt lat="45.92824" lon="4.73567">
        <ele>171</ele>
        <time>2016-10-16T08:31:43Z</time>
      </trkpt>
      <trkpt lat="45.92824" lon="4.7356">
        <ele>171</ele>
        <time>2016-10-16T08:31:44Z</time>
      </trkpt>
      <trkpt lat="45.92825" lon="4.73548">
        <ele>171</ele>
        <time>2016-10-16T08:31:46Z</time>
      </trkpt>
      <trkpt lat="45.92826" lon="4.73541">
        <ele>172</ele>
        <time>2016-10-16T08:31:47Z</time>
      </trkpt>
      <trkpt lat="45.92826" lon="4.73533">
        <ele>172</ele>
        <time>2016-10-16T08:31:48Z</time>
      </trkpt>
      <trkpt lat="45.92827" lon="4.73525">
        <ele>172</ele>
        <time>2016-10-16T08:31:49Z</time>
      </trkpt>
      <trkpt lat="45.92828" lon="4.73517">
        <ele>172</ele>
        <time>2016-10-16T08:31:50Z</time>
      </trkpt>
      <trkpt lat="45.92829" lon="4.73509">
        <ele>172</ele>
        <time>2016-10-16T08:31:51Z</time>
      </trkpt>
      <trkpt lat="45.92829" lon="4.735">
        <ele>172</ele>
        <time>2016-10-16T08:31:52Z</time>
      </trkpt>
      <trkpt lat="45.9283" lon="4.73493">
        <ele>172</ele>
        <time>2016-10-16T08:31:53Z</time>
      </trkpt>
      <trkpt lat="45.92832" lon="4.73485">
        <ele>172</ele>
        <time>2016-10-16T08:31:54Z</time>
      </trkpt>
      <trkpt lat="45.92833" lon="4.73478">
        <ele>172</ele>
        <time>2016-10-16T08:31:55Z</time>
      </trkpt>
      <trkpt lat="45.92834" lon="4.73469">
        <ele>172</ele>
        <time>2016-10-16T08:31:56Z</time>
      </trkpt>
      <trkpt lat="45.92835" lon="4.73461">
        <ele>172</ele>
        <time>2016-10-16T08:31:57Z</time>
      </trkpt>
      <trkpt lat="45.92836" lon="4.73453">
        <ele>172</ele>
        <time>2016-10-16T08:31:58Z</time>
      </trkpt>
      <trkpt lat="45.92837" lon="4.73445">
        <ele>172</ele>
        <time>2016-10-16T08:31:59Z</time>
      </trkpt>
      <trkpt lat="45.92838" lon="4.73437">
        <ele>172</ele>
        <time>2016-10-16T08:32:00Z</time>
      </trkpt>
      <trkpt lat="45.92839" lon="4.73431">
        <ele>172</ele>
        <time>2016-10-16T08:32:01Z</time>
      </trkpt>
      <trkpt lat="45.9284" lon="4.73423">
        <ele>172</ele>
        <time>2016-10-16T08:32:02Z</time>
      </trkpt>
      <trkpt lat="45.92842" lon="4.73415">
        <ele>172</ele>
        <time>2016-10-16T08:32:03Z</time>
      </trkpt>
      <trkpt lat="45.92843" lon="4.73407">
        <ele>172</ele>
        <time>2016-10-16T08:32:04Z</time>
      </trkpt>
      <trkpt lat="45.92844" lon="4.73398">
        <ele>172</ele>
        <time>2016-10-16T08:32:05Z</time>
      </trkpt>
      <trkpt lat="45.92845" lon="4.7339">
        <ele>172</ele>
        <time>2016-10-16T08:32:06Z</time>
      </trkpt>
      <trkpt lat="45.92846" lon="4.73381">
        <ele>172</ele>
        <time>2016-10-16T08:32:07Z</time>
      </trkpt>
      <trkpt lat="45.92847" lon="4.73373">
        <ele>171</ele>
        <time>2016-10-16T08:32:08Z</time>
      </trkpt>
      <trkpt lat="45.92848" lon="4.73364">
        <ele>171</ele>
        <time>2016-10-16T08:32:09Z</time>
      </trkpt>
      <trkpt lat="45.92849" lon="4.73356">
        <ele>171</ele>
        <time>2016-10-16T08:32:10Z</time>
      </trkpt>
      <trkpt lat="45.9285" lon="4.73347">
        <ele>171</ele>
        <time>2016-10-16T08:32:11Z</time>
      </trkpt>
      <trkpt lat="45.92851" lon="4.73339">
        <ele>171</ele>
        <time>2016-10-16T08:32:12Z</time>
      </trkpt>
      <trkpt lat="45.92852" lon="4.73331">
        <ele>171</ele>
        <time>2016-10-16T08:32:13Z</time>
      </trkpt>
      <trkpt lat="45.92853" lon="4.73323">
        <ele>171</ele>
        <time>2016-10-16T08:32:14Z</time>
      </trkpt>
      <trkpt lat="45.92854" lon="4.73315">
        <ele>171</ele>
        <time>2016-10-16T08:32:15Z</time>
      </trkpt>
      <trkpt lat="45.92854" lon="4.73307">
        <ele>171</ele>
        <time>2016-10-16T08:32:16Z</time>
      </trkpt>
      <trkpt lat="45.92855" lon="4.73299">
        <ele>171</ele>
        <time>2016-10-16T08:32:17Z</time>
      </trkpt>
      <trkpt lat="45.92856" lon="4.7329">
        <ele>171</ele>
        <time>2016-10-16T08:32:18Z</time>
      </trkpt>
      <trkpt lat="45.92857" lon="4.73282">
        <ele>171</ele>
        <time>2016-10-16T08:32:19Z</time>
      </trkpt>
      <trkpt lat="45.92858" lon="4.73273">
        <ele>171</ele>
        <time>2016-10-16T08:32:20Z</time>
      </trkpt>
      <trkpt lat="45.9286" lon="4.73264">
        <ele>171</ele>
        <time>2016-10-16T08:32:21Z</time>
      </trkpt>
      <trkpt lat="45.92861" lon="4.73256">
        <ele>171</ele>
        <time>2016-10-16T08:32:22Z</time>
      </trkpt>
      <trkpt lat="45.92862" lon="4.73247">
        <ele>171</ele>
        <time>2016-10-16T08:32:23Z</time>
      </trkpt>
      <trkpt lat="45.92863" lon="4.73238">
        <ele>171</ele>
        <time>2016-10-16T08:32:24Z</time>
      </trkpt>
      <trkpt lat="45.92864" lon="4.73229">
        <ele>171</ele>
        <time>2016-10-16T08:32:25Z</time>
      </trkpt>
      <trkpt lat="45.92865" lon="4.7322">
        <ele>171</ele>
        <time>2016-10-16T08:32:26Z</time>
      </trkpt>
      <trkpt lat="45.92866" lon="4.73211">
        <ele>171</ele>
        <time>2016-10-16T08:32:27Z</time>
      </trkpt>
      <trkpt lat="45.92867" lon="4.73202">
        <ele>171</ele>
        <time>2016-10-16T08:32:28Z</time>
      </trkpt>
      <trkpt lat="45.92868" lon="4.73193">
        <ele>171</ele>
        <time>2016-10-16T08:32:29Z</time>
      </trkpt>
      <trkpt lat="45.92869" lon="4.73185">
        <ele>171</ele>
        <time>2016-10-16T08:32:30Z</time>
      </trkpt>
      <trkpt lat="45.9287" lon="4.73176">
        <ele>171</ele>
        <time>2016-10-16T08:32:31Z</time>
      </trkpt>
      <trkpt lat="45.92871" lon="4.73166">
        <ele>171</ele>
        <time>2016-10-16T08:32:32Z</time>
      </trkpt>
      <trkpt lat="45.92872" lon="4.73158">
        <ele>171</ele>
        <time>2016-10-16T08:32:33Z</time>
      </trkpt>
      <trkpt lat="45.92873" lon="4.73149">
        <ele>171</ele>
        <time>2016-10-16T08:32:34Z</time>
      </trkpt>
      <trkpt lat="45.92874" lon="4.7314">
        <ele>171</ele>
        <time>2016-10-16T08:32:35Z</time>
      </trkpt>
      <trkpt lat="45.92876" lon="4.73132">
        <ele>171</ele>
        <time>2016-10-16T08:32:36Z</time>
      </trkpt>
      <trkpt lat="45.92877" lon="4.73124">
        <ele>172</ele>
        <time>2016-10-16T08:32:37Z</time>
      </trkpt>
      <trkpt lat="45.9288" lon="4.73117">
        <ele>172</ele>
        <time>2016-10-16T08:32:38Z</time>
      </trkpt>
      <trkpt lat="45.92883" lon="4.73108">
        <ele>172</ele>
        <time>2016-10-16T08:32:39Z</time>
      </trkpt>
      <trkpt lat="45.92885" lon="4.731">
        <ele>172</ele>
        <time>2016-10-16T08:32:40Z</time>
      </trkpt>
      <trkpt lat="45.92887" lon="4.73093">
        <ele>172</ele>
        <time>2016-10-16T08:32:41Z</time>
      </trkpt>
      <trkpt lat="45.9289" lon="4.73085">
        <ele>172</ele>
        <time>2016-10-16T08:32:42Z</time>
      </trkpt>
      <trkpt lat="45.92894" lon="4.73078">
        <ele>172</ele>
        <time>2016-10-16T08:32:43Z</time>
      </trkpt>
      <trkpt lat="45.92897" lon="4.73071">
        <ele>172</ele>
        <time>2016-10-16T08:32:44Z</time>
      </trkpt>
      <trkpt lat="45.92901" lon="4.73065">
        <ele>172</ele>
        <time>2016-10-16T08:32:45Z</time>
      </trkpt>
      <trkpt lat="45.92904" lon="4.73058">
        <ele>172</ele>
        <time>2016-10-16T08:32:46Z</time>
      </trkpt>
      <trkpt lat="45.92908" lon="4.73052">
        <ele>172</ele>
        <time>2016-10-16T08:32:47Z</time>
      </trkpt>
      <trkpt lat="45.92912" lon="4.73046">
        <ele>172</ele>
        <time>2016-10-16T08:32:48Z</time>
      </trkpt>
      <trkpt lat="45.92916" lon="4.7304">
        <ele>172</ele>
        <time>2016-10-16T08:32:49Z</time>
      </trkpt>
      <trkpt lat="45.9292" lon="4.73034">
        <ele>172</ele>
        <time>2016-10-16T08:32:50Z</time>
      </trkpt>
      <trkpt lat="45.92924" lon="4.73028">
        <ele>171</ele>
        <time>2016-10-16T08:32:51Z</time>
      </trkpt>
      <trkpt lat="45.92928" lon="4.73023">
        <ele>171</ele>
        <time>2016-10-16T08:32:52Z</time>
      </trkpt>
      <trkpt lat="45.92933" lon="4.73017">
        <ele>171</ele>
        <time>2016-10-16T08:32:53Z</time>
      </trkpt>
      <trkpt lat="45.92938" lon="4.73012">
        <ele>171</ele>
        <time>2016-10-16T08:32:54Z</time>
      </trkpt>
      <trkpt lat="45.92942" lon="4.73006">
        <ele>171</ele>
        <time>2016-10-16T08:32:55Z</time>
      </trkpt>
      <trkpt lat="45.92947" lon="4.73001">
        <ele>171</ele>
        <time>2016-10-16T08:32:56Z</time>
      </trkpt>
      <trkpt lat="45.92951" lon="4.72996">
        <ele>171</ele>
        <time>2016-10-16T08:32:57Z</time>
      </trkpt>
      <trkpt lat="45.92955" lon="4.72991">
        <ele>171</ele>
        <time>2016-10-16T08:32:58Z</time>
      </trkpt>
      <trkpt lat="45.92959" lon="4.72985">
        <ele>171</ele>
        <time>2016-10-16T08:32:59Z</time>
      </trkpt>
      <trkpt lat="45.92963" lon="4.7298">
        <ele>171</ele>
        <time>2016-10-16T08:33:00Z</time>
      </trkpt>
      <trkpt lat="45.92967" lon="4.72976">
        <ele>171</ele>
        <time>2016-10-16T08:33:01Z</time>
      </trkpt>
      <trkpt lat="45.92971" lon="4.72971">
        <ele>171</ele>
        <time>2016-10-16T08:33:02Z</time>
      </trkpt>
      <trkpt lat="45.92974" lon="4.72967">
        <ele>171</ele>
        <time>2016-10-16T08:33:03Z</time>
      </trkpt>
      <trkpt lat="45.92978" lon="4.72963">
        <ele>171</ele>
        <time>2016-10-16T08:33:04Z</time>
      </trkpt>
      <trkpt lat="45.92982" lon="4.72958">
        <ele>171</ele>
        <time>2016-10-16T08:33:05Z</time>
      </trkpt>
      <trkpt lat="45.92986" lon="4.72953">
        <ele>171</ele>
        <time>2016-10-16T08:33:06Z</time>
      </trkpt>
      <trkpt lat="45.92989" lon="4.72948">
        <ele>171</ele>
        <time>2016-10-16T08:33:07Z</time>
      </trkpt>
      <trkpt lat="45.92993" lon="4.72943">
        <ele>171</ele>
        <time>2016-10-16T08:33:08Z</time>
      </trkpt>
      <trkpt lat="45.92997" lon="4.72939">
        <ele>171</ele>
        <time>2016-10-16T08:33:09Z</time>
      </trkpt>
      <trkpt lat="45.93001" lon="4.72935">
        <ele>170</ele>
        <time>2016-10-16T08:33:10Z</time>
      </trkpt>
      <trkpt lat="45.93006" lon="4.7293">
        <ele>170</ele>
        <time>2016-10-16T08:33:11Z</time>
      </trkpt>
      <trkpt lat="45.9301" lon="4.72926">
        <ele>170</ele>
        <time>2016-10-16T08:33:12Z</time>
      </trkpt>
      <trkpt lat="45.93014" lon="4.72921">
        <ele>170</ele>
        <time>2016-10-16T08:33:13Z</time>
      </trkpt>
      <trkpt lat="45.93018" lon="4.72915">
        <ele>171</ele>
        <time>2016-10-16T08:33:14Z</time>
      </trkpt>
      <trkpt lat="45.93023" lon="4.7291">
        <ele>172</ele>
        <time>2016-10-16T08:33:15Z</time>
      </trkpt>
      <trkpt lat="45.93027" lon="4.72903">
        <ele>172</ele>
        <time>2016-10-16T08:33:16Z</time>
      </trkpt>
      <trkpt lat="45.93032" lon="4.72897">
        <ele>172</ele>
        <time>2016-10-16T08:33:17Z</time>
      </trkpt>
      <trkpt lat="45.93037" lon="4.7289">
        <ele>172</ele>
        <time>2016-10-16T08:33:18Z</time>
      </trkpt>
      <trkpt lat="45.93041" lon="4.72884">
        <ele>172</ele>
        <time>2016-10-16T08:33:19Z</time>
      </trkpt>
      <trkpt lat="45.93046" lon="4.72878">
        <ele>172</ele>
        <time>2016-10-16T08:33:20Z</time>
      </trkpt>
      <trkpt lat="45.93051" lon="4.72872">
        <ele>172</ele>
        <time>2016-10-16T08:33:21Z</time>
      </trkpt>
      <trkpt lat="45.93056" lon="4.72866">
        <ele>172</ele>
        <time>2016-10-16T08:33:22Z</time>
      </trkpt>
      <trkpt lat="45.9306" lon="4.7286">
        <ele>172</ele>
        <time>2016-10-16T08:33:23Z</time>
      </trkpt>
      <trkpt lat="45.93065" lon="4.72856">
        <ele>172</ele>
        <time>2016-10-16T08:33:24Z</time>
      </trkpt>
      <trkpt lat="45.93069" lon="4.72851">
        <ele>172</ele>
        <time>2016-10-16T08:33:25Z</time>
      </trkpt>
      <trkpt lat="45.93072" lon="4.72846">
        <ele>173</ele>
        <time>2016-10-16T08:33:26Z</time>
      </trkpt>
      <trkpt lat="45.93077" lon="4.72839">
        <ele>173</ele>
        <time>2016-10-16T08:33:27Z</time>
      </trkpt>
      <trkpt lat="45.9308" lon="4.72834">
        <ele>173</ele>
        <time>2016-10-16T08:33:28Z</time>
      </trkpt>
      <trkpt lat="45.93085" lon="4.72825">
        <ele>172</ele>
        <time>2016-10-16T08:33:29Z</time>
      </trkpt>
      <trkpt lat="45.9309" lon="4.72819">
        <ele>172</ele>
        <time>2016-10-16T08:33:30Z</time>
      </trkpt>
      <trkpt lat="45.93097" lon="4.72816">
        <ele>172</ele>
        <time>2016-10-16T08:33:31Z</time>
      </trkpt>
      <trkpt lat="45.93103" lon="4.7281">
        <ele>172</ele>
        <time>2016-10-16T08:33:32Z</time>
      </trkpt>
      <trkpt lat="45.93109" lon="4.72805">
        <ele>171</ele>
        <time>2016-10-16T08:33:33Z</time>
      </trkpt>
      <trkpt lat="45.93117" lon="4.728">
        <ele>171</ele>
        <time>2016-10-16T08:33:34Z</time>
      </trkpt>
      <trkpt lat="45.93123" lon="4.72794">
        <ele>171</ele>
        <time>2016-10-16T08:33:35Z</time>
      </trkpt>
      <trkpt lat="45.93128" lon="4.72788">
        <ele>171</ele>
        <time>2016-10-16T08:33:36Z</time>
      </trkpt>
      <trkpt lat="45.93133" lon="4.72782">
        <ele>171</ele>
        <time>2016-10-16T08:33:37Z</time>
      </trkpt>
      <trkpt lat="45.93138" lon="4.72775">
        <ele>171</ele>
        <time>2016-10-16T08:33:38Z</time>
      </trkpt>
      <trkpt lat="45.93143" lon="4.72769">
        <ele>171</ele>
        <time>2016-10-16T08:33:39Z</time>
      </trkpt>
      <trkpt lat="45.93148" lon="4.72764">
        <ele>171</ele>
        <time>2016-10-16T08:33:40Z</time>
      </trkpt>
      <trkpt lat="45.93153" lon="4.72757">
        <ele>170</ele>
        <time>2016-10-16T08:33:41Z</time>
      </trkpt>
      <trkpt lat="45.93159" lon="4.72751">
        <ele>170</ele>
        <time>2016-10-16T08:33:42Z</time>
      </trkpt>
      <trkpt lat="45.93164" lon="4.72746">
        <ele>170</ele>
        <time>2016-10-16T08:33:43Z</time>
      </trkpt>
      <trkpt lat="45.93169" lon="4.7274">
        <ele>170</ele>
        <time>2016-10-16T08:33:44Z</time>
      </trkpt>
      <trkpt lat="45.93174" lon="4.72735">
        <ele>170</ele>
        <time>2016-10-16T08:33:45Z</time>
      </trkpt>
      <trkpt lat="45.93178" lon="4.7273">
        <ele>170</ele>
        <time>2016-10-16T08:33:46Z</time>
      </trkpt>
      <trkpt lat="45.93183" lon="4.72724">
        <ele>169</ele>
        <time>2016-10-16T08:33:47Z</time>
      </trkpt>
      <trkpt lat="45.93187" lon="4.72719">
        <ele>169</ele>
        <time>2016-10-16T08:33:48Z</time>
      </trkpt>
      <trkpt lat="45.93192" lon="4.72713">
        <ele>169</ele>
        <time>2016-10-16T08:33:49Z</time>
      </trkpt>
      <trkpt lat="45.93196" lon="4.72707">
        <ele>169</ele>
        <time>2016-10-16T08:33:50Z</time>
      </trkpt>
      <trkpt lat="45.93201" lon="4.72701">
        <ele>169</ele>
        <time>2016-10-16T08:33:51Z</time>
      </trkpt>
      <trkpt lat="45.93205" lon="4.72695">
        <ele>169</ele>
        <time>2016-10-16T08:33:52Z</time>
      </trkpt>
      <trkpt lat="45.9321" lon="4.72689">
        <ele>169</ele>
        <time>2016-10-16T08:33:53Z</time>
      </trkpt>
      <trkpt lat="45.93215" lon="4.72684">
        <ele>169</ele>
        <time>2016-10-16T08:33:54Z</time>
      </trkpt>
      <trkpt lat="45.93219" lon="4.72678">
        <ele>169</ele>
        <time>2016-10-16T08:33:55Z</time>
      </trkpt>
      <trkpt lat="45.93224" lon="4.72671">
        <ele>169</ele>
        <time>2016-10-16T08:33:56Z</time>
      </trkpt>
      <trkpt lat="45.93229" lon="4.72666">
        <ele>169</ele>
        <time>2016-10-16T08:33:57Z</time>
      </trkpt>
      <trkpt lat="45.93234" lon="4.72659">
        <ele>169</ele>
        <time>2016-10-16T08:33:58Z</time>
      </trkpt>
      <trkpt lat="45.93239" lon="4.72653">
        <ele>169</ele>
        <time>2016-10-16T08:33:59Z</time>
      </trkpt>
      <trkpt lat="45.93245" lon="4.72647">
        <ele>170</ele>
        <time>2016-10-16T08:34:00Z</time>
      </trkpt>
      <trkpt lat="45.9325" lon="4.72641">
        <ele>169</ele>
        <time>2016-10-16T08:34:01Z</time>
      </trkpt>
      <trkpt lat="45.93256" lon="4.72635">
        <ele>170</ele>
        <time>2016-10-16T08:34:02Z</time>
      </trkpt>
      <trkpt lat="45.93261" lon="4.7263">
        <ele>170</ele>
        <time>2016-10-16T08:34:03Z</time>
      </trkpt>
      <trkpt lat="45.93265" lon="4.72624">
        <ele>170</ele>
        <time>2016-10-16T08:34:04Z</time>
      </trkpt>
      <trkpt lat="45.9327" lon="4.72618">
        <ele>170</ele>
        <time>2016-10-16T08:34:05Z</time>
      </trkpt>
      <trkpt lat="45.93274" lon="4.72613">
        <ele>170</ele>
        <time>2016-10-16T08:34:06Z</time>
      </trkpt>
      <trkpt lat="45.93279" lon="4.72608">
        <ele>170</ele>
        <time>2016-10-16T08:34:07Z</time>
      </trkpt>
      <trkpt lat="45.93284" lon="4.72603">
        <ele>170</ele>
        <time>2016-10-16T08:34:08Z</time>
      </trkpt>
      <trkpt lat="45.93289" lon="4.72597">
        <ele>170</ele>
        <time>2016-10-16T08:34:09Z</time>
      </trkpt>
      <trkpt lat="45.93294" lon="4.72592">
        <ele>170</ele>
        <time>2016-10-16T08:34:10Z</time>
      </trkpt>
      <trkpt lat="45.93301" lon="4.72587">
        <ele>170</ele>
        <time>2016-10-16T08:34:11Z</time>
      </trkpt>
      <trkpt lat="45.93305" lon="4.7258">
        <ele>171</ele>
        <time>2016-10-16T08:34:12Z</time>
      </trkpt>
      <trkpt lat="45.9331" lon="4.72573">
        <ele>171</ele>
        <time>2016-10-16T08:34:13Z</time>
      </trkpt>
      <trkpt lat="45.93314" lon="4.72568">
        <ele>171</ele>
        <time>2016-10-16T08:34:14Z</time>
      </trkpt>
      <trkpt lat="45.93319" lon="4.72562">
        <ele>171</ele>
        <time>2016-10-16T08:34:15Z</time>
      </trkpt>
      <trkpt lat="45.93323" lon="4.72556">
        <ele>171</ele>
        <time>2016-10-16T08:34:16Z</time>
      </trkpt>
      <trkpt lat="45.93328" lon="4.72551">
        <ele>172</ele>
        <time>2016-10-16T08:34:17Z</time>
      </trkpt>
      <trkpt lat="45.93333" lon="4.72545">
        <ele>172</ele>
        <time>2016-10-16T08:34:18Z</time>
      </trkpt>
      <trkpt lat="45.93338" lon="4.72539">
        <ele>171</ele>
        <time>2016-10-16T08:34:19Z</time>
      </trkpt>
      <trkpt lat="45.93343" lon="4.72534">
        <ele>172</ele>
        <time>2016-10-16T08:34:20Z</time>
      </trkpt>
      <trkpt lat="45.93348" lon="4.72529">
        <ele>172</ele>
        <time>2016-10-16T08:34:21Z</time>
      </trkpt>
      <trkpt lat="45.93352" lon="4.72524">
        <ele>172</ele>
        <time>2016-10-16T08:34:22Z</time>
      </trkpt>
      <trkpt lat="45.93357" lon="4.72519">
        <ele>172</ele>
        <time>2016-10-16T08:34:23Z</time>
      </trkpt>
      <trkpt lat="45.93361" lon="4.72514">
        <ele>172</ele>
        <time>2016-10-16T08:34:24Z</time>
      </trkpt>
      <trkpt lat="45.93366" lon="4.72509">
        <ele>172</ele>
        <time>2016-10-16T08:34:25Z</time>
      </trkpt>
      <trkpt lat="45.9337" lon="4.72505">
        <ele>172</ele>
        <time>2016-10-16T08:34:26Z</time>
      </trkpt>
      <trkpt lat="45.93375" lon="4.725">
        <ele>172</ele>
        <time>2016-10-16T08:34:27Z</time>
      </trkpt>
      <trkpt lat="45.93379" lon="4.72495">
        <ele>173</ele>
        <time>2016-10-16T08:34:28Z</time>
      </trkpt>
      <trkpt lat="45.93383" lon="4.7249">
        <ele>173</ele>
        <time>2016-10-16T08:34:29Z</time>
      </trkpt>
      <trkpt lat="45.93388" lon="4.72484">
        <ele>173</ele>
        <time>2016-10-16T08:34:30Z</time>
      </trkpt>
      <trkpt lat="45.93392" lon="4.72479">
        <ele>173</ele>
        <time>2016-10-16T08:34:31Z</time>
      </trkpt>
      <trkpt lat="45.93395" lon="4.72473">
        <ele>173</ele>
        <time>2016-10-16T08:34:32Z</time>
      </trkpt>
      <trkpt lat="45.93398" lon="4.72467">
        <ele>173</ele>
        <time>2016-10-16T08:34:33Z</time>
      </trkpt>
      <trkpt lat="45.93401" lon="4.7246">
        <ele>173</ele>
        <time>2016-10-16T08:34:34Z</time>
      </trkpt>
      <trkpt lat="45.93403" lon="4.72453">
        <ele>173</ele>
        <time>2016-10-16T08:34:35Z</time>
      </trkpt>
      <trkpt lat="45.93406" lon="4.72447">
        <ele>173</ele>
        <time>2016-10-16T08:34:36Z</time>
      </trkpt>
      <trkpt lat="45.93409" lon="4.7244">
        <ele>173</ele>
        <time>2016-10-16T08:34:37Z</time>
      </trkpt>
      <trkpt lat="45.93413" lon="4.72433">
        <ele>173</ele>
        <time>2016-10-16T08:34:38Z</time>
      </trkpt>
      <trkpt lat="45.93417" lon="4.72427">
        <ele>174</ele>
        <time>2016-10-16T08:34:39Z</time>
      </trkpt>
      <trkpt lat="45.93421" lon="4.72423">
        <ele>174</ele>
        <time>2016-10-16T08:34:40Z</time>
      </trkpt>
      <trkpt lat="45.93426" lon="4.7242">
        <ele>174</ele>
        <time>2016-10-16T08:34:41Z</time>
      </trkpt>
      <trkpt lat="45.93432" lon="4.72417">
        <ele>174</ele>
        <time>2016-10-16T08:34:42Z</time>
      </trkpt>
      <trkpt lat="45.93437" lon="4.72414">
        <ele>174</ele>
        <time>2016-10-16T08:34:43Z</time>
      </trkpt>
      <trkpt lat="45.93442" lon="4.7241">
        <ele>173</ele>
        <time>2016-10-16T08:34:44Z</time>
      </trkpt>
      <trkpt lat="45.93447" lon="4.72406">
        <ele>173</ele>
        <time>2016-10-16T08:34:45Z</time>
      </trkpt>
      <trkpt lat="45.93453" lon="4.72402">
        <ele>173</ele>
        <time>2016-10-16T08:34:46Z</time>
      </trkpt>
      <trkpt lat="45.93458" lon="4.72398">
        <ele>173</ele>
        <time>2016-10-16T08:34:47Z</time>
      </trkpt>
      <trkpt lat="45.93463" lon="4.72393">
        <ele>173</ele>
        <time>2016-10-16T08:34:48Z</time>
      </trkpt>
      <trkpt lat="45.93467" lon="4.72387">
        <ele>173</ele>
        <time>2016-10-16T08:34:49Z</time>
      </trkpt>
      <trkpt lat="45.93472" lon="4.72381">
        <ele>173</ele>
        <time>2016-10-16T08:34:50Z</time>
      </trkpt>
      <trkpt lat="45.93476" lon="4.72375">
        <ele>173</ele>
        <time>2016-10-16T08:34:51Z</time>
      </trkpt>
      <trkpt lat="45.9348" lon="4.72369">
        <ele>173</ele>
        <time>2016-10-16T08:34:52Z</time>
      </trkpt>
      <trkpt lat="45.93484" lon="4.72364">
        <ele>173</ele>
        <time>2016-10-16T08:34:53Z</time>
      </trkpt>
      <trkpt lat="45.93488" lon="4.72358">
        <ele>173</ele>
        <time>2016-10-16T08:34:54Z</time>
      </trkpt>
      <trkpt lat="45.93492" lon="4.72351">
        <ele>173</ele>
        <time>2016-10-16T08:34:55Z</time>
      </trkpt>
      <trkpt lat="45.93496" lon="4.72345">
        <ele>173</ele>
        <time>2016-10-16T08:34:56Z</time>
      </trkpt>
      <trkpt lat="45.93499" lon="4.7234">
        <ele>173</ele>
        <time>2016-10-16T08:34:57Z</time>
      </trkpt>
      <trkpt lat="45.93503" lon="4.72335">
        <ele>173</ele>
        <time>2016-10-16T08:34:58Z</time>
      </trkpt>
      <trkpt lat="45.93507" lon="4.72329">
        <ele>173</ele>
        <time>2016-10-16T08:34:59Z</time>
      </trkpt>
      <trkpt lat="45.93511" lon="4.72324">
        <ele>173</ele>
        <time>2016-10-16T08:35:00Z</time>
      </trkpt>
      <trkpt lat="45.93515" lon="4.72318">
        <ele>173</ele>
        <time>2016-10-16T08:35:01Z</time>
      </trkpt>
      <trkpt lat="45.93519" lon="4.72312">
        <ele>173</ele>
        <time>2016-10-16T08:35:02Z</time>
      </trkpt>
      <trkpt lat="45.93522" lon="4.72306">
        <ele>173</ele>
        <time>2016-10-16T08:35:03Z</time>
      </trkpt>
      <trkpt lat="45.93525" lon="4.72299">
        <ele>172</ele>
        <time>2016-10-16T08:35:04Z</time>
      </trkpt>
      <trkpt lat="45.93527" lon="4.72292">
        <ele>172</ele>
        <time>2016-10-16T08:35:05Z</time>
      </trkpt>
      <trkpt lat="45.9353" lon="4.72286">
        <ele>172</ele>
        <time>2016-10-16T08:35:06Z</time>
      </trkpt>
      <trkpt lat="45.93533" lon="4.7228">
        <ele>172</ele>
        <time>2016-10-16T08:35:07Z</time>
      </trkpt>
      <trkpt lat="45.93536" lon="4.72274">
        <ele>172</ele>
        <time>2016-10-16T08:35:08Z</time>
      </trkpt>
      <trkpt lat="45.93539" lon="4.72268">
        <ele>172</ele>
        <time>2016-10-16T08:35:09Z</time>
      </trkpt>
      <trkpt lat="45.93542" lon="4.72261">
        <ele>172</ele>
        <time>2016-10-16T08:35:10Z</time>
      </trkpt>
      <trkpt lat="45.93545" lon="4.72254">
        <ele>172</ele>
        <time>2016-10-16T08:35:11Z</time>
      </trkpt>
      <trkpt lat="45.93547" lon="4.72248">
        <ele>172</ele>
        <time>2016-10-16T08:35:12Z</time>
      </trkpt>
      <trkpt lat="45.9355" lon="4.72242">
        <ele>172</ele>
        <time>2016-10-16T08:35:13Z</time>
      </trkpt>
      <trkpt lat="45.93553" lon="4.72235">
        <ele>172</ele>
        <time>2016-10-16T08:35:14Z</time>
      </trkpt>
      <trkpt lat="45.93556" lon="4.72229">
        <ele>173</ele>
        <time>2016-10-16T08:35:15Z</time>
      </trkpt>
      <trkpt lat="45.9356" lon="4.72223">
        <ele>173</ele>
        <time>2016-10-16T08:35:16Z</time>
      </trkpt>
      <trkpt lat="45.93565" lon="4.72217">
        <ele>173</ele>
        <time>2016-10-16T08:35:17Z</time>
      </trkpt>
      <trkpt lat="45.93569" lon="4.72212">
        <ele>173</ele>
        <time>2016-10-16T08:35:18Z</time>
      </trkpt>
      <trkpt lat="45.93574" lon="4.72207">
        <ele>173</ele>
        <time>2016-10-16T08:35:19Z</time>
      </trkpt>
      <trkpt lat="45.93578" lon="4.72202">
        <ele>173</ele>
        <time>2016-10-16T08:35:20Z</time>
      </trkpt>
      <trkpt lat="45.93583" lon="4.72196">
        <ele>173</ele>
        <time>2016-10-16T08:35:21Z</time>
      </trkpt>
      <trkpt lat="45.93588" lon="4.72191">
        <ele>173</ele>
        <time>2016-10-16T08:35:22Z</time>
      </trkpt>
      <trkpt lat="45.93593" lon="4.72187">
        <ele>173</ele>
        <time>2016-10-16T08:35:23Z</time>
      </trkpt>
      <trkpt lat="45.93598" lon="4.72182">
        <ele>173</ele>
        <time>2016-10-16T08:35:24Z</time>
      </trkpt>
      <trkpt lat="45.93603" lon="4.72176">
        <ele>173</ele>
        <time>2016-10-16T08:35:25Z</time>
      </trkpt>
      <trkpt lat="45.93608" lon="4.7217">
        <ele>173</ele>
        <time>2016-10-16T08:35:26Z</time>
      </trkpt>
      <trkpt lat="45.93613" lon="4.72165">
        <ele>173</ele>
        <time>2016-10-16T08:35:27Z</time>
      </trkpt>
      <trkpt lat="45.93618" lon="4.72161">
        <ele>173</ele>
        <time>2016-10-16T08:35:28Z</time>
      </trkpt>
      <trkpt lat="45.93623" lon="4.72156">
        <ele>173</ele>
        <time>2016-10-16T08:35:29Z</time>
      </trkpt>
      <trkpt lat="45.93627" lon="4.7215">
        <ele>173</ele>
        <time>2016-10-16T08:35:30Z</time>
      </trkpt>
      <trkpt lat="45.93632" lon="4.72143">
        <ele>173</ele>
        <time>2016-10-16T08:35:31Z</time>
      </trkpt>
      <trkpt lat="45.93636" lon="4.72136">
        <ele>173</ele>
        <time>2016-10-16T08:35:32Z</time>
      </trkpt>
      <trkpt lat="45.9364" lon="4.7213">
        <ele>173</ele>
        <time>2016-10-16T08:35:33Z</time>
      </trkpt>
      <trkpt lat="45.93644" lon="4.72123">
        <ele>173</ele>
        <time>2016-10-16T08:35:34Z</time>
      </trkpt>
      <trkpt lat="45.93647" lon="4.72117">
        <ele>173</ele>
        <time>2016-10-16T08:35:35Z</time>
      </trkpt>
      <trkpt lat="45.93651" lon="4.7211">
        <ele>173</ele>
        <time>2016-10-16T08:35:36Z</time>
      </trkpt>
      <trkpt lat="45.93654" lon="4.72104">
        <ele>173</ele>
        <time>2016-10-16T08:35:37Z</time>
      </trkpt>
      <trkpt lat="45.93658" lon="4.72098">
        <ele>173</ele>
        <time>2016-10-16T08:35:38Z</time>
      </trkpt>
      <trkpt lat="45.93662" lon="4.72092">
        <ele>172</ele>
        <time>2016-10-16T08:35:39Z</time>
      </trkpt>
      <trkpt lat="45.93666" lon="4.72086">
        <ele>172</ele>
        <time>2016-10-16T08:35:40Z</time>
      </trkpt>
      <trkpt lat="45.9367" lon="4.7208">
        <ele>172</ele>
        <time>2016-10-16T08:35:41Z</time>
      </trkpt>
      <trkpt lat="45.93673" lon="4.72074">
        <ele>172</ele>
        <time>2016-10-16T08:35:42Z</time>
      </trkpt>
      <trkpt lat="45.93677" lon="4.72067">
        <ele>172</ele>
        <time>2016-10-16T08:35:43Z</time>
      </trkpt>
      <trkpt lat="45.93681" lon="4.7206">
        <ele>172</ele>
        <time>2016-10-16T08:35:44Z</time>
      </trkpt>
      <trkpt lat="45.93685" lon="4.72053">
        <ele>172</ele>
        <time>2016-10-16T08:35:45Z</time>
      </trkpt>
      <trkpt lat="45.93688" lon="4.72048">
        <ele>172</ele>
        <time>2016-10-16T08:35:46Z</time>
      </trkpt>
      <trkpt lat="45.9369" lon="4.7204">
        <ele>173</ele>
        <time>2016-10-16T08:35:47Z</time>
      </trkpt>
      <trkpt lat="45.93691" lon="4.72032">
        <ele>173</ele>
        <time>2016-10-16T08:35:48Z</time>
      </trkpt>
      <trkpt lat="45.93691" lon="4.72026">
        <ele>173</ele>
        <time>2016-10-16T08:35:49Z</time>
      </trkpt>
      <trkpt lat="45.93688" lon="4.7202">
        <ele>173</ele>
        <time>2016-10-16T08:35:50Z</time>
      </trkpt>
      <trkpt lat="45.93685" lon="4.72014">
        <ele>173</ele>
        <time>2016-10-16T08:35:51Z</time>
      </trkpt>
      <trkpt lat="45.93683" lon="4.72009">
        <ele>173</ele>
        <time>2016-10-16T08:35:52Z</time>
      </trkpt>
      <trkpt lat="45.93681" lon="4.72003">
        <ele>173</ele>
        <time>2016-10-16T08:35:53Z</time>
      </trkpt>
      <trkpt lat="45.93679" lon="4.71997">
        <ele>173</ele>
        <time>2016-10-16T08:35:54Z</time>
      </trkpt>
      <trkpt lat="45.93676" lon="4.7199">
        <ele>173</ele>
        <time>2016-10-16T08:35:55Z</time>
      </trkpt>
      <trkpt lat="45.93672" lon="4.7198">
        <ele>173</ele>
        <time>2016-10-16T08:35:57Z</time>
      </trkpt>
      <trkpt lat="45.9367" lon="4.71976">
        <ele>173</ele>
        <time>2016-10-16T08:35:58Z</time>
      </trkpt>
      <trkpt lat="45.93666" lon="4.71967">
        <ele>175</ele>
        <time>2016-10-16T08:36:01Z</time>
      </trkpt>
      <trkpt lat="45.93666" lon="4.71966">
        <ele>175</ele>
        <time>2016-10-16T08:36:02Z</time>
      </trkpt>
      <trkpt lat="45.93666" lon="4.71965">
        <ele>175</ele>
        <time>2016-10-16T08:36:20Z</time>
      </trkpt>
      <trkpt lat="45.93665" lon="4.71964">
        <ele>175</ele>
        <time>2016-10-16T08:36:21Z</time>
      </trkpt>
      <trkpt lat="45.93661" lon="4.71956">
        <ele>175</ele>
        <time>2016-10-16T08:36:23Z</time>
      </trkpt>
      <trkpt lat="45.9366" lon="4.71952">
        <ele>175</ele>
        <time>2016-10-16T08:36:24Z</time>
      </trkpt>
      <trkpt lat="45.93655" lon="4.71941">
        <ele>175</ele>
        <time>2016-10-16T08:36:26Z</time>
      </trkpt>
      <trkpt lat="45.93653" lon="4.71935">
        <ele>175</ele>
        <time>2016-10-16T08:36:27Z</time>
      </trkpt>
      <trkpt lat="45.9365" lon="4.71928">
        <ele>175</ele>
        <time>2016-10-16T08:36:28Z</time>
      </trkpt>
      <trkpt lat="45.93648" lon="4.71921">
        <ele>175</ele>
        <time>2016-10-16T08:36:29Z</time>
      </trkpt>
      <trkpt lat="45.93646" lon="4.71914">
        <ele>176</ele>
        <time>2016-10-16T08:36:30Z</time>
      </trkpt>
      <trkpt lat="45.93643" lon="4.71907">
        <ele>177</ele>
        <time>2016-10-16T08:36:31Z</time>
      </trkpt>
      <trkpt lat="45.93641" lon="4.719">
        <ele>177</ele>
        <time>2016-10-16T08:36:32Z</time>
      </trkpt>
      <trkpt lat="45.93638" lon="4.71894">
        <ele>177</ele>
        <time>2016-10-16T08:36:33Z</time>
      </trkpt>
      <trkpt lat="45.93635" lon="4.71888">
        <ele>177</ele>
        <time>2016-10-16T08:36:34Z</time>
      </trkpt>
      <trkpt lat="45.93632" lon="4.71882">
        <ele>177</ele>
        <time>2016-10-16T08:36:35Z</time>
      </trkpt>
      <trkpt lat="45.93628" lon="4.71871">
        <ele>177</ele>
        <time>2016-10-16T08:36:37Z</time>
      </trkpt>
      <trkpt lat="45.93626" lon="4.71865">
        <ele>178</ele>
        <time>2016-10-16T08:36:38Z</time>
      </trkpt>
      <trkpt lat="45.93624" lon="4.71853">
        <ele>178</ele>
        <time>2016-10-16T08:36:40Z</time>
      </trkpt>
      <trkpt lat="45.93623" lon="4.71847">
        <ele>178</ele>
        <time>2016-10-16T08:36:41Z</time>
      </trkpt>
      <trkpt lat="45.93621" lon="4.71836">
        <ele>178</ele>
        <time>2016-10-16T08:36:43Z</time>
      </trkpt>
      <trkpt lat="45.93619" lon="4.71832">
        <ele>179</ele>
        <time>2016-10-16T08:36:44Z</time>
      </trkpt>
      <trkpt lat="45.93614" lon="4.71823">
        <ele>179</ele>
        <time>2016-10-16T08:36:47Z</time>
      </trkpt>
      <trkpt lat="45.93611" lon="4.71821">
        <ele>179</ele>
        <time>2016-10-16T08:36:48Z</time>
      </trkpt>
      <trkpt lat="45.93604" lon="4.71822">
        <ele>179</ele>
        <time>2016-10-16T08:36:50Z</time>
      </trkpt>
      <trkpt lat="45.93601" lon="4.71824">
        <ele>179</ele>
        <time>2016-10-16T08:36:51Z</time>
      </trkpt>
      <trkpt lat="45.93597" lon="4.71827">
        <ele>179</ele>
        <time>2016-10-16T08:36:52Z</time>
      </trkpt>
      <trkpt lat="45.93592" lon="4.71829">
        <ele>180</ele>
        <time>2016-10-16T08:36:53Z</time>
      </trkpt>
      <trkpt lat="45.93587" lon="4.71831">
        <ele>180</ele>
        <time>2016-10-16T08:36:54Z</time>
      </trkpt>
      <trkpt lat="45.93581" lon="4.71833">
        <ele>180</ele>
        <time>2016-10-16T08:36:55Z</time>
      </trkpt>
      <trkpt lat="45.93577" lon="4.71834">
        <ele>180</ele>
        <time>2016-10-16T08:36:56Z</time>
      </trkpt>
      <trkpt lat="45.93572" lon="4.71836">
        <ele>180</ele>
        <time>2016-10-16T08:36:57Z</time>
      </trkpt>
      <trkpt lat="45.93567" lon="4.71838">
        <ele>179</ele>
        <time>2016-10-16T08:36:58Z</time>
      </trkpt>
      <trkpt lat="45.93562" lon="4.7184">
        <ele>179</ele>
        <time>2016-10-16T08:36:59Z</time>
      </trkpt>
      <trkpt lat="45.93557" lon="4.71841">
        <ele>179</ele>
        <time>2016-10-16T08:37:00Z</time>
      </trkpt>
      <trkpt lat="45.93553" lon="4.71841">
        <ele>179</ele>
        <time>2016-10-16T08:37:01Z</time>
      </trkpt>
      <trkpt lat="45.93547" lon="4.71842">
        <ele>179</ele>
        <time>2016-10-16T08:37:02Z</time>
      </trkpt>
      <trkpt lat="45.93542" lon="4.71843">
        <ele>179</ele>
        <time>2016-10-16T08:37:03Z</time>
      </trkpt>
      <trkpt lat="45.93537" lon="4.71843">
        <ele>179</ele>
        <time>2016-10-16T08:37:04Z</time>
      </trkpt>
      <trkpt lat="45.93532" lon="4.71847">
        <ele>179</ele>
        <time>2016-10-16T08:37:05Z</time>
      </trkpt>
      <trkpt lat="45.93527" lon="4.71851">
        <ele>179</ele>
        <time>2016-10-16T08:37:06Z</time>
      </trkpt>
      <trkpt lat="45.93522" lon="4.71853">
        <ele>179</ele>
        <time>2016-10-16T08:37:07Z</time>
      </trkpt>
      <trkpt lat="45.93514" lon="4.71852">
        <ele>179</ele>
        <time>2016-10-16T08:37:09Z</time>
      </trkpt>
      <trkpt lat="45.93509" lon="4.71853">
        <ele>179</ele>
        <time>2016-10-16T08:37:10Z</time>
      </trkpt>
      <trkpt lat="45.93505" lon="4.71855">
        <ele>179</ele>
        <time>2016-10-16T08:37:11Z</time>
      </trkpt>
      <trkpt lat="45.93499" lon="4.71858">
        <ele>180</ele>
        <time>2016-10-16T08:37:12Z</time>
      </trkpt>
      <trkpt lat="45.93491" lon="4.71858">
        <ele>180</ele>
        <time>2016-10-16T08:37:14Z</time>
      </trkpt>
      <trkpt lat="45.93487" lon="4.71858">
        <ele>180</ele>
        <time>2016-10-16T08:37:15Z</time>
      </trkpt>
      <trkpt lat="45.93478" lon="4.71858">
        <ele>180</ele>
        <time>2016-10-16T08:37:17Z</time>
      </trkpt>
      <trkpt lat="45.93476" lon="4.71857">
        <ele>180</ele>
        <time>2016-10-16T08:37:18Z</time>
      </trkpt>
      <trkpt lat="45.93469" lon="4.71858">
        <ele>180</ele>
        <time>2016-10-16T08:37:20Z</time>
      </trkpt>
      <trkpt lat="45.93463" lon="4.71859">
        <ele>180</ele>
        <time>2016-10-16T08:37:21Z</time>
      </trkpt>
      <trkpt lat="45.93455" lon="4.71855">
        <ele>181</ele>
        <time>2016-10-16T08:37:23Z</time>
      </trkpt>
      <trkpt lat="45.93453" lon="4.71851">
        <ele>181</ele>
        <time>2016-10-16T08:37:24Z</time>
      </trkpt>
      <trkpt lat="45.93452" lon="4.71845">
        <ele>181</ele>
        <time>2016-10-16T08:37:25Z</time>
      </trkpt>
      <trkpt lat="45.93451" lon="4.71837">
        <ele>181</ele>
        <time>2016-10-16T08:37:26Z</time>
      </trkpt>
      <trkpt lat="45.93447" lon="4.71827">
        <ele>182</ele>
        <time>2016-10-16T08:37:28Z</time>
      </trkpt>
      <trkpt lat="45.93444" lon="4.71823">
        <ele>182</ele>
        <time>2016-10-16T08:37:29Z</time>
      </trkpt>
      <trkpt lat="45.93443" lon="4.71816">
        <ele>182</ele>
        <time>2016-10-16T08:37:31Z</time>
      </trkpt>
      <trkpt lat="45.93441" lon="4.71809">
        <ele>182</ele>
        <time>2016-10-16T08:37:32Z</time>
      </trkpt>
      <trkpt lat="45.93438" lon="4.71798">
        <ele>182</ele>
        <time>2016-10-16T08:37:34Z</time>
      </trkpt>
      <trkpt lat="45.93435" lon="4.71791">
        <ele>182</ele>
        <time>2016-10-16T08:37:35Z</time>
      </trkpt>
      <trkpt lat="45.93432" lon="4.71785">
        <ele>182</ele>
        <time>2016-10-16T08:37:36Z</time>
      </trkpt>
      <trkpt lat="45.93429" lon="4.71781">
        <ele>182</ele>
        <time>2016-10-16T08:37:37Z</time>
      </trkpt>
      <trkpt lat="45.93424" lon="4.71772">
        <ele>182</ele>
        <time>2016-10-16T08:37:39Z</time>
      </trkpt>
      <trkpt lat="45.93422" lon="4.71768">
        <ele>182</ele>
        <time>2016-10-16T08:37:40Z</time>
      </trkpt>
      <trkpt lat="45.93417" lon="4.71758">
        <ele>183</ele>
        <time>2016-10-16T08:37:42Z</time>
      </trkpt>
      <trkpt lat="45.93415" lon="4.71753">
        <ele>183</ele>
        <time>2016-10-16T08:37:43Z</time>
      </trkpt>
      <trkpt lat="45.93413" lon="4.71747">
        <ele>183</ele>
        <time>2016-10-16T08:37:44Z</time>
      </trkpt>
      <trkpt lat="45.93411" lon="4.71741">
        <ele>184</ele>
        <time>2016-10-16T08:37:45Z</time>
      </trkpt>
      <trkpt lat="45.93407" lon="4.71731">
        <ele>184</ele>
        <time>2016-10-16T08:37:47Z</time>
      </trkpt>
      <trkpt lat="45.93405" lon="4.71726">
        <ele>184</ele>
        <time>2016-10-16T08:37:48Z</time>
      </trkpt>
      <trkpt lat="45.93401" lon="4.71717">
        <ele>184</ele>
        <time>2016-10-16T08:37:50Z</time>
      </trkpt>
      <trkpt lat="45.93399" lon="4.71712">
        <ele>184</ele>
        <time>2016-10-16T08:37:51Z</time>
      </trkpt>
      <trkpt lat="45.93395" lon="4.71704">
        <ele>184</ele>
        <time>2016-10-16T08:37:53Z</time>
      </trkpt>
      <trkpt lat="45.93393" lon="4.71699">
        <ele>184</ele>
        <time>2016-10-16T08:37:54Z</time>
      </trkpt>
      <trkpt lat="45.93388" lon="4.71689">
        <ele>184</ele>
        <time>2016-10-16T08:37:56Z</time>
      </trkpt>
      <trkpt lat="45.93387" lon="4.71685">
        <ele>184</ele>
        <time>2016-10-16T08:37:57Z</time>
      </trkpt>
      <trkpt lat="45.93382" lon="4.71677">
        <ele>185</ele>
        <time>2016-10-16T08:37:59Z</time>
      </trkpt>
      <trkpt lat="45.93379" lon="4.71672">
        <ele>185</ele>
        <time>2016-10-16T08:38:00Z</time>
      </trkpt>
      <trkpt lat="45.93375" lon="4.71661">
        <ele>185</ele>
        <time>2016-10-16T08:38:02Z</time>
      </trkpt>
      <trkpt lat="45.93372" lon="4.71656">
        <ele>185</ele>
        <time>2016-10-16T08:38:03Z</time>
      </trkpt>
      <trkpt lat="45.9337" lon="4.7165">
        <ele>185</ele>
        <time>2016-10-16T08:38:04Z</time>
      </trkpt>
      <trkpt lat="45.93368" lon="4.71645">
        <ele>185</ele>
        <time>2016-10-16T08:38:05Z</time>
      </trkpt>
      <trkpt lat="45.93363" lon="4.71635">
        <ele>185</ele>
        <time>2016-10-16T08:38:07Z</time>
      </trkpt>
      <trkpt lat="45.93362" lon="4.71629">
        <ele>185</ele>
        <time>2016-10-16T08:38:08Z</time>
      </trkpt>
      <trkpt lat="45.93358" lon="4.7162">
        <ele>185</ele>
        <time>2016-10-16T08:38:10Z</time>
      </trkpt>
      <trkpt lat="45.93356" lon="4.71614">
        <ele>185</ele>
        <time>2016-10-16T08:38:11Z</time>
      </trkpt>
      <trkpt lat="45.93351" lon="4.71604">
        <ele>185</ele>
        <time>2016-10-16T08:38:13Z</time>
      </trkpt>
      <trkpt lat="45.93349" lon="4.71599">
        <ele>185</ele>
        <time>2016-10-16T08:38:14Z</time>
      </trkpt>
      <trkpt lat="45.93344" lon="4.71588">
        <ele>185</ele>
        <time>2016-10-16T08:38:16Z</time>
      </trkpt>
      <trkpt lat="45.93342" lon="4.71583">
        <ele>185</ele>
        <time>2016-10-16T08:38:17Z</time>
      </trkpt>
      <trkpt lat="45.93337" lon="4.71572">
        <ele>184</ele>
        <time>2016-10-16T08:38:19Z</time>
      </trkpt>
      <trkpt lat="45.93335" lon="4.71567">
        <ele>184</ele>
        <time>2016-10-16T08:38:20Z</time>
      </trkpt>
      <trkpt lat="45.93331" lon="4.71556">
        <ele>184</ele>
        <time>2016-10-16T08:38:22Z</time>
      </trkpt>
      <trkpt lat="45.93328" lon="4.71551">
        <ele>184</ele>
        <time>2016-10-16T08:38:23Z</time>
      </trkpt>
      <trkpt lat="45.93323" lon="4.71541">
        <ele>184</ele>
        <time>2016-10-16T08:38:25Z</time>
      </trkpt>
      <trkpt lat="45.9332" lon="4.71535">
        <ele>184</ele>
        <time>2016-10-16T08:38:26Z</time>
      </trkpt>
      <trkpt lat="45.93316" lon="4.71524">
        <ele>184</ele>
        <time>2016-10-16T08:38:28Z</time>
      </trkpt>
      <trkpt lat="45.93314" lon="4.71518">
        <ele>184</ele>
        <time>2016-10-16T08:38:29Z</time>
      </trkpt>
      <trkpt lat="45.93312" lon="4.71512">
        <ele>184</ele>
        <time>2016-10-16T08:38:30Z</time>
      </trkpt>
      <trkpt lat="45.93309" lon="4.71506">
        <ele>184</ele>
        <time>2016-10-16T08:38:31Z</time>
      </trkpt>
      <trkpt lat="45.93307" lon="4.71501">
        <ele>184</ele>
        <time>2016-10-16T08:38:32Z</time>
      </trkpt>
      <trkpt lat="45.93304" lon="4.71495">
        <ele>185</ele>
        <time>2016-10-16T08:38:33Z</time>
      </trkpt>
      <trkpt lat="45.93302" lon="4.71489">
        <ele>185</ele>
        <time>2016-10-16T08:38:34Z</time>
      </trkpt>
      <trkpt lat="45.93299" lon="4.71483">
        <ele>185</ele>
        <time>2016-10-16T08:38:35Z</time>
      </trkpt>
      <trkpt lat="45.93297" lon="4.71477">
        <ele>185</ele>
        <time>2016-10-16T08:38:36Z</time>
      </trkpt>
      <trkpt lat="45.93295" lon="4.71469">
        <ele>185</ele>
        <time>2016-10-16T08:38:37Z</time>
      </trkpt>
      <trkpt lat="45.93292" lon="4.71463">
        <ele>185</ele>
        <time>2016-10-16T08:38:38Z</time>
      </trkpt>
      <trkpt lat="45.9329" lon="4.71457">
        <ele>185</ele>
        <time>2016-10-16T08:38:39Z</time>
      </trkpt>
      <trkpt lat="45.93287" lon="4.71451">
        <ele>185</ele>
        <time>2016-10-16T08:38:40Z</time>
      </trkpt>
      <trkpt lat="45.93285" lon="4.71445">
        <ele>185</ele>
        <time>2016-10-16T08:38:41Z</time>
      </trkpt>
      <trkpt lat="45.9328" lon="4.71436">
        <ele>185</ele>
        <time>2016-10-16T08:38:43Z</time>
      </trkpt>
      <trkpt lat="45.93278" lon="4.71432">
        <ele>185</ele>
        <time>2016-10-16T08:38:44Z</time>
      </trkpt>
      <trkpt lat="45.93275" lon="4.71426">
        <ele>185</ele>
        <time>2016-10-16T08:38:45Z</time>
      </trkpt>
      <trkpt lat="45.93273" lon="4.7142">
        <ele>185</ele>
        <time>2016-10-16T08:38:46Z</time>
      </trkpt>
      <trkpt lat="45.93271" lon="4.71415">
        <ele>186</ele>
        <time>2016-10-16T08:38:47Z</time>
      </trkpt>
      <trkpt lat="45.93268" lon="4.71409">
        <ele>186</ele>
        <time>2016-10-16T08:38:48Z</time>
      </trkpt>
      <trkpt lat="45.93265" lon="4.71403">
        <ele>186</ele>
        <time>2016-10-16T08:38:49Z</time>
      </trkpt>
      <trkpt lat="45.93262" lon="4.71396">
        <ele>186</ele>
        <time>2016-10-16T08:38:50Z</time>
      </trkpt>
      <trkpt lat="45.9326" lon="4.7139">
        <ele>186</ele>
        <time>2016-10-16T08:38:51Z</time>
      </trkpt>
      <trkpt lat="45.93257" lon="4.71385">
        <ele>186</ele>
        <time>2016-10-16T08:38:52Z</time>
      </trkpt>
      <trkpt lat="45.93254" lon="4.71379">
        <ele>186</ele>
        <time>2016-10-16T08:38:53Z</time>
      </trkpt>
      <trkpt lat="45.93251" lon="4.71373">
        <ele>186</ele>
        <time>2016-10-16T08:38:54Z</time>
      </trkpt>
      <trkpt lat="45.93249" lon="4.71367">
        <ele>186</ele>
        <time>2016-10-16T08:38:55Z</time>
      </trkpt>
      <trkpt lat="45.93246" lon="4.71361">
        <ele>186</ele>
        <time>2016-10-16T08:38:56Z</time>
      </trkpt>
      <trkpt lat="45.93244" lon="4.71355">
        <ele>186</ele>
        <time>2016-10-16T08:38:57Z</time>
      </trkpt>
      <trkpt lat="45.93241" lon="4.7135">
        <ele>186</ele>
        <time>2016-10-16T08:38:58Z</time>
      </trkpt>
      <trkpt lat="45.93237" lon="4.71344">
        <ele>186</ele>
        <time>2016-10-16T08:38:59Z</time>
      </trkpt>
      <trkpt lat="45.93234" lon="4.71339">
        <ele>186</ele>
        <time>2016-10-16T08:39:00Z</time>
      </trkpt>
      <trkpt lat="45.93232" lon="4.71333">
        <ele>187</ele>
        <time>2016-10-16T08:39:01Z</time>
      </trkpt>
      <trkpt lat="45.93229" lon="4.71327">
        <ele>187</ele>
        <time>2016-10-16T08:39:02Z</time>
      </trkpt>
      <trkpt lat="45.93226" lon="4.7132">
        <ele>187</ele>
        <time>2016-10-16T08:39:03Z</time>
      </trkpt>
      <trkpt lat="45.93223" lon="4.71314">
        <ele>187</ele>
        <time>2016-10-16T08:39:04Z</time>
      </trkpt>
      <trkpt lat="45.9322" lon="4.71309">
        <ele>188</ele>
        <time>2016-10-16T08:39:05Z</time>
      </trkpt>
      <trkpt lat="45.93217" lon="4.71303">
        <ele>188</ele>
        <time>2016-10-16T08:39:06Z</time>
      </trkpt>
      <trkpt lat="45.93215" lon="4.71297">
        <ele>188</ele>
        <time>2016-10-16T08:39:07Z</time>
      </trkpt>
      <trkpt lat="45.93213" lon="4.71292">
        <ele>188</ele>
        <time>2016-10-16T08:39:08Z</time>
      </trkpt>
      <trkpt lat="45.93209" lon="4.71287">
        <ele>188</ele>
        <time>2016-10-16T08:39:09Z</time>
      </trkpt>
      <trkpt lat="45.93206" lon="4.71281">
        <ele>188</ele>
        <time>2016-10-16T08:39:10Z</time>
      </trkpt>
      <trkpt lat="45.93202" lon="4.7127">
        <ele>188</ele>
        <time>2016-10-16T08:39:12Z</time>
      </trkpt>
      <trkpt lat="45.93199" lon="4.71265">
        <ele>189</ele>
        <time>2016-10-16T08:39:13Z</time>
      </trkpt>
      <trkpt lat="45.93195" lon="4.71255">
        <ele>189</ele>
        <time>2016-10-16T08:39:15Z</time>
      </trkpt>
      <trkpt lat="45.93192" lon="4.7125">
        <ele>190</ele>
        <time>2016-10-16T08:39:16Z</time>
      </trkpt>
      <trkpt lat="45.93188" lon="4.7124">
        <ele>190</ele>
        <time>2016-10-16T08:39:18Z</time>
      </trkpt>
      <trkpt lat="45.93186" lon="4.71236">
        <ele>190</ele>
        <time>2016-10-16T08:39:19Z</time>
      </trkpt>
      <trkpt lat="45.93182" lon="4.71225">
        <ele>190</ele>
        <time>2016-10-16T08:39:21Z</time>
      </trkpt>
      <trkpt lat="45.9318" lon="4.71219">
        <ele>190</ele>
        <time>2016-10-16T08:39:22Z</time>
      </trkpt>
      <trkpt lat="45.93175" lon="4.71209">
        <ele>190</ele>
        <time>2016-10-16T08:39:24Z</time>
      </trkpt>
      <trkpt lat="45.93173" lon="4.71204">
        <ele>190</ele>
        <time>2016-10-16T08:39:25Z</time>
      </trkpt>
      <trkpt lat="45.93168" lon="4.71194">
        <ele>190</ele>
        <time>2016-10-16T08:39:27Z</time>
      </trkpt>
      <trkpt lat="45.93166" lon="4.71189">
        <ele>190</ele>
        <time>2016-10-16T08:39:28Z</time>
      </trkpt>
      <trkpt lat="45.93161" lon="4.71178">
        <ele>190</ele>
        <time>2016-10-16T08:39:30Z</time>
      </trkpt>
      <trkpt lat="45.93159" lon="4.71173">
        <ele>190</ele>
        <time>2016-10-16T08:39:31Z</time>
      </trkpt>
      <trkpt lat="45.93156" lon="4.71163">
        <ele>191</ele>
        <time>2016-10-16T08:39:33Z</time>
      </trkpt>
      <trkpt lat="45.93154" lon="4.71159">
        <ele>191</ele>
        <time>2016-10-16T08:39:34Z</time>
      </trkpt>
      <trkpt lat="45.93149" lon="4.71151">
        <ele>191</ele>
        <time>2016-10-16T08:39:36Z</time>
      </trkpt>
      <trkpt lat="45.93146" lon="4.71145">
        <ele>191</ele>
        <time>2016-10-16T08:39:37Z</time>
      </trkpt>
      <trkpt lat="45.93144" lon="4.7114">
        <ele>191</ele>
        <time>2016-10-16T08:39:38Z</time>
      </trkpt>
      <trkpt lat="45.93142" lon="4.71134">
        <ele>192</ele>
        <time>2016-10-16T08:39:39Z</time>
      </trkpt>
      <trkpt lat="45.93139" lon="4.71129">
        <ele>192</ele>
        <time>2016-10-16T08:39:40Z</time>
      </trkpt>
      <trkpt lat="45.93137" lon="4.71123">
        <ele>192</ele>
        <time>2016-10-16T08:39:41Z</time>
      </trkpt>
      <trkpt lat="45.93133" lon="4.71113">
        <ele>192</ele>
        <time>2016-10-16T08:39:43Z</time>
      </trkpt>
      <trkpt lat="45.93131" lon="4.71108">
        <ele>192</ele>
        <time>2016-10-16T08:39:44Z</time>
      </trkpt>
      <trkpt lat="45.93126" lon="4.71099">
        <ele>192</ele>
        <time>2016-10-16T08:39:46Z</time>
      </trkpt>
      <trkpt lat="45.93124" lon="4.71094">
        <ele>192</ele>
        <time>2016-10-16T08:39:47Z</time>
      </trkpt>
      <trkpt lat="45.9312" lon="4.71083">
        <ele>195</ele>
        <time>2016-10-16T08:39:49Z</time>
      </trkpt>
      <trkpt lat="45.93117" lon="4.71078">
        <ele>195</ele>
        <time>2016-10-16T08:39:50Z</time>
      </trkpt>
      <trkpt lat="45.93112" lon="4.71068">
        <ele>195</ele>
        <time>2016-10-16T08:39:52Z</time>
      </trkpt>
      <trkpt lat="45.9311" lon="4.71064">
        <ele>195</ele>
        <time>2016-10-16T08:39:53Z</time>
      </trkpt>
      <trkpt lat="45.93105" lon="4.71055">
        <ele>195</ele>
        <time>2016-10-16T08:39:55Z</time>
      </trkpt>
      <trkpt lat="45.93103" lon="4.71051">
        <ele>196</ele>
        <time>2016-10-16T08:39:56Z</time>
      </trkpt>
      <trkpt lat="45.93098" lon="4.71043">
        <ele>196</ele>
        <time>2016-10-16T08:39:58Z</time>
      </trkpt>
      <trkpt lat="45.93095" lon="4.71039">
        <ele>196</ele>
        <time>2016-10-16T08:39:59Z</time>
      </trkpt>
      <trkpt lat="45.93089" lon="4.71032">
        <ele>196</ele>
        <time>2016-10-16T08:40:01Z</time>
      </trkpt>
      <trkpt lat="45.93086" lon="4.71029">
        <ele>196</ele>
        <time>2016-10-16T08:40:02Z</time>
      </trkpt>
      <trkpt lat="45.93081" lon="4.71022">
        <ele>197</ele>
        <time>2016-10-16T08:40:04Z</time>
      </trkpt>
      <trkpt lat="45.93079" lon="4.71018">
        <ele>197</ele>
        <time>2016-10-16T08:40:05Z</time>
      </trkpt>
      <trkpt lat="45.93075" lon="4.71008">
        <ele>197</ele>
        <time>2016-10-16T08:40:07Z</time>
      </trkpt>
      <trkpt lat="45.93073" lon="4.71004">
        <ele>197</ele>
        <time>2016-10-16T08:40:08Z</time>
      </trkpt>
      <trkpt lat="45.9307" lon="4.70995">
        <ele>198</ele>
        <time>2016-10-16T08:40:10Z</time>
      </trkpt>
      <trkpt lat="45.93069" lon="4.70991">
        <ele>198</ele>
        <time>2016-10-16T08:40:11Z</time>
      </trkpt>
      <trkpt lat="45.93068" lon="4.70981">
        <ele>198</ele>
        <time>2016-10-16T08:40:13Z</time>
      </trkpt>
      <trkpt lat="45.93067" lon="4.70976">
        <ele>199</ele>
        <time>2016-10-16T08:40:14Z</time>
      </trkpt>
      <trkpt lat="45.93065" lon="4.70967">
        <ele>199</ele>
        <time>2016-10-16T08:40:16Z</time>
      </trkpt>
      <trkpt lat="45.93063" lon="4.70962">
        <ele>199</ele>
        <time>2016-10-16T08:40:17Z</time>
      </trkpt>
      <trkpt lat="45.93059" lon="4.70954">
        <ele>199</ele>
        <time>2016-10-16T08:40:19Z</time>
      </trkpt>
      <trkpt lat="45.93056" lon="4.7095">
        <ele>199</ele>
        <time>2016-10-16T08:40:20Z</time>
      </trkpt>
      <trkpt lat="45.93052" lon="4.70941">
        <ele>199</ele>
        <time>2016-10-16T08:40:22Z</time>
      </trkpt>
      <trkpt lat="45.9305" lon="4.70936">
        <ele>199</ele>
        <time>2016-10-16T08:40:23Z</time>
      </trkpt>
      <trkpt lat="45.93047" lon="4.70927">
        <ele>199</ele>
        <time>2016-10-16T08:40:25Z</time>
      </trkpt>
      <trkpt lat="45.93045" lon="4.70923">
        <ele>199</ele>
        <time>2016-10-16T08:40:26Z</time>
      </trkpt>
      <trkpt lat="45.93041" lon="4.70915">
        <ele>201</ele>
        <time>2016-10-16T08:40:28Z</time>
      </trkpt>
      <trkpt lat="45.93039" lon="4.70911">
        <ele>201</ele>
        <time>2016-10-16T08:40:29Z</time>
      </trkpt>
      <trkpt lat="45.93036" lon="4.70904">
        <ele>201</ele>
        <time>2016-10-16T08:40:31Z</time>
      </trkpt>
      <trkpt lat="45.93035" lon="4.70899">
        <ele>201</ele>
        <time>2016-10-16T08:40:32Z</time>
      </trkpt>
      <trkpt lat="45.93032" lon="4.70892">
        <ele>201</ele>
        <time>2016-10-16T08:40:34Z</time>
      </trkpt>
      <trkpt lat="45.93031" lon="4.70888">
        <ele>201</ele>
        <time>2016-10-16T08:40:35Z</time>
      </trkpt>
      <trkpt lat="45.93027" lon="4.7088">
        <ele>201</ele>
        <time>2016-10-16T08:40:37Z</time>
      </trkpt>
      <trkpt lat="45.93026" lon="4.70876">
        <ele>201</ele>
        <time>2016-10-16T08:40:38Z</time>
      </trkpt>
      <trkpt lat="45.93022" lon="4.70869">
        <ele>202</ele>
        <time>2016-10-16T08:40:40Z</time>
      </trkpt>
      <trkpt lat="45.93021" lon="4.70865">
        <ele>202</ele>
        <time>2016-10-16T08:40:41Z</time>
      </trkpt>
      <trkpt lat="45.93018" lon="4.70858">
        <ele>202</ele>
        <time>2016-10-16T08:40:43Z</time>
      </trkpt>
      <trkpt lat="45.93016" lon="4.70854">
        <ele>202</ele>
        <time>2016-10-16T08:40:44Z</time>
      </trkpt>
      <trkpt lat="45.93012" lon="4.70847">
        <ele>202</ele>
        <time>2016-10-16T08:40:46Z</time>
      </trkpt>
      <trkpt lat="45.9301" lon="4.70843">
        <ele>202</ele>
        <time>2016-10-16T08:40:47Z</time>
      </trkpt>
      <trkpt lat="45.93007" lon="4.70835">
        <ele>203</ele>
        <time>2016-10-16T08:40:49Z</time>
      </trkpt>
      <trkpt lat="45.93005" lon="4.70831">
        <ele>203</ele>
        <time>2016-10-16T08:40:50Z</time>
      </trkpt>
      <trkpt lat="45.93" lon="4.7082">
        <ele>203</ele>
        <time>2016-10-16T08:40:53Z</time>
      </trkpt>
      <trkpt lat="45.92998" lon="4.70816">
        <ele>203</ele>
        <time>2016-10-16T08:40:54Z</time>
      </trkpt>
      <trkpt lat="45.92994" lon="4.70806">
        <ele>204</ele>
        <time>2016-10-16T08:40:57Z</time>
      </trkpt>
      <trkpt lat="45.92992" lon="4.70803">
        <ele>204</ele>
        <time>2016-10-16T08:40:58Z</time>
      </trkpt>
      <trkpt lat="45.92988" lon="4.70793">
        <ele>204</ele>
        <time>2016-10-16T08:41:01Z</time>
      </trkpt>
      <trkpt lat="45.92986" lon="4.7079">
        <ele>204</ele>
        <time>2016-10-16T08:41:02Z</time>
      </trkpt>
      <trkpt lat="45.92983" lon="4.7078">
        <ele>204</ele>
        <time>2016-10-16T08:41:05Z</time>
      </trkpt>
      <trkpt lat="45.92982" lon="4.70778">
        <ele>204</ele>
        <time>2016-10-16T08:41:06Z</time>
      </trkpt>
      <trkpt lat="45.92977" lon="4.70768">
        <ele>204</ele>
        <time>2016-10-16T08:41:09Z</time>
      </trkpt>
      <trkpt lat="45.92975" lon="4.70762">
        <ele>204</ele>
        <time>2016-10-16T08:41:11Z</time>
      </trkpt>
      <trkpt lat="45.9297" lon="4.70753">
        <ele>204</ele>
        <time>2016-10-16T08:41:14Z</time>
      </trkpt>
      <trkpt lat="45.92968" lon="4.70749">
        <ele>207</ele>
        <time>2016-10-16T08:41:15Z</time>
      </trkpt>
      <trkpt lat="45.92965" lon="4.70739">
        <ele>207</ele>
        <time>2016-10-16T08:41:18Z</time>
      </trkpt>
      <trkpt lat="45.92963" lon="4.70736">
        <ele>207</ele>
        <time>2016-10-16T08:41:19Z</time>
      </trkpt>
      <trkpt lat="45.92959" lon="4.70728">
        <ele>208</ele>
        <time>2016-10-16T08:41:21Z</time>
      </trkpt>
      <trkpt lat="45.92958" lon="4.70725">
        <ele>208</ele>
        <time>2016-10-16T08:41:22Z</time>
      </trkpt>
      <trkpt lat="45.92953" lon="4.70716">
        <ele>208</ele>
        <time>2016-10-16T08:41:25Z</time>
      </trkpt>
      <trkpt lat="45.92951" lon="4.70713">
        <ele>208</ele>
        <time>2016-10-16T08:41:26Z</time>
      </trkpt>
      <trkpt lat="45.92946" lon="4.70703">
        <ele>209</ele>
        <time>2016-10-16T08:41:29Z</time>
      </trkpt>
      <trkpt lat="45.92945" lon="4.70699">
        <ele>209</ele>
        <time>2016-10-16T08:41:30Z</time>
      </trkpt>
      <trkpt lat="45.9294" lon="4.7069">
        <ele>209</ele>
        <time>2016-10-16T08:41:33Z</time>
      </trkpt>
      <trkpt lat="45.92938" lon="4.70687">
        <ele>210</ele>
        <time>2016-10-16T08:41:34Z</time>
      </trkpt>
      <trkpt lat="45.92935" lon="4.70678">
        <ele>210</ele>
        <time>2016-10-16T08:41:37Z</time>
      </trkpt>
      <trkpt lat="45.92934" lon="4.70675">
        <ele>210</ele>
        <time>2016-10-16T08:41:38Z</time>
      </trkpt>
      <trkpt lat="45.92931" lon="4.70665">
        <ele>214</ele>
        <time>2016-10-16T08:41:41Z</time>
      </trkpt>
      <trkpt lat="45.92929" lon="4.70662">
        <ele>214</ele>
        <time>2016-10-16T08:41:42Z</time>
      </trkpt>
      <trkpt lat="45.92926" lon="4.70651">
        <ele>215</ele>
        <time>2016-10-16T08:41:45Z</time>
      </trkpt>
      <trkpt lat="45.92924" lon="4.70648">
        <ele>215</ele>
        <time>2016-10-16T08:41:46Z</time>
      </trkpt>
      <trkpt lat="45.92919" lon="4.70637">
        <ele>216</ele>
        <time>2016-10-16T08:41:50Z</time>
      </trkpt>
      <trkpt lat="45.92919" lon="4.70634">
        <ele>216</ele>
        <time>2016-10-16T08:41:51Z</time>
      </trkpt>
      <trkpt lat="45.92915" lon="4.70624">
        <ele>215</ele>
        <time>2016-10-16T08:41:54Z</time>
      </trkpt>
      <trkpt lat="45.92913" lon="4.7062">
        <ele>216</ele>
        <time>2016-10-16T08:41:55Z</time>
      </trkpt>
      <trkpt lat="45.92909" lon="4.70611">
        <ele>216</ele>
        <time>2016-10-16T08:41:58Z</time>
      </trkpt>
      <trkpt lat="45.92908" lon="4.70608">
        <ele>217</ele>
        <time>2016-10-16T08:41:59Z</time>
      </trkpt>
      <trkpt lat="45.92902" lon="4.70599">
        <ele>217</ele>
        <time>2016-10-16T08:42:03Z</time>
      </trkpt>
      <trkpt lat="45.929" lon="4.70595">
        <ele>217</ele>
        <time>2016-10-16T08:42:04Z</time>
      </trkpt>
      <trkpt lat="45.92897" lon="4.70586">
        <ele>218</ele>
        <time>2016-10-16T08:42:07Z</time>
      </trkpt>
      <trkpt lat="45.92895" lon="4.70583">
        <ele>220</ele>
        <time>2016-10-16T08:42:08Z</time>
      </trkpt>
      <trkpt lat="45.92891" lon="4.70574">
        <ele>220</ele>
        <time>2016-10-16T08:42:11Z</time>
      </trkpt>
      <trkpt lat="45.9289" lon="4.70571">
        <ele>220</ele>
        <time>2016-10-16T08:42:12Z</time>
      </trkpt>
      <trkpt lat="45.92886" lon="4.70561">
        <ele>220</ele>
        <time>2016-10-16T08:42:15Z</time>
      </trkpt>
      <trkpt lat="45.92884" lon="4.70555">
        <ele>220</ele>
        <time>2016-10-16T08:42:16Z</time>
      </trkpt>
      <trkpt lat="45.9288" lon="4.70548">
        <ele>220</ele>
        <time>2016-10-16T08:42:19Z</time>
      </trkpt>
      <trkpt lat="45.92879" lon="4.70545">
        <ele>220</ele>
        <time>2016-10-16T08:42:20Z</time>
      </trkpt>
      <trkpt lat="45.92876" lon="4.70536">
        <ele>220</ele>
        <time>2016-10-16T08:42:23Z</time>
      </trkpt>
      <trkpt lat="45.92874" lon="4.70533">
        <ele>220</ele>
        <time>2016-10-16T08:42:24Z</time>
      </trkpt>
      <trkpt lat="45.9287" lon="4.70525">
        <ele>220</ele>
        <time>2016-10-16T08:42:27Z</time>
      </trkpt>
      <trkpt lat="45.92869" lon="4.70523">
        <ele>220</ele>
        <time>2016-10-16T08:42:28Z</time>
      </trkpt>
      <trkpt lat="45.92865" lon="4.70514">
        <ele>220</ele>
        <time>2016-10-16T08:42:31Z</time>
      </trkpt>
      <trkpt lat="45.92863" lon="4.70512">
        <ele>220</ele>
        <time>2016-10-16T08:42:32Z</time>
      </trkpt>
      <trkpt lat="45.92859" lon="4.70503">
        <ele>220</ele>
        <time>2016-10-16T08:42:35Z</time>
      </trkpt>
      <trkpt lat="45.92857" lon="4.70501">
        <ele>220</ele>
        <time>2016-10-16T08:42:36Z</time>
      </trkpt>
      <trkpt lat="45.92853" lon="4.70489">
        <ele>222</ele>
        <time>2016-10-16T08:42:40Z</time>
      </trkpt>
      <trkpt lat="45.92852" lon="4.70487">
        <ele>222</ele>
        <time>2016-10-16T08:42:41Z</time>
      </trkpt>
      <trkpt lat="45.92851" lon="4.70476">
        <ele>223</ele>
        <time>2016-10-16T08:42:45Z</time>
      </trkpt>
      <trkpt lat="45.92852" lon="4.70473">
        <ele>223</ele>
        <time>2016-10-16T08:42:46Z</time>
      </trkpt>
      <trkpt lat="45.92851" lon="4.70461">
        <ele>224</ele>
        <time>2016-10-16T08:42:50Z</time>
      </trkpt>
      <trkpt lat="45.9285" lon="4.70458">
        <ele>224</ele>
        <time>2016-10-16T08:42:51Z</time>
      </trkpt>
      <trkpt lat="45.92851" lon="4.70447">
        <ele>224</ele>
        <time>2016-10-16T08:42:55Z</time>
      </trkpt>
      <trkpt lat="45.92851" lon="4.70444">
        <ele>225</ele>
        <time>2016-10-16T08:42:56Z</time>
      </trkpt>
      <trkpt lat="45.9285" lon="4.70433">
        <ele>225</ele>
        <time>2016-10-16T08:43:00Z</time>
      </trkpt>
      <trkpt lat="45.92851" lon="4.70429">
        <ele>225</ele>
        <time>2016-10-16T08:43:01Z</time>
      </trkpt>
      <trkpt lat="45.92853" lon="4.7042">
        <ele>225</ele>
        <time>2016-10-16T08:43:04Z</time>
      </trkpt>
      <trkpt lat="45.92854" lon="4.70417">
        <ele>227</ele>
        <time>2016-10-16T08:43:05Z</time>
      </trkpt>
      <trkpt lat="45.92856" lon="4.70404">
        <ele>227</ele>
        <time>2016-10-16T08:43:09Z</time>
      </trkpt>
      <trkpt lat="45.92856" lon="4.70401">
        <ele>227</ele>
        <time>2016-10-16T08:43:10Z</time>
      </trkpt>
      <trkpt lat="45.92858" lon="4.70391">
        <ele>227</ele>
        <time>2016-10-16T08:43:13Z</time>
      </trkpt>
      <trkpt lat="45.92859" lon="4.70388">
        <ele>227</ele>
        <time>2016-10-16T08:43:14Z</time>
      </trkpt>
      <trkpt lat="45.92861" lon="4.70377">
        <ele>227</ele>
        <time>2016-10-16T08:43:17Z</time>
      </trkpt>
      <trkpt lat="45.92862" lon="4.70373">
        <ele>227</ele>
        <time>2016-10-16T08:43:18Z</time>
      </trkpt>
      <trkpt lat="45.92864" lon="4.70363">
        <ele>228</ele>
        <time>2016-10-16T08:43:21Z</time>
      </trkpt>
      <trkpt lat="45.92867" lon="4.70362">
        <ele>227</ele>
        <time>2016-10-16T08:43:22Z</time>
      </trkpt>
      <trkpt lat="45.92869" lon="4.7035">
        <ele>228</ele>
        <time>2016-10-16T08:43:26Z</time>
      </trkpt>
      <trkpt lat="45.9287" lon="4.70347">
        <ele>228</ele>
        <time>2016-10-16T08:43:27Z</time>
      </trkpt>
      <trkpt lat="45.9287" lon="4.70337">
        <ele>228</ele>
        <time>2016-10-16T08:43:30Z</time>
      </trkpt>
      <trkpt lat="45.9287" lon="4.70334">
        <ele>228</ele>
        <time>2016-10-16T08:43:31Z</time>
      </trkpt>
      <trkpt lat="45.92872" lon="4.70324">
        <ele>230</ele>
        <time>2016-10-16T08:43:34Z</time>
      </trkpt>
      <trkpt lat="45.92872" lon="4.70321">
        <ele>230</ele>
        <time>2016-10-16T08:43:35Z</time>
      </trkpt>
      <trkpt lat="45.92876" lon="4.70311">
        <ele>231</ele>
        <time>2016-10-16T08:43:38Z</time>
      </trkpt>
      <trkpt lat="45.92877" lon="4.70308">
        <ele>231</ele>
        <time>2016-10-16T08:43:39Z</time>
      </trkpt>
      <trkpt lat="45.92879" lon="4.70299">
        <ele>231</ele>
        <time>2016-10-16T08:43:42Z</time>
      </trkpt>
      <trkpt lat="45.92879" lon="4.70295">
        <ele>231</ele>
        <time>2016-10-16T08:43:43Z</time>
      </trkpt>
      <trkpt lat="45.92881" lon="4.70286">
        <ele>231</ele>
        <time>2016-10-16T08:43:46Z</time>
      </trkpt>
      <trkpt lat="45.92881" lon="4.70283">
        <ele>231</ele>
        <time>2016-10-16T08:43:47Z</time>
      </trkpt>
      <trkpt lat="45.92881" lon="4.70272">
        <ele>232</ele>
        <time>2016-10-16T08:43:50Z</time>
      </trkpt>
      <trkpt lat="45.92881" lon="4.70269">
        <ele>232</ele>
        <time>2016-10-16T08:43:51Z</time>
      </trkpt>
      <trkpt lat="45.92883" lon="4.70259">
        <ele>232</ele>
        <time>2016-10-16T08:43:54Z</time>
      </trkpt>
      <trkpt lat="45.92883" lon="4.70256">
        <ele>232</ele>
        <time>2016-10-16T08:43:55Z</time>
      </trkpt>
      <trkpt lat="45.92884" lon="4.70244">
        <ele>235</ele>
        <time>2016-10-16T08:43:58Z</time>
      </trkpt>
      <trkpt lat="45.92884" lon="4.70241">
        <ele>235</ele>
        <time>2016-10-16T08:43:59Z</time>
      </trkpt>
      <trkpt lat="45.92885" lon="4.70228">
        <ele>235</ele>
        <time>2016-10-16T08:44:03Z</time>
      </trkpt>
      <trkpt lat="45.92885" lon="4.70225">
        <ele>235</ele>
        <time>2016-10-16T08:44:04Z</time>
      </trkpt>
      <trkpt lat="45.92886" lon="4.70212">
        <ele>236</ele>
        <time>2016-10-16T08:44:08Z</time>
      </trkpt>
      <trkpt lat="45.92886" lon="4.70209">
        <ele>236</ele>
        <time>2016-10-16T08:44:09Z</time>
      </trkpt>
      <trkpt lat="45.92887" lon="4.70199">
        <ele>236</ele>
        <time>2016-10-16T08:44:12Z</time>
      </trkpt>
      <trkpt lat="45.92887" lon="4.70196">
        <ele>236</ele>
        <time>2016-10-16T08:44:13Z</time>
      </trkpt>
      <trkpt lat="45.92887" lon="4.70186">
        <ele>236</ele>
        <time>2016-10-16T08:44:16Z</time>
      </trkpt>
      <trkpt lat="45.92887" lon="4.70182">
        <ele>236</ele>
        <time>2016-10-16T08:44:17Z</time>
      </trkpt>
      <trkpt lat="45.92887" lon="4.7017">
        <ele>236</ele>
        <time>2016-10-16T08:44:21Z</time>
      </trkpt>
      <trkpt lat="45.92887" lon="4.70166">
        <ele>239</ele>
        <time>2016-10-16T08:44:22Z</time>
      </trkpt>
      <trkpt lat="45.92887" lon="4.70156">
        <ele>239</ele>
        <time>2016-10-16T08:44:25Z</time>
      </trkpt>
      <trkpt lat="45.92887" lon="4.70153">
        <ele>239</ele>
        <time>2016-10-16T08:44:26Z</time>
      </trkpt>
      <trkpt lat="45.92888" lon="4.70143">
        <ele>240</ele>
        <time>2016-10-16T08:44:29Z</time>
      </trkpt>
      <trkpt lat="45.92887" lon="4.70139">
        <ele>240</ele>
        <time>2016-10-16T08:44:30Z</time>
      </trkpt>
      <trkpt lat="45.92888" lon="4.70127">
        <ele>240</ele>
        <time>2016-10-16T08:44:34Z</time>
      </trkpt>
      <trkpt lat="45.92888" lon="4.70123">
        <ele>240</ele>
        <time>2016-10-16T08:44:35Z</time>
      </trkpt>
      <trkpt lat="45.92888" lon="4.70114">
        <ele>241</ele>
        <time>2016-10-16T08:44:38Z</time>
      </trkpt>
      <trkpt lat="45.92888" lon="4.7011">
        <ele>241</ele>
        <time>2016-10-16T08:44:39Z</time>
      </trkpt>
      <trkpt lat="45.92888" lon="4.70097">
        <ele>241</ele>
        <time>2016-10-16T08:44:43Z</time>
      </trkpt>
      <trkpt lat="45.92888" lon="4.70094">
        <ele>241</ele>
        <time>2016-10-16T08:44:44Z</time>
      </trkpt>
      <trkpt lat="45.92889" lon="4.70082">
        <ele>244</ele>
        <time>2016-10-16T08:44:48Z</time>
      </trkpt>
      <trkpt lat="45.92888" lon="4.70079">
        <ele>244</ele>
        <time>2016-10-16T08:44:49Z</time>
      </trkpt>
      <trkpt lat="45.92889" lon="4.70067">
        <ele>244</ele>
        <time>2016-10-16T08:44:53Z</time>
      </trkpt>
      <trkpt lat="45.9289" lon="4.70064">
        <ele>245</ele>
        <time>2016-10-16T08:44:54Z</time>
      </trkpt>
      <trkpt lat="45.92892" lon="4.70054">
        <ele>245</ele>
        <time>2016-10-16T08:44:57Z</time>
      </trkpt>
      <trkpt lat="45.92892" lon="4.70051">
        <ele>245</ele>
        <time>2016-10-16T08:44:58Z</time>
      </trkpt>
      <trkpt lat="45.92891" lon="4.70038">
        <ele>246</ele>
        <time>2016-10-16T08:45:02Z</time>
      </trkpt>
      <trkpt lat="45.92891" lon="4.70035">
        <ele>246</ele>
        <time>2016-10-16T08:45:03Z</time>
      </trkpt>
      <trkpt lat="45.92895" lon="4.70024">
        <ele>246</ele>
        <time>2016-10-16T08:45:07Z</time>
      </trkpt>
      <trkpt lat="45.92896" lon="4.70021">
        <ele>246</ele>
        <time>2016-10-16T08:45:08Z</time>
      </trkpt>
      <trkpt lat="45.92901" lon="4.70013">
        <ele>246</ele>
        <time>2016-10-16T08:45:11Z</time>
      </trkpt>
      <trkpt lat="45.92904" lon="4.7001">
        <ele>246</ele>
        <time>2016-10-16T08:45:12Z</time>
      </trkpt>
      <trkpt lat="45.92911" lon="4.70008">
        <ele>246</ele>
        <time>2016-10-16T08:45:15Z</time>
      </trkpt>
      <trkpt lat="45.92914" lon="4.70008">
        <ele>246</ele>
        <time>2016-10-16T08:45:16Z</time>
      </trkpt>
      <trkpt lat="45.92921" lon="4.70013">
        <ele>245</ele>
        <time>2016-10-16T08:45:19Z</time>
      </trkpt>
      <trkpt lat="45.92923" lon="4.70015">
        <ele>245</ele>
        <time>2016-10-16T08:45:20Z</time>
      </trkpt>
      <trkpt lat="45.92928" lon="4.70022">
        <ele>244</ele>
        <time>2016-10-16T08:45:23Z</time>
      </trkpt>
      <trkpt lat="45.92929" lon="4.70025">
        <ele>244</ele>
        <time>2016-10-16T08:45:24Z</time>
      </trkpt>
      <trkpt lat="45.92931" lon="4.70037">
        <ele>243</ele>
        <time>2016-10-16T08:45:28Z</time>
      </trkpt>
      <trkpt lat="45.92932" lon="4.7004">
        <ele>243</ele>
        <time>2016-10-16T08:45:29Z</time>
      </trkpt>
      <trkpt lat="45.92935" lon="4.7005">
        <ele>243</ele>
        <time>2016-10-16T08:45:32Z</time>
      </trkpt>
      <trkpt lat="45.92937" lon="4.70053">
        <ele>243</ele>
        <time>2016-10-16T08:45:33Z</time>
      </trkpt>
      <trkpt lat="45.9294" lon="4.70062">
        <ele>242</ele>
        <time>2016-10-16T08:45:36Z</time>
      </trkpt>
      <trkpt lat="45.92942" lon="4.70064">
        <ele>242</ele>
        <time>2016-10-16T08:45:37Z</time>
      </trkpt>
      <trkpt lat="45.92949" lon="4.70069">
        <ele>242</ele>
        <time>2016-10-16T08:45:40Z</time>
      </trkpt>
      <trkpt lat="45.92952" lon="4.70069">
        <ele>242</ele>
        <time>2016-10-16T08:45:41Z</time>
      </trkpt>
      <trkpt lat="45.92959" lon="4.7007">
        <ele>242</ele>
        <time>2016-10-16T08:45:44Z</time>
      </trkpt>
      <trkpt lat="45.92961" lon="4.70069">
        <ele>242</ele>
        <time>2016-10-16T08:45:45Z</time>
      </trkpt>
      <trkpt lat="45.92968" lon="4.70063">
        <ele>243</ele>
        <time>2016-10-16T08:45:48Z</time>
      </trkpt>
      <trkpt lat="45.92969" lon="4.70061">
        <ele>243</ele>
        <time>2016-10-16T08:45:49Z</time>
      </trkpt>
      <trkpt lat="45.92975" lon="4.70052">
        <ele>243</ele>
        <time>2016-10-16T08:45:53Z</time>
      </trkpt>
      <trkpt lat="45.92976" lon="4.70049">
        <ele>243</ele>
        <time>2016-10-16T08:45:54Z</time>
      </trkpt>
      <trkpt lat="45.92981" lon="4.7004">
        <ele>243</ele>
        <time>2016-10-16T08:45:57Z</time>
      </trkpt>
      <trkpt lat="45.92982" lon="4.70037">
        <ele>244</ele>
        <time>2016-10-16T08:45:58Z</time>
      </trkpt>
      <trkpt lat="45.92984" lon="4.70027">
        <ele>244</ele>
        <time>2016-10-16T08:46:01Z</time>
      </trkpt>
      <trkpt lat="45.92985" lon="4.70024">
        <ele>244</ele>
        <time>2016-10-16T08:46:02Z</time>
      </trkpt>
      <trkpt lat="45.92988" lon="4.70015">
        <ele>245</ele>
        <time>2016-10-16T08:46:05Z</time>
      </trkpt>
      <trkpt lat="45.92989" lon="4.70012">
        <ele>245</ele>
        <time>2016-10-16T08:46:06Z</time>
      </trkpt>
      <trkpt lat="45.92991" lon="4.70002">
        <ele>245</ele>
        <time>2016-10-16T08:46:09Z</time>
      </trkpt>
      <trkpt lat="45.92992" lon="4.69999">
        <ele>247</ele>
        <time>2016-10-16T08:46:10Z</time>
      </trkpt>
      <trkpt lat="45.92994" lon="4.69989">
        <ele>248</ele>
        <time>2016-10-16T08:46:13Z</time>
      </trkpt>
      <trkpt lat="45.92995" lon="4.69986">
        <ele>248</ele>
        <time>2016-10-16T08:46:14Z</time>
      </trkpt>
      <trkpt lat="45.93" lon="4.69975">
        <ele>250</ele>
        <time>2016-10-16T08:46:18Z</time>
      </trkpt>
      <trkpt lat="45.93001" lon="4.69972">
        <ele>249</ele>
        <time>2016-10-16T08:46:19Z</time>
      </trkpt>
      <trkpt lat="45.93005" lon="4.69962">
        <ele>250</ele>
        <time>2016-10-16T08:46:23Z</time>
      </trkpt>
      <trkpt lat="45.93006" lon="4.6996">
        <ele>250</ele>
        <time>2016-10-16T08:46:24Z</time>
      </trkpt>
      <trkpt lat="45.93011" lon="4.69953">
        <ele>251</ele>
        <time>2016-10-16T08:46:27Z</time>
      </trkpt>
      <trkpt lat="45.93013" lon="4.6995">
        <ele>251</ele>
        <time>2016-10-16T08:46:28Z</time>
      </trkpt>
      <trkpt lat="45.93018" lon="4.69943">
        <ele>252</ele>
        <time>2016-10-16T08:46:31Z</time>
      </trkpt>
      <trkpt lat="45.93019" lon="4.69941">
        <ele>252</ele>
        <time>2016-10-16T08:46:32Z</time>
      </trkpt>
      <trkpt lat="45.93026" lon="4.69932">
        <ele>252</ele>
        <time>2016-10-16T08:46:36Z</time>
      </trkpt>
      <trkpt lat="45.93028" lon="4.6993">
        <ele>252</ele>
        <time>2016-10-16T08:46:37Z</time>
      </trkpt>
      <trkpt lat="45.93034" lon="4.69922">
        <ele>252</ele>
        <time>2016-10-16T08:46:41Z</time>
      </trkpt>
      <trkpt lat="45.93036" lon="4.6992">
        <ele>251</ele>
        <time>2016-10-16T08:46:42Z</time>
      </trkpt>
      <trkpt lat="45.93041" lon="4.69914">
        <ele>257</ele>
        <time>2016-10-16T08:46:45Z</time>
      </trkpt>
      <trkpt lat="45.93043" lon="4.69912">
        <ele>257</ele>
        <time>2016-10-16T08:46:46Z</time>
      </trkpt>
      <trkpt lat="45.93049" lon="4.69905">
        <ele>256</ele>
        <time>2016-10-16T08:46:49Z</time>
      </trkpt>
      <trkpt lat="45.93051" lon="4.69903">
        <ele>256</ele>
        <time>2016-10-16T08:46:50Z</time>
      </trkpt>
      <trkpt lat="45.93057" lon="4.69898">
        <ele>256</ele>
        <time>2016-10-16T08:46:53Z</time>
      </trkpt>
      <trkpt lat="45.93059" lon="4.69896">
        <ele>256</ele>
        <time>2016-10-16T08:46:54Z</time>
      </trkpt>
      <trkpt lat="45.93064" lon="4.6989">
        <ele>256</ele>
        <time>2016-10-16T08:46:57Z</time>
      </trkpt>
      <trkpt lat="45.93066" lon="4.69887">
        <ele>256</ele>
        <time>2016-10-16T08:46:58Z</time>
      </trkpt>
      <trkpt lat="45.93071" lon="4.69882">
        <ele>257</ele>
        <time>2016-10-16T08:47:01Z</time>
      </trkpt>
      <trkpt lat="45.93073" lon="4.6988">
        <ele>257</ele>
        <time>2016-10-16T08:47:02Z</time>
      </trkpt>
      <trkpt lat="45.93079" lon="4.69874">
        <ele>257</ele>
        <time>2016-10-16T08:47:05Z</time>
      </trkpt>
      <trkpt lat="45.93081" lon="4.69872">
        <ele>257</ele>
        <time>2016-10-16T08:47:06Z</time>
      </trkpt>
      <trkpt lat="45.93088" lon="4.69864">
        <ele>255</ele>
        <time>2016-10-16T08:47:10Z</time>
      </trkpt>
      <trkpt lat="45.9309" lon="4.69862">
        <ele>255</ele>
        <time>2016-10-16T08:47:11Z</time>
      </trkpt>
      <trkpt lat="45.93095" lon="4.69855">
        <ele>256</ele>
        <time>2016-10-16T08:47:14Z</time>
      </trkpt>
      <trkpt lat="45.93097" lon="4.69853">
        <ele>256</ele>
        <time>2016-10-16T08:47:15Z</time>
      </trkpt>
      <trkpt lat="45.93103" lon="4.69844">
        <ele>256</ele>
        <time>2016-10-16T08:47:19Z</time>
      </trkpt>
      <trkpt lat="45.93105" lon="4.69842">
        <ele>256</ele>
        <time>2016-10-16T08:47:20Z</time>
      </trkpt>
      <trkpt lat="45.93111" lon="4.69837">
        <ele>256</ele>
        <time>2016-10-16T08:47:23Z</time>
      </trkpt>
      <trkpt lat="45.93112" lon="4.69835">
        <ele>256</ele>
        <time>2016-10-16T08:47:24Z</time>
      </trkpt>
      <trkpt lat="45.93119" lon="4.69829">
        <ele>263</ele>
        <time>2016-10-16T08:47:27Z</time>
      </trkpt>
      <trkpt lat="45.93121" lon="4.69827">
        <ele>263</ele>
        <time>2016-10-16T08:47:28Z</time>
      </trkpt>
      <trkpt lat="45.93128" lon="4.6982">
        <ele>264</ele>
        <time>2016-10-16T08:47:32Z</time>
      </trkpt>
      <trkpt lat="45.93129" lon="4.69818">
        <ele>264</ele>
        <time>2016-10-16T08:47:33Z</time>
      </trkpt>
      <trkpt lat="45.93136" lon="4.69812">
        <ele>264</ele>
        <time>2016-10-16T08:47:37Z</time>
      </trkpt>
      <trkpt lat="45.93139" lon="4.6981">
        <ele>264</ele>
        <time>2016-10-16T08:47:38Z</time>
      </trkpt>
      <trkpt lat="45.93145" lon="4.69805">
        <ele>264</ele>
        <time>2016-10-16T08:47:41Z</time>
      </trkpt>
      <trkpt lat="45.93147" lon="4.69804">
        <ele>264</ele>
        <time>2016-10-16T08:47:42Z</time>
      </trkpt>
      <trkpt lat="45.93154" lon="4.69799">
        <ele>264</ele>
        <time>2016-10-16T08:47:45Z</time>
      </trkpt>
      <trkpt lat="45.93156" lon="4.69798">
        <ele>265</ele>
        <time>2016-10-16T08:47:46Z</time>
      </trkpt>
      <trkpt lat="45.93163" lon="4.69795">
        <ele>265</ele>
        <time>2016-10-16T08:47:49Z</time>
      </trkpt>
      <trkpt lat="45.93165" lon="4.69794">
        <ele>265</ele>
        <time>2016-10-16T08:47:50Z</time>
      </trkpt>
      <trkpt lat="45.93172" lon="4.6979">
        <ele>265</ele>
        <time>2016-10-16T08:47:53Z</time>
      </trkpt>
      <trkpt lat="45.93174" lon="4.69789">
        <ele>265</ele>
        <time>2016-10-16T08:47:54Z</time>
      </trkpt>
      <trkpt lat="45.93181" lon="4.69784">
        <ele>265</ele>
        <time>2016-10-16T08:47:57Z</time>
      </trkpt>
      <trkpt lat="45.93183" lon="4.69783">
        <ele>266</ele>
        <time>2016-10-16T08:47:58Z</time>
      </trkpt>
      <trkpt lat="45.9319" lon="4.6978">
        <ele>266</ele>
        <time>2016-10-16T08:48:01Z</time>
      </trkpt>
      <trkpt lat="45.93192" lon="4.69779">
        <ele>266</ele>
        <time>2016-10-16T08:48:02Z</time>
      </trkpt>
      <trkpt lat="45.93198" lon="4.69776">
        <ele>266</ele>
        <time>2016-10-16T08:48:05Z</time>
      </trkpt>
      <trkpt lat="45.93201" lon="4.69775">
        <ele>266</ele>
        <time>2016-10-16T08:48:06Z</time>
      </trkpt>
      <trkpt lat="45.93208" lon="4.69771">
        <ele>266</ele>
        <time>2016-10-16T08:48:09Z</time>
      </trkpt>
      <trkpt lat="45.9321" lon="4.69771">
        <ele>266</ele>
        <time>2016-10-16T08:48:10Z</time>
      </trkpt>
      <trkpt lat="45.93217" lon="4.69768">
        <ele>266</ele>
        <time>2016-10-16T08:48:13Z</time>
      </trkpt>
      <trkpt lat="45.93219" lon="4.69767">
        <ele>266</ele>
        <time>2016-10-16T08:48:14Z</time>
      </trkpt>
      <trkpt lat="45.93227" lon="4.69765">
        <ele>267</ele>
        <time>2016-10-16T08:48:18Z</time>
      </trkpt>
      <trkpt lat="45.93229" lon="4.69765">
        <ele>267</ele>
        <time>2016-10-16T08:48:19Z</time>
      </trkpt>
      <trkpt lat="45.93238" lon="4.69761">
        <ele>268</ele>
        <time>2016-10-16T08:48:23Z</time>
      </trkpt>
      <trkpt lat="45.9324" lon="4.69761">
        <ele>268</ele>
        <time>2016-10-16T08:48:24Z</time>
      </trkpt>
      <trkpt lat="45.93247" lon="4.69758">
        <ele>269</ele>
        <time>2016-10-16T08:48:27Z</time>
      </trkpt>
      <trkpt lat="45.9325" lon="4.69757">
        <ele>269</ele>
        <time>2016-10-16T08:48:28Z</time>
      </trkpt>
      <trkpt lat="45.93257" lon="4.69757">
        <ele>269</ele>
        <time>2016-10-16T08:48:31Z</time>
      </trkpt>
      <trkpt lat="45.93259" lon="4.69757">
        <ele>269</ele>
        <time>2016-10-16T08:48:32Z</time>
      </trkpt>
      <trkpt lat="45.93266" lon="4.69756">
        <ele>268</ele>
        <time>2016-10-16T08:48:35Z</time>
      </trkpt>
      <trkpt lat="45.93268" lon="4.69755">
        <ele>268</ele>
        <time>2016-10-16T08:48:36Z</time>
      </trkpt>
      <trkpt lat="45.93277" lon="4.69755">
        <ele>267</ele>
        <time>2016-10-16T08:48:40Z</time>
      </trkpt>
      <trkpt lat="45.9328" lon="4.69754">
        <ele>267</ele>
        <time>2016-10-16T08:48:41Z</time>
      </trkpt>
      <trkpt lat="45.93286" lon="4.6975">
        <ele>267</ele>
        <time>2016-10-16T08:48:44Z</time>
      </trkpt>
      <trkpt lat="45.93288" lon="4.69748">
        <ele>273</ele>
        <time>2016-10-16T08:48:45Z</time>
      </trkpt>
      <trkpt lat="45.93293" lon="4.69739">
        <ele>273</ele>
        <time>2016-10-16T08:48:48Z</time>
      </trkpt>
      <trkpt lat="45.93294" lon="4.69736">
        <ele>273</ele>
        <time>2016-10-16T08:48:49Z</time>
      </trkpt>
      <trkpt lat="45.93294" lon="4.69725">
        <ele>274</ele>
        <time>2016-10-16T08:48:52Z</time>
      </trkpt>
      <trkpt lat="45.93294" lon="4.69722">
        <ele>274</ele>
        <time>2016-10-16T08:48:53Z</time>
      </trkpt>
      <trkpt lat="45.93291" lon="4.69711">
        <ele>275</ele>
        <time>2016-10-16T08:48:56Z</time>
      </trkpt>
      <trkpt lat="45.93289" lon="4.69708">
        <ele>275</ele>
        <time>2016-10-16T08:48:57Z</time>
      </trkpt>
      <trkpt lat="45.93282" lon="4.69701">
        <ele>276</ele>
        <time>2016-10-16T08:49:00Z</time>
      </trkpt>
      <trkpt lat="45.9328" lon="4.69699">
        <ele>276</ele>
        <time>2016-10-16T08:49:01Z</time>
      </trkpt>
      <trkpt lat="45.93272" lon="4.69696">
        <ele>277</ele>
        <time>2016-10-16T08:49:04Z</time>
      </trkpt>
      <trkpt lat="45.93269" lon="4.69696">
        <ele>277</ele>
        <time>2016-10-16T08:49:05Z</time>
      </trkpt>
      <trkpt lat="45.93261" lon="4.69695">
        <ele>278</ele>
        <time>2016-10-16T08:49:08Z</time>
      </trkpt>
      <trkpt lat="45.93258" lon="4.69696">
        <ele>278</ele>
        <time>2016-10-16T08:49:09Z</time>
      </trkpt>
      <trkpt lat="45.9325" lon="4.69699">
        <ele>278</ele>
        <time>2016-10-16T08:49:12Z</time>
      </trkpt>
      <trkpt lat="45.93248" lon="4.697">
        <ele>280</ele>
        <time>2016-10-16T08:49:13Z</time>
      </trkpt>
      <trkpt lat="45.9324" lon="4.69701">
        <ele>280</ele>
        <time>2016-10-16T08:49:16Z</time>
      </trkpt>
      <trkpt lat="45.93237" lon="4.69702">
        <ele>280</ele>
        <time>2016-10-16T08:49:17Z</time>
      </trkpt>
      <trkpt lat="45.9323" lon="4.69704">
        <ele>280</ele>
        <time>2016-10-16T08:49:20Z</time>
      </trkpt>
      <trkpt lat="45.93227" lon="4.69704">
        <ele>280</ele>
        <time>2016-10-16T08:49:21Z</time>
      </trkpt>
      <trkpt lat="45.93219" lon="4.69702">
        <ele>281</ele>
        <time>2016-10-16T08:49:24Z</time>
      </trkpt>
      <trkpt lat="45.93217" lon="4.69702">
        <ele>281</ele>
        <time>2016-10-16T08:49:25Z</time>
      </trkpt>
      <trkpt lat="45.9321" lon="4.69701">
        <ele>281</ele>
        <time>2016-10-16T08:49:28Z</time>
      </trkpt>
      <trkpt lat="45.93207" lon="4.69701">
        <ele>281</ele>
        <time>2016-10-16T08:49:29Z</time>
      </trkpt>
      <trkpt lat="45.932" lon="4.69701">
        <ele>281</ele>
        <time>2016-10-16T08:49:32Z</time>
      </trkpt>
      <trkpt lat="45.93197" lon="4.69701">
        <ele>281</ele>
        <time>2016-10-16T08:49:33Z</time>
      </trkpt>
      <trkpt lat="45.93189" lon="4.69698">
        <ele>282</ele>
        <time>2016-10-16T08:49:36Z</time>
      </trkpt>
      <trkpt lat="45.93187" lon="4.69697">
        <ele>282</ele>
        <time>2016-10-16T08:49:37Z</time>
      </trkpt>
      <trkpt lat="45.93179" lon="4.69694">
        <ele>283</ele>
        <time>2016-10-16T08:49:40Z</time>
      </trkpt>
      <trkpt lat="45.93177" lon="4.69694">
        <ele>283</ele>
        <time>2016-10-16T08:49:41Z</time>
      </trkpt>
      <trkpt lat="45.9317" lon="4.69693">
        <ele>284</ele>
        <time>2016-10-16T08:49:44Z</time>
      </trkpt>
      <trkpt lat="45.93167" lon="4.69693">
        <ele>285</ele>
        <time>2016-10-16T08:49:45Z</time>
      </trkpt>
      <trkpt lat="45.93159" lon="4.69694">
        <ele>285</ele>
        <time>2016-10-16T08:49:48Z</time>
      </trkpt>
      <trkpt lat="45.93157" lon="4.69694">
        <ele>285</ele>
        <time>2016-10-16T08:49:49Z</time>
      </trkpt>
      <trkpt lat="45.9315" lon="4.69691">
        <ele>285</ele>
        <time>2016-10-16T08:49:52Z</time>
      </trkpt>
      <trkpt lat="45.93148" lon="4.6969">
        <ele>285</ele>
        <time>2016-10-16T08:49:53Z</time>
      </trkpt>
      <trkpt lat="45.9314" lon="4.6969">
        <ele>285</ele>
        <time>2016-10-16T08:49:56Z</time>
      </trkpt>
      <trkpt lat="45.93137" lon="4.6969">
        <ele>285</ele>
        <time>2016-10-16T08:49:57Z</time>
      </trkpt>
      <trkpt lat="45.9313" lon="4.69689">
        <ele>284</ele>
        <time>2016-10-16T08:50:00Z</time>
      </trkpt>
      <trkpt lat="45.93127" lon="4.69689">
        <ele>284</ele>
        <time>2016-10-16T08:50:01Z</time>
      </trkpt>
      <trkpt lat="45.9312" lon="4.69687">
        <ele>285</ele>
        <time>2016-10-16T08:50:04Z</time>
      </trkpt>
      <trkpt lat="45.93117" lon="4.69685">
        <ele>285</ele>
        <time>2016-10-16T08:50:05Z</time>
      </trkpt>
      <trkpt lat="45.9311" lon="4.69681">
        <ele>285</ele>
        <time>2016-10-16T08:50:08Z</time>
      </trkpt>
      <trkpt lat="45.93108" lon="4.6968">
        <ele>285</ele>
        <time>2016-10-16T08:50:09Z</time>
      </trkpt>
      <trkpt lat="45.931" lon="4.69676">
        <ele>286</ele>
        <time>2016-10-16T08:50:13Z</time>
      </trkpt>
      <trkpt lat="45.93098" lon="4.69677">
        <ele>286</ele>
        <time>2016-10-16T08:50:14Z</time>
      </trkpt>
      <trkpt lat="45.93091" lon="4.69676">
        <ele>287</ele>
        <time>2016-10-16T08:50:17Z</time>
      </trkpt>
      <trkpt lat="45.93088" lon="4.69674">
        <ele>288</ele>
        <time>2016-10-16T08:50:18Z</time>
      </trkpt>
      <trkpt lat="45.93081" lon="4.69671">
        <ele>288</ele>
        <time>2016-10-16T08:50:21Z</time>
      </trkpt>
      <trkpt lat="45.93079" lon="4.6967">
        <ele>288</ele>
        <time>2016-10-16T08:50:22Z</time>
      </trkpt>
      <trkpt lat="45.93071" lon="4.69666">
        <ele>291</ele>
        <time>2016-10-16T08:50:26Z</time>
      </trkpt>
      <trkpt lat="45.93068" lon="4.69665">
        <ele>292</ele>
        <time>2016-10-16T08:50:27Z</time>
      </trkpt>
      <trkpt lat="45.9306" lon="4.69662">
        <ele>292</ele>
        <time>2016-10-16T08:50:30Z</time>
      </trkpt>
      <trkpt lat="45.93057" lon="4.6966">
        <ele>292</ele>
        <time>2016-10-16T08:50:31Z</time>
      </trkpt>
      <trkpt lat="45.9305" lon="4.69656">
        <ele>292</ele>
        <time>2016-10-16T08:50:34Z</time>
      </trkpt>
      <trkpt lat="45.93048" lon="4.69656">
        <ele>292</ele>
        <time>2016-10-16T08:50:35Z</time>
      </trkpt>
      <trkpt lat="45.93043" lon="4.69651">
        <ele>292</ele>
        <time>2016-10-16T08:50:38Z</time>
      </trkpt>
      <trkpt lat="45.9304" lon="4.69649">
        <ele>292</ele>
        <time>2016-10-16T08:50:39Z</time>
      </trkpt>
      <trkpt lat="45.93032" lon="4.69645">
        <ele>292</ele>
        <time>2016-10-16T08:50:43Z</time>
      </trkpt>
      <trkpt lat="45.93031" lon="4.69644">
        <ele>292</ele>
        <time>2016-10-16T08:50:44Z</time>
      </trkpt>
      <trkpt lat="45.93023" lon="4.69639">
        <ele>292</ele>
        <time>2016-10-16T08:50:48Z</time>
      </trkpt>
      <trkpt lat="45.93021" lon="4.69637">
        <ele>292</ele>
        <time>2016-10-16T08:50:49Z</time>
      </trkpt>
      <trkpt lat="45.93015" lon="4.69631">
        <ele>293</ele>
        <time>2016-10-16T08:50:52Z</time>
      </trkpt>
      <trkpt lat="45.93013" lon="4.69629">
        <ele>293</ele>
        <time>2016-10-16T08:50:53Z</time>
      </trkpt>
      <trkpt lat="45.93006" lon="4.69622">
        <ele>294</ele>
        <time>2016-10-16T08:50:57Z</time>
      </trkpt>
      <trkpt lat="45.93005" lon="4.6962">
        <ele>294</ele>
        <time>2016-10-16T08:50:58Z</time>
      </trkpt>
      <trkpt lat="45.92997" lon="4.69614">
        <ele>290</ele>
        <time>2016-10-16T08:51:02Z</time>
      </trkpt>
      <trkpt lat="45.92995" lon="4.69612">
        <ele>291</ele>
        <time>2016-10-16T08:51:03Z</time>
      </trkpt>
      <trkpt lat="45.92989" lon="4.69605">
        <ele>291</ele>
        <time>2016-10-16T08:51:06Z</time>
      </trkpt>
      <trkpt lat="45.92988" lon="4.69603">
        <ele>292</ele>
        <time>2016-10-16T08:51:07Z</time>
      </trkpt>
      <trkpt lat="45.92983" lon="4.69596">
        <ele>292</ele>
        <time>2016-10-16T08:51:10Z</time>
      </trkpt>
      <trkpt lat="45.92981" lon="4.69594">
        <ele>292</ele>
        <time>2016-10-16T08:51:11Z</time>
      </trkpt>
      <trkpt lat="45.92975" lon="4.69585">
        <ele>291</ele>
        <time>2016-10-16T08:51:15Z</time>
      </trkpt>
      <trkpt lat="45.92973" lon="4.69583">
        <ele>297</ele>
        <time>2016-10-16T08:51:16Z</time>
      </trkpt>
      <trkpt lat="45.92969" lon="4.69575">
        <ele>297</ele>
        <time>2016-10-16T08:51:18Z</time>
      </trkpt>
      <trkpt lat="45.92967" lon="4.69572">
        <ele>297</ele>
        <time>2016-10-16T08:51:19Z</time>
      </trkpt>
      <trkpt lat="45.92961" lon="4.69564">
        <ele>297</ele>
        <time>2016-10-16T08:51:22Z</time>
      </trkpt>
      <trkpt lat="45.9296" lon="4.69563">
        <ele>297</ele>
        <time>2016-10-16T08:51:23Z</time>
      </trkpt>
      <trkpt lat="45.92954" lon="4.69556">
        <ele>296</ele>
        <time>2016-10-16T08:51:27Z</time>
      </trkpt>
      <trkpt lat="45.92953" lon="4.69554">
        <ele>296</ele>
        <time>2016-10-16T08:51:28Z</time>
      </trkpt>
      <trkpt lat="45.92948" lon="4.69547">
        <ele>296</ele>
        <time>2016-10-16T08:51:31Z</time>
      </trkpt>
      <trkpt lat="45.92945" lon="4.69544">
        <ele>297</ele>
        <time>2016-10-16T08:51:32Z</time>
      </trkpt>
      <trkpt lat="45.92942" lon="4.69535">
        <ele>297</ele>
        <time>2016-10-16T08:51:35Z</time>
      </trkpt>
      <trkpt lat="45.9294" lon="4.69532">
        <ele>297</ele>
        <time>2016-10-16T08:51:36Z</time>
      </trkpt>
      <trkpt lat="45.92934" lon="4.69523">
        <ele>297</ele>
        <time>2016-10-16T08:51:40Z</time>
      </trkpt>
      <trkpt lat="45.92933" lon="4.69521">
        <ele>297</ele>
        <time>2016-10-16T08:51:41Z</time>
      </trkpt>
      <trkpt lat="45.92928" lon="4.69513">
        <ele>297</ele>
        <time>2016-10-16T08:51:44Z</time>
      </trkpt>
      <trkpt lat="45.92927" lon="4.6951">
        <ele>297</ele>
        <time>2016-10-16T08:51:45Z</time>
      </trkpt>
      <trkpt lat="45.92921" lon="4.69501">
        <ele>297</ele>
        <time>2016-10-16T08:51:49Z</time>
      </trkpt>
      <trkpt lat="45.9292" lon="4.69499">
        <ele>298</ele>
        <time>2016-10-16T08:51:50Z</time>
      </trkpt>
      <trkpt lat="45.92915" lon="4.69489">
        <ele>297</ele>
        <time>2016-10-16T08:51:54Z</time>
      </trkpt>
      <trkpt lat="45.92914" lon="4.69486">
        <ele>297</ele>
        <time>2016-10-16T08:51:55Z</time>
      </trkpt>
      <trkpt lat="45.92911" lon="4.69474">
        <ele>297</ele>
        <time>2016-10-16T08:51:59Z</time>
      </trkpt>
      <trkpt lat="45.9291" lon="4.69471">
        <ele>297</ele>
        <time>2016-10-16T08:52:00Z</time>
      </trkpt>
      <trkpt lat="45.92906" lon="4.6946">
        <ele>298</ele>
        <time>2016-10-16T08:52:04Z</time>
      </trkpt>
      <trkpt lat="45.92905" lon="4.69457">
        <ele>298</ele>
        <time>2016-10-16T08:52:05Z</time>
      </trkpt>
      <trkpt lat="45.92899" lon="4.6945">
        <ele>298</ele>
        <time>2016-10-16T08:52:08Z</time>
      </trkpt>
      <trkpt lat="45.92898" lon="4.69445">
        <ele>299</ele>
        <time>2016-10-16T08:52:09Z</time>
      </trkpt>
      <trkpt lat="45.92895" lon="4.69433">
        <ele>300</ele>
        <time>2016-10-16T08:52:12Z</time>
      </trkpt>
      <trkpt lat="45.92894" lon="4.6943">
        <ele>300</ele>
        <time>2016-10-16T08:52:13Z</time>
      </trkpt>
      <trkpt lat="45.92892" lon="4.6942">
        <ele>300</ele>
        <time>2016-10-16T08:52:16Z</time>
      </trkpt>
      <trkpt lat="45.92891" lon="4.69417">
        <ele>300</ele>
        <time>2016-10-16T08:52:17Z</time>
      </trkpt>
      <trkpt lat="45.92889" lon="4.69407">
        <ele>306</ele>
        <time>2016-10-16T08:52:20Z</time>
      </trkpt>
      <trkpt lat="45.92889" lon="4.69403">
        <ele>306</ele>
        <time>2016-10-16T08:52:21Z</time>
      </trkpt>
      <trkpt lat="45.92887" lon="4.69391">
        <ele>306</ele>
        <time>2016-10-16T08:52:25Z</time>
      </trkpt>
      <trkpt lat="45.92886" lon="4.69388">
        <ele>307</ele>
        <time>2016-10-16T08:52:26Z</time>
      </trkpt>
      <trkpt lat="45.92884" lon="4.69379">
        <ele>307</ele>
        <time>2016-10-16T08:52:29Z</time>
      </trkpt>
      <trkpt lat="45.92882" lon="4.69375">
        <ele>307</ele>
        <time>2016-10-16T08:52:30Z</time>
      </trkpt>
      <trkpt lat="45.92879" lon="4.69366">
        <ele>307</ele>
        <time>2016-10-16T08:52:33Z</time>
      </trkpt>
      <trkpt lat="45.92878" lon="4.69363">
        <ele>307</ele>
        <time>2016-10-16T08:52:34Z</time>
      </trkpt>
      <trkpt lat="45.92875" lon="4.69354">
        <ele>308</ele>
        <time>2016-10-16T08:52:37Z</time>
      </trkpt>
      <trkpt lat="45.92874" lon="4.69351">
        <ele>308</ele>
        <time>2016-10-16T08:52:38Z</time>
      </trkpt>
      <trkpt lat="45.9287" lon="4.69341">
        <ele>308</ele>
        <time>2016-10-16T08:52:41Z</time>
      </trkpt>
      <trkpt lat="45.92869" lon="4.69338">
        <ele>308</ele>
        <time>2016-10-16T08:52:42Z</time>
      </trkpt>
      <trkpt lat="45.92863" lon="4.69329">
        <ele>313</ele>
        <time>2016-10-16T08:52:46Z</time>
      </trkpt>
      <trkpt lat="45.92861" lon="4.69327">
        <ele>312</ele>
        <time>2016-10-16T08:52:47Z</time>
      </trkpt>
      <trkpt lat="45.92856" lon="4.69322">
        <ele>312</ele>
        <time>2016-10-16T08:52:50Z</time>
      </trkpt>
      <trkpt lat="45.92853" lon="4.69319">
        <ele>312</ele>
        <time>2016-10-16T08:52:51Z</time>
      </trkpt>
      <trkpt lat="45.92847" lon="4.69313">
        <ele>312</ele>
        <time>2016-10-16T08:52:54Z</time>
      </trkpt>
      <trkpt lat="45.92846" lon="4.69311">
        <ele>312</ele>
        <time>2016-10-16T08:52:55Z</time>
      </trkpt>
      <trkpt lat="45.9284" lon="4.69303">
        <ele>313</ele>
        <time>2016-10-16T08:52:59Z</time>
      </trkpt>
      <trkpt lat="45.92838" lon="4.69302">
        <ele>313</ele>
        <time>2016-10-16T08:53:00Z</time>
      </trkpt>
      <trkpt lat="45.92831" lon="4.69293">
        <ele>311</ele>
        <time>2016-10-16T08:53:05Z</time>
      </trkpt>
      <trkpt lat="45.9283" lon="4.69289">
        <ele>311</ele>
        <time>2016-10-16T08:53:06Z</time>
      </trkpt>
      <trkpt lat="45.92825" lon="4.69281">
        <ele>312</ele>
        <time>2016-10-16T08:53:10Z</time>
      </trkpt>
      <trkpt lat="45.92823" lon="4.69278">
        <ele>312</ele>
        <time>2016-10-16T08:53:11Z</time>
      </trkpt>
      <trkpt lat="45.92818" lon="4.69269">
        <ele>313</ele>
        <time>2016-10-16T08:53:14Z</time>
      </trkpt>
      <trkpt lat="45.92817" lon="4.69265">
        <ele>314</ele>
        <time>2016-10-16T08:53:15Z</time>
      </trkpt>
      <trkpt lat="45.92814" lon="4.69256">
        <ele>314</ele>
        <time>2016-10-16T08:53:18Z</time>
      </trkpt>
      <trkpt lat="45.92813" lon="4.69253">
        <ele>314</ele>
        <time>2016-10-16T08:53:19Z</time>
      </trkpt>
      <trkpt lat="45.92811" lon="4.6924">
        <ele>318</ele>
        <time>2016-10-16T08:53:23Z</time>
      </trkpt>
      <trkpt lat="45.9281" lon="4.69238">
        <ele>318</ele>
        <time>2016-10-16T08:53:24Z</time>
      </trkpt>
      <trkpt lat="45.9281" lon="4.69226">
        <ele>319</ele>
        <time>2016-10-16T08:53:28Z</time>
      </trkpt>
      <trkpt lat="45.9281" lon="4.69224">
        <ele>319</ele>
        <time>2016-10-16T08:53:29Z</time>
      </trkpt>
      <trkpt lat="45.9281" lon="4.69214">
        <ele>319</ele>
        <time>2016-10-16T08:53:32Z</time>
      </trkpt>
      <trkpt lat="45.9281" lon="4.69211">
        <ele>319</ele>
        <time>2016-10-16T08:53:33Z</time>
      </trkpt>
      <trkpt lat="45.92811" lon="4.692">
        <ele>319</ele>
        <time>2016-10-16T08:53:36Z</time>
      </trkpt>
      <trkpt lat="45.92811" lon="4.69197">
        <ele>319</ele>
        <time>2016-10-16T08:53:37Z</time>
      </trkpt>
      <trkpt lat="45.92811" lon="4.69185">
        <ele>320</ele>
        <time>2016-10-16T08:53:41Z</time>
      </trkpt>
      <trkpt lat="45.92812" lon="4.69181">
        <ele>320</ele>
        <time>2016-10-16T08:53:42Z</time>
      </trkpt>
      <trkpt lat="45.92813" lon="4.69171">
        <ele>320</ele>
        <time>2016-10-16T08:53:45Z</time>
      </trkpt>
      <trkpt lat="45.92813" lon="4.69167">
        <ele>320</ele>
        <time>2016-10-16T08:53:46Z</time>
      </trkpt>
      <trkpt lat="45.92814" lon="4.69155">
        <ele>321</ele>
        <time>2016-10-16T08:53:50Z</time>
      </trkpt>
      <trkpt lat="45.92815" lon="4.69152">
        <ele>321</ele>
        <time>2016-10-16T08:53:51Z</time>
      </trkpt>
      <trkpt lat="45.92815" lon="4.69142">
        <ele>321</ele>
        <time>2016-10-16T08:53:54Z</time>
      </trkpt>
      <trkpt lat="45.92816" lon="4.69138">
        <ele>321</ele>
        <time>2016-10-16T08:53:55Z</time>
      </trkpt>
      <trkpt lat="45.92817" lon="4.69129">
        <ele>322</ele>
        <time>2016-10-16T08:53:58Z</time>
      </trkpt>
      <trkpt lat="45.92818" lon="4.69125">
        <ele>322</ele>
        <time>2016-10-16T08:53:59Z</time>
      </trkpt>
      <trkpt lat="45.92819" lon="4.69113">
        <ele>322</ele>
        <time>2016-10-16T08:54:03Z</time>
      </trkpt>
      <trkpt lat="45.92819" lon="4.69109">
        <ele>322</ele>
        <time>2016-10-16T08:54:04Z</time>
      </trkpt>
      <trkpt lat="45.92821" lon="4.691">
        <ele>322</ele>
        <time>2016-10-16T08:54:07Z</time>
      </trkpt>
      <trkpt lat="45.92822" lon="4.69096">
        <ele>322</ele>
        <time>2016-10-16T08:54:08Z</time>
      </trkpt>
      <trkpt lat="45.92822" lon="4.69086">
        <ele>322</ele>
        <time>2016-10-16T08:54:11Z</time>
      </trkpt>
      <trkpt lat="45.92821" lon="4.69083">
        <ele>324</ele>
        <time>2016-10-16T08:54:12Z</time>
      </trkpt>
      <trkpt lat="45.9282" lon="4.6907">
        <ele>324</ele>
        <time>2016-10-16T08:54:16Z</time>
      </trkpt>
      <trkpt lat="45.92819" lon="4.69067">
        <ele>324</ele>
        <time>2016-10-16T08:54:17Z</time>
      </trkpt>
      <trkpt lat="45.92817" lon="4.69057">
        <ele>325</ele>
        <time>2016-10-16T08:54:20Z</time>
      </trkpt>
      <trkpt lat="45.92815" lon="4.69055">
        <ele>325</ele>
        <time>2016-10-16T08:54:21Z</time>
      </trkpt>
      <trkpt lat="45.92811" lon="4.69047">
        <ele>325</ele>
        <time>2016-10-16T08:54:24Z</time>
      </trkpt>
      <trkpt lat="45.92809" lon="4.69045">
        <ele>325</ele>
        <time>2016-10-16T08:54:25Z</time>
      </trkpt>
      <trkpt lat="45.92802" lon="4.69037">
        <ele>325</ele>
        <time>2016-10-16T08:54:29Z</time>
      </trkpt>
      <trkpt lat="45.928" lon="4.69036">
        <ele>325</ele>
        <time>2016-10-16T08:54:30Z</time>
      </trkpt>
      <trkpt lat="45.92793" lon="4.69032">
        <ele>326</ele>
        <time>2016-10-16T08:54:33Z</time>
      </trkpt>
      <trkpt lat="45.92791" lon="4.69032">
        <ele>326</ele>
        <time>2016-10-16T08:54:34Z</time>
      </trkpt>
      <trkpt lat="45.92783" lon="4.69029">
        <ele>326</ele>
        <time>2016-10-16T08:54:38Z</time>
      </trkpt>
      <trkpt lat="45.92782" lon="4.69027">
        <ele>326</ele>
        <time>2016-10-16T08:54:39Z</time>
      </trkpt>
      <trkpt lat="45.92774" lon="4.69023">
        <ele>326</ele>
        <time>2016-10-16T08:54:43Z</time>
      </trkpt>
      <trkpt lat="45.92771" lon="4.69023">
        <ele>326</ele>
        <time>2016-10-16T08:54:44Z</time>
      </trkpt>
      <trkpt lat="45.92764" lon="4.69021">
        <ele>326</ele>
        <time>2016-10-16T08:54:47Z</time>
      </trkpt>
      <trkpt lat="45.92762" lon="4.69019">
        <ele>327</ele>
        <time>2016-10-16T08:54:48Z</time>
      </trkpt>
      <trkpt lat="45.92753" lon="4.69017">
        <ele>327</ele>
        <time>2016-10-16T08:54:52Z</time>
      </trkpt>
      <trkpt lat="45.92751" lon="4.69016">
        <ele>327</ele>
        <time>2016-10-16T08:54:53Z</time>
      </trkpt>
      <trkpt lat="45.92743" lon="4.69015">
        <ele>329</ele>
        <time>2016-10-16T08:54:56Z</time>
      </trkpt>
      <trkpt lat="45.92741" lon="4.69014">
        <ele>329</ele>
        <time>2016-10-16T08:54:57Z</time>
      </trkpt>
      <trkpt lat="45.92734" lon="4.69011">
        <ele>329</ele>
        <time>2016-10-16T08:55:00Z</time>
      </trkpt>
      <trkpt lat="45.92731" lon="4.6901">
        <ele>329</ele>
        <time>2016-10-16T08:55:01Z</time>
      </trkpt>
      <trkpt lat="45.92726" lon="4.69009">
        <ele>329</ele>
        <time>2016-10-16T08:55:03Z</time>
      </trkpt>
      <trkpt lat="45.92723" lon="4.69007">
        <ele>329</ele>
        <time>2016-10-16T08:55:04Z</time>
      </trkpt>
      <trkpt lat="45.92715" lon="4.69003">
        <ele>329</ele>
        <time>2016-10-16T08:55:07Z</time>
      </trkpt>
      <trkpt lat="45.92713" lon="4.69003">
        <ele>330</ele>
        <time>2016-10-16T08:55:08Z</time>
      </trkpt>
      <trkpt lat="45.92705" lon="4.69005">
        <ele>330</ele>
        <time>2016-10-16T08:55:11Z</time>
      </trkpt>
      <trkpt lat="45.92702" lon="4.69006">
        <ele>330</ele>
        <time>2016-10-16T08:55:12Z</time>
      </trkpt>
      <trkpt lat="45.92696" lon="4.6901">
        <ele>330</ele>
        <time>2016-10-16T08:55:15Z</time>
      </trkpt>
      <trkpt lat="45.92694" lon="4.69012">
        <ele>330</ele>
        <time>2016-10-16T08:55:16Z</time>
      </trkpt>
      <trkpt lat="45.92688" lon="4.6902">
        <ele>330</ele>
        <time>2016-10-16T08:55:19Z</time>
      </trkpt>
      <trkpt lat="45.92687" lon="4.69023">
        <ele>330</ele>
        <time>2016-10-16T08:55:20Z</time>
      </trkpt>
      <trkpt lat="45.92682" lon="4.69032">
        <ele>330</ele>
        <time>2016-10-16T08:55:23Z</time>
      </trkpt>
      <trkpt lat="45.92681" lon="4.69035">
        <ele>330</ele>
        <time>2016-10-16T08:55:24Z</time>
      </trkpt>
      <trkpt lat="45.92677" lon="4.69045">
        <ele>330</ele>
        <time>2016-10-16T08:55:27Z</time>
      </trkpt>
      <trkpt lat="45.92676" lon="4.69049">
        <ele>330</ele>
        <time>2016-10-16T08:55:28Z</time>
      </trkpt>
      <trkpt lat="45.92674" lon="4.6906">
        <ele>330</ele>
        <time>2016-10-16T08:55:31Z</time>
      </trkpt>
      <trkpt lat="45.92674" lon="4.69063">
        <ele>330</ele>
        <time>2016-10-16T08:55:32Z</time>
      </trkpt>
      <trkpt lat="45.92674" lon="4.69067">
        <ele>330</ele>
        <time>2016-10-16T08:55:33Z</time>
      </trkpt>
      <trkpt lat="45.92673" lon="4.69079">
        <ele>331</ele>
        <time>2016-10-16T08:55:36Z</time>
      </trkpt>
      <trkpt lat="45.92673" lon="4.6909">
        <ele>331</ele>
        <time>2016-10-16T08:55:39Z</time>
      </trkpt>
      <trkpt lat="45.92673" lon="4.69094">
        <ele>330</ele>
        <time>2016-10-16T08:55:40Z</time>
      </trkpt>
      <trkpt lat="45.92672" lon="4.69107">
        <ele>329</ele>
        <time>2016-10-16T08:55:43Z</time>
      </trkpt>
      <trkpt lat="45.92671" lon="4.69111">
        <ele>329</ele>
        <time>2016-10-16T08:55:44Z</time>
      </trkpt>
      <trkpt lat="45.92672" lon="4.69123">
        <ele>329</ele>
        <time>2016-10-16T08:55:47Z</time>
      </trkpt>
      <trkpt lat="45.92672" lon="4.69127">
        <ele>329</ele>
        <time>2016-10-16T08:55:48Z</time>
      </trkpt>
      <trkpt lat="45.92672" lon="4.69137">
        <ele>330</ele>
        <time>2016-10-16T08:55:51Z</time>
      </trkpt>
      <trkpt lat="45.92672" lon="4.6914">
        <ele>330</ele>
        <time>2016-10-16T08:55:52Z</time>
      </trkpt>
      <trkpt lat="45.92673" lon="4.6915">
        <ele>331</ele>
        <time>2016-10-16T08:55:55Z</time>
      </trkpt>
      <trkpt lat="45.92673" lon="4.69154">
        <ele>331</ele>
        <time>2016-10-16T08:55:56Z</time>
      </trkpt>
      <trkpt lat="45.92673" lon="4.69164">
        <ele>332</ele>
        <time>2016-10-16T08:56:00Z</time>
      </trkpt>
      <trkpt lat="45.92673" lon="4.69169">
        <ele>332</ele>
        <time>2016-10-16T08:56:01Z</time>
      </trkpt>
      <trkpt lat="45.9267" lon="4.69179">
        <ele>331</ele>
        <time>2016-10-16T08:56:05Z</time>
      </trkpt>
      <trkpt lat="45.92668" lon="4.69184">
        <ele>330</ele>
        <time>2016-10-16T08:56:06Z</time>
      </trkpt>
      <trkpt lat="45.9266" lon="4.69189">
        <ele>335</ele>
        <time>2016-10-16T08:56:09Z</time>
      </trkpt>
      <trkpt lat="45.92657" lon="4.69189">
        <ele>335</ele>
        <time>2016-10-16T08:56:10Z</time>
      </trkpt>
      <trkpt lat="45.9265" lon="4.69186">
        <ele>335</ele>
        <time>2016-10-16T08:56:14Z</time>
      </trkpt>
      <trkpt lat="45.92648" lon="4.69184">
        <ele>335</ele>
        <time>2016-10-16T08:56:15Z</time>
      </trkpt>
      <trkpt lat="45.92647" lon="4.69183">
        <ele>335</ele>
        <time>2016-10-16T08:56:16Z</time>
      </trkpt>
      <trkpt lat="45.92646" lon="4.69181">
        <ele>335</ele>
        <time>2016-10-16T08:56:17Z</time>
      </trkpt>
      <trkpt lat="45.92646" lon="4.69181">
        <ele>335</ele>
        <time>2016-10-16T08:56:18Z</time>
      </trkpt>
      <trkpt lat="45.92645" lon="4.6918">
        <ele>335</ele>
        <time>2016-10-16T08:56:19Z</time>
      </trkpt>
      <trkpt lat="45.9264" lon="4.69174">
        <ele>335</ele>
        <time>2016-10-16T08:56:23Z</time>
      </trkpt>
      <trkpt lat="45.92639" lon="4.69172">
        <ele>335</ele>
        <time>2016-10-16T08:56:24Z</time>
      </trkpt>
      <trkpt lat="45.92633" lon="4.69161">
        <ele>337</ele>
        <time>2016-10-16T08:56:28Z</time>
      </trkpt>
      <trkpt lat="45.92632" lon="4.69159">
        <ele>337</ele>
        <time>2016-10-16T08:56:29Z</time>
      </trkpt>
      <trkpt lat="45.92626" lon="4.69151">
        <ele>337</ele>
        <time>2016-10-16T08:56:33Z</time>
      </trkpt>
      <trkpt lat="45.92625" lon="4.6915">
        <ele>338</ele>
        <time>2016-10-16T08:56:34Z</time>
      </trkpt>
      <trkpt lat="45.9262" lon="4.6914">
        <ele>338</ele>
        <time>2016-10-16T08:56:38Z</time>
      </trkpt>
      <trkpt lat="45.9262" lon="4.69136">
        <ele>338</ele>
        <time>2016-10-16T08:56:39Z</time>
      </trkpt>
      <trkpt lat="45.92615" lon="4.69128">
        <ele>338</ele>
        <time>2016-10-16T08:56:43Z</time>
      </trkpt>
      <trkpt lat="45.92613" lon="4.69126">
        <ele>338</ele>
        <time>2016-10-16T08:56:44Z</time>
      </trkpt>
      <trkpt lat="45.92609" lon="4.69117">
        <ele>338</ele>
        <time>2016-10-16T08:56:47Z</time>
      </trkpt>
      <trkpt lat="45.92607" lon="4.69114">
        <ele>339</ele>
        <time>2016-10-16T08:56:48Z</time>
      </trkpt>
      <trkpt lat="45.92604" lon="4.69106">
        <ele>339</ele>
        <time>2016-10-16T08:56:51Z</time>
      </trkpt>
      <trkpt lat="45.92603" lon="4.69103">
        <ele>339</ele>
        <time>2016-10-16T08:56:52Z</time>
      </trkpt>
      <trkpt lat="45.92596" lon="4.69094">
        <ele>340</ele>
        <time>2016-10-16T08:56:56Z</time>
      </trkpt>
      <trkpt lat="45.92594" lon="4.69092">
        <ele>341</ele>
        <time>2016-10-16T08:56:57Z</time>
      </trkpt>
      <trkpt lat="45.9259" lon="4.69082">
        <ele>342</ele>
        <time>2016-10-16T08:57:01Z</time>
      </trkpt>
      <trkpt lat="45.92589" lon="4.69079">
        <ele>342</ele>
        <time>2016-10-16T08:57:02Z</time>
      </trkpt>
      <trkpt lat="45.92585" lon="4.69071">
        <ele>341</ele>
        <time>2016-10-16T08:57:05Z</time>
      </trkpt>
      <trkpt lat="45.92583" lon="4.69068">
        <ele>344</ele>
        <time>2016-10-16T08:57:06Z</time>
      </trkpt>
      <trkpt lat="45.92579" lon="4.69058">
        <ele>345</ele>
        <time>2016-10-16T08:57:10Z</time>
      </trkpt>
      <trkpt lat="45.92578" lon="4.69055">
        <ele>345</ele>
        <time>2016-10-16T08:57:11Z</time>
      </trkpt>
      <trkpt lat="45.92572" lon="4.69047">
        <ele>345</ele>
        <time>2016-10-16T08:57:14Z</time>
      </trkpt>
      <trkpt lat="45.92571" lon="4.69044">
        <ele>345</ele>
        <time>2016-10-16T08:57:15Z</time>
      </trkpt>
      <trkpt lat="45.92567" lon="4.69033">
        <ele>346</ele>
        <time>2016-10-16T08:57:19Z</time>
      </trkpt>
      <trkpt lat="45.92565" lon="4.69031">
        <ele>346</ele>
        <time>2016-10-16T08:57:20Z</time>
      </trkpt>
      <trkpt lat="45.9256" lon="4.69022">
        <ele>346</ele>
        <time>2016-10-16T08:57:25Z</time>
      </trkpt>
      <trkpt lat="45.92559" lon="4.69021">
        <ele>346</ele>
        <time>2016-10-16T08:57:26Z</time>
      </trkpt>
      <trkpt lat="45.92555" lon="4.69011">
        <ele>346</ele>
        <time>2016-10-16T08:57:30Z</time>
      </trkpt>
      <trkpt lat="45.92554" lon="4.69008">
        <ele>346</ele>
        <time>2016-10-16T08:57:31Z</time>
      </trkpt>
      <trkpt lat="45.92548" lon="4.68999">
        <ele>348</ele>
        <time>2016-10-16T08:57:36Z</time>
      </trkpt>
      <trkpt lat="45.92547" lon="4.68997">
        <ele>349</ele>
        <time>2016-10-16T08:57:37Z</time>
      </trkpt>
      <trkpt lat="45.92539" lon="4.68992">
        <ele>349</ele>
        <time>2016-10-16T08:57:44Z</time>
      </trkpt>
      <trkpt lat="45.92538" lon="4.68992">
        <ele>349</ele>
        <time>2016-10-16T08:57:45Z</time>
      </trkpt>
      <trkpt lat="45.92536" lon="4.68981">
        <ele>350</ele>
        <time>2016-10-16T08:57:49Z</time>
      </trkpt>
      <trkpt lat="45.92535" lon="4.68976">
        <ele>350</ele>
        <time>2016-10-16T08:57:50Z</time>
      </trkpt>
      <trkpt lat="45.92535" lon="4.68964">
        <ele>350</ele>
        <time>2016-10-16T08:57:55Z</time>
      </trkpt>
      <trkpt lat="45.92536" lon="4.68957">
        <ele>350</ele>
        <time>2016-10-16T08:57:56Z</time>
      </trkpt>
      <trkpt lat="45.92539" lon="4.68947">
        <ele>350</ele>
        <time>2016-10-16T08:58:00Z</time>
      </trkpt>
      <trkpt lat="45.92541" lon="4.68946">
        <ele>350</ele>
        <time>2016-10-16T08:58:01Z</time>
      </trkpt>
      <trkpt lat="45.92545" lon="4.68935">
        <ele>350</ele>
        <time>2016-10-16T08:58:06Z</time>
      </trkpt>
      <trkpt lat="45.92547" lon="4.68932">
        <ele>350</ele>
        <time>2016-10-16T08:58:07Z</time>
      </trkpt>
      <trkpt lat="45.92552" lon="4.68922">
        <ele>349</ele>
        <time>2016-10-16T08:58:11Z</time>
      </trkpt>
      <trkpt lat="45.92553" lon="4.6892">
        <ele>349</ele>
        <time>2016-10-16T08:58:12Z</time>
      </trkpt>
      <trkpt lat="45.92555" lon="4.68909">
        <ele>353</ele>
        <time>2016-10-16T08:58:16Z</time>
      </trkpt>
      <trkpt lat="45.92556" lon="4.68906">
        <ele>353</ele>
        <time>2016-10-16T08:58:17Z</time>
      </trkpt>
      <trkpt lat="45.9256" lon="4.68896">
        <ele>353</ele>
        <time>2016-10-16T08:58:21Z</time>
      </trkpt>
      <trkpt lat="45.9256" lon="4.68894">
        <ele>353</ele>
        <time>2016-10-16T08:58:22Z</time>
      </trkpt>
      <trkpt lat="45.92562" lon="4.68884">
        <ele>354</ele>
        <time>2016-10-16T08:58:26Z</time>
      </trkpt>
      <trkpt lat="45.92562" lon="4.68881">
        <ele>354</ele>
        <time>2016-10-16T08:58:27Z</time>
      </trkpt>
      <trkpt lat="45.92565" lon="4.6887">
        <ele>355</ele>
        <time>2016-10-16T08:58:31Z</time>
      </trkpt>
      <trkpt lat="45.92566" lon="4.68867">
        <ele>355</ele>
        <time>2016-10-16T08:58:32Z</time>
      </trkpt>
      <trkpt lat="45.92568" lon="4.68857">
        <ele>355</ele>
        <time>2016-10-16T08:58:36Z</time>
      </trkpt>
      <trkpt lat="45.92568" lon="4.68855">
        <ele>355</ele>
        <time>2016-10-16T08:58:37Z</time>
      </trkpt>
      <trkpt lat="45.92571" lon="4.68847">
        <ele>355</ele>
        <time>2016-10-16T08:58:40Z</time>
      </trkpt>
      <trkpt lat="45.92576" lon="4.68845">
        <ele>355</ele>
        <time>2016-10-16T08:58:41Z</time>
      </trkpt>
      <trkpt lat="45.92584" lon="4.68841">
        <ele>353</ele>
        <time>2016-10-16T08:58:44Z</time>
      </trkpt>
      <trkpt lat="45.92584" lon="4.68839">
        <ele>354</ele>
        <time>2016-10-16T08:58:45Z</time>
      </trkpt>
      <trkpt lat="45.92584" lon="4.68826">
        <ele>355</ele>
        <time>2016-10-16T08:58:50Z</time>
      </trkpt>
      <trkpt lat="45.92585" lon="4.68824">
        <ele>356</ele>
        <time>2016-10-16T08:58:51Z</time>
      </trkpt>
      <trkpt lat="45.92586" lon="4.68813">
        <ele>356</ele>
        <time>2016-10-16T08:58:56Z</time>
      </trkpt>
      <trkpt lat="45.92585" lon="4.6881">
        <ele>356</ele>
        <time>2016-10-16T08:58:57Z</time>
      </trkpt>
      <trkpt lat="45.92586" lon="4.68797">
        <ele>357</ele>
        <time>2016-10-16T08:59:02Z</time>
      </trkpt>
      <trkpt lat="45.92585" lon="4.68794">
        <ele>357</ele>
        <time>2016-10-16T08:59:03Z</time>
      </trkpt>
      <trkpt lat="45.92585" lon="4.68782">
        <ele>359</ele>
        <time>2016-10-16T08:59:08Z</time>
      </trkpt>
      <trkpt lat="45.92585" lon="4.6878">
        <ele>359</ele>
        <time>2016-10-16T08:59:09Z</time>
      </trkpt>
      <trkpt lat="45.92584" lon="4.68767">
        <ele>360</ele>
        <time>2016-10-16T08:59:14Z</time>
      </trkpt>
      <trkpt lat="45.92584" lon="4.68765">
        <ele>361</ele>
        <time>2016-10-16T08:59:15Z</time>
      </trkpt>
      <trkpt lat="45.92588" lon="4.68755">
        <ele>362</ele>
        <time>2016-10-16T08:59:19Z</time>
      </trkpt>
      <trkpt lat="45.92589" lon="4.68753">
        <ele>362</ele>
        <time>2016-10-16T08:59:20Z</time>
      </trkpt>
      <trkpt lat="45.9259" lon="4.68741">
        <ele>364</ele>
        <time>2016-10-16T08:59:24Z</time>
      </trkpt>
      <trkpt lat="45.92591" lon="4.68739">
        <ele>364</ele>
        <time>2016-10-16T08:59:25Z</time>
      </trkpt>
      <trkpt lat="45.92594" lon="4.68728">
        <ele>365</ele>
        <time>2016-10-16T08:59:29Z</time>
      </trkpt>
      <trkpt lat="45.92593" lon="4.68724">
        <ele>365</ele>
        <time>2016-10-16T08:59:30Z</time>
      </trkpt>
      <trkpt lat="45.92596" lon="4.68712">
        <ele>365</ele>
        <time>2016-10-16T08:59:34Z</time>
      </trkpt>
      <trkpt lat="45.92598" lon="4.68709">
        <ele>366</ele>
        <time>2016-10-16T08:59:35Z</time>
      </trkpt>
      <trkpt lat="45.92601" lon="4.68697">
        <ele>366</ele>
        <time>2016-10-16T08:59:40Z</time>
      </trkpt>
      <trkpt lat="45.92601" lon="4.68694">
        <ele>367</ele>
        <time>2016-10-16T08:59:41Z</time>
      </trkpt>
      <trkpt lat="45.92605" lon="4.68683">
        <ele>367</ele>
        <time>2016-10-16T08:59:45Z</time>
      </trkpt>
      <trkpt lat="45.92605" lon="4.6868">
        <ele>367</ele>
        <time>2016-10-16T08:59:46Z</time>
      </trkpt>
      <trkpt lat="45.92606" lon="4.68668">
        <ele>368</ele>
        <time>2016-10-16T08:59:50Z</time>
      </trkpt>
      <trkpt lat="45.92606" lon="4.68666">
        <ele>370</ele>
        <time>2016-10-16T08:59:51Z</time>
      </trkpt>
      <trkpt lat="45.92607" lon="4.68656">
        <ele>370</ele>
        <time>2016-10-16T08:59:54Z</time>
      </trkpt>
      <trkpt lat="45.92608" lon="4.68652">
        <ele>370</ele>
        <time>2016-10-16T08:59:55Z</time>
      </trkpt>
      <trkpt lat="45.92609" lon="4.68642">
        <ele>369</ele>
        <time>2016-10-16T08:59:58Z</time>
      </trkpt>
      <trkpt lat="45.92609" lon="4.68638">
        <ele>369</ele>
        <time>2016-10-16T08:59:59Z</time>
      </trkpt>
      <trkpt lat="45.92609" lon="4.68627">
        <ele>369</ele>
        <time>2016-10-16T09:00:02Z</time>
      </trkpt>
      <trkpt lat="45.92608" lon="4.68623">
        <ele>369</ele>
        <time>2016-10-16T09:00:03Z</time>
      </trkpt>
      <trkpt lat="45.92607" lon="4.68615">
        <ele>369</ele>
        <time>2016-10-16T09:00:05Z</time>
      </trkpt>
      <trkpt lat="45.92606" lon="4.6861">
        <ele>369</ele>
        <time>2016-10-16T09:00:06Z</time>
      </trkpt>
      <trkpt lat="45.92607" lon="4.686">
        <ele>369</ele>
        <time>2016-10-16T09:00:08Z</time>
      </trkpt>
      <trkpt lat="45.92606" lon="4.68594">
        <ele>369</ele>
        <time>2016-10-16T09:00:09Z</time>
      </trkpt>
      <trkpt lat="45.92604" lon="4.68583">
        <ele>368</ele>
        <time>2016-10-16T09:00:11Z</time>
      </trkpt>
      <trkpt lat="45.92603" lon="4.68577">
        <ele>368</ele>
        <time>2016-10-16T09:00:12Z</time>
      </trkpt>
      <trkpt lat="45.92603" lon="4.68571">
        <ele>368</ele>
        <time>2016-10-16T09:00:13Z</time>
      </trkpt>
      <trkpt lat="45.92602" lon="4.68564">
        <ele>368</ele>
        <time>2016-10-16T09:00:14Z</time>
      </trkpt>
      <trkpt lat="45.92602" lon="4.68556">
        <ele>367</ele>
        <time>2016-10-16T09:00:15Z</time>
      </trkpt>
      <trkpt lat="45.92601" lon="4.68549">
        <ele>367</ele>
        <time>2016-10-16T09:00:16Z</time>
      </trkpt>
      <trkpt lat="45.926" lon="4.68542">
        <ele>367</ele>
        <time>2016-10-16T09:00:17Z</time>
      </trkpt>
      <trkpt lat="45.92598" lon="4.68534">
        <ele>366</ele>
        <time>2016-10-16T09:00:18Z</time>
      </trkpt>
      <trkpt lat="45.92596" lon="4.68525">
        <ele>366</ele>
        <time>2016-10-16T09:00:19Z</time>
      </trkpt>
      <trkpt lat="45.92595" lon="4.68515">
        <ele>366</ele>
        <time>2016-10-16T09:00:20Z</time>
      </trkpt>
      <trkpt lat="45.92594" lon="4.68505">
        <ele>366</ele>
        <time>2016-10-16T09:00:21Z</time>
      </trkpt>
      <trkpt lat="45.92593" lon="4.68494">
        <ele>364</ele>
        <time>2016-10-16T09:00:22Z</time>
      </trkpt>
      <trkpt lat="45.92592" lon="4.68484">
        <ele>364</ele>
        <time>2016-10-16T09:00:23Z</time>
      </trkpt>
      <trkpt lat="45.92592" lon="4.68474">
        <ele>363</ele>
        <time>2016-10-16T09:00:24Z</time>
      </trkpt>
      <trkpt lat="45.92592" lon="4.68462">
        <ele>362</ele>
        <time>2016-10-16T09:00:25Z</time>
      </trkpt>
      <trkpt lat="45.92592" lon="4.6845">
        <ele>362</ele>
        <time>2016-10-16T09:00:26Z</time>
      </trkpt>
      <trkpt lat="45.92593" lon="4.68437">
        <ele>361</ele>
        <time>2016-10-16T09:00:27Z</time>
      </trkpt>
      <trkpt lat="45.92593" lon="4.68423">
        <ele>360</ele>
        <time>2016-10-16T09:00:28Z</time>
      </trkpt>
      <trkpt lat="45.92593" lon="4.68409">
        <ele>358</ele>
        <time>2016-10-16T09:00:29Z</time>
      </trkpt>
      <trkpt lat="45.92593" lon="4.68395">
        <ele>358</ele>
        <time>2016-10-16T09:00:30Z</time>
      </trkpt>
      <trkpt lat="45.92593" lon="4.68381">
        <ele>357</ele>
        <time>2016-10-16T09:00:31Z</time>
      </trkpt>
      <trkpt lat="45.92593" lon="4.68366">
        <ele>356</ele>
        <time>2016-10-16T09:00:32Z</time>
      </trkpt>
      <trkpt lat="45.92593" lon="4.68351">
        <ele>355</ele>
        <time>2016-10-16T09:00:33Z</time>
      </trkpt>
      <trkpt lat="45.92593" lon="4.68335">
        <ele>354</ele>
        <time>2016-10-16T09:00:34Z</time>
      </trkpt>
      <trkpt lat="45.92593" lon="4.68319">
        <ele>351</ele>
        <time>2016-10-16T09:00:35Z</time>
      </trkpt>
      <trkpt lat="45.92593" lon="4.68303">
        <ele>350</ele>
        <time>2016-10-16T09:00:36Z</time>
      </trkpt>
      <trkpt lat="45.92593" lon="4.68288">
        <ele>349</ele>
        <time>2016-10-16T09:00:37Z</time>
      </trkpt>
      <trkpt lat="45.92593" lon="4.68272">
        <ele>348</ele>
        <time>2016-10-16T09:00:38Z</time>
      </trkpt>
      <trkpt lat="45.92594" lon="4.68255">
        <ele>347</ele>
        <time>2016-10-16T09:00:39Z</time>
      </trkpt>
      <trkpt lat="45.92594" lon="4.68238">
        <ele>343</ele>
        <time>2016-10-16T09:00:40Z</time>
      </trkpt>
      <trkpt lat="45.92594" lon="4.68221">
        <ele>341</ele>
        <time>2016-10-16T09:00:41Z</time>
      </trkpt>
      <trkpt lat="45.92594" lon="4.68203">
        <ele>340</ele>
        <time>2016-10-16T09:00:42Z</time>
      </trkpt>
      <trkpt lat="45.92594" lon="4.68185">
        <ele>339</ele>
        <time>2016-10-16T09:00:43Z</time>
      </trkpt>
      <trkpt lat="45.92594" lon="4.68166">
        <ele>336</ele>
        <time>2016-10-16T09:00:44Z</time>
      </trkpt>
      <trkpt lat="45.92595" lon="4.68148">
        <ele>334</ele>
        <time>2016-10-16T09:00:45Z</time>
      </trkpt>
      <trkpt lat="45.92595" lon="4.6813">
        <ele>333</ele>
        <time>2016-10-16T09:00:46Z</time>
      </trkpt>
      <trkpt lat="45.92595" lon="4.68112">
        <ele>332</ele>
        <time>2016-10-16T09:00:47Z</time>
      </trkpt>
      <trkpt lat="45.92595" lon="4.68095">
        <ele>332</ele>
        <time>2016-10-16T09:00:48Z</time>
      </trkpt>
      <trkpt lat="45.92594" lon="4.68077">
        <ele>331</ele>
        <time>2016-10-16T09:00:49Z</time>
      </trkpt>
      <trkpt lat="45.92593" lon="4.6806">
        <ele>329</ele>
        <time>2016-10-16T09:00:50Z</time>
      </trkpt>
      <trkpt lat="45.92591" lon="4.68043">
        <ele>328</ele>
        <time>2016-10-16T09:00:51Z</time>
      </trkpt>
      <trkpt lat="45.92589" lon="4.68026">
        <ele>328</ele>
        <time>2016-10-16T09:00:52Z</time>
      </trkpt>
      <trkpt lat="45.92587" lon="4.6801">
        <ele>329</ele>
        <time>2016-10-16T09:00:53Z</time>
      </trkpt>
      <trkpt lat="45.92584" lon="4.67994">
        <ele>329</ele>
        <time>2016-10-16T09:00:54Z</time>
      </trkpt>
      <trkpt lat="45.9258" lon="4.67979">
        <ele>331</ele>
        <time>2016-10-16T09:00:55Z</time>
      </trkpt>
      <trkpt lat="45.92577" lon="4.67965">
        <ele>330</ele>
        <time>2016-10-16T09:00:56Z</time>
      </trkpt>
      <trkpt lat="45.92575" lon="4.67951">
        <ele>330</ele>
        <time>2016-10-16T09:00:57Z</time>
      </trkpt>
      <trkpt lat="45.92571" lon="4.67937">
        <ele>329</ele>
        <time>2016-10-16T09:00:58Z</time>
      </trkpt>
      <trkpt lat="45.92569" lon="4.67923">
        <ele>329</ele>
        <time>2016-10-16T09:00:59Z</time>
      </trkpt>
      <trkpt lat="45.92565" lon="4.6791">
        <ele>326</ele>
        <time>2016-10-16T09:01:00Z</time>
      </trkpt>
      <trkpt lat="45.92565" lon="4.67896">
        <ele>325</ele>
        <time>2016-10-16T09:01:01Z</time>
      </trkpt>
      <trkpt lat="45.92566" lon="4.67882">
        <ele>325</ele>
        <time>2016-10-16T09:01:02Z</time>
      </trkpt>
      <trkpt lat="45.92567" lon="4.67867">
        <ele>324</ele>
        <time>2016-10-16T09:01:03Z</time>
      </trkpt>
      <trkpt lat="45.9257" lon="4.67852">
        <ele>323</ele>
        <time>2016-10-16T09:01:04Z</time>
      </trkpt>
      <trkpt lat="45.92571" lon="4.67838">
        <ele>322</ele>
        <time>2016-10-16T09:01:05Z</time>
      </trkpt>
      <trkpt lat="45.92571" lon="4.67823">
        <ele>318</ele>
        <time>2016-10-16T09:01:06Z</time>
      </trkpt>
      <trkpt lat="45.92573" lon="4.67808">
        <ele>317</ele>
        <time>2016-10-16T09:01:07Z</time>
      </trkpt>
      <trkpt lat="45.92575" lon="4.67794">
        <ele>316</ele>
        <time>2016-10-16T09:01:08Z</time>
      </trkpt>
      <trkpt lat="45.9258" lon="4.67781">
        <ele>315</ele>
        <time>2016-10-16T09:01:09Z</time>
      </trkpt>
      <trkpt lat="45.92585" lon="4.67769">
        <ele>313</ele>
        <time>2016-10-16T09:01:10Z</time>
      </trkpt>
      <trkpt lat="45.92592" lon="4.67756">
        <ele>312</ele>
        <time>2016-10-16T09:01:11Z</time>
      </trkpt>
      <trkpt lat="45.926" lon="4.67743">
        <ele>308</ele>
        <time>2016-10-16T09:01:12Z</time>
      </trkpt>
      <trkpt lat="45.92607" lon="4.67729">
        <ele>307</ele>
        <time>2016-10-16T09:01:13Z</time>
      </trkpt>
      <trkpt lat="45.92614" lon="4.67714">
        <ele>306</ele>
        <time>2016-10-16T09:01:14Z</time>
      </trkpt>
      <trkpt lat="45.92619" lon="4.67697">
        <ele>305</ele>
        <time>2016-10-16T09:01:15Z</time>
      </trkpt>
      <trkpt lat="45.92623" lon="4.67678">
        <ele>304</ele>
        <time>2016-10-16T09:01:16Z</time>
      </trkpt>
      <trkpt lat="45.92623" lon="4.67658">
        <ele>300</ele>
        <time>2016-10-16T09:01:17Z</time>
      </trkpt>
      <trkpt lat="45.92622" lon="4.67639">
        <ele>299</ele>
        <time>2016-10-16T09:01:18Z</time>
      </trkpt>
      <trkpt lat="45.9262" lon="4.6762">
        <ele>299</ele>
        <time>2016-10-16T09:01:19Z</time>
      </trkpt>
      <trkpt lat="45.92617" lon="4.67601">
        <ele>298</ele>
        <time>2016-10-16T09:01:20Z</time>
      </trkpt>
      <trkpt lat="45.92613" lon="4.67582">
        <ele>296</ele>
        <time>2016-10-16T09:01:21Z</time>
      </trkpt>
      <trkpt lat="45.9261" lon="4.67564">
        <ele>296</ele>
        <time>2016-10-16T09:01:22Z</time>
      </trkpt>
      <trkpt lat="45.92607" lon="4.67547">
        <ele>296</ele>
        <time>2016-10-16T09:01:23Z</time>
      </trkpt>
      <trkpt lat="45.92604" lon="4.6753">
        <ele>296</ele>
        <time>2016-10-16T09:01:24Z</time>
      </trkpt>
      <trkpt lat="45.926" lon="4.67514">
        <ele>296</ele>
        <time>2016-10-16T09:01:25Z</time>
      </trkpt>
      <trkpt lat="45.92597" lon="4.67498">
        <ele>297</ele>
        <time>2016-10-16T09:01:26Z</time>
      </trkpt>
      <trkpt lat="45.92594" lon="4.67483">
        <ele>297</ele>
        <time>2016-10-16T09:01:27Z</time>
      </trkpt>
      <trkpt lat="45.92591" lon="4.6747">
        <ele>297</ele>
        <time>2016-10-16T09:01:28Z</time>
      </trkpt>
      <trkpt lat="45.92588" lon="4.67457">
        <ele>298</ele>
        <time>2016-10-16T09:01:29Z</time>
      </trkpt>
      <trkpt lat="45.92585" lon="4.67444">
        <ele>298</ele>
        <time>2016-10-16T09:01:30Z</time>
      </trkpt>
      <trkpt lat="45.92581" lon="4.67433">
        <ele>299</ele>
        <time>2016-10-16T09:01:31Z</time>
      </trkpt>
      <trkpt lat="45.92578" lon="4.67424">
        <ele>300</ele>
        <time>2016-10-16T09:01:32Z</time>
      </trkpt>
      <trkpt lat="45.92577" lon="4.67415">
        <ele>301</ele>
        <time>2016-10-16T09:01:33Z</time>
      </trkpt>
      <trkpt lat="45.92574" lon="4.67407">
        <ele>301</ele>
        <time>2016-10-16T09:01:34Z</time>
      </trkpt>
      <trkpt lat="45.92572" lon="4.67401">
        <ele>301</ele>
        <time>2016-10-16T09:01:35Z</time>
      </trkpt>
      <trkpt lat="45.9257" lon="4.67394">
        <ele>302</ele>
        <time>2016-10-16T09:01:36Z</time>
      </trkpt>
      <trkpt lat="45.92568" lon="4.67384">
        <ele>302</ele>
        <time>2016-10-16T09:01:39Z</time>
      </trkpt>
      <trkpt lat="45.92567" lon="4.67381">
        <ele>302</ele>
        <time>2016-10-16T09:01:40Z</time>
      </trkpt>
      <trkpt lat="45.92563" lon="4.67371">
        <ele>303</ele>
        <time>2016-10-16T09:01:44Z</time>
      </trkpt>
      <trkpt lat="45.92562" lon="4.67369">
        <ele>303</ele>
        <time>2016-10-16T09:01:45Z</time>
      </trkpt>
      <trkpt lat="45.92559" lon="4.67357">
        <ele>303</ele>
        <time>2016-10-16T09:01:49Z</time>
      </trkpt>
      <trkpt lat="45.92557" lon="4.67355">
        <ele>303</ele>
        <time>2016-10-16T09:01:50Z</time>
      </trkpt>
      <trkpt lat="45.92554" lon="4.67343">
        <ele>303</ele>
        <time>2016-10-16T09:01:55Z</time>
      </trkpt>
      <trkpt lat="45.92553" lon="4.6734">
        <ele>303</ele>
        <time>2016-10-16T09:01:56Z</time>
      </trkpt>
      <trkpt lat="45.9255" lon="4.67329">
        <ele>306</ele>
        <time>2016-10-16T09:02:00Z</time>
      </trkpt>
      <trkpt lat="45.9255" lon="4.67326">
        <ele>306</ele>
        <time>2016-10-16T09:02:01Z</time>
      </trkpt>
      <trkpt lat="45.92547" lon="4.67314">
        <ele>307</ele>
        <time>2016-10-16T09:02:05Z</time>
      </trkpt>
      <trkpt lat="45.92547" lon="4.67312">
        <ele>307</ele>
        <time>2016-10-16T09:02:06Z</time>
      </trkpt>
      <trkpt lat="45.92547" lon="4.67299">
        <ele>307</ele>
        <time>2016-10-16T09:02:10Z</time>
      </trkpt>
      <trkpt lat="45.92546" lon="4.67296">
        <ele>307</ele>
        <time>2016-10-16T09:02:11Z</time>
      </trkpt>
      <trkpt lat="45.92546" lon="4.67284">
        <ele>307</ele>
        <time>2016-10-16T09:02:15Z</time>
      </trkpt>
      <trkpt lat="45.92546" lon="4.67281">
        <ele>308</ele>
        <time>2016-10-16T09:02:16Z</time>
      </trkpt>
      <trkpt lat="45.92545" lon="4.6727">
        <ele>308</ele>
        <time>2016-10-16T09:02:20Z</time>
      </trkpt>
      <trkpt lat="45.92546" lon="4.67268">
        <ele>308</ele>
        <time>2016-10-16T09:02:21Z</time>
      </trkpt>
      <trkpt lat="45.92548" lon="4.67258">
        <ele>308</ele>
        <time>2016-10-16T09:02:25Z</time>
      </trkpt>
      <trkpt lat="45.92548" lon="4.67255">
        <ele>308</ele>
        <time>2016-10-16T09:02:26Z</time>
      </trkpt>
      <trkpt lat="45.92549" lon="4.67244">
        <ele>312</ele>
        <time>2016-10-16T09:02:30Z</time>
      </trkpt>
      <trkpt lat="45.9255" lon="4.67241">
        <ele>312</ele>
        <time>2016-10-16T09:02:31Z</time>
      </trkpt>
      <trkpt lat="45.92552" lon="4.6723">
        <ele>312</ele>
        <time>2016-10-16T09:02:35Z</time>
      </trkpt>
      <trkpt lat="45.92553" lon="4.67227">
        <ele>312</ele>
        <time>2016-10-16T09:02:36Z</time>
      </trkpt>
      <trkpt lat="45.92556" lon="4.67215">
        <ele>313</ele>
        <time>2016-10-16T09:02:40Z</time>
      </trkpt>
      <trkpt lat="45.92558" lon="4.67213">
        <ele>313</ele>
        <time>2016-10-16T09:02:41Z</time>
      </trkpt>
      <trkpt lat="45.92561" lon="4.67201">
        <ele>314</ele>
        <time>2016-10-16T09:02:46Z</time>
      </trkpt>
      <trkpt lat="45.92561" lon="4.67199">
        <ele>314</ele>
        <time>2016-10-16T09:02:47Z</time>
      </trkpt>
      <trkpt lat="45.92563" lon="4.67188">
        <ele>314</ele>
        <time>2016-10-16T09:02:51Z</time>
      </trkpt>
      <trkpt lat="45.92564" lon="4.67185">
        <ele>315</ele>
        <time>2016-10-16T09:02:52Z</time>
      </trkpt>
      <trkpt lat="45.92566" lon="4.67173">
        <ele>315</ele>
        <time>2016-10-16T09:02:56Z</time>
      </trkpt>
      <trkpt lat="45.92567" lon="4.6717">
        <ele>315</ele>
        <time>2016-10-16T09:02:57Z</time>
      </trkpt>
      <trkpt lat="45.9257" lon="4.67159">
        <ele>320</ele>
        <time>2016-10-16T09:03:01Z</time>
      </trkpt>
      <trkpt lat="45.92571" lon="4.67157">
        <ele>320</ele>
        <time>2016-10-16T09:03:02Z</time>
      </trkpt>
      <trkpt lat="45.92576" lon="4.67147">
        <ele>321</ele>
        <time>2016-10-16T09:03:06Z</time>
      </trkpt>
      <trkpt lat="45.92577" lon="4.67144">
        <ele>321</ele>
        <time>2016-10-16T09:03:07Z</time>
      </trkpt>
      <trkpt lat="45.9258" lon="4.67135">
        <ele>322</ele>
        <time>2016-10-16T09:03:11Z</time>
      </trkpt>
      <trkpt lat="45.92582" lon="4.67134">
        <ele>322</ele>
        <time>2016-10-16T09:03:12Z</time>
      </trkpt>
      <trkpt lat="45.92585" lon="4.67122">
        <ele>323</ele>
        <time>2016-10-16T09:03:17Z</time>
      </trkpt>
      <trkpt lat="45.92585" lon="4.67119">
        <ele>324</ele>
        <time>2016-10-16T09:03:18Z</time>
      </trkpt>
      <trkpt lat="45.92589" lon="4.6711">
        <ele>325</ele>
        <time>2016-10-16T09:03:22Z</time>
      </trkpt>
      <trkpt lat="45.92589" lon="4.67108">
        <ele>325</ele>
        <time>2016-10-16T09:03:23Z</time>
      </trkpt>
      <trkpt lat="45.9259" lon="4.67096">
        <ele>327</ele>
        <time>2016-10-16T09:03:28Z</time>
      </trkpt>
      <trkpt lat="45.92591" lon="4.67093">
        <ele>327</ele>
        <time>2016-10-16T09:03:29Z</time>
      </trkpt>
      <trkpt lat="45.92593" lon="4.67083">
        <ele>330</ele>
        <time>2016-10-16T09:03:33Z</time>
      </trkpt>
      <trkpt lat="45.92594" lon="4.6708">
        <ele>330</ele>
        <time>2016-10-16T09:03:34Z</time>
      </trkpt>
      <trkpt lat="45.92592" lon="4.67068">
        <ele>331</ele>
        <time>2016-10-16T09:03:39Z</time>
      </trkpt>
      <trkpt lat="45.92593" lon="4.67065">
        <ele>331</ele>
        <time>2016-10-16T09:03:40Z</time>
      </trkpt>
      <trkpt lat="45.92593" lon="4.67053">
        <ele>332</ele>
        <time>2016-10-16T09:03:45Z</time>
      </trkpt>
      <trkpt lat="45.92594" lon="4.6705">
        <ele>332</ele>
        <time>2016-10-16T09:03:46Z</time>
      </trkpt>
      <trkpt lat="45.92597" lon="4.67039">
        <ele>332</ele>
        <time>2016-10-16T09:03:50Z</time>
      </trkpt>
      <trkpt lat="45.92597" lon="4.67037">
        <ele>332</ele>
        <time>2016-10-16T09:03:51Z</time>
      </trkpt>
      <trkpt lat="45.92599" lon="4.67027">
        <ele>333</ele>
        <time>2016-10-16T09:03:55Z</time>
      </trkpt>
      <trkpt lat="45.926" lon="4.67024">
        <ele>333</ele>
        <time>2016-10-16T09:03:56Z</time>
      </trkpt>
      <trkpt lat="45.92601" lon="4.67013">
        <ele>334</ele>
        <time>2016-10-16T09:04:00Z</time>
      </trkpt>
      <trkpt lat="45.92602" lon="4.6701">
        <ele>334</ele>
        <time>2016-10-16T09:04:01Z</time>
      </trkpt>
      <trkpt lat="45.92604" lon="4.66999">
        <ele>337</ele>
        <time>2016-10-16T09:04:06Z</time>
      </trkpt>
      <trkpt lat="45.92605" lon="4.66997">
        <ele>337</ele>
        <time>2016-10-16T09:04:07Z</time>
      </trkpt>
      <trkpt lat="45.92606" lon="4.66985">
        <ele>337</ele>
        <time>2016-10-16T09:04:12Z</time>
      </trkpt>
      <trkpt lat="45.92607" lon="4.66982">
        <ele>337</ele>
        <time>2016-10-16T09:04:13Z</time>
      </trkpt>
      <trkpt lat="45.9261" lon="4.66972">
        <ele>337</ele>
        <time>2016-10-16T09:04:17Z</time>
      </trkpt>
      <trkpt lat="45.92611" lon="4.66969">
        <ele>337</ele>
        <time>2016-10-16T09:04:18Z</time>
      </trkpt>
      <trkpt lat="45.92615" lon="4.6696">
        <ele>337</ele>
        <time>2016-10-16T09:04:22Z</time>
      </trkpt>
      <trkpt lat="45.92616" lon="4.66957">
        <ele>337</ele>
        <time>2016-10-16T09:04:23Z</time>
      </trkpt>
      <trkpt lat="45.92618" lon="4.66946">
        <ele>337</ele>
        <time>2016-10-16T09:04:27Z</time>
      </trkpt>
      <trkpt lat="45.92619" lon="4.66944">
        <ele>337</ele>
        <time>2016-10-16T09:04:28Z</time>
      </trkpt>
      <trkpt lat="45.92622" lon="4.66933">
        <ele>337</ele>
        <time>2016-10-16T09:04:32Z</time>
      </trkpt>
      <trkpt lat="45.92622" lon="4.6693">
        <ele>337</ele>
        <time>2016-10-16T09:04:33Z</time>
      </trkpt>
      <trkpt lat="45.92625" lon="4.66918">
        <ele>337</ele>
        <time>2016-10-16T09:04:37Z</time>
      </trkpt>
      <trkpt lat="45.92625" lon="4.66915">
        <ele>339</ele>
        <time>2016-10-16T09:04:38Z</time>
      </trkpt>
      <trkpt lat="45.92628" lon="4.66905">
        <ele>339</ele>
        <time>2016-10-16T09:04:41Z</time>
      </trkpt>
      <trkpt lat="45.92629" lon="4.66902">
        <ele>339</ele>
        <time>2016-10-16T09:04:42Z</time>
      </trkpt>
      <trkpt lat="45.92631" lon="4.66892">
        <ele>338</ele>
        <time>2016-10-16T09:04:45Z</time>
      </trkpt>
      <trkpt lat="45.92633" lon="4.66889">
        <ele>338</ele>
        <time>2016-10-16T09:04:46Z</time>
      </trkpt>
      <trkpt lat="45.92635" lon="4.66879">
        <ele>338</ele>
        <time>2016-10-16T09:04:49Z</time>
      </trkpt>
      <trkpt lat="45.92636" lon="4.66876">
        <ele>338</ele>
        <time>2016-10-16T09:04:50Z</time>
      </trkpt>
      <trkpt lat="45.92638" lon="4.66864">
        <ele>338</ele>
        <time>2016-10-16T09:04:53Z</time>
      </trkpt>
      <trkpt lat="45.92639" lon="4.66861">
        <ele>338</ele>
        <time>2016-10-16T09:04:54Z</time>
      </trkpt>
      <trkpt lat="45.92639" lon="4.66848">
        <ele>338</ele>
        <time>2016-10-16T09:04:57Z</time>
      </trkpt>
      <trkpt lat="45.92639" lon="4.66844">
        <ele>338</ele>
        <time>2016-10-16T09:04:58Z</time>
      </trkpt>
      <trkpt lat="45.9264" lon="4.66835">
        <ele>338</ele>
        <time>2016-10-16T09:05:00Z</time>
      </trkpt>
      <trkpt lat="45.9264" lon="4.66831">
        <ele>338</ele>
        <time>2016-10-16T09:05:01Z</time>
      </trkpt>
      <trkpt lat="45.92642" lon="4.66819">
        <ele>338</ele>
        <time>2016-10-16T09:05:04Z</time>
      </trkpt>
      <trkpt lat="45.92642" lon="4.66814">
        <ele>338</ele>
        <time>2016-10-16T09:05:05Z</time>
      </trkpt>
      <trkpt lat="45.92643" lon="4.66802">
        <ele>338</ele>
        <time>2016-10-16T09:05:08Z</time>
      </trkpt>
      <trkpt lat="45.92643" lon="4.66798">
        <ele>338</ele>
        <time>2016-10-16T09:05:09Z</time>
      </trkpt>
      <trkpt lat="45.92644" lon="4.66785">
        <ele>338</ele>
        <time>2016-10-16T09:05:12Z</time>
      </trkpt>
      <trkpt lat="45.92644" lon="4.6678">
        <ele>338</ele>
        <time>2016-10-16T09:05:13Z</time>
      </trkpt>
      <trkpt lat="45.92645" lon="4.66772">
        <ele>338</ele>
        <time>2016-10-16T09:05:15Z</time>
      </trkpt>
      <trkpt lat="45.92646" lon="4.66768">
        <ele>338</ele>
        <time>2016-10-16T09:05:16Z</time>
      </trkpt>
      <trkpt lat="45.92647" lon="4.66759">
        <ele>338</ele>
        <time>2016-10-16T09:05:18Z</time>
      </trkpt>
      <trkpt lat="45.92647" lon="4.66754">
        <ele>338</ele>
        <time>2016-10-16T09:05:19Z</time>
      </trkpt>
      <trkpt lat="45.92647" lon="4.66742">
        <ele>339</ele>
        <time>2016-10-16T09:05:22Z</time>
      </trkpt>
      <trkpt lat="45.92648" lon="4.66738">
        <ele>339</ele>
        <time>2016-10-16T09:05:23Z</time>
      </trkpt>
      <trkpt lat="45.92649" lon="4.66729">
        <ele>340</ele>
        <time>2016-10-16T09:05:25Z</time>
      </trkpt>
      <trkpt lat="45.92649" lon="4.66725">
        <ele>340</ele>
        <time>2016-10-16T09:05:26Z</time>
      </trkpt>
      <trkpt lat="45.92648" lon="4.66715">
        <ele>340</ele>
        <time>2016-10-16T09:05:28Z</time>
      </trkpt>
      <trkpt lat="45.92648" lon="4.66711">
        <ele>341</ele>
        <time>2016-10-16T09:05:29Z</time>
      </trkpt>
      <trkpt lat="45.92647" lon="4.66702">
        <ele>341</ele>
        <time>2016-10-16T09:05:31Z</time>
      </trkpt>
      <trkpt lat="45.92647" lon="4.66697">
        <ele>341</ele>
        <time>2016-10-16T09:05:32Z</time>
      </trkpt>
      <trkpt lat="45.92646" lon="4.66687">
        <ele>341</ele>
        <time>2016-10-16T09:05:34Z</time>
      </trkpt>
      <trkpt lat="45.92646" lon="4.66682">
        <ele>341</ele>
        <time>2016-10-16T09:05:35Z</time>
      </trkpt>
      <trkpt lat="45.92646" lon="4.66673">
        <ele>342</ele>
        <time>2016-10-16T09:05:37Z</time>
      </trkpt>
      <trkpt lat="45.92645" lon="4.66668">
        <ele>342</ele>
        <time>2016-10-16T09:05:38Z</time>
      </trkpt>
      <trkpt lat="45.92644" lon="4.66659">
        <ele>343</ele>
        <time>2016-10-16T09:05:40Z</time>
      </trkpt>
      <trkpt lat="45.92644" lon="4.66654">
        <ele>344</ele>
        <time>2016-10-16T09:05:41Z</time>
      </trkpt>
      <trkpt lat="45.92643" lon="4.66644">
        <ele>344</ele>
        <time>2016-10-16T09:05:43Z</time>
      </trkpt>
      <trkpt lat="45.92643" lon="4.66638">
        <ele>344</ele>
        <time>2016-10-16T09:05:44Z</time>
      </trkpt>
      <trkpt lat="45.92642" lon="4.66627">
        <ele>344</ele>
        <time>2016-10-16T09:05:46Z</time>
      </trkpt>
      <trkpt lat="45.92642" lon="4.66621">
        <ele>344</ele>
        <time>2016-10-16T09:05:47Z</time>
      </trkpt>
      <trkpt lat="45.92642" lon="4.6661">
        <ele>344</ele>
        <time>2016-10-16T09:05:49Z</time>
      </trkpt>
      <trkpt lat="45.92642" lon="4.66604">
        <ele>344</ele>
        <time>2016-10-16T09:05:50Z</time>
      </trkpt>
      <trkpt lat="45.92642" lon="4.66597">
        <ele>345</ele>
        <time>2016-10-16T09:05:51Z</time>
      </trkpt>
      <trkpt lat="45.92643" lon="4.6659">
        <ele>345</ele>
        <time>2016-10-16T09:05:52Z</time>
      </trkpt>
      <trkpt lat="45.92644" lon="4.66583">
        <ele>344</ele>
        <time>2016-10-16T09:05:53Z</time>
      </trkpt>
      <trkpt lat="45.92646" lon="4.66574">
        <ele>344</ele>
        <time>2016-10-16T09:05:54Z</time>
      </trkpt>
      <trkpt lat="45.92647" lon="4.66566">
        <ele>343</ele>
        <time>2016-10-16T09:05:55Z</time>
      </trkpt>
      <trkpt lat="45.92647" lon="4.66558">
        <ele>343</ele>
        <time>2016-10-16T09:05:56Z</time>
      </trkpt>
      <trkpt lat="45.92647" lon="4.6655">
        <ele>343</ele>
        <time>2016-10-16T09:05:57Z</time>
      </trkpt>
      <trkpt lat="45.92648" lon="4.66542">
        <ele>342</ele>
        <time>2016-10-16T09:05:58Z</time>
      </trkpt>
      <trkpt lat="45.9265" lon="4.66533">
        <ele>342</ele>
        <time>2016-10-16T09:05:59Z</time>
      </trkpt>
      <trkpt lat="45.92651" lon="4.66525">
        <ele>341</ele>
        <time>2016-10-16T09:06:00Z</time>
      </trkpt>
      <trkpt lat="45.92653" lon="4.66515">
        <ele>340</ele>
        <time>2016-10-16T09:06:01Z</time>
      </trkpt>
      <trkpt lat="45.92654" lon="4.66505">
        <ele>339</ele>
        <time>2016-10-16T09:06:02Z</time>
      </trkpt>
      <trkpt lat="45.92655" lon="4.66495">
        <ele>336</ele>
        <time>2016-10-16T09:06:03Z</time>
      </trkpt>
      <trkpt lat="45.92656" lon="4.66484">
        <ele>336</ele>
        <time>2016-10-16T09:06:04Z</time>
      </trkpt>
      <trkpt lat="45.92655" lon="4.66472">
        <ele>336</ele>
        <time>2016-10-16T09:06:05Z</time>
      </trkpt>
      <trkpt lat="45.92655" lon="4.6646">
        <ele>336</ele>
        <time>2016-10-16T09:06:06Z</time>
      </trkpt>
      <trkpt lat="45.92656" lon="4.66448">
        <ele>335</ele>
        <time>2016-10-16T09:06:07Z</time>
      </trkpt>
      <trkpt lat="45.92657" lon="4.66436">
        <ele>334</ele>
        <time>2016-10-16T09:06:08Z</time>
      </trkpt>
      <trkpt lat="45.92659" lon="4.66423">
        <ele>333</ele>
        <time>2016-10-16T09:06:09Z</time>
      </trkpt>
      <trkpt lat="45.92661" lon="4.66409">
        <ele>332</ele>
        <time>2016-10-16T09:06:10Z</time>
      </trkpt>
      <trkpt lat="45.92662" lon="4.66395">
        <ele>332</ele>
        <time>2016-10-16T09:06:11Z</time>
      </trkpt>
      <trkpt lat="45.92664" lon="4.66381">
        <ele>331</ele>
        <time>2016-10-16T09:06:12Z</time>
      </trkpt>
      <trkpt lat="45.92666" lon="4.66367">
        <ele>331</ele>
        <time>2016-10-16T09:06:13Z</time>
      </trkpt>
      <trkpt lat="45.92667" lon="4.66353">
        <ele>333</ele>
        <time>2016-10-16T09:06:14Z</time>
      </trkpt>
      <trkpt lat="45.92669" lon="4.6634">
        <ele>332</ele>
        <time>2016-10-16T09:06:15Z</time>
      </trkpt>
      <trkpt lat="45.92671" lon="4.66326">
        <ele>331</ele>
        <time>2016-10-16T09:06:16Z</time>
      </trkpt>
      <trkpt lat="45.92672" lon="4.66313">
        <ele>330</ele>
        <time>2016-10-16T09:06:17Z</time>
      </trkpt>
      <trkpt lat="45.92674" lon="4.66299">
        <ele>330</ele>
        <time>2016-10-16T09:06:18Z</time>
      </trkpt>
      <trkpt lat="45.92677" lon="4.66285">
        <ele>329</ele>
        <time>2016-10-16T09:06:19Z</time>
      </trkpt>
      <trkpt lat="45.92679" lon="4.6627">
        <ele>328</ele>
        <time>2016-10-16T09:06:20Z</time>
      </trkpt>
      <trkpt lat="45.92682" lon="4.66257">
        <ele>327</ele>
        <time>2016-10-16T09:06:21Z</time>
      </trkpt>
      <trkpt lat="45.92685" lon="4.66242">
        <ele>324</ele>
        <time>2016-10-16T09:06:22Z</time>
      </trkpt>
      <trkpt lat="45.92688" lon="4.66231">
        <ele>324</ele>
        <time>2016-10-16T09:06:23Z</time>
      </trkpt>
      <trkpt lat="45.92691" lon="4.66218">
        <ele>324</ele>
        <time>2016-10-16T09:06:24Z</time>
      </trkpt>
      <trkpt lat="45.92694" lon="4.66206">
        <ele>324</ele>
        <time>2016-10-16T09:06:25Z</time>
      </trkpt>
      <trkpt lat="45.92697" lon="4.66191">
        <ele>323</ele>
        <time>2016-10-16T09:06:26Z</time>
      </trkpt>
      <trkpt lat="45.927" lon="4.66177">
        <ele>323</ele>
        <time>2016-10-16T09:06:27Z</time>
      </trkpt>
      <trkpt lat="45.92703" lon="4.66163">
        <ele>321</ele>
        <time>2016-10-16T09:06:28Z</time>
      </trkpt>
      <trkpt lat="45.92707" lon="4.6615">
        <ele>321</ele>
        <time>2016-10-16T09:06:29Z</time>
      </trkpt>
      <trkpt lat="45.9271" lon="4.66139">
        <ele>321</ele>
        <time>2016-10-16T09:06:30Z</time>
      </trkpt>
      <trkpt lat="45.92714" lon="4.66127">
        <ele>322</ele>
        <time>2016-10-16T09:06:31Z</time>
      </trkpt>
      <trkpt lat="45.92718" lon="4.66115">
        <ele>322</ele>
        <time>2016-10-16T09:06:32Z</time>
      </trkpt>
      <trkpt lat="45.92721" lon="4.66104">
        <ele>322</ele>
        <time>2016-10-16T09:06:33Z</time>
      </trkpt>
      <trkpt lat="45.92724" lon="4.66092">
        <ele>322</ele>
        <time>2016-10-16T09:06:34Z</time>
      </trkpt>
      <trkpt lat="45.92726" lon="4.66081">
        <ele>323</ele>
        <time>2016-10-16T09:06:35Z</time>
      </trkpt>
      <trkpt lat="45.92728" lon="4.66069">
        <ele>323</ele>
        <time>2016-10-16T09:06:36Z</time>
      </trkpt>
      <trkpt lat="45.9273" lon="4.66057">
        <ele>323</ele>
        <time>2016-10-16T09:06:37Z</time>
      </trkpt>
      <trkpt lat="45.92732" lon="4.66043">
        <ele>323</ele>
        <time>2016-10-16T09:06:38Z</time>
      </trkpt>
      <trkpt lat="45.92733" lon="4.66029">
        <ele>323</ele>
        <time>2016-10-16T09:06:39Z</time>
      </trkpt>
      <trkpt lat="45.92733" lon="4.66016">
        <ele>323</ele>
        <time>2016-10-16T09:06:40Z</time>
      </trkpt>
      <trkpt lat="45.92733" lon="4.66004">
        <ele>323</ele>
        <time>2016-10-16T09:06:41Z</time>
      </trkpt>
      <trkpt lat="45.92734" lon="4.65992">
        <ele>323</ele>
        <time>2016-10-16T09:06:42Z</time>
      </trkpt>
      <trkpt lat="45.92734" lon="4.6598">
        <ele>322</ele>
        <time>2016-10-16T09:06:43Z</time>
      </trkpt>
      <trkpt lat="45.92734" lon="4.65967">
        <ele>322</ele>
        <time>2016-10-16T09:06:44Z</time>
      </trkpt>
      <trkpt lat="45.92734" lon="4.65955">
        <ele>322</ele>
        <time>2016-10-16T09:06:45Z</time>
      </trkpt>
      <trkpt lat="45.92733" lon="4.65942">
        <ele>321</ele>
        <time>2016-10-16T09:06:46Z</time>
      </trkpt>
      <trkpt lat="45.92733" lon="4.6593">
        <ele>321</ele>
        <time>2016-10-16T09:06:47Z</time>
      </trkpt>
      <trkpt lat="45.92733" lon="4.65917">
        <ele>319</ele>
        <time>2016-10-16T09:06:48Z</time>
      </trkpt>
      <trkpt lat="45.92732" lon="4.65904">
        <ele>319</ele>
        <time>2016-10-16T09:06:49Z</time>
      </trkpt>
      <trkpt lat="45.92731" lon="4.65892">
        <ele>319</ele>
        <time>2016-10-16T09:06:50Z</time>
      </trkpt>
      <trkpt lat="45.92731" lon="4.65879">
        <ele>318</ele>
        <time>2016-10-16T09:06:51Z</time>
      </trkpt>
      <trkpt lat="45.9273" lon="4.65867">
        <ele>318</ele>
        <time>2016-10-16T09:06:52Z</time>
      </trkpt>
      <trkpt lat="45.92729" lon="4.65855">
        <ele>317</ele>
        <time>2016-10-16T09:06:53Z</time>
      </trkpt>
      <trkpt lat="45.92727" lon="4.65843">
        <ele>317</ele>
        <time>2016-10-16T09:06:54Z</time>
      </trkpt>
      <trkpt lat="45.92726" lon="4.65831">
        <ele>315</ele>
        <time>2016-10-16T09:06:55Z</time>
      </trkpt>
      <trkpt lat="45.92725" lon="4.65819">
        <ele>315</ele>
        <time>2016-10-16T09:06:56Z</time>
      </trkpt>
      <trkpt lat="45.92723" lon="4.65807">
        <ele>315</ele>
        <time>2016-10-16T09:06:57Z</time>
      </trkpt>
      <trkpt lat="45.92722" lon="4.65795">
        <ele>315</ele>
        <time>2016-10-16T09:06:58Z</time>
      </trkpt>
      <trkpt lat="45.92721" lon="4.65783">
        <ele>314</ele>
        <time>2016-10-16T09:06:59Z</time>
      </trkpt>
      <trkpt lat="45.92719" lon="4.65771">
        <ele>314</ele>
        <time>2016-10-16T09:07:00Z</time>
      </trkpt>
      <trkpt lat="45.92717" lon="4.6576">
        <ele>314</ele>
        <time>2016-10-16T09:07:01Z</time>
      </trkpt>
      <trkpt lat="45.92715" lon="4.65748">
        <ele>311</ele>
        <time>2016-10-16T09:07:02Z</time>
      </trkpt>
      <trkpt lat="45.92712" lon="4.65736">
        <ele>311</ele>
        <time>2016-10-16T09:07:03Z</time>
      </trkpt>
      <trkpt lat="45.92711" lon="4.65725">
        <ele>310</ele>
        <time>2016-10-16T09:07:04Z</time>
      </trkpt>
      <trkpt lat="45.92709" lon="4.65715">
        <ele>310</ele>
        <time>2016-10-16T09:07:05Z</time>
      </trkpt>
      <trkpt lat="45.92708" lon="4.65706">
        <ele>310</ele>
        <time>2016-10-16T09:07:06Z</time>
      </trkpt>
      <trkpt lat="45.92707" lon="4.65698">
        <ele>309</ele>
        <time>2016-10-16T09:07:07Z</time>
      </trkpt>
      <trkpt lat="45.92706" lon="4.65691">
        <ele>309</ele>
        <time>2016-10-16T09:07:08Z</time>
      </trkpt>
      <trkpt lat="45.92705" lon="4.65684">
        <ele>309</ele>
        <time>2016-10-16T09:07:09Z</time>
      </trkpt>
      <trkpt lat="45.92704" lon="4.65671">
        <ele>309</ele>
        <time>2016-10-16T09:07:11Z</time>
      </trkpt>
      <trkpt lat="45.92704" lon="4.65666">
        <ele>305</ele>
        <time>2016-10-16T09:07:12Z</time>
      </trkpt>
      <trkpt lat="45.92704" lon="4.65654">
        <ele>304</ele>
        <time>2016-10-16T09:07:15Z</time>
      </trkpt>
      <trkpt lat="45.92703" lon="4.65649">
        <ele>304</ele>
        <time>2016-10-16T09:07:16Z</time>
      </trkpt>
      <trkpt lat="45.927" lon="4.65638">
        <ele>304</ele>
        <time>2016-10-16T09:07:18Z</time>
      </trkpt>
      <trkpt lat="45.92698" lon="4.65632">
        <ele>304</ele>
        <time>2016-10-16T09:07:19Z</time>
      </trkpt>
      <trkpt lat="45.92697" lon="4.65625">
        <ele>304</ele>
        <time>2016-10-16T09:07:20Z</time>
      </trkpt>
      <trkpt lat="45.92695" lon="4.65619">
        <ele>303</ele>
        <time>2016-10-16T09:07:21Z</time>
      </trkpt>
      <trkpt lat="45.92694" lon="4.65612">
        <ele>303</ele>
        <time>2016-10-16T09:07:22Z</time>
      </trkpt>
      <trkpt lat="45.92693" lon="4.65604">
        <ele>303</ele>
        <time>2016-10-16T09:07:23Z</time>
      </trkpt>
      <trkpt lat="45.92692" lon="4.65597">
        <ele>303</ele>
        <time>2016-10-16T09:07:24Z</time>
      </trkpt>
      <trkpt lat="45.92692" lon="4.6559">
        <ele>302</ele>
        <time>2016-10-16T09:07:25Z</time>
      </trkpt>
      <trkpt lat="45.92691" lon="4.65583">
        <ele>301</ele>
        <time>2016-10-16T09:07:26Z</time>
      </trkpt>
      <trkpt lat="45.9269" lon="4.65576">
        <ele>301</ele>
        <time>2016-10-16T09:07:27Z</time>
      </trkpt>
      <trkpt lat="45.92689" lon="4.65569">
        <ele>301</ele>
        <time>2016-10-16T09:07:28Z</time>
      </trkpt>
      <trkpt lat="45.92689" lon="4.65562">
        <ele>301</ele>
        <time>2016-10-16T09:07:29Z</time>
      </trkpt>
      <trkpt lat="45.92688" lon="4.65554">
        <ele>301</ele>
        <time>2016-10-16T09:07:30Z</time>
      </trkpt>
      <trkpt lat="45.92688" lon="4.65548">
        <ele>301</ele>
        <time>2016-10-16T09:07:31Z</time>
      </trkpt>
      <trkpt lat="45.92688" lon="4.65541">
        <ele>301</ele>
        <time>2016-10-16T09:07:32Z</time>
      </trkpt>
      <trkpt lat="45.92689" lon="4.65534">
        <ele>301</ele>
        <time>2016-10-16T09:07:33Z</time>
      </trkpt>
      <trkpt lat="45.92689" lon="4.65527">
        <ele>301</ele>
        <time>2016-10-16T09:07:34Z</time>
      </trkpt>
      <trkpt lat="45.9269" lon="4.6552">
        <ele>301</ele>
        <time>2016-10-16T09:07:35Z</time>
      </trkpt>
      <trkpt lat="45.9269" lon="4.65513">
        <ele>302</ele>
        <time>2016-10-16T09:07:36Z</time>
      </trkpt>
      <trkpt lat="45.92691" lon="4.65506">
        <ele>302</ele>
        <time>2016-10-16T09:07:37Z</time>
      </trkpt>
      <trkpt lat="45.92692" lon="4.65498">
        <ele>303</ele>
        <time>2016-10-16T09:07:38Z</time>
      </trkpt>
      <trkpt lat="45.92693" lon="4.65491">
        <ele>303</ele>
        <time>2016-10-16T09:07:39Z</time>
      </trkpt>
      <trkpt lat="45.92695" lon="4.65484">
        <ele>303</ele>
        <time>2016-10-16T09:07:40Z</time>
      </trkpt>
      <trkpt lat="45.92696" lon="4.65478">
        <ele>303</ele>
        <time>2016-10-16T09:07:41Z</time>
      </trkpt>
      <trkpt lat="45.92697" lon="4.65471">
        <ele>303</ele>
        <time>2016-10-16T09:07:42Z</time>
      </trkpt>
      <trkpt lat="45.92698" lon="4.65465">
        <ele>303</ele>
        <time>2016-10-16T09:07:43Z</time>
      </trkpt>
      <trkpt lat="45.92702" lon="4.65454">
        <ele>303</ele>
        <time>2016-10-16T09:07:45Z</time>
      </trkpt>
      <trkpt lat="45.92703" lon="4.65449">
        <ele>303</ele>
        <time>2016-10-16T09:07:46Z</time>
      </trkpt>
      <trkpt lat="45.92705" lon="4.65443">
        <ele>303</ele>
        <time>2016-10-16T09:07:47Z</time>
      </trkpt>
      <trkpt lat="45.92707" lon="4.65436">
        <ele>303</ele>
        <time>2016-10-16T09:07:48Z</time>
      </trkpt>
      <trkpt lat="45.92709" lon="4.65429">
        <ele>303</ele>
        <time>2016-10-16T09:07:49Z</time>
      </trkpt>
      <trkpt lat="45.92711" lon="4.65423">
        <ele>303</ele>
        <time>2016-10-16T09:07:50Z</time>
      </trkpt>
      <trkpt lat="45.92713" lon="4.65416">
        <ele>304</ele>
        <time>2016-10-16T09:07:51Z</time>
      </trkpt>
      <trkpt lat="45.92715" lon="4.6541">
        <ele>304</ele>
        <time>2016-10-16T09:07:52Z</time>
      </trkpt>
      <trkpt lat="45.92717" lon="4.65399">
        <ele>304</ele>
        <time>2016-10-16T09:07:54Z</time>
      </trkpt>
      <trkpt lat="45.92719" lon="4.65394">
        <ele>304</ele>
        <time>2016-10-16T09:07:55Z</time>
      </trkpt>
      <trkpt lat="45.92721" lon="4.65383">
        <ele>304</ele>
        <time>2016-10-16T09:07:57Z</time>
      </trkpt>
      <trkpt lat="45.92722" lon="4.65377">
        <ele>304</ele>
        <time>2016-10-16T09:07:58Z</time>
      </trkpt>
      <trkpt lat="45.92725" lon="4.65367">
        <ele>305</ele>
        <time>2016-10-16T09:08:00Z</time>
      </trkpt>
      <trkpt lat="45.92727" lon="4.65361">
        <ele>305</ele>
        <time>2016-10-16T09:08:01Z</time>
      </trkpt>
      <trkpt lat="45.92729" lon="4.65349">
        <ele>305</ele>
        <time>2016-10-16T09:08:03Z</time>
      </trkpt>
      <trkpt lat="45.9273" lon="4.65344">
        <ele>305</ele>
        <time>2016-10-16T09:08:04Z</time>
      </trkpt>
      <trkpt lat="45.92733" lon="4.65332">
        <ele>305</ele>
        <time>2016-10-16T09:08:06Z</time>
      </trkpt>
      <trkpt lat="45.92735" lon="4.65326">
        <ele>305</ele>
        <time>2016-10-16T09:08:07Z</time>
      </trkpt>
      <trkpt lat="45.92738" lon="4.65316">
        <ele>306</ele>
        <time>2016-10-16T09:08:09Z</time>
      </trkpt>
      <trkpt lat="45.92739" lon="4.65311">
        <ele>306</ele>
        <time>2016-10-16T09:08:10Z</time>
      </trkpt>
      <trkpt lat="45.92742" lon="4.653">
        <ele>306</ele>
        <time>2016-10-16T09:08:12Z</time>
      </trkpt>
      <trkpt lat="45.92743" lon="4.65295">
        <ele>306</ele>
        <time>2016-10-16T09:08:13Z</time>
      </trkpt>
      <trkpt lat="45.92746" lon="4.65284">
        <ele>306</ele>
        <time>2016-10-16T09:08:15Z</time>
      </trkpt>
      <trkpt lat="45.92747" lon="4.65278">
        <ele>306</ele>
        <time>2016-10-16T09:08:16Z</time>
      </trkpt>
      <trkpt lat="45.9275" lon="4.65267">
        <ele>307</ele>
        <time>2016-10-16T09:08:18Z</time>
      </trkpt>
      <trkpt lat="45.92752" lon="4.65261">
        <ele>307</ele>
        <time>2016-10-16T09:08:19Z</time>
      </trkpt>
      <trkpt lat="45.92754" lon="4.65251">
        <ele>307</ele>
        <time>2016-10-16T09:08:21Z</time>
      </trkpt>
      <trkpt lat="45.92755" lon="4.65245">
        <ele>307</ele>
        <time>2016-10-16T09:08:22Z</time>
      </trkpt>
      <trkpt lat="45.92757" lon="4.65235">
        <ele>308</ele>
        <time>2016-10-16T09:08:24Z</time>
      </trkpt>
      <trkpt lat="45.92758" lon="4.65231">
        <ele>308</ele>
        <time>2016-10-16T09:08:25Z</time>
      </trkpt>
      <trkpt lat="45.92761" lon="4.65222">
        <ele>308</ele>
        <time>2016-10-16T09:08:27Z</time>
      </trkpt>
      <trkpt lat="45.92762" lon="4.65217">
        <ele>308</ele>
        <time>2016-10-16T09:08:28Z</time>
      </trkpt>
      <trkpt lat="45.92765" lon="4.65208">
        <ele>308</ele>
        <time>2016-10-16T09:08:30Z</time>
      </trkpt>
      <trkpt lat="45.92767" lon="4.65204">
        <ele>308</ele>
        <time>2016-10-16T09:08:31Z</time>
      </trkpt>
      <trkpt lat="45.92769" lon="4.65194">
        <ele>308</ele>
        <time>2016-10-16T09:08:33Z</time>
      </trkpt>
      <trkpt lat="45.92771" lon="4.6519">
        <ele>308</ele>
        <time>2016-10-16T09:08:34Z</time>
      </trkpt>
      <trkpt lat="45.92775" lon="4.65181">
        <ele>309</ele>
        <time>2016-10-16T09:08:36Z</time>
      </trkpt>
      <trkpt lat="45.92777" lon="4.65177">
        <ele>309</ele>
        <time>2016-10-16T09:08:37Z</time>
      </trkpt>
      <trkpt lat="45.92781" lon="4.65167">
        <ele>310</ele>
        <time>2016-10-16T09:08:39Z</time>
      </trkpt>
      <trkpt lat="45.92782" lon="4.65162">
        <ele>310</ele>
        <time>2016-10-16T09:08:40Z</time>
      </trkpt>
      <trkpt lat="45.92785" lon="4.65153">
        <ele>310</ele>
        <time>2016-10-16T09:08:42Z</time>
      </trkpt>
      <trkpt lat="45.92787" lon="4.65148">
        <ele>310</ele>
        <time>2016-10-16T09:08:43Z</time>
      </trkpt>
      <trkpt lat="45.9279" lon="4.6514">
        <ele>310</ele>
        <time>2016-10-16T09:08:45Z</time>
      </trkpt>
      <trkpt lat="45.92792" lon="4.65136">
        <ele>310</ele>
        <time>2016-10-16T09:08:46Z</time>
      </trkpt>
      <trkpt lat="45.92795" lon="4.65127">
        <ele>310</ele>
        <time>2016-10-16T09:08:48Z</time>
      </trkpt>
      <trkpt lat="45.92797" lon="4.65123">
        <ele>311</ele>
        <time>2016-10-16T09:08:49Z</time>
      </trkpt>
      <trkpt lat="45.928" lon="4.65113">
        <ele>311</ele>
        <time>2016-10-16T09:08:51Z</time>
      </trkpt>
      <trkpt lat="45.92801" lon="4.65109">
        <ele>311</ele>
        <time>2016-10-16T09:08:52Z</time>
      </trkpt>
      <trkpt lat="45.92803" lon="4.65099">
        <ele>311</ele>
        <time>2016-10-16T09:08:54Z</time>
      </trkpt>
      <trkpt lat="45.92804" lon="4.65094">
        <ele>311</ele>
        <time>2016-10-16T09:08:55Z</time>
      </trkpt>
      <trkpt lat="45.92806" lon="4.65084">
        <ele>311</ele>
        <time>2016-10-16T09:08:57Z</time>
      </trkpt>
      <trkpt lat="45.92807" lon="4.65079">
        <ele>313</ele>
        <time>2016-10-16T09:08:58Z</time>
      </trkpt>
      <trkpt lat="45.92809" lon="4.6507">
        <ele>313</ele>
        <time>2016-10-16T09:09:00Z</time>
      </trkpt>
      <trkpt lat="45.9281" lon="4.65065">
        <ele>313</ele>
        <time>2016-10-16T09:09:01Z</time>
      </trkpt>
      <trkpt lat="45.92811" lon="4.65056">
        <ele>314</ele>
        <time>2016-10-16T09:09:03Z</time>
      </trkpt>
      <trkpt lat="45.92812" lon="4.6505">
        <ele>314</ele>
        <time>2016-10-16T09:09:04Z</time>
      </trkpt>
      <trkpt lat="45.92813" lon="4.65038">
        <ele>314</ele>
        <time>2016-10-16T09:09:06Z</time>
      </trkpt>
      <trkpt lat="45.92814" lon="4.65033">
        <ele>315</ele>
        <time>2016-10-16T09:09:07Z</time>
      </trkpt>
      <trkpt lat="45.92814" lon="4.65021">
        <ele>315</ele>
        <time>2016-10-16T09:09:09Z</time>
      </trkpt>
      <trkpt lat="45.92814" lon="4.65015">
        <ele>315</ele>
        <time>2016-10-16T09:09:10Z</time>
      </trkpt>
      <trkpt lat="45.92815" lon="4.65004">
        <ele>316</ele>
        <time>2016-10-16T09:09:12Z</time>
      </trkpt>
      <trkpt lat="45.92816" lon="4.64998">
        <ele>317</ele>
        <time>2016-10-16T09:09:13Z</time>
      </trkpt>
      <trkpt lat="45.92817" lon="4.64989">
        <ele>317</ele>
        <time>2016-10-16T09:09:15Z</time>
      </trkpt>
      <trkpt lat="45.92817" lon="4.64983">
        <ele>317</ele>
        <time>2016-10-16T09:09:16Z</time>
      </trkpt>
      <trkpt lat="45.92817" lon="4.64972">
        <ele>317</ele>
        <time>2016-10-16T09:09:18Z</time>
      </trkpt>
      <trkpt lat="45.92817" lon="4.64966">
        <ele>317</ele>
        <time>2016-10-16T09:09:19Z</time>
      </trkpt>
      <trkpt lat="45.92817" lon="4.64955">
        <ele>316</ele>
        <time>2016-10-16T09:09:21Z</time>
      </trkpt>
      <trkpt lat="45.92817" lon="4.64949">
        <ele>316</ele>
        <time>2016-10-16T09:09:22Z</time>
      </trkpt>
      <trkpt lat="45.92818" lon="4.64938">
        <ele>316</ele>
        <time>2016-10-16T09:09:24Z</time>
      </trkpt>
      <trkpt lat="45.92818" lon="4.64933">
        <ele>316</ele>
        <time>2016-10-16T09:09:25Z</time>
      </trkpt>
      <trkpt lat="45.92817" lon="4.64924">
        <ele>316</ele>
        <time>2016-10-16T09:09:27Z</time>
      </trkpt>
      <trkpt lat="45.92817" lon="4.6492">
        <ele>316</ele>
        <time>2016-10-16T09:09:28Z</time>
      </trkpt>
      <trkpt lat="45.92818" lon="4.64911">
        <ele>316</ele>
        <time>2016-10-16T09:09:30Z</time>
      </trkpt>
      <trkpt lat="45.92817" lon="4.64906">
        <ele>316</ele>
        <time>2016-10-16T09:09:31Z</time>
      </trkpt>
      <trkpt lat="45.92817" lon="4.64897">
        <ele>316</ele>
        <time>2016-10-16T09:09:33Z</time>
      </trkpt>
      <trkpt lat="45.92818" lon="4.64893">
        <ele>316</ele>
        <time>2016-10-16T09:09:34Z</time>
      </trkpt>
      <trkpt lat="45.92818" lon="4.64883">
        <ele>316</ele>
        <time>2016-10-16T09:09:36Z</time>
      </trkpt>
      <trkpt lat="45.92818" lon="4.64877">
        <ele>316</ele>
        <time>2016-10-16T09:09:37Z</time>
      </trkpt>
      <trkpt lat="45.92819" lon="4.64867">
        <ele>316</ele>
        <time>2016-10-16T09:09:39Z</time>
      </trkpt>
      <trkpt lat="45.92819" lon="4.64862">
        <ele>316</ele>
        <time>2016-10-16T09:09:40Z</time>
      </trkpt>
      <trkpt lat="45.92819" lon="4.64851">
        <ele>317</ele>
        <time>2016-10-16T09:09:42Z</time>
      </trkpt>
      <trkpt lat="45.92818" lon="4.64846">
        <ele>317</ele>
        <time>2016-10-16T09:09:43Z</time>
      </trkpt>
      <trkpt lat="45.92817" lon="4.64835">
        <ele>317</ele>
        <time>2016-10-16T09:09:45Z</time>
      </trkpt>
      <trkpt lat="45.92817" lon="4.6483">
        <ele>317</ele>
        <time>2016-10-16T09:09:46Z</time>
      </trkpt>
      <trkpt lat="45.92817" lon="4.64819">
        <ele>318</ele>
        <time>2016-10-16T09:09:48Z</time>
      </trkpt>
      <trkpt lat="45.92818" lon="4.64814">
        <ele>318</ele>
        <time>2016-10-16T09:09:49Z</time>
      </trkpt>
      <trkpt lat="45.92818" lon="4.64803">
        <ele>318</ele>
        <time>2016-10-16T09:09:51Z</time>
      </trkpt>
      <trkpt lat="45.92818" lon="4.64797">
        <ele>318</ele>
        <time>2016-10-16T09:09:52Z</time>
      </trkpt>
      <trkpt lat="45.92818" lon="4.64787">
        <ele>318</ele>
        <time>2016-10-16T09:09:54Z</time>
      </trkpt>
      <trkpt lat="45.92819" lon="4.64782">
        <ele>318</ele>
        <time>2016-10-16T09:09:55Z</time>
      </trkpt>
      <trkpt lat="45.92818" lon="4.64771">
        <ele>319</ele>
        <time>2016-10-16T09:09:57Z</time>
      </trkpt>
      <trkpt lat="45.92818" lon="4.64766">
        <ele>319</ele>
        <time>2016-10-16T09:09:58Z</time>
      </trkpt>
      <trkpt lat="45.92818" lon="4.64755">
        <ele>319</ele>
        <time>2016-10-16T09:10:00Z</time>
      </trkpt>
      <trkpt lat="45.92819" lon="4.64749">
        <ele>319</ele>
        <time>2016-10-16T09:10:01Z</time>
      </trkpt>
      <trkpt lat="45.92819" lon="4.64738">
        <ele>319</ele>
        <time>2016-10-16T09:10:03Z</time>
      </trkpt>
      <trkpt lat="45.92819" lon="4.64733">
        <ele>319</ele>
        <time>2016-10-16T09:10:04Z</time>
      </trkpt>
      <trkpt lat="45.92819" lon="4.64722">
        <ele>320</ele>
        <time>2016-10-16T09:10:06Z</time>
      </trkpt>
      <trkpt lat="45.92819" lon="4.64717">
        <ele>320</ele>
        <time>2016-10-16T09:10:07Z</time>
      </trkpt>
      <trkpt lat="45.92818" lon="4.64705">
        <ele>320</ele>
        <time>2016-10-16T09:10:09Z</time>
      </trkpt>
      <trkpt lat="45.92818" lon="4.647">
        <ele>320</ele>
        <time>2016-10-16T09:10:10Z</time>
      </trkpt>
      <trkpt lat="45.92818" lon="4.64689">
        <ele>319</ele>
        <time>2016-10-16T09:10:12Z</time>
      </trkpt>
      <trkpt lat="45.92818" lon="4.64683">
        <ele>319</ele>
        <time>2016-10-16T09:10:13Z</time>
      </trkpt>
      <trkpt lat="45.92818" lon="4.64672">
        <ele>319</ele>
        <time>2016-10-16T09:10:15Z</time>
      </trkpt>
      <trkpt lat="45.92817" lon="4.64667">
        <ele>319</ele>
        <time>2016-10-16T09:10:16Z</time>
      </trkpt>
      <trkpt lat="45.92818" lon="4.64657">
        <ele>320</ele>
        <time>2016-10-16T09:10:18Z</time>
      </trkpt>
      <trkpt lat="45.92819" lon="4.64652">
        <ele>320</ele>
        <time>2016-10-16T09:10:19Z</time>
      </trkpt>
      <trkpt lat="45.92819" lon="4.64644">
        <ele>320</ele>
        <time>2016-10-16T09:10:21Z</time>
      </trkpt>
      <trkpt lat="45.92818" lon="4.64639">
        <ele>320</ele>
        <time>2016-10-16T09:10:22Z</time>
      </trkpt>
      <trkpt lat="45.92818" lon="4.64629">
        <ele>320</ele>
        <time>2016-10-16T09:10:24Z</time>
      </trkpt>
      <trkpt lat="45.92817" lon="4.64623">
        <ele>320</ele>
        <time>2016-10-16T09:10:25Z</time>
      </trkpt>
      <trkpt lat="45.92817" lon="4.64612">
        <ele>320</ele>
        <time>2016-10-16T09:10:27Z</time>
      </trkpt>
      <trkpt lat="45.92816" lon="4.64607">
        <ele>320</ele>
        <time>2016-10-16T09:10:28Z</time>
      </trkpt>
      <trkpt lat="45.92816" lon="4.64597">
        <ele>321</ele>
        <time>2016-10-16T09:10:30Z</time>
      </trkpt>
      <trkpt lat="45.92816" lon="4.64592">
        <ele>321</ele>
        <time>2016-10-16T09:10:31Z</time>
      </trkpt>
      <trkpt lat="45.92817" lon="4.64583">
        <ele>321</ele>
        <time>2016-10-16T09:10:33Z</time>
      </trkpt>
      <trkpt lat="45.92818" lon="4.64578">
        <ele>321</ele>
        <time>2016-10-16T09:10:34Z</time>
      </trkpt>
      <trkpt lat="45.92818" lon="4.64566">
        <ele>321</ele>
        <time>2016-10-16T09:10:36Z</time>
      </trkpt>
      <trkpt lat="45.92817" lon="4.6456">
        <ele>321</ele>
        <time>2016-10-16T09:10:37Z</time>
      </trkpt>
      <trkpt lat="45.92817" lon="4.64548">
        <ele>322</ele>
        <time>2016-10-16T09:10:39Z</time>
      </trkpt>
      <trkpt lat="45.92817" lon="4.64542">
        <ele>322</ele>
        <time>2016-10-16T09:10:40Z</time>
      </trkpt>
      <trkpt lat="45.92817" lon="4.64531">
        <ele>322</ele>
        <time>2016-10-16T09:10:42Z</time>
      </trkpt>
      <trkpt lat="45.92817" lon="4.64525">
        <ele>322</ele>
        <time>2016-10-16T09:10:43Z</time>
      </trkpt>
      <trkpt lat="45.92819" lon="4.64516">
        <ele>322</ele>
        <time>2016-10-16T09:10:45Z</time>
      </trkpt>
      <trkpt lat="45.92821" lon="4.64514">
        <ele>322</ele>
        <time>2016-10-16T09:10:46Z</time>
      </trkpt>
      <trkpt lat="45.92829" lon="4.6451">
        <ele>322</ele>
        <time>2016-10-16T09:10:50Z</time>
      </trkpt>
      <trkpt lat="45.92832" lon="4.6451">
        <ele>322</ele>
        <time>2016-10-16T09:10:51Z</time>
      </trkpt>
      <trkpt lat="45.92836" lon="4.64502">
        <ele>322</ele>
        <time>2016-10-16T09:10:53Z</time>
      </trkpt>
      <trkpt lat="45.92837" lon="4.64496">
        <ele>322</ele>
        <time>2016-10-16T09:10:54Z</time>
      </trkpt>
      <trkpt lat="45.92839" lon="4.64485">
        <ele>323</ele>
        <time>2016-10-16T09:10:56Z</time>
      </trkpt>
      <trkpt lat="45.92838" lon="4.6448">
        <ele>323</ele>
        <time>2016-10-16T09:10:57Z</time>
      </trkpt>
      <trkpt lat="45.92834" lon="4.64471">
        <ele>324</ele>
        <time>2016-10-16T09:10:59Z</time>
      </trkpt>
      <trkpt lat="45.92831" lon="4.64468">
        <ele>324</ele>
        <time>2016-10-16T09:11:00Z</time>
      </trkpt>
      <trkpt lat="45.92825" lon="4.64461">
        <ele>324</ele>
        <time>2016-10-16T09:11:02Z</time>
      </trkpt>
      <trkpt lat="45.92824" lon="4.64457">
        <ele>324</ele>
        <time>2016-10-16T09:11:03Z</time>
      </trkpt>
      <trkpt lat="45.92821" lon="4.64446">
        <ele>325</ele>
        <time>2016-10-16T09:11:05Z</time>
      </trkpt>
      <trkpt lat="45.92819" lon="4.6444">
        <ele>325</ele>
        <time>2016-10-16T09:11:06Z</time>
      </trkpt>
      <trkpt lat="45.92818" lon="4.64431">
        <ele>325</ele>
        <time>2016-10-16T09:11:08Z</time>
      </trkpt>
      <trkpt lat="45.92818" lon="4.64425">
        <ele>325</ele>
        <time>2016-10-16T09:11:09Z</time>
      </trkpt>
      <trkpt lat="45.92818" lon="4.64415">
        <ele>327</ele>
        <time>2016-10-16T09:11:11Z</time>
      </trkpt>
      <trkpt lat="45.92819" lon="4.64411">
        <ele>326</ele>
        <time>2016-10-16T09:11:12Z</time>
      </trkpt>
      <trkpt lat="45.92818" lon="4.64401">
        <ele>326</ele>
        <time>2016-10-16T09:11:14Z</time>
      </trkpt>
      <trkpt lat="45.92819" lon="4.64397">
        <ele>326</ele>
        <time>2016-10-16T09:11:15Z</time>
      </trkpt>
      <trkpt lat="45.92819" lon="4.64388">
        <ele>326</ele>
        <time>2016-10-16T09:11:17Z</time>
      </trkpt>
      <trkpt lat="45.9282" lon="4.64384">
        <ele>326</ele>
        <time>2016-10-16T09:11:18Z</time>
      </trkpt>
      <trkpt lat="45.92821" lon="4.64373">
        <ele>326</ele>
        <time>2016-10-16T09:11:20Z</time>
      </trkpt>
      <trkpt lat="45.92822" lon="4.64367">
        <ele>327</ele>
        <time>2016-10-16T09:11:21Z</time>
      </trkpt>
      <trkpt lat="45.92824" lon="4.64357">
        <ele>327</ele>
        <time>2016-10-16T09:11:23Z</time>
      </trkpt>
      <trkpt lat="45.92825" lon="4.64351">
        <ele>327</ele>
        <time>2016-10-16T09:11:24Z</time>
      </trkpt>
      <trkpt lat="45.92827" lon="4.64341">
        <ele>327</ele>
        <time>2016-10-16T09:11:26Z</time>
      </trkpt>
      <trkpt lat="45.92828" lon="4.64336">
        <ele>328</ele>
        <time>2016-10-16T09:11:27Z</time>
      </trkpt>
      <trkpt lat="45.9283" lon="4.64327">
        <ele>328</ele>
        <time>2016-10-16T09:11:29Z</time>
      </trkpt>
      <trkpt lat="45.9283" lon="4.64322">
        <ele>327</ele>
        <time>2016-10-16T09:11:30Z</time>
      </trkpt>
      <trkpt lat="45.92833" lon="4.6431">
        <ele>327</ele>
        <time>2016-10-16T09:11:32Z</time>
      </trkpt>
      <trkpt lat="45.92833" lon="4.64305">
        <ele>327</ele>
        <time>2016-10-16T09:11:33Z</time>
      </trkpt>
      <trkpt lat="45.92835" lon="4.64299">
        <ele>326</ele>
        <time>2016-10-16T09:11:34Z</time>
      </trkpt>
      <trkpt lat="45.92836" lon="4.64291">
        <ele>326</ele>
        <time>2016-10-16T09:11:35Z</time>
      </trkpt>
      <trkpt lat="45.92837" lon="4.6428">
        <ele>326</ele>
        <time>2016-10-16T09:11:37Z</time>
      </trkpt>
      <trkpt lat="45.92837" lon="4.64275">
        <ele>326</ele>
        <time>2016-10-16T09:11:38Z</time>
      </trkpt>
      <trkpt lat="45.92839" lon="4.64265">
        <ele>326</ele>
        <time>2016-10-16T09:11:40Z</time>
      </trkpt>
      <trkpt lat="45.9284" lon="4.6426">
        <ele>326</ele>
        <time>2016-10-16T09:11:41Z</time>
      </trkpt>
      <trkpt lat="45.92842" lon="4.6425">
        <ele>326</ele>
        <time>2016-10-16T09:11:43Z</time>
      </trkpt>
      <trkpt lat="45.92843" lon="4.64245">
        <ele>325</ele>
        <time>2016-10-16T09:11:44Z</time>
      </trkpt>
      <trkpt lat="45.92844" lon="4.64239">
        <ele>324</ele>
        <time>2016-10-16T09:11:45Z</time>
      </trkpt>
      <trkpt lat="45.92846" lon="4.64231">
        <ele>324</ele>
        <time>2016-10-16T09:11:46Z</time>
      </trkpt>
      <trkpt lat="45.92849" lon="4.64226">
        <ele>324</ele>
        <time>2016-10-16T09:11:47Z</time>
      </trkpt>
      <trkpt lat="45.92851" lon="4.64219">
        <ele>323</ele>
        <time>2016-10-16T09:11:48Z</time>
      </trkpt>
      <trkpt lat="45.92853" lon="4.64212">
        <ele>323</ele>
        <time>2016-10-16T09:11:49Z</time>
      </trkpt>
      <trkpt lat="45.92854" lon="4.64206">
        <ele>323</ele>
        <time>2016-10-16T09:11:50Z</time>
      </trkpt>
      <trkpt lat="45.92854" lon="4.64193">
        <ele>323</ele>
        <time>2016-10-16T09:11:52Z</time>
      </trkpt>
      <trkpt lat="45.92855" lon="4.64187">
        <ele>323</ele>
        <time>2016-10-16T09:11:53Z</time>
      </trkpt>
      <trkpt lat="45.92855" lon="4.64174">
        <ele>322</ele>
        <time>2016-10-16T09:11:55Z</time>
      </trkpt>
      <trkpt lat="45.92856" lon="4.64167">
        <ele>322</ele>
        <time>2016-10-16T09:11:56Z</time>
      </trkpt>
      <trkpt lat="45.92855" lon="4.64161">
        <ele>322</ele>
        <time>2016-10-16T09:11:57Z</time>
      </trkpt>
      <trkpt lat="45.92854" lon="4.64154">
        <ele>321</ele>
        <time>2016-10-16T09:11:58Z</time>
      </trkpt>
      <trkpt lat="45.92853" lon="4.64146">
        <ele>321</ele>
        <time>2016-10-16T09:11:59Z</time>
      </trkpt>
      <trkpt lat="45.92853" lon="4.64139">
        <ele>321</ele>
        <time>2016-10-16T09:12:00Z</time>
      </trkpt>
      <trkpt lat="45.92852" lon="4.64131">
        <ele>321</ele>
        <time>2016-10-16T09:12:01Z</time>
      </trkpt>
      <trkpt lat="45.92852" lon="4.64124">
        <ele>321</ele>
        <time>2016-10-16T09:12:02Z</time>
      </trkpt>
      <trkpt lat="45.92851" lon="4.64111">
        <ele>321</ele>
        <time>2016-10-16T09:12:04Z</time>
      </trkpt>
      <trkpt lat="45.92851" lon="4.64104">
        <ele>322</ele>
        <time>2016-10-16T09:12:05Z</time>
      </trkpt>
      <trkpt lat="45.92851" lon="4.64096">
        <ele>322</ele>
        <time>2016-10-16T09:12:06Z</time>
      </trkpt>
      <trkpt lat="45.92852" lon="4.6409">
        <ele>322</ele>
        <time>2016-10-16T09:12:07Z</time>
      </trkpt>
      <trkpt lat="45.92852" lon="4.64077">
        <ele>323</ele>
        <time>2016-10-16T09:12:09Z</time>
      </trkpt>
      <trkpt lat="45.92852" lon="4.64071">
        <ele>323</ele>
        <time>2016-10-16T09:12:10Z</time>
      </trkpt>
      <trkpt lat="45.92852" lon="4.64059">
        <ele>323</ele>
        <time>2016-10-16T09:12:12Z</time>
      </trkpt>
      <trkpt lat="45.92852" lon="4.64054">
        <ele>324</ele>
        <time>2016-10-16T09:12:13Z</time>
      </trkpt>
      <trkpt lat="45.92852" lon="4.64043">
        <ele>324</ele>
        <time>2016-10-16T09:12:15Z</time>
      </trkpt>
      <trkpt lat="45.92851" lon="4.64037">
        <ele>324</ele>
        <time>2016-10-16T09:12:16Z</time>
      </trkpt>
      <trkpt lat="45.9285" lon="4.64027">
        <ele>324</ele>
        <time>2016-10-16T09:12:18Z</time>
      </trkpt>
      <trkpt lat="45.9285" lon="4.64022">
        <ele>325</ele>
        <time>2016-10-16T09:12:19Z</time>
      </trkpt>
      <trkpt lat="45.92847" lon="4.64013">
        <ele>325</ele>
        <time>2016-10-16T09:12:21Z</time>
      </trkpt>
      <trkpt lat="45.92845" lon="4.64009">
        <ele>326</ele>
        <time>2016-10-16T09:12:22Z</time>
      </trkpt>
      <trkpt lat="45.92843" lon="4.64">
        <ele>327</ele>
        <time>2016-10-16T09:12:24Z</time>
      </trkpt>
      <trkpt lat="45.92842" lon="4.63996">
        <ele>327</ele>
        <time>2016-10-16T09:12:25Z</time>
      </trkpt>
      <trkpt lat="45.9284" lon="4.63987">
        <ele>327</ele>
        <time>2016-10-16T09:12:27Z</time>
      </trkpt>
      <trkpt lat="45.9284" lon="4.63982">
        <ele>327</ele>
        <time>2016-10-16T09:12:28Z</time>
      </trkpt>
      <trkpt lat="45.9284" lon="4.63972">
        <ele>327</ele>
        <time>2016-10-16T09:12:30Z</time>
      </trkpt>
      <trkpt lat="45.92839" lon="4.63968">
        <ele>327</ele>
        <time>2016-10-16T09:12:31Z</time>
      </trkpt>
      <trkpt lat="45.92839" lon="4.63955">
        <ele>327</ele>
        <time>2016-10-16T09:12:34Z</time>
      </trkpt>
      <trkpt lat="45.92839" lon="4.63951">
        <ele>327</ele>
        <time>2016-10-16T09:12:35Z</time>
      </trkpt>
      <trkpt lat="45.9284" lon="4.63942">
        <ele>327</ele>
        <time>2016-10-16T09:12:37Z</time>
      </trkpt>
      <trkpt lat="45.92841" lon="4.63938">
        <ele>327</ele>
        <time>2016-10-16T09:12:38Z</time>
      </trkpt>
      <trkpt lat="45.92844" lon="4.6393">
        <ele>327</ele>
        <time>2016-10-16T09:12:40Z</time>
      </trkpt>
      <trkpt lat="45.92845" lon="4.63925">
        <ele>327</ele>
        <time>2016-10-16T09:12:41Z</time>
      </trkpt>
      <trkpt lat="45.92849" lon="4.63916">
        <ele>328</ele>
        <time>2016-10-16T09:12:43Z</time>
      </trkpt>
      <trkpt lat="45.9285" lon="4.63911">
        <ele>327</ele>
        <time>2016-10-16T09:12:44Z</time>
      </trkpt>
      <trkpt lat="45.92854" lon="4.63902">
        <ele>327</ele>
        <time>2016-10-16T09:12:46Z</time>
      </trkpt>
      <trkpt lat="45.92856" lon="4.63896">
        <ele>327</ele>
        <time>2016-10-16T09:12:47Z</time>
      </trkpt>
      <trkpt lat="45.92859" lon="4.63886">
        <ele>327</ele>
        <time>2016-10-16T09:12:49Z</time>
      </trkpt>
      <trkpt lat="45.9286" lon="4.6388">
        <ele>327</ele>
        <time>2016-10-16T09:12:50Z</time>
      </trkpt>
      <trkpt lat="45.92864" lon="4.6387">
        <ele>327</ele>
        <time>2016-10-16T09:12:52Z</time>
      </trkpt>
      <trkpt lat="45.92866" lon="4.63865">
        <ele>327</ele>
        <time>2016-10-16T09:12:53Z</time>
      </trkpt>
      <trkpt lat="45.9287" lon="4.63854">
        <ele>327</ele>
        <time>2016-10-16T09:12:55Z</time>
      </trkpt>
      <trkpt lat="45.92872" lon="4.63848">
        <ele>327</ele>
        <time>2016-10-16T09:12:56Z</time>
      </trkpt>
      <trkpt lat="45.92873" lon="4.63842">
        <ele>327</ele>
        <time>2016-10-16T09:12:57Z</time>
      </trkpt>
      <trkpt lat="45.92875" lon="4.63836">
        <ele>327</ele>
        <time>2016-10-16T09:12:58Z</time>
      </trkpt>
      <trkpt lat="45.92876" lon="4.63829">
        <ele>326</ele>
        <time>2016-10-16T09:12:59Z</time>
      </trkpt>
      <trkpt lat="45.92877" lon="4.63822">
        <ele>326</ele>
        <time>2016-10-16T09:13:00Z</time>
      </trkpt>
      <trkpt lat="45.92878" lon="4.63815">
        <ele>326</ele>
        <time>2016-10-16T09:13:01Z</time>
      </trkpt>
      <trkpt lat="45.92878" lon="4.63807">
        <ele>326</ele>
        <time>2016-10-16T09:13:02Z</time>
      </trkpt>
      <trkpt lat="45.92877" lon="4.63797">
        <ele>326</ele>
        <time>2016-10-16T09:13:03Z</time>
      </trkpt>
      <trkpt lat="45.92877" lon="4.63788">
        <ele>326</ele>
        <time>2016-10-16T09:13:04Z</time>
      </trkpt>
      <trkpt lat="45.92876" lon="4.63779">
        <ele>326</ele>
        <time>2016-10-16T09:13:05Z</time>
      </trkpt>
      <trkpt lat="45.92875" lon="4.6377">
        <ele>326</ele>
        <time>2016-10-16T09:13:06Z</time>
      </trkpt>
      <trkpt lat="45.92874" lon="4.6376">
        <ele>326</ele>
        <time>2016-10-16T09:13:07Z</time>
      </trkpt>
      <trkpt lat="45.92872" lon="4.63752">
        <ele>326</ele>
        <time>2016-10-16T09:13:08Z</time>
      </trkpt>
      <trkpt lat="45.92868" lon="4.63744">
        <ele>326</ele>
        <time>2016-10-16T09:13:09Z</time>
      </trkpt>
      <trkpt lat="45.92864" lon="4.63738">
        <ele>327</ele>
        <time>2016-10-16T09:13:10Z</time>
      </trkpt>
      <trkpt lat="45.9286" lon="4.63734">
        <ele>327</ele>
        <time>2016-10-16T09:13:11Z</time>
      </trkpt>
      <trkpt lat="45.92856" lon="4.63731">
        <ele>327</ele>
        <time>2016-10-16T09:13:12Z</time>
      </trkpt>
      <trkpt lat="45.92851" lon="4.63723">
        <ele>327</ele>
        <time>2016-10-16T09:13:14Z</time>
      </trkpt>
      <trkpt lat="45.92849" lon="4.63719">
        <ele>327</ele>
        <time>2016-10-16T09:13:15Z</time>
      </trkpt>
      <trkpt lat="45.92844" lon="4.63712">
        <ele>327</ele>
        <time>2016-10-16T09:13:17Z</time>
      </trkpt>
      <trkpt lat="45.92842" lon="4.63709">
        <ele>327</ele>
        <time>2016-10-16T09:13:18Z</time>
      </trkpt>
      <trkpt lat="45.92837" lon="4.63702">
        <ele>328</ele>
        <time>2016-10-16T09:13:20Z</time>
      </trkpt>
      <trkpt lat="45.92835" lon="4.63698">
        <ele>328</ele>
        <time>2016-10-16T09:13:21Z</time>
      </trkpt>
      <trkpt lat="45.9283" lon="4.63691">
        <ele>330</ele>
        <time>2016-10-16T09:13:23Z</time>
      </trkpt>
      <trkpt lat="45.92828" lon="4.63687">
        <ele>330</ele>
        <time>2016-10-16T09:13:24Z</time>
      </trkpt>
      <trkpt lat="45.92822" lon="4.63677">
        <ele>330</ele>
        <time>2016-10-16T09:13:27Z</time>
      </trkpt>
      <trkpt lat="45.9282" lon="4.63674">
        <ele>330</ele>
        <time>2016-10-16T09:13:28Z</time>
      </trkpt>
      <trkpt lat="45.92815" lon="4.63667">
        <ele>330</ele>
        <time>2016-10-16T09:13:30Z</time>
      </trkpt>
      <trkpt lat="45.92813" lon="4.63664">
        <ele>330</ele>
        <time>2016-10-16T09:13:31Z</time>
      </trkpt>
      <trkpt lat="45.92809" lon="4.63657">
        <ele>331</ele>
        <time>2016-10-16T09:13:33Z</time>
      </trkpt>
      <trkpt lat="45.92807" lon="4.63653">
        <ele>331</ele>
        <time>2016-10-16T09:13:34Z</time>
      </trkpt>
      <trkpt lat="45.92803" lon="4.63646">
        <ele>331</ele>
        <time>2016-10-16T09:13:36Z</time>
      </trkpt>
      <trkpt lat="45.92801" lon="4.63643">
        <ele>331</ele>
        <time>2016-10-16T09:13:37Z</time>
      </trkpt>
      <trkpt lat="45.92795" lon="4.63635">
        <ele>331</ele>
        <time>2016-10-16T09:13:39Z</time>
      </trkpt>
      <trkpt lat="45.92792" lon="4.63631">
        <ele>331</ele>
        <time>2016-10-16T09:13:40Z</time>
      </trkpt>
      <trkpt lat="45.92787" lon="4.63626">
        <ele>331</ele>
        <time>2016-10-16T09:13:42Z</time>
      </trkpt>
      <trkpt lat="45.92784" lon="4.63623">
        <ele>331</ele>
        <time>2016-10-16T09:13:43Z</time>
      </trkpt>
      <trkpt lat="45.92777" lon="4.63617">
        <ele>331</ele>
        <time>2016-10-16T09:13:46Z</time>
      </trkpt>
      <trkpt lat="45.92775" lon="4.63615">
        <ele>331</ele>
        <time>2016-10-16T09:13:47Z</time>
      </trkpt>
      <trkpt lat="45.9277" lon="4.63604">
        <ele>332</ele>
        <time>2016-10-16T09:13:50Z</time>
      </trkpt>
      <trkpt lat="45.92769" lon="4.636">
        <ele>332</ele>
        <time>2016-10-16T09:13:51Z</time>
      </trkpt>
      <trkpt lat="45.92767" lon="4.63591">
        <ele>332</ele>
        <time>2016-10-16T09:13:53Z</time>
      </trkpt>
      <trkpt lat="45.92766" lon="4.63586">
        <ele>332</ele>
        <time>2016-10-16T09:13:54Z</time>
      </trkpt>
      <trkpt lat="45.92766" lon="4.63576">
        <ele>333</ele>
        <time>2016-10-16T09:13:56Z</time>
      </trkpt>
      <trkpt lat="45.92765" lon="4.63571">
        <ele>333</ele>
        <time>2016-10-16T09:13:57Z</time>
      </trkpt>
      <trkpt lat="45.92764" lon="4.63562">
        <ele>333</ele>
        <time>2016-10-16T09:13:59Z</time>
      </trkpt>
      <trkpt lat="45.92764" lon="4.63557">
        <ele>333</ele>
        <time>2016-10-16T09:14:00Z</time>
      </trkpt>
      <trkpt lat="45.92764" lon="4.63548">
        <ele>333</ele>
        <time>2016-10-16T09:14:02Z</time>
      </trkpt>
      <trkpt lat="45.92764" lon="4.63544">
        <ele>333</ele>
        <time>2016-10-16T09:14:03Z</time>
      </trkpt>
      <trkpt lat="45.92764" lon="4.63534">
        <ele>333</ele>
        <time>2016-10-16T09:14:05Z</time>
      </trkpt>
      <trkpt lat="45.92764" lon="4.6353">
        <ele>333</ele>
        <time>2016-10-16T09:14:06Z</time>
      </trkpt>
      <trkpt lat="45.92764" lon="4.6352">
        <ele>333</ele>
        <time>2016-10-16T09:14:08Z</time>
      </trkpt>
      <trkpt lat="45.92764" lon="4.63516">
        <ele>333</ele>
        <time>2016-10-16T09:14:09Z</time>
      </trkpt>
      <trkpt lat="45.92765" lon="4.63507">
        <ele>333</ele>
        <time>2016-10-16T09:14:11Z</time>
      </trkpt>
      <trkpt lat="45.92765" lon="4.63502">
        <ele>333</ele>
        <time>2016-10-16T09:14:12Z</time>
      </trkpt>
      <trkpt lat="45.92765" lon="4.63494">
        <ele>334</ele>
        <time>2016-10-16T09:14:14Z</time>
      </trkpt>
      <trkpt lat="45.92765" lon="4.63489">
        <ele>334</ele>
        <time>2016-10-16T09:14:15Z</time>
      </trkpt>
      <trkpt lat="45.92766" lon="4.63476">
        <ele>334</ele>
        <time>2016-10-16T09:14:18Z</time>
      </trkpt>
      <trkpt lat="45.92766" lon="4.63472">
        <ele>334</ele>
        <time>2016-10-16T09:14:19Z</time>
      </trkpt>
      <trkpt lat="45.92766" lon="4.63463">
        <ele>334</ele>
        <time>2016-10-16T09:14:21Z</time>
      </trkpt>
      <trkpt lat="45.92766" lon="4.63458">
        <ele>334</ele>
        <time>2016-10-16T09:14:22Z</time>
      </trkpt>
      <trkpt lat="45.92765" lon="4.63449">
        <ele>334</ele>
        <time>2016-10-16T09:14:24Z</time>
      </trkpt>
      <trkpt lat="45.92765" lon="4.63445">
        <ele>334</ele>
        <time>2016-10-16T09:14:25Z</time>
      </trkpt>
      <trkpt lat="45.92764" lon="4.63435">
        <ele>334</ele>
        <time>2016-10-16T09:14:27Z</time>
      </trkpt>
      <trkpt lat="45.92764" lon="4.63431">
        <ele>334</ele>
        <time>2016-10-16T09:14:28Z</time>
      </trkpt>
      <trkpt lat="45.92763" lon="4.63422">
        <ele>334</ele>
        <time>2016-10-16T09:14:30Z</time>
      </trkpt>
      <trkpt lat="45.92762" lon="4.63417">
        <ele>334</ele>
        <time>2016-10-16T09:14:31Z</time>
      </trkpt>
      <trkpt lat="45.92762" lon="4.63408">
        <ele>334</ele>
        <time>2016-10-16T09:14:33Z</time>
      </trkpt>
      <trkpt lat="45.9276" lon="4.63404">
        <ele>334</ele>
        <time>2016-10-16T09:14:34Z</time>
      </trkpt>
      <trkpt lat="45.9276" lon="4.63395">
        <ele>334</ele>
        <time>2016-10-16T09:14:36Z</time>
      </trkpt>
      <trkpt lat="45.92759" lon="4.6339">
        <ele>334</ele>
        <time>2016-10-16T09:14:37Z</time>
      </trkpt>
      <trkpt lat="45.92759" lon="4.63381">
        <ele>334</ele>
        <time>2016-10-16T09:14:39Z</time>
      </trkpt>
      <trkpt lat="45.92758" lon="4.63377">
        <ele>334</ele>
        <time>2016-10-16T09:14:40Z</time>
      </trkpt>
      <trkpt lat="45.92757" lon="4.63366">
        <ele>335</ele>
        <time>2016-10-16T09:14:42Z</time>
      </trkpt>
      <trkpt lat="45.92757" lon="4.6336">
        <ele>335</ele>
        <time>2016-10-16T09:14:43Z</time>
      </trkpt>
      <trkpt lat="45.92756" lon="4.6335">
        <ele>335</ele>
        <time>2016-10-16T09:14:45Z</time>
      </trkpt>
      <trkpt lat="45.92755" lon="4.63345">
        <ele>335</ele>
        <time>2016-10-16T09:14:46Z</time>
      </trkpt>
      <trkpt lat="45.92755" lon="4.63334">
        <ele>335</ele>
        <time>2016-10-16T09:14:48Z</time>
      </trkpt>
      <trkpt lat="45.92754" lon="4.63329">
        <ele>335</ele>
        <time>2016-10-16T09:14:49Z</time>
      </trkpt>
      <trkpt lat="45.92754" lon="4.63319">
        <ele>335</ele>
        <time>2016-10-16T09:14:51Z</time>
      </trkpt>
      <trkpt lat="45.92754" lon="4.63315">
        <ele>335</ele>
        <time>2016-10-16T09:14:52Z</time>
      </trkpt>
      <trkpt lat="45.92754" lon="4.63305">
        <ele>336</ele>
        <time>2016-10-16T09:14:54Z</time>
      </trkpt>
      <trkpt lat="45.92754" lon="4.633">
        <ele>336</ele>
        <time>2016-10-16T09:14:55Z</time>
      </trkpt>
      <trkpt lat="45.92754" lon="4.6329">
        <ele>336</ele>
        <time>2016-10-16T09:14:57Z</time>
      </trkpt>
      <trkpt lat="45.92754" lon="4.63285">
        <ele>336</ele>
        <time>2016-10-16T09:14:58Z</time>
      </trkpt>
      <trkpt lat="45.92753" lon="4.63275">
        <ele>336</ele>
        <time>2016-10-16T09:15:00Z</time>
      </trkpt>
      <trkpt lat="45.92753" lon="4.6327">
        <ele>336</ele>
        <time>2016-10-16T09:15:01Z</time>
      </trkpt>
      <trkpt lat="45.92753" lon="4.63261">
        <ele>336</ele>
        <time>2016-10-16T09:15:03Z</time>
      </trkpt>
      <trkpt lat="45.92753" lon="4.63256">
        <ele>336</ele>
        <time>2016-10-16T09:15:04Z</time>
      </trkpt>
      <trkpt lat="45.92753" lon="4.63247">
        <ele>336</ele>
        <time>2016-10-16T09:15:06Z</time>
      </trkpt>
      <trkpt lat="45.92753" lon="4.63242">
        <ele>336</ele>
        <time>2016-10-16T09:15:07Z</time>
      </trkpt>
      <trkpt lat="45.92753" lon="4.63233">
        <ele>337</ele>
        <time>2016-10-16T09:15:09Z</time>
      </trkpt>
      <trkpt lat="45.92754" lon="4.63228">
        <ele>337</ele>
        <time>2016-10-16T09:15:10Z</time>
      </trkpt>
      <trkpt lat="45.92757" lon="4.6322">
        <ele>337</ele>
        <time>2016-10-16T09:15:12Z</time>
      </trkpt>
      <trkpt lat="45.92757" lon="4.63215">
        <ele>337</ele>
        <time>2016-10-16T09:15:13Z</time>
      </trkpt>
      <trkpt lat="45.92758" lon="4.63206">
        <ele>338</ele>
        <time>2016-10-16T09:15:15Z</time>
      </trkpt>
      <trkpt lat="45.92758" lon="4.63201">
        <ele>338</ele>
        <time>2016-10-16T09:15:16Z</time>
      </trkpt>
      <trkpt lat="45.9276" lon="4.63189">
        <ele>338</ele>
        <time>2016-10-16T09:15:19Z</time>
      </trkpt>
      <trkpt lat="45.92761" lon="4.63185">
        <ele>338</ele>
        <time>2016-10-16T09:15:20Z</time>
      </trkpt>
      <trkpt lat="45.92763" lon="4.63175">
        <ele>338</ele>
        <time>2016-10-16T09:15:22Z</time>
      </trkpt>
      <trkpt lat="45.92764" lon="4.6317">
        <ele>338</ele>
        <time>2016-10-16T09:15:23Z</time>
      </trkpt>
      <trkpt lat="45.92765" lon="4.6316">
        <ele>339</ele>
        <time>2016-10-16T09:15:25Z</time>
      </trkpt>
      <trkpt lat="45.92766" lon="4.63156">
        <ele>339</ele>
        <time>2016-10-16T09:15:26Z</time>
      </trkpt>
      <trkpt lat="45.92767" lon="4.63147">
        <ele>340</ele>
        <time>2016-10-16T09:15:28Z</time>
      </trkpt>
      <trkpt lat="45.92767" lon="4.63143">
        <ele>340</ele>
        <time>2016-10-16T09:15:29Z</time>
      </trkpt>
      <trkpt lat="45.92768" lon="4.63134">
        <ele>340</ele>
        <time>2016-10-16T09:15:31Z</time>
      </trkpt>
      <trkpt lat="45.92768" lon="4.6313">
        <ele>340</ele>
        <time>2016-10-16T09:15:32Z</time>
      </trkpt>
      <trkpt lat="45.92768" lon="4.63117">
        <ele>340</ele>
        <time>2016-10-16T09:15:35Z</time>
      </trkpt>
      <trkpt lat="45.92768" lon="4.63113">
        <ele>340</ele>
        <time>2016-10-16T09:15:36Z</time>
      </trkpt>
      <trkpt lat="45.92769" lon="4.63101">
        <ele>341</ele>
        <time>2016-10-16T09:15:39Z</time>
      </trkpt>
      <trkpt lat="45.92769" lon="4.63096">
        <ele>341</ele>
        <time>2016-10-16T09:15:40Z</time>
      </trkpt>
      <trkpt lat="45.9277" lon="4.63084">
        <ele>341</ele>
        <time>2016-10-16T09:15:43Z</time>
      </trkpt>
      <trkpt lat="45.92771" lon="4.63079">
        <ele>342</ele>
        <time>2016-10-16T09:15:44Z</time>
      </trkpt>
      <trkpt lat="45.92773" lon="4.63071">
        <ele>342</ele>
        <time>2016-10-16T09:15:46Z</time>
      </trkpt>
      <trkpt lat="45.92774" lon="4.63066">
        <ele>342</ele>
        <time>2016-10-16T09:15:47Z</time>
      </trkpt>
      <trkpt lat="45.92774" lon="4.63057">
        <ele>343</ele>
        <time>2016-10-16T09:15:49Z</time>
      </trkpt>
      <trkpt lat="45.92774" lon="4.63052">
        <ele>343</ele>
        <time>2016-10-16T09:15:50Z</time>
      </trkpt>
      <trkpt lat="45.92774" lon="4.63043">
        <ele>343</ele>
        <time>2016-10-16T09:15:52Z</time>
      </trkpt>
      <trkpt lat="45.92773" lon="4.63038">
        <ele>343</ele>
        <time>2016-10-16T09:15:53Z</time>
      </trkpt>
      <trkpt lat="45.92772" lon="4.63029">
        <ele>343</ele>
        <time>2016-10-16T09:15:55Z</time>
      </trkpt>
      <trkpt lat="45.92772" lon="4.63024">
        <ele>343</ele>
        <time>2016-10-16T09:15:56Z</time>
      </trkpt>
      <trkpt lat="45.92771" lon="4.63015">
        <ele>343</ele>
        <time>2016-10-16T09:15:58Z</time>
      </trkpt>
      <trkpt lat="45.9277" lon="4.63011">
        <ele>343</ele>
        <time>2016-10-16T09:15:59Z</time>
      </trkpt>
      <trkpt lat="45.92769" lon="4.63002">
        <ele>343</ele>
        <time>2016-10-16T09:16:01Z</time>
      </trkpt>
      <trkpt lat="45.92769" lon="4.62998">
        <ele>344</ele>
        <time>2016-10-16T09:16:02Z</time>
      </trkpt>
      <trkpt lat="45.92769" lon="4.62989">
        <ele>344</ele>
        <time>2016-10-16T09:16:04Z</time>
      </trkpt>
      <trkpt lat="45.92769" lon="4.62984">
        <ele>344</ele>
        <time>2016-10-16T09:16:05Z</time>
      </trkpt>
      <trkpt lat="45.92769" lon="4.62975">
        <ele>345</ele>
        <time>2016-10-16T09:16:07Z</time>
      </trkpt>
      <trkpt lat="45.92769" lon="4.62971">
        <ele>345</ele>
        <time>2016-10-16T09:16:08Z</time>
      </trkpt>
      <trkpt lat="45.92769" lon="4.62962">
        <ele>345</ele>
        <time>2016-10-16T09:16:10Z</time>
      </trkpt>
      <trkpt lat="45.92768" lon="4.62957">
        <ele>345</ele>
        <time>2016-10-16T09:16:11Z</time>
      </trkpt>
      <trkpt lat="45.9277" lon="4.62946">
        <ele>345</ele>
        <time>2016-10-16T09:16:14Z</time>
      </trkpt>
      <trkpt lat="45.9277" lon="4.62941">
        <ele>345</ele>
        <time>2016-10-16T09:16:15Z</time>
      </trkpt>
      <trkpt lat="45.9277" lon="4.62932">
        <ele>346</ele>
        <time>2016-10-16T09:16:17Z</time>
      </trkpt>
      <trkpt lat="45.9277" lon="4.62927">
        <ele>346</ele>
        <time>2016-10-16T09:16:18Z</time>
      </trkpt>
      <trkpt lat="45.92769" lon="4.62917">
        <ele>346</ele>
        <time>2016-10-16T09:16:20Z</time>
      </trkpt>
      <trkpt lat="45.92769" lon="4.62913">
        <ele>347</ele>
        <time>2016-10-16T09:16:21Z</time>
      </trkpt>
      <trkpt lat="45.92769" lon="4.62902">
        <ele>348</ele>
        <time>2016-10-16T09:16:24Z</time>
      </trkpt>
      <trkpt lat="45.92769" lon="4.62898">
        <ele>348</ele>
        <time>2016-10-16T09:16:25Z</time>
      </trkpt>
      <trkpt lat="45.92769" lon="4.62885">
        <ele>348</ele>
        <time>2016-10-16T09:16:28Z</time>
      </trkpt>
      <trkpt lat="45.92769" lon="4.62881">
        <ele>348</ele>
        <time>2016-10-16T09:16:29Z</time>
      </trkpt>
      <trkpt lat="45.92768" lon="4.62871">
        <ele>349</ele>
        <time>2016-10-16T09:16:32Z</time>
      </trkpt>
      <trkpt lat="45.92769" lon="4.62867">
        <ele>349</ele>
        <time>2016-10-16T09:16:33Z</time>
      </trkpt>
      <trkpt lat="45.92769" lon="4.62856">
        <ele>349</ele>
        <time>2016-10-16T09:16:36Z</time>
      </trkpt>
      <trkpt lat="45.92769" lon="4.62853">
        <ele>349</ele>
        <time>2016-10-16T09:16:37Z</time>
      </trkpt>
      <trkpt lat="45.92768" lon="4.62841">
        <ele>350</ele>
        <time>2016-10-16T09:16:40Z</time>
      </trkpt>
      <trkpt lat="45.92768" lon="4.62837">
        <ele>350</ele>
        <time>2016-10-16T09:16:41Z</time>
      </trkpt>
      <trkpt lat="45.92768" lon="4.62825">
        <ele>352</ele>
        <time>2016-10-16T09:16:44Z</time>
      </trkpt>
      <trkpt lat="45.92768" lon="4.62821">
        <ele>352</ele>
        <time>2016-10-16T09:16:45Z</time>
      </trkpt>
      <trkpt lat="45.92767" lon="4.62808">
        <ele>352</ele>
        <time>2016-10-16T09:16:48Z</time>
      </trkpt>
      <trkpt lat="45.92766" lon="4.62805">
        <ele>353</ele>
        <time>2016-10-16T09:16:49Z</time>
      </trkpt>
      <trkpt lat="45.92763" lon="4.62795">
        <ele>353</ele>
        <time>2016-10-16T09:16:52Z</time>
      </trkpt>
      <trkpt lat="45.92764" lon="4.62792">
        <ele>353</ele>
        <time>2016-10-16T09:16:53Z</time>
      </trkpt>
      <trkpt lat="45.9276" lon="4.62783">
        <ele>353</ele>
        <time>2016-10-16T09:16:56Z</time>
      </trkpt>
      <trkpt lat="45.92758" lon="4.62779">
        <ele>353</ele>
        <time>2016-10-16T09:16:57Z</time>
      </trkpt>
      <trkpt lat="45.92755" lon="4.6277">
        <ele>354</ele>
        <time>2016-10-16T09:17:00Z</time>
      </trkpt>
      <trkpt lat="45.92754" lon="4.62767">
        <ele>354</ele>
        <time>2016-10-16T09:17:01Z</time>
      </trkpt>
      <trkpt lat="45.92751" lon="4.62757">
        <ele>355</ele>
        <time>2016-10-16T09:17:04Z</time>
      </trkpt>
      <trkpt lat="45.92749" lon="4.62754">
        <ele>354</ele>
        <time>2016-10-16T09:17:05Z</time>
      </trkpt>
      <trkpt lat="45.92748" lon="4.62744">
        <ele>355</ele>
        <time>2016-10-16T09:17:08Z</time>
      </trkpt>
      <trkpt lat="45.92747" lon="4.62741">
        <ele>355</ele>
        <time>2016-10-16T09:17:09Z</time>
      </trkpt>
      <trkpt lat="45.92747" lon="4.62732">
        <ele>355</ele>
        <time>2016-10-16T09:17:12Z</time>
      </trkpt>
      <trkpt lat="45.92746" lon="4.62728">
        <ele>355</ele>
        <time>2016-10-16T09:17:13Z</time>
      </trkpt>
      <trkpt lat="45.92744" lon="4.62718">
        <ele>356</ele>
        <time>2016-10-16T09:17:16Z</time>
      </trkpt>
      <trkpt lat="45.92743" lon="4.62714">
        <ele>356</ele>
        <time>2016-10-16T09:17:17Z</time>
      </trkpt>
      <trkpt lat="45.92743" lon="4.62702">
        <ele>356</ele>
        <time>2016-10-16T09:17:21Z</time>
      </trkpt>
      <trkpt lat="45.92743" lon="4.62698">
        <ele>356</ele>
        <time>2016-10-16T09:17:22Z</time>
      </trkpt>
      <trkpt lat="45.92745" lon="4.62686">
        <ele>357</ele>
        <time>2016-10-16T09:17:25Z</time>
      </trkpt>
      <trkpt lat="45.92744" lon="4.62682">
        <ele>357</ele>
        <time>2016-10-16T09:17:26Z</time>
      </trkpt>
      <trkpt lat="45.92743" lon="4.62671">
        <ele>358</ele>
        <time>2016-10-16T09:17:29Z</time>
      </trkpt>
      <trkpt lat="45.92743" lon="4.62668">
        <ele>358</ele>
        <time>2016-10-16T09:17:30Z</time>
      </trkpt>
      <trkpt lat="45.92741" lon="4.62657">
        <ele>360</ele>
        <time>2016-10-16T09:17:34Z</time>
      </trkpt>
      <trkpt lat="45.92741" lon="4.62654">
        <ele>360</ele>
        <time>2016-10-16T09:17:35Z</time>
      </trkpt>
      <trkpt lat="45.92739" lon="4.62644">
        <ele>361</ele>
        <time>2016-10-16T09:17:38Z</time>
      </trkpt>
      <trkpt lat="45.92739" lon="4.62641">
        <ele>361</ele>
        <time>2016-10-16T09:17:39Z</time>
      </trkpt>
      <trkpt lat="45.92738" lon="4.62629">
        <ele>361</ele>
        <time>2016-10-16T09:17:43Z</time>
      </trkpt>
      <trkpt lat="45.92738" lon="4.62626">
        <ele>361</ele>
        <time>2016-10-16T09:17:44Z</time>
      </trkpt>
      <trkpt lat="45.92736" lon="4.62614">
        <ele>362</ele>
        <time>2016-10-16T09:17:47Z</time>
      </trkpt>
      <trkpt lat="45.92736" lon="4.6261">
        <ele>362</ele>
        <time>2016-10-16T09:17:48Z</time>
      </trkpt>
      <trkpt lat="45.92734" lon="4.62599">
        <ele>363</ele>
        <time>2016-10-16T09:17:51Z</time>
      </trkpt>
      <trkpt lat="45.92734" lon="4.62596">
        <ele>363</ele>
        <time>2016-10-16T09:17:52Z</time>
      </trkpt>
      <trkpt lat="45.92734" lon="4.62584">
        <ele>363</ele>
        <time>2016-10-16T09:17:56Z</time>
      </trkpt>
      <trkpt lat="45.92733" lon="4.62581">
        <ele>365</ele>
        <time>2016-10-16T09:17:57Z</time>
      </trkpt>
      <trkpt lat="45.92732" lon="4.62571">
        <ele>366</ele>
        <time>2016-10-16T09:18:00Z</time>
      </trkpt>
      <trkpt lat="45.92732" lon="4.62568">
        <ele>366</ele>
        <time>2016-10-16T09:18:01Z</time>
      </trkpt>
      <trkpt lat="45.92732" lon="4.62557">
        <ele>366</ele>
        <time>2016-10-16T09:18:04Z</time>
      </trkpt>
      <trkpt lat="45.92732" lon="4.62553">
        <ele>366</ele>
        <time>2016-10-16T09:18:05Z</time>
      </trkpt>
      <trkpt lat="45.92732" lon="4.62542">
        <ele>366</ele>
        <time>2016-10-16T09:18:08Z</time>
      </trkpt>
      <trkpt lat="45.92732" lon="4.62538">
        <ele>366</ele>
        <time>2016-10-16T09:18:09Z</time>
      </trkpt>
      <trkpt lat="45.92729" lon="4.62526">
        <ele>367</ele>
        <time>2016-10-16T09:18:12Z</time>
      </trkpt>
      <trkpt lat="45.92729" lon="4.62522">
        <ele>367</ele>
        <time>2016-10-16T09:18:13Z</time>
      </trkpt>
      <trkpt lat="45.9273" lon="4.62512">
        <ele>367</ele>
        <time>2016-10-16T09:18:16Z</time>
      </trkpt>
      <trkpt lat="45.9273" lon="4.62508">
        <ele>367</ele>
        <time>2016-10-16T09:18:17Z</time>
      </trkpt>
      <trkpt lat="45.92729" lon="4.62498">
        <ele>369</ele>
        <time>2016-10-16T09:18:20Z</time>
      </trkpt>
      <trkpt lat="45.9273" lon="4.62494">
        <ele>369</ele>
        <time>2016-10-16T09:18:21Z</time>
      </trkpt>
      <trkpt lat="45.9273" lon="4.62481">
        <ele>369</ele>
        <time>2016-10-16T09:18:24Z</time>
      </trkpt>
      <trkpt lat="45.9273" lon="4.62477">
        <ele>370</ele>
        <time>2016-10-16T09:18:25Z</time>
      </trkpt>
      <trkpt lat="45.92729" lon="4.62466">
        <ele>370</ele>
        <time>2016-10-16T09:18:28Z</time>
      </trkpt>
      <trkpt lat="45.92729" lon="4.62463">
        <ele>370</ele>
        <time>2016-10-16T09:18:29Z</time>
      </trkpt>
      <trkpt lat="45.92728" lon="4.62453">
        <ele>370</ele>
        <time>2016-10-16T09:18:32Z</time>
      </trkpt>
      <trkpt lat="45.92729" lon="4.6245">
        <ele>370</ele>
        <time>2016-10-16T09:18:33Z</time>
      </trkpt>
      <trkpt lat="45.92729" lon="4.62437">
        <ele>371</ele>
        <time>2016-10-16T09:18:37Z</time>
      </trkpt>
      <trkpt lat="45.92729" lon="4.62434">
        <ele>371</ele>
        <time>2016-10-16T09:18:38Z</time>
      </trkpt>
      <trkpt lat="45.9273" lon="4.62423">
        <ele>371</ele>
        <time>2016-10-16T09:18:41Z</time>
      </trkpt>
      <trkpt lat="45.9273" lon="4.6242">
        <ele>371</ele>
        <time>2016-10-16T09:18:42Z</time>
      </trkpt>
      <trkpt lat="45.92729" lon="4.6241">
        <ele>373</ele>
        <time>2016-10-16T09:18:45Z</time>
      </trkpt>
      <trkpt lat="45.92729" lon="4.62406">
        <ele>373</ele>
        <time>2016-10-16T09:18:46Z</time>
      </trkpt>
      <trkpt lat="45.92727" lon="4.62397">
        <ele>373</ele>
        <time>2016-10-16T09:18:49Z</time>
      </trkpt>
      <trkpt lat="45.92727" lon="4.62393">
        <ele>373</ele>
        <time>2016-10-16T09:18:50Z</time>
      </trkpt>
      <trkpt lat="45.92727" lon="4.62381">
        <ele>373</ele>
        <time>2016-10-16T09:18:53Z</time>
      </trkpt>
      <trkpt lat="45.92727" lon="4.62377">
        <ele>373</ele>
        <time>2016-10-16T09:18:54Z</time>
      </trkpt>
      <trkpt lat="45.92725" lon="4.62366">
        <ele>373</ele>
        <time>2016-10-16T09:18:57Z</time>
      </trkpt>
      <trkpt lat="45.92725" lon="4.62362">
        <ele>373</ele>
        <time>2016-10-16T09:18:58Z</time>
      </trkpt>
      <trkpt lat="45.92723" lon="4.62352">
        <ele>374</ele>
        <time>2016-10-16T09:19:01Z</time>
      </trkpt>
      <trkpt lat="45.92722" lon="4.62348">
        <ele>374</ele>
        <time>2016-10-16T09:19:02Z</time>
      </trkpt>
      <trkpt lat="45.92719" lon="4.62337">
        <ele>374</ele>
        <time>2016-10-16T09:19:05Z</time>
      </trkpt>
      <trkpt lat="45.92718" lon="4.62333">
        <ele>375</ele>
        <time>2016-10-16T09:19:06Z</time>
      </trkpt>
      <trkpt lat="45.92715" lon="4.62322">
        <ele>375</ele>
        <time>2016-10-16T09:19:09Z</time>
      </trkpt>
      <trkpt lat="45.92714" lon="4.62318">
        <ele>375</ele>
        <time>2016-10-16T09:19:10Z</time>
      </trkpt>
      <trkpt lat="45.9271" lon="4.62306">
        <ele>375</ele>
        <time>2016-10-16T09:19:13Z</time>
      </trkpt>
      <trkpt lat="45.92709" lon="4.62303">
        <ele>375</ele>
        <time>2016-10-16T09:19:14Z</time>
      </trkpt>
      <trkpt lat="45.92707" lon="4.62291">
        <ele>375</ele>
        <time>2016-10-16T09:19:17Z</time>
      </trkpt>
      <trkpt lat="45.92706" lon="4.62287">
        <ele>375</ele>
        <time>2016-10-16T09:19:18Z</time>
      </trkpt>
      <trkpt lat="45.92704" lon="4.62274">
        <ele>375</ele>
        <time>2016-10-16T09:19:21Z</time>
      </trkpt>
      <trkpt lat="45.92704" lon="4.6227">
        <ele>375</ele>
        <time>2016-10-16T09:19:22Z</time>
      </trkpt>
      <trkpt lat="45.92703" lon="4.62261">
        <ele>375</ele>
        <time>2016-10-16T09:19:24Z</time>
      </trkpt>
      <trkpt lat="45.92703" lon="4.62256">
        <ele>375</ele>
        <time>2016-10-16T09:19:25Z</time>
      </trkpt>
      <trkpt lat="45.92702" lon="4.62246">
        <ele>375</ele>
        <time>2016-10-16T09:19:27Z</time>
      </trkpt>
      <trkpt lat="45.92702" lon="4.62242">
        <ele>375</ele>
        <time>2016-10-16T09:19:28Z</time>
      </trkpt>
      <trkpt lat="45.927" lon="4.62232">
        <ele>375</ele>
        <time>2016-10-16T09:19:30Z</time>
      </trkpt>
      <trkpt lat="45.927" lon="4.62227">
        <ele>375</ele>
        <time>2016-10-16T09:19:31Z</time>
      </trkpt>
      <trkpt lat="45.92699" lon="4.62218">
        <ele>375</ele>
        <time>2016-10-16T09:19:33Z</time>
      </trkpt>
      <trkpt lat="45.92698" lon="4.62213">
        <ele>375</ele>
        <time>2016-10-16T09:19:34Z</time>
      </trkpt>
      <trkpt lat="45.92697" lon="4.62201">
        <ele>375</ele>
        <time>2016-10-16T09:19:37Z</time>
      </trkpt>
      <trkpt lat="45.92697" lon="4.62196">
        <ele>375</ele>
        <time>2016-10-16T09:19:38Z</time>
      </trkpt>
      <trkpt lat="45.92696" lon="4.62188">
        <ele>375</ele>
        <time>2016-10-16T09:19:40Z</time>
      </trkpt>
      <trkpt lat="45.92695" lon="4.62183">
        <ele>375</ele>
        <time>2016-10-16T09:19:41Z</time>
      </trkpt>
      <trkpt lat="45.92692" lon="4.62172">
        <ele>375</ele>
        <time>2016-10-16T09:19:43Z</time>
      </trkpt>
      <trkpt lat="45.92692" lon="4.62167">
        <ele>375</ele>
        <time>2016-10-16T09:19:44Z</time>
      </trkpt>
      <trkpt lat="45.92691" lon="4.62156">
        <ele>375</ele>
        <time>2016-10-16T09:19:46Z</time>
      </trkpt>
      <trkpt lat="45.9269" lon="4.6215">
        <ele>375</ele>
        <time>2016-10-16T09:19:47Z</time>
      </trkpt>
      <trkpt lat="45.9269" lon="4.6214">
        <ele>375</ele>
        <time>2016-10-16T09:19:49Z</time>
      </trkpt>
      <trkpt lat="45.9269" lon="4.62135">
        <ele>375</ele>
        <time>2016-10-16T09:19:50Z</time>
      </trkpt>
      <trkpt lat="45.9269" lon="4.62125">
        <ele>375</ele>
        <time>2016-10-16T09:19:52Z</time>
      </trkpt>
      <trkpt lat="45.9269" lon="4.6212">
        <ele>375</ele>
        <time>2016-10-16T09:19:53Z</time>
      </trkpt>
      <trkpt lat="45.92693" lon="4.6211">
        <ele>375</ele>
        <time>2016-10-16T09:19:55Z</time>
      </trkpt>
      <trkpt lat="45.92694" lon="4.62104">
        <ele>375</ele>
        <time>2016-10-16T09:19:56Z</time>
      </trkpt>
      <trkpt lat="45.92696" lon="4.62092">
        <ele>375</ele>
        <time>2016-10-16T09:19:58Z</time>
      </trkpt>
      <trkpt lat="45.92697" lon="4.62086">
        <ele>375</ele>
        <time>2016-10-16T09:19:59Z</time>
      </trkpt>
      <trkpt lat="45.92699" lon="4.6208">
        <ele>374</ele>
        <time>2016-10-16T09:20:00Z</time>
      </trkpt>
      <trkpt lat="45.92701" lon="4.62074">
        <ele>374</ele>
        <time>2016-10-16T09:20:01Z</time>
      </trkpt>
      <trkpt lat="45.92706" lon="4.62063">
        <ele>374</ele>
        <time>2016-10-16T09:20:03Z</time>
      </trkpt>
      <trkpt lat="45.92708" lon="4.62058">
        <ele>374</ele>
        <time>2016-10-16T09:20:04Z</time>
      </trkpt>
      <trkpt lat="45.92713" lon="4.62048">
        <ele>374</ele>
        <time>2016-10-16T09:20:06Z</time>
      </trkpt>
      <trkpt lat="45.92715" lon="4.62043">
        <ele>374</ele>
        <time>2016-10-16T09:20:07Z</time>
      </trkpt>
      <trkpt lat="45.92718" lon="4.62032">
        <ele>374</ele>
        <time>2016-10-16T09:20:09Z</time>
      </trkpt>
      <trkpt lat="45.9272" lon="4.62026">
        <ele>374</ele>
        <time>2016-10-16T09:20:10Z</time>
      </trkpt>
      <trkpt lat="45.92722" lon="4.6202">
        <ele>374</ele>
        <time>2016-10-16T09:20:11Z</time>
      </trkpt>
      <trkpt lat="45.92725" lon="4.62014">
        <ele>374</ele>
        <time>2016-10-16T09:20:12Z</time>
      </trkpt>
      <trkpt lat="45.92729" lon="4.62004">
        <ele>374</ele>
        <time>2016-10-16T09:20:14Z</time>
      </trkpt>
      <trkpt lat="45.92731" lon="4.61999">
        <ele>374</ele>
        <time>2016-10-16T09:20:15Z</time>
      </trkpt>
      <trkpt lat="45.92736" lon="4.6199">
        <ele>374</ele>
        <time>2016-10-16T09:20:17Z</time>
      </trkpt>
      <trkpt lat="45.92739" lon="4.61986">
        <ele>374</ele>
        <time>2016-10-16T09:20:18Z</time>
      </trkpt>
      <trkpt lat="45.92743" lon="4.61976">
        <ele>374</ele>
        <time>2016-10-16T09:20:20Z</time>
      </trkpt>
      <trkpt lat="45.92746" lon="4.6197">
        <ele>374</ele>
        <time>2016-10-16T09:20:21Z</time>
      </trkpt>
      <trkpt lat="45.9275" lon="4.6196">
        <ele>374</ele>
        <time>2016-10-16T09:20:23Z</time>
      </trkpt>
      <trkpt lat="45.92752" lon="4.61955">
        <ele>375</ele>
        <time>2016-10-16T09:20:24Z</time>
      </trkpt>
      <trkpt lat="45.92756" lon="4.61945">
        <ele>375</ele>
        <time>2016-10-16T09:20:26Z</time>
      </trkpt>
      <trkpt lat="45.92757" lon="4.6194">
        <ele>375</ele>
        <time>2016-10-16T09:20:27Z</time>
      </trkpt>
      <trkpt lat="45.92759" lon="4.6193">
        <ele>375</ele>
        <time>2016-10-16T09:20:29Z</time>
      </trkpt>
      <trkpt lat="45.9276" lon="4.61924">
        <ele>375</ele>
        <time>2016-10-16T09:20:30Z</time>
      </trkpt>
      <trkpt lat="45.92761" lon="4.61914">
        <ele>376</ele>
        <time>2016-10-16T09:20:32Z</time>
      </trkpt>
      <trkpt lat="45.92761" lon="4.61908">
        <ele>376</ele>
        <time>2016-10-16T09:20:33Z</time>
      </trkpt>
      <trkpt lat="45.92761" lon="4.61898">
        <ele>377</ele>
        <time>2016-10-16T09:20:35Z</time>
      </trkpt>
      <trkpt lat="45.92762" lon="4.61893">
        <ele>377</ele>
        <time>2016-10-16T09:20:36Z</time>
      </trkpt>
      <trkpt lat="45.92761" lon="4.61882">
        <ele>377</ele>
        <time>2016-10-16T09:20:38Z</time>
      </trkpt>
      <trkpt lat="45.92763" lon="4.61877">
        <ele>377</ele>
        <time>2016-10-16T09:20:39Z</time>
      </trkpt>
      <trkpt lat="45.92769" lon="4.61872">
        <ele>377</ele>
        <time>2016-10-16T09:20:42Z</time>
      </trkpt>
      <trkpt lat="45.92772" lon="4.61872">
        <ele>377</ele>
        <time>2016-10-16T09:20:43Z</time>
      </trkpt>
      <trkpt lat="45.92775" lon="4.61874">
        <ele>377</ele>
        <time>2016-10-16T09:20:44Z</time>
      </trkpt>
      <trkpt lat="45.9278" lon="4.6188">
        <ele>377</ele>
        <time>2016-10-16T09:20:45Z</time>
      </trkpt>
      <trkpt lat="45.92787" lon="4.61884">
        <ele>377</ele>
        <time>2016-10-16T09:20:47Z</time>
      </trkpt>
      <trkpt lat="45.92791" lon="4.61886">
        <ele>377</ele>
        <time>2016-10-16T09:20:48Z</time>
      </trkpt>
      <trkpt lat="45.92798" lon="4.61886">
        <ele>377</ele>
        <time>2016-10-16T09:20:50Z</time>
      </trkpt>
      <trkpt lat="45.92802" lon="4.61886">
        <ele>377</ele>
        <time>2016-10-16T09:20:51Z</time>
      </trkpt>
      <trkpt lat="45.92809" lon="4.61885">
        <ele>377</ele>
        <time>2016-10-16T09:20:53Z</time>
      </trkpt>
      <trkpt lat="45.92813" lon="4.61884">
        <ele>377</ele>
        <time>2016-10-16T09:20:54Z</time>
      </trkpt>
      <trkpt lat="45.92817" lon="4.61879">
        <ele>377</ele>
        <time>2016-10-16T09:20:55Z</time>
      </trkpt>
      <trkpt lat="45.92821" lon="4.61877">
        <ele>377</ele>
        <time>2016-10-16T09:20:56Z</time>
      </trkpt>
      <trkpt lat="45.92829" lon="4.61877">
        <ele>377</ele>
        <time>2016-10-16T09:20:58Z</time>
      </trkpt>
      <trkpt lat="45.92833" lon="4.61877">
        <ele>377</ele>
        <time>2016-10-16T09:20:59Z</time>
      </trkpt>
      <trkpt lat="45.92841" lon="4.61876">
        <ele>376</ele>
        <time>2016-10-16T09:21:01Z</time>
      </trkpt>
      <trkpt lat="45.92845" lon="4.61875">
        <ele>376</ele>
        <time>2016-10-16T09:21:02Z</time>
      </trkpt>
      <trkpt lat="45.92849" lon="4.61874">
        <ele>376</ele>
        <time>2016-10-16T09:21:03Z</time>
      </trkpt>
      <trkpt lat="45.92854" lon="4.61873">
        <ele>376</ele>
        <time>2016-10-16T09:21:04Z</time>
      </trkpt>
      <trkpt lat="45.92858" lon="4.61872">
        <ele>376</ele>
        <time>2016-10-16T09:21:05Z</time>
      </trkpt>
      <trkpt lat="45.92863" lon="4.61871">
        <ele>376</ele>
        <time>2016-10-16T09:21:06Z</time>
      </trkpt>
      <trkpt lat="45.92868" lon="4.61871">
        <ele>376</ele>
        <time>2016-10-16T09:21:07Z</time>
      </trkpt>
      <trkpt lat="45.92872" lon="4.61868">
        <ele>376</ele>
        <time>2016-10-16T09:21:08Z</time>
      </trkpt>
      <trkpt lat="45.92878" lon="4.61868">
        <ele>376</ele>
        <time>2016-10-16T09:21:09Z</time>
      </trkpt>
      <trkpt lat="45.92884" lon="4.61868">
        <ele>376</ele>
        <time>2016-10-16T09:21:10Z</time>
      </trkpt>
      <trkpt lat="45.92889" lon="4.61869">
        <ele>376</ele>
        <time>2016-10-16T09:21:11Z</time>
      </trkpt>
      <trkpt lat="45.92895" lon="4.61871">
        <ele>376</ele>
        <time>2016-10-16T09:21:12Z</time>
      </trkpt>
      <trkpt lat="45.92902" lon="4.61871">
        <ele>376</ele>
        <time>2016-10-16T09:21:13Z</time>
      </trkpt>
      <trkpt lat="45.92908" lon="4.61872">
        <ele>376</ele>
        <time>2016-10-16T09:21:14Z</time>
      </trkpt>
      <trkpt lat="45.92915" lon="4.61872">
        <ele>376</ele>
        <time>2016-10-16T09:21:15Z</time>
      </trkpt>
      <trkpt lat="45.92922" lon="4.61873">
        <ele>372</ele>
        <time>2016-10-16T09:21:16Z</time>
      </trkpt>
      <trkpt lat="45.92929" lon="4.61873">
        <ele>372</ele>
        <time>2016-10-16T09:21:17Z</time>
      </trkpt>
      <trkpt lat="45.92936" lon="4.61874">
        <ele>372</ele>
        <time>2016-10-16T09:21:18Z</time>
      </trkpt>
      <trkpt lat="45.92944" lon="4.61874">
        <ele>372</ele>
        <time>2016-10-16T09:21:19Z</time>
      </trkpt>
      <trkpt lat="45.92951" lon="4.61872">
        <ele>371</ele>
        <time>2016-10-16T09:21:20Z</time>
      </trkpt>
      <trkpt lat="45.92959" lon="4.6187">
        <ele>371</ele>
        <time>2016-10-16T09:21:21Z</time>
      </trkpt>
      <trkpt lat="45.92966" lon="4.61866">
        <ele>371</ele>
        <time>2016-10-16T09:21:22Z</time>
      </trkpt>
      <trkpt lat="45.92973" lon="4.61861">
        <ele>371</ele>
        <time>2016-10-16T09:21:23Z</time>
      </trkpt>
      <trkpt lat="45.9298" lon="4.61855">
        <ele>370</ele>
        <time>2016-10-16T09:21:24Z</time>
      </trkpt>
      <trkpt lat="45.92986" lon="4.61847">
        <ele>370</ele>
        <time>2016-10-16T09:21:25Z</time>
      </trkpt>
      <trkpt lat="45.92991" lon="4.61838">
        <ele>370</ele>
        <time>2016-10-16T09:21:26Z</time>
      </trkpt>
      <trkpt lat="45.92996" lon="4.6183">
        <ele>370</ele>
        <time>2016-10-16T09:21:27Z</time>
      </trkpt>
      <trkpt lat="45.93002" lon="4.61822">
        <ele>367</ele>
        <time>2016-10-16T09:21:28Z</time>
      </trkpt>
      <trkpt lat="45.93007" lon="4.61813">
        <ele>366</ele>
        <time>2016-10-16T09:21:29Z</time>
      </trkpt>
      <trkpt lat="45.93011" lon="4.61804">
        <ele>366</ele>
        <time>2016-10-16T09:21:30Z</time>
      </trkpt>
      <trkpt lat="45.93016" lon="4.61795">
        <ele>366</ele>
        <time>2016-10-16T09:21:31Z</time>
      </trkpt>
      <trkpt lat="45.9302" lon="4.61787">
        <ele>366</ele>
        <time>2016-10-16T09:21:32Z</time>
      </trkpt>
      <trkpt lat="45.93024" lon="4.61778">
        <ele>366</ele>
        <time>2016-10-16T09:21:33Z</time>
      </trkpt>
      <trkpt lat="45.93029" lon="4.61771">
        <ele>366</ele>
        <time>2016-10-16T09:21:34Z</time>
      </trkpt>
      <trkpt lat="45.93033" lon="4.61765">
        <ele>366</ele>
        <time>2016-10-16T09:21:35Z</time>
      </trkpt>
      <trkpt lat="45.93037" lon="4.61758">
        <ele>365</ele>
        <time>2016-10-16T09:21:36Z</time>
      </trkpt>
      <trkpt lat="45.93042" lon="4.61749">
        <ele>369</ele>
        <time>2016-10-16T09:21:37Z</time>
      </trkpt>
      <trkpt lat="45.93044" lon="4.61741">
        <ele>369</ele>
        <time>2016-10-16T09:21:38Z</time>
      </trkpt>
      <trkpt lat="45.93045" lon="4.61733">
        <ele>369</ele>
        <time>2016-10-16T09:21:39Z</time>
      </trkpt>
      <trkpt lat="45.93046" lon="4.61725">
        <ele>369</ele>
        <time>2016-10-16T09:21:40Z</time>
      </trkpt>
      <trkpt lat="45.93048" lon="4.61717">
        <ele>369</ele>
        <time>2016-10-16T09:21:41Z</time>
      </trkpt>
      <trkpt lat="45.93051" lon="4.6171">
        <ele>369</ele>
        <time>2016-10-16T09:21:42Z</time>
      </trkpt>
      <trkpt lat="45.93054" lon="4.61704">
        <ele>370</ele>
        <time>2016-10-16T09:21:43Z</time>
      </trkpt>
      <trkpt lat="45.93056" lon="4.61698">
        <ele>370</ele>
        <time>2016-10-16T09:21:44Z</time>
      </trkpt>
      <trkpt lat="45.93062" lon="4.61688">
        <ele>370</ele>
        <time>2016-10-16T09:21:46Z</time>
      </trkpt>
      <trkpt lat="45.93064" lon="4.61684">
        <ele>370</ele>
        <time>2016-10-16T09:21:47Z</time>
      </trkpt>
      <trkpt lat="45.93069" lon="4.61676">
        <ele>370</ele>
        <time>2016-10-16T09:21:49Z</time>
      </trkpt>
      <trkpt lat="45.93071" lon="4.61672">
        <ele>370</ele>
        <time>2016-10-16T09:21:50Z</time>
      </trkpt>
      <trkpt lat="45.93075" lon="4.61663">
        <ele>373</ele>
        <time>2016-10-16T09:21:52Z</time>
      </trkpt>
      <trkpt lat="45.93079" lon="4.61659">
        <ele>373</ele>
        <time>2016-10-16T09:21:53Z</time>
      </trkpt>
      <trkpt lat="45.93085" lon="4.6165">
        <ele>371</ele>
        <time>2016-10-16T09:21:55Z</time>
      </trkpt>
      <trkpt lat="45.93087" lon="4.61647">
        <ele>372</ele>
        <time>2016-10-16T09:21:56Z</time>
      </trkpt>
      <trkpt lat="45.93092" lon="4.61641">
        <ele>372</ele>
        <time>2016-10-16T09:21:58Z</time>
      </trkpt>
      <trkpt lat="45.93095" lon="4.61639">
        <ele>372</ele>
        <time>2016-10-16T09:21:59Z</time>
      </trkpt>
      <trkpt lat="45.931" lon="4.61635">
        <ele>373</ele>
        <time>2016-10-16T09:22:01Z</time>
      </trkpt>
      <trkpt lat="45.93103" lon="4.61633">
        <ele>373</ele>
        <time>2016-10-16T09:22:02Z</time>
      </trkpt>
      <trkpt lat="45.93109" lon="4.61629">
        <ele>373</ele>
        <time>2016-10-16T09:22:04Z</time>
      </trkpt>
      <trkpt lat="45.93112" lon="4.61627">
        <ele>373</ele>
        <time>2016-10-16T09:22:05Z</time>
      </trkpt>
      <trkpt lat="45.93117" lon="4.61623">
        <ele>373</ele>
        <time>2016-10-16T09:22:07Z</time>
      </trkpt>
      <trkpt lat="45.9312" lon="4.6162">
        <ele>373</ele>
        <time>2016-10-16T09:22:08Z</time>
      </trkpt>
      <trkpt lat="45.93126" lon="4.61616">
        <ele>373</ele>
        <time>2016-10-16T09:22:10Z</time>
      </trkpt>
      <trkpt lat="45.93129" lon="4.61615">
        <ele>373</ele>
        <time>2016-10-16T09:22:11Z</time>
      </trkpt>
      <trkpt lat="45.93136" lon="4.6161">
        <ele>373</ele>
        <time>2016-10-16T09:22:14Z</time>
      </trkpt>
      <trkpt lat="45.93139" lon="4.6161">
        <ele>373</ele>
        <time>2016-10-16T09:22:15Z</time>
      </trkpt>
      <trkpt lat="45.93146" lon="4.61606">
        <ele>374</ele>
        <time>2016-10-16T09:22:18Z</time>
      </trkpt>
      <trkpt lat="45.93149" lon="4.61604">
        <ele>374</ele>
        <time>2016-10-16T09:22:19Z</time>
      </trkpt>
      <trkpt lat="45.93157" lon="4.61599">
        <ele>374</ele>
        <time>2016-10-16T09:22:22Z</time>
      </trkpt>
      <trkpt lat="45.93159" lon="4.61597">
        <ele>375</ele>
        <time>2016-10-16T09:22:23Z</time>
      </trkpt>
      <trkpt lat="45.93167" lon="4.61592">
        <ele>374</ele>
        <time>2016-10-16T09:22:26Z</time>
      </trkpt>
      <trkpt lat="45.9317" lon="4.61591">
        <ele>374</ele>
        <time>2016-10-16T09:22:27Z</time>
      </trkpt>
      <trkpt lat="45.93177" lon="4.61586">
        <ele>373</ele>
        <time>2016-10-16T09:22:30Z</time>
      </trkpt>
      <trkpt lat="45.9318" lon="4.61584">
        <ele>372</ele>
        <time>2016-10-16T09:22:31Z</time>
      </trkpt>
      <trkpt lat="45.93188" lon="4.61579">
        <ele>377</ele>
        <time>2016-10-16T09:22:34Z</time>
      </trkpt>
      <trkpt lat="45.93191" lon="4.61577">
        <ele>377</ele>
        <time>2016-10-16T09:22:35Z</time>
      </trkpt>
      <trkpt lat="45.93199" lon="4.6157">
        <ele>376</ele>
        <time>2016-10-16T09:22:38Z</time>
      </trkpt>
      <trkpt lat="45.93201" lon="4.61569">
        <ele>376</ele>
        <time>2016-10-16T09:22:39Z</time>
      </trkpt>
      <trkpt lat="45.93208" lon="4.61563">
        <ele>376</ele>
        <time>2016-10-16T09:22:42Z</time>
      </trkpt>
      <trkpt lat="45.9321" lon="4.61561">
        <ele>376</ele>
        <time>2016-10-16T09:22:43Z</time>
      </trkpt>
      <trkpt lat="45.93216" lon="4.61553">
        <ele>376</ele>
        <time>2016-10-16T09:22:46Z</time>
      </trkpt>
      <trkpt lat="45.93218" lon="4.61551">
        <ele>376</ele>
        <time>2016-10-16T09:22:47Z</time>
      </trkpt>
      <trkpt lat="45.93223" lon="4.61545">
        <ele>376</ele>
        <time>2016-10-16T09:22:49Z</time>
      </trkpt>
      <trkpt lat="45.93225" lon="4.61542">
        <ele>377</ele>
        <time>2016-10-16T09:22:50Z</time>
      </trkpt>
      <trkpt lat="45.93233" lon="4.61536">
        <ele>377</ele>
        <time>2016-10-16T09:22:53Z</time>
      </trkpt>
      <trkpt lat="45.93235" lon="4.61534">
        <ele>377</ele>
        <time>2016-10-16T09:22:54Z</time>
      </trkpt>
      <trkpt lat="45.9324" lon="4.61526">
        <ele>378</ele>
        <time>2016-10-16T09:22:57Z</time>
      </trkpt>
      <trkpt lat="45.93242" lon="4.61524">
        <ele>378</ele>
        <time>2016-10-16T09:22:58Z</time>
      </trkpt>
      <trkpt lat="45.93248" lon="4.61517">
        <ele>378</ele>
        <time>2016-10-16T09:23:01Z</time>
      </trkpt>
      <trkpt lat="45.9325" lon="4.61515">
        <ele>379</ele>
        <time>2016-10-16T09:23:02Z</time>
      </trkpt>
      <trkpt lat="45.93256" lon="4.61508">
        <ele>376</ele>
        <time>2016-10-16T09:23:05Z</time>
      </trkpt>
      <trkpt lat="45.93259" lon="4.61504">
        <ele>376</ele>
        <time>2016-10-16T09:23:06Z</time>
      </trkpt>
      <trkpt lat="45.93265" lon="4.61496">
        <ele>379</ele>
        <time>2016-10-16T09:23:09Z</time>
      </trkpt>
      <trkpt lat="45.93267" lon="4.61494">
        <ele>379</ele>
        <time>2016-10-16T09:23:10Z</time>
      </trkpt>
      <trkpt lat="45.93272" lon="4.61485">
        <ele>379</ele>
        <time>2016-10-16T09:23:13Z</time>
      </trkpt>
      <trkpt lat="45.93273" lon="4.61482">
        <ele>379</ele>
        <time>2016-10-16T09:23:14Z</time>
      </trkpt>
      <trkpt lat="45.93278" lon="4.61473">
        <ele>379</ele>
        <time>2016-10-16T09:23:17Z</time>
      </trkpt>
      <trkpt lat="45.9328" lon="4.6147">
        <ele>379</ele>
        <time>2016-10-16T09:23:18Z</time>
      </trkpt>
      <trkpt lat="45.93284" lon="4.61462">
        <ele>379</ele>
        <time>2016-10-16T09:23:20Z</time>
      </trkpt>
      <trkpt lat="45.93286" lon="4.61458">
        <ele>380</ele>
        <time>2016-10-16T09:23:21Z</time>
      </trkpt>
      <trkpt lat="45.93291" lon="4.61447">
        <ele>380</ele>
        <time>2016-10-16T09:23:24Z</time>
      </trkpt>
      <trkpt lat="45.93292" lon="4.61445">
        <ele>380</ele>
        <time>2016-10-16T09:23:25Z</time>
      </trkpt>
      <trkpt lat="45.93298" lon="4.61435">
        <ele>380</ele>
        <time>2016-10-16T09:23:28Z</time>
      </trkpt>
      <trkpt lat="45.933" lon="4.61432">
        <ele>380</ele>
        <time>2016-10-16T09:23:29Z</time>
      </trkpt>
      <trkpt lat="45.93307" lon="4.61425">
        <ele>380</ele>
        <time>2016-10-16T09:23:32Z</time>
      </trkpt>
      <trkpt lat="45.93309" lon="4.61423">
        <ele>380</ele>
        <time>2016-10-16T09:23:33Z</time>
      </trkpt>
      <trkpt lat="45.93315" lon="4.61417">
        <ele>380</ele>
        <time>2016-10-16T09:23:36Z</time>
      </trkpt>
      <trkpt lat="45.93317" lon="4.61415">
        <ele>386</ele>
        <time>2016-10-16T09:23:37Z</time>
      </trkpt>
      <trkpt lat="45.93322" lon="4.61411">
        <ele>385</ele>
        <time>2016-10-16T09:23:39Z</time>
      </trkpt>
      <trkpt lat="45.93325" lon="4.61409">
        <ele>385</ele>
        <time>2016-10-16T09:23:40Z</time>
      </trkpt>
      <trkpt lat="45.93333" lon="4.61403">
        <ele>386</ele>
        <time>2016-10-16T09:23:43Z</time>
      </trkpt>
      <trkpt lat="45.93336" lon="4.61402">
        <ele>383</ele>
        <time>2016-10-16T09:23:44Z</time>
      </trkpt>
      <trkpt lat="45.93343" lon="4.61396">
        <ele>384</ele>
        <time>2016-10-16T09:23:47Z</time>
      </trkpt>
      <trkpt lat="45.93346" lon="4.61394">
        <ele>385</ele>
        <time>2016-10-16T09:23:48Z</time>
      </trkpt>
      <trkpt lat="45.93352" lon="4.61388">
        <ele>385</ele>
        <time>2016-10-16T09:23:51Z</time>
      </trkpt>
      <trkpt lat="45.93355" lon="4.61387">
        <ele>386</ele>
        <time>2016-10-16T09:23:52Z</time>
      </trkpt>
      <trkpt lat="45.93362" lon="4.61383">
        <ele>386</ele>
        <time>2016-10-16T09:23:55Z</time>
      </trkpt>
      <trkpt lat="45.93365" lon="4.61381">
        <ele>386</ele>
        <time>2016-10-16T09:23:56Z</time>
      </trkpt>
      <trkpt lat="45.93371" lon="4.61375">
        <ele>387</ele>
        <time>2016-10-16T09:23:59Z</time>
      </trkpt>
      <trkpt lat="45.93373" lon="4.61373">
        <ele>387</ele>
        <time>2016-10-16T09:24:00Z</time>
      </trkpt>
      <trkpt lat="45.9338" lon="4.61367">
        <ele>387</ele>
        <time>2016-10-16T09:24:03Z</time>
      </trkpt>
      <trkpt lat="45.93382" lon="4.61366">
        <ele>387</ele>
        <time>2016-10-16T09:24:04Z</time>
      </trkpt>
      <trkpt lat="45.9339" lon="4.61363">
        <ele>387</ele>
        <time>2016-10-16T09:24:07Z</time>
      </trkpt>
      <trkpt lat="45.93393" lon="4.61362">
        <ele>387</ele>
        <time>2016-10-16T09:24:08Z</time>
      </trkpt>
      <trkpt lat="45.93401" lon="4.6136">
        <ele>388</ele>
        <time>2016-10-16T09:24:11Z</time>
      </trkpt>
      <trkpt lat="45.93403" lon="4.61359">
        <ele>388</ele>
        <time>2016-10-16T09:24:12Z</time>
      </trkpt>
      <trkpt lat="45.9341" lon="4.61356">
        <ele>388</ele>
        <time>2016-10-16T09:24:15Z</time>
      </trkpt>
      <trkpt lat="45.93413" lon="4.61355">
        <ele>388</ele>
        <time>2016-10-16T09:24:16Z</time>
      </trkpt>
      <trkpt lat="45.9342" lon="4.61352">
        <ele>386</ele>
        <time>2016-10-16T09:24:19Z</time>
      </trkpt>
      <trkpt lat="45.93423" lon="4.6135">
        <ele>386</ele>
        <time>2016-10-16T09:24:20Z</time>
      </trkpt>
      <trkpt lat="45.9343" lon="4.61347">
        <ele>386</ele>
        <time>2016-10-16T09:24:22Z</time>
      </trkpt>
      <trkpt lat="45.93433" lon="4.61345">
        <ele>386</ele>
        <time>2016-10-16T09:24:23Z</time>
      </trkpt>
      <trkpt lat="45.93438" lon="4.61342">
        <ele>386</ele>
        <time>2016-10-16T09:24:25Z</time>
      </trkpt>
      <trkpt lat="45.93441" lon="4.61341">
        <ele>385</ele>
        <time>2016-10-16T09:24:26Z</time>
      </trkpt>
      <trkpt lat="45.93448" lon="4.61335">
        <ele>385</ele>
        <time>2016-10-16T09:24:29Z</time>
      </trkpt>
      <trkpt lat="45.93451" lon="4.61334">
        <ele>385</ele>
        <time>2016-10-16T09:24:30Z</time>
      </trkpt>
      <trkpt lat="45.93458" lon="4.61328">
        <ele>393</ele>
        <time>2016-10-16T09:24:33Z</time>
      </trkpt>
      <trkpt lat="45.9346" lon="4.61326">
        <ele>393</ele>
        <time>2016-10-16T09:24:34Z</time>
      </trkpt>
      <trkpt lat="45.93467" lon="4.61318">
        <ele>393</ele>
        <time>2016-10-16T09:24:37Z</time>
      </trkpt>
      <trkpt lat="45.93469" lon="4.61316">
        <ele>393</ele>
        <time>2016-10-16T09:24:38Z</time>
      </trkpt>
      <trkpt lat="45.93475" lon="4.61308">
        <ele>393</ele>
        <time>2016-10-16T09:24:41Z</time>
      </trkpt>
      <trkpt lat="45.93477" lon="4.61306">
        <ele>393</ele>
        <time>2016-10-16T09:24:42Z</time>
      </trkpt>
      <trkpt lat="45.93483" lon="4.61298">
        <ele>393</ele>
        <time>2016-10-16T09:24:45Z</time>
      </trkpt>
      <trkpt lat="45.93486" lon="4.61295">
        <ele>393</ele>
        <time>2016-10-16T09:24:46Z</time>
      </trkpt>
      <trkpt lat="45.93493" lon="4.61288">
        <ele>394</ele>
        <time>2016-10-16T09:24:49Z</time>
      </trkpt>
      <trkpt lat="45.93496" lon="4.61285">
        <ele>394</ele>
        <time>2016-10-16T09:24:50Z</time>
      </trkpt>
      <trkpt lat="45.93502" lon="4.61276">
        <ele>391</ele>
        <time>2016-10-16T09:24:53Z</time>
      </trkpt>
      <trkpt lat="45.93504" lon="4.61274">
        <ele>392</ele>
        <time>2016-10-16T09:24:54Z</time>
      </trkpt>
      <trkpt lat="45.9351" lon="4.61266">
        <ele>392</ele>
        <time>2016-10-16T09:24:57Z</time>
      </trkpt>
      <trkpt lat="45.93512" lon="4.61263">
        <ele>393</ele>
        <time>2016-10-16T09:24:58Z</time>
      </trkpt>
      <trkpt lat="45.93518" lon="4.61255">
        <ele>393</ele>
        <time>2016-10-16T09:25:01Z</time>
      </trkpt>
      <trkpt lat="45.9352" lon="4.61253">
        <ele>392</ele>
        <time>2016-10-16T09:25:02Z</time>
      </trkpt>
      <trkpt lat="45.93527" lon="4.61245">
        <ele>397</ele>
        <time>2016-10-16T09:25:05Z</time>
      </trkpt>
      <trkpt lat="45.93529" lon="4.61243">
        <ele>397</ele>
        <time>2016-10-16T09:25:06Z</time>
      </trkpt>
      <trkpt lat="45.93534" lon="4.61236">
        <ele>397</ele>
        <time>2016-10-16T09:25:08Z</time>
      </trkpt>
      <trkpt lat="45.93536" lon="4.61232">
        <ele>397</ele>
        <time>2016-10-16T09:25:09Z</time>
      </trkpt>
      <trkpt lat="45.93541" lon="4.61225">
        <ele>397</ele>
        <time>2016-10-16T09:25:11Z</time>
      </trkpt>
      <trkpt lat="45.93543" lon="4.61221">
        <ele>397</ele>
        <time>2016-10-16T09:25:12Z</time>
      </trkpt>
      <trkpt lat="45.93547" lon="4.61214">
        <ele>397</ele>
        <time>2016-10-16T09:25:14Z</time>
      </trkpt>
      <trkpt lat="45.9355" lon="4.61212">
        <ele>397</ele>
        <time>2016-10-16T09:25:15Z</time>
      </trkpt>
      <trkpt lat="45.93555" lon="4.61205">
        <ele>397</ele>
        <time>2016-10-16T09:25:17Z</time>
      </trkpt>
      <trkpt lat="45.93557" lon="4.61202">
        <ele>397</ele>
        <time>2016-10-16T09:25:18Z</time>
      </trkpt>
      <trkpt lat="45.93563" lon="4.61195">
        <ele>397</ele>
        <time>2016-10-16T09:25:21Z</time>
      </trkpt>
      <trkpt lat="45.93565" lon="4.61192">
        <ele>397</ele>
        <time>2016-10-16T09:25:22Z</time>
      </trkpt>
      <trkpt lat="45.9357" lon="4.61183">
        <ele>397</ele>
        <time>2016-10-16T09:25:25Z</time>
      </trkpt>
      <trkpt lat="45.93572" lon="4.6118">
        <ele>397</ele>
        <time>2016-10-16T09:25:26Z</time>
      </trkpt>
      <trkpt lat="45.93576" lon="4.61173">
        <ele>397</ele>
        <time>2016-10-16T09:25:28Z</time>
      </trkpt>
      <trkpt lat="45.93578" lon="4.61169">
        <ele>397</ele>
        <time>2016-10-16T09:25:29Z</time>
      </trkpt>
      <trkpt lat="45.93584" lon="4.61162">
        <ele>397</ele>
        <time>2016-10-16T09:25:31Z</time>
      </trkpt>
      <trkpt lat="45.93586" lon="4.61158">
        <ele>398</ele>
        <time>2016-10-16T09:25:32Z</time>
      </trkpt>
      <trkpt lat="45.93591" lon="4.61151">
        <ele>398</ele>
        <time>2016-10-16T09:25:34Z</time>
      </trkpt>
      <trkpt lat="45.93594" lon="4.61147">
        <ele>398</ele>
        <time>2016-10-16T09:25:35Z</time>
      </trkpt>
      <trkpt lat="45.93601" lon="4.61139">
        <ele>399</ele>
        <time>2016-10-16T09:25:38Z</time>
      </trkpt>
      <trkpt lat="45.93603" lon="4.61136">
        <ele>399</ele>
        <time>2016-10-16T09:25:39Z</time>
      </trkpt>
      <trkpt lat="45.93607" lon="4.61129">
        <ele>399</ele>
        <time>2016-10-16T09:25:41Z</time>
      </trkpt>
      <trkpt lat="45.93609" lon="4.61126">
        <ele>399</ele>
        <time>2016-10-16T09:25:42Z</time>
      </trkpt>
      <trkpt lat="45.93614" lon="4.61116">
        <ele>400</ele>
        <time>2016-10-16T09:25:45Z</time>
      </trkpt>
      <trkpt lat="45.93617" lon="4.61114">
        <ele>400</ele>
        <time>2016-10-16T09:25:46Z</time>
      </trkpt>
      <trkpt lat="45.93622" lon="4.61108">
        <ele>400</ele>
        <time>2016-10-16T09:25:48Z</time>
      </trkpt>
      <trkpt lat="45.93624" lon="4.61105">
        <ele>400</ele>
        <time>2016-10-16T09:25:49Z</time>
      </trkpt>
      <trkpt lat="45.93628" lon="4.61098">
        <ele>400</ele>
        <time>2016-10-16T09:25:51Z</time>
      </trkpt>
      <trkpt lat="45.9363" lon="4.61095">
        <ele>400</ele>
        <time>2016-10-16T09:25:52Z</time>
      </trkpt>
      <trkpt lat="45.93635" lon="4.61085">
        <ele>400</ele>
        <time>2016-10-16T09:25:55Z</time>
      </trkpt>
      <trkpt lat="45.93637" lon="4.61082">
        <ele>405</ele>
        <time>2016-10-16T09:25:56Z</time>
      </trkpt>
      <trkpt lat="45.93643" lon="4.61074">
        <ele>404</ele>
        <time>2016-10-16T09:25:59Z</time>
      </trkpt>
      <trkpt lat="45.93645" lon="4.61071">
        <ele>404</ele>
        <time>2016-10-16T09:26:00Z</time>
      </trkpt>
      <trkpt lat="45.93651" lon="4.61062">
        <ele>405</ele>
        <time>2016-10-16T09:26:03Z</time>
      </trkpt>
      <trkpt lat="45.93653" lon="4.61059">
        <ele>405</ele>
        <time>2016-10-16T09:26:04Z</time>
      </trkpt>
      <trkpt lat="45.93659" lon="4.6105">
        <ele>405</ele>
        <time>2016-10-16T09:26:07Z</time>
      </trkpt>
      <trkpt lat="45.93661" lon="4.61048">
        <ele>405</ele>
        <time>2016-10-16T09:26:08Z</time>
      </trkpt>
      <trkpt lat="45.93668" lon="4.61039">
        <ele>403</ele>
        <time>2016-10-16T09:26:11Z</time>
      </trkpt>
      <trkpt lat="45.9367" lon="4.61036">
        <ele>403</ele>
        <time>2016-10-16T09:26:12Z</time>
      </trkpt>
      <trkpt lat="45.93677" lon="4.61029">
        <ele>403</ele>
        <time>2016-10-16T09:26:15Z</time>
      </trkpt>
      <trkpt lat="45.9368" lon="4.61026">
        <ele>403</ele>
        <time>2016-10-16T09:26:16Z</time>
      </trkpt>
      <trkpt lat="45.93684" lon="4.61021">
        <ele>404</ele>
        <time>2016-10-16T09:26:18Z</time>
      </trkpt>
      <trkpt lat="45.93687" lon="4.61018">
        <ele>404</ele>
        <time>2016-10-16T09:26:19Z</time>
      </trkpt>
      <trkpt lat="45.93692" lon="4.61013">
        <ele>404</ele>
        <time>2016-10-16T09:26:21Z</time>
      </trkpt>
      <trkpt lat="45.93695" lon="4.6101">
        <ele>404</ele>
        <time>2016-10-16T09:26:22Z</time>
      </trkpt>
      <trkpt lat="45.937" lon="4.61005">
        <ele>403</ele>
        <time>2016-10-16T09:26:24Z</time>
      </trkpt>
      <trkpt lat="45.93702" lon="4.61003">
        <ele>403</ele>
        <time>2016-10-16T09:26:25Z</time>
      </trkpt>
      <trkpt lat="45.93707" lon="4.60997">
        <ele>408</ele>
        <time>2016-10-16T09:26:27Z</time>
      </trkpt>
      <trkpt lat="45.93709" lon="4.60994">
        <ele>408</ele>
        <time>2016-10-16T09:26:28Z</time>
      </trkpt>
      <trkpt lat="45.93715" lon="4.60989">
        <ele>408</ele>
        <time>2016-10-16T09:26:30Z</time>
      </trkpt>
      <trkpt lat="45.93719" lon="4.60985">
        <ele>408</ele>
        <time>2016-10-16T09:26:31Z</time>
      </trkpt>
      <trkpt lat="45.93725" lon="4.6098">
        <ele>408</ele>
        <time>2016-10-16T09:26:33Z</time>
      </trkpt>
      <trkpt lat="45.93727" lon="4.60977">
        <ele>408</ele>
        <time>2016-10-16T09:26:34Z</time>
      </trkpt>
      <trkpt lat="45.93733" lon="4.60972">
        <ele>408</ele>
        <time>2016-10-16T09:26:36Z</time>
      </trkpt>
      <trkpt lat="45.93736" lon="4.6097">
        <ele>408</ele>
        <time>2016-10-16T09:26:37Z</time>
      </trkpt>
      <trkpt lat="45.93741" lon="4.60965">
        <ele>408</ele>
        <time>2016-10-16T09:26:39Z</time>
      </trkpt>
      <trkpt lat="45.93743" lon="4.60963">
        <ele>408</ele>
        <time>2016-10-16T09:26:40Z</time>
      </trkpt>
      <trkpt lat="45.93748" lon="4.60958">
        <ele>409</ele>
        <time>2016-10-16T09:26:42Z</time>
      </trkpt>
      <trkpt lat="45.93751" lon="4.60956">
        <ele>409</ele>
        <time>2016-10-16T09:26:43Z</time>
      </trkpt>
      <trkpt lat="45.93756" lon="4.60951">
        <ele>410</ele>
        <time>2016-10-16T09:26:45Z</time>
      </trkpt>
      <trkpt lat="45.93759" lon="4.60949">
        <ele>410</ele>
        <time>2016-10-16T09:26:46Z</time>
      </trkpt>
      <trkpt lat="45.93765" lon="4.60945">
        <ele>410</ele>
        <time>2016-10-16T09:26:48Z</time>
      </trkpt>
      <trkpt lat="45.93767" lon="4.60943">
        <ele>410</ele>
        <time>2016-10-16T09:26:49Z</time>
      </trkpt>
      <trkpt lat="45.93775" lon="4.60937">
        <ele>411</ele>
        <time>2016-10-16T09:26:52Z</time>
      </trkpt>
      <trkpt lat="45.93778" lon="4.60936">
        <ele>411</ele>
        <time>2016-10-16T09:26:53Z</time>
      </trkpt>
      <trkpt lat="45.93786" lon="4.60933">
        <ele>411</ele>
        <time>2016-10-16T09:26:56Z</time>
      </trkpt>
      <trkpt lat="45.93789" lon="4.60932">
        <ele>411</ele>
        <time>2016-10-16T09:26:57Z</time>
      </trkpt>
      <trkpt lat="45.93798" lon="4.60932">
        <ele>411</ele>
        <time>2016-10-16T09:27:00Z</time>
      </trkpt>
      <trkpt lat="45.93801" lon="4.60933">
        <ele>411</ele>
        <time>2016-10-16T09:27:01Z</time>
      </trkpt>
      <trkpt lat="45.93809" lon="4.60934">
        <ele>411</ele>
        <time>2016-10-16T09:27:04Z</time>
      </trkpt>
      <trkpt lat="45.93811" lon="4.60936">
        <ele>411</ele>
        <time>2016-10-16T09:27:05Z</time>
      </trkpt>
      <trkpt lat="45.93818" lon="4.60942">
        <ele>411</ele>
        <time>2016-10-16T09:27:09Z</time>
      </trkpt>
      <trkpt lat="45.9382" lon="4.60945">
        <ele>411</ele>
        <time>2016-10-16T09:27:10Z</time>
      </trkpt>
      <trkpt lat="45.93822" lon="4.60954">
        <ele>411</ele>
        <time>2016-10-16T09:27:13Z</time>
      </trkpt>
      <trkpt lat="45.93822" lon="4.60958">
        <ele>411</ele>
        <time>2016-10-16T09:27:14Z</time>
      </trkpt>
      <trkpt lat="45.93825" lon="4.60967">
        <ele>411</ele>
        <time>2016-10-16T09:27:17Z</time>
      </trkpt>
      <trkpt lat="45.93825" lon="4.6097">
        <ele>411</ele>
        <time>2016-10-16T09:27:18Z</time>
      </trkpt>
      <trkpt lat="45.93827" lon="4.6098">
        <ele>412</ele>
        <time>2016-10-16T09:27:21Z</time>
      </trkpt>
      <trkpt lat="45.93827" lon="4.60984">
        <ele>412</ele>
        <time>2016-10-16T09:27:22Z</time>
      </trkpt>
      <trkpt lat="45.93826" lon="4.60995">
        <ele>413</ele>
        <time>2016-10-16T09:27:25Z</time>
      </trkpt>
      <trkpt lat="45.93827" lon="4.60999">
        <ele>413</ele>
        <time>2016-10-16T09:27:26Z</time>
      </trkpt>
      <trkpt lat="45.93826" lon="4.61009">
        <ele>412</ele>
        <time>2016-10-16T09:27:29Z</time>
      </trkpt>
      <trkpt lat="45.93826" lon="4.61013">
        <ele>412</ele>
        <time>2016-10-16T09:27:30Z</time>
      </trkpt>
      <trkpt lat="45.93825" lon="4.6102">
        <ele>411</ele>
        <time>2016-10-16T09:27:32Z</time>
      </trkpt>
      <trkpt lat="45.93826" lon="4.61026">
        <ele>411</ele>
        <time>2016-10-16T09:27:33Z</time>
      </trkpt>
      <trkpt lat="45.93821" lon="4.61036">
        <ele>411</ele>
        <time>2016-10-16T09:27:36Z</time>
      </trkpt>
      <trkpt lat="45.9382" lon="4.61039">
        <ele>411</ele>
        <time>2016-10-16T09:27:37Z</time>
      </trkpt>
      <trkpt lat="45.93818" lon="4.6105">
        <ele>411</ele>
        <time>2016-10-16T09:27:41Z</time>
      </trkpt>
      <trkpt lat="45.93818" lon="4.61053">
        <ele>411</ele>
        <time>2016-10-16T09:27:42Z</time>
      </trkpt>
      <trkpt lat="45.93815" lon="4.61064">
        <ele>412</ele>
        <time>2016-10-16T09:27:46Z</time>
      </trkpt>
      <trkpt lat="45.93815" lon="4.61067">
        <ele>412</ele>
        <time>2016-10-16T09:27:47Z</time>
      </trkpt>
      <trkpt lat="45.93811" lon="4.61077">
        <ele>412</ele>
        <time>2016-10-16T09:27:50Z</time>
      </trkpt>
      <trkpt lat="45.9381" lon="4.6108">
        <ele>412</ele>
        <time>2016-10-16T09:27:51Z</time>
      </trkpt>
      <trkpt lat="45.93807" lon="4.61091">
        <ele>414</ele>
        <time>2016-10-16T09:27:55Z</time>
      </trkpt>
      <trkpt lat="45.93807" lon="4.61094">
        <ele>414</ele>
        <time>2016-10-16T09:27:56Z</time>
      </trkpt>
      <trkpt lat="45.93805" lon="4.61104">
        <ele>414</ele>
        <time>2016-10-16T09:27:59Z</time>
      </trkpt>
      <trkpt lat="45.93804" lon="4.61108">
        <ele>414</ele>
        <time>2016-10-16T09:28:00Z</time>
      </trkpt>
      <trkpt lat="45.93801" lon="4.6112">
        <ele>414</ele>
        <time>2016-10-16T09:28:04Z</time>
      </trkpt>
      <trkpt lat="45.93801" lon="4.61123">
        <ele>415</ele>
        <time>2016-10-16T09:28:05Z</time>
      </trkpt>
      <trkpt lat="45.93798" lon="4.61134">
        <ele>415</ele>
        <time>2016-10-16T09:28:08Z</time>
      </trkpt>
      <trkpt lat="45.93796" lon="4.61139">
        <ele>415</ele>
        <time>2016-10-16T09:28:09Z</time>
      </trkpt>
      <trkpt lat="45.93793" lon="4.6115">
        <ele>415</ele>
        <time>2016-10-16T09:28:12Z</time>
      </trkpt>
      <trkpt lat="45.93792" lon="4.61153">
        <ele>415</ele>
        <time>2016-10-16T09:28:13Z</time>
      </trkpt>
      <trkpt lat="45.93788" lon="4.61162">
        <ele>415</ele>
        <time>2016-10-16T09:28:16Z</time>
      </trkpt>
      <trkpt lat="45.93787" lon="4.61166">
        <ele>414</ele>
        <time>2016-10-16T09:28:17Z</time>
      </trkpt>
      <trkpt lat="45.93783" lon="4.61176">
        <ele>419</ele>
        <time>2016-10-16T09:28:20Z</time>
      </trkpt>
      <trkpt lat="45.93782" lon="4.61179">
        <ele>419</ele>
        <time>2016-10-16T09:28:21Z</time>
      </trkpt>
      <trkpt lat="45.93778" lon="4.61187">
        <ele>419</ele>
        <time>2016-10-16T09:28:24Z</time>
      </trkpt>
      <trkpt lat="45.93776" lon="4.61189">
        <ele>419</ele>
        <time>2016-10-16T09:28:25Z</time>
      </trkpt>
      <trkpt lat="45.93771" lon="4.61196">
        <ele>419</ele>
        <time>2016-10-16T09:28:29Z</time>
      </trkpt>
      <trkpt lat="45.9377" lon="4.61199">
        <ele>419</ele>
        <time>2016-10-16T09:28:30Z</time>
      </trkpt>
      <trkpt lat="45.93764" lon="4.61207">
        <ele>420</ele>
        <time>2016-10-16T09:28:34Z</time>
      </trkpt>
      <trkpt lat="45.93762" lon="4.61209">
        <ele>420</ele>
        <time>2016-10-16T09:28:35Z</time>
      </trkpt>
      <trkpt lat="45.93757" lon="4.61219">
        <ele>420</ele>
        <time>2016-10-16T09:28:39Z</time>
      </trkpt>
      <trkpt lat="45.93756" lon="4.61222">
        <ele>420</ele>
        <time>2016-10-16T09:28:40Z</time>
      </trkpt>
      <trkpt lat="45.93752" lon="4.6123">
        <ele>420</ele>
        <time>2016-10-16T09:28:43Z</time>
      </trkpt>
      <trkpt lat="45.9375" lon="4.61233">
        <ele>420</ele>
        <time>2016-10-16T09:28:44Z</time>
      </trkpt>
      <trkpt lat="45.93747" lon="4.61244">
        <ele>414</ele>
        <time>2016-10-16T09:28:48Z</time>
      </trkpt>
      <trkpt lat="45.93746" lon="4.61247">
        <ele>415</ele>
        <time>2016-10-16T09:28:49Z</time>
      </trkpt>
      <trkpt lat="45.93745" lon="4.61256">
        <ele>415</ele>
        <time>2016-10-16T09:28:52Z</time>
      </trkpt>
      <trkpt lat="45.93745" lon="4.6126">
        <ele>415</ele>
        <time>2016-10-16T09:28:53Z</time>
      </trkpt>
      <trkpt lat="45.93746" lon="4.61272">
        <ele>413</ele>
        <time>2016-10-16T09:28:57Z</time>
      </trkpt>
      <trkpt lat="45.93747" lon="4.61275">
        <ele>413</ele>
        <time>2016-10-16T09:28:58Z</time>
      </trkpt>
      <trkpt lat="45.93751" lon="4.61284">
        <ele>424</ele>
        <time>2016-10-16T09:29:01Z</time>
      </trkpt>
      <trkpt lat="45.93752" lon="4.61287">
        <ele>425</ele>
        <time>2016-10-16T09:29:02Z</time>
      </trkpt>
      <trkpt lat="45.93757" lon="4.61295">
        <ele>425</ele>
        <time>2016-10-16T09:29:05Z</time>
      </trkpt>
      <trkpt lat="45.93759" lon="4.61297">
        <ele>425</ele>
        <time>2016-10-16T09:29:06Z</time>
      </trkpt>
      <trkpt lat="45.93765" lon="4.61303">
        <ele>425</ele>
        <time>2016-10-16T09:29:09Z</time>
      </trkpt>
      <trkpt lat="45.93766" lon="4.61306">
        <ele>425</ele>
        <time>2016-10-16T09:29:10Z</time>
      </trkpt>
      <trkpt lat="45.93772" lon="4.61314">
        <ele>426</ele>
        <time>2016-10-16T09:29:13Z</time>
      </trkpt>
      <trkpt lat="45.93773" lon="4.61317">
        <ele>426</ele>
        <time>2016-10-16T09:29:14Z</time>
      </trkpt>
      <trkpt lat="45.9378" lon="4.61326">
        <ele>426</ele>
        <time>2016-10-16T09:29:18Z</time>
      </trkpt>
      <trkpt lat="45.93782" lon="4.61328">
        <ele>427</ele>
        <time>2016-10-16T09:29:19Z</time>
      </trkpt>
      <trkpt lat="45.93788" lon="4.61335">
        <ele>427</ele>
        <time>2016-10-16T09:29:23Z</time>
      </trkpt>
      <trkpt lat="45.9379" lon="4.61337">
        <ele>428</ele>
        <time>2016-10-16T09:29:24Z</time>
      </trkpt>
      <trkpt lat="45.93796" lon="4.61345">
        <ele>428</ele>
        <time>2016-10-16T09:29:28Z</time>
      </trkpt>
      <trkpt lat="45.93797" lon="4.61348">
        <ele>428</ele>
        <time>2016-10-16T09:29:29Z</time>
      </trkpt>
      <trkpt lat="45.93803" lon="4.61356">
        <ele>429</ele>
        <time>2016-10-16T09:29:33Z</time>
      </trkpt>
      <trkpt lat="45.93803" lon="4.61362">
        <ele>429</ele>
        <time>2016-10-16T09:29:34Z</time>
      </trkpt>
      <trkpt lat="45.93809" lon="4.6137">
        <ele>429</ele>
        <time>2016-10-16T09:29:39Z</time>
      </trkpt>
      <trkpt lat="45.93811" lon="4.61371">
        <ele>429</ele>
        <time>2016-10-16T09:29:40Z</time>
      </trkpt>
      <trkpt lat="45.93817" lon="4.6138">
        <ele>429</ele>
        <time>2016-10-16T09:29:44Z</time>
      </trkpt>
      <trkpt lat="45.93819" lon="4.61382">
        <ele>430</ele>
        <time>2016-10-16T09:29:45Z</time>
      </trkpt>
      <trkpt lat="45.93821" lon="4.61394">
        <ele>430</ele>
        <time>2016-10-16T09:29:50Z</time>
      </trkpt>
      <trkpt lat="45.93822" lon="4.61397">
        <ele>430</ele>
        <time>2016-10-16T09:29:51Z</time>
      </trkpt>
      <trkpt lat="45.93824" lon="4.61407">
        <ele>431</ele>
        <time>2016-10-16T09:29:55Z</time>
      </trkpt>
      <trkpt lat="45.93825" lon="4.61411">
        <ele>432</ele>
        <time>2016-10-16T09:29:56Z</time>
      </trkpt>
      <trkpt lat="45.93825" lon="4.6142">
        <ele>432</ele>
        <time>2016-10-16T09:29:58Z</time>
      </trkpt>
      <trkpt lat="45.93825" lon="4.61424">
        <ele>432</ele>
        <time>2016-10-16T09:29:59Z</time>
      </trkpt>
      <trkpt lat="45.93831" lon="4.61432">
        <ele>431</ele>
        <time>2016-10-16T09:30:02Z</time>
      </trkpt>
      <trkpt lat="45.93833" lon="4.61435">
        <ele>431</ele>
        <time>2016-10-16T09:30:03Z</time>
      </trkpt>
      <trkpt lat="45.93835" lon="4.61445">
        <ele>438</ele>
        <time>2016-10-16T09:30:06Z</time>
      </trkpt>
      <trkpt lat="45.93836" lon="4.61448">
        <ele>438</ele>
        <time>2016-10-16T09:30:07Z</time>
      </trkpt>
      <trkpt lat="45.93838" lon="4.6146">
        <ele>439</ele>
        <time>2016-10-16T09:30:11Z</time>
      </trkpt>
      <trkpt lat="45.93837" lon="4.61464">
        <ele>439</ele>
        <time>2016-10-16T09:30:12Z</time>
      </trkpt>
      <trkpt lat="45.93836" lon="4.61475">
        <ele>438</ele>
        <time>2016-10-16T09:30:15Z</time>
      </trkpt>
      <trkpt lat="45.93836" lon="4.61478">
        <ele>438</ele>
        <time>2016-10-16T09:30:16Z</time>
      </trkpt>
      <trkpt lat="45.93838" lon="4.61489">
        <ele>437</ele>
        <time>2016-10-16T09:30:20Z</time>
      </trkpt>
      <trkpt lat="45.93839" lon="4.61493">
        <ele>437</ele>
        <time>2016-10-16T09:30:21Z</time>
      </trkpt>
      <trkpt lat="45.93838" lon="4.61505">
        <ele>437</ele>
        <time>2016-10-16T09:30:24Z</time>
      </trkpt>
      <trkpt lat="45.93839" lon="4.61508">
        <ele>437</ele>
        <time>2016-10-16T09:30:25Z</time>
      </trkpt>
      <trkpt lat="45.93838" lon="4.61521">
        <ele>439</ele>
        <time>2016-10-16T09:30:29Z</time>
      </trkpt>
      <trkpt lat="45.93839" lon="4.61524">
        <ele>439</ele>
        <time>2016-10-16T09:30:30Z</time>
      </trkpt>
      <trkpt lat="45.93841" lon="4.61533">
        <ele>439</ele>
        <time>2016-10-16T09:30:33Z</time>
      </trkpt>
      <trkpt lat="45.93841" lon="4.61536">
        <ele>440</ele>
        <time>2016-10-16T09:30:34Z</time>
      </trkpt>
      <trkpt lat="45.93842" lon="4.61547">
        <ele>440</ele>
        <time>2016-10-16T09:30:38Z</time>
      </trkpt>
      <trkpt lat="45.93842" lon="4.6155">
        <ele>440</ele>
        <time>2016-10-16T09:30:39Z</time>
      </trkpt>
      <trkpt lat="45.93844" lon="4.61559">
        <ele>439</ele>
        <time>2016-10-16T09:30:42Z</time>
      </trkpt>
      <trkpt lat="45.93845" lon="4.61563">
        <ele>439</ele>
        <time>2016-10-16T09:30:43Z</time>
      </trkpt>
      <trkpt lat="45.93846" lon="4.61572">
        <ele>439</ele>
        <time>2016-10-16T09:30:46Z</time>
      </trkpt>
      <trkpt lat="45.93846" lon="4.61576">
        <ele>439</ele>
        <time>2016-10-16T09:30:47Z</time>
      </trkpt>
      <trkpt lat="45.9385" lon="4.61587">
        <ele>439</ele>
        <time>2016-10-16T09:30:51Z</time>
      </trkpt>
      <trkpt lat="45.9385" lon="4.6159">
        <ele>440</ele>
        <time>2016-10-16T09:30:52Z</time>
      </trkpt>
      <trkpt lat="45.93851" lon="4.61602">
        <ele>440</ele>
        <time>2016-10-16T09:30:56Z</time>
      </trkpt>
      <trkpt lat="45.93852" lon="4.61606">
        <ele>441</ele>
        <time>2016-10-16T09:30:57Z</time>
      </trkpt>
      <trkpt lat="45.93853" lon="4.61617">
        <ele>441</ele>
        <time>2016-10-16T09:31:01Z</time>
      </trkpt>
      <trkpt lat="45.93855" lon="4.6162">
        <ele>441</ele>
        <time>2016-10-16T09:31:02Z</time>
      </trkpt>
      <trkpt lat="45.93861" lon="4.61626">
        <ele>442</ele>
        <time>2016-10-16T09:31:05Z</time>
      </trkpt>
      <trkpt lat="45.93863" lon="4.61627">
        <ele>442</ele>
        <time>2016-10-16T09:31:06Z</time>
      </trkpt>
      <trkpt lat="45.93871" lon="4.61626">
        <ele>443</ele>
        <time>2016-10-16T09:31:12Z</time>
      </trkpt>
      <trkpt lat="45.93872" lon="4.61625">
        <ele>443</ele>
        <time>2016-10-16T09:31:13Z</time>
      </trkpt>
      <trkpt lat="45.93879" lon="4.61619">
        <ele>443</ele>
        <time>2016-10-16T09:31:17Z</time>
      </trkpt>
      <trkpt lat="45.9388" lon="4.61618">
        <ele>443</ele>
        <time>2016-10-16T09:31:18Z</time>
      </trkpt>
      <trkpt lat="45.93888" lon="4.61613">
        <ele>444</ele>
        <time>2016-10-16T09:31:23Z</time>
      </trkpt>
      <trkpt lat="45.9389" lon="4.61612">
        <ele>444</ele>
        <time>2016-10-16T09:31:24Z</time>
      </trkpt>
      <trkpt lat="45.93898" lon="4.61607">
        <ele>445</ele>
        <time>2016-10-16T09:31:30Z</time>
      </trkpt>
      <trkpt lat="45.93899" lon="4.61606">
        <ele>445</ele>
        <time>2016-10-16T09:31:31Z</time>
      </trkpt>
      <trkpt lat="45.93908" lon="4.61605">
        <ele>445</ele>
        <time>2016-10-16T09:31:36Z</time>
      </trkpt>
      <trkpt lat="45.9391" lon="4.61605">
        <ele>445</ele>
        <time>2016-10-16T09:31:37Z</time>
      </trkpt>
      <trkpt lat="45.93912" lon="4.61604">
        <ele>446</ele>
        <time>2016-10-16T09:31:38Z</time>
      </trkpt>
      <trkpt lat="45.93913" lon="4.61604">
        <ele>446</ele>
        <time>2016-10-16T09:31:39Z</time>
      </trkpt>
      <trkpt lat="45.93921" lon="4.61602">
        <ele>452</ele>
        <time>2016-10-16T09:31:46Z</time>
      </trkpt>
      <trkpt lat="45.93923" lon="4.61601">
        <ele>452</ele>
        <time>2016-10-16T09:31:47Z</time>
      </trkpt>
      <trkpt lat="45.93923" lon="4.616">
        <ele>452</ele>
        <time>2016-10-16T09:31:48Z</time>
      </trkpt>
      <trkpt lat="45.93925" lon="4.61598">
        <ele>452</ele>
        <time>2016-10-16T09:31:50Z</time>
      </trkpt>
      <trkpt lat="45.93929" lon="4.61589">
        <ele>451</ele>
        <time>2016-10-16T09:31:54Z</time>
      </trkpt>
      <trkpt lat="45.9393" lon="4.61586">
        <ele>451</ele>
        <time>2016-10-16T09:31:55Z</time>
      </trkpt>
      <trkpt lat="45.93933" lon="4.61574">
        <ele>451</ele>
        <time>2016-10-16T09:31:58Z</time>
      </trkpt>
      <trkpt lat="45.93934" lon="4.61571">
        <ele>451</ele>
        <time>2016-10-16T09:31:59Z</time>
      </trkpt>
      <trkpt lat="45.93938" lon="4.6156">
        <ele>452</ele>
        <time>2016-10-16T09:32:03Z</time>
      </trkpt>
      <trkpt lat="45.93938" lon="4.61558">
        <ele>452</ele>
        <time>2016-10-16T09:32:04Z</time>
      </trkpt>
      <trkpt lat="45.93941" lon="4.61548">
        <ele>452</ele>
        <time>2016-10-16T09:32:08Z</time>
      </trkpt>
      <trkpt lat="45.93942" lon="4.61546">
        <ele>452</ele>
        <time>2016-10-16T09:32:09Z</time>
      </trkpt>
      <trkpt lat="45.93945" lon="4.61536">
        <ele>452</ele>
        <time>2016-10-16T09:32:12Z</time>
      </trkpt>
      <trkpt lat="45.93946" lon="4.61533">
        <ele>452</ele>
        <time>2016-10-16T09:32:13Z</time>
      </trkpt>
      <trkpt lat="45.9395" lon="4.61525">
        <ele>452</ele>
        <time>2016-10-16T09:32:16Z</time>
      </trkpt>
      <trkpt lat="45.93951" lon="4.61521">
        <ele>452</ele>
        <time>2016-10-16T09:32:17Z</time>
      </trkpt>
      <trkpt lat="45.93955" lon="4.61512">
        <ele>453</ele>
        <time>2016-10-16T09:32:20Z</time>
      </trkpt>
      <trkpt lat="45.93956" lon="4.61509">
        <ele>453</ele>
        <time>2016-10-16T09:32:21Z</time>
      </trkpt>
      <trkpt lat="45.93958" lon="4.615">
        <ele>452</ele>
        <time>2016-10-16T09:32:24Z</time>
      </trkpt>
      <trkpt lat="45.93959" lon="4.61496">
        <ele>452</ele>
        <time>2016-10-16T09:32:25Z</time>
      </trkpt>
      <trkpt lat="45.9396" lon="4.61486">
        <ele>452</ele>
        <time>2016-10-16T09:32:28Z</time>
      </trkpt>
      <trkpt lat="45.93962" lon="4.61483">
        <ele>453</ele>
        <time>2016-10-16T09:32:29Z</time>
      </trkpt>
      <trkpt lat="45.93967" lon="4.61474">
        <ele>453</ele>
        <time>2016-10-16T09:32:32Z</time>
      </trkpt>
      <trkpt lat="45.93968" lon="4.61472">
        <ele>453</ele>
        <time>2016-10-16T09:32:33Z</time>
      </trkpt>
      <trkpt lat="45.93975" lon="4.61464">
        <ele>453</ele>
        <time>2016-10-16T09:32:37Z</time>
      </trkpt>
      <trkpt lat="45.93977" lon="4.61463">
        <ele>453</ele>
        <time>2016-10-16T09:32:38Z</time>
      </trkpt>
      <trkpt lat="45.93984" lon="4.61455">
        <ele>454</ele>
        <time>2016-10-16T09:32:42Z</time>
      </trkpt>
      <trkpt lat="45.93985" lon="4.61451">
        <ele>454</ele>
        <time>2016-10-16T09:32:43Z</time>
      </trkpt>
      <trkpt lat="45.93986" lon="4.61442">
        <ele>454</ele>
        <time>2016-10-16T09:32:46Z</time>
      </trkpt>
      <trkpt lat="45.93986" lon="4.61438">
        <ele>454</ele>
        <time>2016-10-16T09:32:47Z</time>
      </trkpt>
      <trkpt lat="45.9399" lon="4.61427">
        <ele>455</ele>
        <time>2016-10-16T09:32:51Z</time>
      </trkpt>
      <trkpt lat="45.93991" lon="4.61424">
        <ele>455</ele>
        <time>2016-10-16T09:32:52Z</time>
      </trkpt>
      <trkpt lat="45.93996" lon="4.61414">
        <ele>456</ele>
        <time>2016-10-16T09:32:56Z</time>
      </trkpt>
      <trkpt lat="45.93998" lon="4.61413">
        <ele>456</ele>
        <time>2016-10-16T09:32:57Z</time>
      </trkpt>
      <trkpt lat="45.94002" lon="4.61404">
        <ele>459</ele>
        <time>2016-10-16T09:33:00Z</time>
      </trkpt>
      <trkpt lat="45.94004" lon="4.614">
        <ele>459</ele>
        <time>2016-10-16T09:33:01Z</time>
      </trkpt>
      <trkpt lat="45.94008" lon="4.6139">
        <ele>460</ele>
        <time>2016-10-16T09:33:04Z</time>
      </trkpt>
      <trkpt lat="45.94009" lon="4.61387">
        <ele>460</ele>
        <time>2016-10-16T09:33:05Z</time>
      </trkpt>
      <trkpt lat="45.94013" lon="4.6138">
        <ele>461</ele>
        <time>2016-10-16T09:33:08Z</time>
      </trkpt>
      <trkpt lat="45.94015" lon="4.61378">
        <ele>461</ele>
        <time>2016-10-16T09:33:09Z</time>
      </trkpt>
      <trkpt lat="45.94017" lon="4.61369">
        <ele>461</ele>
        <time>2016-10-16T09:33:12Z</time>
      </trkpt>
      <trkpt lat="45.94019" lon="4.61366">
        <ele>461</ele>
        <time>2016-10-16T09:33:13Z</time>
      </trkpt>
      <trkpt lat="45.94024" lon="4.61359">
        <ele>461</ele>
        <time>2016-10-16T09:33:16Z</time>
      </trkpt>
      <trkpt lat="45.94026" lon="4.61357">
        <ele>461</ele>
        <time>2016-10-16T09:33:17Z</time>
      </trkpt>
      <trkpt lat="45.94029" lon="4.61349">
        <ele>461</ele>
        <time>2016-10-16T09:33:20Z</time>
      </trkpt>
      <trkpt lat="45.9403" lon="4.61345">
        <ele>461</ele>
        <time>2016-10-16T09:33:21Z</time>
      </trkpt>
      <trkpt lat="45.94034" lon="4.61338">
        <ele>461</ele>
        <time>2016-10-16T09:33:24Z</time>
      </trkpt>
      <trkpt lat="45.94036" lon="4.61335">
        <ele>461</ele>
        <time>2016-10-16T09:33:25Z</time>
      </trkpt>
      <trkpt lat="45.94038" lon="4.61325">
        <ele>462</ele>
        <time>2016-10-16T09:33:28Z</time>
      </trkpt>
      <trkpt lat="45.94039" lon="4.61322">
        <ele>462</ele>
        <time>2016-10-16T09:33:29Z</time>
      </trkpt>
      <trkpt lat="45.94041" lon="4.61311">
        <ele>462</ele>
        <time>2016-10-16T09:33:32Z</time>
      </trkpt>
      <trkpt lat="45.94042" lon="4.61307">
        <ele>463</ele>
        <time>2016-10-16T09:33:33Z</time>
      </trkpt>
      <trkpt lat="45.94045" lon="4.61296">
        <ele>463</ele>
        <time>2016-10-16T09:33:37Z</time>
      </trkpt>
      <trkpt lat="45.94046" lon="4.61293">
        <ele>463</ele>
        <time>2016-10-16T09:33:38Z</time>
      </trkpt>
      <trkpt lat="45.94047" lon="4.61283">
        <ele>463</ele>
        <time>2016-10-16T09:33:41Z</time>
      </trkpt>
      <trkpt lat="45.94047" lon="4.6128">
        <ele>463</ele>
        <time>2016-10-16T09:33:42Z</time>
      </trkpt>
      <trkpt lat="45.94048" lon="4.61269">
        <ele>464</ele>
        <time>2016-10-16T09:33:45Z</time>
      </trkpt>
      <trkpt lat="45.94047" lon="4.61266">
        <ele>464</ele>
        <time>2016-10-16T09:33:46Z</time>
      </trkpt>
      <trkpt lat="45.94047" lon="4.61255">
        <ele>464</ele>
        <time>2016-10-16T09:33:49Z</time>
      </trkpt>
      <trkpt lat="45.94046" lon="4.61252">
        <ele>464</ele>
        <time>2016-10-16T09:33:50Z</time>
      </trkpt>
      <trkpt lat="45.94046" lon="4.6124">
        <ele>465</ele>
        <time>2016-10-16T09:33:53Z</time>
      </trkpt>
      <trkpt lat="45.94047" lon="4.61236">
        <ele>465</ele>
        <time>2016-10-16T09:33:54Z</time>
      </trkpt>
      <trkpt lat="45.94045" lon="4.61225">
        <ele>465</ele>
        <time>2016-10-16T09:33:57Z</time>
      </trkpt>
      <trkpt lat="45.94045" lon="4.61222">
        <ele>465</ele>
        <time>2016-10-16T09:33:58Z</time>
      </trkpt>
      <trkpt lat="45.94043" lon="4.61212">
        <ele>465</ele>
        <time>2016-10-16T09:34:01Z</time>
      </trkpt>
      <trkpt lat="45.94043" lon="4.61209">
        <ele>465</ele>
        <time>2016-10-16T09:34:02Z</time>
      </trkpt>
      <trkpt lat="45.94039" lon="4.61197">
        <ele>465</ele>
        <time>2016-10-16T09:34:06Z</time>
      </trkpt>
      <trkpt lat="45.94039" lon="4.61194">
        <ele>465</ele>
        <time>2016-10-16T09:34:07Z</time>
      </trkpt>
      <trkpt lat="45.94037" lon="4.61181">
        <ele>465</ele>
        <time>2016-10-16T09:34:11Z</time>
      </trkpt>
      <trkpt lat="45.94036" lon="4.61178">
        <ele>465</ele>
        <time>2016-10-16T09:34:12Z</time>
      </trkpt>
      <trkpt lat="45.94035" lon="4.61166">
        <ele>466</ele>
        <time>2016-10-16T09:34:16Z</time>
      </trkpt>
      <trkpt lat="45.94034" lon="4.61163">
        <ele>466</ele>
        <time>2016-10-16T09:34:17Z</time>
      </trkpt>
      <trkpt lat="45.94032" lon="4.61151">
        <ele>466</ele>
        <time>2016-10-16T09:34:21Z</time>
      </trkpt>
      <trkpt lat="45.94032" lon="4.61148">
        <ele>466</ele>
        <time>2016-10-16T09:34:22Z</time>
      </trkpt>
      <trkpt lat="45.9403" lon="4.61138">
        <ele>467</ele>
        <time>2016-10-16T09:34:25Z</time>
      </trkpt>
      <trkpt lat="45.94029" lon="4.61134">
        <ele>467</ele>
        <time>2016-10-16T09:34:26Z</time>
      </trkpt>
      <trkpt lat="45.94029" lon="4.61122">
        <ele>467</ele>
        <time>2016-10-16T09:34:29Z</time>
      </trkpt>
      <trkpt lat="45.94029" lon="4.61117">
        <ele>467</ele>
        <time>2016-10-16T09:34:30Z</time>
      </trkpt>
      <trkpt lat="45.94028" lon="4.61105">
        <ele>467</ele>
        <time>2016-10-16T09:34:34Z</time>
      </trkpt>
      <trkpt lat="45.94027" lon="4.61102">
        <ele>467</ele>
        <time>2016-10-16T09:34:35Z</time>
      </trkpt>
      <trkpt lat="45.94025" lon="4.61094">
        <ele>467</ele>
        <time>2016-10-16T09:34:38Z</time>
      </trkpt>
      <trkpt lat="45.94024" lon="4.6109">
        <ele>466</ele>
        <time>2016-10-16T09:34:39Z</time>
      </trkpt>
      <trkpt lat="45.94025" lon="4.61077">
        <ele>467</ele>
        <time>2016-10-16T09:34:42Z</time>
      </trkpt>
      <trkpt lat="45.94026" lon="4.61074">
        <ele>467</ele>
        <time>2016-10-16T09:34:43Z</time>
      </trkpt>
      <trkpt lat="45.94028" lon="4.61062">
        <ele>467</ele>
        <time>2016-10-16T09:34:47Z</time>
      </trkpt>
      <trkpt lat="45.94029" lon="4.61059">
        <ele>467</ele>
        <time>2016-10-16T09:34:48Z</time>
      </trkpt>
      <trkpt lat="45.94032" lon="4.61049">
        <ele>468</ele>
        <time>2016-10-16T09:34:51Z</time>
      </trkpt>
      <trkpt lat="45.94033" lon="4.61046">
        <ele>468</ele>
        <time>2016-10-16T09:34:52Z</time>
      </trkpt>
      <trkpt lat="45.94039" lon="4.61039">
        <ele>468</ele>
        <time>2016-10-16T09:34:55Z</time>
      </trkpt>
      <trkpt lat="45.94041" lon="4.61036">
        <ele>468</ele>
        <time>2016-10-16T09:34:56Z</time>
      </trkpt>
      <trkpt lat="45.94047" lon="4.61029">
        <ele>469</ele>
        <time>2016-10-16T09:34:59Z</time>
      </trkpt>
      <trkpt lat="45.94049" lon="4.61026">
        <ele>469</ele>
        <time>2016-10-16T09:35:00Z</time>
      </trkpt>
      <trkpt lat="45.94054" lon="4.6102">
        <ele>470</ele>
        <time>2016-10-16T09:35:02Z</time>
      </trkpt>
      <trkpt lat="45.94056" lon="4.61018">
        <ele>470</ele>
        <time>2016-10-16T09:35:03Z</time>
      </trkpt>
      <trkpt lat="45.94061" lon="4.61011">
        <ele>471</ele>
        <time>2016-10-16T09:35:06Z</time>
      </trkpt>
      <trkpt lat="45.94063" lon="4.61008">
        <ele>472</ele>
        <time>2016-10-16T09:35:07Z</time>
      </trkpt>
      <trkpt lat="45.9407" lon="4.61002">
        <ele>473</ele>
        <time>2016-10-16T09:35:10Z</time>
      </trkpt>
      <trkpt lat="45.94071" lon="4.60999">
        <ele>472</ele>
        <time>2016-10-16T09:35:11Z</time>
      </trkpt>
      <trkpt lat="45.94076" lon="4.60989">
        <ele>472</ele>
        <time>2016-10-16T09:35:15Z</time>
      </trkpt>
      <trkpt lat="45.94078" lon="4.60987">
        <ele>471</ele>
        <time>2016-10-16T09:35:16Z</time>
      </trkpt>
      <trkpt lat="45.94083" lon="4.60977">
        <ele>470</ele>
        <time>2016-10-16T09:35:20Z</time>
      </trkpt>
      <trkpt lat="45.94084" lon="4.60975">
        <ele>479</ele>
        <time>2016-10-16T09:35:21Z</time>
      </trkpt>
      <trkpt lat="45.9409" lon="4.60968">
        <ele>479</ele>
        <time>2016-10-16T09:35:24Z</time>
      </trkpt>
      <trkpt lat="45.94091" lon="4.60966">
        <ele>479</ele>
        <time>2016-10-16T09:35:25Z</time>
      </trkpt>
      <trkpt lat="45.94097" lon="4.60957">
        <ele>479</ele>
        <time>2016-10-16T09:35:29Z</time>
      </trkpt>
      <trkpt lat="45.94098" lon="4.60954">
        <ele>479</ele>
        <time>2016-10-16T09:35:30Z</time>
      </trkpt>
      <trkpt lat="45.94101" lon="4.60946">
        <ele>478</ele>
        <time>2016-10-16T09:35:33Z</time>
      </trkpt>
      <trkpt lat="45.94105" lon="4.60944">
        <ele>479</ele>
        <time>2016-10-16T09:35:34Z</time>
      </trkpt>
      <trkpt lat="45.94112" lon="4.60937">
        <ele>479</ele>
        <time>2016-10-16T09:35:37Z</time>
      </trkpt>
      <trkpt lat="45.94113" lon="4.60935">
        <ele>479</ele>
        <time>2016-10-16T09:35:38Z</time>
      </trkpt>
      <trkpt lat="45.94119" lon="4.60927">
        <ele>480</ele>
        <time>2016-10-16T09:35:42Z</time>
      </trkpt>
      <trkpt lat="45.9412" lon="4.60926">
        <ele>480</ele>
        <time>2016-10-16T09:35:43Z</time>
      </trkpt>
      <trkpt lat="45.94125" lon="4.60915">
        <ele>478</ele>
        <time>2016-10-16T09:35:47Z</time>
      </trkpt>
      <trkpt lat="45.94127" lon="4.60913">
        <ele>478</ele>
        <time>2016-10-16T09:35:48Z</time>
      </trkpt>
      <trkpt lat="45.94132" lon="4.60906">
        <ele>479</ele>
        <time>2016-10-16T09:35:51Z</time>
      </trkpt>
      <trkpt lat="45.94134" lon="4.60904">
        <ele>479</ele>
        <time>2016-10-16T09:35:52Z</time>
      </trkpt>
      <trkpt lat="45.9414" lon="4.60896">
        <ele>479</ele>
        <time>2016-10-16T09:35:57Z</time>
      </trkpt>
      <trkpt lat="45.94142" lon="4.60894">
        <ele>479</ele>
        <time>2016-10-16T09:35:58Z</time>
      </trkpt>
      <trkpt lat="45.94147" lon="4.60885">
        <ele>479</ele>
        <time>2016-10-16T09:36:03Z</time>
      </trkpt>
      <trkpt lat="45.9415" lon="4.60884">
        <ele>479</ele>
        <time>2016-10-16T09:36:04Z</time>
      </trkpt>
      <trkpt lat="45.94157" lon="4.60878">
        <ele>480</ele>
        <time>2016-10-16T09:36:08Z</time>
      </trkpt>
      <trkpt lat="45.94158" lon="4.60875">
        <ele>479</ele>
        <time>2016-10-16T09:36:09Z</time>
      </trkpt>
      <trkpt lat="45.94163" lon="4.60868">
        <ele>479</ele>
        <time>2016-10-16T09:36:12Z</time>
      </trkpt>
      <trkpt lat="45.94165" lon="4.60865">
        <ele>480</ele>
        <time>2016-10-16T09:36:13Z</time>
      </trkpt>
      <trkpt lat="45.94171" lon="4.60859">
        <ele>488</ele>
        <time>2016-10-16T09:36:16Z</time>
      </trkpt>
      <trkpt lat="45.94173" lon="4.60857">
        <ele>488</ele>
        <time>2016-10-16T09:36:17Z</time>
      </trkpt>
      <trkpt lat="45.94179" lon="4.60848">
        <ele>487</ele>
        <time>2016-10-16T09:36:21Z</time>
      </trkpt>
      <trkpt lat="45.94181" lon="4.60846">
        <ele>487</ele>
        <time>2016-10-16T09:36:22Z</time>
      </trkpt>
      <trkpt lat="45.94188" lon="4.60838">
        <ele>488</ele>
        <time>2016-10-16T09:36:26Z</time>
      </trkpt>
      <trkpt lat="45.9419" lon="4.60837">
        <ele>488</ele>
        <time>2016-10-16T09:36:27Z</time>
      </trkpt>
      <trkpt lat="45.94195" lon="4.60829">
        <ele>486</ele>
        <time>2016-10-16T09:36:30Z</time>
      </trkpt>
      <trkpt lat="45.94197" lon="4.60827">
        <ele>486</ele>
        <time>2016-10-16T09:36:31Z</time>
      </trkpt>
      <trkpt lat="45.94203" lon="4.60818">
        <ele>487</ele>
        <time>2016-10-16T09:36:35Z</time>
      </trkpt>
      <trkpt lat="45.94205" lon="4.60817">
        <ele>487</ele>
        <time>2016-10-16T09:36:36Z</time>
      </trkpt>
      <trkpt lat="45.9421" lon="4.6081">
        <ele>487</ele>
        <time>2016-10-16T09:36:39Z</time>
      </trkpt>
      <trkpt lat="45.94212" lon="4.60808">
        <ele>487</ele>
        <time>2016-10-16T09:36:40Z</time>
      </trkpt>
      <trkpt lat="45.94217" lon="4.60802">
        <ele>488</ele>
        <time>2016-10-16T09:36:43Z</time>
      </trkpt>
      <trkpt lat="45.94219" lon="4.608">
        <ele>488</ele>
        <time>2016-10-16T09:36:44Z</time>
      </trkpt>
      <trkpt lat="45.94226" lon="4.60794">
        <ele>488</ele>
        <time>2016-10-16T09:36:48Z</time>
      </trkpt>
      <trkpt lat="45.94227" lon="4.60792">
        <ele>488</ele>
        <time>2016-10-16T09:36:49Z</time>
      </trkpt>
      <trkpt lat="45.94233" lon="4.60783">
        <ele>488</ele>
        <time>2016-10-16T09:36:54Z</time>
      </trkpt>
      <trkpt lat="45.94235" lon="4.60782">
        <ele>488</ele>
        <time>2016-10-16T09:36:55Z</time>
      </trkpt>
      <trkpt lat="45.94241" lon="4.60776">
        <ele>489</ele>
        <time>2016-10-16T09:36:58Z</time>
      </trkpt>
      <trkpt lat="45.94243" lon="4.60773">
        <ele>489</ele>
        <time>2016-10-16T09:36:59Z</time>
      </trkpt>
      <trkpt lat="45.9425" lon="4.60767">
        <ele>496</ele>
        <time>2016-10-16T09:37:02Z</time>
      </trkpt>
      <trkpt lat="45.94252" lon="4.60765">
        <ele>496</ele>
        <time>2016-10-16T09:37:03Z</time>
      </trkpt>
      <trkpt lat="45.94259" lon="4.60758">
        <ele>495</ele>
        <time>2016-10-16T09:37:07Z</time>
      </trkpt>
      <trkpt lat="45.9426" lon="4.60756">
        <ele>495</ele>
        <time>2016-10-16T09:37:08Z</time>
      </trkpt>
      <trkpt lat="45.94267" lon="4.60747">
        <ele>493</ele>
        <time>2016-10-16T09:37:12Z</time>
      </trkpt>
      <trkpt lat="45.94269" lon="4.60744">
        <ele>493</ele>
        <time>2016-10-16T09:37:13Z</time>
      </trkpt>
      <trkpt lat="45.94275" lon="4.60738">
        <ele>494</ele>
        <time>2016-10-16T09:37:16Z</time>
      </trkpt>
      <trkpt lat="45.94277" lon="4.60735">
        <ele>494</ele>
        <time>2016-10-16T09:37:17Z</time>
      </trkpt>
      <trkpt lat="45.94283" lon="4.60725">
        <ele>494</ele>
        <time>2016-10-16T09:37:21Z</time>
      </trkpt>
      <trkpt lat="45.94284" lon="4.60723">
        <ele>494</ele>
        <time>2016-10-16T09:37:22Z</time>
      </trkpt>
      <trkpt lat="45.9429" lon="4.60717">
        <ele>494</ele>
        <time>2016-10-16T09:37:25Z</time>
      </trkpt>
      <trkpt lat="45.94292" lon="4.60714">
        <ele>494</ele>
        <time>2016-10-16T09:37:26Z</time>
      </trkpt>
      <trkpt lat="45.94298" lon="4.60705">
        <ele>494</ele>
        <time>2016-10-16T09:37:30Z</time>
      </trkpt>
      <trkpt lat="45.943" lon="4.60703">
        <ele>494</ele>
        <time>2016-10-16T09:37:31Z</time>
      </trkpt>
      <trkpt lat="45.94308" lon="4.60696">
        <ele>495</ele>
        <time>2016-10-16T09:37:35Z</time>
      </trkpt>
      <trkpt lat="45.94309" lon="4.60693">
        <ele>495</ele>
        <time>2016-10-16T09:37:36Z</time>
      </trkpt>
      <trkpt lat="45.94315" lon="4.60684">
        <ele>495</ele>
        <time>2016-10-16T09:37:40Z</time>
      </trkpt>
      <trkpt lat="45.94317" lon="4.60682">
        <ele>496</ele>
        <time>2016-10-16T09:37:41Z</time>
      </trkpt>
      <trkpt lat="45.94322" lon="4.60675">
        <ele>497</ele>
        <time>2016-10-16T09:37:44Z</time>
      </trkpt>
      <trkpt lat="45.94325" lon="4.60673">
        <ele>497</ele>
        <time>2016-10-16T09:37:45Z</time>
      </trkpt>
      <trkpt lat="45.94331" lon="4.60666">
        <ele>497</ele>
        <time>2016-10-16T09:37:48Z</time>
      </trkpt>
      <trkpt lat="45.94333" lon="4.60663">
        <ele>497</ele>
        <time>2016-10-16T09:37:49Z</time>
      </trkpt>
      <trkpt lat="45.9434" lon="4.60659">
        <ele>499</ele>
        <time>2016-10-16T09:37:52Z</time>
      </trkpt>
      <trkpt lat="45.94342" lon="4.60657">
        <ele>499</ele>
        <time>2016-10-16T09:37:53Z</time>
      </trkpt>
      <trkpt lat="45.94347" lon="4.6065">
        <ele>498</ele>
        <time>2016-10-16T09:37:56Z</time>
      </trkpt>
      <trkpt lat="45.94349" lon="4.60647">
        <ele>498</ele>
        <time>2016-10-16T09:37:57Z</time>
      </trkpt>
      <trkpt lat="45.94354" lon="4.60642">
        <ele>498</ele>
        <time>2016-10-16T09:37:59Z</time>
      </trkpt>
      <trkpt lat="45.94357" lon="4.6064">
        <ele>498</ele>
        <time>2016-10-16T09:38:00Z</time>
      </trkpt>
      <trkpt lat="45.94364" lon="4.60633">
        <ele>498</ele>
        <time>2016-10-16T09:38:03Z</time>
      </trkpt>
      <trkpt lat="45.94365" lon="4.60631">
        <ele>498</ele>
        <time>2016-10-16T09:38:04Z</time>
      </trkpt>
      <trkpt lat="45.94371" lon="4.60624">
        <ele>498</ele>
        <time>2016-10-16T09:38:07Z</time>
      </trkpt>
      <trkpt lat="45.94373" lon="4.60621">
        <ele>498</ele>
        <time>2016-10-16T09:38:08Z</time>
      </trkpt>
      <trkpt lat="45.9438" lon="4.60614">
        <ele>498</ele>
        <time>2016-10-16T09:38:11Z</time>
      </trkpt>
      <trkpt lat="45.94382" lon="4.60612">
        <ele>498</ele>
        <time>2016-10-16T09:38:12Z</time>
      </trkpt>
      <trkpt lat="45.94387" lon="4.60607">
        <ele>498</ele>
        <time>2016-10-16T09:38:15Z</time>
      </trkpt>
      <trkpt lat="45.94389" lon="4.60604">
        <ele>498</ele>
        <time>2016-10-16T09:38:16Z</time>
      </trkpt>
      <trkpt lat="45.94397" lon="4.60597">
        <ele>499</ele>
        <time>2016-10-16T09:38:19Z</time>
      </trkpt>
      <trkpt lat="45.94399" lon="4.60595">
        <ele>499</ele>
        <time>2016-10-16T09:38:20Z</time>
      </trkpt>
      <trkpt lat="45.94406" lon="4.60588">
        <ele>500</ele>
        <time>2016-10-16T09:38:23Z</time>
      </trkpt>
      <trkpt lat="45.94409" lon="4.60587">
        <ele>500</ele>
        <time>2016-10-16T09:38:24Z</time>
      </trkpt>
      <trkpt lat="45.94415" lon="4.60581">
        <ele>499</ele>
        <time>2016-10-16T09:38:27Z</time>
      </trkpt>
      <trkpt lat="45.94417" lon="4.6058">
        <ele>501</ele>
        <time>2016-10-16T09:38:28Z</time>
      </trkpt>
      <trkpt lat="45.94424" lon="4.60575">
        <ele>501</ele>
        <time>2016-10-16T09:38:31Z</time>
      </trkpt>
      <trkpt lat="45.94427" lon="4.60573">
        <ele>501</ele>
        <time>2016-10-16T09:38:32Z</time>
      </trkpt>
      <trkpt lat="45.94433" lon="4.60568">
        <ele>501</ele>
        <time>2016-10-16T09:38:35Z</time>
      </trkpt>
      <trkpt lat="45.94435" lon="4.60566">
        <ele>502</ele>
        <time>2016-10-16T09:38:36Z</time>
      </trkpt>
      <trkpt lat="45.94443" lon="4.6056">
        <ele>502</ele>
        <time>2016-10-16T09:38:39Z</time>
      </trkpt>
      <trkpt lat="45.94446" lon="4.60558">
        <ele>502</ele>
        <time>2016-10-16T09:38:40Z</time>
      </trkpt>
      <trkpt lat="45.94452" lon="4.60553">
        <ele>502</ele>
        <time>2016-10-16T09:38:43Z</time>
      </trkpt>
      <trkpt lat="45.94454" lon="4.60552">
        <ele>502</ele>
        <time>2016-10-16T09:38:44Z</time>
      </trkpt>
      <trkpt lat="45.94461" lon="4.60547">
        <ele>503</ele>
        <time>2016-10-16T09:38:47Z</time>
      </trkpt>
      <trkpt lat="45.94463" lon="4.60547">
        <ele>503</ele>
        <time>2016-10-16T09:38:48Z</time>
      </trkpt>
      <trkpt lat="45.94469" lon="4.60541">
        <ele>503</ele>
        <time>2016-10-16T09:38:51Z</time>
      </trkpt>
      <trkpt lat="45.94471" lon="4.60539">
        <ele>503</ele>
        <time>2016-10-16T09:38:52Z</time>
      </trkpt>
      <trkpt lat="45.94479" lon="4.60533">
        <ele>503</ele>
        <time>2016-10-16T09:38:56Z</time>
      </trkpt>
      <trkpt lat="45.94481" lon="4.6053">
        <ele>503</ele>
        <time>2016-10-16T09:38:57Z</time>
      </trkpt>
      <trkpt lat="45.94487" lon="4.60525">
        <ele>504</ele>
        <time>2016-10-16T09:39:00Z</time>
      </trkpt>
      <trkpt lat="45.94489" lon="4.60523">
        <ele>504</ele>
        <time>2016-10-16T09:39:01Z</time>
      </trkpt>
      <trkpt lat="45.94495" lon="4.60518">
        <ele>504</ele>
        <time>2016-10-16T09:39:04Z</time>
      </trkpt>
      <trkpt lat="45.94497" lon="4.60516">
        <ele>504</ele>
        <time>2016-10-16T09:39:05Z</time>
      </trkpt>
      <trkpt lat="45.94504" lon="4.6051">
        <ele>510</ele>
        <time>2016-10-16T09:39:08Z</time>
      </trkpt>
      <trkpt lat="45.94506" lon="4.60508">
        <ele>509</ele>
        <time>2016-10-16T09:39:09Z</time>
      </trkpt>
      <trkpt lat="45.94512" lon="4.60501">
        <ele>510</ele>
        <time>2016-10-16T09:39:12Z</time>
      </trkpt>
      <trkpt lat="45.94514" lon="4.60499">
        <ele>507</ele>
        <time>2016-10-16T09:39:13Z</time>
      </trkpt>
      <trkpt lat="45.94521" lon="4.60493">
        <ele>507</ele>
        <time>2016-10-16T09:39:16Z</time>
      </trkpt>
      <trkpt lat="45.94523" lon="4.60491">
        <ele>507</ele>
        <time>2016-10-16T09:39:17Z</time>
      </trkpt>
      <trkpt lat="45.94528" lon="4.60488">
        <ele>507</ele>
        <time>2016-10-16T09:39:19Z</time>
      </trkpt>
      <trkpt lat="45.94531" lon="4.60485">
        <ele>507</ele>
        <time>2016-10-16T09:39:20Z</time>
      </trkpt>
      <trkpt lat="45.94538" lon="4.60479">
        <ele>508</ele>
        <time>2016-10-16T09:39:23Z</time>
      </trkpt>
      <trkpt lat="45.9454" lon="4.60477">
        <ele>508</ele>
        <time>2016-10-16T09:39:24Z</time>
      </trkpt>
      <trkpt lat="45.94546" lon="4.60471">
        <ele>508</ele>
        <time>2016-10-16T09:39:27Z</time>
      </trkpt>
      <trkpt lat="45.94548" lon="4.6047">
        <ele>508</ele>
        <time>2016-10-16T09:39:28Z</time>
      </trkpt>
      <trkpt lat="45.94554" lon="4.60464">
        <ele>509</ele>
        <time>2016-10-16T09:39:31Z</time>
      </trkpt>
      <trkpt lat="45.94556" lon="4.60463">
        <ele>509</ele>
        <time>2016-10-16T09:39:32Z</time>
      </trkpt>
      <trkpt lat="45.94565" lon="4.6046">
        <ele>509</ele>
        <time>2016-10-16T09:39:36Z</time>
      </trkpt>
      <trkpt lat="45.94566" lon="4.60458">
        <ele>509</ele>
        <time>2016-10-16T09:39:37Z</time>
      </trkpt>
      <trkpt lat="45.94572" lon="4.60448">
        <ele>509</ele>
        <time>2016-10-16T09:39:40Z</time>
      </trkpt>
      <trkpt lat="45.94574" lon="4.60445">
        <ele>509</ele>
        <time>2016-10-16T09:39:41Z</time>
      </trkpt>
      <trkpt lat="45.9458" lon="4.60441">
        <ele>510</ele>
        <time>2016-10-16T09:39:43Z</time>
      </trkpt>
      <trkpt lat="45.94582" lon="4.60439">
        <ele>510</ele>
        <time>2016-10-16T09:39:44Z</time>
      </trkpt>
      <trkpt lat="45.94588" lon="4.60433">
        <ele>517</ele>
        <time>2016-10-16T09:39:47Z</time>
      </trkpt>
      <trkpt lat="45.9459" lon="4.60431">
        <ele>516</ele>
        <time>2016-10-16T09:39:48Z</time>
      </trkpt>
      <trkpt lat="45.94598" lon="4.60424">
        <ele>517</ele>
        <time>2016-10-16T09:39:51Z</time>
      </trkpt>
      <trkpt lat="45.946" lon="4.60421">
        <ele>517</ele>
        <time>2016-10-16T09:39:52Z</time>
      </trkpt>
      <trkpt lat="45.94607" lon="4.60414">
        <ele>513</ele>
        <time>2016-10-16T09:39:55Z</time>
      </trkpt>
      <trkpt lat="45.94609" lon="4.60411">
        <ele>513</ele>
        <time>2016-10-16T09:39:56Z</time>
      </trkpt>
      <trkpt lat="45.94615" lon="4.60404">
        <ele>514</ele>
        <time>2016-10-16T09:39:59Z</time>
      </trkpt>
      <trkpt lat="45.94618" lon="4.604">
        <ele>514</ele>
        <time>2016-10-16T09:40:00Z</time>
      </trkpt>
      <trkpt lat="45.94622" lon="4.60393">
        <ele>514</ele>
        <time>2016-10-16T09:40:02Z</time>
      </trkpt>
      <trkpt lat="45.94625" lon="4.60391">
        <ele>514</ele>
        <time>2016-10-16T09:40:03Z</time>
      </trkpt>
      <trkpt lat="45.94631" lon="4.60383">
        <ele>514</ele>
        <time>2016-10-16T09:40:06Z</time>
      </trkpt>
      <trkpt lat="45.94633" lon="4.6038">
        <ele>514</ele>
        <time>2016-10-16T09:40:07Z</time>
      </trkpt>
      <trkpt lat="45.94639" lon="4.60372">
        <ele>514</ele>
        <time>2016-10-16T09:40:10Z</time>
      </trkpt>
      <trkpt lat="45.94641" lon="4.60368">
        <ele>514</ele>
        <time>2016-10-16T09:40:11Z</time>
      </trkpt>
      <trkpt lat="45.94648" lon="4.6036">
        <ele>514</ele>
        <time>2016-10-16T09:40:14Z</time>
      </trkpt>
      <trkpt lat="45.9465" lon="4.60358">
        <ele>514</ele>
        <time>2016-10-16T09:40:15Z</time>
      </trkpt>
      <trkpt lat="45.94657" lon="4.60349">
        <ele>515</ele>
        <time>2016-10-16T09:40:18Z</time>
      </trkpt>
      <trkpt lat="45.94659" lon="4.60346">
        <ele>515</ele>
        <time>2016-10-16T09:40:19Z</time>
      </trkpt>
      <trkpt lat="45.94664" lon="4.60338">
        <ele>515</ele>
        <time>2016-10-16T09:40:22Z</time>
      </trkpt>
      <trkpt lat="45.94667" lon="4.60335">
        <ele>516</ele>
        <time>2016-10-16T09:40:23Z</time>
      </trkpt>
      <trkpt lat="45.94673" lon="4.60326">
        <ele>517</ele>
        <time>2016-10-16T09:40:26Z</time>
      </trkpt>
      <trkpt lat="45.94675" lon="4.60324">
        <ele>518</ele>
        <time>2016-10-16T09:40:27Z</time>
      </trkpt>
      <trkpt lat="45.94682" lon="4.60317">
        <ele>518</ele>
        <time>2016-10-16T09:40:30Z</time>
      </trkpt>
      <trkpt lat="45.94684" lon="4.60313">
        <ele>519</ele>
        <time>2016-10-16T09:40:31Z</time>
      </trkpt>
      <trkpt lat="45.94691" lon="4.60305">
        <ele>519</ele>
        <time>2016-10-16T09:40:34Z</time>
      </trkpt>
      <trkpt lat="45.94693" lon="4.60302">
        <ele>519</ele>
        <time>2016-10-16T09:40:35Z</time>
      </trkpt>
      <trkpt lat="45.94699" lon="4.60293">
        <ele>519</ele>
        <time>2016-10-16T09:40:38Z</time>
      </trkpt>
      <trkpt lat="45.94701" lon="4.6029">
        <ele>519</ele>
        <time>2016-10-16T09:40:39Z</time>
      </trkpt>
      <trkpt lat="45.94706" lon="4.6028">
        <ele>520</ele>
        <time>2016-10-16T09:40:42Z</time>
      </trkpt>
      <trkpt lat="45.94708" lon="4.60277">
        <ele>520</ele>
        <time>2016-10-16T09:40:43Z</time>
      </trkpt>
      <trkpt lat="45.94714" lon="4.60267">
        <ele>520</ele>
        <time>2016-10-16T09:40:46Z</time>
      </trkpt>
      <trkpt lat="45.94715" lon="4.60263">
        <ele>520</ele>
        <time>2016-10-16T09:40:47Z</time>
      </trkpt>
      <trkpt lat="45.94718" lon="4.60254">
        <ele>520</ele>
        <time>2016-10-16T09:40:49Z</time>
      </trkpt>
      <trkpt lat="45.9472" lon="4.6025">
        <ele>521</ele>
        <time>2016-10-16T09:40:50Z</time>
      </trkpt>
      <trkpt lat="45.94724" lon="4.6024">
        <ele>518</ele>
        <time>2016-10-16T09:40:53Z</time>
      </trkpt>
      <trkpt lat="45.94726" lon="4.60236">
        <ele>518</ele>
        <time>2016-10-16T09:40:54Z</time>
      </trkpt>
      <trkpt lat="45.9473" lon="4.60226">
        <ele>518</ele>
        <time>2016-10-16T09:40:57Z</time>
      </trkpt>
      <trkpt lat="45.94731" lon="4.60222">
        <ele>518</ele>
        <time>2016-10-16T09:40:58Z</time>
      </trkpt>
      <trkpt lat="45.94736" lon="4.60216">
        <ele>518</ele>
        <time>2016-10-16T09:41:00Z</time>
      </trkpt>
      <trkpt lat="45.94737" lon="4.60211">
        <ele>518</ele>
        <time>2016-10-16T09:41:01Z</time>
      </trkpt>
      <trkpt lat="45.94739" lon="4.60203">
        <ele>518</ele>
        <time>2016-10-16T09:41:03Z</time>
      </trkpt>
      <trkpt lat="45.94741" lon="4.60199">
        <ele>518</ele>
        <time>2016-10-16T09:41:04Z</time>
      </trkpt>
      <trkpt lat="45.94744" lon="4.60191">
        <ele>519</ele>
        <time>2016-10-16T09:41:06Z</time>
      </trkpt>
      <trkpt lat="45.94745" lon="4.60187">
        <ele>519</ele>
        <time>2016-10-16T09:41:07Z</time>
      </trkpt>
      <trkpt lat="45.94749" lon="4.6018">
        <ele>521</ele>
        <time>2016-10-16T09:41:09Z</time>
      </trkpt>
      <trkpt lat="45.9475" lon="4.60176">
        <ele>521</ele>
        <time>2016-10-16T09:41:10Z</time>
      </trkpt>
      <trkpt lat="45.94754" lon="4.60168">
        <ele>525</ele>
        <time>2016-10-16T09:41:12Z</time>
      </trkpt>
      <trkpt lat="45.94755" lon="4.60163">
        <ele>525</ele>
        <time>2016-10-16T09:41:13Z</time>
      </trkpt>
      <trkpt lat="45.94759" lon="4.60154">
        <ele>525</ele>
        <time>2016-10-16T09:41:15Z</time>
      </trkpt>
      <trkpt lat="45.94761" lon="4.6015">
        <ele>525</ele>
        <time>2016-10-16T09:41:16Z</time>
      </trkpt>
      <trkpt lat="45.94764" lon="4.60142">
        <ele>526</ele>
        <time>2016-10-16T09:41:18Z</time>
      </trkpt>
      <trkpt lat="45.94765" lon="4.60138">
        <ele>526</ele>
        <time>2016-10-16T09:41:19Z</time>
      </trkpt>
      <trkpt lat="45.94768" lon="4.6013">
        <ele>526</ele>
        <time>2016-10-16T09:41:21Z</time>
      </trkpt>
      <trkpt lat="45.9477" lon="4.60126">
        <ele>526</ele>
        <time>2016-10-16T09:41:22Z</time>
      </trkpt>
      <trkpt lat="45.94773" lon="4.60118">
        <ele>526</ele>
        <time>2016-10-16T09:41:24Z</time>
      </trkpt>
      <trkpt lat="45.94775" lon="4.60114">
        <ele>526</ele>
        <time>2016-10-16T09:41:25Z</time>
      </trkpt>
      <trkpt lat="45.94779" lon="4.60106">
        <ele>525</ele>
        <time>2016-10-16T09:41:27Z</time>
      </trkpt>
      <trkpt lat="45.94781" lon="4.60103">
        <ele>525</ele>
        <time>2016-10-16T09:41:28Z</time>
      </trkpt>
      <trkpt lat="45.94784" lon="4.60095">
        <ele>526</ele>
        <time>2016-10-16T09:41:30Z</time>
      </trkpt>
      <trkpt lat="45.94786" lon="4.60092">
        <ele>526</ele>
        <time>2016-10-16T09:41:31Z</time>
      </trkpt>
      <trkpt lat="45.9479" lon="4.60083">
        <ele>524</ele>
        <time>2016-10-16T09:41:33Z</time>
      </trkpt>
      <trkpt lat="45.94792" lon="4.60078">
        <ele>524</ele>
        <time>2016-10-16T09:41:34Z</time>
      </trkpt>
      <trkpt lat="45.94797" lon="4.6007">
        <ele>524</ele>
        <time>2016-10-16T09:41:36Z</time>
      </trkpt>
      <trkpt lat="45.94799" lon="4.60065">
        <ele>524</ele>
        <time>2016-10-16T09:41:37Z</time>
      </trkpt>
      <trkpt lat="45.94803" lon="4.60055">
        <ele>524</ele>
        <time>2016-10-16T09:41:39Z</time>
      </trkpt>
      <trkpt lat="45.94805" lon="4.6005">
        <ele>524</ele>
        <time>2016-10-16T09:41:40Z</time>
      </trkpt>
      <trkpt lat="45.9481" lon="4.60039">
        <ele>524</ele>
        <time>2016-10-16T09:41:42Z</time>
      </trkpt>
      <trkpt lat="45.94812" lon="4.60034">
        <ele>525</ele>
        <time>2016-10-16T09:41:43Z</time>
      </trkpt>
      <trkpt lat="45.94816" lon="4.60024">
        <ele>525</ele>
        <time>2016-10-16T09:41:45Z</time>
      </trkpt>
      <trkpt lat="45.94818" lon="4.60019">
        <ele>525</ele>
        <time>2016-10-16T09:41:46Z</time>
      </trkpt>
      <trkpt lat="45.94821" lon="4.60009">
        <ele>526</ele>
        <time>2016-10-16T09:41:48Z</time>
      </trkpt>
      <trkpt lat="45.94823" lon="4.60004">
        <ele>527</ele>
        <time>2016-10-16T09:41:49Z</time>
      </trkpt>
      <trkpt lat="45.94827" lon="4.59994">
        <ele>526</ele>
        <time>2016-10-16T09:41:51Z</time>
      </trkpt>
      <trkpt lat="45.94829" lon="4.59989">
        <ele>525</ele>
        <time>2016-10-16T09:41:52Z</time>
      </trkpt>
      <trkpt lat="45.94833" lon="4.59977">
        <ele>523</ele>
        <time>2016-10-16T09:41:54Z</time>
      </trkpt>
      <trkpt lat="45.94835" lon="4.59971">
        <ele>530</ele>
        <time>2016-10-16T09:41:55Z</time>
      </trkpt>
      <trkpt lat="45.94839" lon="4.59961">
        <ele>530</ele>
        <time>2016-10-16T09:41:57Z</time>
      </trkpt>
      <trkpt lat="45.94841" lon="4.59955">
        <ele>530</ele>
        <time>2016-10-16T09:41:58Z</time>
      </trkpt>
      <trkpt lat="45.94844" lon="4.59946">
        <ele>530</ele>
        <time>2016-10-16T09:42:00Z</time>
      </trkpt>
      <trkpt lat="45.94846" lon="4.59941">
        <ele>529</ele>
        <time>2016-10-16T09:42:01Z</time>
      </trkpt>
      <trkpt lat="45.94849" lon="4.5993">
        <ele>529</ele>
        <time>2016-10-16T09:42:03Z</time>
      </trkpt>
      <trkpt lat="45.94851" lon="4.59925">
        <ele>528</ele>
        <time>2016-10-16T09:42:04Z</time>
      </trkpt>
      <trkpt lat="45.94854" lon="4.59914">
        <ele>527</ele>
        <time>2016-10-16T09:42:06Z</time>
      </trkpt>
      <trkpt lat="45.94856" lon="4.59908">
        <ele>527</ele>
        <time>2016-10-16T09:42:07Z</time>
      </trkpt>
      <trkpt lat="45.94858" lon="4.59901">
        <ele>527</ele>
        <time>2016-10-16T09:42:08Z</time>
      </trkpt>
      <trkpt lat="45.94859" lon="4.59895">
        <ele>527</ele>
        <time>2016-10-16T09:42:09Z</time>
      </trkpt>
      <trkpt lat="45.94861" lon="4.59889">
        <ele>528</ele>
        <time>2016-10-16T09:42:10Z</time>
      </trkpt>
      <trkpt lat="45.94863" lon="4.59882">
        <ele>528</ele>
        <time>2016-10-16T09:42:11Z</time>
      </trkpt>
      <trkpt lat="45.94864" lon="4.59875">
        <ele>528</ele>
        <time>2016-10-16T09:42:12Z</time>
      </trkpt>
      <trkpt lat="45.94866" lon="4.59868">
        <ele>528</ele>
        <time>2016-10-16T09:42:13Z</time>
      </trkpt>
      <trkpt lat="45.94868" lon="4.59862">
        <ele>528</ele>
        <time>2016-10-16T09:42:14Z</time>
      </trkpt>
      <trkpt lat="45.94869" lon="4.59855">
        <ele>527</ele>
        <time>2016-10-16T09:42:15Z</time>
      </trkpt>
      <trkpt lat="45.94871" lon="4.59849">
        <ele>528</ele>
        <time>2016-10-16T09:42:16Z</time>
      </trkpt>
      <trkpt lat="45.94872" lon="4.59842">
        <ele>528</ele>
        <time>2016-10-16T09:42:17Z</time>
      </trkpt>
      <trkpt lat="45.94873" lon="4.59836">
        <ele>528</ele>
        <time>2016-10-16T09:42:18Z</time>
      </trkpt>
      <trkpt lat="45.94875" lon="4.5983">
        <ele>526</ele>
        <time>2016-10-16T09:42:19Z</time>
      </trkpt>
      <trkpt lat="45.94876" lon="4.59823">
        <ele>526</ele>
        <time>2016-10-16T09:42:20Z</time>
      </trkpt>
      <trkpt lat="45.94877" lon="4.59815">
        <ele>526</ele>
        <time>2016-10-16T09:42:21Z</time>
      </trkpt>
      <trkpt lat="45.94879" lon="4.59807">
        <ele>526</ele>
        <time>2016-10-16T09:42:22Z</time>
      </trkpt>
      <trkpt lat="45.9488" lon="4.59798">
        <ele>526</ele>
        <time>2016-10-16T09:42:23Z</time>
      </trkpt>
      <trkpt lat="45.94881" lon="4.5979">
        <ele>526</ele>
        <time>2016-10-16T09:42:24Z</time>
      </trkpt>
      <trkpt lat="45.94882" lon="4.59782">
        <ele>526</ele>
        <time>2016-10-16T09:42:25Z</time>
      </trkpt>
      <trkpt lat="45.94883" lon="4.59774">
        <ele>526</ele>
        <time>2016-10-16T09:42:26Z</time>
      </trkpt>
      <trkpt lat="45.94884" lon="4.59765">
        <ele>526</ele>
        <time>2016-10-16T09:42:27Z</time>
      </trkpt>
      <trkpt lat="45.94885" lon="4.59758">
        <ele>526</ele>
        <time>2016-10-16T09:42:28Z</time>
      </trkpt>
      <trkpt lat="45.94885" lon="4.5975">
        <ele>526</ele>
        <time>2016-10-16T09:42:29Z</time>
      </trkpt>
      <trkpt lat="45.94886" lon="4.59742">
        <ele>526</ele>
        <time>2016-10-16T09:42:30Z</time>
      </trkpt>
      <trkpt lat="45.94888" lon="4.59734">
        <ele>526</ele>
        <time>2016-10-16T09:42:31Z</time>
      </trkpt>
      <trkpt lat="45.94888" lon="4.59727">
        <ele>526</ele>
        <time>2016-10-16T09:42:32Z</time>
      </trkpt>
      <trkpt lat="45.94888" lon="4.59719">
        <ele>526</ele>
        <time>2016-10-16T09:42:33Z</time>
      </trkpt>
      <trkpt lat="45.94888" lon="4.59712">
        <ele>526</ele>
        <time>2016-10-16T09:42:34Z</time>
      </trkpt>
      <trkpt lat="45.94888" lon="4.59705">
        <ele>526</ele>
        <time>2016-10-16T09:42:35Z</time>
      </trkpt>
      <trkpt lat="45.94887" lon="4.59698">
        <ele>526</ele>
        <time>2016-10-16T09:42:36Z</time>
      </trkpt>
      <trkpt lat="45.94885" lon="4.59691">
        <ele>526</ele>
        <time>2016-10-16T09:42:37Z</time>
      </trkpt>
      <trkpt lat="45.94883" lon="4.59685">
        <ele>526</ele>
        <time>2016-10-16T09:42:38Z</time>
      </trkpt>
      <trkpt lat="45.9488" lon="4.59679">
        <ele>526</ele>
        <time>2016-10-16T09:42:39Z</time>
      </trkpt>
      <trkpt lat="45.94879" lon="4.59673">
        <ele>526</ele>
        <time>2016-10-16T09:42:40Z</time>
      </trkpt>
      <trkpt lat="45.94877" lon="4.59666">
        <ele>529</ele>
        <time>2016-10-16T09:42:41Z</time>
      </trkpt>
      <trkpt lat="45.94875" lon="4.5966">
        <ele>529</ele>
        <time>2016-10-16T09:42:42Z</time>
      </trkpt>
      <trkpt lat="45.94873" lon="4.59655">
        <ele>529</ele>
        <time>2016-10-16T09:42:43Z</time>
      </trkpt>
      <trkpt lat="45.94869" lon="4.59643">
        <ele>529</ele>
        <time>2016-10-16T09:42:45Z</time>
      </trkpt>
      <trkpt lat="45.94866" lon="4.59637">
        <ele>529</ele>
        <time>2016-10-16T09:42:46Z</time>
      </trkpt>
      <trkpt lat="45.94864" lon="4.59632">
        <ele>529</ele>
        <time>2016-10-16T09:42:47Z</time>
      </trkpt>
      <trkpt lat="45.94861" lon="4.59626">
        <ele>529</ele>
        <time>2016-10-16T09:42:48Z</time>
      </trkpt>
      <trkpt lat="45.94855" lon="4.59617">
        <ele>529</ele>
        <time>2016-10-16T09:42:50Z</time>
      </trkpt>
      <trkpt lat="45.94852" lon="4.59611">
        <ele>529</ele>
        <time>2016-10-16T09:42:51Z</time>
      </trkpt>
      <trkpt lat="45.94848" lon="4.59601">
        <ele>529</ele>
        <time>2016-10-16T09:42:53Z</time>
      </trkpt>
      <trkpt lat="45.94845" lon="4.59596">
        <ele>529</ele>
        <time>2016-10-16T09:42:54Z</time>
      </trkpt>
      <trkpt lat="45.94839" lon="4.59587">
        <ele>529</ele>
        <time>2016-10-16T09:42:56Z</time>
      </trkpt>
      <trkpt lat="45.94837" lon="4.59582">
        <ele>529</ele>
        <time>2016-10-16T09:42:57Z</time>
      </trkpt>
      <trkpt lat="45.94832" lon="4.59573">
        <ele>528</ele>
        <time>2016-10-16T09:42:59Z</time>
      </trkpt>
      <trkpt lat="45.9483" lon="4.59568">
        <ele>528</ele>
        <time>2016-10-16T09:43:00Z</time>
      </trkpt>
      <trkpt lat="45.94826" lon="4.59563">
        <ele>528</ele>
        <time>2016-10-16T09:43:01Z</time>
      </trkpt>
      <trkpt lat="45.94824" lon="4.59556">
        <ele>528</ele>
        <time>2016-10-16T09:43:02Z</time>
      </trkpt>
      <trkpt lat="45.94821" lon="4.59551">
        <ele>528</ele>
        <time>2016-10-16T09:43:03Z</time>
      </trkpt>
      <trkpt lat="45.94818" lon="4.59546">
        <ele>529</ele>
        <time>2016-10-16T09:43:04Z</time>
      </trkpt>
      <trkpt lat="45.94815" lon="4.59542">
        <ele>529</ele>
        <time>2016-10-16T09:43:05Z</time>
      </trkpt>
      <trkpt lat="45.94811" lon="4.59537">
        <ele>529</ele>
        <time>2016-10-16T09:43:06Z</time>
      </trkpt>
      <trkpt lat="45.94805" lon="4.5953">
        <ele>529</ele>
        <time>2016-10-16T09:43:08Z</time>
      </trkpt>
      <trkpt lat="45.94802" lon="4.59526">
        <ele>529</ele>
        <time>2016-10-16T09:43:09Z</time>
      </trkpt>
      <trkpt lat="45.94796" lon="4.59518">
        <ele>529</ele>
        <time>2016-10-16T09:43:11Z</time>
      </trkpt>
      <trkpt lat="45.94793" lon="4.59514">
        <ele>529</ele>
        <time>2016-10-16T09:43:12Z</time>
      </trkpt>
      <trkpt lat="45.94788" lon="4.59506">
        <ele>529</ele>
        <time>2016-10-16T09:43:14Z</time>
      </trkpt>
      <trkpt lat="45.94785" lon="4.59501">
        <ele>529</ele>
        <time>2016-10-16T09:43:15Z</time>
      </trkpt>
      <trkpt lat="45.94779" lon="4.59492">
        <ele>534</ele>
        <time>2016-10-16T09:43:17Z</time>
      </trkpt>
      <trkpt lat="45.94777" lon="4.59486">
        <ele>534</ele>
        <time>2016-10-16T09:43:18Z</time>
      </trkpt>
      <trkpt lat="45.94772" lon="4.59476">
        <ele>534</ele>
        <time>2016-10-16T09:43:20Z</time>
      </trkpt>
      <trkpt lat="45.94769" lon="4.59473">
        <ele>534</ele>
        <time>2016-10-16T09:43:21Z</time>
      </trkpt>
      <trkpt lat="45.94763" lon="4.59467">
        <ele>534</ele>
        <time>2016-10-16T09:43:22Z</time>
      </trkpt>
      <trkpt lat="45.9476" lon="4.59463">
        <ele>535</ele>
        <time>2016-10-16T09:43:23Z</time>
      </trkpt>
      <trkpt lat="45.94757" lon="4.59457">
        <ele>535</ele>
        <time>2016-10-16T09:43:24Z</time>
      </trkpt>
      <trkpt lat="45.94755" lon="4.59452">
        <ele>535</ele>
        <time>2016-10-16T09:43:25Z</time>
      </trkpt>
      <trkpt lat="45.9475" lon="4.59441">
        <ele>535</ele>
        <time>2016-10-16T09:43:27Z</time>
      </trkpt>
      <trkpt lat="45.94748" lon="4.59437">
        <ele>531</ele>
        <time>2016-10-16T09:43:28Z</time>
      </trkpt>
      <trkpt lat="45.94744" lon="4.59425">
        <ele>533</ele>
        <time>2016-10-16T09:43:30Z</time>
      </trkpt>
      <trkpt lat="45.94742" lon="4.5942">
        <ele>533</ele>
        <time>2016-10-16T09:43:31Z</time>
      </trkpt>
      <trkpt lat="45.94738" lon="4.59408">
        <ele>533</ele>
        <time>2016-10-16T09:43:33Z</time>
      </trkpt>
      <trkpt lat="45.94737" lon="4.59402">
        <ele>533</ele>
        <time>2016-10-16T09:43:34Z</time>
      </trkpt>
      <trkpt lat="45.94734" lon="4.5939">
        <ele>532</ele>
        <time>2016-10-16T09:43:36Z</time>
      </trkpt>
      <trkpt lat="45.94733" lon="4.59384">
        <ele>532</ele>
        <time>2016-10-16T09:43:37Z</time>
      </trkpt>
      <trkpt lat="45.94733" lon="4.59377">
        <ele>532</ele>
        <time>2016-10-16T09:43:38Z</time>
      </trkpt>
      <trkpt lat="45.94733" lon="4.59371">
        <ele>532</ele>
        <time>2016-10-16T09:43:39Z</time>
      </trkpt>
      <trkpt lat="45.94733" lon="4.59364">
        <ele>532</ele>
        <time>2016-10-16T09:43:40Z</time>
      </trkpt>
      <trkpt lat="45.94733" lon="4.59357">
        <ele>532</ele>
        <time>2016-10-16T09:43:41Z</time>
      </trkpt>
      <trkpt lat="45.94734" lon="4.5935">
        <ele>533</ele>
        <time>2016-10-16T09:43:42Z</time>
      </trkpt>
      <trkpt lat="45.94735" lon="4.59342">
        <ele>533</ele>
        <time>2016-10-16T09:43:43Z</time>
      </trkpt>
      <trkpt lat="45.94736" lon="4.59335">
        <ele>533</ele>
        <time>2016-10-16T09:43:44Z</time>
      </trkpt>
      <trkpt lat="45.94738" lon="4.59328">
        <ele>532</ele>
        <time>2016-10-16T09:43:45Z</time>
      </trkpt>
      <trkpt lat="45.94739" lon="4.59321">
        <ele>532</ele>
        <time>2016-10-16T09:43:46Z</time>
      </trkpt>
      <trkpt lat="45.94741" lon="4.59313">
        <ele>531</ele>
        <time>2016-10-16T09:43:47Z</time>
      </trkpt>
      <trkpt lat="45.94742" lon="4.59306">
        <ele>531</ele>
        <time>2016-10-16T09:43:48Z</time>
      </trkpt>
      <trkpt lat="45.94744" lon="4.59299">
        <ele>531</ele>
        <time>2016-10-16T09:43:49Z</time>
      </trkpt>
      <trkpt lat="45.94746" lon="4.59292">
        <ele>530</ele>
        <time>2016-10-16T09:43:50Z</time>
      </trkpt>
      <trkpt lat="45.94747" lon="4.59285">
        <ele>530</ele>
        <time>2016-10-16T09:43:51Z</time>
      </trkpt>
      <trkpt lat="45.94749" lon="4.59278">
        <ele>530</ele>
        <time>2016-10-16T09:43:52Z</time>
      </trkpt>
      <trkpt lat="45.94751" lon="4.59271">
        <ele>537</ele>
        <time>2016-10-16T09:43:53Z</time>
      </trkpt>
      <trkpt lat="45.94753" lon="4.59264">
        <ele>536</ele>
        <time>2016-10-16T09:43:54Z</time>
      </trkpt>
      <trkpt lat="45.94755" lon="4.59257">
        <ele>535</ele>
        <time>2016-10-16T09:43:55Z</time>
      </trkpt>
      <trkpt lat="45.94757" lon="4.59249">
        <ele>533</ele>
        <time>2016-10-16T09:43:56Z</time>
      </trkpt>
      <trkpt lat="45.94759" lon="4.59242">
        <ele>534</ele>
        <time>2016-10-16T09:43:57Z</time>
      </trkpt>
      <trkpt lat="45.94761" lon="4.59234">
        <ele>535</ele>
        <time>2016-10-16T09:43:58Z</time>
      </trkpt>
      <trkpt lat="45.94763" lon="4.59226">
        <ele>535</ele>
        <time>2016-10-16T09:43:59Z</time>
      </trkpt>
      <trkpt lat="45.94765" lon="4.59219">
        <ele>536</ele>
        <time>2016-10-16T09:44:00Z</time>
      </trkpt>
      <trkpt lat="45.94767" lon="4.59211">
        <ele>536</ele>
        <time>2016-10-16T09:44:01Z</time>
      </trkpt>
      <trkpt lat="45.94769" lon="4.59204">
        <ele>536</ele>
        <time>2016-10-16T09:44:02Z</time>
      </trkpt>
      <trkpt lat="45.9477" lon="4.59197">
        <ele>535</ele>
        <time>2016-10-16T09:44:03Z</time>
      </trkpt>
      <trkpt lat="45.94772" lon="4.5919">
        <ele>535</ele>
        <time>2016-10-16T09:44:04Z</time>
      </trkpt>
      <trkpt lat="45.94773" lon="4.59183">
        <ele>535</ele>
        <time>2016-10-16T09:44:05Z</time>
      </trkpt>
      <trkpt lat="45.94775" lon="4.59176">
        <ele>535</ele>
        <time>2016-10-16T09:44:06Z</time>
      </trkpt>
      <trkpt lat="45.94777" lon="4.59169">
        <ele>535</ele>
        <time>2016-10-16T09:44:07Z</time>
      </trkpt>
      <trkpt lat="45.94779" lon="4.59162">
        <ele>533</ele>
        <time>2016-10-16T09:44:08Z</time>
      </trkpt>
      <trkpt lat="45.94781" lon="4.59155">
        <ele>533</ele>
        <time>2016-10-16T09:44:09Z</time>
      </trkpt>
      <trkpt lat="45.94783" lon="4.59147">
        <ele>533</ele>
        <time>2016-10-16T09:44:10Z</time>
      </trkpt>
      <trkpt lat="45.94785" lon="4.5914">
        <ele>533</ele>
        <time>2016-10-16T09:44:11Z</time>
      </trkpt>
      <trkpt lat="45.94787" lon="4.59132">
        <ele>534</ele>
        <time>2016-10-16T09:44:12Z</time>
      </trkpt>
      <trkpt lat="45.94789" lon="4.59124">
        <ele>534</ele>
        <time>2016-10-16T09:44:13Z</time>
      </trkpt>
      <trkpt lat="45.94791" lon="4.59117">
        <ele>533</ele>
        <time>2016-10-16T09:44:14Z</time>
      </trkpt>
      <trkpt lat="45.94792" lon="4.5911">
        <ele>533</ele>
        <time>2016-10-16T09:44:15Z</time>
      </trkpt>
      <trkpt lat="45.94794" lon="4.59103">
        <ele>534</ele>
        <time>2016-10-16T09:44:16Z</time>
      </trkpt>
      <trkpt lat="45.94796" lon="4.59097">
        <ele>534</ele>
        <time>2016-10-16T09:44:17Z</time>
      </trkpt>
      <trkpt lat="45.94797" lon="4.5909">
        <ele>534</ele>
        <time>2016-10-16T09:44:18Z</time>
      </trkpt>
      <trkpt lat="45.94799" lon="4.59084">
        <ele>534</ele>
        <time>2016-10-16T09:44:19Z</time>
      </trkpt>
      <trkpt lat="45.94801" lon="4.59078">
        <ele>532</ele>
        <time>2016-10-16T09:44:20Z</time>
      </trkpt>
      <trkpt lat="45.94802" lon="4.59071">
        <ele>532</ele>
        <time>2016-10-16T09:44:21Z</time>
      </trkpt>
      <trkpt lat="45.94803" lon="4.59065">
        <ele>532</ele>
        <time>2016-10-16T09:44:22Z</time>
      </trkpt>
      <trkpt lat="45.94804" lon="4.59058">
        <ele>532</ele>
        <time>2016-10-16T09:44:23Z</time>
      </trkpt>
      <trkpt lat="45.94806" lon="4.59052">
        <ele>532</ele>
        <time>2016-10-16T09:44:24Z</time>
      </trkpt>
      <trkpt lat="45.94807" lon="4.59044">
        <ele>532</ele>
        <time>2016-10-16T09:44:25Z</time>
      </trkpt>
      <trkpt lat="45.94809" lon="4.59037">
        <ele>532</ele>
        <time>2016-10-16T09:44:26Z</time>
      </trkpt>
      <trkpt lat="45.94811" lon="4.5903">
        <ele>532</ele>
        <time>2016-10-16T09:44:27Z</time>
      </trkpt>
      <trkpt lat="45.94813" lon="4.59024">
        <ele>532</ele>
        <time>2016-10-16T09:44:28Z</time>
      </trkpt>
      <trkpt lat="45.94814" lon="4.59017">
        <ele>532</ele>
        <time>2016-10-16T09:44:29Z</time>
      </trkpt>
      <trkpt lat="45.94815" lon="4.5901">
        <ele>532</ele>
        <time>2016-10-16T09:44:30Z</time>
      </trkpt>
      <trkpt lat="45.94816" lon="4.59004">
        <ele>533</ele>
        <time>2016-10-16T09:44:31Z</time>
      </trkpt>
      <trkpt lat="45.94818" lon="4.58998">
        <ele>531</ele>
        <time>2016-10-16T09:44:32Z</time>
      </trkpt>
      <trkpt lat="45.94819" lon="4.58991">
        <ele>531</ele>
        <time>2016-10-16T09:44:33Z</time>
      </trkpt>
      <trkpt lat="45.94821" lon="4.58985">
        <ele>531</ele>
        <time>2016-10-16T09:44:34Z</time>
      </trkpt>
      <trkpt lat="45.94822" lon="4.58979">
        <ele>530</ele>
        <time>2016-10-16T09:44:35Z</time>
      </trkpt>
      <trkpt lat="45.94824" lon="4.58972">
        <ele>530</ele>
        <time>2016-10-16T09:44:36Z</time>
      </trkpt>
      <trkpt lat="45.94825" lon="4.58966">
        <ele>530</ele>
        <time>2016-10-16T09:44:37Z</time>
      </trkpt>
      <trkpt lat="45.94827" lon="4.5896">
        <ele>529</ele>
        <time>2016-10-16T09:44:38Z</time>
      </trkpt>
      <trkpt lat="45.94829" lon="4.58954">
        <ele>529</ele>
        <time>2016-10-16T09:44:39Z</time>
      </trkpt>
      <trkpt lat="45.9483" lon="4.58948">
        <ele>529</ele>
        <time>2016-10-16T09:44:40Z</time>
      </trkpt>
      <trkpt lat="45.94832" lon="4.58941">
        <ele>529</ele>
        <time>2016-10-16T09:44:41Z</time>
      </trkpt>
      <trkpt lat="45.94833" lon="4.58934">
        <ele>530</ele>
        <time>2016-10-16T09:44:42Z</time>
      </trkpt>
      <trkpt lat="45.94835" lon="4.58928">
        <ele>532</ele>
        <time>2016-10-16T09:44:43Z</time>
      </trkpt>
      <trkpt lat="45.94837" lon="4.58921">
        <ele>532</ele>
        <time>2016-10-16T09:44:44Z</time>
      </trkpt>
      <trkpt lat="45.94839" lon="4.58913">
        <ele>531</ele>
        <time>2016-10-16T09:44:45Z</time>
      </trkpt>
      <trkpt lat="45.9484" lon="4.58906">
        <ele>530</ele>
        <time>2016-10-16T09:44:46Z</time>
      </trkpt>
      <trkpt lat="45.94842" lon="4.58898">
        <ele>530</ele>
        <time>2016-10-16T09:44:47Z</time>
      </trkpt>
      <trkpt lat="45.94844" lon="4.5889">
        <ele>529</ele>
        <time>2016-10-16T09:44:48Z</time>
      </trkpt>
      <trkpt lat="45.94846" lon="4.58882">
        <ele>529</ele>
        <time>2016-10-16T09:44:49Z</time>
      </trkpt>
      <trkpt lat="45.94849" lon="4.58875">
        <ele>528</ele>
        <time>2016-10-16T09:44:50Z</time>
      </trkpt>
      <trkpt lat="45.94852" lon="4.58866">
        <ele>528</ele>
        <time>2016-10-16T09:44:51Z</time>
      </trkpt>
      <trkpt lat="45.94855" lon="4.58859">
        <ele>527</ele>
        <time>2016-10-16T09:44:52Z</time>
      </trkpt>
      <trkpt lat="45.94857" lon="4.58854">
        <ele>527</ele>
        <time>2016-10-16T09:44:53Z</time>
      </trkpt>
      <trkpt lat="45.94861" lon="4.58847">
        <ele>527</ele>
        <time>2016-10-16T09:44:54Z</time>
      </trkpt>
      <trkpt lat="45.94865" lon="4.58839">
        <ele>527</ele>
        <time>2016-10-16T09:44:55Z</time>
      </trkpt>
      <trkpt lat="45.9487" lon="4.5883">
        <ele>522</ele>
        <time>2016-10-16T09:44:56Z</time>
      </trkpt>
      <trkpt lat="45.94875" lon="4.58822">
        <ele>522</ele>
        <time>2016-10-16T09:44:57Z</time>
      </trkpt>
      <trkpt lat="45.9488" lon="4.58813">
        <ele>521</ele>
        <time>2016-10-16T09:44:58Z</time>
      </trkpt>
      <trkpt lat="45.94885" lon="4.58803">
        <ele>521</ele>
        <time>2016-10-16T09:44:59Z</time>
      </trkpt>
      <trkpt lat="45.94891" lon="4.58795">
        <ele>521</ele>
        <time>2016-10-16T09:45:00Z</time>
      </trkpt>
      <trkpt lat="45.94897" lon="4.58787">
        <ele>521</ele>
        <time>2016-10-16T09:45:01Z</time>
      </trkpt>
      <trkpt lat="45.94903" lon="4.58779">
        <ele>521</ele>
        <time>2016-10-16T09:45:02Z</time>
      </trkpt>
      <trkpt lat="45.94909" lon="4.5877">
        <ele>521</ele>
        <time>2016-10-16T09:45:03Z</time>
      </trkpt>
      <trkpt lat="45.94914" lon="4.58762">
        <ele>521</ele>
        <time>2016-10-16T09:45:04Z</time>
      </trkpt>
      <trkpt lat="45.9492" lon="4.58754">
        <ele>523</ele>
        <time>2016-10-16T09:45:05Z</time>
      </trkpt>
      <trkpt lat="45.94925" lon="4.58746">
        <ele>523</ele>
        <time>2016-10-16T09:45:06Z</time>
      </trkpt>
      <trkpt lat="45.94931" lon="4.58739">
        <ele>523</ele>
        <time>2016-10-16T09:45:07Z</time>
      </trkpt>
      <trkpt lat="45.94936" lon="4.58732">
        <ele>523</ele>
        <time>2016-10-16T09:45:08Z</time>
      </trkpt>
      <trkpt lat="45.9494" lon="4.58724">
        <ele>523</ele>
        <time>2016-10-16T09:45:09Z</time>
      </trkpt>
      <trkpt lat="45.94944" lon="4.58716">
        <ele>523</ele>
        <time>2016-10-16T09:45:10Z</time>
      </trkpt>
      <trkpt lat="45.94947" lon="4.58708">
        <ele>523</ele>
        <time>2016-10-16T09:45:11Z</time>
      </trkpt>
      <trkpt lat="45.94949" lon="4.587">
        <ele>523</ele>
        <time>2016-10-16T09:45:12Z</time>
      </trkpt>
      <trkpt lat="45.94951" lon="4.58692">
        <ele>523</ele>
        <time>2016-10-16T09:45:13Z</time>
      </trkpt>
      <trkpt lat="45.94953" lon="4.58684">
        <ele>523</ele>
        <time>2016-10-16T09:45:14Z</time>
      </trkpt>
      <trkpt lat="45.94954" lon="4.58677">
        <ele>523</ele>
        <time>2016-10-16T09:45:15Z</time>
      </trkpt>
      <trkpt lat="45.94954" lon="4.58669">
        <ele>523</ele>
        <time>2016-10-16T09:45:16Z</time>
      </trkpt>
      <trkpt lat="45.94954" lon="4.58661">
        <ele>522</ele>
        <time>2016-10-16T09:45:17Z</time>
      </trkpt>
      <trkpt lat="45.94954" lon="4.58653">
        <ele>522</ele>
        <time>2016-10-16T09:45:18Z</time>
      </trkpt>
      <trkpt lat="45.94954" lon="4.58646">
        <ele>523</ele>
        <time>2016-10-16T09:45:19Z</time>
      </trkpt>
      <trkpt lat="45.94954" lon="4.58638">
        <ele>523</ele>
        <time>2016-10-16T09:45:20Z</time>
      </trkpt>
      <trkpt lat="45.94954" lon="4.58629">
        <ele>523</ele>
        <time>2016-10-16T09:45:21Z</time>
      </trkpt>
      <trkpt lat="45.94952" lon="4.58622">
        <ele>523</ele>
        <time>2016-10-16T09:45:22Z</time>
      </trkpt>
      <trkpt lat="45.94951" lon="4.58614">
        <ele>523</ele>
        <time>2016-10-16T09:45:23Z</time>
      </trkpt>
      <trkpt lat="45.94951" lon="4.58604">
        <ele>523</ele>
        <time>2016-10-16T09:45:24Z</time>
      </trkpt>
      <trkpt lat="45.94947" lon="4.58595">
        <ele>522</ele>
        <time>2016-10-16T09:45:25Z</time>
      </trkpt>
      <trkpt lat="45.94945" lon="4.58587">
        <ele>522</ele>
        <time>2016-10-16T09:45:26Z</time>
      </trkpt>
      <trkpt lat="45.94942" lon="4.58579">
        <ele>524</ele>
        <time>2016-10-16T09:45:27Z</time>
      </trkpt>
      <trkpt lat="45.9494" lon="4.58571">
        <ele>524</ele>
        <time>2016-10-16T09:45:28Z</time>
      </trkpt>
      <trkpt lat="45.94938" lon="4.58563">
        <ele>525</ele>
        <time>2016-10-16T09:45:29Z</time>
      </trkpt>
      <trkpt lat="45.94936" lon="4.58556">
        <ele>525</ele>
        <time>2016-10-16T09:45:30Z</time>
      </trkpt>
      <trkpt lat="45.94934" lon="4.58549">
        <ele>526</ele>
        <time>2016-10-16T09:45:31Z</time>
      </trkpt>
      <trkpt lat="45.94932" lon="4.58543">
        <ele>526</ele>
        <time>2016-10-16T09:45:32Z</time>
      </trkpt>
      <trkpt lat="45.9493" lon="4.58537">
        <ele>526</ele>
        <time>2016-10-16T09:45:33Z</time>
      </trkpt>
      <trkpt lat="45.94929" lon="4.5853">
        <ele>526</ele>
        <time>2016-10-16T09:45:34Z</time>
      </trkpt>
      <trkpt lat="45.94927" lon="4.58523">
        <ele>527</ele>
        <time>2016-10-16T09:45:35Z</time>
      </trkpt>
      <trkpt lat="45.94925" lon="4.58516">
        <ele>527</ele>
        <time>2016-10-16T09:45:36Z</time>
      </trkpt>
      <trkpt lat="45.94923" lon="4.58509">
        <ele>526</ele>
        <time>2016-10-16T09:45:37Z</time>
      </trkpt>
      <trkpt lat="45.94918" lon="4.58497">
        <ele>527</ele>
        <time>2016-10-16T09:45:39Z</time>
      </trkpt>
      <trkpt lat="45.94917" lon="4.58491">
        <ele>525</ele>
        <time>2016-10-16T09:45:40Z</time>
      </trkpt>
      <trkpt lat="45.94916" lon="4.58484">
        <ele>524</ele>
        <time>2016-10-16T09:45:41Z</time>
      </trkpt>
      <trkpt lat="45.94914" lon="4.58478">
        <ele>524</ele>
        <time>2016-10-16T09:45:42Z</time>
      </trkpt>
      <trkpt lat="45.94911" lon="4.58467">
        <ele>523</ele>
        <time>2016-10-16T09:45:44Z</time>
      </trkpt>
      <trkpt lat="45.9491" lon="4.58462">
        <ele>523</ele>
        <time>2016-10-16T09:45:45Z</time>
      </trkpt>
      <trkpt lat="45.94907" lon="4.58451">
        <ele>523</ele>
        <time>2016-10-16T09:45:47Z</time>
      </trkpt>
      <trkpt lat="45.94906" lon="4.58444">
        <ele>524</ele>
        <time>2016-10-16T09:45:48Z</time>
      </trkpt>
      <trkpt lat="45.94905" lon="4.58433">
        <ele>524</ele>
        <time>2016-10-16T09:45:50Z</time>
      </trkpt>
      <trkpt lat="45.94904" lon="4.58428">
        <ele>525</ele>
        <time>2016-10-16T09:45:51Z</time>
      </trkpt>
      <trkpt lat="45.94903" lon="4.58418">
        <ele>525</ele>
        <time>2016-10-16T09:45:53Z</time>
      </trkpt>
      <trkpt lat="45.94902" lon="4.58414">
        <ele>527</ele>
        <time>2016-10-16T09:45:54Z</time>
      </trkpt>
      <trkpt lat="45.949" lon="4.58402">
        <ele>527</ele>
        <time>2016-10-16T09:45:57Z</time>
      </trkpt>
      <trkpt lat="45.949" lon="4.58396">
        <ele>526</ele>
        <time>2016-10-16T09:45:58Z</time>
      </trkpt>
      <trkpt lat="45.949" lon="4.58383">
        <ele>527</ele>
        <time>2016-10-16T09:46:00Z</time>
      </trkpt>
      <trkpt lat="45.94901" lon="4.58377">
        <ele>527</ele>
        <time>2016-10-16T09:46:01Z</time>
      </trkpt>
      <trkpt lat="45.94901" lon="4.58365">
        <ele>527</ele>
        <time>2016-10-16T09:46:03Z</time>
      </trkpt>
      <trkpt lat="45.94901" lon="4.58359">
        <ele>527</ele>
        <time>2016-10-16T09:46:04Z</time>
      </trkpt>
      <trkpt lat="45.94901" lon="4.58348">
        <ele>527</ele>
        <time>2016-10-16T09:46:06Z</time>
      </trkpt>
      <trkpt lat="45.94903" lon="4.58344">
        <ele>527</ele>
        <time>2016-10-16T09:46:07Z</time>
      </trkpt>
      <trkpt lat="45.94908" lon="4.58338">
        <ele>527</ele>
        <time>2016-10-16T09:46:09Z</time>
      </trkpt>
      <trkpt lat="45.94911" lon="4.58334">
        <ele>527</ele>
        <time>2016-10-16T09:46:10Z</time>
      </trkpt>
      <trkpt lat="45.94916" lon="4.58328">
        <ele>527</ele>
        <time>2016-10-16T09:46:12Z</time>
      </trkpt>
      <trkpt lat="45.94919" lon="4.58324">
        <ele>526</ele>
        <time>2016-10-16T09:46:13Z</time>
      </trkpt>
      <trkpt lat="45.94923" lon="4.58322">
        <ele>525</ele>
        <time>2016-10-16T09:46:14Z</time>
      </trkpt>
      <trkpt lat="45.94928" lon="4.58319">
        <ele>525</ele>
        <time>2016-10-16T09:46:15Z</time>
      </trkpt>
      <trkpt lat="45.94936" lon="4.58316">
        <ele>525</ele>
        <time>2016-10-16T09:46:17Z</time>
      </trkpt>
      <trkpt lat="45.9494" lon="4.58314">
        <ele>524</ele>
        <time>2016-10-16T09:46:18Z</time>
      </trkpt>
      <trkpt lat="45.94948" lon="4.58313">
        <ele>524</ele>
        <time>2016-10-16T09:46:20Z</time>
      </trkpt>
      <trkpt lat="45.94952" lon="4.58312">
        <ele>524</ele>
        <time>2016-10-16T09:46:21Z</time>
      </trkpt>
      <trkpt lat="45.94957" lon="4.58311">
        <ele>524</ele>
        <time>2016-10-16T09:46:22Z</time>
      </trkpt>
      <trkpt lat="45.94961" lon="4.5831">
        <ele>524</ele>
        <time>2016-10-16T09:46:23Z</time>
      </trkpt>
      <trkpt lat="45.94966" lon="4.58309">
        <ele>524</ele>
        <time>2016-10-16T09:46:24Z</time>
      </trkpt>
      <trkpt lat="45.94971" lon="4.58308">
        <ele>524</ele>
        <time>2016-10-16T09:46:25Z</time>
      </trkpt>
      <trkpt lat="45.94976" lon="4.58309">
        <ele>524</ele>
        <time>2016-10-16T09:46:26Z</time>
      </trkpt>
      <trkpt lat="45.94983" lon="4.58306">
        <ele>524</ele>
        <time>2016-10-16T09:46:27Z</time>
      </trkpt>
      <trkpt lat="45.94988" lon="4.58306">
        <ele>524</ele>
        <time>2016-10-16T09:46:28Z</time>
      </trkpt>
      <trkpt lat="45.94994" lon="4.58307">
        <ele>524</ele>
        <time>2016-10-16T09:46:29Z</time>
      </trkpt>
      <trkpt lat="45.94999" lon="4.58307">
        <ele>524</ele>
        <time>2016-10-16T09:46:30Z</time>
      </trkpt>
      <trkpt lat="45.95004" lon="4.58307">
        <ele>523</ele>
        <time>2016-10-16T09:46:31Z</time>
      </trkpt>
      <trkpt lat="45.95013" lon="4.58306">
        <ele>523</ele>
        <time>2016-10-16T09:46:33Z</time>
      </trkpt>
      <trkpt lat="45.95017" lon="4.58306">
        <ele>523</ele>
        <time>2016-10-16T09:46:34Z</time>
      </trkpt>
      <trkpt lat="45.95025" lon="4.58307">
        <ele>523</ele>
        <time>2016-10-16T09:46:36Z</time>
      </trkpt>
      <trkpt lat="45.9503" lon="4.58307">
        <ele>523</ele>
        <time>2016-10-16T09:46:37Z</time>
      </trkpt>
      <trkpt lat="45.95035" lon="4.58307">
        <ele>523</ele>
        <time>2016-10-16T09:46:38Z</time>
      </trkpt>
      <trkpt lat="45.95039" lon="4.58309">
        <ele>523</ele>
        <time>2016-10-16T09:46:39Z</time>
      </trkpt>
      <trkpt lat="45.95044" lon="4.5831">
        <ele>523</ele>
        <time>2016-10-16T09:46:40Z</time>
      </trkpt>
      <trkpt lat="45.95049" lon="4.58311">
        <ele>523</ele>
        <time>2016-10-16T09:46:41Z</time>
      </trkpt>
      <trkpt lat="45.95055" lon="4.58312">
        <ele>523</ele>
        <time>2016-10-16T09:46:42Z</time>
      </trkpt>
      <trkpt lat="45.9506" lon="4.58312">
        <ele>523</ele>
        <time>2016-10-16T09:46:43Z</time>
      </trkpt>
      <trkpt lat="45.95065" lon="4.58314">
        <ele>523</ele>
        <time>2016-10-16T09:46:44Z</time>
      </trkpt>
      <trkpt lat="45.9507" lon="4.58314">
        <ele>523</ele>
        <time>2016-10-16T09:46:45Z</time>
      </trkpt>
      <trkpt lat="45.95075" lon="4.58315">
        <ele>523</ele>
        <time>2016-10-16T09:46:46Z</time>
      </trkpt>
      <trkpt lat="45.95081" lon="4.58315">
        <ele>524</ele>
        <time>2016-10-16T09:46:47Z</time>
      </trkpt>
      <trkpt lat="45.95086" lon="4.58316">
        <ele>523</ele>
        <time>2016-10-16T09:46:48Z</time>
      </trkpt>
      <trkpt lat="45.95091" lon="4.58316">
        <ele>523</ele>
        <time>2016-10-16T09:46:49Z</time>
      </trkpt>
      <trkpt lat="45.95096" lon="4.58317">
        <ele>523</ele>
        <time>2016-10-16T09:46:50Z</time>
      </trkpt>
      <trkpt lat="45.95101" lon="4.58317">
        <ele>522</ele>
        <time>2016-10-16T09:46:51Z</time>
      </trkpt>
      <trkpt lat="45.95105" lon="4.58318">
        <ele>522</ele>
        <time>2016-10-16T09:46:52Z</time>
      </trkpt>
      <trkpt lat="45.9511" lon="4.58318">
        <ele>522</ele>
        <time>2016-10-16T09:46:53Z</time>
      </trkpt>
      <trkpt lat="45.95115" lon="4.58318">
        <ele>522</ele>
        <time>2016-10-16T09:46:54Z</time>
      </trkpt>
      <trkpt lat="45.9512" lon="4.58318">
        <ele>522</ele>
        <time>2016-10-16T09:46:55Z</time>
      </trkpt>
      <trkpt lat="45.95125" lon="4.58318">
        <ele>522</ele>
        <time>2016-10-16T09:46:56Z</time>
      </trkpt>
      <trkpt lat="45.9513" lon="4.58318">
        <ele>522</ele>
        <time>2016-10-16T09:46:57Z</time>
      </trkpt>
      <trkpt lat="45.95135" lon="4.58319">
        <ele>522</ele>
        <time>2016-10-16T09:46:58Z</time>
      </trkpt>
      <trkpt lat="45.9514" lon="4.58319">
        <ele>522</ele>
        <time>2016-10-16T09:46:59Z</time>
      </trkpt>
      <trkpt lat="45.95145" lon="4.5832">
        <ele>522</ele>
        <time>2016-10-16T09:47:00Z</time>
      </trkpt>
      <trkpt lat="45.9515" lon="4.5832">
        <ele>523</ele>
        <time>2016-10-16T09:47:01Z</time>
      </trkpt>
      <trkpt lat="45.95156" lon="4.58321">
        <ele>523</ele>
        <time>2016-10-16T09:47:02Z</time>
      </trkpt>
      <trkpt lat="45.95161" lon="4.58322">
        <ele>524</ele>
        <time>2016-10-16T09:47:03Z</time>
      </trkpt>
      <trkpt lat="45.95167" lon="4.58323">
        <ele>524</ele>
        <time>2016-10-16T09:47:04Z</time>
      </trkpt>
      <trkpt lat="45.95171" lon="4.58323">
        <ele>523</ele>
        <time>2016-10-16T09:47:05Z</time>
      </trkpt>
      <trkpt lat="45.95176" lon="4.58324">
        <ele>523</ele>
        <time>2016-10-16T09:47:06Z</time>
      </trkpt>
      <trkpt lat="45.9518" lon="4.58325">
        <ele>522</ele>
        <time>2016-10-16T09:47:07Z</time>
      </trkpt>
      <trkpt lat="45.95189" lon="4.58327">
        <ele>521</ele>
        <time>2016-10-16T09:47:09Z</time>
      </trkpt>
      <trkpt lat="45.95194" lon="4.58328">
        <ele>520</ele>
        <time>2016-10-16T09:47:10Z</time>
      </trkpt>
      <trkpt lat="45.95198" lon="4.58328">
        <ele>520</ele>
        <time>2016-10-16T09:47:11Z</time>
      </trkpt>
      <trkpt lat="45.95203" lon="4.58329">
        <ele>519</ele>
        <time>2016-10-16T09:47:12Z</time>
      </trkpt>
      <trkpt lat="45.95209" lon="4.5833">
        <ele>519</ele>
        <time>2016-10-16T09:47:13Z</time>
      </trkpt>
      <trkpt lat="45.95214" lon="4.58332">
        <ele>519</ele>
        <time>2016-10-16T09:47:14Z</time>
      </trkpt>
      <trkpt lat="45.95219" lon="4.58333">
        <ele>519</ele>
        <time>2016-10-16T09:47:15Z</time>
      </trkpt>
      <trkpt lat="45.95224" lon="4.58335">
        <ele>527</ele>
        <time>2016-10-16T09:47:16Z</time>
      </trkpt>
      <trkpt lat="45.95228" lon="4.58337">
        <ele>526</ele>
        <time>2016-10-16T09:47:17Z</time>
      </trkpt>
      <trkpt lat="45.95233" lon="4.58338">
        <ele>526</ele>
        <time>2016-10-16T09:47:18Z</time>
      </trkpt>
      <trkpt lat="45.95237" lon="4.5834">
        <ele>525</ele>
        <time>2016-10-16T09:47:19Z</time>
      </trkpt>
      <trkpt lat="45.95242" lon="4.58342">
        <ele>524</ele>
        <time>2016-10-16T09:47:20Z</time>
      </trkpt>
      <trkpt lat="45.95246" lon="4.58343">
        <ele>524</ele>
        <time>2016-10-16T09:47:21Z</time>
      </trkpt>
      <trkpt lat="45.95251" lon="4.58344">
        <ele>522</ele>
        <time>2016-10-16T09:47:22Z</time>
      </trkpt>
      <trkpt lat="45.95259" lon="4.58347">
        <ele>522</ele>
        <time>2016-10-16T09:47:24Z</time>
      </trkpt>
      <trkpt lat="45.95264" lon="4.58348">
        <ele>522</ele>
        <time>2016-10-16T09:47:25Z</time>
      </trkpt>
      <trkpt lat="45.95268" lon="4.5835">
        <ele>522</ele>
        <time>2016-10-16T09:47:26Z</time>
      </trkpt>
      <trkpt lat="45.95273" lon="4.58352">
        <ele>522</ele>
        <time>2016-10-16T09:47:27Z</time>
      </trkpt>
      <trkpt lat="45.95277" lon="4.58355">
        <ele>522</ele>
        <time>2016-10-16T09:47:28Z</time>
      </trkpt>
      <trkpt lat="45.95282" lon="4.58358">
        <ele>522</ele>
        <time>2016-10-16T09:47:29Z</time>
      </trkpt>
      <trkpt lat="45.95287" lon="4.58361">
        <ele>522</ele>
        <time>2016-10-16T09:47:30Z</time>
      </trkpt>
      <trkpt lat="45.95292" lon="4.58363">
        <ele>522</ele>
        <time>2016-10-16T09:47:31Z</time>
      </trkpt>
      <trkpt lat="45.95297" lon="4.58366">
        <ele>522</ele>
        <time>2016-10-16T09:47:32Z</time>
      </trkpt>
      <trkpt lat="45.95302" lon="4.5837">
        <ele>522</ele>
        <time>2016-10-16T09:47:33Z</time>
      </trkpt>
      <trkpt lat="45.95307" lon="4.58373">
        <ele>522</ele>
        <time>2016-10-16T09:47:34Z</time>
      </trkpt>
      <trkpt lat="45.95312" lon="4.58376">
        <ele>522</ele>
        <time>2016-10-16T09:47:35Z</time>
      </trkpt>
      <trkpt lat="45.95317" lon="4.5838">
        <ele>522</ele>
        <time>2016-10-16T09:47:36Z</time>
      </trkpt>
      <trkpt lat="45.95325" lon="4.58387">
        <ele>523</ele>
        <time>2016-10-16T09:47:38Z</time>
      </trkpt>
      <trkpt lat="45.95329" lon="4.58391">
        <ele>523</ele>
        <time>2016-10-16T09:47:39Z</time>
      </trkpt>
      <trkpt lat="45.95333" lon="4.58396">
        <ele>523</ele>
        <time>2016-10-16T09:47:40Z</time>
      </trkpt>
      <trkpt lat="45.95336" lon="4.584">
        <ele>519</ele>
        <time>2016-10-16T09:47:41Z</time>
      </trkpt>
      <trkpt lat="45.9534" lon="4.58404">
        <ele>520</ele>
        <time>2016-10-16T09:47:42Z</time>
      </trkpt>
      <trkpt lat="45.95345" lon="4.58409">
        <ele>520</ele>
        <time>2016-10-16T09:47:43Z</time>
      </trkpt>
      <trkpt lat="45.95349" lon="4.58413">
        <ele>519</ele>
        <time>2016-10-16T09:47:44Z</time>
      </trkpt>
      <trkpt lat="45.95353" lon="4.58417">
        <ele>524</ele>
        <time>2016-10-16T09:47:45Z</time>
      </trkpt>
      <trkpt lat="45.95358" lon="4.58421">
        <ele>524</ele>
        <time>2016-10-16T09:47:46Z</time>
      </trkpt>
      <trkpt lat="45.95364" lon="4.58422">
        <ele>524</ele>
        <time>2016-10-16T09:47:47Z</time>
      </trkpt>
      <trkpt lat="45.95368" lon="4.58428">
        <ele>523</ele>
        <time>2016-10-16T09:47:48Z</time>
      </trkpt>
      <trkpt lat="45.95373" lon="4.58434">
        <ele>523</ele>
        <time>2016-10-16T09:47:49Z</time>
      </trkpt>
      <trkpt lat="45.95378" lon="4.5844">
        <ele>523</ele>
        <time>2016-10-16T09:47:50Z</time>
      </trkpt>
      <trkpt lat="45.95382" lon="4.58445">
        <ele>523</ele>
        <time>2016-10-16T09:47:51Z</time>
      </trkpt>
      <trkpt lat="45.95386" lon="4.58451">
        <ele>524</ele>
        <time>2016-10-16T09:47:52Z</time>
      </trkpt>
      <trkpt lat="45.9539" lon="4.58457">
        <ele>524</ele>
        <time>2016-10-16T09:47:53Z</time>
      </trkpt>
      <trkpt lat="45.95394" lon="4.58463">
        <ele>524</ele>
        <time>2016-10-16T09:47:54Z</time>
      </trkpt>
      <trkpt lat="45.95398" lon="4.58468">
        <ele>524</ele>
        <time>2016-10-16T09:47:55Z</time>
      </trkpt>
      <trkpt lat="45.95402" lon="4.58473">
        <ele>525</ele>
        <time>2016-10-16T09:47:56Z</time>
      </trkpt>
      <trkpt lat="45.95407" lon="4.58478">
        <ele>525</ele>
        <time>2016-10-16T09:47:57Z</time>
      </trkpt>
      <trkpt lat="45.95411" lon="4.58483">
        <ele>526</ele>
        <time>2016-10-16T09:47:58Z</time>
      </trkpt>
      <trkpt lat="45.95415" lon="4.58488">
        <ele>526</ele>
        <time>2016-10-16T09:47:59Z</time>
      </trkpt>
      <trkpt lat="45.95419" lon="4.58493">
        <ele>522</ele>
        <time>2016-10-16T09:48:00Z</time>
      </trkpt>
      <trkpt lat="45.95422" lon="4.58498">
        <ele>523</ele>
        <time>2016-10-16T09:48:01Z</time>
      </trkpt>
      <trkpt lat="45.95426" lon="4.58504">
        <ele>524</ele>
        <time>2016-10-16T09:48:02Z</time>
      </trkpt>
      <trkpt lat="45.9543" lon="4.58508">
        <ele>523</ele>
        <time>2016-10-16T09:48:03Z</time>
      </trkpt>
      <trkpt lat="45.95434" lon="4.58515">
        <ele>522</ele>
        <time>2016-10-16T09:48:04Z</time>
      </trkpt>
      <trkpt lat="45.95437" lon="4.58521">
        <ele>521</ele>
        <time>2016-10-16T09:48:05Z</time>
      </trkpt>
      <trkpt lat="45.95446" lon="4.58538">
        <ele>521</ele>
        <time>2016-10-16T09:48:08Z</time>
      </trkpt>
      <trkpt lat="45.95449" lon="4.58544">
        <ele>520</ele>
        <time>2016-10-16T09:48:09Z</time>
      </trkpt>
      <trkpt lat="45.95452" lon="4.58549">
        <ele>520</ele>
        <time>2016-10-16T09:48:10Z</time>
      </trkpt>
      <trkpt lat="45.95455" lon="4.58555">
        <ele>520</ele>
        <time>2016-10-16T09:48:11Z</time>
      </trkpt>
      <trkpt lat="45.95457" lon="4.58561">
        <ele>520</ele>
        <time>2016-10-16T09:48:12Z</time>
      </trkpt>
      <trkpt lat="45.9546" lon="4.58568">
        <ele>520</ele>
        <time>2016-10-16T09:48:13Z</time>
      </trkpt>
      <trkpt lat="45.95463" lon="4.58574">
        <ele>519</ele>
        <time>2016-10-16T09:48:14Z</time>
      </trkpt>
      <trkpt lat="45.95465" lon="4.58581">
        <ele>519</ele>
        <time>2016-10-16T09:48:15Z</time>
      </trkpt>
      <trkpt lat="45.95467" lon="4.58588">
        <ele>522</ele>
        <time>2016-10-16T09:48:16Z</time>
      </trkpt>
      <trkpt lat="45.95468" lon="4.58594">
        <ele>522</ele>
        <time>2016-10-16T09:48:17Z</time>
      </trkpt>
      <trkpt lat="45.95471" lon="4.58601">
        <ele>521</ele>
        <time>2016-10-16T09:48:18Z</time>
      </trkpt>
      <trkpt lat="45.95474" lon="4.58607">
        <ele>521</ele>
        <time>2016-10-16T09:48:19Z</time>
      </trkpt>
      <trkpt lat="45.95476" lon="4.58614">
        <ele>521</ele>
        <time>2016-10-16T09:48:20Z</time>
      </trkpt>
      <trkpt lat="45.95478" lon="4.58622">
        <ele>521</ele>
        <time>2016-10-16T09:48:21Z</time>
      </trkpt>
      <trkpt lat="45.9548" lon="4.5863">
        <ele>521</ele>
        <time>2016-10-16T09:48:22Z</time>
      </trkpt>
      <trkpt lat="45.95482" lon="4.58637">
        <ele>521</ele>
        <time>2016-10-16T09:48:23Z</time>
      </trkpt>
      <trkpt lat="45.95483" lon="4.58645">
        <ele>521</ele>
        <time>2016-10-16T09:48:24Z</time>
      </trkpt>
      <trkpt lat="45.95484" lon="4.58653">
        <ele>520</ele>
        <time>2016-10-16T09:48:25Z</time>
      </trkpt>
      <trkpt lat="45.95485" lon="4.5866">
        <ele>519</ele>
        <time>2016-10-16T09:48:26Z</time>
      </trkpt>
      <trkpt lat="45.95486" lon="4.58667">
        <ele>519</ele>
        <time>2016-10-16T09:48:27Z</time>
      </trkpt>
      <trkpt lat="45.95488" lon="4.58674">
        <ele>520</ele>
        <time>2016-10-16T09:48:28Z</time>
      </trkpt>
      <trkpt lat="45.95489" lon="4.58681">
        <ele>521</ele>
        <time>2016-10-16T09:48:29Z</time>
      </trkpt>
      <trkpt lat="45.9549" lon="4.58689">
        <ele>522</ele>
        <time>2016-10-16T09:48:30Z</time>
      </trkpt>
      <trkpt lat="45.95491" lon="4.58695">
        <ele>522</ele>
        <time>2016-10-16T09:48:31Z</time>
      </trkpt>
      <trkpt lat="45.95494" lon="4.58703">
        <ele>523</ele>
        <time>2016-10-16T09:48:32Z</time>
      </trkpt>
      <trkpt lat="45.95496" lon="4.58712">
        <ele>523</ele>
        <time>2016-10-16T09:48:33Z</time>
      </trkpt>
      <trkpt lat="45.95496" lon="4.5872">
        <ele>523</ele>
        <time>2016-10-16T09:48:34Z</time>
      </trkpt>
      <trkpt lat="45.95495" lon="4.58728">
        <ele>523</ele>
        <time>2016-10-16T09:48:35Z</time>
      </trkpt>
      <trkpt lat="45.95494" lon="4.58736">
        <ele>523</ele>
        <time>2016-10-16T09:48:36Z</time>
      </trkpt>
      <trkpt lat="45.95494" lon="4.58744">
        <ele>522</ele>
        <time>2016-10-16T09:48:37Z</time>
      </trkpt>
      <trkpt lat="45.95492" lon="4.58751">
        <ele>523</ele>
        <time>2016-10-16T09:48:38Z</time>
      </trkpt>
      <trkpt lat="45.95491" lon="4.58759">
        <ele>524</ele>
        <time>2016-10-16T09:48:39Z</time>
      </trkpt>
      <trkpt lat="45.95492" lon="4.58767">
        <ele>526</ele>
        <time>2016-10-16T09:48:40Z</time>
      </trkpt>
      <trkpt lat="45.95493" lon="4.58776">
        <ele>527</ele>
        <time>2016-10-16T09:48:41Z</time>
      </trkpt>
      <trkpt lat="45.95494" lon="4.58784">
        <ele>527</ele>
        <time>2016-10-16T09:48:42Z</time>
      </trkpt>
      <trkpt lat="45.95497" lon="4.58792">
        <ele>528</ele>
        <time>2016-10-16T09:48:43Z</time>
      </trkpt>
      <trkpt lat="45.95499" lon="4.58799">
        <ele>528</ele>
        <time>2016-10-16T09:48:44Z</time>
      </trkpt>
      <trkpt lat="45.95502" lon="4.58806">
        <ele>520</ele>
        <time>2016-10-16T09:48:45Z</time>
      </trkpt>
      <trkpt lat="45.95505" lon="4.58813">
        <ele>521</ele>
        <time>2016-10-16T09:48:46Z</time>
      </trkpt>
      <trkpt lat="45.95508" lon="4.5882">
        <ele>522</ele>
        <time>2016-10-16T09:48:47Z</time>
      </trkpt>
      <trkpt lat="45.9551" lon="4.58828">
        <ele>523</ele>
        <time>2016-10-16T09:48:48Z</time>
      </trkpt>
      <trkpt lat="45.95514" lon="4.58834">
        <ele>527</ele>
        <time>2016-10-16T09:48:49Z</time>
      </trkpt>
      <trkpt lat="45.95517" lon="4.5884">
        <ele>527</ele>
        <time>2016-10-16T09:48:50Z</time>
      </trkpt>
      <trkpt lat="45.95521" lon="4.58846">
        <ele>527</ele>
        <time>2016-10-16T09:48:51Z</time>
      </trkpt>
      <trkpt lat="45.95525" lon="4.58851">
        <ele>527</ele>
        <time>2016-10-16T09:48:52Z</time>
      </trkpt>
      <trkpt lat="45.95529" lon="4.58855">
        <ele>527</ele>
        <time>2016-10-16T09:48:53Z</time>
      </trkpt>
      <trkpt lat="45.95533" lon="4.58859">
        <ele>528</ele>
        <time>2016-10-16T09:48:54Z</time>
      </trkpt>
      <trkpt lat="45.95538" lon="4.58862">
        <ele>528</ele>
        <time>2016-10-16T09:48:55Z</time>
      </trkpt>
      <trkpt lat="45.95544" lon="4.58864">
        <ele>528</ele>
        <time>2016-10-16T09:48:56Z</time>
      </trkpt>
      <trkpt lat="45.95549" lon="4.58866">
        <ele>527</ele>
        <time>2016-10-16T09:48:57Z</time>
      </trkpt>
      <trkpt lat="45.95555" lon="4.58867">
        <ele>527</ele>
        <time>2016-10-16T09:48:58Z</time>
      </trkpt>
      <trkpt lat="45.95562" lon="4.58868">
        <ele>527</ele>
        <time>2016-10-16T09:48:59Z</time>
      </trkpt>
      <trkpt lat="45.95568" lon="4.58868">
        <ele>527</ele>
        <time>2016-10-16T09:49:00Z</time>
      </trkpt>
      <trkpt lat="45.95574" lon="4.58869">
        <ele>527</ele>
        <time>2016-10-16T09:49:01Z</time>
      </trkpt>
      <trkpt lat="45.9558" lon="4.58869">
        <ele>527</ele>
        <time>2016-10-16T09:49:02Z</time>
      </trkpt>
      <trkpt lat="45.95585" lon="4.5887">
        <ele>526</ele>
        <time>2016-10-16T09:49:03Z</time>
      </trkpt>
      <trkpt lat="45.95591" lon="4.5887">
        <ele>526</ele>
        <time>2016-10-16T09:49:04Z</time>
      </trkpt>
      <trkpt lat="45.95596" lon="4.58869">
        <ele>526</ele>
        <time>2016-10-16T09:49:05Z</time>
      </trkpt>
      <trkpt lat="45.95601" lon="4.58869">
        <ele>526</ele>
        <time>2016-10-16T09:49:06Z</time>
      </trkpt>
      <trkpt lat="45.95607" lon="4.58869">
        <ele>526</ele>
        <time>2016-10-16T09:49:07Z</time>
      </trkpt>
      <trkpt lat="45.95612" lon="4.58868">
        <ele>526</ele>
        <time>2016-10-16T09:49:08Z</time>
      </trkpt>
      <trkpt lat="45.95617" lon="4.58867">
        <ele>526</ele>
        <time>2016-10-16T09:49:09Z</time>
      </trkpt>
      <trkpt lat="45.95623" lon="4.58866">
        <ele>526</ele>
        <time>2016-10-16T09:49:10Z</time>
      </trkpt>
      <trkpt lat="45.95629" lon="4.58865">
        <ele>526</ele>
        <time>2016-10-16T09:49:11Z</time>
      </trkpt>
      <trkpt lat="45.95635" lon="4.58864">
        <ele>526</ele>
        <time>2016-10-16T09:49:12Z</time>
      </trkpt>
      <trkpt lat="45.95641" lon="4.58862">
        <ele>525</ele>
        <time>2016-10-16T09:49:13Z</time>
      </trkpt>
      <trkpt lat="45.95647" lon="4.58861">
        <ele>525</ele>
        <time>2016-10-16T09:49:14Z</time>
      </trkpt>
      <trkpt lat="45.95653" lon="4.58859">
        <ele>524</ele>
        <time>2016-10-16T09:49:15Z</time>
      </trkpt>
      <trkpt lat="45.95659" lon="4.58858">
        <ele>524</ele>
        <time>2016-10-16T09:49:16Z</time>
      </trkpt>
      <trkpt lat="45.95664" lon="4.58855">
        <ele>523</ele>
        <time>2016-10-16T09:49:17Z</time>
      </trkpt>
      <trkpt lat="45.95669" lon="4.58851">
        <ele>525</ele>
        <time>2016-10-16T09:49:18Z</time>
      </trkpt>
      <trkpt lat="45.95674" lon="4.5885">
        <ele>525</ele>
        <time>2016-10-16T09:49:19Z</time>
      </trkpt>
      <trkpt lat="45.9568" lon="4.58849">
        <ele>526</ele>
        <time>2016-10-16T09:49:20Z</time>
      </trkpt>
      <trkpt lat="45.95686" lon="4.58848">
        <ele>527</ele>
        <time>2016-10-16T09:49:21Z</time>
      </trkpt>
      <trkpt lat="45.95691" lon="4.58846">
        <ele>528</ele>
        <time>2016-10-16T09:49:22Z</time>
      </trkpt>
      <trkpt lat="45.95696" lon="4.58844">
        <ele>528</ele>
        <time>2016-10-16T09:49:23Z</time>
      </trkpt>
      <trkpt lat="45.95701" lon="4.58842">
        <ele>529</ele>
        <time>2016-10-16T09:49:24Z</time>
      </trkpt>
      <trkpt lat="45.95705" lon="4.5884">
        <ele>529</ele>
        <time>2016-10-16T09:49:25Z</time>
      </trkpt>
      <trkpt lat="45.9571" lon="4.58837">
        <ele>530</ele>
        <time>2016-10-16T09:49:26Z</time>
      </trkpt>
      <trkpt lat="45.95714" lon="4.58834">
        <ele>530</ele>
        <time>2016-10-16T09:49:27Z</time>
      </trkpt>
      <trkpt lat="45.95718" lon="4.5883">
        <ele>518</ele>
        <time>2016-10-16T09:49:28Z</time>
      </trkpt>
      <trkpt lat="45.95723" lon="4.58826">
        <ele>519</ele>
        <time>2016-10-16T09:49:29Z</time>
      </trkpt>
      <trkpt lat="45.95727" lon="4.58822">
        <ele>519</ele>
        <time>2016-10-16T09:49:30Z</time>
      </trkpt>
      <trkpt lat="45.95732" lon="4.58818">
        <ele>520</ele>
        <time>2016-10-16T09:49:31Z</time>
      </trkpt>
      <trkpt lat="45.95736" lon="4.58814">
        <ele>520</ele>
        <time>2016-10-16T09:49:32Z</time>
      </trkpt>
      <trkpt lat="45.95741" lon="4.5881">
        <ele>519</ele>
        <time>2016-10-16T09:49:33Z</time>
      </trkpt>
      <trkpt lat="45.95746" lon="4.58805">
        <ele>519</ele>
        <time>2016-10-16T09:49:34Z</time>
      </trkpt>
      <trkpt lat="45.95751" lon="4.58802">
        <ele>525</ele>
        <time>2016-10-16T09:49:35Z</time>
      </trkpt>
      <trkpt lat="45.95756" lon="4.58798">
        <ele>525</ele>
        <time>2016-10-16T09:49:36Z</time>
      </trkpt>
      <trkpt lat="45.95761" lon="4.58795">
        <ele>525</ele>
        <time>2016-10-16T09:49:37Z</time>
      </trkpt>
      <trkpt lat="45.95765" lon="4.58793">
        <ele>525</ele>
        <time>2016-10-16T09:49:38Z</time>
      </trkpt>
      <trkpt lat="45.9577" lon="4.58791">
        <ele>525</ele>
        <time>2016-10-16T09:49:39Z</time>
      </trkpt>
      <trkpt lat="45.95774" lon="4.58789">
        <ele>525</ele>
        <time>2016-10-16T09:49:40Z</time>
      </trkpt>
      <trkpt lat="45.95779" lon="4.58787">
        <ele>525</ele>
        <time>2016-10-16T09:49:41Z</time>
      </trkpt>
      <trkpt lat="45.95783" lon="4.58784">
        <ele>525</ele>
        <time>2016-10-16T09:49:42Z</time>
      </trkpt>
      <trkpt lat="45.95788" lon="4.58782">
        <ele>525</ele>
        <time>2016-10-16T09:49:43Z</time>
      </trkpt>
      <trkpt lat="45.95793" lon="4.5878">
        <ele>525</ele>
        <time>2016-10-16T09:49:44Z</time>
      </trkpt>
      <trkpt lat="45.95797" lon="4.58777">
        <ele>525</ele>
        <time>2016-10-16T09:49:45Z</time>
      </trkpt>
      <trkpt lat="45.95802" lon="4.58774">
        <ele>525</ele>
        <time>2016-10-16T09:49:46Z</time>
      </trkpt>
      <trkpt lat="45.95806" lon="4.58772">
        <ele>525</ele>
        <time>2016-10-16T09:49:47Z</time>
      </trkpt>
      <trkpt lat="45.95811" lon="4.5877">
        <ele>525</ele>
        <time>2016-10-16T09:49:48Z</time>
      </trkpt>
      <trkpt lat="45.95816" lon="4.58767">
        <ele>525</ele>
        <time>2016-10-16T09:49:49Z</time>
      </trkpt>
      <trkpt lat="45.9582" lon="4.58764">
        <ele>525</ele>
        <time>2016-10-16T09:49:50Z</time>
      </trkpt>
      <trkpt lat="45.95828" lon="4.58758">
        <ele>525</ele>
        <time>2016-10-16T09:49:52Z</time>
      </trkpt>
      <trkpt lat="45.95832" lon="4.58754">
        <ele>524</ele>
        <time>2016-10-16T09:49:53Z</time>
      </trkpt>
      <trkpt lat="45.95836" lon="4.58751">
        <ele>526</ele>
        <time>2016-10-16T09:49:54Z</time>
      </trkpt>
      <trkpt lat="45.9584" lon="4.58748">
        <ele>525</ele>
        <time>2016-10-16T09:49:55Z</time>
      </trkpt>
      <trkpt lat="45.95845" lon="4.58744">
        <ele>526</ele>
        <time>2016-10-16T09:49:56Z</time>
      </trkpt>
      <trkpt lat="45.95849" lon="4.58741">
        <ele>526</ele>
        <time>2016-10-16T09:49:57Z</time>
      </trkpt>
      <trkpt lat="45.95853" lon="4.58736">
        <ele>527</ele>
        <time>2016-10-16T09:49:58Z</time>
      </trkpt>
      <trkpt lat="45.95857" lon="4.58731">
        <ele>527</ele>
        <time>2016-10-16T09:49:59Z</time>
      </trkpt>
      <trkpt lat="45.95861" lon="4.58727">
        <ele>527</ele>
        <time>2016-10-16T09:50:00Z</time>
      </trkpt>
      <trkpt lat="45.95865" lon="4.58723">
        <ele>528</ele>
        <time>2016-10-16T09:50:01Z</time>
      </trkpt>
      <trkpt lat="45.95869" lon="4.58719">
        <ele>528</ele>
        <time>2016-10-16T09:50:02Z</time>
      </trkpt>
      <trkpt lat="45.95873" lon="4.58714">
        <ele>528</ele>
        <time>2016-10-16T09:50:03Z</time>
      </trkpt>
      <trkpt lat="45.95877" lon="4.58703">
        <ele>527</ele>
        <time>2016-10-16T09:50:05Z</time>
      </trkpt>
      <trkpt lat="45.9588" lon="4.58697">
        <ele>527</ele>
        <time>2016-10-16T09:50:06Z</time>
      </trkpt>
      <trkpt lat="45.95883" lon="4.5869">
        <ele>527</ele>
        <time>2016-10-16T09:50:07Z</time>
      </trkpt>
      <trkpt lat="45.95886" lon="4.58684">
        <ele>527</ele>
        <time>2016-10-16T09:50:08Z</time>
      </trkpt>
      <trkpt lat="45.95889" lon="4.58678">
        <ele>527</ele>
        <time>2016-10-16T09:50:09Z</time>
      </trkpt>
      <trkpt lat="45.95891" lon="4.58672">
        <ele>527</ele>
        <time>2016-10-16T09:50:10Z</time>
      </trkpt>
      <trkpt lat="45.95894" lon="4.58667">
        <ele>519</ele>
        <time>2016-10-16T09:50:11Z</time>
      </trkpt>
      <trkpt lat="45.95897" lon="4.58661">
        <ele>519</ele>
        <time>2016-10-16T09:50:12Z</time>
      </trkpt>
      <trkpt lat="45.959" lon="4.58655">
        <ele>520</ele>
        <time>2016-10-16T09:50:13Z</time>
      </trkpt>
      <trkpt lat="45.95903" lon="4.58649">
        <ele>519</ele>
        <time>2016-10-16T09:50:14Z</time>
      </trkpt>
      <trkpt lat="45.95905" lon="4.58644">
        <ele>518</ele>
        <time>2016-10-16T09:50:15Z</time>
      </trkpt>
      <trkpt lat="45.95908" lon="4.58638">
        <ele>517</ele>
        <time>2016-10-16T09:50:16Z</time>
      </trkpt>
      <trkpt lat="45.95911" lon="4.58633">
        <ele>516</ele>
        <time>2016-10-16T09:50:17Z</time>
      </trkpt>
      <trkpt lat="45.95914" lon="4.58627">
        <ele>516</ele>
        <time>2016-10-16T09:50:18Z</time>
      </trkpt>
      <trkpt lat="45.95917" lon="4.58622">
        <ele>525</ele>
        <time>2016-10-16T09:50:19Z</time>
      </trkpt>
      <trkpt lat="45.95921" lon="4.58618">
        <ele>525</ele>
        <time>2016-10-16T09:50:20Z</time>
      </trkpt>
      <trkpt lat="45.95924" lon="4.58613">
        <ele>524</ele>
        <time>2016-10-16T09:50:21Z</time>
      </trkpt>
      <trkpt lat="45.95928" lon="4.58608">
        <ele>523</ele>
        <time>2016-10-16T09:50:22Z</time>
      </trkpt>
      <trkpt lat="45.95931" lon="4.58603">
        <ele>523</ele>
        <time>2016-10-16T09:50:23Z</time>
      </trkpt>
      <trkpt lat="45.95935" lon="4.58598">
        <ele>523</ele>
        <time>2016-10-16T09:50:24Z</time>
      </trkpt>
      <trkpt lat="45.95939" lon="4.58594">
        <ele>523</ele>
        <time>2016-10-16T09:50:25Z</time>
      </trkpt>
      <trkpt lat="45.95943" lon="4.5859">
        <ele>523</ele>
        <time>2016-10-16T09:50:26Z</time>
      </trkpt>
      <trkpt lat="45.95948" lon="4.58586">
        <ele>523</ele>
        <time>2016-10-16T09:50:27Z</time>
      </trkpt>
      <trkpt lat="45.95953" lon="4.58583">
        <ele>514</ele>
        <time>2016-10-16T09:50:28Z</time>
      </trkpt>
      <trkpt lat="45.95958" lon="4.58581">
        <ele>514</ele>
        <time>2016-10-16T09:50:29Z</time>
      </trkpt>
      <trkpt lat="45.95964" lon="4.5858">
        <ele>514</ele>
        <time>2016-10-16T09:50:30Z</time>
      </trkpt>
      <trkpt lat="45.9597" lon="4.5858">
        <ele>514</ele>
        <time>2016-10-16T09:50:31Z</time>
      </trkpt>
      <trkpt lat="45.95975" lon="4.58581">
        <ele>515</ele>
        <time>2016-10-16T09:50:32Z</time>
      </trkpt>
      <trkpt lat="45.95981" lon="4.58582">
        <ele>516</ele>
        <time>2016-10-16T09:50:33Z</time>
      </trkpt>
      <trkpt lat="45.95987" lon="4.58583">
        <ele>517</ele>
        <time>2016-10-16T09:50:34Z</time>
      </trkpt>
      <trkpt lat="45.95992" lon="4.58586">
        <ele>522</ele>
        <time>2016-10-16T09:50:35Z</time>
      </trkpt>
      <trkpt lat="45.95998" lon="4.58589">
        <ele>521</ele>
        <time>2016-10-16T09:50:36Z</time>
      </trkpt>
      <trkpt lat="45.96003" lon="4.58592">
        <ele>522</ele>
        <time>2016-10-16T09:50:37Z</time>
      </trkpt>
      <trkpt lat="45.96009" lon="4.58595">
        <ele>523</ele>
        <time>2016-10-16T09:50:38Z</time>
      </trkpt>
      <trkpt lat="45.96014" lon="4.58598">
        <ele>524</ele>
        <time>2016-10-16T09:50:39Z</time>
      </trkpt>
      <trkpt lat="45.9602" lon="4.58602">
        <ele>525</ele>
        <time>2016-10-16T09:50:40Z</time>
      </trkpt>
      <trkpt lat="45.96025" lon="4.58607">
        <ele>525</ele>
        <time>2016-10-16T09:50:41Z</time>
      </trkpt>
      <trkpt lat="45.96031" lon="4.58611">
        <ele>526</ele>
        <time>2016-10-16T09:50:42Z</time>
      </trkpt>
      <trkpt lat="45.96036" lon="4.58615">
        <ele>526</ele>
        <time>2016-10-16T09:50:43Z</time>
      </trkpt>
      <trkpt lat="45.96042" lon="4.58618">
        <ele>526</ele>
        <time>2016-10-16T09:50:44Z</time>
      </trkpt>
      <trkpt lat="45.96048" lon="4.58621">
        <ele>526</ele>
        <time>2016-10-16T09:50:45Z</time>
      </trkpt>
      <trkpt lat="45.96053" lon="4.58623">
        <ele>527</ele>
        <time>2016-10-16T09:50:46Z</time>
      </trkpt>
      <trkpt lat="45.96058" lon="4.58625">
        <ele>527</ele>
        <time>2016-10-16T09:50:47Z</time>
      </trkpt>
      <trkpt lat="45.96064" lon="4.58627">
        <ele>527</ele>
        <time>2016-10-16T09:50:48Z</time>
      </trkpt>
      <trkpt lat="45.96069" lon="4.58628">
        <ele>527</ele>
        <time>2016-10-16T09:50:49Z</time>
      </trkpt>
      <trkpt lat="45.96073" lon="4.5863">
        <ele>527</ele>
        <time>2016-10-16T09:50:50Z</time>
      </trkpt>
      <trkpt lat="45.96078" lon="4.58632">
        <ele>527</ele>
        <time>2016-10-16T09:50:51Z</time>
      </trkpt>
      <trkpt lat="45.96083" lon="4.58632">
        <ele>528</ele>
        <time>2016-10-16T09:50:52Z</time>
      </trkpt>
      <trkpt lat="45.96088" lon="4.58633">
        <ele>531</ele>
        <time>2016-10-16T09:50:53Z</time>
      </trkpt>
      <trkpt lat="45.96093" lon="4.58633">
        <ele>532</ele>
        <time>2016-10-16T09:50:54Z</time>
      </trkpt>
      <trkpt lat="45.96099" lon="4.58632">
        <ele>532</ele>
        <time>2016-10-16T09:50:55Z</time>
      </trkpt>
      <trkpt lat="45.96104" lon="4.5863">
        <ele>532</ele>
        <time>2016-10-16T09:50:56Z</time>
      </trkpt>
      <trkpt lat="45.96109" lon="4.58627">
        <ele>532</ele>
        <time>2016-10-16T09:50:57Z</time>
      </trkpt>
      <trkpt lat="45.96114" lon="4.58624">
        <ele>532</ele>
        <time>2016-10-16T09:50:58Z</time>
      </trkpt>
      <trkpt lat="45.96118" lon="4.58621">
        <ele>532</ele>
        <time>2016-10-16T09:50:59Z</time>
      </trkpt>
      <trkpt lat="45.96122" lon="4.58617">
        <ele>532</ele>
        <time>2016-10-16T09:51:00Z</time>
      </trkpt>
      <trkpt lat="45.96126" lon="4.58613">
        <ele>532</ele>
        <time>2016-10-16T09:51:01Z</time>
      </trkpt>
      <trkpt lat="45.9613" lon="4.5861">
        <ele>532</ele>
        <time>2016-10-16T09:51:02Z</time>
      </trkpt>
      <trkpt lat="45.96134" lon="4.58606">
        <ele>532</ele>
        <time>2016-10-16T09:51:03Z</time>
      </trkpt>
      <trkpt lat="45.96138" lon="4.58602">
        <ele>532</ele>
        <time>2016-10-16T09:51:04Z</time>
      </trkpt>
      <trkpt lat="45.96143" lon="4.58599">
        <ele>532</ele>
        <time>2016-10-16T09:51:05Z</time>
      </trkpt>
      <trkpt lat="45.96146" lon="4.58593">
        <ele>532</ele>
        <time>2016-10-16T09:51:06Z</time>
      </trkpt>
      <trkpt lat="45.9615" lon="4.58588">
        <ele>531</ele>
        <time>2016-10-16T09:51:07Z</time>
      </trkpt>
      <trkpt lat="45.96154" lon="4.58582">
        <ele>523</ele>
        <time>2016-10-16T09:51:08Z</time>
      </trkpt>
      <trkpt lat="45.96157" lon="4.58576">
        <ele>523</ele>
        <time>2016-10-16T09:51:09Z</time>
      </trkpt>
      <trkpt lat="45.96159" lon="4.58571">
        <ele>522</ele>
        <time>2016-10-16T09:51:10Z</time>
      </trkpt>
      <trkpt lat="45.96165" lon="4.58562">
        <ele>520</ele>
        <time>2016-10-16T09:51:12Z</time>
      </trkpt>
      <trkpt lat="45.96169" lon="4.58558">
        <ele>527</ele>
        <time>2016-10-16T09:51:13Z</time>
      </trkpt>
      <trkpt lat="45.96172" lon="4.58554">
        <ele>526</ele>
        <time>2016-10-16T09:51:14Z</time>
      </trkpt>
      <trkpt lat="45.96175" lon="4.58549">
        <ele>525</ele>
        <time>2016-10-16T09:51:15Z</time>
      </trkpt>
      <trkpt lat="45.96179" lon="4.58545">
        <ele>525</ele>
        <time>2016-10-16T09:51:16Z</time>
      </trkpt>
      <trkpt lat="45.96183" lon="4.58541">
        <ele>524</ele>
        <time>2016-10-16T09:51:17Z</time>
      </trkpt>
      <trkpt lat="45.96187" lon="4.58537">
        <ele>523</ele>
        <time>2016-10-16T09:51:18Z</time>
      </trkpt>
      <trkpt lat="45.96193" lon="4.58535">
        <ele>524</ele>
        <time>2016-10-16T09:51:19Z</time>
      </trkpt>
      <trkpt lat="45.96197" lon="4.58531">
        <ele>523</ele>
        <time>2016-10-16T09:51:20Z</time>
      </trkpt>
      <trkpt lat="45.96201" lon="4.58527">
        <ele>523</ele>
        <time>2016-10-16T09:51:21Z</time>
      </trkpt>
      <trkpt lat="45.96205" lon="4.58524">
        <ele>523</ele>
        <time>2016-10-16T09:51:22Z</time>
      </trkpt>
      <trkpt lat="45.9621" lon="4.58521">
        <ele>523</ele>
        <time>2016-10-16T09:51:23Z</time>
      </trkpt>
      <trkpt lat="45.96214" lon="4.58518">
        <ele>523</ele>
        <time>2016-10-16T09:51:24Z</time>
      </trkpt>
      <trkpt lat="45.96218" lon="4.58516">
        <ele>523</ele>
        <time>2016-10-16T09:51:25Z</time>
      </trkpt>
      <trkpt lat="45.96223" lon="4.58515">
        <ele>523</ele>
        <time>2016-10-16T09:51:26Z</time>
      </trkpt>
      <trkpt lat="45.96227" lon="4.58514">
        <ele>523</ele>
        <time>2016-10-16T09:51:27Z</time>
      </trkpt>
      <trkpt lat="45.96232" lon="4.58513">
        <ele>522</ele>
        <time>2016-10-16T09:51:28Z</time>
      </trkpt>
      <trkpt lat="45.96237" lon="4.58512">
        <ele>522</ele>
        <time>2016-10-16T09:51:29Z</time>
      </trkpt>
      <trkpt lat="45.96242" lon="4.58512">
        <ele>522</ele>
        <time>2016-10-16T09:51:30Z</time>
      </trkpt>
      <trkpt lat="45.96247" lon="4.58512">
        <ele>521</ele>
        <time>2016-10-16T09:51:31Z</time>
      </trkpt>
      <trkpt lat="45.96252" lon="4.58513">
        <ele>522</ele>
        <time>2016-10-16T09:51:32Z</time>
      </trkpt>
      <trkpt lat="45.96257" lon="4.58514">
        <ele>523</ele>
        <time>2016-10-16T09:51:33Z</time>
      </trkpt>
      <trkpt lat="45.96262" lon="4.58516">
        <ele>523</ele>
        <time>2016-10-16T09:51:34Z</time>
      </trkpt>
      <trkpt lat="45.96266" lon="4.58518">
        <ele>524</ele>
        <time>2016-10-16T09:51:35Z</time>
      </trkpt>
      <trkpt lat="45.9627" lon="4.5852">
        <ele>525</ele>
        <time>2016-10-16T09:51:36Z</time>
      </trkpt>
      <trkpt lat="45.96275" lon="4.58523">
        <ele>525</ele>
        <time>2016-10-16T09:51:37Z</time>
      </trkpt>
      <trkpt lat="45.9628" lon="4.58524">
        <ele>525</ele>
        <time>2016-10-16T09:51:38Z</time>
      </trkpt>
      <trkpt lat="45.96284" lon="4.58526">
        <ele>525</ele>
        <time>2016-10-16T09:51:39Z</time>
      </trkpt>
      <trkpt lat="45.96289" lon="4.58528">
        <ele>526</ele>
        <time>2016-10-16T09:51:40Z</time>
      </trkpt>
      <trkpt lat="45.96293" lon="4.5853">
        <ele>526</ele>
        <time>2016-10-16T09:51:41Z</time>
      </trkpt>
      <trkpt lat="45.96301" lon="4.58535">
        <ele>526</ele>
        <time>2016-10-16T09:51:43Z</time>
      </trkpt>
      <trkpt lat="45.96305" lon="4.58537">
        <ele>526</ele>
        <time>2016-10-16T09:51:44Z</time>
      </trkpt>
      <trkpt lat="45.96313" lon="4.5854">
        <ele>527</ele>
        <time>2016-10-16T09:51:46Z</time>
      </trkpt>
      <trkpt lat="45.96317" lon="4.58542">
        <ele>527</ele>
        <time>2016-10-16T09:51:47Z</time>
      </trkpt>
      <trkpt lat="45.96325" lon="4.58545">
        <ele>527</ele>
        <time>2016-10-16T09:51:49Z</time>
      </trkpt>
      <trkpt lat="45.96329" lon="4.58546">
        <ele>527</ele>
        <time>2016-10-16T09:51:50Z</time>
      </trkpt>
      <trkpt lat="45.96334" lon="4.58546">
        <ele>531</ele>
        <time>2016-10-16T09:51:51Z</time>
      </trkpt>
      <trkpt lat="45.96339" lon="4.58545">
        <ele>531</ele>
        <time>2016-10-16T09:51:52Z</time>
      </trkpt>
      <trkpt lat="45.96344" lon="4.58544">
        <ele>531</ele>
        <time>2016-10-16T09:51:53Z</time>
      </trkpt>
      <trkpt lat="45.96348" lon="4.58543">
        <ele>531</ele>
        <time>2016-10-16T09:51:54Z</time>
      </trkpt>
      <trkpt lat="45.96356" lon="4.58539">
        <ele>531</ele>
        <time>2016-10-16T09:51:56Z</time>
      </trkpt>
      <trkpt lat="45.96359" lon="4.58537">
        <ele>531</ele>
        <time>2016-10-16T09:51:57Z</time>
      </trkpt>
      <trkpt lat="45.96367" lon="4.58533">
        <ele>531</ele>
        <time>2016-10-16T09:51:59Z</time>
      </trkpt>
      <trkpt lat="45.96371" lon="4.5853">
        <ele>531</ele>
        <time>2016-10-16T09:52:00Z</time>
      </trkpt>
      <trkpt lat="45.96378" lon="4.58523">
        <ele>532</ele>
        <time>2016-10-16T09:52:02Z</time>
      </trkpt>
      <trkpt lat="45.96382" lon="4.58519">
        <ele>532</ele>
        <time>2016-10-16T09:52:03Z</time>
      </trkpt>
      <trkpt lat="45.96386" lon="4.58516">
        <ele>532</ele>
        <time>2016-10-16T09:52:04Z</time>
      </trkpt>
      <trkpt lat="45.9639" lon="4.58511">
        <ele>532</ele>
        <time>2016-10-16T09:52:05Z</time>
      </trkpt>
      <trkpt lat="45.96395" lon="4.58501">
        <ele>532</ele>
        <time>2016-10-16T09:52:07Z</time>
      </trkpt>
      <trkpt lat="45.96398" lon="4.58498">
        <ele>522</ele>
        <time>2016-10-16T09:52:08Z</time>
      </trkpt>
      <trkpt lat="45.96404" lon="4.58492">
        <ele>524</ele>
        <time>2016-10-16T09:52:10Z</time>
      </trkpt>
      <trkpt lat="45.96407" lon="4.58489">
        <ele>524</ele>
        <time>2016-10-16T09:52:11Z</time>
      </trkpt>
      <trkpt lat="45.96411" lon="4.58481">
        <ele>522</ele>
        <time>2016-10-16T09:52:13Z</time>
      </trkpt>
      <trkpt lat="45.96414" lon="4.58478">
        <ele>521</ele>
        <time>2016-10-16T09:52:14Z</time>
      </trkpt>
      <trkpt lat="45.96419" lon="4.58471">
        <ele>530</ele>
        <time>2016-10-16T09:52:16Z</time>
      </trkpt>
      <trkpt lat="45.96422" lon="4.58467">
        <ele>530</ele>
        <time>2016-10-16T09:52:17Z</time>
      </trkpt>
      <trkpt lat="45.96428" lon="4.5846">
        <ele>529</ele>
        <time>2016-10-16T09:52:19Z</time>
      </trkpt>
      <trkpt lat="45.96431" lon="4.58457">
        <ele>528</ele>
        <time>2016-10-16T09:52:20Z</time>
      </trkpt>
      <trkpt lat="45.96437" lon="4.5845">
        <ele>527</ele>
        <time>2016-10-16T09:52:22Z</time>
      </trkpt>
      <trkpt lat="45.9644" lon="4.58446">
        <ele>527</ele>
        <time>2016-10-16T09:52:23Z</time>
      </trkpt>
      <trkpt lat="45.96444" lon="4.58441">
        <ele>527</ele>
        <time>2016-10-16T09:52:24Z</time>
      </trkpt>
      <trkpt lat="45.96447" lon="4.58437">
        <ele>527</ele>
        <time>2016-10-16T09:52:25Z</time>
      </trkpt>
      <trkpt lat="45.96454" lon="4.58429">
        <ele>527</ele>
        <time>2016-10-16T09:52:27Z</time>
      </trkpt>
      <trkpt lat="45.96457" lon="4.58425">
        <ele>527</ele>
        <time>2016-10-16T09:52:28Z</time>
      </trkpt>
      <trkpt lat="45.96463" lon="4.58418">
        <ele>527</ele>
        <time>2016-10-16T09:52:30Z</time>
      </trkpt>
      <trkpt lat="45.96467" lon="4.58414">
        <ele>515</ele>
        <time>2016-10-16T09:52:31Z</time>
      </trkpt>
      <trkpt lat="45.96471" lon="4.58412">
        <ele>516</ele>
        <time>2016-10-16T09:52:32Z</time>
      </trkpt>
      <trkpt lat="45.96475" lon="4.5841">
        <ele>516</ele>
        <time>2016-10-16T09:52:33Z</time>
      </trkpt>
      <trkpt lat="45.9648" lon="4.58409">
        <ele>517</ele>
        <time>2016-10-16T09:52:34Z</time>
      </trkpt>
      <trkpt lat="45.96484" lon="4.58408">
        <ele>518</ele>
        <time>2016-10-16T09:52:35Z</time>
      </trkpt>
      <trkpt lat="45.96493" lon="4.58408">
        <ele>521</ele>
        <time>2016-10-16T09:52:37Z</time>
      </trkpt>
      <trkpt lat="45.96497" lon="4.58407">
        <ele>521</ele>
        <time>2016-10-16T09:52:38Z</time>
      </trkpt>
      <trkpt lat="45.96502" lon="4.58406">
        <ele>521</ele>
        <time>2016-10-16T09:52:39Z</time>
      </trkpt>
      <trkpt lat="45.96507" lon="4.58408">
        <ele>521</ele>
        <time>2016-10-16T09:52:40Z</time>
      </trkpt>
      <trkpt lat="45.96511" lon="4.58409">
        <ele>520</ele>
        <time>2016-10-16T09:52:41Z</time>
      </trkpt>
      <trkpt lat="45.96516" lon="4.58411">
        <ele>519</ele>
        <time>2016-10-16T09:52:42Z</time>
      </trkpt>
      <trkpt lat="45.9652" lon="4.58412">
        <ele>518</ele>
        <time>2016-10-16T09:52:43Z</time>
      </trkpt>
      <trkpt lat="45.96525" lon="4.58414">
        <ele>517</ele>
        <time>2016-10-16T09:52:44Z</time>
      </trkpt>
      <trkpt lat="45.96533" lon="4.58418">
        <ele>528</ele>
        <time>2016-10-16T09:52:46Z</time>
      </trkpt>
      <trkpt lat="45.96536" lon="4.5842">
        <ele>528</ele>
        <time>2016-10-16T09:52:47Z</time>
      </trkpt>
      <trkpt lat="45.96541" lon="4.58422">
        <ele>528</ele>
        <time>2016-10-16T09:52:48Z</time>
      </trkpt>
      <trkpt lat="45.96546" lon="4.58425">
        <ele>527</ele>
        <time>2016-10-16T09:52:49Z</time>
      </trkpt>
      <trkpt lat="45.96551" lon="4.58429">
        <ele>527</ele>
        <time>2016-10-16T09:52:50Z</time>
      </trkpt>
      <trkpt lat="45.96556" lon="4.58433">
        <ele>527</ele>
        <time>2016-10-16T09:52:51Z</time>
      </trkpt>
      <trkpt lat="45.96561" lon="4.58437">
        <ele>526</ele>
        <time>2016-10-16T09:52:52Z</time>
      </trkpt>
      <trkpt lat="45.96565" lon="4.5844">
        <ele>526</ele>
        <time>2016-10-16T09:52:53Z</time>
      </trkpt>
      <trkpt lat="45.9657" lon="4.58443">
        <ele>526</ele>
        <time>2016-10-16T09:52:54Z</time>
      </trkpt>
      <trkpt lat="45.96574" lon="4.58446">
        <ele>527</ele>
        <time>2016-10-16T09:52:55Z</time>
      </trkpt>
      <trkpt lat="45.96579" lon="4.58449">
        <ele>527</ele>
        <time>2016-10-16T09:52:56Z</time>
      </trkpt>
      <trkpt lat="45.96583" lon="4.58452">
        <ele>528</ele>
        <time>2016-10-16T09:52:57Z</time>
      </trkpt>
      <trkpt lat="45.96587" lon="4.58456">
        <ele>520</ele>
        <time>2016-10-16T09:52:58Z</time>
      </trkpt>
      <trkpt lat="45.96591" lon="4.58459">
        <ele>520</ele>
        <time>2016-10-16T09:52:59Z</time>
      </trkpt>
      <trkpt lat="45.96595" lon="4.58463">
        <ele>521</ele>
        <time>2016-10-16T09:53:00Z</time>
      </trkpt>
      <trkpt lat="45.96599" lon="4.58467">
        <ele>521</ele>
        <time>2016-10-16T09:53:01Z</time>
      </trkpt>
      <trkpt lat="45.96603" lon="4.5847">
        <ele>521</ele>
        <time>2016-10-16T09:53:02Z</time>
      </trkpt>
      <trkpt lat="45.96608" lon="4.58474">
        <ele>521</ele>
        <time>2016-10-16T09:53:03Z</time>
      </trkpt>
      <trkpt lat="45.96612" lon="4.58477">
        <ele>521</ele>
        <time>2016-10-16T09:53:04Z</time>
      </trkpt>
      <trkpt lat="45.96616" lon="4.58481">
        <ele>521</ele>
        <time>2016-10-16T09:53:05Z</time>
      </trkpt>
      <trkpt lat="45.9662" lon="4.58486">
        <ele>521</ele>
        <time>2016-10-16T09:53:06Z</time>
      </trkpt>
      <trkpt lat="45.96623" lon="4.58491">
        <ele>521</ele>
        <time>2016-10-16T09:53:07Z</time>
      </trkpt>
      <trkpt lat="45.96627" lon="4.58496">
        <ele>521</ele>
        <time>2016-10-16T09:53:08Z</time>
      </trkpt>
      <trkpt lat="45.96631" lon="4.58501">
        <ele>533</ele>
        <time>2016-10-16T09:53:09Z</time>
      </trkpt>
      <trkpt lat="45.96635" lon="4.58505">
        <ele>532</ele>
        <time>2016-10-16T09:53:10Z</time>
      </trkpt>
      <trkpt lat="45.96639" lon="4.5851">
        <ele>532</ele>
        <time>2016-10-16T09:53:11Z</time>
      </trkpt>
      <trkpt lat="45.96643" lon="4.58515">
        <ele>532</ele>
        <time>2016-10-16T09:53:12Z</time>
      </trkpt>
      <trkpt lat="45.96647" lon="4.5852">
        <ele>532</ele>
        <time>2016-10-16T09:53:13Z</time>
      </trkpt>
      <trkpt lat="45.96651" lon="4.58524">
        <ele>532</ele>
        <time>2016-10-16T09:53:14Z</time>
      </trkpt>
      <trkpt lat="45.96655" lon="4.58528">
        <ele>532</ele>
        <time>2016-10-16T09:53:15Z</time>
      </trkpt>
      <trkpt lat="45.96659" lon="4.58532">
        <ele>533</ele>
        <time>2016-10-16T09:53:16Z</time>
      </trkpt>
      <trkpt lat="45.96663" lon="4.58535">
        <ele>533</ele>
        <time>2016-10-16T09:53:17Z</time>
      </trkpt>
      <trkpt lat="45.96668" lon="4.58538">
        <ele>532</ele>
        <time>2016-10-16T09:53:18Z</time>
      </trkpt>
      <trkpt lat="45.96672" lon="4.5854">
        <ele>532</ele>
        <time>2016-10-16T09:53:19Z</time>
      </trkpt>
      <trkpt lat="45.96677" lon="4.58541">
        <ele>533</ele>
        <time>2016-10-16T09:53:20Z</time>
      </trkpt>
      <trkpt lat="45.96682" lon="4.58542">
        <ele>533</ele>
        <time>2016-10-16T09:53:21Z</time>
      </trkpt>
      <trkpt lat="45.96687" lon="4.58544">
        <ele>534</ele>
        <time>2016-10-16T09:53:22Z</time>
      </trkpt>
      <trkpt lat="45.96692" lon="4.58545">
        <ele>534</ele>
        <time>2016-10-16T09:53:23Z</time>
      </trkpt>
      <trkpt lat="45.96697" lon="4.58546">
        <ele>535</ele>
        <time>2016-10-16T09:53:24Z</time>
      </trkpt>
      <trkpt lat="45.96702" lon="4.58546">
        <ele>535</ele>
        <time>2016-10-16T09:53:25Z</time>
      </trkpt>
      <trkpt lat="45.96707" lon="4.58545">
        <ele>535</ele>
        <time>2016-10-16T09:53:26Z</time>
      </trkpt>
      <trkpt lat="45.96712" lon="4.58543">
        <ele>535</ele>
        <time>2016-10-16T09:53:27Z</time>
      </trkpt>
      <trkpt lat="45.96716" lon="4.5854">
        <ele>535</ele>
        <time>2016-10-16T09:53:28Z</time>
      </trkpt>
      <trkpt lat="45.9672" lon="4.58537">
        <ele>535</ele>
        <time>2016-10-16T09:53:29Z</time>
      </trkpt>
      <trkpt lat="45.96724" lon="4.58532">
        <ele>535</ele>
        <time>2016-10-16T09:53:30Z</time>
      </trkpt>
      <trkpt lat="45.96728" lon="4.58527">
        <ele>535</ele>
        <time>2016-10-16T09:53:31Z</time>
      </trkpt>
      <trkpt lat="45.96732" lon="4.58521">
        <ele>535</ele>
        <time>2016-10-16T09:53:32Z</time>
      </trkpt>
      <trkpt lat="45.96735" lon="4.58515">
        <ele>535</ele>
        <time>2016-10-16T09:53:33Z</time>
      </trkpt>
      <trkpt lat="45.96738" lon="4.58509">
        <ele>535</ele>
        <time>2016-10-16T09:53:34Z</time>
      </trkpt>
      <trkpt lat="45.96741" lon="4.58503">
        <ele>535</ele>
        <time>2016-10-16T09:53:35Z</time>
      </trkpt>
      <trkpt lat="45.96743" lon="4.58497">
        <ele>531</ele>
        <time>2016-10-16T09:53:36Z</time>
      </trkpt>
      <trkpt lat="45.96745" lon="4.58491">
        <ele>530</ele>
        <time>2016-10-16T09:53:37Z</time>
      </trkpt>
      <trkpt lat="45.96747" lon="4.5848">
        <ele>528</ele>
        <time>2016-10-16T09:53:39Z</time>
      </trkpt>
      <trkpt lat="45.96749" lon="4.58474">
        <ele>527</ele>
        <time>2016-10-16T09:53:40Z</time>
      </trkpt>
      <trkpt lat="45.96752" lon="4.58462">
        <ele>545</ele>
        <time>2016-10-16T09:53:42Z</time>
      </trkpt>
      <trkpt lat="45.96753" lon="4.58457">
        <ele>545</ele>
        <time>2016-10-16T09:53:43Z</time>
      </trkpt>
      <trkpt lat="45.96756" lon="4.58445">
        <ele>544</ele>
        <time>2016-10-16T09:53:45Z</time>
      </trkpt>
      <trkpt lat="45.96756" lon="4.58438">
        <ele>542</ele>
        <time>2016-10-16T09:53:46Z</time>
      </trkpt>
      <trkpt lat="45.96757" lon="4.58425">
        <ele>537</ele>
        <time>2016-10-16T09:53:48Z</time>
      </trkpt>
      <trkpt lat="45.96757" lon="4.5842">
        <ele>535</ele>
        <time>2016-10-16T09:53:49Z</time>
      </trkpt>
      <trkpt lat="45.96756" lon="4.58408">
        <ele>538</ele>
        <time>2016-10-16T09:53:51Z</time>
      </trkpt>
      <trkpt lat="45.96756" lon="4.584">
        <ele>541</ele>
        <time>2016-10-16T09:53:52Z</time>
      </trkpt>
      <trkpt lat="45.96756" lon="4.58393">
        <ele>543</ele>
        <time>2016-10-16T09:53:53Z</time>
      </trkpt>
      <trkpt lat="45.96755" lon="4.58386">
        <ele>544</ele>
        <time>2016-10-16T09:53:54Z</time>
      </trkpt>
      <trkpt lat="45.96754" lon="4.58374">
        <ele>546</ele>
        <time>2016-10-16T09:53:56Z</time>
      </trkpt>
      <trkpt lat="45.96753" lon="4.58367">
        <ele>545</ele>
        <time>2016-10-16T09:53:57Z</time>
      </trkpt>
      <trkpt lat="45.96751" lon="4.58361">
        <ele>545</ele>
        <time>2016-10-16T09:53:58Z</time>
      </trkpt>
      <trkpt lat="45.9675" lon="4.58355">
        <ele>525</ele>
        <time>2016-10-16T09:53:59Z</time>
      </trkpt>
      <trkpt lat="45.96747" lon="4.58342">
        <ele>529</ele>
        <time>2016-10-16T09:54:01Z</time>
      </trkpt>
      <trkpt lat="45.96746" lon="4.58337">
        <ele>531</ele>
        <time>2016-10-16T09:54:02Z</time>
      </trkpt>
      <trkpt lat="45.96744" lon="4.58328">
        <ele>530</ele>
        <time>2016-10-16T09:54:04Z</time>
      </trkpt>
      <trkpt lat="45.96742" lon="4.58323">
        <ele>528</ele>
        <time>2016-10-16T09:54:05Z</time>
      </trkpt>
      <trkpt lat="45.96739" lon="4.58315">
        <ele>526</ele>
        <time>2016-10-16T09:54:07Z</time>
      </trkpt>
      <trkpt lat="45.96738" lon="4.5831">
        <ele>525</ele>
        <time>2016-10-16T09:54:08Z</time>
      </trkpt>
      <trkpt lat="45.96735" lon="4.58298">
        <ele>523</ele>
        <time>2016-10-16T09:54:10Z</time>
      </trkpt>
      <trkpt lat="45.96734" lon="4.58293">
        <ele>523</ele>
        <time>2016-10-16T09:54:11Z</time>
      </trkpt>
      <trkpt lat="45.96733" lon="4.58286">
        <ele>523</ele>
        <time>2016-10-16T09:54:12Z</time>
      </trkpt>
      <trkpt lat="45.96731" lon="4.58275">
        <ele>524</ele>
        <time>2016-10-16T09:54:13Z</time>
      </trkpt>
      <trkpt lat="45.96728" lon="4.58264">
        <ele>525</ele>
        <time>2016-10-16T09:54:15Z</time>
      </trkpt>
      <trkpt lat="45.96727" lon="4.58258">
        <ele>525</ele>
        <time>2016-10-16T09:54:16Z</time>
      </trkpt>
      <trkpt lat="45.96727" lon="4.58252">
        <ele>526</ele>
        <time>2016-10-16T09:54:17Z</time>
      </trkpt>
      <trkpt lat="45.96726" lon="4.58245">
        <ele>525</ele>
        <time>2016-10-16T09:54:18Z</time>
      </trkpt>
      <trkpt lat="45.96725" lon="4.58238">
        <ele>524</ele>
        <time>2016-10-16T09:54:19Z</time>
      </trkpt>
      <trkpt lat="45.96725" lon="4.58231">
        <ele>523</ele>
        <time>2016-10-16T09:54:20Z</time>
      </trkpt>
      <trkpt lat="45.96726" lon="4.58224">
        <ele>522</ele>
        <time>2016-10-16T09:54:21Z</time>
      </trkpt>
      <trkpt lat="45.96726" lon="4.58218">
        <ele>521</ele>
        <time>2016-10-16T09:54:22Z</time>
      </trkpt>
      <trkpt lat="45.96726" lon="4.58205">
        <ele>521</ele>
        <time>2016-10-16T09:54:24Z</time>
      </trkpt>
      <trkpt lat="45.96728" lon="4.58199">
        <ele>521</ele>
        <time>2016-10-16T09:54:25Z</time>
      </trkpt>
      <trkpt lat="45.96731" lon="4.58187">
        <ele>521</ele>
        <time>2016-10-16T09:54:27Z</time>
      </trkpt>
      <trkpt lat="45.96733" lon="4.58182">
        <ele>522</ele>
        <time>2016-10-16T09:54:28Z</time>
      </trkpt>
      <trkpt lat="45.96737" lon="4.58171">
        <ele>524</ele>
        <time>2016-10-16T09:54:30Z</time>
      </trkpt>
      <trkpt lat="45.9674" lon="4.58166">
        <ele>523</ele>
        <time>2016-10-16T09:54:31Z</time>
      </trkpt>
      <trkpt lat="45.96745" lon="4.58156">
        <ele>522</ele>
        <time>2016-10-16T09:54:33Z</time>
      </trkpt>
      <trkpt lat="45.96748" lon="4.5815">
        <ele>520</ele>
        <time>2016-10-16T09:54:34Z</time>
      </trkpt>
      <trkpt lat="45.96752" lon="4.5814">
        <ele>532</ele>
        <time>2016-10-16T09:54:36Z</time>
      </trkpt>
      <trkpt lat="45.96755" lon="4.58135">
        <ele>532</ele>
        <time>2016-10-16T09:54:37Z</time>
      </trkpt>
      <trkpt lat="45.9676" lon="4.58125">
        <ele>531</ele>
        <time>2016-10-16T09:54:39Z</time>
      </trkpt>
      <trkpt lat="45.96762" lon="4.5812">
        <ele>531</ele>
        <time>2016-10-16T09:54:40Z</time>
      </trkpt>
      <trkpt lat="45.96767" lon="4.58111">
        <ele>530</ele>
        <time>2016-10-16T09:54:42Z</time>
      </trkpt>
      <trkpt lat="45.9677" lon="4.58107">
        <ele>530</ele>
        <time>2016-10-16T09:54:43Z</time>
      </trkpt>
      <trkpt lat="45.96775" lon="4.58097">
        <ele>529</ele>
        <time>2016-10-16T09:54:45Z</time>
      </trkpt>
      <trkpt lat="45.96778" lon="4.58093">
        <ele>529</ele>
        <time>2016-10-16T09:54:46Z</time>
      </trkpt>
      <trkpt lat="45.96782" lon="4.58082">
        <ele>522</ele>
        <time>2016-10-16T09:54:48Z</time>
      </trkpt>
      <trkpt lat="45.96785" lon="4.58078">
        <ele>522</ele>
        <time>2016-10-16T09:54:49Z</time>
      </trkpt>
      <trkpt lat="45.96789" lon="4.58068">
        <ele>523</ele>
        <time>2016-10-16T09:54:51Z</time>
      </trkpt>
      <trkpt lat="45.96792" lon="4.58064">
        <ele>523</ele>
        <time>2016-10-16T09:54:52Z</time>
      </trkpt>
      <trkpt lat="45.96797" lon="4.58055">
        <ele>523</ele>
        <time>2016-10-16T09:54:54Z</time>
      </trkpt>
      <trkpt lat="45.96799" lon="4.58051">
        <ele>523</ele>
        <time>2016-10-16T09:54:55Z</time>
      </trkpt>
      <trkpt lat="45.96804" lon="4.58043">
        <ele>523</ele>
        <time>2016-10-16T09:54:57Z</time>
      </trkpt>
      <trkpt lat="45.96808" lon="4.5804">
        <ele>523</ele>
        <time>2016-10-16T09:54:58Z</time>
      </trkpt>
      <trkpt lat="45.96814" lon="4.58033">
        <ele>523</ele>
        <time>2016-10-16T09:55:00Z</time>
      </trkpt>
      <trkpt lat="45.96818" lon="4.5803">
        <ele>523</ele>
        <time>2016-10-16T09:55:01Z</time>
      </trkpt>
      <trkpt lat="45.96825" lon="4.58025">
        <ele>523</ele>
        <time>2016-10-16T09:55:03Z</time>
      </trkpt>
      <trkpt lat="45.96829" lon="4.58023">
        <ele>523</ele>
        <time>2016-10-16T09:55:04Z</time>
      </trkpt>
      <trkpt lat="45.96836" lon="4.58019">
        <ele>527</ele>
        <time>2016-10-16T09:55:06Z</time>
      </trkpt>
      <trkpt lat="45.9684" lon="4.58018">
        <ele>527</ele>
        <time>2016-10-16T09:55:07Z</time>
      </trkpt>
      <trkpt lat="45.96847" lon="4.58018">
        <ele>528</ele>
        <time>2016-10-16T09:55:09Z</time>
      </trkpt>
      <trkpt lat="45.96851" lon="4.58018">
        <ele>528</ele>
        <time>2016-10-16T09:55:10Z</time>
      </trkpt>
      <trkpt lat="45.96859" lon="4.58019">
        <ele>528</ele>
        <time>2016-10-16T09:55:12Z</time>
      </trkpt>
      <trkpt lat="45.96863" lon="4.5802">
        <ele>528</ele>
        <time>2016-10-16T09:55:13Z</time>
      </trkpt>
      <trkpt lat="45.96871" lon="4.58022">
        <ele>529</ele>
        <time>2016-10-16T09:55:15Z</time>
      </trkpt>
      <trkpt lat="45.96874" lon="4.58024">
        <ele>529</ele>
        <time>2016-10-16T09:55:16Z</time>
      </trkpt>
      <trkpt lat="45.96881" lon="4.58027">
        <ele>529</ele>
        <time>2016-10-16T09:55:18Z</time>
      </trkpt>
      <trkpt lat="45.96884" lon="4.58029">
        <ele>529</ele>
        <time>2016-10-16T09:55:19Z</time>
      </trkpt>
      <trkpt lat="45.96891" lon="4.58032">
        <ele>529</ele>
        <time>2016-10-16T09:55:21Z</time>
      </trkpt>
      <trkpt lat="45.96894" lon="4.58034">
        <ele>530</ele>
        <time>2016-10-16T09:55:22Z</time>
      </trkpt>
      <trkpt lat="45.96901" lon="4.5804">
        <ele>530</ele>
        <time>2016-10-16T09:55:24Z</time>
      </trkpt>
      <trkpt lat="45.96904" lon="4.58043">
        <ele>530</ele>
        <time>2016-10-16T09:55:25Z</time>
      </trkpt>
      <trkpt lat="45.9691" lon="4.58048">
        <ele>531</ele>
        <time>2016-10-16T09:55:27Z</time>
      </trkpt>
      <trkpt lat="45.96913" lon="4.5805">
        <ele>532</ele>
        <time>2016-10-16T09:55:28Z</time>
      </trkpt>
      <trkpt lat="45.96918" lon="4.58056">
        <ele>530</ele>
        <time>2016-10-16T09:55:30Z</time>
      </trkpt>
      <trkpt lat="45.9692" lon="4.5806">
        <ele>531</ele>
        <time>2016-10-16T09:55:31Z</time>
      </trkpt>
      <trkpt lat="45.96926" lon="4.58066">
        <ele>532</ele>
        <time>2016-10-16T09:55:33Z</time>
      </trkpt>
      <trkpt lat="45.96928" lon="4.58069">
        <ele>532</ele>
        <time>2016-10-16T09:55:34Z</time>
      </trkpt>
      <trkpt lat="45.96933" lon="4.58078">
        <ele>533</ele>
        <time>2016-10-16T09:55:36Z</time>
      </trkpt>
      <trkpt lat="45.96935" lon="4.58081">
        <ele>533</ele>
        <time>2016-10-16T09:55:37Z</time>
      </trkpt>
      <trkpt lat="45.9694" lon="4.58087">
        <ele>542</ele>
        <time>2016-10-16T09:55:39Z</time>
      </trkpt>
      <trkpt lat="45.96943" lon="4.5809">
        <ele>542</ele>
        <time>2016-10-16T09:55:40Z</time>
      </trkpt>
      <trkpt lat="45.96948" lon="4.58095">
        <ele>543</ele>
        <time>2016-10-16T09:55:42Z</time>
      </trkpt>
      <trkpt lat="45.9695" lon="4.58098">
        <ele>543</ele>
        <time>2016-10-16T09:55:43Z</time>
      </trkpt>
      <trkpt lat="45.96956" lon="4.58106">
        <ele>544</ele>
        <time>2016-10-16T09:55:46Z</time>
      </trkpt>
      <trkpt lat="45.96959" lon="4.58108">
        <ele>544</ele>
        <time>2016-10-16T09:55:47Z</time>
      </trkpt>
      <trkpt lat="45.96964" lon="4.58112">
        <ele>544</ele>
        <time>2016-10-16T09:55:49Z</time>
      </trkpt>
      <trkpt lat="45.96967" lon="4.58114">
        <ele>544</ele>
        <time>2016-10-16T09:55:50Z</time>
      </trkpt>
      <trkpt lat="45.96974" lon="4.58117">
        <ele>544</ele>
        <time>2016-10-16T09:55:52Z</time>
      </trkpt>
      <trkpt lat="45.96978" lon="4.58118">
        <ele>544</ele>
        <time>2016-10-16T09:55:53Z</time>
      </trkpt>
      <trkpt lat="45.96985" lon="4.5812">
        <ele>544</ele>
        <time>2016-10-16T09:55:55Z</time>
      </trkpt>
      <trkpt lat="45.96989" lon="4.58119">
        <ele>544</ele>
        <time>2016-10-16T09:55:56Z</time>
      </trkpt>
      <trkpt lat="45.96997" lon="4.58117">
        <ele>544</ele>
        <time>2016-10-16T09:55:58Z</time>
      </trkpt>
      <trkpt lat="45.97001" lon="4.58116">
        <ele>545</ele>
        <time>2016-10-16T09:55:59Z</time>
      </trkpt>
      <trkpt lat="45.97008" lon="4.58111">
        <ele>544</ele>
        <time>2016-10-16T09:56:01Z</time>
      </trkpt>
      <trkpt lat="45.9701" lon="4.58108">
        <ele>544</ele>
        <time>2016-10-16T09:56:02Z</time>
      </trkpt>
      <trkpt lat="45.97017" lon="4.58104">
        <ele>544</ele>
        <time>2016-10-16T09:56:04Z</time>
      </trkpt>
      <trkpt lat="45.9702" lon="4.58101">
        <ele>544</ele>
        <time>2016-10-16T09:56:05Z</time>
      </trkpt>
      <trkpt lat="45.97027" lon="4.58095">
        <ele>544</ele>
        <time>2016-10-16T09:56:07Z</time>
      </trkpt>
      <trkpt lat="45.97029" lon="4.58091">
        <ele>544</ele>
        <time>2016-10-16T09:56:08Z</time>
      </trkpt>
      <trkpt lat="45.97035" lon="4.58084">
        <ele>544</ele>
        <time>2016-10-16T09:56:10Z</time>
      </trkpt>
      <trkpt lat="45.97038" lon="4.5808">
        <ele>534</ele>
        <time>2016-10-16T09:56:11Z</time>
      </trkpt>
      <trkpt lat="45.97044" lon="4.58073">
        <ele>534</ele>
        <time>2016-10-16T09:56:13Z</time>
      </trkpt>
      <trkpt lat="45.97047" lon="4.5807">
        <ele>534</ele>
        <time>2016-10-16T09:56:14Z</time>
      </trkpt>
      <trkpt lat="45.97052" lon="4.58062">
        <ele>534</ele>
        <time>2016-10-16T09:56:16Z</time>
      </trkpt>
      <trkpt lat="45.97055" lon="4.58057">
        <ele>534</ele>
        <time>2016-10-16T09:56:17Z</time>
      </trkpt>
      <trkpt lat="45.97059" lon="4.58053">
        <ele>533</ele>
        <time>2016-10-16T09:56:18Z</time>
      </trkpt>
      <trkpt lat="45.97062" lon="4.58049">
        <ele>533</ele>
        <time>2016-10-16T09:56:19Z</time>
      </trkpt>
      <trkpt lat="45.97066" lon="4.58044">
        <ele>533</ele>
        <time>2016-10-16T09:56:20Z</time>
      </trkpt>
      <trkpt lat="45.9707" lon="4.58039">
        <ele>532</ele>
        <time>2016-10-16T09:56:21Z</time>
      </trkpt>
      <trkpt lat="45.97076" lon="4.58031">
        <ele>532</ele>
        <time>2016-10-16T09:56:23Z</time>
      </trkpt>
      <trkpt lat="45.97079" lon="4.58028">
        <ele>532</ele>
        <time>2016-10-16T09:56:24Z</time>
      </trkpt>
      <trkpt lat="45.97084" lon="4.58021">
        <ele>535</ele>
        <time>2016-10-16T09:56:26Z</time>
      </trkpt>
      <trkpt lat="45.97088" lon="4.58018">
        <ele>535</ele>
        <time>2016-10-16T09:56:27Z</time>
      </trkpt>
      <trkpt lat="45.97094" lon="4.58013">
        <ele>534</ele>
        <time>2016-10-16T09:56:29Z</time>
      </trkpt>
      <trkpt lat="45.97098" lon="4.5801">
        <ele>535</ele>
        <time>2016-10-16T09:56:30Z</time>
      </trkpt>
      <trkpt lat="45.97105" lon="4.58007">
        <ele>535</ele>
        <time>2016-10-16T09:56:32Z</time>
      </trkpt>
      <trkpt lat="45.97109" lon="4.58006">
        <ele>535</ele>
        <time>2016-10-16T09:56:33Z</time>
      </trkpt>
      <trkpt lat="45.97117" lon="4.58005">
        <ele>536</ele>
        <time>2016-10-16T09:56:35Z</time>
      </trkpt>
      <trkpt lat="45.97121" lon="4.58005">
        <ele>536</ele>
        <time>2016-10-16T09:56:36Z</time>
      </trkpt>
      <trkpt lat="45.97128" lon="4.58004">
        <ele>536</ele>
        <time>2016-10-16T09:56:38Z</time>
      </trkpt>
      <trkpt lat="45.97133" lon="4.58005">
        <ele>536</ele>
        <time>2016-10-16T09:56:39Z</time>
      </trkpt>
      <trkpt lat="45.97141" lon="4.58007">
        <ele>536</ele>
        <time>2016-10-16T09:56:41Z</time>
      </trkpt>
      <trkpt lat="45.97145" lon="4.58008">
        <ele>536</ele>
        <time>2016-10-16T09:56:42Z</time>
      </trkpt>
      <trkpt lat="45.97154" lon="4.58012">
        <ele>536</ele>
        <time>2016-10-16T09:56:44Z</time>
      </trkpt>
      <trkpt lat="45.97157" lon="4.58014">
        <ele>536</ele>
        <time>2016-10-16T09:56:45Z</time>
      </trkpt>
      <trkpt lat="45.97165" lon="4.58018">
        <ele>536</ele>
        <time>2016-10-16T09:56:47Z</time>
      </trkpt>
      <trkpt lat="45.97169" lon="4.58021">
        <ele>535</ele>
        <time>2016-10-16T09:56:48Z</time>
      </trkpt>
      <trkpt lat="45.97175" lon="4.58028">
        <ele>536</ele>
        <time>2016-10-16T09:56:50Z</time>
      </trkpt>
      <trkpt lat="45.97178" lon="4.58032">
        <ele>537</ele>
        <time>2016-10-16T09:56:51Z</time>
      </trkpt>
      <trkpt lat="45.97185" lon="4.58037">
        <ele>537</ele>
        <time>2016-10-16T09:56:53Z</time>
      </trkpt>
      <trkpt lat="45.97188" lon="4.58041">
        <ele>538</ele>
        <time>2016-10-16T09:56:54Z</time>
      </trkpt>
      <trkpt lat="45.97195" lon="4.58047">
        <ele>538</ele>
        <time>2016-10-16T09:56:56Z</time>
      </trkpt>
      <trkpt lat="45.97197" lon="4.58051">
        <ele>539</ele>
        <time>2016-10-16T09:56:57Z</time>
      </trkpt>
      <trkpt lat="45.97203" lon="4.58059">
        <ele>539</ele>
        <time>2016-10-16T09:56:59Z</time>
      </trkpt>
      <trkpt lat="45.97207" lon="4.58063">
        <ele>539</ele>
        <time>2016-10-16T09:57:00Z</time>
      </trkpt>
      <trkpt lat="45.97213" lon="4.5807">
        <ele>540</ele>
        <time>2016-10-16T09:57:02Z</time>
      </trkpt>
      <trkpt lat="45.97216" lon="4.58073">
        <ele>540</ele>
        <time>2016-10-16T09:57:03Z</time>
      </trkpt>
      <trkpt lat="45.97222" lon="4.5808">
        <ele>540</ele>
        <time>2016-10-16T09:57:05Z</time>
      </trkpt>
      <trkpt lat="45.97224" lon="4.58085">
        <ele>551</ele>
        <time>2016-10-16T09:57:06Z</time>
      </trkpt>
      <trkpt lat="45.97231" lon="4.58091">
        <ele>550</ele>
        <time>2016-10-16T09:57:08Z</time>
      </trkpt>
      <trkpt lat="45.97233" lon="4.58094">
        <ele>550</ele>
        <time>2016-10-16T09:57:09Z</time>
      </trkpt>
      <trkpt lat="45.97239" lon="4.58099">
        <ele>550</ele>
        <time>2016-10-16T09:57:11Z</time>
      </trkpt>
      <trkpt lat="45.97242" lon="4.58101">
        <ele>550</ele>
        <time>2016-10-16T09:57:12Z</time>
      </trkpt>
      <trkpt lat="45.97248" lon="4.58104">
        <ele>551</ele>
        <time>2016-10-16T09:57:14Z</time>
      </trkpt>
      <trkpt lat="45.97251" lon="4.58105">
        <ele>550</ele>
        <time>2016-10-16T09:57:15Z</time>
      </trkpt>
      <trkpt lat="45.97257" lon="4.58106">
        <ele>550</ele>
        <time>2016-10-16T09:57:17Z</time>
      </trkpt>
      <trkpt lat="45.97262" lon="4.58106">
        <ele>550</ele>
        <time>2016-10-16T09:57:18Z</time>
      </trkpt>
      <trkpt lat="45.97267" lon="4.58103">
        <ele>550</ele>
        <time>2016-10-16T09:57:20Z</time>
      </trkpt>
      <trkpt lat="45.97271" lon="4.58103">
        <ele>550</ele>
        <time>2016-10-16T09:57:21Z</time>
      </trkpt>
      <trkpt lat="45.97279" lon="4.58102">
        <ele>551</ele>
        <time>2016-10-16T09:57:23Z</time>
      </trkpt>
      <trkpt lat="45.97282" lon="4.58102">
        <ele>551</ele>
        <time>2016-10-16T09:57:24Z</time>
      </trkpt>
      <trkpt lat="45.97289" lon="4.58099">
        <ele>551</ele>
        <time>2016-10-16T09:57:26Z</time>
      </trkpt>
      <trkpt lat="45.97293" lon="4.58097">
        <ele>551</ele>
        <time>2016-10-16T09:57:27Z</time>
      </trkpt>
      <trkpt lat="45.97299" lon="4.58092">
        <ele>550</ele>
        <time>2016-10-16T09:57:29Z</time>
      </trkpt>
      <trkpt lat="45.97303" lon="4.5809">
        <ele>550</ele>
        <time>2016-10-16T09:57:30Z</time>
      </trkpt>
      <trkpt lat="45.97311" lon="4.58085">
        <ele>549</ele>
        <time>2016-10-16T09:57:32Z</time>
      </trkpt>
      <trkpt lat="45.97314" lon="4.58081">
        <ele>539</ele>
        <time>2016-10-16T09:57:33Z</time>
      </trkpt>
      <trkpt lat="45.97322" lon="4.58076">
        <ele>540</ele>
        <time>2016-10-16T09:57:35Z</time>
      </trkpt>
      <trkpt lat="45.97326" lon="4.58073">
        <ele>540</ele>
        <time>2016-10-16T09:57:36Z</time>
      </trkpt>
      <trkpt lat="45.97334" lon="4.5807">
        <ele>540</ele>
        <time>2016-10-16T09:57:38Z</time>
      </trkpt>
      <trkpt lat="45.97338" lon="4.58067">
        <ele>540</ele>
        <time>2016-10-16T09:57:39Z</time>
      </trkpt>
      <trkpt lat="45.97345" lon="4.58063">
        <ele>538</ele>
        <time>2016-10-16T09:57:41Z</time>
      </trkpt>
      <trkpt lat="45.97348" lon="4.58062">
        <ele>538</ele>
        <time>2016-10-16T09:57:42Z</time>
      </trkpt>
      <trkpt lat="45.97356" lon="4.5806">
        <ele>537</ele>
        <time>2016-10-16T09:57:44Z</time>
      </trkpt>
      <trkpt lat="45.97361" lon="4.58059">
        <ele>537</ele>
        <time>2016-10-16T09:57:45Z</time>
      </trkpt>
      <trkpt lat="45.97368" lon="4.58058">
        <ele>537</ele>
        <time>2016-10-16T09:57:47Z</time>
      </trkpt>
      <trkpt lat="45.97372" lon="4.58058">
        <ele>537</ele>
        <time>2016-10-16T09:57:48Z</time>
      </trkpt>
      <trkpt lat="45.9738" lon="4.58059">
        <ele>537</ele>
        <time>2016-10-16T09:57:50Z</time>
      </trkpt>
      <trkpt lat="45.97385" lon="4.58061">
        <ele>538</ele>
        <time>2016-10-16T09:57:51Z</time>
      </trkpt>
      <trkpt lat="45.97391" lon="4.58064">
        <ele>538</ele>
        <time>2016-10-16T09:57:53Z</time>
      </trkpt>
      <trkpt lat="45.97394" lon="4.58066">
        <ele>538</ele>
        <time>2016-10-16T09:57:54Z</time>
      </trkpt>
      <trkpt lat="45.97401" lon="4.58071">
        <ele>540</ele>
        <time>2016-10-16T09:57:56Z</time>
      </trkpt>
      <trkpt lat="45.97405" lon="4.58074">
        <ele>540</ele>
        <time>2016-10-16T09:57:57Z</time>
      </trkpt>
      <trkpt lat="45.97411" lon="4.5808">
        <ele>542</ele>
        <time>2016-10-16T09:57:59Z</time>
      </trkpt>
      <trkpt lat="45.97414" lon="4.58083">
        <ele>543</ele>
        <time>2016-10-16T09:58:00Z</time>
      </trkpt>
      <trkpt lat="45.9742" lon="4.58089">
        <ele>545</ele>
        <time>2016-10-16T09:58:02Z</time>
      </trkpt>
      <trkpt lat="45.97423" lon="4.58093">
        <ele>545</ele>
        <time>2016-10-16T09:58:03Z</time>
      </trkpt>
      <trkpt lat="45.97429" lon="4.58098">
        <ele>545</ele>
        <time>2016-10-16T09:58:05Z</time>
      </trkpt>
      <trkpt lat="45.97431" lon="4.58101">
        <ele>545</ele>
        <time>2016-10-16T09:58:06Z</time>
      </trkpt>
      <trkpt lat="45.97436" lon="4.58107">
        <ele>546</ele>
        <time>2016-10-16T09:58:08Z</time>
      </trkpt>
      <trkpt lat="45.9744" lon="4.5811">
        <ele>546</ele>
        <time>2016-10-16T09:58:09Z</time>
      </trkpt>
      <trkpt lat="45.97443" lon="4.58114">
        <ele>546</ele>
        <time>2016-10-16T09:58:10Z</time>
      </trkpt>
      <trkpt lat="45.97447" lon="4.58118">
        <ele>546</ele>
        <time>2016-10-16T09:58:11Z</time>
      </trkpt>
      <trkpt lat="45.97455" lon="4.58123">
        <ele>546</ele>
        <time>2016-10-16T09:58:13Z</time>
      </trkpt>
      <trkpt lat="45.97459" lon="4.58126">
        <ele>546</ele>
        <time>2016-10-16T09:58:14Z</time>
      </trkpt>
      <trkpt lat="45.97466" lon="4.58131">
        <ele>546</ele>
        <time>2016-10-16T09:58:16Z</time>
      </trkpt>
      <trkpt lat="45.9747" lon="4.58133">
        <ele>546</ele>
        <time>2016-10-16T09:58:17Z</time>
      </trkpt>
      <trkpt lat="45.97477" lon="4.58137">
        <ele>547</ele>
        <time>2016-10-16T09:58:19Z</time>
      </trkpt>
      <trkpt lat="45.97481" lon="4.5814">
        <ele>547</ele>
        <time>2016-10-16T09:58:20Z</time>
      </trkpt>
      <trkpt lat="45.97488" lon="4.58145">
        <ele>547</ele>
        <time>2016-10-16T09:58:22Z</time>
      </trkpt>
      <trkpt lat="45.97492" lon="4.58146">
        <ele>547</ele>
        <time>2016-10-16T09:58:23Z</time>
      </trkpt>
      <trkpt lat="45.97499" lon="4.58149">
        <ele>548</ele>
        <time>2016-10-16T09:58:25Z</time>
      </trkpt>
      <trkpt lat="45.97503" lon="4.5815">
        <ele>544</ele>
        <time>2016-10-16T09:58:26Z</time>
      </trkpt>
      <trkpt lat="45.97511" lon="4.58153">
        <ele>543</ele>
        <time>2016-10-16T09:58:28Z</time>
      </trkpt>
      <trkpt lat="45.97515" lon="4.58155">
        <ele>543</ele>
        <time>2016-10-16T09:58:29Z</time>
      </trkpt>
      <trkpt lat="45.97523" lon="4.58159">
        <ele>542</ele>
        <time>2016-10-16T09:58:31Z</time>
      </trkpt>
      <trkpt lat="45.97527" lon="4.5816">
        <ele>542</ele>
        <time>2016-10-16T09:58:32Z</time>
      </trkpt>
      <trkpt lat="45.97535" lon="4.58163">
        <ele>541</ele>
        <time>2016-10-16T09:58:34Z</time>
      </trkpt>
      <trkpt lat="45.97539" lon="4.58164">
        <ele>541</ele>
        <time>2016-10-16T09:58:35Z</time>
      </trkpt>
      <trkpt lat="45.97543" lon="4.58165">
        <ele>540</ele>
        <time>2016-10-16T09:58:36Z</time>
      </trkpt>
      <trkpt lat="45.97547" lon="4.58168">
        <ele>549</ele>
        <time>2016-10-16T09:58:37Z</time>
      </trkpt>
      <trkpt lat="45.97555" lon="4.5817">
        <ele>549</ele>
        <time>2016-10-16T09:58:39Z</time>
      </trkpt>
      <trkpt lat="45.97559" lon="4.5817">
        <ele>548</ele>
        <time>2016-10-16T09:58:40Z</time>
      </trkpt>
      <trkpt lat="45.97568" lon="4.58171">
        <ele>546</ele>
        <time>2016-10-16T09:58:42Z</time>
      </trkpt>
      <trkpt lat="45.97572" lon="4.58172">
        <ele>546</ele>
        <time>2016-10-16T09:58:43Z</time>
      </trkpt>
      <trkpt lat="45.9758" lon="4.58172">
        <ele>543</ele>
        <time>2016-10-16T09:58:45Z</time>
      </trkpt>
      <trkpt lat="45.97584" lon="4.58172">
        <ele>542</ele>
        <time>2016-10-16T09:58:46Z</time>
      </trkpt>
      <trkpt lat="45.97592" lon="4.58172">
        <ele>543</ele>
        <time>2016-10-16T09:58:48Z</time>
      </trkpt>
      <trkpt lat="45.97596" lon="4.58173">
        <ele>544</ele>
        <time>2016-10-16T09:58:49Z</time>
      </trkpt>
      <trkpt lat="45.97602" lon="4.58174">
        <ele>545</ele>
        <time>2016-10-16T09:58:51Z</time>
      </trkpt>
      <trkpt lat="45.97605" lon="4.58175">
        <ele>545</ele>
        <time>2016-10-16T09:58:52Z</time>
      </trkpt>
      <trkpt lat="45.97613" lon="4.58175">
        <ele>545</ele>
        <time>2016-10-16T09:58:54Z</time>
      </trkpt>
      <trkpt lat="45.97616" lon="4.58175">
        <ele>546</ele>
        <time>2016-10-16T09:58:55Z</time>
      </trkpt>
      <trkpt lat="45.97623" lon="4.58176">
        <ele>546</ele>
        <time>2016-10-16T09:58:57Z</time>
      </trkpt>
      <trkpt lat="45.97627" lon="4.58177">
        <ele>546</ele>
        <time>2016-10-16T09:58:58Z</time>
      </trkpt>
      <trkpt lat="45.97635" lon="4.58178">
        <ele>546</ele>
        <time>2016-10-16T09:59:00Z</time>
      </trkpt>
      <trkpt lat="45.97639" lon="4.58179">
        <ele>546</ele>
        <time>2016-10-16T09:59:01Z</time>
      </trkpt>
      <trkpt lat="45.97647" lon="4.58181">
        <ele>546</ele>
        <time>2016-10-16T09:59:03Z</time>
      </trkpt>
      <trkpt lat="45.97651" lon="4.58183">
        <ele>545</ele>
        <time>2016-10-16T09:59:04Z</time>
      </trkpt>
      <trkpt lat="45.97659" lon="4.58185">
        <ele>545</ele>
        <time>2016-10-16T09:59:06Z</time>
      </trkpt>
      <trkpt lat="45.97663" lon="4.58186">
        <ele>545</ele>
        <time>2016-10-16T09:59:07Z</time>
      </trkpt>
      <trkpt lat="45.9767" lon="4.58188">
        <ele>545</ele>
        <time>2016-10-16T09:59:09Z</time>
      </trkpt>
      <trkpt lat="45.97674" lon="4.5819">
        <ele>546</ele>
        <time>2016-10-16T09:59:10Z</time>
      </trkpt>
      <trkpt lat="45.97682" lon="4.58193">
        <ele>546</ele>
        <time>2016-10-16T09:59:12Z</time>
      </trkpt>
      <trkpt lat="45.97686" lon="4.58194">
        <ele>546</ele>
        <time>2016-10-16T09:59:13Z</time>
      </trkpt>
      <trkpt lat="45.97694" lon="4.58196">
        <ele>547</ele>
        <time>2016-10-16T09:59:15Z</time>
      </trkpt>
      <trkpt lat="45.97698" lon="4.58198">
        <ele>547</ele>
        <time>2016-10-16T09:59:16Z</time>
      </trkpt>
      <trkpt lat="45.97707" lon="4.58202">
        <ele>547</ele>
        <time>2016-10-16T09:59:18Z</time>
      </trkpt>
      <trkpt lat="45.97711" lon="4.58204">
        <ele>547</ele>
        <time>2016-10-16T09:59:19Z</time>
      </trkpt>
      <trkpt lat="45.97719" lon="4.58208">
        <ele>547</ele>
        <time>2016-10-16T09:59:21Z</time>
      </trkpt>
      <trkpt lat="45.97722" lon="4.5821">
        <ele>548</ele>
        <time>2016-10-16T09:59:22Z</time>
      </trkpt>
      <trkpt lat="45.97728" lon="4.58214">
        <ele>548</ele>
        <time>2016-10-16T09:59:24Z</time>
      </trkpt>
      <trkpt lat="45.97732" lon="4.58216">
        <ele>548</ele>
        <time>2016-10-16T09:59:25Z</time>
      </trkpt>
      <trkpt lat="45.97739" lon="4.58219">
        <ele>548</ele>
        <time>2016-10-16T09:59:27Z</time>
      </trkpt>
      <trkpt lat="45.97742" lon="4.58222">
        <ele>549</ele>
        <time>2016-10-16T09:59:28Z</time>
      </trkpt>
      <trkpt lat="45.97749" lon="4.58226">
        <ele>549</ele>
        <time>2016-10-16T09:59:30Z</time>
      </trkpt>
      <trkpt lat="45.97752" lon="4.58229">
        <ele>549</ele>
        <time>2016-10-16T09:59:31Z</time>
      </trkpt>
      <trkpt lat="45.97758" lon="4.58234">
        <ele>550</ele>
        <time>2016-10-16T09:59:33Z</time>
      </trkpt>
      <trkpt lat="45.97762" lon="4.58237">
        <ele>550</ele>
        <time>2016-10-16T09:59:34Z</time>
      </trkpt>
      <trkpt lat="45.97769" lon="4.58243">
        <ele>550</ele>
        <time>2016-10-16T09:59:36Z</time>
      </trkpt>
      <trkpt lat="45.97772" lon="4.58247">
        <ele>550</ele>
        <time>2016-10-16T09:59:37Z</time>
      </trkpt>
      <trkpt lat="45.97779" lon="4.58256">
        <ele>551</ele>
        <time>2016-10-16T09:59:39Z</time>
      </trkpt>
      <trkpt lat="45.97781" lon="4.5826">
        <ele>551</ele>
        <time>2016-10-16T09:59:40Z</time>
      </trkpt>
      <trkpt lat="45.97787" lon="4.58269">
        <ele>551</ele>
        <time>2016-10-16T09:59:42Z</time>
      </trkpt>
      <trkpt lat="45.9779" lon="4.58273">
        <ele>551</ele>
        <time>2016-10-16T09:59:43Z</time>
      </trkpt>
      <trkpt lat="45.97796" lon="4.58283">
        <ele>551</ele>
        <time>2016-10-16T09:59:45Z</time>
      </trkpt>
      <trkpt lat="45.97798" lon="4.58289">
        <ele>551</ele>
        <time>2016-10-16T09:59:46Z</time>
      </trkpt>
      <trkpt lat="45.97801" lon="4.58294">
        <ele>551</ele>
        <time>2016-10-16T09:59:47Z</time>
      </trkpt>
      <trkpt lat="45.97803" lon="4.58299">
        <ele>551</ele>
        <time>2016-10-16T09:59:48Z</time>
      </trkpt>
      <trkpt lat="45.97806" lon="4.58305">
        <ele>551</ele>
        <time>2016-10-16T09:59:49Z</time>
      </trkpt>
      <trkpt lat="45.97807" lon="4.58311">
        <ele>551</ele>
        <time>2016-10-16T09:59:50Z</time>
      </trkpt>
      <trkpt lat="45.9781" lon="4.58323">
        <ele>551</ele>
        <time>2016-10-16T09:59:52Z</time>
      </trkpt>
      <trkpt lat="45.9781" lon="4.58329">
        <ele>551</ele>
        <time>2016-10-16T09:59:53Z</time>
      </trkpt>
      <trkpt lat="45.97812" lon="4.5834">
        <ele>551</ele>
        <time>2016-10-16T09:59:55Z</time>
      </trkpt>
      <trkpt lat="45.97815" lon="4.58345">
        <ele>551</ele>
        <time>2016-10-16T09:59:56Z</time>
      </trkpt>
      <trkpt lat="45.97818" lon="4.58355">
        <ele>551</ele>
        <time>2016-10-16T09:59:58Z</time>
      </trkpt>
      <trkpt lat="45.97819" lon="4.5836">
        <ele>551</ele>
        <time>2016-10-16T09:59:59Z</time>
      </trkpt>
      <trkpt lat="45.9782" lon="4.58372">
        <ele>551</ele>
        <time>2016-10-16T10:00:01Z</time>
      </trkpt>
      <trkpt lat="45.97821" lon="4.58379">
        <ele>551</ele>
        <time>2016-10-16T10:00:02Z</time>
      </trkpt>
      <trkpt lat="45.97821" lon="4.58391">
        <ele>551</ele>
        <time>2016-10-16T10:00:04Z</time>
      </trkpt>
      <trkpt lat="45.97821" lon="4.58398">
        <ele>551</ele>
        <time>2016-10-16T10:00:05Z</time>
      </trkpt>
      <trkpt lat="45.9782" lon="4.58405">
        <ele>551</ele>
        <time>2016-10-16T10:00:06Z</time>
      </trkpt>
      <trkpt lat="45.97819" lon="4.58412">
        <ele>551</ele>
        <time>2016-10-16T10:00:07Z</time>
      </trkpt>
      <trkpt lat="45.9782" lon="4.58422">
        <ele>550</ele>
        <time>2016-10-16T10:00:08Z</time>
      </trkpt>
      <trkpt lat="45.97819" lon="4.58432">
        <ele>550</ele>
        <time>2016-10-16T10:00:09Z</time>
      </trkpt>
      <trkpt lat="45.9782" lon="4.58442">
        <ele>549</ele>
        <time>2016-10-16T10:00:10Z</time>
      </trkpt>
      <trkpt lat="45.9782" lon="4.58452">
        <ele>549</ele>
        <time>2016-10-16T10:00:11Z</time>
      </trkpt>
      <trkpt lat="45.9782" lon="4.58463">
        <ele>548</ele>
        <time>2016-10-16T10:00:12Z</time>
      </trkpt>
      <trkpt lat="45.97821" lon="4.58474">
        <ele>548</ele>
        <time>2016-10-16T10:00:13Z</time>
      </trkpt>
      <trkpt lat="45.97821" lon="4.58484">
        <ele>547</ele>
        <time>2016-10-16T10:00:14Z</time>
      </trkpt>
      <trkpt lat="45.97821" lon="4.58494">
        <ele>547</ele>
        <time>2016-10-16T10:00:15Z</time>
      </trkpt>
      <trkpt lat="45.97822" lon="4.58503">
        <ele>545</ele>
        <time>2016-10-16T10:00:16Z</time>
      </trkpt>
      <trkpt lat="45.97823" lon="4.58512">
        <ele>545</ele>
        <time>2016-10-16T10:00:17Z</time>
      </trkpt>
      <trkpt lat="45.97825" lon="4.58522">
        <ele>544</ele>
        <time>2016-10-16T10:00:18Z</time>
      </trkpt>
      <trkpt lat="45.97829" lon="4.58531">
        <ele>544</ele>
        <time>2016-10-16T10:00:19Z</time>
      </trkpt>
      <trkpt lat="45.97833" lon="4.58538">
        <ele>544</ele>
        <time>2016-10-16T10:00:20Z</time>
      </trkpt>
      <trkpt lat="45.97838" lon="4.58544">
        <ele>541</ele>
        <time>2016-10-16T10:00:21Z</time>
      </trkpt>
      <trkpt lat="45.97844" lon="4.58549">
        <ele>540</ele>
        <time>2016-10-16T10:00:22Z</time>
      </trkpt>
      <trkpt lat="45.97851" lon="4.58551">
        <ele>540</ele>
        <time>2016-10-16T10:00:23Z</time>
      </trkpt>
      <trkpt lat="45.97859" lon="4.58552">
        <ele>540</ele>
        <time>2016-10-16T10:00:24Z</time>
      </trkpt>
      <trkpt lat="45.97867" lon="4.58553">
        <ele>540</ele>
        <time>2016-10-16T10:00:25Z</time>
      </trkpt>
      <trkpt lat="45.97875" lon="4.58552">
        <ele>540</ele>
        <time>2016-10-16T10:00:26Z</time>
      </trkpt>
      <trkpt lat="45.97883" lon="4.58552">
        <ele>540</ele>
        <time>2016-10-16T10:00:27Z</time>
      </trkpt>
      <trkpt lat="45.97892" lon="4.58552">
        <ele>540</ele>
        <time>2016-10-16T10:00:28Z</time>
      </trkpt>
      <trkpt lat="45.979" lon="4.58553">
        <ele>539</ele>
        <time>2016-10-16T10:00:29Z</time>
      </trkpt>
      <trkpt lat="45.97909" lon="4.58552">
        <ele>539</ele>
        <time>2016-10-16T10:00:30Z</time>
      </trkpt>
      <trkpt lat="45.97918" lon="4.58553">
        <ele>536</ele>
        <time>2016-10-16T10:00:31Z</time>
      </trkpt>
      <trkpt lat="45.97927" lon="4.58552">
        <ele>536</ele>
        <time>2016-10-16T10:00:32Z</time>
      </trkpt>
      <trkpt lat="45.97936" lon="4.58552">
        <ele>536</ele>
        <time>2016-10-16T10:00:33Z</time>
      </trkpt>
      <trkpt lat="45.97945" lon="4.58552">
        <ele>536</ele>
        <time>2016-10-16T10:00:34Z</time>
      </trkpt>
      <trkpt lat="45.97954" lon="4.58551">
        <ele>535</ele>
        <time>2016-10-16T10:00:35Z</time>
      </trkpt>
      <trkpt lat="45.97971" lon="4.58551">
        <ele>534</ele>
        <time>2016-10-16T10:00:37Z</time>
      </trkpt>
      <trkpt lat="45.97979" lon="4.58551">
        <ele>534</ele>
        <time>2016-10-16T10:00:38Z</time>
      </trkpt>
      <trkpt lat="45.97995" lon="4.5855">
        <ele>534</ele>
        <time>2016-10-16T10:00:40Z</time>
      </trkpt>
      <trkpt lat="45.98002" lon="4.58549">
        <ele>530</ele>
        <time>2016-10-16T10:00:41Z</time>
      </trkpt>
      <trkpt lat="45.98009" lon="4.58548">
        <ele>530</ele>
        <time>2016-10-16T10:00:42Z</time>
      </trkpt>
      <trkpt lat="45.98017" lon="4.58548">
        <ele>530</ele>
        <time>2016-10-16T10:00:43Z</time>
      </trkpt>
      <trkpt lat="45.98024" lon="4.58548">
        <ele>530</ele>
        <time>2016-10-16T10:00:44Z</time>
      </trkpt>
      <trkpt lat="45.98032" lon="4.58548">
        <ele>530</ele>
        <time>2016-10-16T10:00:45Z</time>
      </trkpt>
      <trkpt lat="45.9804" lon="4.58549">
        <ele>529</ele>
        <time>2016-10-16T10:00:46Z</time>
      </trkpt>
      <trkpt lat="45.98049" lon="4.5855">
        <ele>529</ele>
        <time>2016-10-16T10:00:47Z</time>
      </trkpt>
      <trkpt lat="45.98058" lon="4.58551">
        <ele>529</ele>
        <time>2016-10-16T10:00:48Z</time>
      </trkpt>
      <trkpt lat="45.98067" lon="4.58552">
        <ele>528</ele>
        <time>2016-10-16T10:00:49Z</time>
      </trkpt>
      <trkpt lat="45.98076" lon="4.58553">
        <ele>528</ele>
        <time>2016-10-16T10:00:50Z</time>
      </trkpt>
      <trkpt lat="45.98085" lon="4.58555">
        <ele>525</ele>
        <time>2016-10-16T10:00:51Z</time>
      </trkpt>
      <trkpt lat="45.98095" lon="4.58557">
        <ele>525</ele>
        <time>2016-10-16T10:00:52Z</time>
      </trkpt>
      <trkpt lat="45.98104" lon="4.58559">
        <ele>525</ele>
        <time>2016-10-16T10:00:53Z</time>
      </trkpt>
      <trkpt lat="45.98114" lon="4.5856">
        <ele>525</ele>
        <time>2016-10-16T10:00:54Z</time>
      </trkpt>
      <trkpt lat="45.98124" lon="4.58562">
        <ele>524</ele>
        <time>2016-10-16T10:00:55Z</time>
      </trkpt>
      <trkpt lat="45.98134" lon="4.58564">
        <ele>524</ele>
        <time>2016-10-16T10:00:56Z</time>
      </trkpt>
      <trkpt lat="45.98145" lon="4.58566">
        <ele>523</ele>
        <time>2016-10-16T10:00:57Z</time>
      </trkpt>
      <trkpt lat="45.98155" lon="4.58568">
        <ele>522</ele>
        <time>2016-10-16T10:00:58Z</time>
      </trkpt>
      <trkpt lat="45.98166" lon="4.5857">
        <ele>521</ele>
        <time>2016-10-16T10:00:59Z</time>
      </trkpt>
      <trkpt lat="45.98176" lon="4.58572">
        <ele>521</ele>
        <time>2016-10-16T10:01:00Z</time>
      </trkpt>
      <trkpt lat="45.98187" lon="4.58574">
        <ele>521</ele>
        <time>2016-10-16T10:01:01Z</time>
      </trkpt>
      <trkpt lat="45.98198" lon="4.58576">
        <ele>522</ele>
        <time>2016-10-16T10:01:02Z</time>
      </trkpt>
      <trkpt lat="45.98209" lon="4.58578">
        <ele>522</ele>
        <time>2016-10-16T10:01:03Z</time>
      </trkpt>
      <trkpt lat="45.9822" lon="4.5858">
        <ele>522</ele>
        <time>2016-10-16T10:01:04Z</time>
      </trkpt>
      <trkpt lat="45.98231" lon="4.58582">
        <ele>521</ele>
        <time>2016-10-16T10:01:05Z</time>
      </trkpt>
      <trkpt lat="45.98242" lon="4.58584">
        <ele>516</ele>
        <time>2016-10-16T10:01:06Z</time>
      </trkpt>
      <trkpt lat="45.98253" lon="4.58586">
        <ele>517</ele>
        <time>2016-10-16T10:01:07Z</time>
      </trkpt>
      <trkpt lat="45.98264" lon="4.58587">
        <ele>514</ele>
        <time>2016-10-16T10:01:08Z</time>
      </trkpt>
      <trkpt lat="45.98275" lon="4.58588">
        <ele>512</ele>
        <time>2016-10-16T10:01:09Z</time>
      </trkpt>
      <trkpt lat="45.98286" lon="4.58587">
        <ele>511</ele>
        <time>2016-10-16T10:01:10Z</time>
      </trkpt>
      <trkpt lat="45.98297" lon="4.58586">
        <ele>510</ele>
        <time>2016-10-16T10:01:11Z</time>
      </trkpt>
      <trkpt lat="45.98307" lon="4.58584">
        <ele>510</ele>
        <time>2016-10-16T10:01:12Z</time>
      </trkpt>
      <trkpt lat="45.98317" lon="4.58583">
        <ele>514</ele>
        <time>2016-10-16T10:01:13Z</time>
      </trkpt>
      <trkpt lat="45.98326" lon="4.58582">
        <ele>512</ele>
        <time>2016-10-16T10:01:14Z</time>
      </trkpt>
      <trkpt lat="45.98335" lon="4.58581">
        <ele>510</ele>
        <time>2016-10-16T10:01:15Z</time>
      </trkpt>
      <trkpt lat="45.98343" lon="4.5858">
        <ele>510</ele>
        <time>2016-10-16T10:01:16Z</time>
      </trkpt>
      <trkpt lat="45.98351" lon="4.58578">
        <ele>510</ele>
        <time>2016-10-16T10:01:17Z</time>
      </trkpt>
      <trkpt lat="45.98359" lon="4.58577">
        <ele>510</ele>
        <time>2016-10-16T10:01:18Z</time>
      </trkpt>
      <trkpt lat="45.98366" lon="4.58576">
        <ele>510</ele>
        <time>2016-10-16T10:01:19Z</time>
      </trkpt>
      <trkpt lat="45.98372" lon="4.58576">
        <ele>510</ele>
        <time>2016-10-16T10:01:20Z</time>
      </trkpt>
      <trkpt lat="45.98378" lon="4.5858">
        <ele>509</ele>
        <time>2016-10-16T10:01:21Z</time>
      </trkpt>
      <trkpt lat="45.98382" lon="4.58587">
        <ele>504</ele>
        <time>2016-10-16T10:01:22Z</time>
      </trkpt>
      <trkpt lat="45.98385" lon="4.58595">
        <ele>503</ele>
        <time>2016-10-16T10:01:23Z</time>
      </trkpt>
      <trkpt lat="45.98384" lon="4.58604">
        <ele>503</ele>
        <time>2016-10-16T10:01:24Z</time>
      </trkpt>
      <trkpt lat="45.98381" lon="4.58614">
        <ele>503</ele>
        <time>2016-10-16T10:01:25Z</time>
      </trkpt>
      <trkpt lat="45.98377" lon="4.58622">
        <ele>503</ele>
        <time>2016-10-16T10:01:26Z</time>
      </trkpt>
      <trkpt lat="45.98371" lon="4.58629">
        <ele>503</ele>
        <time>2016-10-16T10:01:27Z</time>
      </trkpt>
      <trkpt lat="45.98365" lon="4.58635">
        <ele>503</ele>
        <time>2016-10-16T10:01:28Z</time>
      </trkpt>
      <trkpt lat="45.98359" lon="4.5864">
        <ele>503</ele>
        <time>2016-10-16T10:01:29Z</time>
      </trkpt>
      <trkpt lat="45.98352" lon="4.58644">
        <ele>503</ele>
        <time>2016-10-16T10:01:30Z</time>
      </trkpt>
      <trkpt lat="45.98345" lon="4.58649">
        <ele>503</ele>
        <time>2016-10-16T10:01:31Z</time>
      </trkpt>
      <trkpt lat="45.98338" lon="4.58655">
        <ele>502</ele>
        <time>2016-10-16T10:01:32Z</time>
      </trkpt>
      <trkpt lat="45.98331" lon="4.58661">
        <ele>503</ele>
        <time>2016-10-16T10:01:33Z</time>
      </trkpt>
      <trkpt lat="45.98325" lon="4.58668">
        <ele>501</ele>
        <time>2016-10-16T10:01:34Z</time>
      </trkpt>
      <trkpt lat="45.98317" lon="4.58674">
        <ele>500</ele>
        <time>2016-10-16T10:01:35Z</time>
      </trkpt>
      <trkpt lat="45.9831" lon="4.5868">
        <ele>500</ele>
        <time>2016-10-16T10:01:36Z</time>
      </trkpt>
      <trkpt lat="45.98303" lon="4.58686">
        <ele>500</ele>
        <time>2016-10-16T10:01:37Z</time>
      </trkpt>
      <trkpt lat="45.98295" lon="4.58693">
        <ele>499</ele>
        <time>2016-10-16T10:01:38Z</time>
      </trkpt>
      <trkpt lat="45.98287" lon="4.58699">
        <ele>499</ele>
        <time>2016-10-16T10:01:39Z</time>
      </trkpt>
      <trkpt lat="45.9828" lon="4.58705">
        <ele>499</ele>
        <time>2016-10-16T10:01:40Z</time>
      </trkpt>
      <trkpt lat="45.98272" lon="4.58712">
        <ele>498</ele>
        <time>2016-10-16T10:01:41Z</time>
      </trkpt>
      <trkpt lat="45.98265" lon="4.58718">
        <ele>498</ele>
        <time>2016-10-16T10:01:42Z</time>
      </trkpt>
      <trkpt lat="45.98257" lon="4.58724">
        <ele>497</ele>
        <time>2016-10-16T10:01:43Z</time>
      </trkpt>
      <trkpt lat="45.98249" lon="4.58731">
        <ele>498</ele>
        <time>2016-10-16T10:01:44Z</time>
      </trkpt>
      <trkpt lat="45.98241" lon="4.58737">
        <ele>498</ele>
        <time>2016-10-16T10:01:45Z</time>
      </trkpt>
      <trkpt lat="45.98234" lon="4.58744">
        <ele>498</ele>
        <time>2016-10-16T10:01:46Z</time>
      </trkpt>
      <trkpt lat="45.98226" lon="4.58751">
        <ele>493</ele>
        <time>2016-10-16T10:01:47Z</time>
      </trkpt>
      <trkpt lat="45.98218" lon="4.58758">
        <ele>493</ele>
        <time>2016-10-16T10:01:48Z</time>
      </trkpt>
      <trkpt lat="45.9821" lon="4.58765">
        <ele>493</ele>
        <time>2016-10-16T10:01:49Z</time>
      </trkpt>
      <trkpt lat="45.98202" lon="4.58771">
        <ele>493</ele>
        <time>2016-10-16T10:01:50Z</time>
      </trkpt>
      <trkpt lat="45.98194" lon="4.58778">
        <ele>493</ele>
        <time>2016-10-16T10:01:51Z</time>
      </trkpt>
      <trkpt lat="45.98186" lon="4.58785">
        <ele>493</ele>
        <time>2016-10-16T10:01:52Z</time>
      </trkpt>
      <trkpt lat="45.98178" lon="4.58793">
        <ele>493</ele>
        <time>2016-10-16T10:01:53Z</time>
      </trkpt>
      <trkpt lat="45.9817" lon="4.588">
        <ele>492</ele>
        <time>2016-10-16T10:01:54Z</time>
      </trkpt>
      <trkpt lat="45.98162" lon="4.58808">
        <ele>493</ele>
        <time>2016-10-16T10:01:55Z</time>
      </trkpt>
      <trkpt lat="45.98153" lon="4.58815">
        <ele>493</ele>
        <time>2016-10-16T10:01:56Z</time>
      </trkpt>
      <trkpt lat="45.98145" lon="4.58822">
        <ele>493</ele>
        <time>2016-10-16T10:01:57Z</time>
      </trkpt>
      <trkpt lat="45.98136" lon="4.58829">
        <ele>493</ele>
        <time>2016-10-16T10:01:58Z</time>
      </trkpt>
      <trkpt lat="45.98127" lon="4.58836">
        <ele>486</ele>
        <time>2016-10-16T10:01:59Z</time>
      </trkpt>
      <trkpt lat="45.98119" lon="4.58843">
        <ele>486</ele>
        <time>2016-10-16T10:02:00Z</time>
      </trkpt>
      <trkpt lat="45.98111" lon="4.58852">
        <ele>486</ele>
        <time>2016-10-16T10:02:01Z</time>
      </trkpt>
      <trkpt lat="45.98104" lon="4.58864">
        <ele>486</ele>
        <time>2016-10-16T10:02:02Z</time>
      </trkpt>
      <trkpt lat="45.981" lon="4.58876">
        <ele>485</ele>
        <time>2016-10-16T10:02:03Z</time>
      </trkpt>
      <trkpt lat="45.98096" lon="4.5889">
        <ele>484</ele>
        <time>2016-10-16T10:02:04Z</time>
      </trkpt>
      <trkpt lat="45.98095" lon="4.58904">
        <ele>484</ele>
        <time>2016-10-16T10:02:05Z</time>
      </trkpt>
      <trkpt lat="45.98096" lon="4.58918">
        <ele>481</ele>
        <time>2016-10-16T10:02:06Z</time>
      </trkpt>
      <trkpt lat="45.98097" lon="4.58933">
        <ele>479</ele>
        <time>2016-10-16T10:02:07Z</time>
      </trkpt>
      <trkpt lat="45.98098" lon="4.58947">
        <ele>478</ele>
        <time>2016-10-16T10:02:08Z</time>
      </trkpt>
      <trkpt lat="45.98099" lon="4.58961">
        <ele>477</ele>
        <time>2016-10-16T10:02:09Z</time>
      </trkpt>
      <trkpt lat="45.98098" lon="4.58976">
        <ele>476</ele>
        <time>2016-10-16T10:02:10Z</time>
      </trkpt>
      <trkpt lat="45.98096" lon="4.58992">
        <ele>477</ele>
        <time>2016-10-16T10:02:11Z</time>
      </trkpt>
      <trkpt lat="45.98093" lon="4.59006">
        <ele>475</ele>
        <time>2016-10-16T10:02:12Z</time>
      </trkpt>
      <trkpt lat="45.98089" lon="4.5902">
        <ele>473</ele>
        <time>2016-10-16T10:02:13Z</time>
      </trkpt>
      <trkpt lat="45.98084" lon="4.59033">
        <ele>471</ele>
        <time>2016-10-16T10:02:14Z</time>
      </trkpt>
      <trkpt lat="45.9808" lon="4.59046">
        <ele>480</ele>
        <time>2016-10-16T10:02:15Z</time>
      </trkpt>
      <trkpt lat="45.98075" lon="4.59059">
        <ele>479</ele>
        <time>2016-10-16T10:02:16Z</time>
      </trkpt>
      <trkpt lat="45.98069" lon="4.59071">
        <ele>478</ele>
        <time>2016-10-16T10:02:17Z</time>
      </trkpt>
      <trkpt lat="45.98064" lon="4.59084">
        <ele>473</ele>
        <time>2016-10-16T10:02:18Z</time>
      </trkpt>
      <trkpt lat="45.98058" lon="4.59096">
        <ele>473</ele>
        <time>2016-10-16T10:02:19Z</time>
      </trkpt>
      <trkpt lat="45.98051" lon="4.59107">
        <ele>473</ele>
        <time>2016-10-16T10:02:20Z</time>
      </trkpt>
      <trkpt lat="45.98045" lon="4.59119">
        <ele>472</ele>
        <time>2016-10-16T10:02:21Z</time>
      </trkpt>
      <trkpt lat="45.98038" lon="4.5913">
        <ele>472</ele>
        <time>2016-10-16T10:02:22Z</time>
      </trkpt>
      <trkpt lat="45.9803" lon="4.59141">
        <ele>471</ele>
        <time>2016-10-16T10:02:23Z</time>
      </trkpt>
      <trkpt lat="45.98023" lon="4.59151">
        <ele>471</ele>
        <time>2016-10-16T10:02:24Z</time>
      </trkpt>
      <trkpt lat="45.98014" lon="4.59159">
        <ele>470</ele>
        <time>2016-10-16T10:02:25Z</time>
      </trkpt>
      <trkpt lat="45.98005" lon="4.59167">
        <ele>469</ele>
        <time>2016-10-16T10:02:26Z</time>
      </trkpt>
      <trkpt lat="45.97995" lon="4.59173">
        <ele>470</ele>
        <time>2016-10-16T10:02:27Z</time>
      </trkpt>
      <trkpt lat="45.97986" lon="4.5918">
        <ele>471</ele>
        <time>2016-10-16T10:02:28Z</time>
      </trkpt>
      <trkpt lat="45.97977" lon="4.59188">
        <ele>472</ele>
        <time>2016-10-16T10:02:29Z</time>
      </trkpt>
      <trkpt lat="45.97969" lon="4.59198">
        <ele>472</ele>
        <time>2016-10-16T10:02:30Z</time>
      </trkpt>
      <trkpt lat="45.97963" lon="4.5921">
        <ele>472</ele>
        <time>2016-10-16T10:02:31Z</time>
      </trkpt>
      <trkpt lat="45.9796" lon="4.59224">
        <ele>472</ele>
        <time>2016-10-16T10:02:32Z</time>
      </trkpt>
      <trkpt lat="45.97958" lon="4.59239">
        <ele>472</ele>
        <time>2016-10-16T10:02:33Z</time>
      </trkpt>
      <trkpt lat="45.97957" lon="4.59254">
        <ele>470</ele>
        <time>2016-10-16T10:02:34Z</time>
      </trkpt>
      <trkpt lat="45.97959" lon="4.59269">
        <ele>469</ele>
        <time>2016-10-16T10:02:35Z</time>
      </trkpt>
      <trkpt lat="45.97961" lon="4.59284">
        <ele>469</ele>
        <time>2016-10-16T10:02:36Z</time>
      </trkpt>
      <trkpt lat="45.97965" lon="4.59299">
        <ele>468</ele>
        <time>2016-10-16T10:02:37Z</time>
      </trkpt>
      <trkpt lat="45.97968" lon="4.59313">
        <ele>467</ele>
        <time>2016-10-16T10:02:38Z</time>
      </trkpt>
      <trkpt lat="45.97972" lon="4.59327">
        <ele>466</ele>
        <time>2016-10-16T10:02:39Z</time>
      </trkpt>
      <trkpt lat="45.97975" lon="4.59342">
        <ele>463</ele>
        <time>2016-10-16T10:02:40Z</time>
      </trkpt>
      <trkpt lat="45.97978" lon="4.59357">
        <ele>464</ele>
        <time>2016-10-16T10:02:41Z</time>
      </trkpt>
      <trkpt lat="45.9798" lon="4.59371">
        <ele>464</ele>
        <time>2016-10-16T10:02:42Z</time>
      </trkpt>
      <trkpt lat="45.97982" lon="4.59385">
        <ele>463</ele>
        <time>2016-10-16T10:02:43Z</time>
      </trkpt>
      <trkpt lat="45.97982" lon="4.594">
        <ele>462</ele>
        <time>2016-10-16T10:02:44Z</time>
      </trkpt>
      <trkpt lat="45.9798" lon="4.59415">
        <ele>461</ele>
        <time>2016-10-16T10:02:45Z</time>
      </trkpt>
      <trkpt lat="45.97977" lon="4.59429">
        <ele>458</ele>
        <time>2016-10-16T10:02:46Z</time>
      </trkpt>
      <trkpt lat="45.97971" lon="4.59442">
        <ele>459</ele>
        <time>2016-10-16T10:02:47Z</time>
      </trkpt>
      <trkpt lat="45.97964" lon="4.59454">
        <ele>459</ele>
        <time>2016-10-16T10:02:48Z</time>
      </trkpt>
      <trkpt lat="45.97958" lon="4.59467">
        <ele>458</ele>
        <time>2016-10-16T10:02:49Z</time>
      </trkpt>
      <trkpt lat="45.97953" lon="4.5948">
        <ele>458</ele>
        <time>2016-10-16T10:02:50Z</time>
      </trkpt>
      <trkpt lat="45.97949" lon="4.59494">
        <ele>458</ele>
        <time>2016-10-16T10:02:51Z</time>
      </trkpt>
      <trkpt lat="45.97945" lon="4.59509">
        <ele>451</ele>
        <time>2016-10-16T10:02:52Z</time>
      </trkpt>
      <trkpt lat="45.97943" lon="4.59524">
        <ele>450</ele>
        <time>2016-10-16T10:02:53Z</time>
      </trkpt>
      <trkpt lat="45.97942" lon="4.59539">
        <ele>449</ele>
        <time>2016-10-16T10:02:54Z</time>
      </trkpt>
      <trkpt lat="45.9794" lon="4.59554">
        <ele>448</ele>
        <time>2016-10-16T10:02:55Z</time>
      </trkpt>
      <trkpt lat="45.97935" lon="4.59567">
        <ele>447</ele>
        <time>2016-10-16T10:02:56Z</time>
      </trkpt>
      <trkpt lat="45.9793" lon="4.5958">
        <ele>447</ele>
        <time>2016-10-16T10:02:57Z</time>
      </trkpt>
      <trkpt lat="45.97924" lon="4.59591">
        <ele>444</ele>
        <time>2016-10-16T10:02:58Z</time>
      </trkpt>
      <trkpt lat="45.97916" lon="4.59601">
        <ele>447</ele>
        <time>2016-10-16T10:02:59Z</time>
      </trkpt>
      <trkpt lat="45.97905" lon="4.59607">
        <ele>446</ele>
        <time>2016-10-16T10:03:00Z</time>
      </trkpt>
      <trkpt lat="45.97895" lon="4.59611">
        <ele>446</ele>
        <time>2016-10-16T10:03:01Z</time>
      </trkpt>
      <trkpt lat="45.97884" lon="4.59615">
        <ele>446</ele>
        <time>2016-10-16T10:03:02Z</time>
      </trkpt>
      <trkpt lat="45.97874" lon="4.59618">
        <ele>447</ele>
        <time>2016-10-16T10:03:03Z</time>
      </trkpt>
      <trkpt lat="45.97864" lon="4.59623">
        <ele>447</ele>
        <time>2016-10-16T10:03:04Z</time>
      </trkpt>
      <trkpt lat="45.97854" lon="4.59629">
        <ele>446</ele>
        <time>2016-10-16T10:03:05Z</time>
      </trkpt>
      <trkpt lat="45.97845" lon="4.59637">
        <ele>445</ele>
        <time>2016-10-16T10:03:06Z</time>
      </trkpt>
      <trkpt lat="45.97836" lon="4.59646">
        <ele>444</ele>
        <time>2016-10-16T10:03:07Z</time>
      </trkpt>
      <trkpt lat="45.97827" lon="4.59655">
        <ele>445</ele>
        <time>2016-10-16T10:03:08Z</time>
      </trkpt>
      <trkpt lat="45.97818" lon="4.59666">
        <ele>445</ele>
        <time>2016-10-16T10:03:09Z</time>
      </trkpt>
      <trkpt lat="45.97811" lon="4.59678">
        <ele>440</ele>
        <time>2016-10-16T10:03:10Z</time>
      </trkpt>
      <trkpt lat="45.97805" lon="4.59691">
        <ele>440</ele>
        <time>2016-10-16T10:03:11Z</time>
      </trkpt>
      <trkpt lat="45.97799" lon="4.59704">
        <ele>440</ele>
        <time>2016-10-16T10:03:12Z</time>
      </trkpt>
      <trkpt lat="45.97794" lon="4.59719">
        <ele>440</ele>
        <time>2016-10-16T10:03:13Z</time>
      </trkpt>
      <trkpt lat="45.9779" lon="4.59734">
        <ele>440</ele>
        <time>2016-10-16T10:03:14Z</time>
      </trkpt>
      <trkpt lat="45.97788" lon="4.59749">
        <ele>439</ele>
        <time>2016-10-16T10:03:15Z</time>
      </trkpt>
      <trkpt lat="45.97786" lon="4.59764">
        <ele>435</ele>
        <time>2016-10-16T10:03:16Z</time>
      </trkpt>
      <trkpt lat="45.97784" lon="4.59779">
        <ele>435</ele>
        <time>2016-10-16T10:03:17Z</time>
      </trkpt>
      <trkpt lat="45.97782" lon="4.59795">
        <ele>435</ele>
        <time>2016-10-16T10:03:18Z</time>
      </trkpt>
      <trkpt lat="45.9778" lon="4.59811">
        <ele>434</ele>
        <time>2016-10-16T10:03:19Z</time>
      </trkpt>
      <trkpt lat="45.97778" lon="4.59827">
        <ele>434</ele>
        <time>2016-10-16T10:03:20Z</time>
      </trkpt>
      <trkpt lat="45.97776" lon="4.59842">
        <ele>432</ele>
        <time>2016-10-16T10:03:21Z</time>
      </trkpt>
      <trkpt lat="45.97774" lon="4.59858">
        <ele>431</ele>
        <time>2016-10-16T10:03:22Z</time>
      </trkpt>
      <trkpt lat="45.97773" lon="4.59874">
        <ele>430</ele>
        <time>2016-10-16T10:03:23Z</time>
      </trkpt>
      <trkpt lat="45.97771" lon="4.5989">
        <ele>430</ele>
        <time>2016-10-16T10:03:24Z</time>
      </trkpt>
      <trkpt lat="45.97768" lon="4.59906">
        <ele>430</ele>
        <time>2016-10-16T10:03:25Z</time>
      </trkpt>
      <trkpt lat="45.97766" lon="4.59922">
        <ele>427</ele>
        <time>2016-10-16T10:03:26Z</time>
      </trkpt>
      <trkpt lat="45.97764" lon="4.59938">
        <ele>426</ele>
        <time>2016-10-16T10:03:27Z</time>
      </trkpt>
      <trkpt lat="45.97762" lon="4.59954">
        <ele>425</ele>
        <time>2016-10-16T10:03:28Z</time>
      </trkpt>
      <trkpt lat="45.97759" lon="4.5997">
        <ele>425</ele>
        <time>2016-10-16T10:03:29Z</time>
      </trkpt>
      <trkpt lat="45.97757" lon="4.59986">
        <ele>424</ele>
        <time>2016-10-16T10:03:30Z</time>
      </trkpt>
      <trkpt lat="45.97755" lon="4.60002">
        <ele>424</ele>
        <time>2016-10-16T10:03:31Z</time>
      </trkpt>
      <trkpt lat="45.97753" lon="4.60018">
        <ele>421</ele>
        <time>2016-10-16T10:03:32Z</time>
      </trkpt>
      <trkpt lat="45.97751" lon="4.60034">
        <ele>419</ele>
        <time>2016-10-16T10:03:33Z</time>
      </trkpt>
      <trkpt lat="45.97748" lon="4.6005">
        <ele>424</ele>
        <time>2016-10-16T10:03:34Z</time>
      </trkpt>
      <trkpt lat="45.97745" lon="4.60066">
        <ele>423</ele>
        <time>2016-10-16T10:03:35Z</time>
      </trkpt>
      <trkpt lat="45.97742" lon="4.60081">
        <ele>421</ele>
        <time>2016-10-16T10:03:36Z</time>
      </trkpt>
      <trkpt lat="45.97738" lon="4.60096">
        <ele>420</ele>
        <time>2016-10-16T10:03:37Z</time>
      </trkpt>
      <trkpt lat="45.97734" lon="4.60111">
        <ele>420</ele>
        <time>2016-10-16T10:03:38Z</time>
      </trkpt>
      <trkpt lat="45.9773" lon="4.60125">
        <ele>420</ele>
        <time>2016-10-16T10:03:39Z</time>
      </trkpt>
      <trkpt lat="45.97727" lon="4.60139">
        <ele>419</ele>
        <time>2016-10-16T10:03:40Z</time>
      </trkpt>
      <trkpt lat="45.97722" lon="4.60153">
        <ele>419</ele>
        <time>2016-10-16T10:03:41Z</time>
      </trkpt>
      <trkpt lat="45.97718" lon="4.60167">
        <ele>419</ele>
        <time>2016-10-16T10:03:42Z</time>
      </trkpt>
      <trkpt lat="45.97714" lon="4.6018">
        <ele>417</ele>
        <time>2016-10-16T10:03:43Z</time>
      </trkpt>
      <trkpt lat="45.9771" lon="4.60193">
        <ele>417</ele>
        <time>2016-10-16T10:03:44Z</time>
      </trkpt>
      <trkpt lat="45.97706" lon="4.60207">
        <ele>417</ele>
        <time>2016-10-16T10:03:45Z</time>
      </trkpt>
      <trkpt lat="45.97702" lon="4.60219">
        <ele>417</ele>
        <time>2016-10-16T10:03:46Z</time>
      </trkpt>
      <trkpt lat="45.97697" lon="4.60231">
        <ele>417</ele>
        <time>2016-10-16T10:03:47Z</time>
      </trkpt>
      <trkpt lat="45.97694" lon="4.60244">
        <ele>417</ele>
        <time>2016-10-16T10:03:48Z</time>
      </trkpt>
      <trkpt lat="45.9769" lon="4.60256">
        <ele>415</ele>
        <time>2016-10-16T10:03:49Z</time>
      </trkpt>
      <trkpt lat="45.97686" lon="4.60268">
        <ele>415</ele>
        <time>2016-10-16T10:03:50Z</time>
      </trkpt>
      <trkpt lat="45.97683" lon="4.60279">
        <ele>414</ele>
        <time>2016-10-16T10:03:51Z</time>
      </trkpt>
      <trkpt lat="45.97679" lon="4.6029">
        <ele>414</ele>
        <time>2016-10-16T10:03:52Z</time>
      </trkpt>
      <trkpt lat="45.97675" lon="4.60302">
        <ele>413</ele>
        <time>2016-10-16T10:03:53Z</time>
      </trkpt>
      <trkpt lat="45.97672" lon="4.60313">
        <ele>413</ele>
        <time>2016-10-16T10:03:54Z</time>
      </trkpt>
      <trkpt lat="45.97668" lon="4.60325">
        <ele>413</ele>
        <time>2016-10-16T10:03:55Z</time>
      </trkpt>
      <trkpt lat="45.97664" lon="4.60336">
        <ele>413</ele>
        <time>2016-10-16T10:03:56Z</time>
      </trkpt>
      <trkpt lat="45.9766" lon="4.60347">
        <ele>414</ele>
        <time>2016-10-16T10:03:57Z</time>
      </trkpt>
      <trkpt lat="45.97657" lon="4.60358">
        <ele>414</ele>
        <time>2016-10-16T10:03:58Z</time>
      </trkpt>
      <trkpt lat="45.97654" lon="4.60369">
        <ele>414</ele>
        <time>2016-10-16T10:03:59Z</time>
      </trkpt>
      <trkpt lat="45.97651" lon="4.6038">
        <ele>413</ele>
        <time>2016-10-16T10:04:00Z</time>
      </trkpt>
      <trkpt lat="45.97647" lon="4.60391">
        <ele>413</ele>
        <time>2016-10-16T10:04:01Z</time>
      </trkpt>
      <trkpt lat="45.97644" lon="4.60402">
        <ele>412</ele>
        <time>2016-10-16T10:04:02Z</time>
      </trkpt>
      <trkpt lat="45.9764" lon="4.60413">
        <ele>412</ele>
        <time>2016-10-16T10:04:03Z</time>
      </trkpt>
      <trkpt lat="45.97636" lon="4.60424">
        <ele>410</ele>
        <time>2016-10-16T10:04:04Z</time>
      </trkpt>
      <trkpt lat="45.97633" lon="4.60436">
        <ele>410</ele>
        <time>2016-10-16T10:04:05Z</time>
      </trkpt>
      <trkpt lat="45.97629" lon="4.60446">
        <ele>410</ele>
        <time>2016-10-16T10:04:06Z</time>
      </trkpt>
      <trkpt lat="45.97625" lon="4.60457">
        <ele>410</ele>
        <time>2016-10-16T10:04:07Z</time>
      </trkpt>
      <trkpt lat="45.9762" lon="4.60467">
        <ele>409</ele>
        <time>2016-10-16T10:04:08Z</time>
      </trkpt>
      <trkpt lat="45.97615" lon="4.60478">
        <ele>409</ele>
        <time>2016-10-16T10:04:09Z</time>
      </trkpt>
      <trkpt lat="45.9761" lon="4.60488">
        <ele>409</ele>
        <time>2016-10-16T10:04:10Z</time>
      </trkpt>
      <trkpt lat="45.97605" lon="4.60499">
        <ele>410</ele>
        <time>2016-10-16T10:04:11Z</time>
      </trkpt>
      <trkpt lat="45.97599" lon="4.60511">
        <ele>407</ele>
        <time>2016-10-16T10:04:12Z</time>
      </trkpt>
      <trkpt lat="45.97594" lon="4.60521">
        <ele>406</ele>
        <time>2016-10-16T10:04:13Z</time>
      </trkpt>
      <trkpt lat="45.97589" lon="4.60532">
        <ele>405</ele>
        <time>2016-10-16T10:04:14Z</time>
      </trkpt>
      <trkpt lat="45.97583" lon="4.60543">
        <ele>406</ele>
        <time>2016-10-16T10:04:15Z</time>
      </trkpt>
      <trkpt lat="45.97577" lon="4.60554">
        <ele>405</ele>
        <time>2016-10-16T10:04:16Z</time>
      </trkpt>
      <trkpt lat="45.97572" lon="4.60565">
        <ele>405</ele>
        <time>2016-10-16T10:04:17Z</time>
      </trkpt>
      <trkpt lat="45.97566" lon="4.60576">
        <ele>404</ele>
        <time>2016-10-16T10:04:18Z</time>
      </trkpt>
      <trkpt lat="45.9756" lon="4.60587">
        <ele>402</ele>
        <time>2016-10-16T10:04:19Z</time>
      </trkpt>
      <trkpt lat="45.97555" lon="4.60598">
        <ele>402</ele>
        <time>2016-10-16T10:04:20Z</time>
      </trkpt>
      <trkpt lat="45.97549" lon="4.60609">
        <ele>402</ele>
        <time>2016-10-16T10:04:21Z</time>
      </trkpt>
      <trkpt lat="45.97543" lon="4.6062">
        <ele>402</ele>
        <time>2016-10-16T10:04:22Z</time>
      </trkpt>
      <trkpt lat="45.97538" lon="4.60631">
        <ele>402</ele>
        <time>2016-10-16T10:04:23Z</time>
      </trkpt>
      <trkpt lat="45.97532" lon="4.60641">
        <ele>402</ele>
        <time>2016-10-16T10:04:24Z</time>
      </trkpt>
      <trkpt lat="45.97527" lon="4.60652">
        <ele>402</ele>
        <time>2016-10-16T10:04:25Z</time>
      </trkpt>
      <trkpt lat="45.97521" lon="4.60665">
        <ele>402</ele>
        <time>2016-10-16T10:04:26Z</time>
      </trkpt>
      <trkpt lat="45.97516" lon="4.60678">
        <ele>399</ele>
        <time>2016-10-16T10:04:27Z</time>
      </trkpt>
      <trkpt lat="45.9751" lon="4.60688">
        <ele>399</ele>
        <time>2016-10-16T10:04:28Z</time>
      </trkpt>
      <trkpt lat="45.97505" lon="4.60698">
        <ele>398</ele>
        <time>2016-10-16T10:04:29Z</time>
      </trkpt>
      <trkpt lat="45.97501" lon="4.60708">
        <ele>398</ele>
        <time>2016-10-16T10:04:30Z</time>
      </trkpt>
      <trkpt lat="45.97496" lon="4.60717">
        <ele>403</ele>
        <time>2016-10-16T10:04:31Z</time>
      </trkpt>
      <trkpt lat="45.97493" lon="4.60725">
        <ele>402</ele>
        <time>2016-10-16T10:04:32Z</time>
      </trkpt>
      <trkpt lat="45.9749" lon="4.60734">
        <ele>402</ele>
        <time>2016-10-16T10:04:33Z</time>
      </trkpt>
      <trkpt lat="45.97486" lon="4.60743">
        <ele>402</ele>
        <time>2016-10-16T10:04:34Z</time>
      </trkpt>
      <trkpt lat="45.97483" lon="4.60752">
        <ele>402</ele>
        <time>2016-10-16T10:04:35Z</time>
      </trkpt>
      <trkpt lat="45.9748" lon="4.60761">
        <ele>402</ele>
        <time>2016-10-16T10:04:36Z</time>
      </trkpt>
      <trkpt lat="45.97477" lon="4.60771">
        <ele>403</ele>
        <time>2016-10-16T10:04:37Z</time>
      </trkpt>
      <trkpt lat="45.97475" lon="4.60781">
        <ele>403</ele>
        <time>2016-10-16T10:04:38Z</time>
      </trkpt>
      <trkpt lat="45.97473" lon="4.60791">
        <ele>404</ele>
        <time>2016-10-16T10:04:39Z</time>
      </trkpt>
      <trkpt lat="45.97472" lon="4.60801">
        <ele>403</ele>
        <time>2016-10-16T10:04:40Z</time>
      </trkpt>
      <trkpt lat="45.9747" lon="4.60811">
        <ele>403</ele>
        <time>2016-10-16T10:04:41Z</time>
      </trkpt>
      <trkpt lat="45.97469" lon="4.60821">
        <ele>403</ele>
        <time>2016-10-16T10:04:42Z</time>
      </trkpt>
      <trkpt lat="45.97468" lon="4.60831">
        <ele>403</ele>
        <time>2016-10-16T10:04:43Z</time>
      </trkpt>
      <trkpt lat="45.97467" lon="4.6084">
        <ele>402</ele>
        <time>2016-10-16T10:04:44Z</time>
      </trkpt>
      <trkpt lat="45.97465" lon="4.60849">
        <ele>402</ele>
        <time>2016-10-16T10:04:45Z</time>
      </trkpt>
      <trkpt lat="45.97463" lon="4.60857">
        <ele>402</ele>
        <time>2016-10-16T10:04:46Z</time>
      </trkpt>
      <trkpt lat="45.97463" lon="4.60865">
        <ele>402</ele>
        <time>2016-10-16T10:04:47Z</time>
      </trkpt>
      <trkpt lat="45.97462" lon="4.60873">
        <ele>402</ele>
        <time>2016-10-16T10:04:48Z</time>
      </trkpt>
      <trkpt lat="45.97461" lon="4.60881">
        <ele>402</ele>
        <time>2016-10-16T10:04:49Z</time>
      </trkpt>
      <trkpt lat="45.9746" lon="4.60889">
        <ele>402</ele>
        <time>2016-10-16T10:04:50Z</time>
      </trkpt>
      <trkpt lat="45.97458" lon="4.60897">
        <ele>402</ele>
        <time>2016-10-16T10:04:51Z</time>
      </trkpt>
      <trkpt lat="45.97457" lon="4.60905">
        <ele>402</ele>
        <time>2016-10-16T10:04:52Z</time>
      </trkpt>
      <trkpt lat="45.97455" lon="4.60914">
        <ele>402</ele>
        <time>2016-10-16T10:04:53Z</time>
      </trkpt>
      <trkpt lat="45.97454" lon="4.60925">
        <ele>399</ele>
        <time>2016-10-16T10:04:54Z</time>
      </trkpt>
      <trkpt lat="45.97451" lon="4.60933">
        <ele>399</ele>
        <time>2016-10-16T10:04:55Z</time>
      </trkpt>
      <trkpt lat="45.97449" lon="4.60941">
        <ele>399</ele>
        <time>2016-10-16T10:04:56Z</time>
      </trkpt>
      <trkpt lat="45.97447" lon="4.6095">
        <ele>399</ele>
        <time>2016-10-16T10:04:57Z</time>
      </trkpt>
      <trkpt lat="45.97446" lon="4.60959">
        <ele>399</ele>
        <time>2016-10-16T10:04:58Z</time>
      </trkpt>
      <trkpt lat="45.97442" lon="4.60969">
        <ele>399</ele>
        <time>2016-10-16T10:04:59Z</time>
      </trkpt>
      <trkpt lat="45.97439" lon="4.60977">
        <ele>399</ele>
        <time>2016-10-16T10:05:00Z</time>
      </trkpt>
      <trkpt lat="45.97437" lon="4.60985">
        <ele>400</ele>
        <time>2016-10-16T10:05:01Z</time>
      </trkpt>
      <trkpt lat="45.97435" lon="4.60994">
        <ele>401</ele>
        <time>2016-10-16T10:05:02Z</time>
      </trkpt>
      <trkpt lat="45.97432" lon="4.61003">
        <ele>398</ele>
        <time>2016-10-16T10:05:03Z</time>
      </trkpt>
      <trkpt lat="45.9743" lon="4.61013">
        <ele>398</ele>
        <time>2016-10-16T10:05:04Z</time>
      </trkpt>
      <trkpt lat="45.97427" lon="4.61022">
        <ele>396</ele>
        <time>2016-10-16T10:05:05Z</time>
      </trkpt>
      <trkpt lat="45.97425" lon="4.61032">
        <ele>394</ele>
        <time>2016-10-16T10:05:06Z</time>
      </trkpt>
      <trkpt lat="45.97422" lon="4.61041">
        <ele>393</ele>
        <time>2016-10-16T10:05:07Z</time>
      </trkpt>
      <trkpt lat="45.9742" lon="4.61051">
        <ele>393</ele>
        <time>2016-10-16T10:05:08Z</time>
      </trkpt>
      <trkpt lat="45.97417" lon="4.61061">
        <ele>392</ele>
        <time>2016-10-16T10:05:09Z</time>
      </trkpt>
      <trkpt lat="45.97414" lon="4.6107">
        <ele>400</ele>
        <time>2016-10-16T10:05:10Z</time>
      </trkpt>
      <trkpt lat="45.97412" lon="4.61081">
        <ele>397</ele>
        <time>2016-10-16T10:05:11Z</time>
      </trkpt>
      <trkpt lat="45.97409" lon="4.61091">
        <ele>395</ele>
        <time>2016-10-16T10:05:12Z</time>
      </trkpt>
      <trkpt lat="45.97407" lon="4.61101">
        <ele>397</ele>
        <time>2016-10-16T10:05:13Z</time>
      </trkpt>
      <trkpt lat="45.97405" lon="4.61112">
        <ele>397</ele>
        <time>2016-10-16T10:05:14Z</time>
      </trkpt>
      <trkpt lat="45.97402" lon="4.61122">
        <ele>397</ele>
        <time>2016-10-16T10:05:15Z</time>
      </trkpt>
      <trkpt lat="45.974" lon="4.61133">
        <ele>397</ele>
        <time>2016-10-16T10:05:16Z</time>
      </trkpt>
      <trkpt lat="45.97398" lon="4.61144">
        <ele>396</ele>
        <time>2016-10-16T10:05:17Z</time>
      </trkpt>
      <trkpt lat="45.97396" lon="4.61154">
        <ele>395</ele>
        <time>2016-10-16T10:05:18Z</time>
      </trkpt>
      <trkpt lat="45.97394" lon="4.61165">
        <ele>395</ele>
        <time>2016-10-16T10:05:19Z</time>
      </trkpt>
      <trkpt lat="45.97393" lon="4.61176">
        <ele>394</ele>
        <time>2016-10-16T10:05:20Z</time>
      </trkpt>
      <trkpt lat="45.97393" lon="4.61186">
        <ele>394</ele>
        <time>2016-10-16T10:05:21Z</time>
      </trkpt>
      <trkpt lat="45.97393" lon="4.61197">
        <ele>395</ele>
        <time>2016-10-16T10:05:22Z</time>
      </trkpt>
      <trkpt lat="45.97393" lon="4.61206">
        <ele>395</ele>
        <time>2016-10-16T10:05:23Z</time>
      </trkpt>
      <trkpt lat="45.97393" lon="4.61216">
        <ele>395</ele>
        <time>2016-10-16T10:05:24Z</time>
      </trkpt>
      <trkpt lat="45.97393" lon="4.61225">
        <ele>395</ele>
        <time>2016-10-16T10:05:25Z</time>
      </trkpt>
      <trkpt lat="45.97394" lon="4.61235">
        <ele>395</ele>
        <time>2016-10-16T10:05:26Z</time>
      </trkpt>
      <trkpt lat="45.97396" lon="4.61244">
        <ele>395</ele>
        <time>2016-10-16T10:05:27Z</time>
      </trkpt>
      <trkpt lat="45.97397" lon="4.61254">
        <ele>396</ele>
        <time>2016-10-16T10:05:28Z</time>
      </trkpt>
      <trkpt lat="45.974" lon="4.61263">
        <ele>396</ele>
        <time>2016-10-16T10:05:29Z</time>
      </trkpt>
      <trkpt lat="45.97402" lon="4.61273">
        <ele>396</ele>
        <time>2016-10-16T10:05:30Z</time>
      </trkpt>
      <trkpt lat="45.97405" lon="4.61282">
        <ele>397</ele>
        <time>2016-10-16T10:05:31Z</time>
      </trkpt>
      <trkpt lat="45.97407" lon="4.61291">
        <ele>397</ele>
        <time>2016-10-16T10:05:32Z</time>
      </trkpt>
      <trkpt lat="45.97409" lon="4.613">
        <ele>398</ele>
        <time>2016-10-16T10:05:33Z</time>
      </trkpt>
      <trkpt lat="45.97411" lon="4.61308">
        <ele>398</ele>
        <time>2016-10-16T10:05:34Z</time>
      </trkpt>
      <trkpt lat="45.97412" lon="4.61316">
        <ele>397</ele>
        <time>2016-10-16T10:05:35Z</time>
      </trkpt>
      <trkpt lat="45.97414" lon="4.61324">
        <ele>397</ele>
        <time>2016-10-16T10:05:36Z</time>
      </trkpt>
      <trkpt lat="45.97417" lon="4.61332">
        <ele>396</ele>
        <time>2016-10-16T10:05:37Z</time>
      </trkpt>
      <trkpt lat="45.97419" lon="4.6134">
        <ele>395</ele>
        <time>2016-10-16T10:05:38Z</time>
      </trkpt>
      <trkpt lat="45.97421" lon="4.61348">
        <ele>394</ele>
        <time>2016-10-16T10:05:39Z</time>
      </trkpt>
      <trkpt lat="45.97423" lon="4.61357">
        <ele>394</ele>
        <time>2016-10-16T10:05:40Z</time>
      </trkpt>
      <trkpt lat="45.97425" lon="4.61365">
        <ele>394</ele>
        <time>2016-10-16T10:05:41Z</time>
      </trkpt>
      <trkpt lat="45.97427" lon="4.61373">
        <ele>394</ele>
        <time>2016-10-16T10:05:42Z</time>
      </trkpt>
      <trkpt lat="45.97429" lon="4.6138">
        <ele>394</ele>
        <time>2016-10-16T10:05:43Z</time>
      </trkpt>
      <trkpt lat="45.97431" lon="4.61388">
        <ele>394</ele>
        <time>2016-10-16T10:05:44Z</time>
      </trkpt>
      <trkpt lat="45.97433" lon="4.61397">
        <ele>395</ele>
        <time>2016-10-16T10:05:45Z</time>
      </trkpt>
      <trkpt lat="45.97434" lon="4.61405">
        <ele>395</ele>
        <time>2016-10-16T10:05:46Z</time>
      </trkpt>
      <trkpt lat="45.97436" lon="4.61414">
        <ele>395</ele>
        <time>2016-10-16T10:05:47Z</time>
      </trkpt>
      <trkpt lat="45.97438" lon="4.61422">
        <ele>396</ele>
        <time>2016-10-16T10:05:48Z</time>
      </trkpt>
      <trkpt lat="45.97439" lon="4.61431">
        <ele>396</ele>
        <time>2016-10-16T10:05:49Z</time>
      </trkpt>
      <trkpt lat="45.97441" lon="4.61439">
        <ele>396</ele>
        <time>2016-10-16T10:05:50Z</time>
      </trkpt>
      <trkpt lat="45.97442" lon="4.61447">
        <ele>395</ele>
        <time>2016-10-16T10:05:51Z</time>
      </trkpt>
      <trkpt lat="45.97444" lon="4.61454">
        <ele>395</ele>
        <time>2016-10-16T10:05:52Z</time>
      </trkpt>
      <trkpt lat="45.97445" lon="4.61462">
        <ele>395</ele>
        <time>2016-10-16T10:05:53Z</time>
      </trkpt>
      <trkpt lat="45.97447" lon="4.61469">
        <ele>395</ele>
        <time>2016-10-16T10:05:54Z</time>
      </trkpt>
      <trkpt lat="45.97448" lon="4.61477">
        <ele>395</ele>
        <time>2016-10-16T10:05:55Z</time>
      </trkpt>
      <trkpt lat="45.97448" lon="4.61485">
        <ele>396</ele>
        <time>2016-10-16T10:05:56Z</time>
      </trkpt>
      <trkpt lat="45.9745" lon="4.61492">
        <ele>396</ele>
        <time>2016-10-16T10:05:57Z</time>
      </trkpt>
      <trkpt lat="45.97451" lon="4.61499">
        <ele>395</ele>
        <time>2016-10-16T10:05:58Z</time>
      </trkpt>
      <trkpt lat="45.97452" lon="4.61507">
        <ele>396</ele>
        <time>2016-10-16T10:05:59Z</time>
      </trkpt>
      <trkpt lat="45.97453" lon="4.61515">
        <ele>396</ele>
        <time>2016-10-16T10:06:00Z</time>
      </trkpt>
      <trkpt lat="45.97454" lon="4.61524">
        <ele>396</ele>
        <time>2016-10-16T10:06:01Z</time>
      </trkpt>
      <trkpt lat="45.97455" lon="4.61532">
        <ele>396</ele>
        <time>2016-10-16T10:06:02Z</time>
      </trkpt>
      <trkpt lat="45.97456" lon="4.6154">
        <ele>396</ele>
        <time>2016-10-16T10:06:03Z</time>
      </trkpt>
      <trkpt lat="45.97457" lon="4.61548">
        <ele>396</ele>
        <time>2016-10-16T10:06:04Z</time>
      </trkpt>
      <trkpt lat="45.97458" lon="4.61557">
        <ele>396</ele>
        <time>2016-10-16T10:06:05Z</time>
      </trkpt>
      <trkpt lat="45.97459" lon="4.61565">
        <ele>395</ele>
        <time>2016-10-16T10:06:06Z</time>
      </trkpt>
      <trkpt lat="45.9746" lon="4.61574">
        <ele>395</ele>
        <time>2016-10-16T10:06:07Z</time>
      </trkpt>
      <trkpt lat="45.9746" lon="4.61582">
        <ele>395</ele>
        <time>2016-10-16T10:06:08Z</time>
      </trkpt>
      <trkpt lat="45.97461" lon="4.61589">
        <ele>394</ele>
        <time>2016-10-16T10:06:09Z</time>
      </trkpt>
      <trkpt lat="45.97461" lon="4.61597">
        <ele>394</ele>
        <time>2016-10-16T10:06:10Z</time>
      </trkpt>
      <trkpt lat="45.97461" lon="4.61606">
        <ele>394</ele>
        <time>2016-10-16T10:06:11Z</time>
      </trkpt>
      <trkpt lat="45.97462" lon="4.61614">
        <ele>394</ele>
        <time>2016-10-16T10:06:12Z</time>
      </trkpt>
      <trkpt lat="45.97462" lon="4.61622">
        <ele>394</ele>
        <time>2016-10-16T10:06:13Z</time>
      </trkpt>
      <trkpt lat="45.97462" lon="4.6163">
        <ele>393</ele>
        <time>2016-10-16T10:06:14Z</time>
      </trkpt>
      <trkpt lat="45.97462" lon="4.61639">
        <ele>393</ele>
        <time>2016-10-16T10:06:15Z</time>
      </trkpt>
      <trkpt lat="45.97462" lon="4.61648">
        <ele>393</ele>
        <time>2016-10-16T10:06:16Z</time>
      </trkpt>
      <trkpt lat="45.97461" lon="4.61657">
        <ele>393</ele>
        <time>2016-10-16T10:06:17Z</time>
      </trkpt>
      <trkpt lat="45.9746" lon="4.61667">
        <ele>391</ele>
        <time>2016-10-16T10:06:18Z</time>
      </trkpt>
      <trkpt lat="45.9746" lon="4.61677">
        <ele>391</ele>
        <time>2016-10-16T10:06:19Z</time>
      </trkpt>
      <trkpt lat="45.97459" lon="4.61687">
        <ele>390</ele>
        <time>2016-10-16T10:06:20Z</time>
      </trkpt>
      <trkpt lat="45.97458" lon="4.61697">
        <ele>390</ele>
        <time>2016-10-16T10:06:21Z</time>
      </trkpt>
      <trkpt lat="45.97457" lon="4.61707">
        <ele>390</ele>
        <time>2016-10-16T10:06:22Z</time>
      </trkpt>
      <trkpt lat="45.97455" lon="4.61718">
        <ele>390</ele>
        <time>2016-10-16T10:06:23Z</time>
      </trkpt>
      <trkpt lat="45.97454" lon="4.61728">
        <ele>390</ele>
        <time>2016-10-16T10:06:24Z</time>
      </trkpt>
      <trkpt lat="45.97452" lon="4.61739">
        <ele>390</ele>
        <time>2016-10-16T10:06:25Z</time>
      </trkpt>
      <trkpt lat="45.97449" lon="4.61749">
        <ele>390</ele>
        <time>2016-10-16T10:06:26Z</time>
      </trkpt>
      <trkpt lat="45.97447" lon="4.6176">
        <ele>388</ele>
        <time>2016-10-16T10:06:27Z</time>
      </trkpt>
      <trkpt lat="45.97444" lon="4.61771">
        <ele>388</ele>
        <time>2016-10-16T10:06:28Z</time>
      </trkpt>
      <trkpt lat="45.97441" lon="4.61781">
        <ele>387</ele>
        <time>2016-10-16T10:06:29Z</time>
      </trkpt>
      <trkpt lat="45.97437" lon="4.61792">
        <ele>387</ele>
        <time>2016-10-16T10:06:30Z</time>
      </trkpt>
      <trkpt lat="45.97434" lon="4.61803">
        <ele>387</ele>
        <time>2016-10-16T10:06:31Z</time>
      </trkpt>
      <trkpt lat="45.97431" lon="4.61815">
        <ele>387</ele>
        <time>2016-10-16T10:06:32Z</time>
      </trkpt>
      <trkpt lat="45.9743" lon="4.61827">
        <ele>387</ele>
        <time>2016-10-16T10:06:33Z</time>
      </trkpt>
      <trkpt lat="45.97429" lon="4.61839">
        <ele>385</ele>
        <time>2016-10-16T10:06:34Z</time>
      </trkpt>
      <trkpt lat="45.97429" lon="4.61852">
        <ele>385</ele>
        <time>2016-10-16T10:06:35Z</time>
      </trkpt>
      <trkpt lat="45.97429" lon="4.61864">
        <ele>384</ele>
        <time>2016-10-16T10:06:36Z</time>
      </trkpt>
      <trkpt lat="45.9743" lon="4.61877">
        <ele>384</ele>
        <time>2016-10-16T10:06:37Z</time>
      </trkpt>
      <trkpt lat="45.97431" lon="4.6189">
        <ele>383</ele>
        <time>2016-10-16T10:06:38Z</time>
      </trkpt>
      <trkpt lat="45.97432" lon="4.61903">
        <ele>383</ele>
        <time>2016-10-16T10:06:39Z</time>
      </trkpt>
      <trkpt lat="45.97432" lon="4.61916">
        <ele>383</ele>
        <time>2016-10-16T10:06:40Z</time>
      </trkpt>
      <trkpt lat="45.97433" lon="4.6193">
        <ele>382</ele>
        <time>2016-10-16T10:06:41Z</time>
      </trkpt>
      <trkpt lat="45.97433" lon="4.61943">
        <ele>381</ele>
        <time>2016-10-16T10:06:42Z</time>
      </trkpt>
      <trkpt lat="45.97434" lon="4.61957">
        <ele>381</ele>
        <time>2016-10-16T10:06:43Z</time>
      </trkpt>
      <trkpt lat="45.97435" lon="4.6197">
        <ele>380</ele>
        <time>2016-10-16T10:06:44Z</time>
      </trkpt>
      <trkpt lat="45.97436" lon="4.61984">
        <ele>380</ele>
        <time>2016-10-16T10:06:45Z</time>
      </trkpt>
      <trkpt lat="45.97437" lon="4.61998">
        <ele>380</ele>
        <time>2016-10-16T10:06:46Z</time>
      </trkpt>
      <trkpt lat="45.97437" lon="4.62011">
        <ele>379</ele>
        <time>2016-10-16T10:06:47Z</time>
      </trkpt>
      <trkpt lat="45.97438" lon="4.62025">
        <ele>379</ele>
        <time>2016-10-16T10:06:48Z</time>
      </trkpt>
      <trkpt lat="45.97438" lon="4.62039">
        <ele>379</ele>
        <time>2016-10-16T10:06:49Z</time>
      </trkpt>
      <trkpt lat="45.97439" lon="4.62053">
        <ele>379</ele>
        <time>2016-10-16T10:06:50Z</time>
      </trkpt>
      <trkpt lat="45.97439" lon="4.62067">
        <ele>379</ele>
        <time>2016-10-16T10:06:51Z</time>
      </trkpt>
      <trkpt lat="45.97439" lon="4.62081">
        <ele>379</ele>
        <time>2016-10-16T10:06:52Z</time>
      </trkpt>
      <trkpt lat="45.97438" lon="4.62096">
        <ele>377</ele>
        <time>2016-10-16T10:06:53Z</time>
      </trkpt>
      <trkpt lat="45.97438" lon="4.6211">
        <ele>377</ele>
        <time>2016-10-16T10:06:54Z</time>
      </trkpt>
      <trkpt lat="45.97437" lon="4.62124">
        <ele>376</ele>
        <time>2016-10-16T10:06:55Z</time>
      </trkpt>
      <trkpt lat="45.97436" lon="4.62138">
        <ele>376</ele>
        <time>2016-10-16T10:06:56Z</time>
      </trkpt>
      <trkpt lat="45.97434" lon="4.62152">
        <ele>375</ele>
        <time>2016-10-16T10:06:57Z</time>
      </trkpt>
      <trkpt lat="45.97433" lon="4.62167">
        <ele>375</ele>
        <time>2016-10-16T10:06:58Z</time>
      </trkpt>
      <trkpt lat="45.97432" lon="4.62181">
        <ele>372</ele>
        <time>2016-10-16T10:06:59Z</time>
      </trkpt>
      <trkpt lat="45.97431" lon="4.62196">
        <ele>371</ele>
        <time>2016-10-16T10:07:00Z</time>
      </trkpt>
      <trkpt lat="45.9743" lon="4.6221">
        <ele>371</ele>
        <time>2016-10-16T10:07:01Z</time>
      </trkpt>
      <trkpt lat="45.97429" lon="4.62225">
        <ele>370</ele>
        <time>2016-10-16T10:07:02Z</time>
      </trkpt>
      <trkpt lat="45.97428" lon="4.6224">
        <ele>370</ele>
        <time>2016-10-16T10:07:03Z</time>
      </trkpt>
      <trkpt lat="45.97427" lon="4.62255">
        <ele>369</ele>
        <time>2016-10-16T10:07:04Z</time>
      </trkpt>
      <trkpt lat="45.97426" lon="4.62269">
        <ele>368</ele>
        <time>2016-10-16T10:07:05Z</time>
      </trkpt>
      <trkpt lat="45.97425" lon="4.62284">
        <ele>367</ele>
        <time>2016-10-16T10:07:06Z</time>
      </trkpt>
      <trkpt lat="45.97424" lon="4.62299">
        <ele>367</ele>
        <time>2016-10-16T10:07:07Z</time>
      </trkpt>
      <trkpt lat="45.97423" lon="4.62314">
        <ele>367</ele>
        <time>2016-10-16T10:07:08Z</time>
      </trkpt>
      <trkpt lat="45.97422" lon="4.6233">
        <ele>367</ele>
        <time>2016-10-16T10:07:09Z</time>
      </trkpt>
      <trkpt lat="45.9742" lon="4.62345">
        <ele>365</ele>
        <time>2016-10-16T10:07:10Z</time>
      </trkpt>
      <trkpt lat="45.97419" lon="4.62361">
        <ele>364</ele>
        <time>2016-10-16T10:07:11Z</time>
      </trkpt>
      <trkpt lat="45.97416" lon="4.62376">
        <ele>368</ele>
        <time>2016-10-16T10:07:12Z</time>
      </trkpt>
      <trkpt lat="45.97414" lon="4.62392">
        <ele>367</ele>
        <time>2016-10-16T10:07:13Z</time>
      </trkpt>
      <trkpt lat="45.97412" lon="4.62407">
        <ele>365</ele>
        <time>2016-10-16T10:07:14Z</time>
      </trkpt>
      <trkpt lat="45.9741" lon="4.62423">
        <ele>364</ele>
        <time>2016-10-16T10:07:15Z</time>
      </trkpt>
      <trkpt lat="45.97407" lon="4.62438">
        <ele>364</ele>
        <time>2016-10-16T10:07:16Z</time>
      </trkpt>
      <trkpt lat="45.97404" lon="4.62453">
        <ele>364</ele>
        <time>2016-10-16T10:07:17Z</time>
      </trkpt>
      <trkpt lat="45.97401" lon="4.62468">
        <ele>364</ele>
        <time>2016-10-16T10:07:18Z</time>
      </trkpt>
      <trkpt lat="45.97399" lon="4.62483">
        <ele>363</ele>
        <time>2016-10-16T10:07:19Z</time>
      </trkpt>
      <trkpt lat="45.97396" lon="4.62498">
        <ele>363</ele>
        <time>2016-10-16T10:07:20Z</time>
      </trkpt>
      <trkpt lat="45.97394" lon="4.62513">
        <ele>361</ele>
        <time>2016-10-16T10:07:21Z</time>
      </trkpt>
      <trkpt lat="45.97393" lon="4.62529">
        <ele>361</ele>
        <time>2016-10-16T10:07:22Z</time>
      </trkpt>
      <trkpt lat="45.97392" lon="4.62544">
        <ele>360</ele>
        <time>2016-10-16T10:07:23Z</time>
      </trkpt>
      <trkpt lat="45.97392" lon="4.6256">
        <ele>360</ele>
        <time>2016-10-16T10:07:24Z</time>
      </trkpt>
      <trkpt lat="45.97393" lon="4.62576">
        <ele>359</ele>
        <time>2016-10-16T10:07:25Z</time>
      </trkpt>
      <trkpt lat="45.97394" lon="4.62592">
        <ele>357</ele>
        <time>2016-10-16T10:07:26Z</time>
      </trkpt>
      <trkpt lat="45.97396" lon="4.62608">
        <ele>357</ele>
        <time>2016-10-16T10:07:27Z</time>
      </trkpt>
      <trkpt lat="45.97399" lon="4.62623">
        <ele>357</ele>
        <time>2016-10-16T10:07:28Z</time>
      </trkpt>
      <trkpt lat="45.97402" lon="4.62639">
        <ele>356</ele>
        <time>2016-10-16T10:07:29Z</time>
      </trkpt>
      <trkpt lat="45.97405" lon="4.62654">
        <ele>355</ele>
        <time>2016-10-16T10:07:30Z</time>
      </trkpt>
      <trkpt lat="45.97409" lon="4.62669">
        <ele>353</ele>
        <time>2016-10-16T10:07:31Z</time>
      </trkpt>
      <trkpt lat="45.97412" lon="4.62684">
        <ele>354</ele>
        <time>2016-10-16T10:07:32Z</time>
      </trkpt>
      <trkpt lat="45.97415" lon="4.627">
        <ele>354</ele>
        <time>2016-10-16T10:07:33Z</time>
      </trkpt>
      <trkpt lat="45.97418" lon="4.62716">
        <ele>350</ele>
        <time>2016-10-16T10:07:34Z</time>
      </trkpt>
      <trkpt lat="45.97421" lon="4.62731">
        <ele>350</ele>
        <time>2016-10-16T10:07:35Z</time>
      </trkpt>
      <trkpt lat="45.97425" lon="4.62747">
        <ele>351</ele>
        <time>2016-10-16T10:07:36Z</time>
      </trkpt>
      <trkpt lat="45.97428" lon="4.62763">
        <ele>349</ele>
        <time>2016-10-16T10:07:37Z</time>
      </trkpt>
      <trkpt lat="45.97431" lon="4.62779">
        <ele>348</ele>
        <time>2016-10-16T10:07:38Z</time>
      </trkpt>
      <trkpt lat="45.97435" lon="4.62795">
        <ele>348</ele>
        <time>2016-10-16T10:07:39Z</time>
      </trkpt>
      <trkpt lat="45.97438" lon="4.6281">
        <ele>347</ele>
        <time>2016-10-16T10:07:40Z</time>
      </trkpt>
      <trkpt lat="45.97441" lon="4.62826">
        <ele>347</ele>
        <time>2016-10-16T10:07:41Z</time>
      </trkpt>
      <trkpt lat="45.97444" lon="4.62842">
        <ele>346</ele>
        <time>2016-10-16T10:07:42Z</time>
      </trkpt>
      <trkpt lat="45.97447" lon="4.62858">
        <ele>346</ele>
        <time>2016-10-16T10:07:43Z</time>
      </trkpt>
      <trkpt lat="45.9745" lon="4.62873">
        <ele>346</ele>
        <time>2016-10-16T10:07:44Z</time>
      </trkpt>
      <trkpt lat="45.97452" lon="4.62888">
        <ele>346</ele>
        <time>2016-10-16T10:07:45Z</time>
      </trkpt>
      <trkpt lat="45.97455" lon="4.62903">
        <ele>345</ele>
        <time>2016-10-16T10:07:46Z</time>
      </trkpt>
      <trkpt lat="45.97458" lon="4.62918">
        <ele>345</ele>
        <time>2016-10-16T10:07:47Z</time>
      </trkpt>
      <trkpt lat="45.97461" lon="4.62933">
        <ele>345</ele>
        <time>2016-10-16T10:07:48Z</time>
      </trkpt>
      <trkpt lat="45.97465" lon="4.62948">
        <ele>345</ele>
        <time>2016-10-16T10:07:49Z</time>
      </trkpt>
      <trkpt lat="45.97468" lon="4.62962">
        <ele>345</ele>
        <time>2016-10-16T10:07:50Z</time>
      </trkpt>
      <trkpt lat="45.97471" lon="4.62977">
        <ele>345</ele>
        <time>2016-10-16T10:07:51Z</time>
      </trkpt>
      <trkpt lat="45.97474" lon="4.62992">
        <ele>345</ele>
        <time>2016-10-16T10:07:52Z</time>
      </trkpt>
      <trkpt lat="45.97478" lon="4.63006">
        <ele>345</ele>
        <time>2016-10-16T10:07:53Z</time>
      </trkpt>
      <trkpt lat="45.97481" lon="4.63021">
        <ele>345</ele>
        <time>2016-10-16T10:07:54Z</time>
      </trkpt>
      <trkpt lat="45.97484" lon="4.63035">
        <ele>344</ele>
        <time>2016-10-16T10:07:55Z</time>
      </trkpt>
      <trkpt lat="45.97488" lon="4.63048">
        <ele>344</ele>
        <time>2016-10-16T10:07:56Z</time>
      </trkpt>
      <trkpt lat="45.9749" lon="4.63063">
        <ele>343</ele>
        <time>2016-10-16T10:07:57Z</time>
      </trkpt>
      <trkpt lat="45.97492" lon="4.63077">
        <ele>342</ele>
        <time>2016-10-16T10:07:58Z</time>
      </trkpt>
      <trkpt lat="45.97494" lon="4.63091">
        <ele>341</ele>
        <time>2016-10-16T10:07:59Z</time>
      </trkpt>
      <trkpt lat="45.97495" lon="4.63105">
        <ele>342</ele>
        <time>2016-10-16T10:08:00Z</time>
      </trkpt>
      <trkpt lat="45.97496" lon="4.63119">
        <ele>342</ele>
        <time>2016-10-16T10:08:01Z</time>
      </trkpt>
      <trkpt lat="45.97498" lon="4.63133">
        <ele>342</ele>
        <time>2016-10-16T10:08:02Z</time>
      </trkpt>
      <trkpt lat="45.975" lon="4.63147">
        <ele>341</ele>
        <time>2016-10-16T10:08:03Z</time>
      </trkpt>
      <trkpt lat="45.97502" lon="4.6316">
        <ele>338</ele>
        <time>2016-10-16T10:08:04Z</time>
      </trkpt>
      <trkpt lat="45.97503" lon="4.63174">
        <ele>338</ele>
        <time>2016-10-16T10:08:05Z</time>
      </trkpt>
      <trkpt lat="45.97504" lon="4.63188">
        <ele>337</ele>
        <time>2016-10-16T10:08:06Z</time>
      </trkpt>
      <trkpt lat="45.97505" lon="4.63201">
        <ele>336</ele>
        <time>2016-10-16T10:08:07Z</time>
      </trkpt>
      <trkpt lat="45.97506" lon="4.63215">
        <ele>336</ele>
        <time>2016-10-16T10:08:08Z</time>
      </trkpt>
      <trkpt lat="45.97508" lon="4.63228">
        <ele>337</ele>
        <time>2016-10-16T10:08:09Z</time>
      </trkpt>
      <trkpt lat="45.97509" lon="4.63241">
        <ele>337</ele>
        <time>2016-10-16T10:08:10Z</time>
      </trkpt>
      <trkpt lat="45.9751" lon="4.63254">
        <ele>337</ele>
        <time>2016-10-16T10:08:11Z</time>
      </trkpt>
      <trkpt lat="45.97512" lon="4.63268">
        <ele>336</ele>
        <time>2016-10-16T10:08:12Z</time>
      </trkpt>
      <trkpt lat="45.97513" lon="4.63282">
        <ele>335</ele>
        <time>2016-10-16T10:08:13Z</time>
      </trkpt>
      <trkpt lat="45.97515" lon="4.63296">
        <ele>335</ele>
        <time>2016-10-16T10:08:14Z</time>
      </trkpt>
      <trkpt lat="45.97516" lon="4.6331">
        <ele>335</ele>
        <time>2016-10-16T10:08:15Z</time>
      </trkpt>
      <trkpt lat="45.97518" lon="4.63323">
        <ele>335</ele>
        <time>2016-10-16T10:08:16Z</time>
      </trkpt>
      <trkpt lat="45.97519" lon="4.63337">
        <ele>335</ele>
        <time>2016-10-16T10:08:17Z</time>
      </trkpt>
      <trkpt lat="45.97521" lon="4.6335">
        <ele>334</ele>
        <time>2016-10-16T10:08:18Z</time>
      </trkpt>
      <trkpt lat="45.97522" lon="4.63364">
        <ele>334</ele>
        <time>2016-10-16T10:08:19Z</time>
      </trkpt>
      <trkpt lat="45.97524" lon="4.63378">
        <ele>333</ele>
        <time>2016-10-16T10:08:20Z</time>
      </trkpt>
      <trkpt lat="45.97525" lon="4.63391">
        <ele>333</ele>
        <time>2016-10-16T10:08:21Z</time>
      </trkpt>
      <trkpt lat="45.97527" lon="4.63405">
        <ele>333</ele>
        <time>2016-10-16T10:08:22Z</time>
      </trkpt>
      <trkpt lat="45.97528" lon="4.63419">
        <ele>332</ele>
        <time>2016-10-16T10:08:23Z</time>
      </trkpt>
      <trkpt lat="45.9753" lon="4.63433">
        <ele>332</ele>
        <time>2016-10-16T10:08:24Z</time>
      </trkpt>
      <trkpt lat="45.97532" lon="4.63447">
        <ele>331</ele>
        <time>2016-10-16T10:08:25Z</time>
      </trkpt>
      <trkpt lat="45.97533" lon="4.63461">
        <ele>331</ele>
        <time>2016-10-16T10:08:26Z</time>
      </trkpt>
      <trkpt lat="45.97535" lon="4.63475">
        <ele>331</ele>
        <time>2016-10-16T10:08:27Z</time>
      </trkpt>
      <trkpt lat="45.97536" lon="4.6349">
        <ele>331</ele>
        <time>2016-10-16T10:08:28Z</time>
      </trkpt>
      <trkpt lat="45.97538" lon="4.63505">
        <ele>330</ele>
        <time>2016-10-16T10:08:29Z</time>
      </trkpt>
      <trkpt lat="45.9754" lon="4.6352">
        <ele>329</ele>
        <time>2016-10-16T10:08:30Z</time>
      </trkpt>
      <trkpt lat="45.97541" lon="4.63535">
        <ele>329</ele>
        <time>2016-10-16T10:08:31Z</time>
      </trkpt>
      <trkpt lat="45.97542" lon="4.63549">
        <ele>329</ele>
        <time>2016-10-16T10:08:32Z</time>
      </trkpt>
      <trkpt lat="45.97544" lon="4.63564">
        <ele>329</ele>
        <time>2016-10-16T10:08:33Z</time>
      </trkpt>
      <trkpt lat="45.97545" lon="4.63579">
        <ele>329</ele>
        <time>2016-10-16T10:08:34Z</time>
      </trkpt>
      <trkpt lat="45.97547" lon="4.63594">
        <ele>327</ele>
        <time>2016-10-16T10:08:35Z</time>
      </trkpt>
      <trkpt lat="45.97548" lon="4.63608">
        <ele>327</ele>
        <time>2016-10-16T10:08:36Z</time>
      </trkpt>
      <trkpt lat="45.9755" lon="4.63623">
        <ele>327</ele>
        <time>2016-10-16T10:08:37Z</time>
      </trkpt>
      <trkpt lat="45.97552" lon="4.63637">
        <ele>327</ele>
        <time>2016-10-16T10:08:38Z</time>
      </trkpt>
      <trkpt lat="45.97553" lon="4.63652">
        <ele>327</ele>
        <time>2016-10-16T10:08:39Z</time>
      </trkpt>
      <trkpt lat="45.97555" lon="4.63666">
        <ele>326</ele>
        <time>2016-10-16T10:08:40Z</time>
      </trkpt>
      <trkpt lat="45.97557" lon="4.63681">
        <ele>325</ele>
        <time>2016-10-16T10:08:41Z</time>
      </trkpt>
      <trkpt lat="45.97559" lon="4.63695">
        <ele>325</ele>
        <time>2016-10-16T10:08:42Z</time>
      </trkpt>
      <trkpt lat="45.97561" lon="4.6371">
        <ele>325</ele>
        <time>2016-10-16T10:08:43Z</time>
      </trkpt>
      <trkpt lat="45.97563" lon="4.63724">
        <ele>324</ele>
        <time>2016-10-16T10:08:44Z</time>
      </trkpt>
      <trkpt lat="45.97565" lon="4.63739">
        <ele>324</ele>
        <time>2016-10-16T10:08:45Z</time>
      </trkpt>
      <trkpt lat="45.97567" lon="4.63754">
        <ele>322</ele>
        <time>2016-10-16T10:08:46Z</time>
      </trkpt>
      <trkpt lat="45.97569" lon="4.63769">
        <ele>322</ele>
        <time>2016-10-16T10:08:47Z</time>
      </trkpt>
      <trkpt lat="45.97571" lon="4.63784">
        <ele>322</ele>
        <time>2016-10-16T10:08:48Z</time>
      </trkpt>
      <trkpt lat="45.97572" lon="4.63799">
        <ele>321</ele>
        <time>2016-10-16T10:08:49Z</time>
      </trkpt>
      <trkpt lat="45.97574" lon="4.63814">
        <ele>321</ele>
        <time>2016-10-16T10:08:50Z</time>
      </trkpt>
      <trkpt lat="45.97576" lon="4.63829">
        <ele>319</ele>
        <time>2016-10-16T10:08:51Z</time>
      </trkpt>
      <trkpt lat="45.97578" lon="4.63845">
        <ele>318</ele>
        <time>2016-10-16T10:08:52Z</time>
      </trkpt>
      <trkpt lat="45.97579" lon="4.6386">
        <ele>318</ele>
        <time>2016-10-16T10:08:53Z</time>
      </trkpt>
      <trkpt lat="45.97581" lon="4.63875">
        <ele>318</ele>
        <time>2016-10-16T10:08:54Z</time>
      </trkpt>
      <trkpt lat="45.97582" lon="4.6389">
        <ele>318</ele>
        <time>2016-10-16T10:08:55Z</time>
      </trkpt>
      <trkpt lat="45.97584" lon="4.63905">
        <ele>315</ele>
        <time>2016-10-16T10:08:56Z</time>
      </trkpt>
      <trkpt lat="45.97585" lon="4.6392">
        <ele>315</ele>
        <time>2016-10-16T10:08:57Z</time>
      </trkpt>
      <trkpt lat="45.97587" lon="4.63935">
        <ele>313</ele>
        <time>2016-10-16T10:08:58Z</time>
      </trkpt>
      <trkpt lat="45.97589" lon="4.6395">
        <ele>313</ele>
        <time>2016-10-16T10:08:59Z</time>
      </trkpt>
      <trkpt lat="45.9759" lon="4.63964">
        <ele>312</ele>
        <time>2016-10-16T10:09:00Z</time>
      </trkpt>
      <trkpt lat="45.97592" lon="4.63979">
        <ele>312</ele>
        <time>2016-10-16T10:09:01Z</time>
      </trkpt>
      <trkpt lat="45.97594" lon="4.63995">
        <ele>312</ele>
        <time>2016-10-16T10:09:02Z</time>
      </trkpt>
      <trkpt lat="45.97595" lon="4.64011">
        <ele>311</ele>
        <time>2016-10-16T10:09:03Z</time>
      </trkpt>
      <trkpt lat="45.97597" lon="4.64026">
        <ele>310</ele>
        <time>2016-10-16T10:09:04Z</time>
      </trkpt>
      <trkpt lat="45.97598" lon="4.64042">
        <ele>310</ele>
        <time>2016-10-16T10:09:05Z</time>
      </trkpt>
      <trkpt lat="45.976" lon="4.64057">
        <ele>310</ele>
        <time>2016-10-16T10:09:06Z</time>
      </trkpt>
      <trkpt lat="45.97602" lon="4.64072">
        <ele>310</ele>
        <time>2016-10-16T10:09:07Z</time>
      </trkpt>
      <trkpt lat="45.97604" lon="4.64086">
        <ele>309</ele>
        <time>2016-10-16T10:09:08Z</time>
      </trkpt>
      <trkpt lat="45.97605" lon="4.64101">
        <ele>308</ele>
        <time>2016-10-16T10:09:09Z</time>
      </trkpt>
      <trkpt lat="45.97607" lon="4.64115">
        <ele>308</ele>
        <time>2016-10-16T10:09:10Z</time>
      </trkpt>
      <trkpt lat="45.97608" lon="4.64129">
        <ele>307</ele>
        <time>2016-10-16T10:09:11Z</time>
      </trkpt>
      <trkpt lat="45.9761" lon="4.64142">
        <ele>307</ele>
        <time>2016-10-16T10:09:12Z</time>
      </trkpt>
      <trkpt lat="45.97611" lon="4.64156">
        <ele>307</ele>
        <time>2016-10-16T10:09:13Z</time>
      </trkpt>
      <trkpt lat="45.97612" lon="4.6417">
        <ele>306</ele>
        <time>2016-10-16T10:09:14Z</time>
      </trkpt>
      <trkpt lat="45.97614" lon="4.64184">
        <ele>306</ele>
        <time>2016-10-16T10:09:15Z</time>
      </trkpt>
      <trkpt lat="45.97616" lon="4.64198">
        <ele>306</ele>
        <time>2016-10-16T10:09:16Z</time>
      </trkpt>
      <trkpt lat="45.97618" lon="4.64211">
        <ele>306</ele>
        <time>2016-10-16T10:09:17Z</time>
      </trkpt>
      <trkpt lat="45.97619" lon="4.64224">
        <ele>306</ele>
        <time>2016-10-16T10:09:18Z</time>
      </trkpt>
      <trkpt lat="45.97621" lon="4.64237">
        <ele>306</ele>
        <time>2016-10-16T10:09:19Z</time>
      </trkpt>
      <trkpt lat="45.97622" lon="4.64251">
        <ele>305</ele>
        <time>2016-10-16T10:09:20Z</time>
      </trkpt>
      <trkpt lat="45.97623" lon="4.64264">
        <ele>305</ele>
        <time>2016-10-16T10:09:21Z</time>
      </trkpt>
      <trkpt lat="45.97625" lon="4.64277">
        <ele>305</ele>
        <time>2016-10-16T10:09:22Z</time>
      </trkpt>
      <trkpt lat="45.97626" lon="4.6429">
        <ele>305</ele>
        <time>2016-10-16T10:09:23Z</time>
      </trkpt>
      <trkpt lat="45.97627" lon="4.64303">
        <ele>304</ele>
        <time>2016-10-16T10:09:24Z</time>
      </trkpt>
      <trkpt lat="45.97629" lon="4.64316">
        <ele>304</ele>
        <time>2016-10-16T10:09:25Z</time>
      </trkpt>
      <trkpt lat="45.97631" lon="4.6433">
        <ele>304</ele>
        <time>2016-10-16T10:09:26Z</time>
      </trkpt>
      <trkpt lat="45.97632" lon="4.64343">
        <ele>303</ele>
        <time>2016-10-16T10:09:27Z</time>
      </trkpt>
      <trkpt lat="45.97633" lon="4.64356">
        <ele>303</ele>
        <time>2016-10-16T10:09:28Z</time>
      </trkpt>
      <trkpt lat="45.97634" lon="4.6437">
        <ele>303</ele>
        <time>2016-10-16T10:09:29Z</time>
      </trkpt>
      <trkpt lat="45.97636" lon="4.64383">
        <ele>303</ele>
        <time>2016-10-16T10:09:30Z</time>
      </trkpt>
      <trkpt lat="45.97637" lon="4.64397">
        <ele>303</ele>
        <time>2016-10-16T10:09:31Z</time>
      </trkpt>
      <trkpt lat="45.97639" lon="4.6441">
        <ele>302</ele>
        <time>2016-10-16T10:09:32Z</time>
      </trkpt>
      <trkpt lat="45.9764" lon="4.64423">
        <ele>302</ele>
        <time>2016-10-16T10:09:33Z</time>
      </trkpt>
      <trkpt lat="45.97642" lon="4.64436">
        <ele>302</ele>
        <time>2016-10-16T10:09:34Z</time>
      </trkpt>
      <trkpt lat="45.97643" lon="4.64449">
        <ele>302</ele>
        <time>2016-10-16T10:09:35Z</time>
      </trkpt>
      <trkpt lat="45.97645" lon="4.64462">
        <ele>302</ele>
        <time>2016-10-16T10:09:36Z</time>
      </trkpt>
      <trkpt lat="45.97646" lon="4.64474">
        <ele>302</ele>
        <time>2016-10-16T10:09:37Z</time>
      </trkpt>
      <trkpt lat="45.97647" lon="4.64487">
        <ele>302</ele>
        <time>2016-10-16T10:09:38Z</time>
      </trkpt>
      <trkpt lat="45.97648" lon="4.645">
        <ele>302</ele>
        <time>2016-10-16T10:09:39Z</time>
      </trkpt>
      <trkpt lat="45.97649" lon="4.64512">
        <ele>300</ele>
        <time>2016-10-16T10:09:40Z</time>
      </trkpt>
      <trkpt lat="45.97651" lon="4.64525">
        <ele>300</ele>
        <time>2016-10-16T10:09:41Z</time>
      </trkpt>
      <trkpt lat="45.97652" lon="4.64538">
        <ele>299</ele>
        <time>2016-10-16T10:09:42Z</time>
      </trkpt>
      <trkpt lat="45.97654" lon="4.64549">
        <ele>299</ele>
        <time>2016-10-16T10:09:43Z</time>
      </trkpt>
      <trkpt lat="45.97655" lon="4.64562">
        <ele>298</ele>
        <time>2016-10-16T10:09:44Z</time>
      </trkpt>
      <trkpt lat="45.97656" lon="4.64575">
        <ele>298</ele>
        <time>2016-10-16T10:09:45Z</time>
      </trkpt>
      <trkpt lat="45.97658" lon="4.64587">
        <ele>296</ele>
        <time>2016-10-16T10:09:46Z</time>
      </trkpt>
      <trkpt lat="45.9766" lon="4.64599">
        <ele>296</ele>
        <time>2016-10-16T10:09:47Z</time>
      </trkpt>
      <trkpt lat="45.97661" lon="4.64612">
        <ele>295</ele>
        <time>2016-10-16T10:09:48Z</time>
      </trkpt>
      <trkpt lat="45.97663" lon="4.64624">
        <ele>295</ele>
        <time>2016-10-16T10:09:49Z</time>
      </trkpt>
      <trkpt lat="45.97664" lon="4.64637">
        <ele>294</ele>
        <time>2016-10-16T10:09:50Z</time>
      </trkpt>
      <trkpt lat="45.97666" lon="4.64649">
        <ele>294</ele>
        <time>2016-10-16T10:09:51Z</time>
      </trkpt>
      <trkpt lat="45.97667" lon="4.64663">
        <ele>292</ele>
        <time>2016-10-16T10:09:52Z</time>
      </trkpt>
      <trkpt lat="45.97668" lon="4.64675">
        <ele>292</ele>
        <time>2016-10-16T10:09:53Z</time>
      </trkpt>
      <trkpt lat="45.97669" lon="4.64688">
        <ele>291</ele>
        <time>2016-10-16T10:09:54Z</time>
      </trkpt>
      <trkpt lat="45.97671" lon="4.64701">
        <ele>291</ele>
        <time>2016-10-16T10:09:55Z</time>
      </trkpt>
      <trkpt lat="45.97672" lon="4.64714">
        <ele>291</ele>
        <time>2016-10-16T10:09:56Z</time>
      </trkpt>
      <trkpt lat="45.97674" lon="4.64727">
        <ele>291</ele>
        <time>2016-10-16T10:09:57Z</time>
      </trkpt>
      <trkpt lat="45.97675" lon="4.64741">
        <ele>291</ele>
        <time>2016-10-16T10:09:58Z</time>
      </trkpt>
      <trkpt lat="45.97676" lon="4.64754">
        <ele>291</ele>
        <time>2016-10-16T10:09:59Z</time>
      </trkpt>
      <trkpt lat="45.97677" lon="4.64767">
        <ele>290</ele>
        <time>2016-10-16T10:10:00Z</time>
      </trkpt>
      <trkpt lat="45.97679" lon="4.64781">
        <ele>290</ele>
        <time>2016-10-16T10:10:01Z</time>
      </trkpt>
      <trkpt lat="45.9768" lon="4.64794">
        <ele>290</ele>
        <time>2016-10-16T10:10:02Z</time>
      </trkpt>
      <trkpt lat="45.97682" lon="4.64807">
        <ele>290</ele>
        <time>2016-10-16T10:10:03Z</time>
      </trkpt>
      <trkpt lat="45.97683" lon="4.64821">
        <ele>289</ele>
        <time>2016-10-16T10:10:04Z</time>
      </trkpt>
      <trkpt lat="45.97685" lon="4.64834">
        <ele>289</ele>
        <time>2016-10-16T10:10:05Z</time>
      </trkpt>
      <trkpt lat="45.97687" lon="4.64848">
        <ele>289</ele>
        <time>2016-10-16T10:10:06Z</time>
      </trkpt>
      <trkpt lat="45.97688" lon="4.64861">
        <ele>289</ele>
        <time>2016-10-16T10:10:07Z</time>
      </trkpt>
      <trkpt lat="45.97689" lon="4.64875">
        <ele>289</ele>
        <time>2016-10-16T10:10:08Z</time>
      </trkpt>
      <trkpt lat="45.97691" lon="4.64889">
        <ele>288</ele>
        <time>2016-10-16T10:10:09Z</time>
      </trkpt>
      <trkpt lat="45.97692" lon="4.64902">
        <ele>288</ele>
        <time>2016-10-16T10:10:10Z</time>
      </trkpt>
      <trkpt lat="45.97694" lon="4.64916">
        <ele>288</ele>
        <time>2016-10-16T10:10:11Z</time>
      </trkpt>
      <trkpt lat="45.97695" lon="4.6493">
        <ele>287</ele>
        <time>2016-10-16T10:10:12Z</time>
      </trkpt>
      <trkpt lat="45.97696" lon="4.64944">
        <ele>287</ele>
        <time>2016-10-16T10:10:13Z</time>
      </trkpt>
      <trkpt lat="45.97697" lon="4.64958">
        <ele>287</ele>
        <time>2016-10-16T10:10:14Z</time>
      </trkpt>
      <trkpt lat="45.97699" lon="4.64972">
        <ele>287</ele>
        <time>2016-10-16T10:10:15Z</time>
      </trkpt>
      <trkpt lat="45.97701" lon="4.64985">
        <ele>287</ele>
        <time>2016-10-16T10:10:16Z</time>
      </trkpt>
      <trkpt lat="45.97703" lon="4.64997">
        <ele>287</ele>
        <time>2016-10-16T10:10:17Z</time>
      </trkpt>
      <trkpt lat="45.97704" lon="4.65008">
        <ele>286</ele>
        <time>2016-10-16T10:10:18Z</time>
      </trkpt>
      <trkpt lat="45.97706" lon="4.65018">
        <ele>286</ele>
        <time>2016-10-16T10:10:19Z</time>
      </trkpt>
      <trkpt lat="45.97706" lon="4.65027">
        <ele>286</ele>
        <time>2016-10-16T10:10:20Z</time>
      </trkpt>
      <trkpt lat="45.97706" lon="4.65035">
        <ele>286</ele>
        <time>2016-10-16T10:10:21Z</time>
      </trkpt>
      <trkpt lat="45.97706" lon="4.65043">
        <ele>285</ele>
        <time>2016-10-16T10:10:22Z</time>
      </trkpt>
      <trkpt lat="45.97707" lon="4.65052">
        <ele>285</ele>
        <time>2016-10-16T10:10:23Z</time>
      </trkpt>
      <trkpt lat="45.97709" lon="4.6506">
        <ele>285</ele>
        <time>2016-10-16T10:10:24Z</time>
      </trkpt>
      <trkpt lat="45.97711" lon="4.65068">
        <ele>285</ele>
        <time>2016-10-16T10:10:25Z</time>
      </trkpt>
      <trkpt lat="45.97714" lon="4.65077">
        <ele>285</ele>
        <time>2016-10-16T10:10:26Z</time>
      </trkpt>
      <trkpt lat="45.97716" lon="4.65086">
        <ele>285</ele>
        <time>2016-10-16T10:10:27Z</time>
      </trkpt>
      <trkpt lat="45.97718" lon="4.65095">
        <ele>285</ele>
        <time>2016-10-16T10:10:28Z</time>
      </trkpt>
      <trkpt lat="45.97719" lon="4.65105">
        <ele>285</ele>
        <time>2016-10-16T10:10:29Z</time>
      </trkpt>
      <trkpt lat="45.97721" lon="4.65115">
        <ele>285</ele>
        <time>2016-10-16T10:10:30Z</time>
      </trkpt>
      <trkpt lat="45.97721" lon="4.65124">
        <ele>285</ele>
        <time>2016-10-16T10:10:31Z</time>
      </trkpt>
      <trkpt lat="45.97722" lon="4.65133">
        <ele>285</ele>
        <time>2016-10-16T10:10:32Z</time>
      </trkpt>
      <trkpt lat="45.97723" lon="4.65143">
        <ele>285</ele>
        <time>2016-10-16T10:10:33Z</time>
      </trkpt>
      <trkpt lat="45.97723" lon="4.65152">
        <ele>285</ele>
        <time>2016-10-16T10:10:34Z</time>
      </trkpt>
      <trkpt lat="45.97724" lon="4.65162">
        <ele>285</ele>
        <time>2016-10-16T10:10:35Z</time>
      </trkpt>
      <trkpt lat="45.97724" lon="4.65172">
        <ele>284</ele>
        <time>2016-10-16T10:10:36Z</time>
      </trkpt>
      <trkpt lat="45.97725" lon="4.65182">
        <ele>284</ele>
        <time>2016-10-16T10:10:37Z</time>
      </trkpt>
      <trkpt lat="45.97726" lon="4.65192">
        <ele>284</ele>
        <time>2016-10-16T10:10:38Z</time>
      </trkpt>
      <trkpt lat="45.97726" lon="4.65201">
        <ele>284</ele>
        <time>2016-10-16T10:10:39Z</time>
      </trkpt>
      <trkpt lat="45.97727" lon="4.65211">
        <ele>284</ele>
        <time>2016-10-16T10:10:40Z</time>
      </trkpt>
      <trkpt lat="45.97728" lon="4.6522">
        <ele>284</ele>
        <time>2016-10-16T10:10:41Z</time>
      </trkpt>
      <trkpt lat="45.97729" lon="4.65229">
        <ele>283</ele>
        <time>2016-10-16T10:10:42Z</time>
      </trkpt>
      <trkpt lat="45.9773" lon="4.65238">
        <ele>284</ele>
        <time>2016-10-16T10:10:43Z</time>
      </trkpt>
      <trkpt lat="45.97731" lon="4.65247">
        <ele>284</ele>
        <time>2016-10-16T10:10:44Z</time>
      </trkpt>
      <trkpt lat="45.97731" lon="4.65256">
        <ele>283</ele>
        <time>2016-10-16T10:10:45Z</time>
      </trkpt>
      <trkpt lat="45.97731" lon="4.65265">
        <ele>283</ele>
        <time>2016-10-16T10:10:46Z</time>
      </trkpt>
      <trkpt lat="45.97733" lon="4.65274">
        <ele>283</ele>
        <time>2016-10-16T10:10:47Z</time>
      </trkpt>
      <trkpt lat="45.97734" lon="4.65283">
        <ele>283</ele>
        <time>2016-10-16T10:10:48Z</time>
      </trkpt>
      <trkpt lat="45.97736" lon="4.65292">
        <ele>282</ele>
        <time>2016-10-16T10:10:49Z</time>
      </trkpt>
      <trkpt lat="45.97738" lon="4.65302">
        <ele>282</ele>
        <time>2016-10-16T10:10:50Z</time>
      </trkpt>
      <trkpt lat="45.97741" lon="4.65311">
        <ele>282</ele>
        <time>2016-10-16T10:10:51Z</time>
      </trkpt>
      <trkpt lat="45.97744" lon="4.6532">
        <ele>282</ele>
        <time>2016-10-16T10:10:52Z</time>
      </trkpt>
      <trkpt lat="45.97747" lon="4.65328">
        <ele>282</ele>
        <time>2016-10-16T10:10:53Z</time>
      </trkpt>
      <trkpt lat="45.9775" lon="4.65337">
        <ele>282</ele>
        <time>2016-10-16T10:10:54Z</time>
      </trkpt>
      <trkpt lat="45.97754" lon="4.65346">
        <ele>282</ele>
        <time>2016-10-16T10:10:55Z</time>
      </trkpt>
      <trkpt lat="45.97757" lon="4.65354">
        <ele>282</ele>
        <time>2016-10-16T10:10:56Z</time>
      </trkpt>
      <trkpt lat="45.97761" lon="4.65363">
        <ele>282</ele>
        <time>2016-10-16T10:10:57Z</time>
      </trkpt>
      <trkpt lat="45.97764" lon="4.65372">
        <ele>282</ele>
        <time>2016-10-16T10:10:58Z</time>
      </trkpt>
      <trkpt lat="45.97766" lon="4.65381">
        <ele>282</ele>
        <time>2016-10-16T10:10:59Z</time>
      </trkpt>
      <trkpt lat="45.97769" lon="4.6539">
        <ele>282</ele>
        <time>2016-10-16T10:11:00Z</time>
      </trkpt>
      <trkpt lat="45.97772" lon="4.65398">
        <ele>282</ele>
        <time>2016-10-16T10:11:01Z</time>
      </trkpt>
      <trkpt lat="45.97776" lon="4.65406">
        <ele>282</ele>
        <time>2016-10-16T10:11:02Z</time>
      </trkpt>
      <trkpt lat="45.97779" lon="4.65415">
        <ele>282</ele>
        <time>2016-10-16T10:11:03Z</time>
      </trkpt>
      <trkpt lat="45.97782" lon="4.65424">
        <ele>281</ele>
        <time>2016-10-16T10:11:04Z</time>
      </trkpt>
      <trkpt lat="45.97785" lon="4.65433">
        <ele>281</ele>
        <time>2016-10-16T10:11:05Z</time>
      </trkpt>
      <trkpt lat="45.97789" lon="4.65442">
        <ele>281</ele>
        <time>2016-10-16T10:11:06Z</time>
      </trkpt>
      <trkpt lat="45.97792" lon="4.65451">
        <ele>281</ele>
        <time>2016-10-16T10:11:07Z</time>
      </trkpt>
      <trkpt lat="45.97796" lon="4.65461">
        <ele>281</ele>
        <time>2016-10-16T10:11:08Z</time>
      </trkpt>
      <trkpt lat="45.97799" lon="4.65471">
        <ele>281</ele>
        <time>2016-10-16T10:11:09Z</time>
      </trkpt>
      <trkpt lat="45.97802" lon="4.65481">
        <ele>281</ele>
        <time>2016-10-16T10:11:10Z</time>
      </trkpt>
      <trkpt lat="45.97806" lon="4.65491">
        <ele>280</ele>
        <time>2016-10-16T10:11:11Z</time>
      </trkpt>
      <trkpt lat="45.97809" lon="4.655">
        <ele>280</ele>
        <time>2016-10-16T10:11:12Z</time>
      </trkpt>
      <trkpt lat="45.97811" lon="4.6551">
        <ele>280</ele>
        <time>2016-10-16T10:11:13Z</time>
      </trkpt>
      <trkpt lat="45.97814" lon="4.6552">
        <ele>280</ele>
        <time>2016-10-16T10:11:14Z</time>
      </trkpt>
      <trkpt lat="45.97816" lon="4.65529">
        <ele>280</ele>
        <time>2016-10-16T10:11:15Z</time>
      </trkpt>
      <trkpt lat="45.97818" lon="4.65539">
        <ele>280</ele>
        <time>2016-10-16T10:11:16Z</time>
      </trkpt>
      <trkpt lat="45.9782" lon="4.65548">
        <ele>280</ele>
        <time>2016-10-16T10:11:17Z</time>
      </trkpt>
      <trkpt lat="45.97822" lon="4.65557">
        <ele>280</ele>
        <time>2016-10-16T10:11:18Z</time>
      </trkpt>
      <trkpt lat="45.97824" lon="4.65566">
        <ele>280</ele>
        <time>2016-10-16T10:11:19Z</time>
      </trkpt>
      <trkpt lat="45.97826" lon="4.65575">
        <ele>280</ele>
        <time>2016-10-16T10:11:20Z</time>
      </trkpt>
      <trkpt lat="45.97828" lon="4.65585">
        <ele>280</ele>
        <time>2016-10-16T10:11:21Z</time>
      </trkpt>
      <trkpt lat="45.9783" lon="4.65595">
        <ele>280</ele>
        <time>2016-10-16T10:11:22Z</time>
      </trkpt>
      <trkpt lat="45.97833" lon="4.65604">
        <ele>280</ele>
        <time>2016-10-16T10:11:23Z</time>
      </trkpt>
      <trkpt lat="45.97836" lon="4.65614">
        <ele>279</ele>
        <time>2016-10-16T10:11:24Z</time>
      </trkpt>
      <trkpt lat="45.97839" lon="4.65624">
        <ele>279</ele>
        <time>2016-10-16T10:11:25Z</time>
      </trkpt>
      <trkpt lat="45.97842" lon="4.65634">
        <ele>279</ele>
        <time>2016-10-16T10:11:26Z</time>
      </trkpt>
      <trkpt lat="45.97844" lon="4.65644">
        <ele>279</ele>
        <time>2016-10-16T10:11:27Z</time>
      </trkpt>
      <trkpt lat="45.97847" lon="4.65653">
        <ele>279</ele>
        <time>2016-10-16T10:11:28Z</time>
      </trkpt>
      <trkpt lat="45.9785" lon="4.65663">
        <ele>279</ele>
        <time>2016-10-16T10:11:29Z</time>
      </trkpt>
      <trkpt lat="45.97853" lon="4.65672">
        <ele>278</ele>
        <time>2016-10-16T10:11:30Z</time>
      </trkpt>
      <trkpt lat="45.97856" lon="4.65682">
        <ele>278</ele>
        <time>2016-10-16T10:11:31Z</time>
      </trkpt>
      <trkpt lat="45.97859" lon="4.65691">
        <ele>278</ele>
        <time>2016-10-16T10:11:32Z</time>
      </trkpt>
      <trkpt lat="45.97862" lon="4.657">
        <ele>278</ele>
        <time>2016-10-16T10:11:33Z</time>
      </trkpt>
      <trkpt lat="45.97864" lon="4.65709">
        <ele>278</ele>
        <time>2016-10-16T10:11:34Z</time>
      </trkpt>
      <trkpt lat="45.97867" lon="4.65718">
        <ele>278</ele>
        <time>2016-10-16T10:11:35Z</time>
      </trkpt>
      <trkpt lat="45.97871" lon="4.65727">
        <ele>278</ele>
        <time>2016-10-16T10:11:36Z</time>
      </trkpt>
      <trkpt lat="45.97874" lon="4.65736">
        <ele>278</ele>
        <time>2016-10-16T10:11:37Z</time>
      </trkpt>
      <trkpt lat="45.97877" lon="4.65746">
        <ele>278</ele>
        <time>2016-10-16T10:11:38Z</time>
      </trkpt>
      <trkpt lat="45.97879" lon="4.65755">
        <ele>277</ele>
        <time>2016-10-16T10:11:39Z</time>
      </trkpt>
      <trkpt lat="45.97883" lon="4.65764">
        <ele>277</ele>
        <time>2016-10-16T10:11:40Z</time>
      </trkpt>
      <trkpt lat="45.97885" lon="4.65774">
        <ele>277</ele>
        <time>2016-10-16T10:11:41Z</time>
      </trkpt>
      <trkpt lat="45.97888" lon="4.65784">
        <ele>277</ele>
        <time>2016-10-16T10:11:42Z</time>
      </trkpt>
      <trkpt lat="45.97891" lon="4.65793">
        <ele>277</ele>
        <time>2016-10-16T10:11:43Z</time>
      </trkpt>
      <trkpt lat="45.97894" lon="4.65803">
        <ele>277</ele>
        <time>2016-10-16T10:11:44Z</time>
      </trkpt>
      <trkpt lat="45.97897" lon="4.65812">
        <ele>277</ele>
        <time>2016-10-16T10:11:45Z</time>
      </trkpt>
      <trkpt lat="45.979" lon="4.65821">
        <ele>277</ele>
        <time>2016-10-16T10:11:46Z</time>
      </trkpt>
      <trkpt lat="45.97903" lon="4.6583">
        <ele>277</ele>
        <time>2016-10-16T10:11:47Z</time>
      </trkpt>
      <trkpt lat="45.97906" lon="4.65839">
        <ele>277</ele>
        <time>2016-10-16T10:11:48Z</time>
      </trkpt>
      <trkpt lat="45.97909" lon="4.65848">
        <ele>277</ele>
        <time>2016-10-16T10:11:49Z</time>
      </trkpt>
      <trkpt lat="45.97912" lon="4.65857">
        <ele>277</ele>
        <time>2016-10-16T10:11:50Z</time>
      </trkpt>
      <trkpt lat="45.97916" lon="4.65867">
        <ele>276</ele>
        <time>2016-10-16T10:11:51Z</time>
      </trkpt>
      <trkpt lat="45.97919" lon="4.65876">
        <ele>276</ele>
        <time>2016-10-16T10:11:52Z</time>
      </trkpt>
      <trkpt lat="45.97921" lon="4.65885">
        <ele>276</ele>
        <time>2016-10-16T10:11:53Z</time>
      </trkpt>
      <trkpt lat="45.97922" lon="4.65896">
        <ele>276</ele>
        <time>2016-10-16T10:11:54Z</time>
      </trkpt>
      <trkpt lat="45.97924" lon="4.65907">
        <ele>276</ele>
        <time>2016-10-16T10:11:55Z</time>
      </trkpt>
      <trkpt lat="45.97925" lon="4.65918">
        <ele>275</ele>
        <time>2016-10-16T10:11:56Z</time>
      </trkpt>
      <trkpt lat="45.97925" lon="4.65929">
        <ele>275</ele>
        <time>2016-10-16T10:11:57Z</time>
      </trkpt>
      <trkpt lat="45.97926" lon="4.6594">
        <ele>274</ele>
        <time>2016-10-16T10:11:58Z</time>
      </trkpt>
      <trkpt lat="45.97926" lon="4.6595">
        <ele>273</ele>
        <time>2016-10-16T10:11:59Z</time>
      </trkpt>
      <trkpt lat="45.97926" lon="4.65961">
        <ele>272</ele>
        <time>2016-10-16T10:12:00Z</time>
      </trkpt>
      <trkpt lat="45.97927" lon="4.65972">
        <ele>272</ele>
        <time>2016-10-16T10:12:01Z</time>
      </trkpt>
      <trkpt lat="45.97927" lon="4.65983">
        <ele>272</ele>
        <time>2016-10-16T10:12:02Z</time>
      </trkpt>
      <trkpt lat="45.97927" lon="4.65993">
        <ele>272</ele>
        <time>2016-10-16T10:12:03Z</time>
      </trkpt>
      <trkpt lat="45.97927" lon="4.66004">
        <ele>271</ele>
        <time>2016-10-16T10:12:04Z</time>
      </trkpt>
      <trkpt lat="45.97927" lon="4.66014">
        <ele>271</ele>
        <time>2016-10-16T10:12:05Z</time>
      </trkpt>
      <trkpt lat="45.97926" lon="4.66025">
        <ele>270</ele>
        <time>2016-10-16T10:12:06Z</time>
      </trkpt>
      <trkpt lat="45.97925" lon="4.66036">
        <ele>270</ele>
        <time>2016-10-16T10:12:07Z</time>
      </trkpt>
      <trkpt lat="45.97925" lon="4.66047">
        <ele>270</ele>
        <time>2016-10-16T10:12:08Z</time>
      </trkpt>
      <trkpt lat="45.97924" lon="4.66058">
        <ele>270</ele>
        <time>2016-10-16T10:12:09Z</time>
      </trkpt>
      <trkpt lat="45.97924" lon="4.6607">
        <ele>270</ele>
        <time>2016-10-16T10:12:10Z</time>
      </trkpt>
      <trkpt lat="45.97924" lon="4.66081">
        <ele>271</ele>
        <time>2016-10-16T10:12:11Z</time>
      </trkpt>
      <trkpt lat="45.97925" lon="4.66092">
        <ele>270</ele>
        <time>2016-10-16T10:12:12Z</time>
      </trkpt>
      <trkpt lat="45.97926" lon="4.66104">
        <ele>270</ele>
        <time>2016-10-16T10:12:13Z</time>
      </trkpt>
      <trkpt lat="45.97928" lon="4.66115">
        <ele>269</ele>
        <time>2016-10-16T10:12:14Z</time>
      </trkpt>
      <trkpt lat="45.9793" lon="4.66125">
        <ele>269</ele>
        <time>2016-10-16T10:12:15Z</time>
      </trkpt>
      <trkpt lat="45.97933" lon="4.66135">
        <ele>269</ele>
        <time>2016-10-16T10:12:16Z</time>
      </trkpt>
      <trkpt lat="45.97935" lon="4.66145">
        <ele>269</ele>
        <time>2016-10-16T10:12:17Z</time>
      </trkpt>
      <trkpt lat="45.97937" lon="4.66155">
        <ele>269</ele>
        <time>2016-10-16T10:12:18Z</time>
      </trkpt>
      <trkpt lat="45.97939" lon="4.66165">
        <ele>269</ele>
        <time>2016-10-16T10:12:19Z</time>
      </trkpt>
      <trkpt lat="45.97941" lon="4.66175">
        <ele>270</ele>
        <time>2016-10-16T10:12:20Z</time>
      </trkpt>
      <trkpt lat="45.97943" lon="4.66184">
        <ele>270</ele>
        <time>2016-10-16T10:12:21Z</time>
      </trkpt>
      <trkpt lat="45.97944" lon="4.66194">
        <ele>270</ele>
        <time>2016-10-16T10:12:22Z</time>
      </trkpt>
      <trkpt lat="45.97946" lon="4.66203">
        <ele>270</ele>
        <time>2016-10-16T10:12:23Z</time>
      </trkpt>
      <trkpt lat="45.97948" lon="4.66212">
        <ele>270</ele>
        <time>2016-10-16T10:12:24Z</time>
      </trkpt>
      <trkpt lat="45.9795" lon="4.66221">
        <ele>270</ele>
        <time>2016-10-16T10:12:25Z</time>
      </trkpt>
      <trkpt lat="45.97953" lon="4.6623">
        <ele>270</ele>
        <time>2016-10-16T10:12:26Z</time>
      </trkpt>
      <trkpt lat="45.97957" lon="4.66238">
        <ele>270</ele>
        <time>2016-10-16T10:12:27Z</time>
      </trkpt>
      <trkpt lat="45.97961" lon="4.66246">
        <ele>270</ele>
        <time>2016-10-16T10:12:28Z</time>
      </trkpt>
      <trkpt lat="45.97966" lon="4.66254">
        <ele>270</ele>
        <time>2016-10-16T10:12:29Z</time>
      </trkpt>
      <trkpt lat="45.97971" lon="4.66262">
        <ele>270</ele>
        <time>2016-10-16T10:12:30Z</time>
      </trkpt>
      <trkpt lat="45.97976" lon="4.66268">
        <ele>270</ele>
        <time>2016-10-16T10:12:31Z</time>
      </trkpt>
      <trkpt lat="45.97982" lon="4.66275">
        <ele>270</ele>
        <time>2016-10-16T10:12:32Z</time>
      </trkpt>
      <trkpt lat="45.97987" lon="4.66281">
        <ele>270</ele>
        <time>2016-10-16T10:12:33Z</time>
      </trkpt>
      <trkpt lat="45.97993" lon="4.66287">
        <ele>270</ele>
        <time>2016-10-16T10:12:34Z</time>
      </trkpt>
      <trkpt lat="45.97999" lon="4.66292">
        <ele>270</ele>
        <time>2016-10-16T10:12:35Z</time>
      </trkpt>
      <trkpt lat="45.98005" lon="4.66298">
        <ele>268</ele>
        <time>2016-10-16T10:12:36Z</time>
      </trkpt>
      <trkpt lat="45.9801" lon="4.66305">
        <ele>268</ele>
        <time>2016-10-16T10:12:37Z</time>
      </trkpt>
      <trkpt lat="45.98016" lon="4.66312">
        <ele>268</ele>
        <time>2016-10-16T10:12:38Z</time>
      </trkpt>
      <trkpt lat="45.98021" lon="4.66319">
        <ele>268</ele>
        <time>2016-10-16T10:12:39Z</time>
      </trkpt>
      <trkpt lat="45.98026" lon="4.66328">
        <ele>268</ele>
        <time>2016-10-16T10:12:40Z</time>
      </trkpt>
      <trkpt lat="45.9803" lon="4.66337">
        <ele>268</ele>
        <time>2016-10-16T10:12:41Z</time>
      </trkpt>
      <trkpt lat="45.98034" lon="4.66346">
        <ele>267</ele>
        <time>2016-10-16T10:12:42Z</time>
      </trkpt>
      <trkpt lat="45.98038" lon="4.66356">
        <ele>267</ele>
        <time>2016-10-16T10:12:43Z</time>
      </trkpt>
      <trkpt lat="45.98042" lon="4.66366">
        <ele>267</ele>
        <time>2016-10-16T10:12:44Z</time>
      </trkpt>
      <trkpt lat="45.98046" lon="4.66376">
        <ele>267</ele>
        <time>2016-10-16T10:12:45Z</time>
      </trkpt>
      <trkpt lat="45.98049" lon="4.66386">
        <ele>267</ele>
        <time>2016-10-16T10:12:46Z</time>
      </trkpt>
      <trkpt lat="45.98052" lon="4.66396">
        <ele>267</ele>
        <time>2016-10-16T10:12:47Z</time>
      </trkpt>
      <trkpt lat="45.98055" lon="4.66406">
        <ele>266</ele>
        <time>2016-10-16T10:12:48Z</time>
      </trkpt>
      <trkpt lat="45.98058" lon="4.66416">
        <ele>266</ele>
        <time>2016-10-16T10:12:49Z</time>
      </trkpt>
      <trkpt lat="45.9806" lon="4.66426">
        <ele>266</ele>
        <time>2016-10-16T10:12:50Z</time>
      </trkpt>
      <trkpt lat="45.98062" lon="4.66436">
        <ele>266</ele>
        <time>2016-10-16T10:12:51Z</time>
      </trkpt>
      <trkpt lat="45.98063" lon="4.66446">
        <ele>266</ele>
        <time>2016-10-16T10:12:52Z</time>
      </trkpt>
      <trkpt lat="45.98065" lon="4.66457">
        <ele>266</ele>
        <time>2016-10-16T10:12:53Z</time>
      </trkpt>
      <trkpt lat="45.98066" lon="4.66467">
        <ele>266</ele>
        <time>2016-10-16T10:12:54Z</time>
      </trkpt>
      <trkpt lat="45.98067" lon="4.66477">
        <ele>266</ele>
        <time>2016-10-16T10:12:55Z</time>
      </trkpt>
      <trkpt lat="45.98068" lon="4.66487">
        <ele>266</ele>
        <time>2016-10-16T10:12:56Z</time>
      </trkpt>
      <trkpt lat="45.98068" lon="4.66497">
        <ele>265</ele>
        <time>2016-10-16T10:12:57Z</time>
      </trkpt>
      <trkpt lat="45.98069" lon="4.66508">
        <ele>265</ele>
        <time>2016-10-16T10:12:58Z</time>
      </trkpt>
      <trkpt lat="45.9807" lon="4.66519">
        <ele>264</ele>
        <time>2016-10-16T10:12:59Z</time>
      </trkpt>
      <trkpt lat="45.9807" lon="4.6653">
        <ele>264</ele>
        <time>2016-10-16T10:13:00Z</time>
      </trkpt>
      <trkpt lat="45.98071" lon="4.66541">
        <ele>264</ele>
        <time>2016-10-16T10:13:01Z</time>
      </trkpt>
      <trkpt lat="45.98072" lon="4.66553">
        <ele>264</ele>
        <time>2016-10-16T10:13:02Z</time>
      </trkpt>
      <trkpt lat="45.98073" lon="4.66564">
        <ele>263</ele>
        <time>2016-10-16T10:13:03Z</time>
      </trkpt>
      <trkpt lat="45.98075" lon="4.66576">
        <ele>263</ele>
        <time>2016-10-16T10:13:04Z</time>
      </trkpt>
      <trkpt lat="45.98077" lon="4.66587">
        <ele>262</ele>
        <time>2016-10-16T10:13:05Z</time>
      </trkpt>
      <trkpt lat="45.9808" lon="4.666">
        <ele>262</ele>
        <time>2016-10-16T10:13:06Z</time>
      </trkpt>
      <trkpt lat="45.98081" lon="4.66612">
        <ele>262</ele>
        <time>2016-10-16T10:13:07Z</time>
      </trkpt>
      <trkpt lat="45.98084" lon="4.66624">
        <ele>259</ele>
        <time>2016-10-16T10:13:08Z</time>
      </trkpt>
      <trkpt lat="45.98086" lon="4.66636">
        <ele>259</ele>
        <time>2016-10-16T10:13:09Z</time>
      </trkpt>
      <trkpt lat="45.98089" lon="4.66648">
        <ele>259</ele>
        <time>2016-10-16T10:13:10Z</time>
      </trkpt>
      <trkpt lat="45.98091" lon="4.6666">
        <ele>259</ele>
        <time>2016-10-16T10:13:11Z</time>
      </trkpt>
      <trkpt lat="45.98094" lon="4.66672">
        <ele>259</ele>
        <time>2016-10-16T10:13:12Z</time>
      </trkpt>
      <trkpt lat="45.98096" lon="4.66685">
        <ele>258</ele>
        <time>2016-10-16T10:13:13Z</time>
      </trkpt>
      <trkpt lat="45.98098" lon="4.66697">
        <ele>257</ele>
        <time>2016-10-16T10:13:14Z</time>
      </trkpt>
      <trkpt lat="45.98101" lon="4.66709">
        <ele>257</ele>
        <time>2016-10-16T10:13:15Z</time>
      </trkpt>
      <trkpt lat="45.98103" lon="4.66722">
        <ele>257</ele>
        <time>2016-10-16T10:13:16Z</time>
      </trkpt>
      <trkpt lat="45.98105" lon="4.66734">
        <ele>257</ele>
        <time>2016-10-16T10:13:17Z</time>
      </trkpt>
      <trkpt lat="45.98108" lon="4.66747">
        <ele>257</ele>
        <time>2016-10-16T10:13:18Z</time>
      </trkpt>
      <trkpt lat="45.9811" lon="4.66759">
        <ele>255</ele>
        <time>2016-10-16T10:13:19Z</time>
      </trkpt>
      <trkpt lat="45.98113" lon="4.66772">
        <ele>255</ele>
        <time>2016-10-16T10:13:20Z</time>
      </trkpt>
      <trkpt lat="45.98115" lon="4.66783">
        <ele>255</ele>
        <time>2016-10-16T10:13:21Z</time>
      </trkpt>
      <trkpt lat="45.98116" lon="4.66795">
        <ele>255</ele>
        <time>2016-10-16T10:13:22Z</time>
      </trkpt>
      <trkpt lat="45.98118" lon="4.66807">
        <ele>255</ele>
        <time>2016-10-16T10:13:23Z</time>
      </trkpt>
      <trkpt lat="45.9812" lon="4.66819">
        <ele>255</ele>
        <time>2016-10-16T10:13:24Z</time>
      </trkpt>
      <trkpt lat="45.98123" lon="4.66831">
        <ele>254</ele>
        <time>2016-10-16T10:13:25Z</time>
      </trkpt>
      <trkpt lat="45.98125" lon="4.66842">
        <ele>254</ele>
        <time>2016-10-16T10:13:26Z</time>
      </trkpt>
      <trkpt lat="45.98127" lon="4.66854">
        <ele>254</ele>
        <time>2016-10-16T10:13:27Z</time>
      </trkpt>
      <trkpt lat="45.98129" lon="4.66866">
        <ele>254</ele>
        <time>2016-10-16T10:13:28Z</time>
      </trkpt>
      <trkpt lat="45.9813" lon="4.66878">
        <ele>254</ele>
        <time>2016-10-16T10:13:29Z</time>
      </trkpt>
      <trkpt lat="45.98132" lon="4.6689">
        <ele>254</ele>
        <time>2016-10-16T10:13:30Z</time>
      </trkpt>
      <trkpt lat="45.98133" lon="4.66901">
        <ele>254</ele>
        <time>2016-10-16T10:13:31Z</time>
      </trkpt>
      <trkpt lat="45.98134" lon="4.66913">
        <ele>254</ele>
        <time>2016-10-16T10:13:32Z</time>
      </trkpt>
      <trkpt lat="45.98135" lon="4.66926">
        <ele>253</ele>
        <time>2016-10-16T10:13:33Z</time>
      </trkpt>
      <trkpt lat="45.98135" lon="4.66939">
        <ele>253</ele>
        <time>2016-10-16T10:13:34Z</time>
      </trkpt>
      <trkpt lat="45.98135" lon="4.66952">
        <ele>253</ele>
        <time>2016-10-16T10:13:35Z</time>
      </trkpt>
      <trkpt lat="45.98135" lon="4.66965">
        <ele>253</ele>
        <time>2016-10-16T10:13:36Z</time>
      </trkpt>
      <trkpt lat="45.98136" lon="4.66978">
        <ele>253</ele>
        <time>2016-10-16T10:13:37Z</time>
      </trkpt>
      <trkpt lat="45.98135" lon="4.6699">
        <ele>253</ele>
        <time>2016-10-16T10:13:38Z</time>
      </trkpt>
      <trkpt lat="45.98135" lon="4.67002">
        <ele>251</ele>
        <time>2016-10-16T10:13:39Z</time>
      </trkpt>
      <trkpt lat="45.98136" lon="4.67014">
        <ele>251</ele>
        <time>2016-10-16T10:13:40Z</time>
      </trkpt>
      <trkpt lat="45.98136" lon="4.67026">
        <ele>251</ele>
        <time>2016-10-16T10:13:41Z</time>
      </trkpt>
      <trkpt lat="45.98137" lon="4.67038">
        <ele>251</ele>
        <time>2016-10-16T10:13:42Z</time>
      </trkpt>
      <trkpt lat="45.98139" lon="4.67049">
        <ele>251</ele>
        <time>2016-10-16T10:13:43Z</time>
      </trkpt>
      <trkpt lat="45.98141" lon="4.67059">
        <ele>251</ele>
        <time>2016-10-16T10:13:44Z</time>
      </trkpt>
      <trkpt lat="45.98144" lon="4.67069">
        <ele>251</ele>
        <time>2016-10-16T10:13:45Z</time>
      </trkpt>
      <trkpt lat="45.98146" lon="4.67079">
        <ele>251</ele>
        <time>2016-10-16T10:13:46Z</time>
      </trkpt>
      <trkpt lat="45.98149" lon="4.67089">
        <ele>251</ele>
        <time>2016-10-16T10:13:47Z</time>
      </trkpt>
      <trkpt lat="45.98152" lon="4.67099">
        <ele>251</ele>
        <time>2016-10-16T10:13:48Z</time>
      </trkpt>
      <trkpt lat="45.98155" lon="4.67109">
        <ele>251</ele>
        <time>2016-10-16T10:13:49Z</time>
      </trkpt>
      <trkpt lat="45.98158" lon="4.67119">
        <ele>251</ele>
        <time>2016-10-16T10:13:50Z</time>
      </trkpt>
      <trkpt lat="45.9816" lon="4.67129">
        <ele>251</ele>
        <time>2016-10-16T10:13:51Z</time>
      </trkpt>
      <trkpt lat="45.98164" lon="4.67139">
        <ele>251</ele>
        <time>2016-10-16T10:13:52Z</time>
      </trkpt>
      <trkpt lat="45.98166" lon="4.67149">
        <ele>251</ele>
        <time>2016-10-16T10:13:53Z</time>
      </trkpt>
      <trkpt lat="45.98169" lon="4.6716">
        <ele>251</ele>
        <time>2016-10-16T10:13:54Z</time>
      </trkpt>
      <trkpt lat="45.98172" lon="4.6717">
        <ele>251</ele>
        <time>2016-10-16T10:13:55Z</time>
      </trkpt>
      <trkpt lat="45.98175" lon="4.67181">
        <ele>250</ele>
        <time>2016-10-16T10:13:56Z</time>
      </trkpt>
      <trkpt lat="45.98178" lon="4.67192">
        <ele>250</ele>
        <time>2016-10-16T10:13:57Z</time>
      </trkpt>
      <trkpt lat="45.98181" lon="4.67202">
        <ele>250</ele>
        <time>2016-10-16T10:13:58Z</time>
      </trkpt>
      <trkpt lat="45.98184" lon="4.67212">
        <ele>250</ele>
        <time>2016-10-16T10:13:59Z</time>
      </trkpt>
      <trkpt lat="45.98186" lon="4.67223">
        <ele>250</ele>
        <time>2016-10-16T10:14:00Z</time>
      </trkpt>
      <trkpt lat="45.98188" lon="4.67233">
        <ele>250</ele>
        <time>2016-10-16T10:14:01Z</time>
      </trkpt>
      <trkpt lat="45.98189" lon="4.67243">
        <ele>250</ele>
        <time>2016-10-16T10:14:02Z</time>
      </trkpt>
      <trkpt lat="45.98191" lon="4.67253">
        <ele>250</ele>
        <time>2016-10-16T10:14:03Z</time>
      </trkpt>
      <trkpt lat="45.98192" lon="4.67263">
        <ele>250</ele>
        <time>2016-10-16T10:14:04Z</time>
      </trkpt>
      <trkpt lat="45.98192" lon="4.67274">
        <ele>250</ele>
        <time>2016-10-16T10:14:05Z</time>
      </trkpt>
      <trkpt lat="45.98192" lon="4.67284">
        <ele>249</ele>
        <time>2016-10-16T10:14:06Z</time>
      </trkpt>
      <trkpt lat="45.98193" lon="4.67293">
        <ele>249</ele>
        <time>2016-10-16T10:14:07Z</time>
      </trkpt>
      <trkpt lat="45.98193" lon="4.67302">
        <ele>249</ele>
        <time>2016-10-16T10:14:08Z</time>
      </trkpt>
      <trkpt lat="45.98193" lon="4.67312">
        <ele>249</ele>
        <time>2016-10-16T10:14:09Z</time>
      </trkpt>
      <trkpt lat="45.98194" lon="4.67321">
        <ele>249</ele>
        <time>2016-10-16T10:14:10Z</time>
      </trkpt>
      <trkpt lat="45.98194" lon="4.6733">
        <ele>249</ele>
        <time>2016-10-16T10:14:11Z</time>
      </trkpt>
      <trkpt lat="45.98194" lon="4.6734">
        <ele>248</ele>
        <time>2016-10-16T10:14:12Z</time>
      </trkpt>
      <trkpt lat="45.98194" lon="4.67349">
        <ele>248</ele>
        <time>2016-10-16T10:14:13Z</time>
      </trkpt>
      <trkpt lat="45.98195" lon="4.67359">
        <ele>248</ele>
        <time>2016-10-16T10:14:14Z</time>
      </trkpt>
      <trkpt lat="45.98195" lon="4.67369">
        <ele>248</ele>
        <time>2016-10-16T10:14:15Z</time>
      </trkpt>
      <trkpt lat="45.98195" lon="4.6738">
        <ele>248</ele>
        <time>2016-10-16T10:14:16Z</time>
      </trkpt>
      <trkpt lat="45.98196" lon="4.6739">
        <ele>248</ele>
        <time>2016-10-16T10:14:17Z</time>
      </trkpt>
      <trkpt lat="45.98196" lon="4.674">
        <ele>248</ele>
        <time>2016-10-16T10:14:18Z</time>
      </trkpt>
      <trkpt lat="45.98196" lon="4.6741">
        <ele>248</ele>
        <time>2016-10-16T10:14:19Z</time>
      </trkpt>
      <trkpt lat="45.98196" lon="4.6742">
        <ele>248</ele>
        <time>2016-10-16T10:14:20Z</time>
      </trkpt>
      <trkpt lat="45.98196" lon="4.67429">
        <ele>248</ele>
        <time>2016-10-16T10:14:21Z</time>
      </trkpt>
      <trkpt lat="45.98197" lon="4.67439">
        <ele>247</ele>
        <time>2016-10-16T10:14:22Z</time>
      </trkpt>
      <trkpt lat="45.98197" lon="4.67448">
        <ele>247</ele>
        <time>2016-10-16T10:14:23Z</time>
      </trkpt>
      <trkpt lat="45.98198" lon="4.67458">
        <ele>247</ele>
        <time>2016-10-16T10:14:24Z</time>
      </trkpt>
      <trkpt lat="45.98199" lon="4.67467">
        <ele>247</ele>
        <time>2016-10-16T10:14:25Z</time>
      </trkpt>
      <trkpt lat="45.98199" lon="4.67476">
        <ele>247</ele>
        <time>2016-10-16T10:14:26Z</time>
      </trkpt>
      <trkpt lat="45.982" lon="4.67486">
        <ele>247</ele>
        <time>2016-10-16T10:14:27Z</time>
      </trkpt>
      <trkpt lat="45.982" lon="4.67495">
        <ele>247</ele>
        <time>2016-10-16T10:14:28Z</time>
      </trkpt>
      <trkpt lat="45.98201" lon="4.67504">
        <ele>247</ele>
        <time>2016-10-16T10:14:29Z</time>
      </trkpt>
      <trkpt lat="45.98202" lon="4.67513">
        <ele>247</ele>
        <time>2016-10-16T10:14:30Z</time>
      </trkpt>
      <trkpt lat="45.98202" lon="4.67523">
        <ele>247</ele>
        <time>2016-10-16T10:14:31Z</time>
      </trkpt>
      <trkpt lat="45.98203" lon="4.67532">
        <ele>247</ele>
        <time>2016-10-16T10:14:32Z</time>
      </trkpt>
      <trkpt lat="45.98204" lon="4.67542">
        <ele>247</ele>
        <time>2016-10-16T10:14:33Z</time>
      </trkpt>
      <trkpt lat="45.98206" lon="4.67552">
        <ele>247</ele>
        <time>2016-10-16T10:14:34Z</time>
      </trkpt>
      <trkpt lat="45.98207" lon="4.67564">
        <ele>247</ele>
        <time>2016-10-16T10:14:35Z</time>
      </trkpt>
      <trkpt lat="45.98208" lon="4.67575">
        <ele>247</ele>
        <time>2016-10-16T10:14:36Z</time>
      </trkpt>
      <trkpt lat="45.9821" lon="4.67586">
        <ele>246</ele>
        <time>2016-10-16T10:14:37Z</time>
      </trkpt>
      <trkpt lat="45.9821" lon="4.67597">
        <ele>246</ele>
        <time>2016-10-16T10:14:38Z</time>
      </trkpt>
      <trkpt lat="45.98209" lon="4.67608">
        <ele>246</ele>
        <time>2016-10-16T10:14:39Z</time>
      </trkpt>
      <trkpt lat="45.9821" lon="4.67619">
        <ele>246</ele>
        <time>2016-10-16T10:14:40Z</time>
      </trkpt>
      <trkpt lat="45.98212" lon="4.6763">
        <ele>246</ele>
        <time>2016-10-16T10:14:41Z</time>
      </trkpt>
      <trkpt lat="45.98215" lon="4.67641">
        <ele>246</ele>
        <time>2016-10-16T10:14:42Z</time>
      </trkpt>
      <trkpt lat="45.98218" lon="4.67652">
        <ele>246</ele>
        <time>2016-10-16T10:14:43Z</time>
      </trkpt>
      <trkpt lat="45.98221" lon="4.67663">
        <ele>246</ele>
        <time>2016-10-16T10:14:44Z</time>
      </trkpt>
      <trkpt lat="45.98223" lon="4.67675">
        <ele>244</ele>
        <time>2016-10-16T10:14:45Z</time>
      </trkpt>
      <trkpt lat="45.98224" lon="4.67688">
        <ele>244</ele>
        <time>2016-10-16T10:14:46Z</time>
      </trkpt>
      <trkpt lat="45.98226" lon="4.67701">
        <ele>243</ele>
        <time>2016-10-16T10:14:47Z</time>
      </trkpt>
      <trkpt lat="45.98227" lon="4.67714">
        <ele>243</ele>
        <time>2016-10-16T10:14:48Z</time>
      </trkpt>
      <trkpt lat="45.98227" lon="4.67728">
        <ele>243</ele>
        <time>2016-10-16T10:14:49Z</time>
      </trkpt>
      <trkpt lat="45.98226" lon="4.67742">
        <ele>242</ele>
        <time>2016-10-16T10:14:50Z</time>
      </trkpt>
      <trkpt lat="45.98225" lon="4.67755">
        <ele>239</ele>
        <time>2016-10-16T10:14:51Z</time>
      </trkpt>
      <trkpt lat="45.98223" lon="4.67769">
        <ele>239</ele>
        <time>2016-10-16T10:14:52Z</time>
      </trkpt>
      <trkpt lat="45.9822" lon="4.67783">
        <ele>238</ele>
        <time>2016-10-16T10:14:53Z</time>
      </trkpt>
      <trkpt lat="45.98217" lon="4.67796">
        <ele>238</ele>
        <time>2016-10-16T10:14:54Z</time>
      </trkpt>
      <trkpt lat="45.98214" lon="4.6781">
        <ele>237</ele>
        <time>2016-10-16T10:14:55Z</time>
      </trkpt>
      <trkpt lat="45.98212" lon="4.67825">
        <ele>237</ele>
        <time>2016-10-16T10:14:56Z</time>
      </trkpt>
      <trkpt lat="45.9821" lon="4.67841">
        <ele>233</ele>
        <time>2016-10-16T10:14:57Z</time>
      </trkpt>
      <trkpt lat="45.98209" lon="4.67857">
        <ele>233</ele>
        <time>2016-10-16T10:14:58Z</time>
      </trkpt>
      <trkpt lat="45.98209" lon="4.67873">
        <ele>233</ele>
        <time>2016-10-16T10:14:59Z</time>
      </trkpt>
      <trkpt lat="45.9821" lon="4.67889">
        <ele>232</ele>
        <time>2016-10-16T10:15:00Z</time>
      </trkpt>
      <trkpt lat="45.98212" lon="4.67905">
        <ele>232</ele>
        <time>2016-10-16T10:15:01Z</time>
      </trkpt>
      <trkpt lat="45.98214" lon="4.67921">
        <ele>229</ele>
        <time>2016-10-16T10:15:02Z</time>
      </trkpt>
      <trkpt lat="45.98215" lon="4.67937">
        <ele>229</ele>
        <time>2016-10-16T10:15:03Z</time>
      </trkpt>
      <trkpt lat="45.98217" lon="4.67953">
        <ele>229</ele>
        <time>2016-10-16T10:15:04Z</time>
      </trkpt>
      <trkpt lat="45.98217" lon="4.67968">
        <ele>229</ele>
        <time>2016-10-16T10:15:05Z</time>
      </trkpt>
      <trkpt lat="45.98217" lon="4.67984">
        <ele>229</ele>
        <time>2016-10-16T10:15:06Z</time>
      </trkpt>
      <trkpt lat="45.98217" lon="4.67999">
        <ele>229</ele>
        <time>2016-10-16T10:15:07Z</time>
      </trkpt>
      <trkpt lat="45.98217" lon="4.68013">
        <ele>228</ele>
        <time>2016-10-16T10:15:08Z</time>
      </trkpt>
      <trkpt lat="45.98218" lon="4.68027">
        <ele>228</ele>
        <time>2016-10-16T10:15:09Z</time>
      </trkpt>
      <trkpt lat="45.98218" lon="4.6804">
        <ele>228</ele>
        <time>2016-10-16T10:15:10Z</time>
      </trkpt>
      <trkpt lat="45.98218" lon="4.68052">
        <ele>228</ele>
        <time>2016-10-16T10:15:11Z</time>
      </trkpt>
      <trkpt lat="45.98219" lon="4.68065">
        <ele>228</ele>
        <time>2016-10-16T10:15:12Z</time>
      </trkpt>
      <trkpt lat="45.98219" lon="4.68078">
        <ele>228</ele>
        <time>2016-10-16T10:15:13Z</time>
      </trkpt>
      <trkpt lat="45.98218" lon="4.6809">
        <ele>228</ele>
        <time>2016-10-16T10:15:14Z</time>
      </trkpt>
      <trkpt lat="45.98219" lon="4.68102">
        <ele>228</ele>
        <time>2016-10-16T10:15:15Z</time>
      </trkpt>
      <trkpt lat="45.98219" lon="4.68113">
        <ele>228</ele>
        <time>2016-10-16T10:15:16Z</time>
      </trkpt>
      <trkpt lat="45.9822" lon="4.68125">
        <ele>228</ele>
        <time>2016-10-16T10:15:17Z</time>
      </trkpt>
      <trkpt lat="45.9822" lon="4.68136">
        <ele>228</ele>
        <time>2016-10-16T10:15:18Z</time>
      </trkpt>
      <trkpt lat="45.98221" lon="4.68148">
        <ele>228</ele>
        <time>2016-10-16T10:15:19Z</time>
      </trkpt>
      <trkpt lat="45.98221" lon="4.68159">
        <ele>228</ele>
        <time>2016-10-16T10:15:20Z</time>
      </trkpt>
      <trkpt lat="45.98221" lon="4.6817">
        <ele>227</ele>
        <time>2016-10-16T10:15:21Z</time>
      </trkpt>
      <trkpt lat="45.98221" lon="4.68181">
        <ele>227</ele>
        <time>2016-10-16T10:15:22Z</time>
      </trkpt>
      <trkpt lat="45.98221" lon="4.68192">
        <ele>226</ele>
        <time>2016-10-16T10:15:23Z</time>
      </trkpt>
      <trkpt lat="45.98221" lon="4.68203">
        <ele>226</ele>
        <time>2016-10-16T10:15:24Z</time>
      </trkpt>
      <trkpt lat="45.98221" lon="4.68214">
        <ele>226</ele>
        <time>2016-10-16T10:15:25Z</time>
      </trkpt>
      <trkpt lat="45.98222" lon="4.68225">
        <ele>226</ele>
        <time>2016-10-16T10:15:26Z</time>
      </trkpt>
      <trkpt lat="45.98223" lon="4.68235">
        <ele>225</ele>
        <time>2016-10-16T10:15:27Z</time>
      </trkpt>
      <trkpt lat="45.98224" lon="4.68245">
        <ele>225</ele>
        <time>2016-10-16T10:15:28Z</time>
      </trkpt>
      <trkpt lat="45.98225" lon="4.68254">
        <ele>223</ele>
        <time>2016-10-16T10:15:29Z</time>
      </trkpt>
      <trkpt lat="45.98225" lon="4.68262">
        <ele>223</ele>
        <time>2016-10-16T10:15:30Z</time>
      </trkpt>
      <trkpt lat="45.98226" lon="4.6827">
        <ele>222</ele>
        <time>2016-10-16T10:15:31Z</time>
      </trkpt>
      <trkpt lat="45.98227" lon="4.68278">
        <ele>222</ele>
        <time>2016-10-16T10:15:32Z</time>
      </trkpt>
      <trkpt lat="45.98228" lon="4.68287">
        <ele>222</ele>
        <time>2016-10-16T10:15:33Z</time>
      </trkpt>
      <trkpt lat="45.98229" lon="4.68296">
        <ele>222</ele>
        <time>2016-10-16T10:15:34Z</time>
      </trkpt>
      <trkpt lat="45.9823" lon="4.68305">
        <ele>221</ele>
        <time>2016-10-16T10:15:35Z</time>
      </trkpt>
      <trkpt lat="45.9823" lon="4.68314">
        <ele>221</ele>
        <time>2016-10-16T10:15:36Z</time>
      </trkpt>
      <trkpt lat="45.9823" lon="4.68324">
        <ele>221</ele>
        <time>2016-10-16T10:15:37Z</time>
      </trkpt>
      <trkpt lat="45.9823" lon="4.68333">
        <ele>221</ele>
        <time>2016-10-16T10:15:38Z</time>
      </trkpt>
      <trkpt lat="45.98231" lon="4.68343">
        <ele>218</ele>
        <time>2016-10-16T10:15:39Z</time>
      </trkpt>
      <trkpt lat="45.98231" lon="4.68354">
        <ele>218</ele>
        <time>2016-10-16T10:15:40Z</time>
      </trkpt>
      <trkpt lat="45.98231" lon="4.68365">
        <ele>218</ele>
        <time>2016-10-16T10:15:41Z</time>
      </trkpt>
      <trkpt lat="45.98232" lon="4.68376">
        <ele>217</ele>
        <time>2016-10-16T10:15:42Z</time>
      </trkpt>
      <trkpt lat="45.98231" lon="4.68387">
        <ele>217</ele>
        <time>2016-10-16T10:15:43Z</time>
      </trkpt>
      <trkpt lat="45.98231" lon="4.68399">
        <ele>217</ele>
        <time>2016-10-16T10:15:44Z</time>
      </trkpt>
      <trkpt lat="45.9823" lon="4.68411">
        <ele>217</ele>
        <time>2016-10-16T10:15:45Z</time>
      </trkpt>
      <trkpt lat="45.9823" lon="4.68423">
        <ele>215</ele>
        <time>2016-10-16T10:15:46Z</time>
      </trkpt>
      <trkpt lat="45.9823" lon="4.68436">
        <ele>214</ele>
        <time>2016-10-16T10:15:47Z</time>
      </trkpt>
      <trkpt lat="45.9823" lon="4.68448">
        <ele>214</ele>
        <time>2016-10-16T10:15:48Z</time>
      </trkpt>
      <trkpt lat="45.98229" lon="4.6846">
        <ele>213</ele>
        <time>2016-10-16T10:15:49Z</time>
      </trkpt>
      <trkpt lat="45.98229" lon="4.68472">
        <ele>213</ele>
        <time>2016-10-16T10:15:50Z</time>
      </trkpt>
      <trkpt lat="45.98229" lon="4.68484">
        <ele>213</ele>
        <time>2016-10-16T10:15:51Z</time>
      </trkpt>
      <trkpt lat="45.98228" lon="4.68497">
        <ele>213</ele>
        <time>2016-10-16T10:15:52Z</time>
      </trkpt>
      <trkpt lat="45.98227" lon="4.68511">
        <ele>211</ele>
        <time>2016-10-16T10:15:53Z</time>
      </trkpt>
      <trkpt lat="45.98225" lon="4.68524">
        <ele>210</ele>
        <time>2016-10-16T10:15:54Z</time>
      </trkpt>
      <trkpt lat="45.98225" lon="4.68539">
        <ele>210</ele>
        <time>2016-10-16T10:15:55Z</time>
      </trkpt>
      <trkpt lat="45.98225" lon="4.68554">
        <ele>210</ele>
        <time>2016-10-16T10:15:56Z</time>
      </trkpt>
      <trkpt lat="45.98227" lon="4.68569">
        <ele>210</ele>
        <time>2016-10-16T10:15:57Z</time>
      </trkpt>
      <trkpt lat="45.98229" lon="4.68582">
        <ele>210</ele>
        <time>2016-10-16T10:15:58Z</time>
      </trkpt>
      <trkpt lat="45.98231" lon="4.68595">
        <ele>209</ele>
        <time>2016-10-16T10:15:59Z</time>
      </trkpt>
      <trkpt lat="45.98232" lon="4.68606">
        <ele>209</ele>
        <time>2016-10-16T10:16:00Z</time>
      </trkpt>
      <trkpt lat="45.98232" lon="4.68617">
        <ele>208</ele>
        <time>2016-10-16T10:16:01Z</time>
      </trkpt>
      <trkpt lat="45.98232" lon="4.68629">
        <ele>208</ele>
        <time>2016-10-16T10:16:02Z</time>
      </trkpt>
      <trkpt lat="45.98231" lon="4.6864">
        <ele>208</ele>
        <time>2016-10-16T10:16:03Z</time>
      </trkpt>
      <trkpt lat="45.98229" lon="4.68652">
        <ele>208</ele>
        <time>2016-10-16T10:16:04Z</time>
      </trkpt>
      <trkpt lat="45.98226" lon="4.68664">
        <ele>208</ele>
        <time>2016-10-16T10:16:05Z</time>
      </trkpt>
      <trkpt lat="45.98223" lon="4.68676">
        <ele>207</ele>
        <time>2016-10-16T10:16:06Z</time>
      </trkpt>
      <trkpt lat="45.9822" lon="4.68689">
        <ele>207</ele>
        <time>2016-10-16T10:16:07Z</time>
      </trkpt>
      <trkpt lat="45.98217" lon="4.68702">
        <ele>206</ele>
        <time>2016-10-16T10:16:08Z</time>
      </trkpt>
      <trkpt lat="45.98216" lon="4.68716">
        <ele>206</ele>
        <time>2016-10-16T10:16:09Z</time>
      </trkpt>
      <trkpt lat="45.98214" lon="4.68729">
        <ele>206</ele>
        <time>2016-10-16T10:16:10Z</time>
      </trkpt>
      <trkpt lat="45.98212" lon="4.68742">
        <ele>206</ele>
        <time>2016-10-16T10:16:11Z</time>
      </trkpt>
      <trkpt lat="45.9821" lon="4.68754">
        <ele>204</ele>
        <time>2016-10-16T10:16:12Z</time>
      </trkpt>
      <trkpt lat="45.98207" lon="4.68767">
        <ele>204</ele>
        <time>2016-10-16T10:16:13Z</time>
      </trkpt>
      <trkpt lat="45.98205" lon="4.6878">
        <ele>204</ele>
        <time>2016-10-16T10:16:14Z</time>
      </trkpt>
      <trkpt lat="45.98204" lon="4.68792">
        <ele>204</ele>
        <time>2016-10-16T10:16:15Z</time>
      </trkpt>
      <trkpt lat="45.98203" lon="4.68805">
        <ele>204</ele>
        <time>2016-10-16T10:16:16Z</time>
      </trkpt>
      <trkpt lat="45.98202" lon="4.68817">
        <ele>203</ele>
        <time>2016-10-16T10:16:17Z</time>
      </trkpt>
      <trkpt lat="45.98201" lon="4.68829">
        <ele>203</ele>
        <time>2016-10-16T10:16:18Z</time>
      </trkpt>
      <trkpt lat="45.982" lon="4.6884">
        <ele>203</ele>
        <time>2016-10-16T10:16:19Z</time>
      </trkpt>
      <trkpt lat="45.98199" lon="4.68852">
        <ele>203</ele>
        <time>2016-10-16T10:16:20Z</time>
      </trkpt>
      <trkpt lat="45.98198" lon="4.68863">
        <ele>202</ele>
        <time>2016-10-16T10:16:21Z</time>
      </trkpt>
      <trkpt lat="45.98197" lon="4.68874">
        <ele>202</ele>
        <time>2016-10-16T10:16:22Z</time>
      </trkpt>
      <trkpt lat="45.98196" lon="4.68885">
        <ele>202</ele>
        <time>2016-10-16T10:16:23Z</time>
      </trkpt>
      <trkpt lat="45.98195" lon="4.68896">
        <ele>202</ele>
        <time>2016-10-16T10:16:24Z</time>
      </trkpt>
      <trkpt lat="45.98194" lon="4.68906">
        <ele>202</ele>
        <time>2016-10-16T10:16:25Z</time>
      </trkpt>
      <trkpt lat="45.98193" lon="4.68916">
        <ele>202</ele>
        <time>2016-10-16T10:16:26Z</time>
      </trkpt>
      <trkpt lat="45.98191" lon="4.68927">
        <ele>202</ele>
        <time>2016-10-16T10:16:27Z</time>
      </trkpt>
      <trkpt lat="45.9819" lon="4.68937">
        <ele>202</ele>
        <time>2016-10-16T10:16:28Z</time>
      </trkpt>
      <trkpt lat="45.98189" lon="4.68947">
        <ele>202</ele>
        <time>2016-10-16T10:16:29Z</time>
      </trkpt>
      <trkpt lat="45.98188" lon="4.68957">
        <ele>202</ele>
        <time>2016-10-16T10:16:30Z</time>
      </trkpt>
      <trkpt lat="45.98187" lon="4.68966">
        <ele>202</ele>
        <time>2016-10-16T10:16:31Z</time>
      </trkpt>
      <trkpt lat="45.98186" lon="4.68976">
        <ele>202</ele>
        <time>2016-10-16T10:16:32Z</time>
      </trkpt>
      <trkpt lat="45.98185" lon="4.68987">
        <ele>201</ele>
        <time>2016-10-16T10:16:33Z</time>
      </trkpt>
      <trkpt lat="45.98184" lon="4.68997">
        <ele>201</ele>
        <time>2016-10-16T10:16:34Z</time>
      </trkpt>
      <trkpt lat="45.98184" lon="4.69008">
        <ele>201</ele>
        <time>2016-10-16T10:16:35Z</time>
      </trkpt>
      <trkpt lat="45.98185" lon="4.6902">
        <ele>201</ele>
        <time>2016-10-16T10:16:36Z</time>
      </trkpt>
      <trkpt lat="45.98187" lon="4.69031">
        <ele>201</ele>
        <time>2016-10-16T10:16:37Z</time>
      </trkpt>
      <trkpt lat="45.98191" lon="4.69041">
        <ele>201</ele>
        <time>2016-10-16T10:16:38Z</time>
      </trkpt>
      <trkpt lat="45.98194" lon="4.69051">
        <ele>201</ele>
        <time>2016-10-16T10:16:39Z</time>
      </trkpt>
      <trkpt lat="45.98198" lon="4.6906">
        <ele>201</ele>
        <time>2016-10-16T10:16:40Z</time>
      </trkpt>
      <trkpt lat="45.98202" lon="4.6907">
        <ele>201</ele>
        <time>2016-10-16T10:16:41Z</time>
      </trkpt>
      <trkpt lat="45.98206" lon="4.69083">
        <ele>201</ele>
        <time>2016-10-16T10:16:42Z</time>
      </trkpt>
      <trkpt lat="45.9821" lon="4.69094">
        <ele>200</ele>
        <time>2016-10-16T10:16:43Z</time>
      </trkpt>
      <trkpt lat="45.98213" lon="4.69103">
        <ele>200</ele>
        <time>2016-10-16T10:16:44Z</time>
      </trkpt>
      <trkpt lat="45.98216" lon="4.69113">
        <ele>199</ele>
        <time>2016-10-16T10:16:45Z</time>
      </trkpt>
      <trkpt lat="45.98219" lon="4.69123">
        <ele>199</ele>
        <time>2016-10-16T10:16:46Z</time>
      </trkpt>
      <trkpt lat="45.98223" lon="4.69132">
        <ele>199</ele>
        <time>2016-10-16T10:16:47Z</time>
      </trkpt>
      <trkpt lat="45.98224" lon="4.69144">
        <ele>199</ele>
        <time>2016-10-16T10:16:48Z</time>
      </trkpt>
      <trkpt lat="45.98226" lon="4.69155">
        <ele>199</ele>
        <time>2016-10-16T10:16:49Z</time>
      </trkpt>
      <trkpt lat="45.98229" lon="4.69165">
        <ele>199</ele>
        <time>2016-10-16T10:16:50Z</time>
      </trkpt>
      <trkpt lat="45.98229" lon="4.69175">
        <ele>197</ele>
        <time>2016-10-16T10:16:51Z</time>
      </trkpt>
      <trkpt lat="45.98229" lon="4.69187">
        <ele>197</ele>
        <time>2016-10-16T10:16:52Z</time>
      </trkpt>
      <trkpt lat="45.98228" lon="4.69198">
        <ele>196</ele>
        <time>2016-10-16T10:16:53Z</time>
      </trkpt>
      <trkpt lat="45.98227" lon="4.6921">
        <ele>196</ele>
        <time>2016-10-16T10:16:54Z</time>
      </trkpt>
      <trkpt lat="45.98225" lon="4.69223">
        <ele>196</ele>
        <time>2016-10-16T10:16:55Z</time>
      </trkpt>
      <trkpt lat="45.98222" lon="4.69236">
        <ele>196</ele>
        <time>2016-10-16T10:16:56Z</time>
      </trkpt>
      <trkpt lat="45.98219" lon="4.69249">
        <ele>195</ele>
        <time>2016-10-16T10:16:57Z</time>
      </trkpt>
      <trkpt lat="45.98217" lon="4.69261">
        <ele>194</ele>
        <time>2016-10-16T10:16:58Z</time>
      </trkpt>
      <trkpt lat="45.98215" lon="4.69274">
        <ele>194</ele>
        <time>2016-10-16T10:16:59Z</time>
      </trkpt>
      <trkpt lat="45.98213" lon="4.69287">
        <ele>194</ele>
        <time>2016-10-16T10:17:00Z</time>
      </trkpt>
      <trkpt lat="45.98211" lon="4.69298">
        <ele>194</ele>
        <time>2016-10-16T10:17:01Z</time>
      </trkpt>
      <trkpt lat="45.98209" lon="4.69308">
        <ele>194</ele>
        <time>2016-10-16T10:17:02Z</time>
      </trkpt>
      <trkpt lat="45.98207" lon="4.69316">
        <ele>194</ele>
        <time>2016-10-16T10:17:03Z</time>
      </trkpt>
      <trkpt lat="45.98204" lon="4.69322">
        <ele>194</ele>
        <time>2016-10-16T10:17:04Z</time>
      </trkpt>
      <trkpt lat="45.98201" lon="4.69328">
        <ele>194</ele>
        <time>2016-10-16T10:17:05Z</time>
      </trkpt>
      <trkpt lat="45.98199" lon="4.69336">
        <ele>193</ele>
        <time>2016-10-16T10:17:06Z</time>
      </trkpt>
      <trkpt lat="45.98198" lon="4.69344">
        <ele>193</ele>
        <time>2016-10-16T10:17:07Z</time>
      </trkpt>
      <trkpt lat="45.98197" lon="4.69353">
        <ele>193</ele>
        <time>2016-10-16T10:17:08Z</time>
      </trkpt>
      <trkpt lat="45.98195" lon="4.6936">
        <ele>193</ele>
        <time>2016-10-16T10:17:09Z</time>
      </trkpt>
      <trkpt lat="45.98195" lon="4.69369">
        <ele>193</ele>
        <time>2016-10-16T10:17:10Z</time>
      </trkpt>
      <trkpt lat="45.98193" lon="4.69377">
        <ele>194</ele>
        <time>2016-10-16T10:17:11Z</time>
      </trkpt>
      <trkpt lat="45.98191" lon="4.69385">
        <ele>194</ele>
        <time>2016-10-16T10:17:12Z</time>
      </trkpt>
      <trkpt lat="45.98189" lon="4.69393">
        <ele>194</ele>
        <time>2016-10-16T10:17:13Z</time>
      </trkpt>
      <trkpt lat="45.98186" lon="4.69401">
        <ele>194</ele>
        <time>2016-10-16T10:17:14Z</time>
      </trkpt>
      <trkpt lat="45.98183" lon="4.69409">
        <ele>194</ele>
        <time>2016-10-16T10:17:15Z</time>
      </trkpt>
      <trkpt lat="45.98181" lon="4.69417">
        <ele>194</ele>
        <time>2016-10-16T10:17:16Z</time>
      </trkpt>
      <trkpt lat="45.98179" lon="4.69426">
        <ele>194</ele>
        <time>2016-10-16T10:17:17Z</time>
      </trkpt>
      <trkpt lat="45.98177" lon="4.69434">
        <ele>194</ele>
        <time>2016-10-16T10:17:18Z</time>
      </trkpt>
      <trkpt lat="45.98175" lon="4.69442">
        <ele>194</ele>
        <time>2016-10-16T10:17:19Z</time>
      </trkpt>
      <trkpt lat="45.98173" lon="4.6945">
        <ele>194</ele>
        <time>2016-10-16T10:17:20Z</time>
      </trkpt>
      <trkpt lat="45.98171" lon="4.69457">
        <ele>194</ele>
        <time>2016-10-16T10:17:21Z</time>
      </trkpt>
      <trkpt lat="45.98168" lon="4.69464">
        <ele>194</ele>
        <time>2016-10-16T10:17:22Z</time>
      </trkpt>
      <trkpt lat="45.98164" lon="4.6947">
        <ele>195</ele>
        <time>2016-10-16T10:17:23Z</time>
      </trkpt>
      <trkpt lat="45.9816" lon="4.69476">
        <ele>195</ele>
        <time>2016-10-16T10:17:24Z</time>
      </trkpt>
      <trkpt lat="45.98157" lon="4.69482">
        <ele>195</ele>
        <time>2016-10-16T10:17:25Z</time>
      </trkpt>
      <trkpt lat="45.98155" lon="4.69489">
        <ele>195</ele>
        <time>2016-10-16T10:17:26Z</time>
      </trkpt>
      <trkpt lat="45.98154" lon="4.69497">
        <ele>195</ele>
        <time>2016-10-16T10:17:27Z</time>
      </trkpt>
      <trkpt lat="45.98153" lon="4.69505">
        <ele>196</ele>
        <time>2016-10-16T10:17:28Z</time>
      </trkpt>
      <trkpt lat="45.98152" lon="4.69512">
        <ele>196</ele>
        <time>2016-10-16T10:17:29Z</time>
      </trkpt>
      <trkpt lat="45.98151" lon="4.69519">
        <ele>196</ele>
        <time>2016-10-16T10:17:30Z</time>
      </trkpt>
      <trkpt lat="45.98149" lon="4.69526">
        <ele>196</ele>
        <time>2016-10-16T10:17:31Z</time>
      </trkpt>
      <trkpt lat="45.98146" lon="4.69532">
        <ele>196</ele>
        <time>2016-10-16T10:17:32Z</time>
      </trkpt>
      <trkpt lat="45.98144" lon="4.69539">
        <ele>197</ele>
        <time>2016-10-16T10:17:33Z</time>
      </trkpt>
      <trkpt lat="45.98142" lon="4.69546">
        <ele>197</ele>
        <time>2016-10-16T10:17:34Z</time>
      </trkpt>
      <trkpt lat="45.9814" lon="4.69554">
        <ele>197</ele>
        <time>2016-10-16T10:17:35Z</time>
      </trkpt>
      <trkpt lat="45.98138" lon="4.69562">
        <ele>197</ele>
        <time>2016-10-16T10:17:36Z</time>
      </trkpt>
      <trkpt lat="45.98136" lon="4.69569">
        <ele>197</ele>
        <time>2016-10-16T10:17:37Z</time>
      </trkpt>
      <trkpt lat="45.98134" lon="4.69575">
        <ele>197</ele>
        <time>2016-10-16T10:17:38Z</time>
      </trkpt>
      <trkpt lat="45.98132" lon="4.69581">
        <ele>197</ele>
        <time>2016-10-16T10:17:39Z</time>
      </trkpt>
      <trkpt lat="45.98127" lon="4.69592">
        <ele>198</ele>
        <time>2016-10-16T10:17:41Z</time>
      </trkpt>
      <trkpt lat="45.98125" lon="4.69598">
        <ele>198</ele>
        <time>2016-10-16T10:17:42Z</time>
      </trkpt>
      <trkpt lat="45.98121" lon="4.69609">
        <ele>198</ele>
        <time>2016-10-16T10:17:44Z</time>
      </trkpt>
      <trkpt lat="45.9812" lon="4.69614">
        <ele>198</ele>
        <time>2016-10-16T10:17:45Z</time>
      </trkpt>
      <trkpt lat="45.98116" lon="4.69624">
        <ele>199</ele>
        <time>2016-10-16T10:17:47Z</time>
      </trkpt>
      <trkpt lat="45.98115" lon="4.69628">
        <ele>199</ele>
        <time>2016-10-16T10:17:48Z</time>
      </trkpt>
      <trkpt lat="45.98112" lon="4.69638">
        <ele>199</ele>
        <time>2016-10-16T10:17:50Z</time>
      </trkpt>
      <trkpt lat="45.9811" lon="4.69642">
        <ele>199</ele>
        <time>2016-10-16T10:17:51Z</time>
      </trkpt>
      <trkpt lat="45.98107" lon="4.69652">
        <ele>199</ele>
        <time>2016-10-16T10:17:53Z</time>
      </trkpt>
      <trkpt lat="45.98106" lon="4.69656">
        <ele>199</ele>
        <time>2016-10-16T10:17:54Z</time>
      </trkpt>
      <trkpt lat="45.98102" lon="4.69663">
        <ele>199</ele>
        <time>2016-10-16T10:17:56Z</time>
      </trkpt>
      <trkpt lat="45.981" lon="4.69667">
        <ele>200</ele>
        <time>2016-10-16T10:17:57Z</time>
      </trkpt>
      <trkpt lat="45.98097" lon="4.69675">
        <ele>200</ele>
        <time>2016-10-16T10:17:59Z</time>
      </trkpt>
      <trkpt lat="45.98094" lon="4.69678">
        <ele>200</ele>
        <time>2016-10-16T10:18:00Z</time>
      </trkpt>
      <trkpt lat="45.9809" lon="4.69684">
        <ele>200</ele>
        <time>2016-10-16T10:18:02Z</time>
      </trkpt>
      <trkpt lat="45.98088" lon="4.69687">
        <ele>200</ele>
        <time>2016-10-16T10:18:03Z</time>
      </trkpt>
      <trkpt lat="45.98083" lon="4.69694">
        <ele>201</ele>
        <time>2016-10-16T10:18:05Z</time>
      </trkpt>
      <trkpt lat="45.98081" lon="4.69698">
        <ele>202</ele>
        <time>2016-10-16T10:18:06Z</time>
      </trkpt>
      <trkpt lat="45.98078" lon="4.69705">
        <ele>202</ele>
        <time>2016-10-16T10:18:08Z</time>
      </trkpt>
      <trkpt lat="45.98076" lon="4.69708">
        <ele>202</ele>
        <time>2016-10-16T10:18:09Z</time>
      </trkpt>
      <trkpt lat="45.9807" lon="4.69715">
        <ele>202</ele>
        <time>2016-10-16T10:18:11Z</time>
      </trkpt>
      <trkpt lat="45.98067" lon="4.69718">
        <ele>202</ele>
        <time>2016-10-16T10:18:12Z</time>
      </trkpt>
      <trkpt lat="45.98065" lon="4.69721">
        <ele>202</ele>
        <time>2016-10-16T10:18:13Z</time>
      </trkpt>
      <trkpt lat="45.98061" lon="4.69727">
        <ele>202</ele>
        <time>2016-10-16T10:18:15Z</time>
      </trkpt>
      <trkpt lat="45.98057" lon="4.69733">
        <ele>202</ele>
        <time>2016-10-16T10:18:17Z</time>
      </trkpt>
      <trkpt lat="45.98055" lon="4.69736">
        <ele>202</ele>
        <time>2016-10-16T10:18:18Z</time>
      </trkpt>
      <trkpt lat="45.98051" lon="4.69743">
        <ele>203</ele>
        <time>2016-10-16T10:18:20Z</time>
      </trkpt>
      <trkpt lat="45.98047" lon="4.6975">
        <ele>203</ele>
        <time>2016-10-16T10:18:22Z</time>
      </trkpt>
      <trkpt lat="45.98043" lon="4.69757">
        <ele>205</ele>
        <time>2016-10-16T10:18:24Z</time>
      </trkpt>
      <trkpt lat="45.98039" lon="4.69764">
        <ele>205</ele>
        <time>2016-10-16T10:18:26Z</time>
      </trkpt>
      <trkpt lat="45.98035" lon="4.69771">
        <ele>206</ele>
        <time>2016-10-16T10:18:28Z</time>
      </trkpt>
      <trkpt lat="45.98031" lon="4.6978">
        <ele>206</ele>
        <time>2016-10-16T10:18:31Z</time>
      </trkpt>
      <trkpt lat="45.9802" lon="4.69791">
        <ele>206</ele>
        <time>2016-10-16T10:18:36Z</time>
      </trkpt>
      <trkpt lat="45.98013" lon="4.69795">
        <ele>206</ele>
        <time>2016-10-16T10:18:38Z</time>
      </trkpt>
      <trkpt lat="45.98004" lon="4.69809">
        <ele>207</ele>
        <time>2016-10-16T10:18:42Z</time>
      </trkpt>
      <trkpt lat="45.97999" lon="4.69815">
        <ele>207</ele>
        <time>2016-10-16T10:18:44Z</time>
      </trkpt>
      <trkpt lat="45.97996" lon="4.69818">
        <ele>207</ele>
        <time>2016-10-16T10:18:45Z</time>
      </trkpt>
      <trkpt lat="45.97989" lon="4.69821">
        <ele>207</ele>
        <time>2016-10-16T10:18:47Z</time>
      </trkpt>
      <trkpt lat="45.97986" lon="4.69824">
        <ele>207</ele>
        <time>2016-10-16T10:18:48Z</time>
      </trkpt>
      <trkpt lat="45.9798" lon="4.69831">
        <ele>207</ele>
        <time>2016-10-16T10:18:50Z</time>
      </trkpt>
      <trkpt lat="45.97978" lon="4.69835">
        <ele>208</ele>
        <time>2016-10-16T10:18:51Z</time>
      </trkpt>
      <trkpt lat="45.97975" lon="4.69839">
        <ele>209</ele>
        <time>2016-10-16T10:18:52Z</time>
      </trkpt>
      <trkpt lat="45.9797" lon="4.69845">
        <ele>209</ele>
        <time>2016-10-16T10:18:54Z</time>
      </trkpt>
      <trkpt lat="45.97965" lon="4.69852">
        <ele>209</ele>
        <time>2016-10-16T10:18:56Z</time>
      </trkpt>
      <trkpt lat="45.97963" lon="4.69856">
        <ele>209</ele>
        <time>2016-10-16T10:18:57Z</time>
      </trkpt>
      <trkpt lat="45.97958" lon="4.69862">
        <ele>209</ele>
        <time>2016-10-16T10:18:59Z</time>
      </trkpt>
      <trkpt lat="45.97956" lon="4.69865">
        <ele>209</ele>
        <time>2016-10-16T10:19:00Z</time>
      </trkpt>
      <trkpt lat="45.97952" lon="4.69871">
        <ele>209</ele>
        <time>2016-10-16T10:19:02Z</time>
      </trkpt>
      <trkpt lat="45.9795" lon="4.69875">
        <ele>209</ele>
        <time>2016-10-16T10:19:03Z</time>
      </trkpt>
      <trkpt lat="45.97945" lon="4.69881">
        <ele>209</ele>
        <time>2016-10-16T10:19:05Z</time>
      </trkpt>
      <trkpt lat="45.97943" lon="4.69885">
        <ele>209</ele>
        <time>2016-10-16T10:19:06Z</time>
      </trkpt>
      <trkpt lat="45.97938" lon="4.69895">
        <ele>210</ele>
        <time>2016-10-16T10:19:09Z</time>
      </trkpt>
      <trkpt lat="45.97936" lon="4.69898">
        <ele>210</ele>
        <time>2016-10-16T10:19:10Z</time>
      </trkpt>
      <trkpt lat="45.9793" lon="4.69906">
        <ele>210</ele>
        <time>2016-10-16T10:19:13Z</time>
      </trkpt>
      <trkpt lat="45.97928" lon="4.69908">
        <ele>210</ele>
        <time>2016-10-16T10:19:14Z</time>
      </trkpt>
      <trkpt lat="45.97923" lon="4.69916">
        <ele>211</ele>
        <time>2016-10-16T10:19:17Z</time>
      </trkpt>
      <trkpt lat="45.97921" lon="4.6992">
        <ele>212</ele>
        <time>2016-10-16T10:19:18Z</time>
      </trkpt>
      <trkpt lat="45.97916" lon="4.69925">
        <ele>212</ele>
        <time>2016-10-16T10:19:21Z</time>
      </trkpt>
      <trkpt lat="45.97913" lon="4.69927">
        <ele>212</ele>
        <time>2016-10-16T10:19:22Z</time>
      </trkpt>
      <trkpt lat="45.97905" lon="4.69932">
        <ele>213</ele>
        <time>2016-10-16T10:19:24Z</time>
      </trkpt>
      <trkpt lat="45.97901" lon="4.69934">
        <ele>213</ele>
        <time>2016-10-16T10:19:25Z</time>
      </trkpt>
      <trkpt lat="45.97896" lon="4.69939">
        <ele>213</ele>
        <time>2016-10-16T10:19:27Z</time>
      </trkpt>
      <trkpt lat="45.97894" lon="4.69942">
        <ele>214</ele>
        <time>2016-10-16T10:19:28Z</time>
      </trkpt>
      <trkpt lat="45.97888" lon="4.69949">
        <ele>214</ele>
        <time>2016-10-16T10:19:31Z</time>
      </trkpt>
      <trkpt lat="45.97886" lon="4.69952">
        <ele>214</ele>
        <time>2016-10-16T10:19:32Z</time>
      </trkpt>
      <trkpt lat="45.9788" lon="4.6996">
        <ele>214</ele>
        <time>2016-10-16T10:19:35Z</time>
      </trkpt>
      <trkpt lat="45.97878" lon="4.69963">
        <ele>214</ele>
        <time>2016-10-16T10:19:36Z</time>
      </trkpt>
      <trkpt lat="45.97872" lon="4.69972">
        <ele>215</ele>
        <time>2016-10-16T10:19:39Z</time>
      </trkpt>
      <trkpt lat="45.97869" lon="4.69975">
        <ele>215</ele>
        <time>2016-10-16T10:19:40Z</time>
      </trkpt>
      <trkpt lat="45.97862" lon="4.69982">
        <ele>215</ele>
        <time>2016-10-16T10:19:43Z</time>
      </trkpt>
      <trkpt lat="45.9786" lon="4.69984">
        <ele>215</ele>
        <time>2016-10-16T10:19:44Z</time>
      </trkpt>
      <trkpt lat="45.97855" lon="4.6999">
        <ele>215</ele>
        <time>2016-10-16T10:19:47Z</time>
      </trkpt>
      <trkpt lat="45.97853" lon="4.69992">
        <ele>216</ele>
        <time>2016-10-16T10:19:48Z</time>
      </trkpt>
      <trkpt lat="45.97847" lon="4.69999">
        <ele>216</ele>
        <time>2016-10-16T10:19:51Z</time>
      </trkpt>
      <trkpt lat="45.97845" lon="4.70002">
        <ele>217</ele>
        <time>2016-10-16T10:19:52Z</time>
      </trkpt>
      <trkpt lat="45.97839" lon="4.70009">
        <ele>217</ele>
        <time>2016-10-16T10:19:55Z</time>
      </trkpt>
      <trkpt lat="45.97836" lon="4.70011">
        <ele>217</ele>
        <time>2016-10-16T10:19:56Z</time>
      </trkpt>
      <trkpt lat="45.9783" lon="4.7002">
        <ele>218</ele>
        <time>2016-10-16T10:19:59Z</time>
      </trkpt>
      <trkpt lat="45.97827" lon="4.70023">
        <ele>218</ele>
        <time>2016-10-16T10:20:00Z</time>
      </trkpt>
      <trkpt lat="45.97821" lon="4.70032">
        <ele>218</ele>
        <time>2016-10-16T10:20:03Z</time>
      </trkpt>
      <trkpt lat="45.9782" lon="4.70035">
        <ele>219</ele>
        <time>2016-10-16T10:20:04Z</time>
      </trkpt>
      <trkpt lat="45.97815" lon="4.70044">
        <ele>219</ele>
        <time>2016-10-16T10:20:07Z</time>
      </trkpt>
      <trkpt lat="45.97814" lon="4.70047">
        <ele>219</ele>
        <time>2016-10-16T10:20:08Z</time>
      </trkpt>
      <trkpt lat="45.97811" lon="4.70058">
        <ele>219</ele>
        <time>2016-10-16T10:20:11Z</time>
      </trkpt>
      <trkpt lat="45.97811" lon="4.70062">
        <ele>219</ele>
        <time>2016-10-16T10:20:12Z</time>
      </trkpt>
      <trkpt lat="45.97811" lon="4.70072">
        <ele>219</ele>
        <time>2016-10-16T10:20:14Z</time>
      </trkpt>
      <trkpt lat="45.97811" lon="4.70076">
        <ele>219</ele>
        <time>2016-10-16T10:20:15Z</time>
      </trkpt>
      <trkpt lat="45.97811" lon="4.70085">
        <ele>220</ele>
        <time>2016-10-16T10:20:17Z</time>
      </trkpt>
      <trkpt lat="45.97811" lon="4.70089">
        <ele>221</ele>
        <time>2016-10-16T10:20:18Z</time>
      </trkpt>
      <trkpt lat="45.97811" lon="4.70098">
        <ele>221</ele>
        <time>2016-10-16T10:20:20Z</time>
      </trkpt>
      <trkpt lat="45.97811" lon="4.70103">
        <ele>221</ele>
        <time>2016-10-16T10:20:21Z</time>
      </trkpt>
      <trkpt lat="45.9781" lon="4.70113">
        <ele>221</ele>
        <time>2016-10-16T10:20:23Z</time>
      </trkpt>
      <trkpt lat="45.9781" lon="4.70117">
        <ele>221</ele>
        <time>2016-10-16T10:20:24Z</time>
      </trkpt>
      <trkpt lat="45.9781" lon="4.70126">
        <ele>221</ele>
        <time>2016-10-16T10:20:26Z</time>
      </trkpt>
      <trkpt lat="45.97811" lon="4.7013">
        <ele>221</ele>
        <time>2016-10-16T10:20:27Z</time>
      </trkpt>
      <trkpt lat="45.97811" lon="4.70143">
        <ele>221</ele>
        <time>2016-10-16T10:20:30Z</time>
      </trkpt>
      <trkpt lat="45.97811" lon="4.70147">
        <ele>221</ele>
        <time>2016-10-16T10:20:31Z</time>
      </trkpt>
      <trkpt lat="45.9781" lon="4.70157">
        <ele>221</ele>
        <time>2016-10-16T10:20:33Z</time>
      </trkpt>
      <trkpt lat="45.9781" lon="4.70162">
        <ele>221</ele>
        <time>2016-10-16T10:20:34Z</time>
      </trkpt>
      <trkpt lat="45.9781" lon="4.70172">
        <ele>222</ele>
        <time>2016-10-16T10:20:36Z</time>
      </trkpt>
      <trkpt lat="45.9781" lon="4.70178">
        <ele>222</ele>
        <time>2016-10-16T10:20:37Z</time>
      </trkpt>
      <trkpt lat="45.97809" lon="4.70189">
        <ele>223</ele>
        <time>2016-10-16T10:20:39Z</time>
      </trkpt>
      <trkpt lat="45.97809" lon="4.70195">
        <ele>223</ele>
        <time>2016-10-16T10:20:40Z</time>
      </trkpt>
      <trkpt lat="45.97809" lon="4.70207">
        <ele>223</ele>
        <time>2016-10-16T10:20:42Z</time>
      </trkpt>
      <trkpt lat="45.97809" lon="4.70213">
        <ele>223</ele>
        <time>2016-10-16T10:20:43Z</time>
      </trkpt>
      <trkpt lat="45.97809" lon="4.70225">
        <ele>223</ele>
        <time>2016-10-16T10:20:45Z</time>
      </trkpt>
      <trkpt lat="45.97809" lon="4.7023">
        <ele>223</ele>
        <time>2016-10-16T10:20:46Z</time>
      </trkpt>
      <trkpt lat="45.97809" lon="4.70242">
        <ele>223</ele>
        <time>2016-10-16T10:20:48Z</time>
      </trkpt>
      <trkpt lat="45.97809" lon="4.70248">
        <ele>223</ele>
        <time>2016-10-16T10:20:49Z</time>
      </trkpt>
      <trkpt lat="45.97809" lon="4.70261">
        <ele>223</ele>
        <time>2016-10-16T10:20:51Z</time>
      </trkpt>
      <trkpt lat="45.97809" lon="4.70267">
        <ele>223</ele>
        <time>2016-10-16T10:20:52Z</time>
      </trkpt>
      <trkpt lat="45.97809" lon="4.70278">
        <ele>223</ele>
        <time>2016-10-16T10:20:54Z</time>
      </trkpt>
      <trkpt lat="45.97808" lon="4.70284">
        <ele>223</ele>
        <time>2016-10-16T10:20:55Z</time>
      </trkpt>
      <trkpt lat="45.97807" lon="4.70296">
        <ele>223</ele>
        <time>2016-10-16T10:20:57Z</time>
      </trkpt>
      <trkpt lat="45.97808" lon="4.70302">
        <ele>223</ele>
        <time>2016-10-16T10:20:58Z</time>
      </trkpt>
      <trkpt lat="45.97808" lon="4.70314">
        <ele>223</ele>
        <time>2016-10-16T10:21:00Z</time>
      </trkpt>
      <trkpt lat="45.97807" lon="4.7032">
        <ele>223</ele>
        <time>2016-10-16T10:21:01Z</time>
      </trkpt>
      <trkpt lat="45.97807" lon="4.70327">
        <ele>223</ele>
        <time>2016-10-16T10:21:02Z</time>
      </trkpt>
      <trkpt lat="45.97806" lon="4.70334">
        <ele>222</ele>
        <time>2016-10-16T10:21:03Z</time>
      </trkpt>
      <trkpt lat="45.97805" lon="4.70342">
        <ele>222</ele>
        <time>2016-10-16T10:21:04Z</time>
      </trkpt>
      <trkpt lat="45.97804" lon="4.7035">
        <ele>222</ele>
        <time>2016-10-16T10:21:05Z</time>
      </trkpt>
      <trkpt lat="45.97804" lon="4.70358">
        <ele>222</ele>
        <time>2016-10-16T10:21:06Z</time>
      </trkpt>
      <trkpt lat="45.97803" lon="4.70366">
        <ele>222</ele>
        <time>2016-10-16T10:21:07Z</time>
      </trkpt>
      <trkpt lat="45.97802" lon="4.70375">
        <ele>222</ele>
        <time>2016-10-16T10:21:08Z</time>
      </trkpt>
      <trkpt lat="45.97801" lon="4.70383">
        <ele>222</ele>
        <time>2016-10-16T10:21:09Z</time>
      </trkpt>
      <trkpt lat="45.978" lon="4.70391">
        <ele>222</ele>
        <time>2016-10-16T10:21:10Z</time>
      </trkpt>
      <trkpt lat="45.97799" lon="4.70399">
        <ele>222</ele>
        <time>2016-10-16T10:21:11Z</time>
      </trkpt>
      <trkpt lat="45.97797" lon="4.70407">
        <ele>222</ele>
        <time>2016-10-16T10:21:12Z</time>
      </trkpt>
      <trkpt lat="45.97795" lon="4.70413">
        <ele>222</ele>
        <time>2016-10-16T10:21:13Z</time>
      </trkpt>
      <trkpt lat="45.97793" lon="4.7042">
        <ele>221</ele>
        <time>2016-10-16T10:21:14Z</time>
      </trkpt>
      <trkpt lat="45.97791" lon="4.70426">
        <ele>222</ele>
        <time>2016-10-16T10:21:15Z</time>
      </trkpt>
      <trkpt lat="45.97789" lon="4.70438">
        <ele>222</ele>
        <time>2016-10-16T10:21:17Z</time>
      </trkpt>
      <trkpt lat="45.97788" lon="4.70443">
        <ele>222</ele>
        <time>2016-10-16T10:21:18Z</time>
      </trkpt>
      <trkpt lat="45.97787" lon="4.70455">
        <ele>222</ele>
        <time>2016-10-16T10:21:20Z</time>
      </trkpt>
      <trkpt lat="45.97787" lon="4.70461">
        <ele>222</ele>
        <time>2016-10-16T10:21:21Z</time>
      </trkpt>
      <trkpt lat="45.97786" lon="4.70473">
        <ele>222</ele>
        <time>2016-10-16T10:21:23Z</time>
      </trkpt>
      <trkpt lat="45.97786" lon="4.70479">
        <ele>222</ele>
        <time>2016-10-16T10:21:24Z</time>
      </trkpt>
      <trkpt lat="45.97787" lon="4.70486">
        <ele>222</ele>
        <time>2016-10-16T10:21:25Z</time>
      </trkpt>
      <trkpt lat="45.97787" lon="4.70492">
        <ele>222</ele>
        <time>2016-10-16T10:21:26Z</time>
      </trkpt>
      <trkpt lat="45.97787" lon="4.705">
        <ele>222</ele>
        <time>2016-10-16T10:21:27Z</time>
      </trkpt>
      <trkpt lat="45.97787" lon="4.70507">
        <ele>222</ele>
        <time>2016-10-16T10:21:28Z</time>
      </trkpt>
      <trkpt lat="45.97786" lon="4.70513">
        <ele>222</ele>
        <time>2016-10-16T10:21:29Z</time>
      </trkpt>
      <trkpt lat="45.97785" lon="4.7052">
        <ele>222</ele>
        <time>2016-10-16T10:21:30Z</time>
      </trkpt>
      <trkpt lat="45.97787" lon="4.70528">
        <ele>222</ele>
        <time>2016-10-16T10:21:31Z</time>
      </trkpt>
      <trkpt lat="45.97789" lon="4.70536">
        <ele>222</ele>
        <time>2016-10-16T10:21:32Z</time>
      </trkpt>
      <trkpt lat="45.9779" lon="4.70544">
        <ele>222</ele>
        <time>2016-10-16T10:21:33Z</time>
      </trkpt>
      <trkpt lat="45.97791" lon="4.70553">
        <ele>222</ele>
        <time>2016-10-16T10:21:34Z</time>
      </trkpt>
      <trkpt lat="45.97791" lon="4.70562">
        <ele>222</ele>
        <time>2016-10-16T10:21:35Z</time>
      </trkpt>
      <trkpt lat="45.97791" lon="4.70572">
        <ele>223</ele>
        <time>2016-10-16T10:21:36Z</time>
      </trkpt>
      <trkpt lat="45.97791" lon="4.70582">
        <ele>223</ele>
        <time>2016-10-16T10:21:37Z</time>
      </trkpt>
      <trkpt lat="45.9779" lon="4.70591">
        <ele>223</ele>
        <time>2016-10-16T10:21:38Z</time>
      </trkpt>
      <trkpt lat="45.9779" lon="4.70598">
        <ele>223</ele>
        <time>2016-10-16T10:21:39Z</time>
      </trkpt>
      <trkpt lat="45.9779" lon="4.70606">
        <ele>223</ele>
        <time>2016-10-16T10:21:40Z</time>
      </trkpt>
      <trkpt lat="45.9779" lon="4.70614">
        <ele>223</ele>
        <time>2016-10-16T10:21:41Z</time>
      </trkpt>
      <trkpt lat="45.97789" lon="4.70621">
        <ele>223</ele>
        <time>2016-10-16T10:21:42Z</time>
      </trkpt>
      <trkpt lat="45.97789" lon="4.70628">
        <ele>223</ele>
        <time>2016-10-16T10:21:43Z</time>
      </trkpt>
      <trkpt lat="45.97788" lon="4.70635">
        <ele>222</ele>
        <time>2016-10-16T10:21:44Z</time>
      </trkpt>
      <trkpt lat="45.97787" lon="4.70644">
        <ele>222</ele>
        <time>2016-10-16T10:21:45Z</time>
      </trkpt>
      <trkpt lat="45.97787" lon="4.70651">
        <ele>222</ele>
        <time>2016-10-16T10:21:46Z</time>
      </trkpt>
      <trkpt lat="45.97787" lon="4.70658">
        <ele>222</ele>
        <time>2016-10-16T10:21:47Z</time>
      </trkpt>
      <trkpt lat="45.97786" lon="4.70665">
        <ele>222</ele>
        <time>2016-10-16T10:21:48Z</time>
      </trkpt>
      <trkpt lat="45.97786" lon="4.70672">
        <ele>222</ele>
        <time>2016-10-16T10:21:49Z</time>
      </trkpt>
      <trkpt lat="45.97786" lon="4.7068">
        <ele>222</ele>
        <time>2016-10-16T10:21:50Z</time>
      </trkpt>
      <trkpt lat="45.97786" lon="4.70688">
        <ele>222</ele>
        <time>2016-10-16T10:21:51Z</time>
      </trkpt>
      <trkpt lat="45.97786" lon="4.70695">
        <ele>222</ele>
        <time>2016-10-16T10:21:52Z</time>
      </trkpt>
      <trkpt lat="45.97785" lon="4.70703">
        <ele>222</ele>
        <time>2016-10-16T10:21:53Z</time>
      </trkpt>
      <trkpt lat="45.97785" lon="4.7071">
        <ele>222</ele>
        <time>2016-10-16T10:21:54Z</time>
      </trkpt>
      <trkpt lat="45.97785" lon="4.70718">
        <ele>222</ele>
        <time>2016-10-16T10:21:55Z</time>
      </trkpt>
      <trkpt lat="45.97784" lon="4.70725">
        <ele>222</ele>
        <time>2016-10-16T10:21:56Z</time>
      </trkpt>
      <trkpt lat="45.97784" lon="4.70733">
        <ele>222</ele>
        <time>2016-10-16T10:21:57Z</time>
      </trkpt>
      <trkpt lat="45.97783" lon="4.70741">
        <ele>222</ele>
        <time>2016-10-16T10:21:58Z</time>
      </trkpt>
      <trkpt lat="45.97783" lon="4.70748">
        <ele>222</ele>
        <time>2016-10-16T10:21:59Z</time>
      </trkpt>
      <trkpt lat="45.97783" lon="4.70755">
        <ele>221</ele>
        <time>2016-10-16T10:22:00Z</time>
      </trkpt>
      <trkpt lat="45.97782" lon="4.70762">
        <ele>221</ele>
        <time>2016-10-16T10:22:01Z</time>
      </trkpt>
      <trkpt lat="45.97781" lon="4.70769">
        <ele>221</ele>
        <time>2016-10-16T10:22:02Z</time>
      </trkpt>
      <trkpt lat="45.97781" lon="4.70776">
        <ele>221</ele>
        <time>2016-10-16T10:22:03Z</time>
      </trkpt>
      <trkpt lat="45.97781" lon="4.70783">
        <ele>221</ele>
        <time>2016-10-16T10:22:04Z</time>
      </trkpt>
      <trkpt lat="45.97782" lon="4.7079">
        <ele>221</ele>
        <time>2016-10-16T10:22:05Z</time>
      </trkpt>
      <trkpt lat="45.97785" lon="4.70797">
        <ele>221</ele>
        <time>2016-10-16T10:22:06Z</time>
      </trkpt>
      <trkpt lat="45.97789" lon="4.70802">
        <ele>221</ele>
        <time>2016-10-16T10:22:07Z</time>
      </trkpt>
      <trkpt lat="45.97794" lon="4.70806">
        <ele>221</ele>
        <time>2016-10-16T10:22:08Z</time>
      </trkpt>
      <trkpt lat="45.97799" lon="4.7081">
        <ele>221</ele>
        <time>2016-10-16T10:22:09Z</time>
      </trkpt>
      <trkpt lat="45.97802" lon="4.70816">
        <ele>221</ele>
        <time>2016-10-16T10:22:10Z</time>
      </trkpt>
      <trkpt lat="45.97806" lon="4.70822">
        <ele>221</ele>
        <time>2016-10-16T10:22:11Z</time>
      </trkpt>
      <trkpt lat="45.97808" lon="4.70829">
        <ele>221</ele>
        <time>2016-10-16T10:22:12Z</time>
      </trkpt>
      <trkpt lat="45.9781" lon="4.70836">
        <ele>220</ele>
        <time>2016-10-16T10:22:13Z</time>
      </trkpt>
      <trkpt lat="45.97812" lon="4.70844">
        <ele>220</ele>
        <time>2016-10-16T10:22:14Z</time>
      </trkpt>
      <trkpt lat="45.97814" lon="4.70853">
        <ele>220</ele>
        <time>2016-10-16T10:22:15Z</time>
      </trkpt>
      <trkpt lat="45.97815" lon="4.70861">
        <ele>220</ele>
        <time>2016-10-16T10:22:16Z</time>
      </trkpt>
      <trkpt lat="45.97815" lon="4.7087">
        <ele>220</ele>
        <time>2016-10-16T10:22:17Z</time>
      </trkpt>
      <trkpt lat="45.97816" lon="4.70878">
        <ele>220</ele>
        <time>2016-10-16T10:22:18Z</time>
      </trkpt>
      <trkpt lat="45.97816" lon="4.70887">
        <ele>220</ele>
        <time>2016-10-16T10:22:19Z</time>
      </trkpt>
      <trkpt lat="45.97817" lon="4.70897">
        <ele>220</ele>
        <time>2016-10-16T10:22:20Z</time>
      </trkpt>
      <trkpt lat="45.97817" lon="4.70906">
        <ele>220</ele>
        <time>2016-10-16T10:22:21Z</time>
      </trkpt>
      <trkpt lat="45.97815" lon="4.70915">
        <ele>219</ele>
        <time>2016-10-16T10:22:22Z</time>
      </trkpt>
      <trkpt lat="45.97815" lon="4.70925">
        <ele>219</ele>
        <time>2016-10-16T10:22:23Z</time>
      </trkpt>
      <trkpt lat="45.97817" lon="4.70934">
        <ele>218</ele>
        <time>2016-10-16T10:22:24Z</time>
      </trkpt>
      <trkpt lat="45.9782" lon="4.70943">
        <ele>218</ele>
        <time>2016-10-16T10:22:25Z</time>
      </trkpt>
      <trkpt lat="45.97824" lon="4.70951">
        <ele>218</ele>
        <time>2016-10-16T10:22:26Z</time>
      </trkpt>
      <trkpt lat="45.97826" lon="4.70961">
        <ele>218</ele>
        <time>2016-10-16T10:22:27Z</time>
      </trkpt>
      <trkpt lat="45.97827" lon="4.70972">
        <ele>218</ele>
        <time>2016-10-16T10:22:28Z</time>
      </trkpt>
      <trkpt lat="45.97828" lon="4.70982">
        <ele>217</ele>
        <time>2016-10-16T10:22:29Z</time>
      </trkpt>
      <trkpt lat="45.97829" lon="4.70993">
        <ele>217</ele>
        <time>2016-10-16T10:22:30Z</time>
      </trkpt>
      <trkpt lat="45.9783" lon="4.71005">
        <ele>216</ele>
        <time>2016-10-16T10:22:31Z</time>
      </trkpt>
      <trkpt lat="45.97832" lon="4.71016">
        <ele>216</ele>
        <time>2016-10-16T10:22:32Z</time>
      </trkpt>
      <trkpt lat="45.97833" lon="4.71027">
        <ele>216</ele>
        <time>2016-10-16T10:22:33Z</time>
      </trkpt>
      <trkpt lat="45.97835" lon="4.71038">
        <ele>216</ele>
        <time>2016-10-16T10:22:34Z</time>
      </trkpt>
      <trkpt lat="45.97836" lon="4.7105">
        <ele>215</ele>
        <time>2016-10-16T10:22:35Z</time>
      </trkpt>
      <trkpt lat="45.97837" lon="4.71062">
        <ele>215</ele>
        <time>2016-10-16T10:22:36Z</time>
      </trkpt>
      <trkpt lat="45.97839" lon="4.71074">
        <ele>215</ele>
        <time>2016-10-16T10:22:37Z</time>
      </trkpt>
      <trkpt lat="45.97841" lon="4.71086">
        <ele>214</ele>
        <time>2016-10-16T10:22:38Z</time>
      </trkpt>
      <trkpt lat="45.97842" lon="4.71098">
        <ele>213</ele>
        <time>2016-10-16T10:22:39Z</time>
      </trkpt>
      <trkpt lat="45.97843" lon="4.7111">
        <ele>213</ele>
        <time>2016-10-16T10:22:40Z</time>
      </trkpt>
      <trkpt lat="45.97844" lon="4.71123">
        <ele>213</ele>
        <time>2016-10-16T10:22:41Z</time>
      </trkpt>
      <trkpt lat="45.97846" lon="4.71135">
        <ele>212</ele>
        <time>2016-10-16T10:22:42Z</time>
      </trkpt>
      <trkpt lat="45.97847" lon="4.71147">
        <ele>212</ele>
        <time>2016-10-16T10:22:43Z</time>
      </trkpt>
      <trkpt lat="45.97848" lon="4.7116">
        <ele>212</ele>
        <time>2016-10-16T10:22:44Z</time>
      </trkpt>
      <trkpt lat="45.97849" lon="4.71172">
        <ele>210</ele>
        <time>2016-10-16T10:22:45Z</time>
      </trkpt>
      <trkpt lat="45.9785" lon="4.71185">
        <ele>209</ele>
        <time>2016-10-16T10:22:46Z</time>
      </trkpt>
      <trkpt lat="45.97849" lon="4.71198">
        <ele>209</ele>
        <time>2016-10-16T10:22:47Z</time>
      </trkpt>
      <trkpt lat="45.97849" lon="4.71211">
        <ele>209</ele>
        <time>2016-10-16T10:22:48Z</time>
      </trkpt>
      <trkpt lat="45.97849" lon="4.71224">
        <ele>208</ele>
        <time>2016-10-16T10:22:49Z</time>
      </trkpt>
      <trkpt lat="45.97849" lon="4.71237">
        <ele>208</ele>
        <time>2016-10-16T10:22:50Z</time>
      </trkpt>
      <trkpt lat="45.97849" lon="4.7125">
        <ele>207</ele>
        <time>2016-10-16T10:22:51Z</time>
      </trkpt>
      <trkpt lat="45.97849" lon="4.71263">
        <ele>207</ele>
        <time>2016-10-16T10:22:52Z</time>
      </trkpt>
      <trkpt lat="45.97849" lon="4.71277">
        <ele>206</ele>
        <time>2016-10-16T10:22:53Z</time>
      </trkpt>
      <trkpt lat="45.97848" lon="4.7129">
        <ele>206</ele>
        <time>2016-10-16T10:22:54Z</time>
      </trkpt>
      <trkpt lat="45.97848" lon="4.71303">
        <ele>206</ele>
        <time>2016-10-16T10:22:55Z</time>
      </trkpt>
      <trkpt lat="45.97848" lon="4.71316">
        <ele>205</ele>
        <time>2016-10-16T10:22:56Z</time>
      </trkpt>
      <trkpt lat="45.97847" lon="4.7133">
        <ele>205</ele>
        <time>2016-10-16T10:22:57Z</time>
      </trkpt>
      <trkpt lat="45.97847" lon="4.71344">
        <ele>204</ele>
        <time>2016-10-16T10:22:58Z</time>
      </trkpt>
      <trkpt lat="45.97847" lon="4.71357">
        <ele>204</ele>
        <time>2016-10-16T10:22:59Z</time>
      </trkpt>
      <trkpt lat="45.97846" lon="4.7137">
        <ele>203</ele>
        <time>2016-10-16T10:23:00Z</time>
      </trkpt>
      <trkpt lat="45.97847" lon="4.71382">
        <ele>203</ele>
        <time>2016-10-16T10:23:01Z</time>
      </trkpt>
      <trkpt lat="45.97847" lon="4.71394">
        <ele>203</ele>
        <time>2016-10-16T10:23:02Z</time>
      </trkpt>
      <trkpt lat="45.97849" lon="4.71406">
        <ele>203</ele>
        <time>2016-10-16T10:23:03Z</time>
      </trkpt>
      <trkpt lat="45.9785" lon="4.71419">
        <ele>202</ele>
        <time>2016-10-16T10:23:04Z</time>
      </trkpt>
      <trkpt lat="45.97852" lon="4.7143">
        <ele>201</ele>
        <time>2016-10-16T10:23:05Z</time>
      </trkpt>
      <trkpt lat="45.97855" lon="4.71441">
        <ele>201</ele>
        <time>2016-10-16T10:23:06Z</time>
      </trkpt>
      <trkpt lat="45.97857" lon="4.71452">
        <ele>201</ele>
        <time>2016-10-16T10:23:07Z</time>
      </trkpt>
      <trkpt lat="45.97859" lon="4.71462">
        <ele>201</ele>
        <time>2016-10-16T10:23:08Z</time>
      </trkpt>
      <trkpt lat="45.97861" lon="4.71473">
        <ele>201</ele>
        <time>2016-10-16T10:23:09Z</time>
      </trkpt>
      <trkpt lat="45.97863" lon="4.71483">
        <ele>201</ele>
        <time>2016-10-16T10:23:10Z</time>
      </trkpt>
      <trkpt lat="45.97866" lon="4.71494">
        <ele>201</ele>
        <time>2016-10-16T10:23:11Z</time>
      </trkpt>
      <trkpt lat="45.97868" lon="4.71504">
        <ele>199</ele>
        <time>2016-10-16T10:23:12Z</time>
      </trkpt>
      <trkpt lat="45.97871" lon="4.71514">
        <ele>199</ele>
        <time>2016-10-16T10:23:13Z</time>
      </trkpt>
      <trkpt lat="45.97873" lon="4.71526">
        <ele>199</ele>
        <time>2016-10-16T10:23:14Z</time>
      </trkpt>
      <trkpt lat="45.97875" lon="4.71536">
        <ele>199</ele>
        <time>2016-10-16T10:23:15Z</time>
      </trkpt>
      <trkpt lat="45.97877" lon="4.71547">
        <ele>199</ele>
        <time>2016-10-16T10:23:16Z</time>
      </trkpt>
      <trkpt lat="45.97878" lon="4.71559">
        <ele>198</ele>
        <time>2016-10-16T10:23:17Z</time>
      </trkpt>
      <trkpt lat="45.9788" lon="4.71569">
        <ele>198</ele>
        <time>2016-10-16T10:23:18Z</time>
      </trkpt>
      <trkpt lat="45.9788" lon="4.7158">
        <ele>198</ele>
        <time>2016-10-16T10:23:19Z</time>
      </trkpt>
      <trkpt lat="45.9788" lon="4.71593">
        <ele>197</ele>
        <time>2016-10-16T10:23:20Z</time>
      </trkpt>
      <trkpt lat="45.9788" lon="4.71605">
        <ele>197</ele>
        <time>2016-10-16T10:23:21Z</time>
      </trkpt>
      <trkpt lat="45.9788" lon="4.71615">
        <ele>197</ele>
        <time>2016-10-16T10:23:22Z</time>
      </trkpt>
      <trkpt lat="45.9788" lon="4.71626">
        <ele>197</ele>
        <time>2016-10-16T10:23:23Z</time>
      </trkpt>
      <trkpt lat="45.9788" lon="4.71637">
        <ele>197</ele>
        <time>2016-10-16T10:23:24Z</time>
      </trkpt>
      <trkpt lat="45.9788" lon="4.71647">
        <ele>197</ele>
        <time>2016-10-16T10:23:25Z</time>
      </trkpt>
      <trkpt lat="45.97878" lon="4.71658">
        <ele>197</ele>
        <time>2016-10-16T10:23:26Z</time>
      </trkpt>
      <trkpt lat="45.97876" lon="4.71668">
        <ele>196</ele>
        <time>2016-10-16T10:23:27Z</time>
      </trkpt>
      <trkpt lat="45.97874" lon="4.71677">
        <ele>196</ele>
        <time>2016-10-16T10:23:28Z</time>
      </trkpt>
      <trkpt lat="45.97871" lon="4.71686">
        <ele>196</ele>
        <time>2016-10-16T10:23:29Z</time>
      </trkpt>
      <trkpt lat="45.9787" lon="4.71695">
        <ele>196</ele>
        <time>2016-10-16T10:23:30Z</time>
      </trkpt>
      <trkpt lat="45.97869" lon="4.71702">
        <ele>196</ele>
        <time>2016-10-16T10:23:31Z</time>
      </trkpt>
      <trkpt lat="45.97868" lon="4.71707">
        <ele>196</ele>
        <time>2016-10-16T10:23:32Z</time>
      </trkpt>
      <trkpt lat="45.97865" lon="4.71715">
        <ele>196</ele>
        <time>2016-10-16T10:23:34Z</time>
      </trkpt>
      <trkpt lat="45.97863" lon="4.71719">
        <ele>196</ele>
        <time>2016-10-16T10:23:35Z</time>
      </trkpt>
      <trkpt lat="45.97859" lon="4.71723">
        <ele>196</ele>
        <time>2016-10-16T10:23:36Z</time>
      </trkpt>
      <trkpt lat="45.97856" lon="4.71728">
        <ele>196</ele>
        <time>2016-10-16T10:23:37Z</time>
      </trkpt>
      <trkpt lat="45.97852" lon="4.71734">
        <ele>196</ele>
        <time>2016-10-16T10:23:38Z</time>
      </trkpt>
      <trkpt lat="45.97848" lon="4.71739">
        <ele>196</ele>
        <time>2016-10-16T10:23:39Z</time>
      </trkpt>
      <trkpt lat="45.97842" lon="4.71743">
        <ele>195</ele>
        <time>2016-10-16T10:23:40Z</time>
      </trkpt>
      <trkpt lat="45.97837" lon="4.71745">
        <ele>195</ele>
        <time>2016-10-16T10:23:41Z</time>
      </trkpt>
      <trkpt lat="45.97831" lon="4.71745">
        <ele>195</ele>
        <time>2016-10-16T10:23:42Z</time>
      </trkpt>
      <trkpt lat="45.97826" lon="4.71744">
        <ele>195</ele>
        <time>2016-10-16T10:23:43Z</time>
      </trkpt>
      <trkpt lat="45.9782" lon="4.71744">
        <ele>196</ele>
        <time>2016-10-16T10:23:44Z</time>
      </trkpt>
      <trkpt lat="45.97814" lon="4.71743">
        <ele>196</ele>
        <time>2016-10-16T10:23:45Z</time>
      </trkpt>
      <trkpt lat="45.97808" lon="4.71742">
        <ele>196</ele>
        <time>2016-10-16T10:23:46Z</time>
      </trkpt>
      <trkpt lat="45.97802" lon="4.71742">
        <ele>196</ele>
        <time>2016-10-16T10:23:47Z</time>
      </trkpt>
      <trkpt lat="45.97796" lon="4.71742">
        <ele>196</ele>
        <time>2016-10-16T10:23:48Z</time>
      </trkpt>
      <trkpt lat="45.9779" lon="4.71742">
        <ele>196</ele>
        <time>2016-10-16T10:23:49Z</time>
      </trkpt>
      <trkpt lat="45.97785" lon="4.71742">
        <ele>196</ele>
        <time>2016-10-16T10:23:50Z</time>
      </trkpt>
      <trkpt lat="45.9778" lon="4.71741">
        <ele>196</ele>
        <time>2016-10-16T10:23:51Z</time>
      </trkpt>
      <trkpt lat="45.97775" lon="4.7174">
        <ele>196</ele>
        <time>2016-10-16T10:23:52Z</time>
      </trkpt>
      <trkpt lat="45.97769" lon="4.71739">
        <ele>196</ele>
        <time>2016-10-16T10:23:53Z</time>
      </trkpt>
      <trkpt lat="45.97764" lon="4.71738">
        <ele>196</ele>
        <time>2016-10-16T10:23:54Z</time>
      </trkpt>
      <trkpt lat="45.97759" lon="4.71737">
        <ele>196</ele>
        <time>2016-10-16T10:23:55Z</time>
      </trkpt>
      <trkpt lat="45.97754" lon="4.71736">
        <ele>196</ele>
        <time>2016-10-16T10:23:56Z</time>
      </trkpt>
      <trkpt lat="45.97748" lon="4.71736">
        <ele>196</ele>
        <time>2016-10-16T10:23:57Z</time>
      </trkpt>
      <trkpt lat="45.97743" lon="4.71736">
        <ele>196</ele>
        <time>2016-10-16T10:23:58Z</time>
      </trkpt>
      <trkpt lat="45.97738" lon="4.71736">
        <ele>196</ele>
        <time>2016-10-16T10:23:59Z</time>
      </trkpt>
      <trkpt lat="45.97734" lon="4.71736">
        <ele>196</ele>
        <time>2016-10-16T10:24:00Z</time>
      </trkpt>
      <trkpt lat="45.97728" lon="4.71735">
        <ele>196</ele>
        <time>2016-10-16T10:24:01Z</time>
      </trkpt>
      <trkpt lat="45.97723" lon="4.71735">
        <ele>196</ele>
        <time>2016-10-16T10:24:02Z</time>
      </trkpt>
      <trkpt lat="45.97717" lon="4.71734">
        <ele>196</ele>
        <time>2016-10-16T10:24:03Z</time>
      </trkpt>
      <trkpt lat="45.97712" lon="4.71734">
        <ele>196</ele>
        <time>2016-10-16T10:24:04Z</time>
      </trkpt>
      <trkpt lat="45.97707" lon="4.71733">
        <ele>196</ele>
        <time>2016-10-16T10:24:05Z</time>
      </trkpt>
      <trkpt lat="45.97701" lon="4.71732">
        <ele>196</ele>
        <time>2016-10-16T10:24:06Z</time>
      </trkpt>
      <trkpt lat="45.97696" lon="4.71732">
        <ele>196</ele>
        <time>2016-10-16T10:24:07Z</time>
      </trkpt>
      <trkpt lat="45.97688" lon="4.71731">
        <ele>196</ele>
        <time>2016-10-16T10:24:09Z</time>
      </trkpt>
      <trkpt lat="45.97683" lon="4.7173">
        <ele>196</ele>
        <time>2016-10-16T10:24:10Z</time>
      </trkpt>
      <trkpt lat="45.97678" lon="4.71728">
        <ele>196</ele>
        <time>2016-10-16T10:24:11Z</time>
      </trkpt>
      <trkpt lat="45.97672" lon="4.71727">
        <ele>196</ele>
        <time>2016-10-16T10:24:12Z</time>
      </trkpt>
      <trkpt lat="45.97666" lon="4.71727">
        <ele>196</ele>
        <time>2016-10-16T10:24:13Z</time>
      </trkpt>
      <trkpt lat="45.97661" lon="4.71726">
        <ele>196</ele>
        <time>2016-10-16T10:24:14Z</time>
      </trkpt>
      <trkpt lat="45.97655" lon="4.71726">
        <ele>196</ele>
        <time>2016-10-16T10:24:15Z</time>
      </trkpt>
      <trkpt lat="45.97649" lon="4.71724">
        <ele>196</ele>
        <time>2016-10-16T10:24:16Z</time>
      </trkpt>
      <trkpt lat="45.97643" lon="4.71723">
        <ele>196</ele>
        <time>2016-10-16T10:24:17Z</time>
      </trkpt>
      <trkpt lat="45.9764" lon="4.71719">
        <ele>197</ele>
        <time>2016-10-16T10:24:18Z</time>
      </trkpt>
      <trkpt lat="45.97636" lon="4.71715">
        <ele>197</ele>
        <time>2016-10-16T10:24:19Z</time>
      </trkpt>
      <trkpt lat="45.97632" lon="4.71711">
        <ele>197</ele>
        <time>2016-10-16T10:24:20Z</time>
      </trkpt>
      <trkpt lat="45.97628" lon="4.71708">
        <ele>197</ele>
        <time>2016-10-16T10:24:21Z</time>
      </trkpt>
      <trkpt lat="45.97622" lon="4.71707">
        <ele>197</ele>
        <time>2016-10-16T10:24:22Z</time>
      </trkpt>
      <trkpt lat="45.97618" lon="4.71709">
        <ele>197</ele>
        <time>2016-10-16T10:24:23Z</time>
      </trkpt>
      <trkpt lat="45.97612" lon="4.71711">
        <ele>197</ele>
        <time>2016-10-16T10:24:24Z</time>
      </trkpt>
      <trkpt lat="45.97608" lon="4.71714">
        <ele>197</ele>
        <time>2016-10-16T10:24:25Z</time>
      </trkpt>
      <trkpt lat="45.97602" lon="4.71717">
        <ele>197</ele>
        <time>2016-10-16T10:24:26Z</time>
      </trkpt>
      <trkpt lat="45.97596" lon="4.71719">
        <ele>197</ele>
        <time>2016-10-16T10:24:27Z</time>
      </trkpt>
      <trkpt lat="45.97591" lon="4.7172">
        <ele>197</ele>
        <time>2016-10-16T10:24:28Z</time>
      </trkpt>
      <trkpt lat="45.97585" lon="4.71721">
        <ele>197</ele>
        <time>2016-10-16T10:24:29Z</time>
      </trkpt>
      <trkpt lat="45.97579" lon="4.71721">
        <ele>197</ele>
        <time>2016-10-16T10:24:30Z</time>
      </trkpt>
      <trkpt lat="45.97573" lon="4.71722">
        <ele>198</ele>
        <time>2016-10-16T10:24:31Z</time>
      </trkpt>
      <trkpt lat="45.97568" lon="4.71722">
        <ele>198</ele>
        <time>2016-10-16T10:24:32Z</time>
      </trkpt>
      <trkpt lat="45.97562" lon="4.71723">
        <ele>198</ele>
        <time>2016-10-16T10:24:33Z</time>
      </trkpt>
      <trkpt lat="45.97557" lon="4.71724">
        <ele>198</ele>
        <time>2016-10-16T10:24:34Z</time>
      </trkpt>
      <trkpt lat="45.97551" lon="4.71725">
        <ele>198</ele>
        <time>2016-10-16T10:24:35Z</time>
      </trkpt>
      <trkpt lat="45.97546" lon="4.71725">
        <ele>198</ele>
        <time>2016-10-16T10:24:36Z</time>
      </trkpt>
      <trkpt lat="45.97541" lon="4.71724">
        <ele>198</ele>
        <time>2016-10-16T10:24:37Z</time>
      </trkpt>
      <trkpt lat="45.97536" lon="4.71725">
        <ele>198</ele>
        <time>2016-10-16T10:24:38Z</time>
      </trkpt>
      <trkpt lat="45.97532" lon="4.71726">
        <ele>198</ele>
        <time>2016-10-16T10:24:39Z</time>
      </trkpt>
      <trkpt lat="45.97526" lon="4.71727">
        <ele>198</ele>
        <time>2016-10-16T10:24:40Z</time>
      </trkpt>
      <trkpt lat="45.9752" lon="4.71726">
        <ele>198</ele>
        <time>2016-10-16T10:24:41Z</time>
      </trkpt>
      <trkpt lat="45.97514" lon="4.71725">
        <ele>198</ele>
        <time>2016-10-16T10:24:42Z</time>
      </trkpt>
      <trkpt lat="45.97508" lon="4.71725">
        <ele>198</ele>
        <time>2016-10-16T10:24:43Z</time>
      </trkpt>
      <trkpt lat="45.97502" lon="4.71723">
        <ele>198</ele>
        <time>2016-10-16T10:24:44Z</time>
      </trkpt>
      <trkpt lat="45.97496" lon="4.71723">
        <ele>197</ele>
        <time>2016-10-16T10:24:45Z</time>
      </trkpt>
      <trkpt lat="45.9749" lon="4.71722">
        <ele>197</ele>
        <time>2016-10-16T10:24:46Z</time>
      </trkpt>
      <trkpt lat="45.97484" lon="4.71721">
        <ele>197</ele>
        <time>2016-10-16T10:24:47Z</time>
      </trkpt>
      <trkpt lat="45.97478" lon="4.7172">
        <ele>197</ele>
        <time>2016-10-16T10:24:48Z</time>
      </trkpt>
      <trkpt lat="45.97473" lon="4.71719">
        <ele>197</ele>
        <time>2016-10-16T10:24:49Z</time>
      </trkpt>
      <trkpt lat="45.97467" lon="4.71717">
        <ele>197</ele>
        <time>2016-10-16T10:24:50Z</time>
      </trkpt>
      <trkpt lat="45.97462" lon="4.71714">
        <ele>197</ele>
        <time>2016-10-16T10:24:51Z</time>
      </trkpt>
      <trkpt lat="45.97456" lon="4.71712">
        <ele>197</ele>
        <time>2016-10-16T10:24:52Z</time>
      </trkpt>
      <trkpt lat="45.97451" lon="4.71711">
        <ele>197</ele>
        <time>2016-10-16T10:24:53Z</time>
      </trkpt>
      <trkpt lat="45.97446" lon="4.71711">
        <ele>197</ele>
        <time>2016-10-16T10:24:54Z</time>
      </trkpt>
      <trkpt lat="45.97441" lon="4.7171">
        <ele>197</ele>
        <time>2016-10-16T10:24:55Z</time>
      </trkpt>
      <trkpt lat="45.97436" lon="4.71709">
        <ele>197</ele>
        <time>2016-10-16T10:24:56Z</time>
      </trkpt>
      <trkpt lat="45.97431" lon="4.71708">
        <ele>197</ele>
        <time>2016-10-16T10:24:57Z</time>
      </trkpt>
      <trkpt lat="45.97425" lon="4.71708">
        <ele>197</ele>
        <time>2016-10-16T10:24:58Z</time>
      </trkpt>
      <trkpt lat="45.97419" lon="4.71707">
        <ele>196</ele>
        <time>2016-10-16T10:24:59Z</time>
      </trkpt>
      <trkpt lat="45.97413" lon="4.71707">
        <ele>195</ele>
        <time>2016-10-16T10:25:00Z</time>
      </trkpt>
      <trkpt lat="45.97407" lon="4.71707">
        <ele>195</ele>
        <time>2016-10-16T10:25:01Z</time>
      </trkpt>
      <trkpt lat="45.97401" lon="4.71707">
        <ele>195</ele>
        <time>2016-10-16T10:25:02Z</time>
      </trkpt>
      <trkpt lat="45.97395" lon="4.71706">
        <ele>195</ele>
        <time>2016-10-16T10:25:03Z</time>
      </trkpt>
      <trkpt lat="45.97389" lon="4.71705">
        <ele>195</ele>
        <time>2016-10-16T10:25:04Z</time>
      </trkpt>
      <trkpt lat="45.97384" lon="4.71705">
        <ele>195</ele>
        <time>2016-10-16T10:25:05Z</time>
      </trkpt>
      <trkpt lat="45.97379" lon="4.71705">
        <ele>195</ele>
        <time>2016-10-16T10:25:06Z</time>
      </trkpt>
      <trkpt lat="45.97373" lon="4.71705">
        <ele>195</ele>
        <time>2016-10-16T10:25:07Z</time>
      </trkpt>
      <trkpt lat="45.97368" lon="4.71704">
        <ele>195</ele>
        <time>2016-10-16T10:25:08Z</time>
      </trkpt>
      <trkpt lat="45.97363" lon="4.71703">
        <ele>195</ele>
        <time>2016-10-16T10:25:09Z</time>
      </trkpt>
      <trkpt lat="45.97356" lon="4.71703">
        <ele>195</ele>
        <time>2016-10-16T10:25:10Z</time>
      </trkpt>
      <trkpt lat="45.9735" lon="4.71703">
        <ele>195</ele>
        <time>2016-10-16T10:25:11Z</time>
      </trkpt>
      <trkpt lat="45.97345" lon="4.71703">
        <ele>195</ele>
        <time>2016-10-16T10:25:12Z</time>
      </trkpt>
      <trkpt lat="45.97339" lon="4.71703">
        <ele>195</ele>
        <time>2016-10-16T10:25:13Z</time>
      </trkpt>
      <trkpt lat="45.97334" lon="4.71702">
        <ele>196</ele>
        <time>2016-10-16T10:25:14Z</time>
      </trkpt>
      <trkpt lat="45.97328" lon="4.71701">
        <ele>196</ele>
        <time>2016-10-16T10:25:15Z</time>
      </trkpt>
      <trkpt lat="45.97323" lon="4.71698">
        <ele>196</ele>
        <time>2016-10-16T10:25:16Z</time>
      </trkpt>
      <trkpt lat="45.97317" lon="4.71696">
        <ele>196</ele>
        <time>2016-10-16T10:25:17Z</time>
      </trkpt>
      <trkpt lat="45.97312" lon="4.71693">
        <ele>196</ele>
        <time>2016-10-16T10:25:18Z</time>
      </trkpt>
      <trkpt lat="45.97306" lon="4.7169">
        <ele>196</ele>
        <time>2016-10-16T10:25:19Z</time>
      </trkpt>
      <trkpt lat="45.973" lon="4.7169">
        <ele>197</ele>
        <time>2016-10-16T10:25:20Z</time>
      </trkpt>
      <trkpt lat="45.97292" lon="4.71692">
        <ele>197</ele>
        <time>2016-10-16T10:25:21Z</time>
      </trkpt>
      <trkpt lat="45.97285" lon="4.71695">
        <ele>197</ele>
        <time>2016-10-16T10:25:22Z</time>
      </trkpt>
      <trkpt lat="45.97279" lon="4.71697">
        <ele>197</ele>
        <time>2016-10-16T10:25:23Z</time>
      </trkpt>
      <trkpt lat="45.97273" lon="4.71698">
        <ele>197</ele>
        <time>2016-10-16T10:25:24Z</time>
      </trkpt>
      <trkpt lat="45.97268" lon="4.71695">
        <ele>197</ele>
        <time>2016-10-16T10:25:25Z</time>
      </trkpt>
      <trkpt lat="45.97262" lon="4.71692">
        <ele>197</ele>
        <time>2016-10-16T10:25:26Z</time>
      </trkpt>
      <trkpt lat="45.97257" lon="4.7169">
        <ele>197</ele>
        <time>2016-10-16T10:25:27Z</time>
      </trkpt>
      <trkpt lat="45.97251" lon="4.7169">
        <ele>197</ele>
        <time>2016-10-16T10:25:28Z</time>
      </trkpt>
      <trkpt lat="45.97245" lon="4.71689">
        <ele>197</ele>
        <time>2016-10-16T10:25:29Z</time>
      </trkpt>
      <trkpt lat="45.9724" lon="4.71689">
        <ele>197</ele>
        <time>2016-10-16T10:25:30Z</time>
      </trkpt>
      <trkpt lat="45.97234" lon="4.71688">
        <ele>197</ele>
        <time>2016-10-16T10:25:31Z</time>
      </trkpt>
      <trkpt lat="45.97229" lon="4.71688">
        <ele>197</ele>
        <time>2016-10-16T10:25:32Z</time>
      </trkpt>
      <trkpt lat="45.97224" lon="4.71689">
        <ele>197</ele>
        <time>2016-10-16T10:25:33Z</time>
      </trkpt>
      <trkpt lat="45.97219" lon="4.71688">
        <ele>197</ele>
        <time>2016-10-16T10:25:34Z</time>
      </trkpt>
      <trkpt lat="45.97214" lon="4.71688">
        <ele>197</ele>
        <time>2016-10-16T10:25:35Z</time>
      </trkpt>
      <trkpt lat="45.9721" lon="4.71687">
        <ele>197</ele>
        <time>2016-10-16T10:25:36Z</time>
      </trkpt>
      <trkpt lat="45.97205" lon="4.71686">
        <ele>197</ele>
        <time>2016-10-16T10:25:37Z</time>
      </trkpt>
      <trkpt lat="45.972" lon="4.71686">
        <ele>197</ele>
        <time>2016-10-16T10:25:38Z</time>
      </trkpt>
      <trkpt lat="45.97195" lon="4.71686">
        <ele>197</ele>
        <time>2016-10-16T10:25:39Z</time>
      </trkpt>
      <trkpt lat="45.97189" lon="4.71687">
        <ele>197</ele>
        <time>2016-10-16T10:25:40Z</time>
      </trkpt>
      <trkpt lat="45.97182" lon="4.71688">
        <ele>197</ele>
        <time>2016-10-16T10:25:41Z</time>
      </trkpt>
      <trkpt lat="45.97175" lon="4.71689">
        <ele>197</ele>
        <time>2016-10-16T10:25:42Z</time>
      </trkpt>
      <trkpt lat="45.97168" lon="4.71688">
        <ele>197</ele>
        <time>2016-10-16T10:25:43Z</time>
      </trkpt>
      <trkpt lat="45.97162" lon="4.71687">
        <ele>196</ele>
        <time>2016-10-16T10:25:44Z</time>
      </trkpt>
      <trkpt lat="45.97156" lon="4.71687">
        <ele>196</ele>
        <time>2016-10-16T10:25:45Z</time>
      </trkpt>
      <trkpt lat="45.97149" lon="4.71686">
        <ele>195</ele>
        <time>2016-10-16T10:25:46Z</time>
      </trkpt>
      <trkpt lat="45.97143" lon="4.71686">
        <ele>195</ele>
        <time>2016-10-16T10:25:47Z</time>
      </trkpt>
      <trkpt lat="45.97137" lon="4.71684">
        <ele>195</ele>
        <time>2016-10-16T10:25:48Z</time>
      </trkpt>
      <trkpt lat="45.97131" lon="4.71683">
        <ele>195</ele>
        <time>2016-10-16T10:25:49Z</time>
      </trkpt>
      <trkpt lat="45.97126" lon="4.71683">
        <ele>195</ele>
        <time>2016-10-16T10:25:50Z</time>
      </trkpt>
      <trkpt lat="45.9712" lon="4.71683">
        <ele>195</ele>
        <time>2016-10-16T10:25:51Z</time>
      </trkpt>
      <trkpt lat="45.97114" lon="4.71683">
        <ele>194</ele>
        <time>2016-10-16T10:25:52Z</time>
      </trkpt>
      <trkpt lat="45.97109" lon="4.71683">
        <ele>194</ele>
        <time>2016-10-16T10:25:53Z</time>
      </trkpt>
      <trkpt lat="45.97104" lon="4.71683">
        <ele>194</ele>
        <time>2016-10-16T10:25:54Z</time>
      </trkpt>
      <trkpt lat="45.97098" lon="4.71682">
        <ele>194</ele>
        <time>2016-10-16T10:25:55Z</time>
      </trkpt>
      <trkpt lat="45.97093" lon="4.71681">
        <ele>194</ele>
        <time>2016-10-16T10:25:56Z</time>
      </trkpt>
      <trkpt lat="45.97087" lon="4.7168">
        <ele>195</ele>
        <time>2016-10-16T10:25:57Z</time>
      </trkpt>
      <trkpt lat="45.97082" lon="4.71679">
        <ele>194</ele>
        <time>2016-10-16T10:25:58Z</time>
      </trkpt>
      <trkpt lat="45.97076" lon="4.71678">
        <ele>194</ele>
        <time>2016-10-16T10:25:59Z</time>
      </trkpt>
      <trkpt lat="45.9707" lon="4.71678">
        <ele>194</ele>
        <time>2016-10-16T10:26:00Z</time>
      </trkpt>
      <trkpt lat="45.97064" lon="4.71677">
        <ele>193</ele>
        <time>2016-10-16T10:26:01Z</time>
      </trkpt>
      <trkpt lat="45.97058" lon="4.71676">
        <ele>193</ele>
        <time>2016-10-16T10:26:02Z</time>
      </trkpt>
      <trkpt lat="45.97052" lon="4.71675">
        <ele>193</ele>
        <time>2016-10-16T10:26:03Z</time>
      </trkpt>
      <trkpt lat="45.97046" lon="4.71674">
        <ele>193</ele>
        <time>2016-10-16T10:26:04Z</time>
      </trkpt>
      <trkpt lat="45.97041" lon="4.71674">
        <ele>193</ele>
        <time>2016-10-16T10:26:05Z</time>
      </trkpt>
      <trkpt lat="45.97035" lon="4.71674">
        <ele>193</ele>
        <time>2016-10-16T10:26:06Z</time>
      </trkpt>
      <trkpt lat="45.97028" lon="4.71673">
        <ele>193</ele>
        <time>2016-10-16T10:26:07Z</time>
      </trkpt>
      <trkpt lat="45.97022" lon="4.71672">
        <ele>193</ele>
        <time>2016-10-16T10:26:08Z</time>
      </trkpt>
      <trkpt lat="45.97016" lon="4.71672">
        <ele>193</ele>
        <time>2016-10-16T10:26:09Z</time>
      </trkpt>
      <trkpt lat="45.9701" lon="4.71672">
        <ele>193</ele>
        <time>2016-10-16T10:26:10Z</time>
      </trkpt>
      <trkpt lat="45.97005" lon="4.71673">
        <ele>193</ele>
        <time>2016-10-16T10:26:11Z</time>
      </trkpt>
      <trkpt lat="45.96999" lon="4.71673">
        <ele>193</ele>
        <time>2016-10-16T10:26:12Z</time>
      </trkpt>
      <trkpt lat="45.96993" lon="4.71672">
        <ele>193</ele>
        <time>2016-10-16T10:26:13Z</time>
      </trkpt>
      <trkpt lat="45.96986" lon="4.71671">
        <ele>193</ele>
        <time>2016-10-16T10:26:14Z</time>
      </trkpt>
      <trkpt lat="45.96979" lon="4.71671">
        <ele>192</ele>
        <time>2016-10-16T10:26:15Z</time>
      </trkpt>
      <trkpt lat="45.96972" lon="4.71671">
        <ele>192</ele>
        <time>2016-10-16T10:26:16Z</time>
      </trkpt>
      <trkpt lat="45.96965" lon="4.71671">
        <ele>192</ele>
        <time>2016-10-16T10:26:17Z</time>
      </trkpt>
      <trkpt lat="45.96958" lon="4.71671">
        <ele>192</ele>
        <time>2016-10-16T10:26:18Z</time>
      </trkpt>
      <trkpt lat="45.96951" lon="4.71671">
        <ele>192</ele>
        <time>2016-10-16T10:26:19Z</time>
      </trkpt>
      <trkpt lat="45.96944" lon="4.7167">
        <ele>192</ele>
        <time>2016-10-16T10:26:20Z</time>
      </trkpt>
      <trkpt lat="45.96937" lon="4.71669">
        <ele>193</ele>
        <time>2016-10-16T10:26:21Z</time>
      </trkpt>
      <trkpt lat="45.9693" lon="4.71669">
        <ele>193</ele>
        <time>2016-10-16T10:26:22Z</time>
      </trkpt>
      <trkpt lat="45.96925" lon="4.71664">
        <ele>195</ele>
        <time>2016-10-16T10:26:23Z</time>
      </trkpt>
      <trkpt lat="45.96919" lon="4.71661">
        <ele>195</ele>
        <time>2016-10-16T10:26:24Z</time>
      </trkpt>
      <trkpt lat="45.96913" lon="4.71661">
        <ele>195</ele>
        <time>2016-10-16T10:26:25Z</time>
      </trkpt>
      <trkpt lat="45.96907" lon="4.71661">
        <ele>195</ele>
        <time>2016-10-16T10:26:26Z</time>
      </trkpt>
      <trkpt lat="45.96902" lon="4.71661">
        <ele>195</ele>
        <time>2016-10-16T10:26:27Z</time>
      </trkpt>
      <trkpt lat="45.96895" lon="4.71661">
        <ele>195</ele>
        <time>2016-10-16T10:26:28Z</time>
      </trkpt>
      <trkpt lat="45.96889" lon="4.71661">
        <ele>195</ele>
        <time>2016-10-16T10:26:29Z</time>
      </trkpt>
      <trkpt lat="45.96883" lon="4.7166">
        <ele>195</ele>
        <time>2016-10-16T10:26:30Z</time>
      </trkpt>
      <trkpt lat="45.96876" lon="4.7166">
        <ele>195</ele>
        <time>2016-10-16T10:26:31Z</time>
      </trkpt>
      <trkpt lat="45.96869" lon="4.71659">
        <ele>195</ele>
        <time>2016-10-16T10:26:32Z</time>
      </trkpt>
      <trkpt lat="45.96862" lon="4.71659">
        <ele>195</ele>
        <time>2016-10-16T10:26:33Z</time>
      </trkpt>
      <trkpt lat="45.96854" lon="4.71658">
        <ele>194</ele>
        <time>2016-10-16T10:26:34Z</time>
      </trkpt>
      <trkpt lat="45.96847" lon="4.71657">
        <ele>194</ele>
        <time>2016-10-16T10:26:35Z</time>
      </trkpt>
      <trkpt lat="45.96841" lon="4.71656">
        <ele>194</ele>
        <time>2016-10-16T10:26:36Z</time>
      </trkpt>
      <trkpt lat="45.96835" lon="4.71656">
        <ele>193</ele>
        <time>2016-10-16T10:26:37Z</time>
      </trkpt>
      <trkpt lat="45.96829" lon="4.71654">
        <ele>193</ele>
        <time>2016-10-16T10:26:38Z</time>
      </trkpt>
      <trkpt lat="45.96822" lon="4.71653">
        <ele>193</ele>
        <time>2016-10-16T10:26:39Z</time>
      </trkpt>
      <trkpt lat="45.96815" lon="4.71653">
        <ele>193</ele>
        <time>2016-10-16T10:26:40Z</time>
      </trkpt>
      <trkpt lat="45.96809" lon="4.71652">
        <ele>193</ele>
        <time>2016-10-16T10:26:41Z</time>
      </trkpt>
      <trkpt lat="45.96802" lon="4.71651">
        <ele>193</ele>
        <time>2016-10-16T10:26:42Z</time>
      </trkpt>
      <trkpt lat="45.96795" lon="4.7165">
        <ele>193</ele>
        <time>2016-10-16T10:26:43Z</time>
      </trkpt>
      <trkpt lat="45.96788" lon="4.71649">
        <ele>192</ele>
        <time>2016-10-16T10:26:44Z</time>
      </trkpt>
      <trkpt lat="45.96782" lon="4.71648">
        <ele>192</ele>
        <time>2016-10-16T10:26:45Z</time>
      </trkpt>
      <trkpt lat="45.96776" lon="4.71647">
        <ele>192</ele>
        <time>2016-10-16T10:26:46Z</time>
      </trkpt>
      <trkpt lat="45.96769" lon="4.71646">
        <ele>192</ele>
        <time>2016-10-16T10:26:47Z</time>
      </trkpt>
      <trkpt lat="45.96763" lon="4.71645">
        <ele>192</ele>
        <time>2016-10-16T10:26:48Z</time>
      </trkpt>
      <trkpt lat="45.96756" lon="4.71644">
        <ele>192</ele>
        <time>2016-10-16T10:26:49Z</time>
      </trkpt>
      <trkpt lat="45.96749" lon="4.71643">
        <ele>190</ele>
        <time>2016-10-16T10:26:50Z</time>
      </trkpt>
      <trkpt lat="45.96743" lon="4.71642">
        <ele>190</ele>
        <time>2016-10-16T10:26:51Z</time>
      </trkpt>
      <trkpt lat="45.96736" lon="4.71641">
        <ele>190</ele>
        <time>2016-10-16T10:26:52Z</time>
      </trkpt>
      <trkpt lat="45.96729" lon="4.7164">
        <ele>190</ele>
        <time>2016-10-16T10:26:53Z</time>
      </trkpt>
      <trkpt lat="45.96724" lon="4.71639">
        <ele>190</ele>
        <time>2016-10-16T10:26:54Z</time>
      </trkpt>
      <trkpt lat="45.96718" lon="4.71638">
        <ele>190</ele>
        <time>2016-10-16T10:26:55Z</time>
      </trkpt>
      <trkpt lat="45.96712" lon="4.71637">
        <ele>190</ele>
        <time>2016-10-16T10:26:56Z</time>
      </trkpt>
      <trkpt lat="45.96705" lon="4.71636">
        <ele>190</ele>
        <time>2016-10-16T10:26:57Z</time>
      </trkpt>
      <trkpt lat="45.96696" lon="4.71635">
        <ele>190</ele>
        <time>2016-10-16T10:26:58Z</time>
      </trkpt>
      <trkpt lat="45.96688" lon="4.71634">
        <ele>190</ele>
        <time>2016-10-16T10:26:59Z</time>
      </trkpt>
      <trkpt lat="45.96681" lon="4.71632">
        <ele>190</ele>
        <time>2016-10-16T10:27:00Z</time>
      </trkpt>
      <trkpt lat="45.96673" lon="4.71631">
        <ele>190</ele>
        <time>2016-10-16T10:27:01Z</time>
      </trkpt>
      <trkpt lat="45.96666" lon="4.71631">
        <ele>188</ele>
        <time>2016-10-16T10:27:02Z</time>
      </trkpt>
      <trkpt lat="45.9666" lon="4.7163">
        <ele>188</ele>
        <time>2016-10-16T10:27:03Z</time>
      </trkpt>
      <trkpt lat="45.96653" lon="4.71629">
        <ele>188</ele>
        <time>2016-10-16T10:27:04Z</time>
      </trkpt>
      <trkpt lat="45.96646" lon="4.71628">
        <ele>188</ele>
        <time>2016-10-16T10:27:05Z</time>
      </trkpt>
      <trkpt lat="45.9664" lon="4.71627">
        <ele>188</ele>
        <time>2016-10-16T10:27:06Z</time>
      </trkpt>
      <trkpt lat="45.96633" lon="4.71625">
        <ele>188</ele>
        <time>2016-10-16T10:27:07Z</time>
      </trkpt>
      <trkpt lat="45.96627" lon="4.71625">
        <ele>188</ele>
        <time>2016-10-16T10:27:08Z</time>
      </trkpt>
      <trkpt lat="45.9662" lon="4.71623">
        <ele>188</ele>
        <time>2016-10-16T10:27:09Z</time>
      </trkpt>
      <trkpt lat="45.96614" lon="4.71622">
        <ele>188</ele>
        <time>2016-10-16T10:27:10Z</time>
      </trkpt>
      <trkpt lat="45.96608" lon="4.71621">
        <ele>188</ele>
        <time>2016-10-16T10:27:11Z</time>
      </trkpt>
      <trkpt lat="45.96602" lon="4.7162">
        <ele>188</ele>
        <time>2016-10-16T10:27:12Z</time>
      </trkpt>
      <trkpt lat="45.96595" lon="4.71619">
        <ele>187</ele>
        <time>2016-10-16T10:27:13Z</time>
      </trkpt>
      <trkpt lat="45.9659" lon="4.71619">
        <ele>187</ele>
        <time>2016-10-16T10:27:14Z</time>
      </trkpt>
      <trkpt lat="45.96584" lon="4.71617">
        <ele>187</ele>
        <time>2016-10-16T10:27:15Z</time>
      </trkpt>
      <trkpt lat="45.96578" lon="4.71616">
        <ele>185</ele>
        <time>2016-10-16T10:27:16Z</time>
      </trkpt>
      <trkpt lat="45.96571" lon="4.71615">
        <ele>185</ele>
        <time>2016-10-16T10:27:17Z</time>
      </trkpt>
      <trkpt lat="45.96565" lon="4.71615">
        <ele>185</ele>
        <time>2016-10-16T10:27:18Z</time>
      </trkpt>
      <trkpt lat="45.96559" lon="4.71614">
        <ele>185</ele>
        <time>2016-10-16T10:27:19Z</time>
      </trkpt>
      <trkpt lat="45.96553" lon="4.71613">
        <ele>185</ele>
        <time>2016-10-16T10:27:20Z</time>
      </trkpt>
      <trkpt lat="45.96548" lon="4.7161">
        <ele>185</ele>
        <time>2016-10-16T10:27:21Z</time>
      </trkpt>
      <trkpt lat="45.96543" lon="4.71606">
        <ele>185</ele>
        <time>2016-10-16T10:27:22Z</time>
      </trkpt>
      <trkpt lat="45.96538" lon="4.71602">
        <ele>185</ele>
        <time>2016-10-16T10:27:23Z</time>
      </trkpt>
      <trkpt lat="45.96532" lon="4.716">
        <ele>185</ele>
        <time>2016-10-16T10:27:24Z</time>
      </trkpt>
      <trkpt lat="45.96526" lon="4.71599">
        <ele>185</ele>
        <time>2016-10-16T10:27:25Z</time>
      </trkpt>
      <trkpt lat="45.96519" lon="4.71599">
        <ele>185</ele>
        <time>2016-10-16T10:27:26Z</time>
      </trkpt>
      <trkpt lat="45.96512" lon="4.71602">
        <ele>184</ele>
        <time>2016-10-16T10:27:27Z</time>
      </trkpt>
      <trkpt lat="45.96506" lon="4.71605">
        <ele>184</ele>
        <time>2016-10-16T10:27:28Z</time>
      </trkpt>
      <trkpt lat="45.965" lon="4.71605">
        <ele>183</ele>
        <time>2016-10-16T10:27:29Z</time>
      </trkpt>
      <trkpt lat="45.96493" lon="4.71605">
        <ele>183</ele>
        <time>2016-10-16T10:27:30Z</time>
      </trkpt>
      <trkpt lat="45.96487" lon="4.71603">
        <ele>183</ele>
        <time>2016-10-16T10:27:31Z</time>
      </trkpt>
      <trkpt lat="45.96481" lon="4.71603">
        <ele>183</ele>
        <time>2016-10-16T10:27:32Z</time>
      </trkpt>
      <trkpt lat="45.96475" lon="4.71602">
        <ele>183</ele>
        <time>2016-10-16T10:27:33Z</time>
      </trkpt>
      <trkpt lat="45.9647" lon="4.71602">
        <ele>183</ele>
        <time>2016-10-16T10:27:34Z</time>
      </trkpt>
      <trkpt lat="45.96464" lon="4.71601">
        <ele>183</ele>
        <time>2016-10-16T10:27:35Z</time>
      </trkpt>
      <trkpt lat="45.96458" lon="4.716">
        <ele>183</ele>
        <time>2016-10-16T10:27:36Z</time>
      </trkpt>
      <trkpt lat="45.96452" lon="4.71599">
        <ele>183</ele>
        <time>2016-10-16T10:27:37Z</time>
      </trkpt>
      <trkpt lat="45.96445" lon="4.71598">
        <ele>183</ele>
        <time>2016-10-16T10:27:38Z</time>
      </trkpt>
      <trkpt lat="45.96439" lon="4.71597">
        <ele>183</ele>
        <time>2016-10-16T10:27:39Z</time>
      </trkpt>
      <trkpt lat="45.96432" lon="4.71598">
        <ele>184</ele>
        <time>2016-10-16T10:27:40Z</time>
      </trkpt>
      <trkpt lat="45.96425" lon="4.716">
        <ele>184</ele>
        <time>2016-10-16T10:27:41Z</time>
      </trkpt>
      <trkpt lat="45.96419" lon="4.71602">
        <ele>184</ele>
        <time>2016-10-16T10:27:42Z</time>
      </trkpt>
      <trkpt lat="45.96413" lon="4.71602">
        <ele>183</ele>
        <time>2016-10-16T10:27:43Z</time>
      </trkpt>
      <trkpt lat="45.96407" lon="4.71601">
        <ele>183</ele>
        <time>2016-10-16T10:27:44Z</time>
      </trkpt>
      <trkpt lat="45.96401" lon="4.71599">
        <ele>183</ele>
        <time>2016-10-16T10:27:45Z</time>
      </trkpt>
      <trkpt lat="45.96394" lon="4.71597">
        <ele>183</ele>
        <time>2016-10-16T10:27:46Z</time>
      </trkpt>
      <trkpt lat="45.96388" lon="4.71595">
        <ele>183</ele>
        <time>2016-10-16T10:27:47Z</time>
      </trkpt>
      <trkpt lat="45.96382" lon="4.71593">
        <ele>182</ele>
        <time>2016-10-16T10:27:48Z</time>
      </trkpt>
      <trkpt lat="45.96376" lon="4.71592">
        <ele>182</ele>
        <time>2016-10-16T10:27:49Z</time>
      </trkpt>
      <trkpt lat="45.9637" lon="4.7159">
        <ele>182</ele>
        <time>2016-10-16T10:27:50Z</time>
      </trkpt>
      <trkpt lat="45.96364" lon="4.71589">
        <ele>182</ele>
        <time>2016-10-16T10:27:51Z</time>
      </trkpt>
      <trkpt lat="45.96357" lon="4.71588">
        <ele>182</ele>
        <time>2016-10-16T10:27:52Z</time>
      </trkpt>
      <trkpt lat="45.9635" lon="4.71586">
        <ele>182</ele>
        <time>2016-10-16T10:27:53Z</time>
      </trkpt>
      <trkpt lat="45.96344" lon="4.71585">
        <ele>183</ele>
        <time>2016-10-16T10:27:54Z</time>
      </trkpt>
      <trkpt lat="45.96337" lon="4.71584">
        <ele>183</ele>
        <time>2016-10-16T10:27:55Z</time>
      </trkpt>
      <trkpt lat="45.9633" lon="4.71582">
        <ele>183</ele>
        <time>2016-10-16T10:27:56Z</time>
      </trkpt>
      <trkpt lat="45.96323" lon="4.7158">
        <ele>184</ele>
        <time>2016-10-16T10:27:57Z</time>
      </trkpt>
      <trkpt lat="45.96316" lon="4.71578">
        <ele>184</ele>
        <time>2016-10-16T10:27:58Z</time>
      </trkpt>
      <trkpt lat="45.96309" lon="4.71577">
        <ele>184</ele>
        <time>2016-10-16T10:27:59Z</time>
      </trkpt>
      <trkpt lat="45.96302" lon="4.71575">
        <ele>184</ele>
        <time>2016-10-16T10:28:00Z</time>
      </trkpt>
      <trkpt lat="45.96295" lon="4.71574">
        <ele>184</ele>
        <time>2016-10-16T10:28:01Z</time>
      </trkpt>
      <trkpt lat="45.96288" lon="4.71573">
        <ele>184</ele>
        <time>2016-10-16T10:28:02Z</time>
      </trkpt>
      <trkpt lat="45.96282" lon="4.71572">
        <ele>184</ele>
        <time>2016-10-16T10:28:03Z</time>
      </trkpt>
      <trkpt lat="45.96275" lon="4.71571">
        <ele>184</ele>
        <time>2016-10-16T10:28:04Z</time>
      </trkpt>
      <trkpt lat="45.96268" lon="4.71571">
        <ele>183</ele>
        <time>2016-10-16T10:28:05Z</time>
      </trkpt>
      <trkpt lat="45.96261" lon="4.71569">
        <ele>183</ele>
        <time>2016-10-16T10:28:06Z</time>
      </trkpt>
      <trkpt lat="45.96254" lon="4.71567">
        <ele>183</ele>
        <time>2016-10-16T10:28:07Z</time>
      </trkpt>
      <trkpt lat="45.96247" lon="4.71565">
        <ele>183</ele>
        <time>2016-10-16T10:28:08Z</time>
      </trkpt>
      <trkpt lat="45.9624" lon="4.71564">
        <ele>183</ele>
        <time>2016-10-16T10:28:09Z</time>
      </trkpt>
      <trkpt lat="45.96233" lon="4.71563">
        <ele>183</ele>
        <time>2016-10-16T10:28:10Z</time>
      </trkpt>
      <trkpt lat="45.96227" lon="4.71562">
        <ele>183</ele>
        <time>2016-10-16T10:28:11Z</time>
      </trkpt>
      <trkpt lat="45.9622" lon="4.71561">
        <ele>183</ele>
        <time>2016-10-16T10:28:12Z</time>
      </trkpt>
      <trkpt lat="45.96214" lon="4.7156">
        <ele>183</ele>
        <time>2016-10-16T10:28:13Z</time>
      </trkpt>
      <trkpt lat="45.96207" lon="4.71559">
        <ele>184</ele>
        <time>2016-10-16T10:28:14Z</time>
      </trkpt>
      <trkpt lat="45.96201" lon="4.71558">
        <ele>183</ele>
        <time>2016-10-16T10:28:15Z</time>
      </trkpt>
      <trkpt lat="45.96194" lon="4.71556">
        <ele>183</ele>
        <time>2016-10-16T10:28:16Z</time>
      </trkpt>
      <trkpt lat="45.96188" lon="4.71555">
        <ele>183</ele>
        <time>2016-10-16T10:28:17Z</time>
      </trkpt>
      <trkpt lat="45.96182" lon="4.71554">
        <ele>183</ele>
        <time>2016-10-16T10:28:18Z</time>
      </trkpt>
      <trkpt lat="45.96176" lon="4.71553">
        <ele>183</ele>
        <time>2016-10-16T10:28:19Z</time>
      </trkpt>
      <trkpt lat="45.9617" lon="4.71552">
        <ele>183</ele>
        <time>2016-10-16T10:28:20Z</time>
      </trkpt>
      <trkpt lat="45.96164" lon="4.71551">
        <ele>184</ele>
        <time>2016-10-16T10:28:21Z</time>
      </trkpt>
      <trkpt lat="45.96159" lon="4.7155">
        <ele>184</ele>
        <time>2016-10-16T10:28:22Z</time>
      </trkpt>
      <trkpt lat="45.96154" lon="4.71548">
        <ele>184</ele>
        <time>2016-10-16T10:28:23Z</time>
      </trkpt>
      <trkpt lat="45.96149" lon="4.71547">
        <ele>184</ele>
        <time>2016-10-16T10:28:24Z</time>
      </trkpt>
      <trkpt lat="45.96144" lon="4.71546">
        <ele>184</ele>
        <time>2016-10-16T10:28:25Z</time>
      </trkpt>
      <trkpt lat="45.96139" lon="4.71546">
        <ele>184</ele>
        <time>2016-10-16T10:28:26Z</time>
      </trkpt>
      <trkpt lat="45.96133" lon="4.71545">
        <ele>185</ele>
        <time>2016-10-16T10:28:27Z</time>
      </trkpt>
      <trkpt lat="45.96128" lon="4.71544">
        <ele>185</ele>
        <time>2016-10-16T10:28:28Z</time>
      </trkpt>
      <trkpt lat="45.96123" lon="4.71543">
        <ele>185</ele>
        <time>2016-10-16T10:28:29Z</time>
      </trkpt>
      <trkpt lat="45.96118" lon="4.71542">
        <ele>185</ele>
        <time>2016-10-16T10:28:30Z</time>
      </trkpt>
      <trkpt lat="45.96112" lon="4.71541">
        <ele>185</ele>
        <time>2016-10-16T10:28:31Z</time>
      </trkpt>
      <trkpt lat="45.96107" lon="4.7154">
        <ele>185</ele>
        <time>2016-10-16T10:28:32Z</time>
      </trkpt>
      <trkpt lat="45.96101" lon="4.71539">
        <ele>185</ele>
        <time>2016-10-16T10:28:33Z</time>
      </trkpt>
      <trkpt lat="45.96095" lon="4.71538">
        <ele>185</ele>
        <time>2016-10-16T10:28:34Z</time>
      </trkpt>
      <trkpt lat="45.9609" lon="4.71537">
        <ele>185</ele>
        <time>2016-10-16T10:28:35Z</time>
      </trkpt>
      <trkpt lat="45.96084" lon="4.71536">
        <ele>185</ele>
        <time>2016-10-16T10:28:36Z</time>
      </trkpt>
      <trkpt lat="45.96079" lon="4.71535">
        <ele>186</ele>
        <time>2016-10-16T10:28:37Z</time>
      </trkpt>
      <trkpt lat="45.96074" lon="4.71534">
        <ele>186</ele>
        <time>2016-10-16T10:28:38Z</time>
      </trkpt>
      <trkpt lat="45.96065" lon="4.71533">
        <ele>186</ele>
        <time>2016-10-16T10:28:40Z</time>
      </trkpt>
      <trkpt lat="45.96061" lon="4.71532">
        <ele>186</ele>
        <time>2016-10-16T10:28:41Z</time>
      </trkpt>
      <trkpt lat="45.96052" lon="4.71531">
        <ele>186</ele>
        <time>2016-10-16T10:28:43Z</time>
      </trkpt>
      <trkpt lat="45.96048" lon="4.71529">
        <ele>186</ele>
        <time>2016-10-16T10:28:44Z</time>
      </trkpt>
      <trkpt lat="45.96043" lon="4.71527">
        <ele>186</ele>
        <time>2016-10-16T10:28:45Z</time>
      </trkpt>
      <trkpt lat="45.96039" lon="4.71526">
        <ele>186</ele>
        <time>2016-10-16T10:28:46Z</time>
      </trkpt>
      <trkpt lat="45.96033" lon="4.71526">
        <ele>186</ele>
        <time>2016-10-16T10:28:47Z</time>
      </trkpt>
      <trkpt lat="45.96028" lon="4.71525">
        <ele>186</ele>
        <time>2016-10-16T10:28:48Z</time>
      </trkpt>
      <trkpt lat="45.96023" lon="4.71525">
        <ele>186</ele>
        <time>2016-10-16T10:28:49Z</time>
      </trkpt>
      <trkpt lat="45.96017" lon="4.71524">
        <ele>186</ele>
        <time>2016-10-16T10:28:50Z</time>
      </trkpt>
      <trkpt lat="45.96012" lon="4.71523">
        <ele>186</ele>
        <time>2016-10-16T10:28:51Z</time>
      </trkpt>
      <trkpt lat="45.96007" lon="4.71521">
        <ele>186</ele>
        <time>2016-10-16T10:28:52Z</time>
      </trkpt>
      <trkpt lat="45.96002" lon="4.71519">
        <ele>186</ele>
        <time>2016-10-16T10:28:53Z</time>
      </trkpt>
      <trkpt lat="45.95998" lon="4.71516">
        <ele>186</ele>
        <time>2016-10-16T10:28:54Z</time>
      </trkpt>
      <trkpt lat="45.95993" lon="4.71513">
        <ele>186</ele>
        <time>2016-10-16T10:28:55Z</time>
      </trkpt>
      <trkpt lat="45.95988" lon="4.71511">
        <ele>186</ele>
        <time>2016-10-16T10:28:56Z</time>
      </trkpt>
      <trkpt lat="45.95983" lon="4.71509">
        <ele>186</ele>
        <time>2016-10-16T10:28:57Z</time>
      </trkpt>
      <trkpt lat="45.95977" lon="4.7151">
        <ele>185</ele>
        <time>2016-10-16T10:28:58Z</time>
      </trkpt>
      <trkpt lat="45.95972" lon="4.71511">
        <ele>185</ele>
        <time>2016-10-16T10:28:59Z</time>
      </trkpt>
      <trkpt lat="45.95967" lon="4.71514">
        <ele>184</ele>
        <time>2016-10-16T10:29:00Z</time>
      </trkpt>
      <trkpt lat="45.95961" lon="4.71517">
        <ele>184</ele>
        <time>2016-10-16T10:29:01Z</time>
      </trkpt>
      <trkpt lat="45.95956" lon="4.71519">
        <ele>184</ele>
        <time>2016-10-16T10:29:02Z</time>
      </trkpt>
      <trkpt lat="45.9595" lon="4.7152">
        <ele>184</ele>
        <time>2016-10-16T10:29:03Z</time>
      </trkpt>
      <trkpt lat="45.95944" lon="4.7152">
        <ele>184</ele>
        <time>2016-10-16T10:29:04Z</time>
      </trkpt>
      <trkpt lat="45.95939" lon="4.7152">
        <ele>184</ele>
        <time>2016-10-16T10:29:05Z</time>
      </trkpt>
      <trkpt lat="45.95933" lon="4.7152">
        <ele>184</ele>
        <time>2016-10-16T10:29:06Z</time>
      </trkpt>
      <trkpt lat="45.95927" lon="4.7152">
        <ele>184</ele>
        <time>2016-10-16T10:29:07Z</time>
      </trkpt>
      <trkpt lat="45.95922" lon="4.71519">
        <ele>184</ele>
        <time>2016-10-16T10:29:08Z</time>
      </trkpt>
      <trkpt lat="45.95916" lon="4.71519">
        <ele>183</ele>
        <time>2016-10-16T10:29:09Z</time>
      </trkpt>
      <trkpt lat="45.9591" lon="4.7152">
        <ele>183</ele>
        <time>2016-10-16T10:29:10Z</time>
      </trkpt>
      <trkpt lat="45.95904" lon="4.7152">
        <ele>183</ele>
        <time>2016-10-16T10:29:11Z</time>
      </trkpt>
      <trkpt lat="45.95899" lon="4.7152">
        <ele>182</ele>
        <time>2016-10-16T10:29:12Z</time>
      </trkpt>
      <trkpt lat="45.95893" lon="4.71519">
        <ele>182</ele>
        <time>2016-10-16T10:29:13Z</time>
      </trkpt>
      <trkpt lat="45.95888" lon="4.7152">
        <ele>182</ele>
        <time>2016-10-16T10:29:14Z</time>
      </trkpt>
      <trkpt lat="45.95882" lon="4.7152">
        <ele>182</ele>
        <time>2016-10-16T10:29:15Z</time>
      </trkpt>
      <trkpt lat="45.95876" lon="4.7152">
        <ele>182</ele>
        <time>2016-10-16T10:29:16Z</time>
      </trkpt>
      <trkpt lat="45.9587" lon="4.7152">
        <ele>182</ele>
        <time>2016-10-16T10:29:17Z</time>
      </trkpt>
      <trkpt lat="45.95864" lon="4.71519">
        <ele>182</ele>
        <time>2016-10-16T10:29:18Z</time>
      </trkpt>
      <trkpt lat="45.95857" lon="4.71519">
        <ele>182</ele>
        <time>2016-10-16T10:29:19Z</time>
      </trkpt>
      <trkpt lat="45.95851" lon="4.71519">
        <ele>182</ele>
        <time>2016-10-16T10:29:20Z</time>
      </trkpt>
      <trkpt lat="45.95845" lon="4.71518">
        <ele>182</ele>
        <time>2016-10-16T10:29:21Z</time>
      </trkpt>
      <trkpt lat="45.95839" lon="4.71518">
        <ele>183</ele>
        <time>2016-10-16T10:29:22Z</time>
      </trkpt>
      <trkpt lat="45.95833" lon="4.71517">
        <ele>182</ele>
        <time>2016-10-16T10:29:23Z</time>
      </trkpt>
      <trkpt lat="45.95827" lon="4.71516">
        <ele>182</ele>
        <time>2016-10-16T10:29:24Z</time>
      </trkpt>
      <trkpt lat="45.9582" lon="4.71516">
        <ele>182</ele>
        <time>2016-10-16T10:29:25Z</time>
      </trkpt>
      <trkpt lat="45.95814" lon="4.71516">
        <ele>182</ele>
        <time>2016-10-16T10:29:26Z</time>
      </trkpt>
      <trkpt lat="45.95808" lon="4.71516">
        <ele>181</ele>
        <time>2016-10-16T10:29:27Z</time>
      </trkpt>
      <trkpt lat="45.95803" lon="4.71516">
        <ele>181</ele>
        <time>2016-10-16T10:29:28Z</time>
      </trkpt>
      <trkpt lat="45.95797" lon="4.71515">
        <ele>181</ele>
        <time>2016-10-16T10:29:29Z</time>
      </trkpt>
      <trkpt lat="45.95791" lon="4.71515">
        <ele>181</ele>
        <time>2016-10-16T10:29:30Z</time>
      </trkpt>
      <trkpt lat="45.95785" lon="4.71515">
        <ele>181</ele>
        <time>2016-10-16T10:29:31Z</time>
      </trkpt>
      <trkpt lat="45.95779" lon="4.71514">
        <ele>181</ele>
        <time>2016-10-16T10:29:32Z</time>
      </trkpt>
      <trkpt lat="45.95773" lon="4.71514">
        <ele>181</ele>
        <time>2016-10-16T10:29:33Z</time>
      </trkpt>
      <trkpt lat="45.95767" lon="4.71514">
        <ele>181</ele>
        <time>2016-10-16T10:29:34Z</time>
      </trkpt>
      <trkpt lat="45.9576" lon="4.71513">
        <ele>181</ele>
        <time>2016-10-16T10:29:35Z</time>
      </trkpt>
      <trkpt lat="45.95754" lon="4.71513">
        <ele>181</ele>
        <time>2016-10-16T10:29:36Z</time>
      </trkpt>
      <trkpt lat="45.95748" lon="4.71512">
        <ele>181</ele>
        <time>2016-10-16T10:29:37Z</time>
      </trkpt>
      <trkpt lat="45.95742" lon="4.71512">
        <ele>181</ele>
        <time>2016-10-16T10:29:38Z</time>
      </trkpt>
      <trkpt lat="45.95737" lon="4.71511">
        <ele>181</ele>
        <time>2016-10-16T10:29:39Z</time>
      </trkpt>
      <trkpt lat="45.95731" lon="4.7151">
        <ele>181</ele>
        <time>2016-10-16T10:29:40Z</time>
      </trkpt>
      <trkpt lat="45.95725" lon="4.7151">
        <ele>180</ele>
        <time>2016-10-16T10:29:41Z</time>
      </trkpt>
      <trkpt lat="45.95719" lon="4.7151">
        <ele>180</ele>
        <time>2016-10-16T10:29:42Z</time>
      </trkpt>
      <trkpt lat="45.95712" lon="4.71509">
        <ele>180</ele>
        <time>2016-10-16T10:29:43Z</time>
      </trkpt>
      <trkpt lat="45.95706" lon="4.71509">
        <ele>180</ele>
        <time>2016-10-16T10:29:44Z</time>
      </trkpt>
      <trkpt lat="45.95698" lon="4.71508">
        <ele>180</ele>
        <time>2016-10-16T10:29:45Z</time>
      </trkpt>
      <trkpt lat="45.95692" lon="4.71507">
        <ele>181</ele>
        <time>2016-10-16T10:29:46Z</time>
      </trkpt>
      <trkpt lat="45.95685" lon="4.71507">
        <ele>181</ele>
        <time>2016-10-16T10:29:47Z</time>
      </trkpt>
      <trkpt lat="45.95679" lon="4.71507">
        <ele>181</ele>
        <time>2016-10-16T10:29:48Z</time>
      </trkpt>
      <trkpt lat="45.95672" lon="4.71506">
        <ele>181</ele>
        <time>2016-10-16T10:29:49Z</time>
      </trkpt>
      <trkpt lat="45.95665" lon="4.71506">
        <ele>181</ele>
        <time>2016-10-16T10:29:50Z</time>
      </trkpt>
      <trkpt lat="45.95659" lon="4.71505">
        <ele>181</ele>
        <time>2016-10-16T10:29:51Z</time>
      </trkpt>
      <trkpt lat="45.95652" lon="4.71505">
        <ele>181</ele>
        <time>2016-10-16T10:29:52Z</time>
      </trkpt>
      <trkpt lat="45.95645" lon="4.71504">
        <ele>180</ele>
        <time>2016-10-16T10:29:53Z</time>
      </trkpt>
      <trkpt lat="45.9564" lon="4.71503">
        <ele>180</ele>
        <time>2016-10-16T10:29:54Z</time>
      </trkpt>
      <trkpt lat="45.95634" lon="4.71503">
        <ele>180</ele>
        <time>2016-10-16T10:29:55Z</time>
      </trkpt>
      <trkpt lat="45.95628" lon="4.71503">
        <ele>180</ele>
        <time>2016-10-16T10:29:56Z</time>
      </trkpt>
      <trkpt lat="45.95621" lon="4.71502">
        <ele>180</ele>
        <time>2016-10-16T10:29:57Z</time>
      </trkpt>
      <trkpt lat="45.95615" lon="4.71502">
        <ele>179</ele>
        <time>2016-10-16T10:29:58Z</time>
      </trkpt>
      <trkpt lat="45.95609" lon="4.71502">
        <ele>179</ele>
        <time>2016-10-16T10:29:59Z</time>
      </trkpt>
      <trkpt lat="45.95602" lon="4.71501">
        <ele>179</ele>
        <time>2016-10-16T10:30:00Z</time>
      </trkpt>
      <trkpt lat="45.95596" lon="4.71501">
        <ele>180</ele>
        <time>2016-10-16T10:30:01Z</time>
      </trkpt>
      <trkpt lat="45.9559" lon="4.715">
        <ele>180</ele>
        <time>2016-10-16T10:30:02Z</time>
      </trkpt>
      <trkpt lat="45.95583" lon="4.715">
        <ele>180</ele>
        <time>2016-10-16T10:30:03Z</time>
      </trkpt>
      <trkpt lat="45.95577" lon="4.715">
        <ele>180</ele>
        <time>2016-10-16T10:30:04Z</time>
      </trkpt>
      <trkpt lat="45.95571" lon="4.71499">
        <ele>180</ele>
        <time>2016-10-16T10:30:05Z</time>
      </trkpt>
      <trkpt lat="45.95564" lon="4.71499">
        <ele>179</ele>
        <time>2016-10-16T10:30:06Z</time>
      </trkpt>
      <trkpt lat="45.95558" lon="4.71498">
        <ele>179</ele>
        <time>2016-10-16T10:30:07Z</time>
      </trkpt>
      <trkpt lat="45.9555" lon="4.71498">
        <ele>179</ele>
        <time>2016-10-16T10:30:08Z</time>
      </trkpt>
      <trkpt lat="45.95543" lon="4.71497">
        <ele>179</ele>
        <time>2016-10-16T10:30:09Z</time>
      </trkpt>
      <trkpt lat="45.95535" lon="4.71496">
        <ele>179</ele>
        <time>2016-10-16T10:30:10Z</time>
      </trkpt>
      <trkpt lat="45.95528" lon="4.71496">
        <ele>178</ele>
        <time>2016-10-16T10:30:11Z</time>
      </trkpt>
      <trkpt lat="45.95521" lon="4.71496">
        <ele>178</ele>
        <time>2016-10-16T10:30:12Z</time>
      </trkpt>
      <trkpt lat="45.95514" lon="4.71495">
        <ele>178</ele>
        <time>2016-10-16T10:30:13Z</time>
      </trkpt>
      <trkpt lat="45.95507" lon="4.71495">
        <ele>178</ele>
        <time>2016-10-16T10:30:14Z</time>
      </trkpt>
      <trkpt lat="45.955" lon="4.71494">
        <ele>177</ele>
        <time>2016-10-16T10:30:15Z</time>
      </trkpt>
      <trkpt lat="45.95494" lon="4.71493">
        <ele>177</ele>
        <time>2016-10-16T10:30:16Z</time>
      </trkpt>
      <trkpt lat="45.95487" lon="4.71493">
        <ele>177</ele>
        <time>2016-10-16T10:30:17Z</time>
      </trkpt>
      <trkpt lat="45.9548" lon="4.71492">
        <ele>176</ele>
        <time>2016-10-16T10:30:18Z</time>
      </trkpt>
      <trkpt lat="45.95474" lon="4.71492">
        <ele>176</ele>
        <time>2016-10-16T10:30:19Z</time>
      </trkpt>
      <trkpt lat="45.95467" lon="4.71492">
        <ele>176</ele>
        <time>2016-10-16T10:30:20Z</time>
      </trkpt>
      <trkpt lat="45.95461" lon="4.71491">
        <ele>176</ele>
        <time>2016-10-16T10:30:21Z</time>
      </trkpt>
      <trkpt lat="45.95455" lon="4.71491">
        <ele>176</ele>
        <time>2016-10-16T10:30:22Z</time>
      </trkpt>
      <trkpt lat="45.95449" lon="4.71491">
        <ele>176</ele>
        <time>2016-10-16T10:30:23Z</time>
      </trkpt>
      <trkpt lat="45.95443" lon="4.7149">
        <ele>176</ele>
        <time>2016-10-16T10:30:24Z</time>
      </trkpt>
      <trkpt lat="45.95436" lon="4.71489">
        <ele>175</ele>
        <time>2016-10-16T10:30:25Z</time>
      </trkpt>
      <trkpt lat="45.9543" lon="4.71489">
        <ele>175</ele>
        <time>2016-10-16T10:30:26Z</time>
      </trkpt>
      <trkpt lat="45.95423" lon="4.71488">
        <ele>175</ele>
        <time>2016-10-16T10:30:27Z</time>
      </trkpt>
      <trkpt lat="45.95416" lon="4.71487">
        <ele>175</ele>
        <time>2016-10-16T10:30:28Z</time>
      </trkpt>
      <trkpt lat="45.9541" lon="4.71487">
        <ele>175</ele>
        <time>2016-10-16T10:30:29Z</time>
      </trkpt>
      <trkpt lat="45.95403" lon="4.71487">
        <ele>175</ele>
        <time>2016-10-16T10:30:30Z</time>
      </trkpt>
      <trkpt lat="45.95397" lon="4.71487">
        <ele>175</ele>
        <time>2016-10-16T10:30:31Z</time>
      </trkpt>
      <trkpt lat="45.9539" lon="4.71487">
        <ele>175</ele>
        <time>2016-10-16T10:30:32Z</time>
      </trkpt>
      <trkpt lat="45.95384" lon="4.71486">
        <ele>175</ele>
        <time>2016-10-16T10:30:33Z</time>
      </trkpt>
      <trkpt lat="45.95377" lon="4.71486">
        <ele>175</ele>
        <time>2016-10-16T10:30:34Z</time>
      </trkpt>
      <trkpt lat="45.95371" lon="4.71485">
        <ele>175</ele>
        <time>2016-10-16T10:30:35Z</time>
      </trkpt>
      <trkpt lat="45.95365" lon="4.71485">
        <ele>175</ele>
        <time>2016-10-16T10:30:36Z</time>
      </trkpt>
      <trkpt lat="45.95359" lon="4.71485">
        <ele>175</ele>
        <time>2016-10-16T10:30:37Z</time>
      </trkpt>
      <trkpt lat="45.95353" lon="4.71484">
        <ele>175</ele>
        <time>2016-10-16T10:30:38Z</time>
      </trkpt>
      <trkpt lat="45.95346" lon="4.71484">
        <ele>175</ele>
        <time>2016-10-16T10:30:39Z</time>
      </trkpt>
      <trkpt lat="45.9534" lon="4.71484">
        <ele>175</ele>
        <time>2016-10-16T10:30:40Z</time>
      </trkpt>
      <trkpt lat="45.95334" lon="4.71484">
        <ele>175</ele>
        <time>2016-10-16T10:30:41Z</time>
      </trkpt>
      <trkpt lat="45.95328" lon="4.71483">
        <ele>175</ele>
        <time>2016-10-16T10:30:42Z</time>
      </trkpt>
      <trkpt lat="45.95322" lon="4.71483">
        <ele>175</ele>
        <time>2016-10-16T10:30:43Z</time>
      </trkpt>
      <trkpt lat="45.95316" lon="4.71483">
        <ele>175</ele>
        <time>2016-10-16T10:30:44Z</time>
      </trkpt>
      <trkpt lat="45.95309" lon="4.71482">
        <ele>175</ele>
        <time>2016-10-16T10:30:45Z</time>
      </trkpt>
      <trkpt lat="45.95303" lon="4.71481">
        <ele>175</ele>
        <time>2016-10-16T10:30:46Z</time>
      </trkpt>
      <trkpt lat="45.95296" lon="4.71481">
        <ele>176</ele>
        <time>2016-10-16T10:30:47Z</time>
      </trkpt>
      <trkpt lat="45.9529" lon="4.71481">
        <ele>176</ele>
        <time>2016-10-16T10:30:48Z</time>
      </trkpt>
      <trkpt lat="45.95283" lon="4.7148">
        <ele>176</ele>
        <time>2016-10-16T10:30:49Z</time>
      </trkpt>
      <trkpt lat="45.95277" lon="4.7148">
        <ele>176</ele>
        <time>2016-10-16T10:30:50Z</time>
      </trkpt>
      <trkpt lat="45.95271" lon="4.7148">
        <ele>176</ele>
        <time>2016-10-16T10:30:51Z</time>
      </trkpt>
      <trkpt lat="45.95265" lon="4.71479">
        <ele>176</ele>
        <time>2016-10-16T10:30:52Z</time>
      </trkpt>
      <trkpt lat="45.95259" lon="4.71478">
        <ele>176</ele>
        <time>2016-10-16T10:30:53Z</time>
      </trkpt>
      <trkpt lat="45.95253" lon="4.71477">
        <ele>176</ele>
        <time>2016-10-16T10:30:54Z</time>
      </trkpt>
      <trkpt lat="45.95247" lon="4.71477">
        <ele>177</ele>
        <time>2016-10-16T10:30:55Z</time>
      </trkpt>
      <trkpt lat="45.95241" lon="4.71476">
        <ele>177</ele>
        <time>2016-10-16T10:30:56Z</time>
      </trkpt>
      <trkpt lat="45.95235" lon="4.71477">
        <ele>177</ele>
        <time>2016-10-16T10:30:57Z</time>
      </trkpt>
      <trkpt lat="45.95229" lon="4.71477">
        <ele>177</ele>
        <time>2016-10-16T10:30:58Z</time>
      </trkpt>
      <trkpt lat="45.95224" lon="4.71477">
        <ele>177</ele>
        <time>2016-10-16T10:30:59Z</time>
      </trkpt>
      <trkpt lat="45.95218" lon="4.71477">
        <ele>177</ele>
        <time>2016-10-16T10:31:00Z</time>
      </trkpt>
      <trkpt lat="45.95212" lon="4.71476">
        <ele>177</ele>
        <time>2016-10-16T10:31:01Z</time>
      </trkpt>
      <trkpt lat="45.95207" lon="4.71475">
        <ele>177</ele>
        <time>2016-10-16T10:31:02Z</time>
      </trkpt>
      <trkpt lat="45.95201" lon="4.71475">
        <ele>177</ele>
        <time>2016-10-16T10:31:03Z</time>
      </trkpt>
      <trkpt lat="45.95195" lon="4.71475">
        <ele>177</ele>
        <time>2016-10-16T10:31:04Z</time>
      </trkpt>
      <trkpt lat="45.9519" lon="4.71475">
        <ele>177</ele>
        <time>2016-10-16T10:31:05Z</time>
      </trkpt>
      <trkpt lat="45.95184" lon="4.71474">
        <ele>177</ele>
        <time>2016-10-16T10:31:06Z</time>
      </trkpt>
      <trkpt lat="45.95178" lon="4.71474">
        <ele>177</ele>
        <time>2016-10-16T10:31:07Z</time>
      </trkpt>
      <trkpt lat="45.95172" lon="4.71473">
        <ele>177</ele>
        <time>2016-10-16T10:31:08Z</time>
      </trkpt>
      <trkpt lat="45.95166" lon="4.71472">
        <ele>178</ele>
        <time>2016-10-16T10:31:09Z</time>
      </trkpt>
      <trkpt lat="45.95159" lon="4.71471">
        <ele>178</ele>
        <time>2016-10-16T10:31:10Z</time>
      </trkpt>
      <trkpt lat="45.95153" lon="4.71471">
        <ele>178</ele>
        <time>2016-10-16T10:31:11Z</time>
      </trkpt>
      <trkpt lat="45.95147" lon="4.71471">
        <ele>178</ele>
        <time>2016-10-16T10:31:12Z</time>
      </trkpt>
      <trkpt lat="45.95142" lon="4.7147">
        <ele>178</ele>
        <time>2016-10-16T10:31:13Z</time>
      </trkpt>
      <trkpt lat="45.95136" lon="4.7147">
        <ele>178</ele>
        <time>2016-10-16T10:31:14Z</time>
      </trkpt>
      <trkpt lat="45.9513" lon="4.7147">
        <ele>178</ele>
        <time>2016-10-16T10:31:15Z</time>
      </trkpt>
      <trkpt lat="45.95124" lon="4.71469">
        <ele>178</ele>
        <time>2016-10-16T10:31:16Z</time>
      </trkpt>
      <trkpt lat="45.95118" lon="4.71469">
        <ele>179</ele>
        <time>2016-10-16T10:31:17Z</time>
      </trkpt>
      <trkpt lat="45.95113" lon="4.71468">
        <ele>179</ele>
        <time>2016-10-16T10:31:18Z</time>
      </trkpt>
      <trkpt lat="45.95108" lon="4.71467">
        <ele>179</ele>
        <time>2016-10-16T10:31:19Z</time>
      </trkpt>
      <trkpt lat="45.95103" lon="4.71467">
        <ele>179</ele>
        <time>2016-10-16T10:31:20Z</time>
      </trkpt>
      <trkpt lat="45.95098" lon="4.71466">
        <ele>179</ele>
        <time>2016-10-16T10:31:21Z</time>
      </trkpt>
      <trkpt lat="45.95094" lon="4.71466">
        <ele>179</ele>
        <time>2016-10-16T10:31:22Z</time>
      </trkpt>
      <trkpt lat="45.95089" lon="4.71465">
        <ele>179</ele>
        <time>2016-10-16T10:31:23Z</time>
      </trkpt>
      <trkpt lat="45.95084" lon="4.71465">
        <ele>179</ele>
        <time>2016-10-16T10:31:24Z</time>
      </trkpt>
      <trkpt lat="45.95075" lon="4.71465">
        <ele>181</ele>
        <time>2016-10-16T10:31:26Z</time>
      </trkpt>
      <trkpt lat="45.95071" lon="4.71464">
        <ele>181</ele>
        <time>2016-10-16T10:31:27Z</time>
      </trkpt>
      <trkpt lat="45.95062" lon="4.71463">
        <ele>181</ele>
        <time>2016-10-16T10:31:29Z</time>
      </trkpt>
      <trkpt lat="45.95058" lon="4.71464">
        <ele>181</ele>
        <time>2016-10-16T10:31:30Z</time>
      </trkpt>
      <trkpt lat="45.9505" lon="4.71464">
        <ele>181</ele>
        <time>2016-10-16T10:31:32Z</time>
      </trkpt>
      <trkpt lat="45.95046" lon="4.71464">
        <ele>182</ele>
        <time>2016-10-16T10:31:33Z</time>
      </trkpt>
      <trkpt lat="45.95038" lon="4.71463">
        <ele>182</ele>
        <time>2016-10-16T10:31:35Z</time>
      </trkpt>
      <trkpt lat="45.95034" lon="4.71464">
        <ele>182</ele>
        <time>2016-10-16T10:31:36Z</time>
      </trkpt>
      <trkpt lat="45.95026" lon="4.71464">
        <ele>182</ele>
        <time>2016-10-16T10:31:38Z</time>
      </trkpt>
      <trkpt lat="45.95022" lon="4.71464">
        <ele>182</ele>
        <time>2016-10-16T10:31:39Z</time>
      </trkpt>
      <trkpt lat="45.95013" lon="4.71462">
        <ele>182</ele>
        <time>2016-10-16T10:31:41Z</time>
      </trkpt>
      <trkpt lat="45.95009" lon="4.71461">
        <ele>182</ele>
        <time>2016-10-16T10:31:42Z</time>
      </trkpt>
      <trkpt lat="45.95001" lon="4.71458">
        <ele>182</ele>
        <time>2016-10-16T10:31:44Z</time>
      </trkpt>
      <trkpt lat="45.94997" lon="4.71456">
        <ele>184</ele>
        <time>2016-10-16T10:31:45Z</time>
      </trkpt>
      <trkpt lat="45.94992" lon="4.71447">
        <ele>184</ele>
        <time>2016-10-16T10:31:47Z</time>
      </trkpt>
      <trkpt lat="45.9499" lon="4.71442">
        <ele>185</ele>
        <time>2016-10-16T10:31:48Z</time>
      </trkpt>
      <trkpt lat="45.94986" lon="4.71437">
        <ele>185</ele>
        <time>2016-10-16T10:31:49Z</time>
      </trkpt>
      <trkpt lat="45.94982" lon="4.71433">
        <ele>185</ele>
        <time>2016-10-16T10:31:50Z</time>
      </trkpt>
      <trkpt lat="45.94977" lon="4.71431">
        <ele>185</ele>
        <time>2016-10-16T10:31:51Z</time>
      </trkpt>
      <trkpt lat="45.94972" lon="4.7143">
        <ele>185</ele>
        <time>2016-10-16T10:31:52Z</time>
      </trkpt>
      <trkpt lat="45.94967" lon="4.71431">
        <ele>185</ele>
        <time>2016-10-16T10:31:53Z</time>
      </trkpt>
      <trkpt lat="45.94962" lon="4.71434">
        <ele>184</ele>
        <time>2016-10-16T10:31:54Z</time>
      </trkpt>
      <trkpt lat="45.94957" lon="4.71437">
        <ele>184</ele>
        <time>2016-10-16T10:31:55Z</time>
      </trkpt>
      <trkpt lat="45.94953" lon="4.71442">
        <ele>184</ele>
        <time>2016-10-16T10:31:56Z</time>
      </trkpt>
      <trkpt lat="45.94948" lon="4.71446">
        <ele>184</ele>
        <time>2016-10-16T10:31:57Z</time>
      </trkpt>
      <trkpt lat="45.94944" lon="4.7145">
        <ele>184</ele>
        <time>2016-10-16T10:31:58Z</time>
      </trkpt>
      <trkpt lat="45.94939" lon="4.71453">
        <ele>184</ele>
        <time>2016-10-16T10:31:59Z</time>
      </trkpt>
      <trkpt lat="45.94934" lon="4.71455">
        <ele>184</ele>
        <time>2016-10-16T10:32:00Z</time>
      </trkpt>
      <trkpt lat="45.94929" lon="4.71456">
        <ele>184</ele>
        <time>2016-10-16T10:32:01Z</time>
      </trkpt>
      <trkpt lat="45.94924" lon="4.71456">
        <ele>184</ele>
        <time>2016-10-16T10:32:02Z</time>
      </trkpt>
      <trkpt lat="45.94919" lon="4.71456">
        <ele>184</ele>
        <time>2016-10-16T10:32:03Z</time>
      </trkpt>
      <trkpt lat="45.94913" lon="4.71456">
        <ele>184</ele>
        <time>2016-10-16T10:32:04Z</time>
      </trkpt>
      <trkpt lat="45.94909" lon="4.71456">
        <ele>184</ele>
        <time>2016-10-16T10:32:05Z</time>
      </trkpt>
      <trkpt lat="45.94904" lon="4.71456">
        <ele>184</ele>
        <time>2016-10-16T10:32:06Z</time>
      </trkpt>
      <trkpt lat="45.949" lon="4.71456">
        <ele>184</ele>
        <time>2016-10-16T10:32:07Z</time>
      </trkpt>
      <trkpt lat="45.94895" lon="4.71455">
        <ele>184</ele>
        <time>2016-10-16T10:32:08Z</time>
      </trkpt>
      <trkpt lat="45.9489" lon="4.71454">
        <ele>184</ele>
        <time>2016-10-16T10:32:09Z</time>
      </trkpt>
      <trkpt lat="45.94884" lon="4.71454">
        <ele>184</ele>
        <time>2016-10-16T10:32:10Z</time>
      </trkpt>
      <trkpt lat="45.94879" lon="4.71454">
        <ele>184</ele>
        <time>2016-10-16T10:32:11Z</time>
      </trkpt>
      <trkpt lat="45.94874" lon="4.71453">
        <ele>184</ele>
        <time>2016-10-16T10:32:12Z</time>
      </trkpt>
      <trkpt lat="45.94869" lon="4.71452">
        <ele>184</ele>
        <time>2016-10-16T10:32:13Z</time>
      </trkpt>
      <trkpt lat="45.94864" lon="4.71451">
        <ele>184</ele>
        <time>2016-10-16T10:32:14Z</time>
      </trkpt>
      <trkpt lat="45.94859" lon="4.71451">
        <ele>184</ele>
        <time>2016-10-16T10:32:15Z</time>
      </trkpt>
      <trkpt lat="45.94854" lon="4.7145">
        <ele>184</ele>
        <time>2016-10-16T10:32:16Z</time>
      </trkpt>
      <trkpt lat="45.94849" lon="4.71449">
        <ele>184</ele>
        <time>2016-10-16T10:32:17Z</time>
      </trkpt>
      <trkpt lat="45.94845" lon="4.71449">
        <ele>184</ele>
        <time>2016-10-16T10:32:18Z</time>
      </trkpt>
      <trkpt lat="45.94836" lon="4.71448">
        <ele>184</ele>
        <time>2016-10-16T10:32:20Z</time>
      </trkpt>
      <trkpt lat="45.94831" lon="4.71447">
        <ele>184</ele>
        <time>2016-10-16T10:32:21Z</time>
      </trkpt>
      <trkpt lat="45.94823" lon="4.71447">
        <ele>184</ele>
        <time>2016-10-16T10:32:23Z</time>
      </trkpt>
      <trkpt lat="45.94819" lon="4.71447">
        <ele>184</ele>
        <time>2016-10-16T10:32:24Z</time>
      </trkpt>
      <trkpt lat="45.94814" lon="4.71446">
        <ele>184</ele>
        <time>2016-10-16T10:32:25Z</time>
      </trkpt>
      <trkpt lat="45.94809" lon="4.71446">
        <ele>184</ele>
        <time>2016-10-16T10:32:26Z</time>
      </trkpt>
      <trkpt lat="45.94805" lon="4.71446">
        <ele>184</ele>
        <time>2016-10-16T10:32:27Z</time>
      </trkpt>
      <trkpt lat="45.948" lon="4.71445">
        <ele>184</ele>
        <time>2016-10-16T10:32:28Z</time>
      </trkpt>
      <trkpt lat="45.94795" lon="4.71445">
        <ele>183</ele>
        <time>2016-10-16T10:32:29Z</time>
      </trkpt>
      <trkpt lat="45.9479" lon="4.71444">
        <ele>184</ele>
        <time>2016-10-16T10:32:30Z</time>
      </trkpt>
      <trkpt lat="45.94784" lon="4.71443">
        <ele>184</ele>
        <time>2016-10-16T10:32:31Z</time>
      </trkpt>
      <trkpt lat="45.94779" lon="4.71441">
        <ele>184</ele>
        <time>2016-10-16T10:32:32Z</time>
      </trkpt>
      <trkpt lat="45.94774" lon="4.71441">
        <ele>184</ele>
        <time>2016-10-16T10:32:33Z</time>
      </trkpt>
      <trkpt lat="45.94769" lon="4.71442">
        <ele>184</ele>
        <time>2016-10-16T10:32:34Z</time>
      </trkpt>
      <trkpt lat="45.94764" lon="4.71442">
        <ele>184</ele>
        <time>2016-10-16T10:32:35Z</time>
      </trkpt>
      <trkpt lat="45.94759" lon="4.71442">
        <ele>184</ele>
        <time>2016-10-16T10:32:36Z</time>
      </trkpt>
      <trkpt lat="45.94754" lon="4.71441">
        <ele>184</ele>
        <time>2016-10-16T10:32:37Z</time>
      </trkpt>
      <trkpt lat="45.94749" lon="4.71441">
        <ele>183</ele>
        <time>2016-10-16T10:32:38Z</time>
      </trkpt>
      <trkpt lat="45.94744" lon="4.71441">
        <ele>183</ele>
        <time>2016-10-16T10:32:39Z</time>
      </trkpt>
      <trkpt lat="45.94739" lon="4.71441">
        <ele>183</ele>
        <time>2016-10-16T10:32:40Z</time>
      </trkpt>
      <trkpt lat="45.94733" lon="4.71441">
        <ele>183</ele>
        <time>2016-10-16T10:32:41Z</time>
      </trkpt>
      <trkpt lat="45.94728" lon="4.71441">
        <ele>183</ele>
        <time>2016-10-16T10:32:42Z</time>
      </trkpt>
      <trkpt lat="45.94722" lon="4.71441">
        <ele>182</ele>
        <time>2016-10-16T10:32:43Z</time>
      </trkpt>
      <trkpt lat="45.94717" lon="4.71441">
        <ele>182</ele>
        <time>2016-10-16T10:32:44Z</time>
      </trkpt>
      <trkpt lat="45.94711" lon="4.71441">
        <ele>182</ele>
        <time>2016-10-16T10:32:45Z</time>
      </trkpt>
      <trkpt lat="45.94705" lon="4.71441">
        <ele>182</ele>
        <time>2016-10-16T10:32:46Z</time>
      </trkpt>
      <trkpt lat="45.94699" lon="4.71442">
        <ele>182</ele>
        <time>2016-10-16T10:32:47Z</time>
      </trkpt>
      <trkpt lat="45.94692" lon="4.71441">
        <ele>182</ele>
        <time>2016-10-16T10:32:48Z</time>
      </trkpt>
      <trkpt lat="45.94685" lon="4.71441">
        <ele>182</ele>
        <time>2016-10-16T10:32:49Z</time>
      </trkpt>
      <trkpt lat="45.94679" lon="4.7144">
        <ele>182</ele>
        <time>2016-10-16T10:32:50Z</time>
      </trkpt>
      <trkpt lat="45.94672" lon="4.71439">
        <ele>182</ele>
        <time>2016-10-16T10:32:51Z</time>
      </trkpt>
      <trkpt lat="45.94666" lon="4.71438">
        <ele>182</ele>
        <time>2016-10-16T10:32:52Z</time>
      </trkpt>
      <trkpt lat="45.94661" lon="4.71438">
        <ele>182</ele>
        <time>2016-10-16T10:32:53Z</time>
      </trkpt>
      <trkpt lat="45.94655" lon="4.71438">
        <ele>182</ele>
        <time>2016-10-16T10:32:54Z</time>
      </trkpt>
      <trkpt lat="45.94651" lon="4.71438">
        <ele>182</ele>
        <time>2016-10-16T10:32:55Z</time>
      </trkpt>
      <trkpt lat="45.94646" lon="4.71437">
        <ele>182</ele>
        <time>2016-10-16T10:32:56Z</time>
      </trkpt>
      <trkpt lat="45.9464" lon="4.71437">
        <ele>182</ele>
        <time>2016-10-16T10:32:57Z</time>
      </trkpt>
      <trkpt lat="45.94635" lon="4.71437">
        <ele>181</ele>
        <time>2016-10-16T10:32:58Z</time>
      </trkpt>
      <trkpt lat="45.9463" lon="4.71437">
        <ele>181</ele>
        <time>2016-10-16T10:32:59Z</time>
      </trkpt>
      <trkpt lat="45.94625" lon="4.71437">
        <ele>181</ele>
        <time>2016-10-16T10:33:00Z</time>
      </trkpt>
      <trkpt lat="45.94619" lon="4.71436">
        <ele>182</ele>
        <time>2016-10-16T10:33:01Z</time>
      </trkpt>
      <trkpt lat="45.94615" lon="4.71436">
        <ele>182</ele>
        <time>2016-10-16T10:33:02Z</time>
      </trkpt>
      <trkpt lat="45.94609" lon="4.71435">
        <ele>182</ele>
        <time>2016-10-16T10:33:03Z</time>
      </trkpt>
      <trkpt lat="45.94604" lon="4.71434">
        <ele>182</ele>
        <time>2016-10-16T10:33:04Z</time>
      </trkpt>
      <trkpt lat="45.94599" lon="4.71434">
        <ele>182</ele>
        <time>2016-10-16T10:33:05Z</time>
      </trkpt>
      <trkpt lat="45.94593" lon="4.71434">
        <ele>182</ele>
        <time>2016-10-16T10:33:06Z</time>
      </trkpt>
      <trkpt lat="45.94587" lon="4.71434">
        <ele>183</ele>
        <time>2016-10-16T10:33:07Z</time>
      </trkpt>
      <trkpt lat="45.9458" lon="4.71434">
        <ele>182</ele>
        <time>2016-10-16T10:33:08Z</time>
      </trkpt>
      <trkpt lat="45.94574" lon="4.71434">
        <ele>182</ele>
        <time>2016-10-16T10:33:09Z</time>
      </trkpt>
      <trkpt lat="45.94568" lon="4.71435">
        <ele>182</ele>
        <time>2016-10-16T10:33:10Z</time>
      </trkpt>
      <trkpt lat="45.94562" lon="4.71436">
        <ele>181</ele>
        <time>2016-10-16T10:33:11Z</time>
      </trkpt>
      <trkpt lat="45.94556" lon="4.71438">
        <ele>181</ele>
        <time>2016-10-16T10:33:12Z</time>
      </trkpt>
      <trkpt lat="45.9455" lon="4.7144">
        <ele>181</ele>
        <time>2016-10-16T10:33:13Z</time>
      </trkpt>
      <trkpt lat="45.94544" lon="4.71442">
        <ele>181</ele>
        <time>2016-10-16T10:33:14Z</time>
      </trkpt>
      <trkpt lat="45.94537" lon="4.71444">
        <ele>181</ele>
        <time>2016-10-16T10:33:15Z</time>
      </trkpt>
      <trkpt lat="45.94531" lon="4.71447">
        <ele>180</ele>
        <time>2016-10-16T10:33:16Z</time>
      </trkpt>
      <trkpt lat="45.94525" lon="4.71451">
        <ele>180</ele>
        <time>2016-10-16T10:33:17Z</time>
      </trkpt>
      <trkpt lat="45.94519" lon="4.71454">
        <ele>180</ele>
        <time>2016-10-16T10:33:18Z</time>
      </trkpt>
      <trkpt lat="45.94513" lon="4.71457">
        <ele>180</ele>
        <time>2016-10-16T10:33:19Z</time>
      </trkpt>
      <trkpt lat="45.94506" lon="4.71458">
        <ele>180</ele>
        <time>2016-10-16T10:33:20Z</time>
      </trkpt>
      <trkpt lat="45.945" lon="4.71461">
        <ele>179</ele>
        <time>2016-10-16T10:33:21Z</time>
      </trkpt>
      <trkpt lat="45.94493" lon="4.71465">
        <ele>179</ele>
        <time>2016-10-16T10:33:22Z</time>
      </trkpt>
      <trkpt lat="45.94485" lon="4.71467">
        <ele>179</ele>
        <time>2016-10-16T10:33:23Z</time>
      </trkpt>
      <trkpt lat="45.94476" lon="4.71469">
        <ele>179</ele>
        <time>2016-10-16T10:33:24Z</time>
      </trkpt>
      <trkpt lat="45.94469" lon="4.71471">
        <ele>179</ele>
        <time>2016-10-16T10:33:25Z</time>
      </trkpt>
      <trkpt lat="45.94462" lon="4.71473">
        <ele>179</ele>
        <time>2016-10-16T10:33:26Z</time>
      </trkpt>
      <trkpt lat="45.94455" lon="4.71476">
        <ele>179</ele>
        <time>2016-10-16T10:33:27Z</time>
      </trkpt>
      <trkpt lat="45.94449" lon="4.71478">
        <ele>179</ele>
        <time>2016-10-16T10:33:28Z</time>
      </trkpt>
      <trkpt lat="45.94442" lon="4.71481">
        <ele>179</ele>
        <time>2016-10-16T10:33:29Z</time>
      </trkpt>
      <trkpt lat="45.94436" lon="4.71484">
        <ele>179</ele>
        <time>2016-10-16T10:33:30Z</time>
      </trkpt>
      <trkpt lat="45.9443" lon="4.71485">
        <ele>178</ele>
        <time>2016-10-16T10:33:31Z</time>
      </trkpt>
      <trkpt lat="45.94423" lon="4.71487">
        <ele>178</ele>
        <time>2016-10-16T10:33:32Z</time>
      </trkpt>
      <trkpt lat="45.94416" lon="4.71489">
        <ele>178</ele>
        <time>2016-10-16T10:33:33Z</time>
      </trkpt>
      <trkpt lat="45.94408" lon="4.71492">
        <ele>178</ele>
        <time>2016-10-16T10:33:34Z</time>
      </trkpt>
      <trkpt lat="45.94401" lon="4.71495">
        <ele>178</ele>
        <time>2016-10-16T10:33:35Z</time>
      </trkpt>
      <trkpt lat="45.94393" lon="4.71497">
        <ele>177</ele>
        <time>2016-10-16T10:33:36Z</time>
      </trkpt>
      <trkpt lat="45.94386" lon="4.71499">
        <ele>177</ele>
        <time>2016-10-16T10:33:37Z</time>
      </trkpt>
      <trkpt lat="45.9438" lon="4.71503">
        <ele>177</ele>
        <time>2016-10-16T10:33:38Z</time>
      </trkpt>
      <trkpt lat="45.94373" lon="4.71505">
        <ele>176</ele>
        <time>2016-10-16T10:33:39Z</time>
      </trkpt>
      <trkpt lat="45.94367" lon="4.71508">
        <ele>176</ele>
        <time>2016-10-16T10:33:40Z</time>
      </trkpt>
      <trkpt lat="45.9436" lon="4.7151">
        <ele>176</ele>
        <time>2016-10-16T10:33:41Z</time>
      </trkpt>
      <trkpt lat="45.94354" lon="4.71513">
        <ele>176</ele>
        <time>2016-10-16T10:33:42Z</time>
      </trkpt>
      <trkpt lat="45.94347" lon="4.71517">
        <ele>176</ele>
        <time>2016-10-16T10:33:43Z</time>
      </trkpt>
      <trkpt lat="45.94341" lon="4.7152">
        <ele>176</ele>
        <time>2016-10-16T10:33:44Z</time>
      </trkpt>
      <trkpt lat="45.94334" lon="4.71523">
        <ele>176</ele>
        <time>2016-10-16T10:33:45Z</time>
      </trkpt>
      <trkpt lat="45.94328" lon="4.71526">
        <ele>176</ele>
        <time>2016-10-16T10:33:46Z</time>
      </trkpt>
      <trkpt lat="45.94321" lon="4.71529">
        <ele>176</ele>
        <time>2016-10-16T10:33:47Z</time>
      </trkpt>
      <trkpt lat="45.94315" lon="4.71531">
        <ele>175</ele>
        <time>2016-10-16T10:33:48Z</time>
      </trkpt>
      <trkpt lat="45.94308" lon="4.71534">
        <ele>175</ele>
        <time>2016-10-16T10:33:49Z</time>
      </trkpt>
      <trkpt lat="45.94302" lon="4.71537">
        <ele>175</ele>
        <time>2016-10-16T10:33:50Z</time>
      </trkpt>
      <trkpt lat="45.94295" lon="4.71539">
        <ele>175</ele>
        <time>2016-10-16T10:33:51Z</time>
      </trkpt>
      <trkpt lat="45.94289" lon="4.71541">
        <ele>175</ele>
        <time>2016-10-16T10:33:52Z</time>
      </trkpt>
      <trkpt lat="45.94282" lon="4.71544">
        <ele>175</ele>
        <time>2016-10-16T10:33:53Z</time>
      </trkpt>
      <trkpt lat="45.94276" lon="4.71547">
        <ele>175</ele>
        <time>2016-10-16T10:33:54Z</time>
      </trkpt>
      <trkpt lat="45.94269" lon="4.7155">
        <ele>175</ele>
        <time>2016-10-16T10:33:55Z</time>
      </trkpt>
      <trkpt lat="45.94263" lon="4.71552">
        <ele>175</ele>
        <time>2016-10-16T10:33:56Z</time>
      </trkpt>
      <trkpt lat="45.94257" lon="4.71554">
        <ele>175</ele>
        <time>2016-10-16T10:33:57Z</time>
      </trkpt>
      <trkpt lat="45.94251" lon="4.71557">
        <ele>175</ele>
        <time>2016-10-16T10:33:58Z</time>
      </trkpt>
      <trkpt lat="45.94245" lon="4.71559">
        <ele>174</ele>
        <time>2016-10-16T10:33:59Z</time>
      </trkpt>
      <trkpt lat="45.94238" lon="4.71561">
        <ele>174</ele>
        <time>2016-10-16T10:34:00Z</time>
      </trkpt>
      <trkpt lat="45.94233" lon="4.71563">
        <ele>174</ele>
        <time>2016-10-16T10:34:01Z</time>
      </trkpt>
      <trkpt lat="45.94227" lon="4.71566">
        <ele>174</ele>
        <time>2016-10-16T10:34:02Z</time>
      </trkpt>
      <trkpt lat="45.94221" lon="4.71568">
        <ele>174</ele>
        <time>2016-10-16T10:34:03Z</time>
      </trkpt>
      <trkpt lat="45.94215" lon="4.71571">
        <ele>174</ele>
        <time>2016-10-16T10:34:04Z</time>
      </trkpt>
      <trkpt lat="45.94209" lon="4.71573">
        <ele>174</ele>
        <time>2016-10-16T10:34:05Z</time>
      </trkpt>
      <trkpt lat="45.94202" lon="4.71575">
        <ele>174</ele>
        <time>2016-10-16T10:34:06Z</time>
      </trkpt>
      <trkpt lat="45.94195" lon="4.71577">
        <ele>174</ele>
        <time>2016-10-16T10:34:07Z</time>
      </trkpt>
      <trkpt lat="45.94188" lon="4.71579">
        <ele>174</ele>
        <time>2016-10-16T10:34:08Z</time>
      </trkpt>
      <trkpt lat="45.94182" lon="4.71583">
        <ele>174</ele>
        <time>2016-10-16T10:34:09Z</time>
      </trkpt>
      <trkpt lat="45.94174" lon="4.71585">
        <ele>174</ele>
        <time>2016-10-16T10:34:10Z</time>
      </trkpt>
      <trkpt lat="45.94168" lon="4.71587">
        <ele>174</ele>
        <time>2016-10-16T10:34:11Z</time>
      </trkpt>
      <trkpt lat="45.94162" lon="4.7159">
        <ele>174</ele>
        <time>2016-10-16T10:34:12Z</time>
      </trkpt>
      <trkpt lat="45.94156" lon="4.71592">
        <ele>173</ele>
        <time>2016-10-16T10:34:13Z</time>
      </trkpt>
      <trkpt lat="45.9415" lon="4.71594">
        <ele>173</ele>
        <time>2016-10-16T10:34:14Z</time>
      </trkpt>
      <trkpt lat="45.94143" lon="4.71597">
        <ele>173</ele>
        <time>2016-10-16T10:34:15Z</time>
      </trkpt>
      <trkpt lat="45.94137" lon="4.716">
        <ele>173</ele>
        <time>2016-10-16T10:34:16Z</time>
      </trkpt>
      <trkpt lat="45.94131" lon="4.71601">
        <ele>173</ele>
        <time>2016-10-16T10:34:17Z</time>
      </trkpt>
      <trkpt lat="45.94126" lon="4.71603">
        <ele>173</ele>
        <time>2016-10-16T10:34:18Z</time>
      </trkpt>
      <trkpt lat="45.94121" lon="4.71606">
        <ele>173</ele>
        <time>2016-10-16T10:34:19Z</time>
      </trkpt>
      <trkpt lat="45.94115" lon="4.71608">
        <ele>173</ele>
        <time>2016-10-16T10:34:20Z</time>
      </trkpt>
      <trkpt lat="45.9411" lon="4.71611">
        <ele>173</ele>
        <time>2016-10-16T10:34:21Z</time>
      </trkpt>
      <trkpt lat="45.94105" lon="4.71614">
        <ele>173</ele>
        <time>2016-10-16T10:34:22Z</time>
      </trkpt>
      <trkpt lat="45.94099" lon="4.71616">
        <ele>173</ele>
        <time>2016-10-16T10:34:23Z</time>
      </trkpt>
      <trkpt lat="45.94093" lon="4.71618">
        <ele>173</ele>
        <time>2016-10-16T10:34:24Z</time>
      </trkpt>
      <trkpt lat="45.94087" lon="4.71621">
        <ele>173</ele>
        <time>2016-10-16T10:34:25Z</time>
      </trkpt>
      <trkpt lat="45.94082" lon="4.71626">
        <ele>174</ele>
        <time>2016-10-16T10:34:26Z</time>
      </trkpt>
      <trkpt lat="45.94076" lon="4.71629">
        <ele>174</ele>
        <time>2016-10-16T10:34:27Z</time>
      </trkpt>
      <trkpt lat="45.9407" lon="4.71632">
        <ele>174</ele>
        <time>2016-10-16T10:34:28Z</time>
      </trkpt>
      <trkpt lat="45.94065" lon="4.71634">
        <ele>174</ele>
        <time>2016-10-16T10:34:29Z</time>
      </trkpt>
      <trkpt lat="45.94059" lon="4.71636">
        <ele>174</ele>
        <time>2016-10-16T10:34:30Z</time>
      </trkpt>
      <trkpt lat="45.94053" lon="4.71638">
        <ele>175</ele>
        <time>2016-10-16T10:34:31Z</time>
      </trkpt>
      <trkpt lat="45.94048" lon="4.71639">
        <ele>175</ele>
        <time>2016-10-16T10:34:32Z</time>
      </trkpt>
      <trkpt lat="45.94043" lon="4.71641">
        <ele>175</ele>
        <time>2016-10-16T10:34:33Z</time>
      </trkpt>
      <trkpt lat="45.94038" lon="4.71643">
        <ele>175</ele>
        <time>2016-10-16T10:34:34Z</time>
      </trkpt>
      <trkpt lat="45.94033" lon="4.71645">
        <ele>175</ele>
        <time>2016-10-16T10:34:35Z</time>
      </trkpt>
      <trkpt lat="45.94028" lon="4.71648">
        <ele>175</ele>
        <time>2016-10-16T10:34:36Z</time>
      </trkpt>
      <trkpt lat="45.94022" lon="4.7165">
        <ele>175</ele>
        <time>2016-10-16T10:34:37Z</time>
      </trkpt>
      <trkpt lat="45.94017" lon="4.71653">
        <ele>176</ele>
        <time>2016-10-16T10:34:38Z</time>
      </trkpt>
      <trkpt lat="45.94012" lon="4.71656">
        <ele>176</ele>
        <time>2016-10-16T10:34:39Z</time>
      </trkpt>
      <trkpt lat="45.94007" lon="4.71659">
        <ele>176</ele>
        <time>2016-10-16T10:34:40Z</time>
      </trkpt>
      <trkpt lat="45.94001" lon="4.71661">
        <ele>177</ele>
        <time>2016-10-16T10:34:41Z</time>
      </trkpt>
      <trkpt lat="45.93997" lon="4.71666">
        <ele>177</ele>
        <time>2016-10-16T10:34:42Z</time>
      </trkpt>
      <trkpt lat="45.93993" lon="4.7167">
        <ele>176</ele>
        <time>2016-10-16T10:34:43Z</time>
      </trkpt>
      <trkpt lat="45.93988" lon="4.71673">
        <ele>176</ele>
        <time>2016-10-16T10:34:44Z</time>
      </trkpt>
      <trkpt lat="45.93981" lon="4.71675">
        <ele>176</ele>
        <time>2016-10-16T10:34:45Z</time>
      </trkpt>
      <trkpt lat="45.93975" lon="4.71678">
        <ele>175</ele>
        <time>2016-10-16T10:34:46Z</time>
      </trkpt>
      <trkpt lat="45.93969" lon="4.7168">
        <ele>175</ele>
        <time>2016-10-16T10:34:47Z</time>
      </trkpt>
      <trkpt lat="45.93963" lon="4.71682">
        <ele>175</ele>
        <time>2016-10-16T10:34:48Z</time>
      </trkpt>
      <trkpt lat="45.93958" lon="4.71683">
        <ele>175</ele>
        <time>2016-10-16T10:34:49Z</time>
      </trkpt>
      <trkpt lat="45.93953" lon="4.71685">
        <ele>175</ele>
        <time>2016-10-16T10:34:50Z</time>
      </trkpt>
      <trkpt lat="45.93948" lon="4.71686">
        <ele>175</ele>
        <time>2016-10-16T10:34:51Z</time>
      </trkpt>
      <trkpt lat="45.93942" lon="4.71687">
        <ele>175</ele>
        <time>2016-10-16T10:34:52Z</time>
      </trkpt>
      <trkpt lat="45.93937" lon="4.71687">
        <ele>175</ele>
        <time>2016-10-16T10:34:53Z</time>
      </trkpt>
      <trkpt lat="45.93931" lon="4.71688">
        <ele>175</ele>
        <time>2016-10-16T10:34:54Z</time>
      </trkpt>
      <trkpt lat="45.93926" lon="4.71689">
        <ele>175</ele>
        <time>2016-10-16T10:34:55Z</time>
      </trkpt>
      <trkpt lat="45.93921" lon="4.71691">
        <ele>175</ele>
        <time>2016-10-16T10:34:56Z</time>
      </trkpt>
      <trkpt lat="45.93916" lon="4.71692">
        <ele>174</ele>
        <time>2016-10-16T10:34:57Z</time>
      </trkpt>
      <trkpt lat="45.93911" lon="4.71694">
        <ele>174</ele>
        <time>2016-10-16T10:34:58Z</time>
      </trkpt>
      <trkpt lat="45.93905" lon="4.71695">
        <ele>174</ele>
        <time>2016-10-16T10:34:59Z</time>
      </trkpt>
      <trkpt lat="45.93899" lon="4.71697">
        <ele>174</ele>
        <time>2016-10-16T10:35:00Z</time>
      </trkpt>
      <trkpt lat="45.93893" lon="4.71699">
        <ele>174</ele>
        <time>2016-10-16T10:35:01Z</time>
      </trkpt>
      <trkpt lat="45.93887" lon="4.71701">
        <ele>174</ele>
        <time>2016-10-16T10:35:02Z</time>
      </trkpt>
      <trkpt lat="45.93881" lon="4.71703">
        <ele>174</ele>
        <time>2016-10-16T10:35:03Z</time>
      </trkpt>
      <trkpt lat="45.93876" lon="4.71705">
        <ele>174</ele>
        <time>2016-10-16T10:35:04Z</time>
      </trkpt>
      <trkpt lat="45.9387" lon="4.71707">
        <ele>174</ele>
        <time>2016-10-16T10:35:05Z</time>
      </trkpt>
      <trkpt lat="45.93864" lon="4.71709">
        <ele>174</ele>
        <time>2016-10-16T10:35:06Z</time>
      </trkpt>
      <trkpt lat="45.93858" lon="4.71711">
        <ele>174</ele>
        <time>2016-10-16T10:35:07Z</time>
      </trkpt>
      <trkpt lat="45.93852" lon="4.71713">
        <ele>174</ele>
        <time>2016-10-16T10:35:08Z</time>
      </trkpt>
      <trkpt lat="45.93846" lon="4.71715">
        <ele>174</ele>
        <time>2016-10-16T10:35:09Z</time>
      </trkpt>
      <trkpt lat="45.9384" lon="4.71717">
        <ele>175</ele>
        <time>2016-10-16T10:35:10Z</time>
      </trkpt>
      <trkpt lat="45.93835" lon="4.71719">
        <ele>175</ele>
        <time>2016-10-16T10:35:11Z</time>
      </trkpt>
      <trkpt lat="45.93829" lon="4.71721">
        <ele>175</ele>
        <time>2016-10-16T10:35:12Z</time>
      </trkpt>
      <trkpt lat="45.93824" lon="4.71723">
        <ele>175</ele>
        <time>2016-10-16T10:35:13Z</time>
      </trkpt>
      <trkpt lat="45.93819" lon="4.71725">
        <ele>175</ele>
        <time>2016-10-16T10:35:14Z</time>
      </trkpt>
      <trkpt lat="45.93814" lon="4.71725">
        <ele>175</ele>
        <time>2016-10-16T10:35:15Z</time>
      </trkpt>
      <trkpt lat="45.93808" lon="4.71727">
        <ele>175</ele>
        <time>2016-10-16T10:35:16Z</time>
      </trkpt>
      <trkpt lat="45.93803" lon="4.71729">
        <ele>175</ele>
        <time>2016-10-16T10:35:17Z</time>
      </trkpt>
      <trkpt lat="45.93798" lon="4.71731">
        <ele>175</ele>
        <time>2016-10-16T10:35:18Z</time>
      </trkpt>
      <trkpt lat="45.93792" lon="4.71733">
        <ele>175</ele>
        <time>2016-10-16T10:35:19Z</time>
      </trkpt>
      <trkpt lat="45.93788" lon="4.71735">
        <ele>175</ele>
        <time>2016-10-16T10:35:20Z</time>
      </trkpt>
      <trkpt lat="45.93782" lon="4.71737">
        <ele>175</ele>
        <time>2016-10-16T10:35:21Z</time>
      </trkpt>
      <trkpt lat="45.93777" lon="4.7174">
        <ele>175</ele>
        <time>2016-10-16T10:35:22Z</time>
      </trkpt>
      <trkpt lat="45.93773" lon="4.71742">
        <ele>175</ele>
        <time>2016-10-16T10:35:23Z</time>
      </trkpt>
      <trkpt lat="45.93768" lon="4.71744">
        <ele>175</ele>
        <time>2016-10-16T10:35:24Z</time>
      </trkpt>
      <trkpt lat="45.93763" lon="4.71746">
        <ele>175</ele>
        <time>2016-10-16T10:35:25Z</time>
      </trkpt>
      <trkpt lat="45.93759" lon="4.71747">
        <ele>175</ele>
        <time>2016-10-16T10:35:26Z</time>
      </trkpt>
      <trkpt lat="45.93753" lon="4.71749">
        <ele>175</ele>
        <time>2016-10-16T10:35:27Z</time>
      </trkpt>
      <trkpt lat="45.93749" lon="4.71752">
        <ele>175</ele>
        <time>2016-10-16T10:35:28Z</time>
      </trkpt>
      <trkpt lat="45.9374" lon="4.71755">
        <ele>175</ele>
        <time>2016-10-16T10:35:30Z</time>
      </trkpt>
      <trkpt lat="45.93736" lon="4.71757">
        <ele>176</ele>
        <time>2016-10-16T10:35:31Z</time>
      </trkpt>
      <trkpt lat="45.93731" lon="4.71762">
        <ele>176</ele>
        <time>2016-10-16T10:35:33Z</time>
      </trkpt>
      <trkpt lat="45.93728" lon="4.71764">
        <ele>176</ele>
        <time>2016-10-16T10:35:34Z</time>
      </trkpt>
      <trkpt lat="45.93722" lon="4.7177">
        <ele>176</ele>
        <time>2016-10-16T10:35:38Z</time>
      </trkpt>
      <trkpt lat="45.93718" lon="4.71773">
        <ele>176</ele>
        <time>2016-10-16T10:35:39Z</time>
      </trkpt>
      <trkpt lat="45.93714" lon="4.71781">
        <ele>176</ele>
        <time>2016-10-16T10:35:41Z</time>
      </trkpt>
      <trkpt lat="45.93712" lon="4.71787">
        <ele>176</ele>
        <time>2016-10-16T10:35:42Z</time>
      </trkpt>
      <trkpt lat="45.9371" lon="4.71793">
        <ele>176</ele>
        <time>2016-10-16T10:35:43Z</time>
      </trkpt>
      <trkpt lat="45.93708" lon="4.71799">
        <ele>176</ele>
        <time>2016-10-16T10:35:44Z</time>
      </trkpt>
      <trkpt lat="45.93706" lon="4.71807">
        <ele>176</ele>
        <time>2016-10-16T10:35:45Z</time>
      </trkpt>
      <trkpt lat="45.93704" lon="4.71814">
        <ele>176</ele>
        <time>2016-10-16T10:35:46Z</time>
      </trkpt>
      <trkpt lat="45.93702" lon="4.71822">
        <ele>176</ele>
        <time>2016-10-16T10:35:47Z</time>
      </trkpt>
      <trkpt lat="45.937" lon="4.71829">
        <ele>176</ele>
        <time>2016-10-16T10:35:48Z</time>
      </trkpt>
      <trkpt lat="45.93697" lon="4.71836">
        <ele>175</ele>
        <time>2016-10-16T10:35:49Z</time>
      </trkpt>
      <trkpt lat="45.93694" lon="4.71843">
        <ele>175</ele>
        <time>2016-10-16T10:35:50Z</time>
      </trkpt>
      <trkpt lat="45.93692" lon="4.71849">
        <ele>175</ele>
        <time>2016-10-16T10:35:51Z</time>
      </trkpt>
      <trkpt lat="45.93689" lon="4.71855">
        <ele>175</ele>
        <time>2016-10-16T10:35:52Z</time>
      </trkpt>
      <trkpt lat="45.93688" lon="4.71862">
        <ele>175</ele>
        <time>2016-10-16T10:35:53Z</time>
      </trkpt>
      <trkpt lat="45.93685" lon="4.71868">
        <ele>175</ele>
        <time>2016-10-16T10:35:54Z</time>
      </trkpt>
      <trkpt lat="45.93683" lon="4.71874">
        <ele>175</ele>
        <time>2016-10-16T10:35:55Z</time>
      </trkpt>
      <trkpt lat="45.93672" lon="4.71896">
        <ele>175</ele>
        <time>2016-10-16T10:35:58Z</time>
      </trkpt>
      <trkpt lat="45.93669" lon="4.71904">
        <ele>175</ele>
        <time>2016-10-16T10:35:59Z</time>
      </trkpt>
      <trkpt lat="45.93666" lon="4.71912">
        <ele>175</ele>
        <time>2016-10-16T10:36:00Z</time>
      </trkpt>
      <trkpt lat="45.93663" lon="4.71919">
        <ele>175</ele>
        <time>2016-10-16T10:36:01Z</time>
      </trkpt>
      <trkpt lat="45.9366" lon="4.71926">
        <ele>175</ele>
        <time>2016-10-16T10:36:02Z</time>
      </trkpt>
      <trkpt lat="45.93657" lon="4.71933">
        <ele>175</ele>
        <time>2016-10-16T10:36:03Z</time>
      </trkpt>
      <trkpt lat="45.93655" lon="4.71939">
        <ele>175</ele>
        <time>2016-10-16T10:36:04Z</time>
      </trkpt>
      <trkpt lat="45.93652" lon="4.71946">
        <ele>175</ele>
        <time>2016-10-16T10:36:05Z</time>
      </trkpt>
      <trkpt lat="45.9365" lon="4.71953">
        <ele>175</ele>
        <time>2016-10-16T10:36:06Z</time>
      </trkpt>
      <trkpt lat="45.93647" lon="4.7196">
        <ele>175</ele>
        <time>2016-10-16T10:36:07Z</time>
      </trkpt>
      <trkpt lat="45.93644" lon="4.71966">
        <ele>175</ele>
        <time>2016-10-16T10:36:08Z</time>
      </trkpt>
      <trkpt lat="45.93642" lon="4.71974">
        <ele>175</ele>
        <time>2016-10-16T10:36:09Z</time>
      </trkpt>
      <trkpt lat="45.93642" lon="4.71981">
        <ele>175</ele>
        <time>2016-10-16T10:36:10Z</time>
      </trkpt>
      <trkpt lat="45.93641" lon="4.71988">
        <ele>175</ele>
        <time>2016-10-16T10:36:11Z</time>
      </trkpt>
      <trkpt lat="45.93639" lon="4.71997">
        <ele>175</ele>
        <time>2016-10-16T10:36:12Z</time>
      </trkpt>
      <trkpt lat="45.93635" lon="4.72005">
        <ele>174</ele>
        <time>2016-10-16T10:36:13Z</time>
      </trkpt>
      <trkpt lat="45.93633" lon="4.72013">
        <ele>174</ele>
        <time>2016-10-16T10:36:14Z</time>
      </trkpt>
      <trkpt lat="45.9363" lon="4.7202">
        <ele>174</ele>
        <time>2016-10-16T10:36:15Z</time>
      </trkpt>
      <trkpt lat="45.93627" lon="4.72026">
        <ele>175</ele>
        <time>2016-10-16T10:36:16Z</time>
      </trkpt>
      <trkpt lat="45.93624" lon="4.72033">
        <ele>175</ele>
        <time>2016-10-16T10:36:17Z</time>
      </trkpt>
      <trkpt lat="45.93621" lon="4.72039">
        <ele>175</ele>
        <time>2016-10-16T10:36:18Z</time>
      </trkpt>
      <trkpt lat="45.93619" lon="4.72046">
        <ele>175</ele>
        <time>2016-10-16T10:36:19Z</time>
      </trkpt>
      <trkpt lat="45.93616" lon="4.72052">
        <ele>175</ele>
        <time>2016-10-16T10:36:20Z</time>
      </trkpt>
      <trkpt lat="45.93614" lon="4.72059">
        <ele>175</ele>
        <time>2016-10-16T10:36:21Z</time>
      </trkpt>
      <trkpt lat="45.93611" lon="4.72065">
        <ele>175</ele>
        <time>2016-10-16T10:36:22Z</time>
      </trkpt>
      <trkpt lat="45.93609" lon="4.72072">
        <ele>175</ele>
        <time>2016-10-16T10:36:23Z</time>
      </trkpt>
      <trkpt lat="45.93606" lon="4.72078">
        <ele>175</ele>
        <time>2016-10-16T10:36:24Z</time>
      </trkpt>
      <trkpt lat="45.93604" lon="4.72084">
        <ele>174</ele>
        <time>2016-10-16T10:36:25Z</time>
      </trkpt>
      <trkpt lat="45.93602" lon="4.72089">
        <ele>174</ele>
        <time>2016-10-16T10:36:26Z</time>
      </trkpt>
      <trkpt lat="45.93597" lon="4.72099">
        <ele>174</ele>
        <time>2016-10-16T10:36:28Z</time>
      </trkpt>
      <trkpt lat="45.93594" lon="4.72104">
        <ele>174</ele>
        <time>2016-10-16T10:36:29Z</time>
      </trkpt>
      <trkpt lat="45.93592" lon="4.7211">
        <ele>174</ele>
        <time>2016-10-16T10:36:30Z</time>
      </trkpt>
      <trkpt lat="45.9359" lon="4.72116">
        <ele>174</ele>
        <time>2016-10-16T10:36:31Z</time>
      </trkpt>
      <trkpt lat="45.93587" lon="4.72123">
        <ele>174</ele>
        <time>2016-10-16T10:36:32Z</time>
      </trkpt>
      <trkpt lat="45.93584" lon="4.72131">
        <ele>174</ele>
        <time>2016-10-16T10:36:33Z</time>
      </trkpt>
      <trkpt lat="45.93581" lon="4.72138">
        <ele>174</ele>
        <time>2016-10-16T10:36:34Z</time>
      </trkpt>
      <trkpt lat="45.93578" lon="4.72145">
        <ele>174</ele>
        <time>2016-10-16T10:36:35Z</time>
      </trkpt>
      <trkpt lat="45.93574" lon="4.72156">
        <ele>174</ele>
        <time>2016-10-16T10:36:36Z</time>
      </trkpt>
      <trkpt lat="45.93572" lon="4.72163">
        <ele>174</ele>
        <time>2016-10-16T10:36:37Z</time>
      </trkpt>
      <trkpt lat="45.93567" lon="4.72174">
        <ele>173</ele>
        <time>2016-10-16T10:36:39Z</time>
      </trkpt>
      <trkpt lat="45.93564" lon="4.72179">
        <ele>173</ele>
        <time>2016-10-16T10:36:40Z</time>
      </trkpt>
      <trkpt lat="45.93561" lon="4.72185">
        <ele>173</ele>
        <time>2016-10-16T10:36:41Z</time>
      </trkpt>
      <trkpt lat="45.93559" lon="4.72191">
        <ele>173</ele>
        <time>2016-10-16T10:36:42Z</time>
      </trkpt>
      <trkpt lat="45.93557" lon="4.72197">
        <ele>173</ele>
        <time>2016-10-16T10:36:43Z</time>
      </trkpt>
      <trkpt lat="45.93555" lon="4.72204">
        <ele>173</ele>
        <time>2016-10-16T10:36:44Z</time>
      </trkpt>
      <trkpt lat="45.9355" lon="4.72209">
        <ele>173</ele>
        <time>2016-10-16T10:36:45Z</time>
      </trkpt>
      <trkpt lat="45.93547" lon="4.72215">
        <ele>173</ele>
        <time>2016-10-16T10:36:46Z</time>
      </trkpt>
      <trkpt lat="45.93545" lon="4.7222">
        <ele>172</ele>
        <time>2016-10-16T10:36:47Z</time>
      </trkpt>
      <trkpt lat="45.93543" lon="4.72226">
        <ele>172</ele>
        <time>2016-10-16T10:36:48Z</time>
      </trkpt>
      <trkpt lat="45.93539" lon="4.72237">
        <ele>172</ele>
        <time>2016-10-16T10:36:50Z</time>
      </trkpt>
      <trkpt lat="45.93537" lon="4.72244">
        <ele>172</ele>
        <time>2016-10-16T10:36:51Z</time>
      </trkpt>
      <trkpt lat="45.93534" lon="4.7225">
        <ele>172</ele>
        <time>2016-10-16T10:36:52Z</time>
      </trkpt>
      <trkpt lat="45.93532" lon="4.72256">
        <ele>172</ele>
        <time>2016-10-16T10:36:53Z</time>
      </trkpt>
      <trkpt lat="45.93529" lon="4.72263">
        <ele>172</ele>
        <time>2016-10-16T10:36:54Z</time>
      </trkpt>
      <trkpt lat="45.93527" lon="4.72269">
        <ele>172</ele>
        <time>2016-10-16T10:36:55Z</time>
      </trkpt>
      <trkpt lat="45.93524" lon="4.72275">
        <ele>172</ele>
        <time>2016-10-16T10:36:56Z</time>
      </trkpt>
      <trkpt lat="45.93522" lon="4.72281">
        <ele>172</ele>
        <time>2016-10-16T10:36:57Z</time>
      </trkpt>
      <trkpt lat="45.93519" lon="4.72287">
        <ele>172</ele>
        <time>2016-10-16T10:36:58Z</time>
      </trkpt>
      <trkpt lat="45.93516" lon="4.72293">
        <ele>172</ele>
        <time>2016-10-16T10:36:59Z</time>
      </trkpt>
      <trkpt lat="45.93513" lon="4.72299">
        <ele>172</ele>
        <time>2016-10-16T10:37:00Z</time>
      </trkpt>
      <trkpt lat="45.93509" lon="4.72305">
        <ele>173</ele>
        <time>2016-10-16T10:37:01Z</time>
      </trkpt>
      <trkpt lat="45.93505" lon="4.72311">
        <ele>173</ele>
        <time>2016-10-16T10:37:02Z</time>
      </trkpt>
      <trkpt lat="45.93501" lon="4.72317">
        <ele>173</ele>
        <time>2016-10-16T10:37:03Z</time>
      </trkpt>
      <trkpt lat="45.93497" lon="4.72323">
        <ele>173</ele>
        <time>2016-10-16T10:37:04Z</time>
      </trkpt>
      <trkpt lat="45.93493" lon="4.72329">
        <ele>173</ele>
        <time>2016-10-16T10:37:05Z</time>
      </trkpt>
      <trkpt lat="45.93489" lon="4.72335">
        <ele>173</ele>
        <time>2016-10-16T10:37:06Z</time>
      </trkpt>
      <trkpt lat="45.93484" lon="4.72341">
        <ele>173</ele>
        <time>2016-10-16T10:37:07Z</time>
      </trkpt>
      <trkpt lat="45.9348" lon="4.72346">
        <ele>173</ele>
        <time>2016-10-16T10:37:08Z</time>
      </trkpt>
      <trkpt lat="45.93476" lon="4.72351">
        <ele>173</ele>
        <time>2016-10-16T10:37:09Z</time>
      </trkpt>
      <trkpt lat="45.93472" lon="4.72357">
        <ele>173</ele>
        <time>2016-10-16T10:37:10Z</time>
      </trkpt>
      <trkpt lat="45.93468" lon="4.72363">
        <ele>173</ele>
        <time>2016-10-16T10:37:11Z</time>
      </trkpt>
      <trkpt lat="45.93463" lon="4.7237">
        <ele>173</ele>
        <time>2016-10-16T10:37:12Z</time>
      </trkpt>
      <trkpt lat="45.93459" lon="4.72375">
        <ele>173</ele>
        <time>2016-10-16T10:37:13Z</time>
      </trkpt>
      <trkpt lat="45.93455" lon="4.72381">
        <ele>173</ele>
        <time>2016-10-16T10:37:14Z</time>
      </trkpt>
      <trkpt lat="45.93451" lon="4.72385">
        <ele>173</ele>
        <time>2016-10-16T10:37:15Z</time>
      </trkpt>
      <trkpt lat="45.93446" lon="4.72389">
        <ele>173</ele>
        <time>2016-10-16T10:37:16Z</time>
      </trkpt>
      <trkpt lat="45.93442" lon="4.72393">
        <ele>173</ele>
        <time>2016-10-16T10:37:17Z</time>
      </trkpt>
      <trkpt lat="45.93437" lon="4.72397">
        <ele>173</ele>
        <time>2016-10-16T10:37:18Z</time>
      </trkpt>
      <trkpt lat="45.93432" lon="4.724">
        <ele>174</ele>
        <time>2016-10-16T10:37:19Z</time>
      </trkpt>
      <trkpt lat="45.93427" lon="4.72402">
        <ele>174</ele>
        <time>2016-10-16T10:37:20Z</time>
      </trkpt>
      <trkpt lat="45.93422" lon="4.72404">
        <ele>174</ele>
        <time>2016-10-16T10:37:21Z</time>
      </trkpt>
      <trkpt lat="45.93416" lon="4.72406">
        <ele>174</ele>
        <time>2016-10-16T10:37:22Z</time>
      </trkpt>
      <trkpt lat="45.9341" lon="4.72407">
        <ele>174</ele>
        <time>2016-10-16T10:37:23Z</time>
      </trkpt>
      <trkpt lat="45.93405" lon="4.72408">
        <ele>174</ele>
        <time>2016-10-16T10:37:24Z</time>
      </trkpt>
      <trkpt lat="45.934" lon="4.72407">
        <ele>174</ele>
        <time>2016-10-16T10:37:25Z</time>
      </trkpt>
      <trkpt lat="45.93395" lon="4.72406">
        <ele>174</ele>
        <time>2016-10-16T10:37:26Z</time>
      </trkpt>
      <trkpt lat="45.93391" lon="4.72406">
        <ele>174</ele>
        <time>2016-10-16T10:37:27Z</time>
      </trkpt>
      <trkpt lat="45.93386" lon="4.72409">
        <ele>174</ele>
        <time>2016-10-16T10:37:28Z</time>
      </trkpt>
      <trkpt lat="45.93383" lon="4.72414">
        <ele>174</ele>
        <time>2016-10-16T10:37:29Z</time>
      </trkpt>
      <trkpt lat="45.93383" lon="4.72421">
        <ele>173</ele>
        <time>2016-10-16T10:37:30Z</time>
      </trkpt>
      <trkpt lat="45.93383" lon="4.72428">
        <ele>173</ele>
        <time>2016-10-16T10:37:31Z</time>
      </trkpt>
      <trkpt lat="45.93386" lon="4.72435">
        <ele>173</ele>
        <time>2016-10-16T10:37:32Z</time>
      </trkpt>
      <trkpt lat="45.93388" lon="4.72442">
        <ele>173</ele>
        <time>2016-10-16T10:37:33Z</time>
      </trkpt>
      <trkpt lat="45.93389" lon="4.72449">
        <ele>173</ele>
        <time>2016-10-16T10:37:34Z</time>
      </trkpt>
      <trkpt lat="45.93389" lon="4.72457">
        <ele>173</ele>
        <time>2016-10-16T10:37:35Z</time>
      </trkpt>
      <trkpt lat="45.93387" lon="4.72464">
        <ele>173</ele>
        <time>2016-10-16T10:37:36Z</time>
      </trkpt>
      <trkpt lat="45.93384" lon="4.7247">
        <ele>173</ele>
        <time>2016-10-16T10:37:37Z</time>
      </trkpt>
      <trkpt lat="45.93381" lon="4.72475">
        <ele>173</ele>
        <time>2016-10-16T10:37:38Z</time>
      </trkpt>
      <trkpt lat="45.93376" lon="4.7248">
        <ele>173</ele>
        <time>2016-10-16T10:37:39Z</time>
      </trkpt>
      <trkpt lat="45.93372" lon="4.72485">
        <ele>173</ele>
        <time>2016-10-16T10:37:40Z</time>
      </trkpt>
      <trkpt lat="45.93368" lon="4.7249">
        <ele>173</ele>
        <time>2016-10-16T10:37:41Z</time>
      </trkpt>
      <trkpt lat="45.93363" lon="4.72495">
        <ele>173</ele>
        <time>2016-10-16T10:37:42Z</time>
      </trkpt>
      <trkpt lat="45.93359" lon="4.725">
        <ele>173</ele>
        <time>2016-10-16T10:37:43Z</time>
      </trkpt>
      <trkpt lat="45.93355" lon="4.72505">
        <ele>172</ele>
        <time>2016-10-16T10:37:44Z</time>
      </trkpt>
      <trkpt lat="45.93351" lon="4.7251">
        <ele>172</ele>
        <time>2016-10-16T10:37:45Z</time>
      </trkpt>
      <trkpt lat="45.93346" lon="4.72515">
        <ele>172</ele>
        <time>2016-10-16T10:37:46Z</time>
      </trkpt>
      <trkpt lat="45.93341" lon="4.72521">
        <ele>172</ele>
        <time>2016-10-16T10:37:47Z</time>
      </trkpt>
      <trkpt lat="45.93337" lon="4.72526">
        <ele>172</ele>
        <time>2016-10-16T10:37:48Z</time>
      </trkpt>
      <trkpt lat="45.93333" lon="4.72531">
        <ele>172</ele>
        <time>2016-10-16T10:37:49Z</time>
      </trkpt>
      <trkpt lat="45.93329" lon="4.72535">
        <ele>172</ele>
        <time>2016-10-16T10:37:50Z</time>
      </trkpt>
      <trkpt lat="45.93324" lon="4.72538">
        <ele>172</ele>
        <time>2016-10-16T10:37:51Z</time>
      </trkpt>
      <trkpt lat="45.9332" lon="4.72543">
        <ele>172</ele>
        <time>2016-10-16T10:37:52Z</time>
      </trkpt>
      <trkpt lat="45.93317" lon="4.72547">
        <ele>172</ele>
        <time>2016-10-16T10:37:53Z</time>
      </trkpt>
      <trkpt lat="45.93313" lon="4.72552">
        <ele>172</ele>
        <time>2016-10-16T10:37:54Z</time>
      </trkpt>
      <trkpt lat="45.93309" lon="4.72557">
        <ele>172</ele>
        <time>2016-10-16T10:37:55Z</time>
      </trkpt>
      <trkpt lat="45.93304" lon="4.72561">
        <ele>172</ele>
        <time>2016-10-16T10:37:56Z</time>
      </trkpt>
      <trkpt lat="45.93299" lon="4.72566">
        <ele>172</ele>
        <time>2016-10-16T10:37:57Z</time>
      </trkpt>
      <trkpt lat="45.93295" lon="4.72571">
        <ele>172</ele>
        <time>2016-10-16T10:37:58Z</time>
      </trkpt>
      <trkpt lat="45.9329" lon="4.72577">
        <ele>171</ele>
        <time>2016-10-16T10:37:59Z</time>
      </trkpt>
      <trkpt lat="45.93285" lon="4.72582">
        <ele>171</ele>
        <time>2016-10-16T10:38:00Z</time>
      </trkpt>
      <trkpt lat="45.93281" lon="4.72588">
        <ele>170</ele>
        <time>2016-10-16T10:38:01Z</time>
      </trkpt>
      <trkpt lat="45.93276" lon="4.72593">
        <ele>170</ele>
        <time>2016-10-16T10:38:02Z</time>
      </trkpt>
      <trkpt lat="45.93272" lon="4.72598">
        <ele>170</ele>
        <time>2016-10-16T10:38:03Z</time>
      </trkpt>
      <trkpt lat="45.93268" lon="4.72603">
        <ele>170</ele>
        <time>2016-10-16T10:38:04Z</time>
      </trkpt>
      <trkpt lat="45.93264" lon="4.72608">
        <ele>170</ele>
        <time>2016-10-16T10:38:05Z</time>
      </trkpt>
      <trkpt lat="45.9326" lon="4.72613">
        <ele>170</ele>
        <time>2016-10-16T10:38:06Z</time>
      </trkpt>
      <trkpt lat="45.93256" lon="4.72618">
        <ele>170</ele>
        <time>2016-10-16T10:38:07Z</time>
      </trkpt>
      <trkpt lat="45.93252" lon="4.72622">
        <ele>170</ele>
        <time>2016-10-16T10:38:08Z</time>
      </trkpt>
      <trkpt lat="45.93247" lon="4.72626">
        <ele>170</ele>
        <time>2016-10-16T10:38:09Z</time>
      </trkpt>
      <trkpt lat="45.93243" lon="4.72631">
        <ele>170</ele>
        <time>2016-10-16T10:38:10Z</time>
      </trkpt>
      <trkpt lat="45.9324" lon="4.72635">
        <ele>170</ele>
        <time>2016-10-16T10:38:11Z</time>
      </trkpt>
      <trkpt lat="45.93236" lon="4.72639">
        <ele>170</ele>
        <time>2016-10-16T10:38:12Z</time>
      </trkpt>
      <trkpt lat="45.93233" lon="4.72643">
        <ele>170</ele>
        <time>2016-10-16T10:38:13Z</time>
      </trkpt>
      <trkpt lat="45.93226" lon="4.72651">
        <ele>170</ele>
        <time>2016-10-16T10:38:15Z</time>
      </trkpt>
      <trkpt lat="45.93222" lon="4.72656">
        <ele>170</ele>
        <time>2016-10-16T10:38:16Z</time>
      </trkpt>
      <trkpt lat="45.93219" lon="4.7266">
        <ele>170</ele>
        <time>2016-10-16T10:38:17Z</time>
      </trkpt>
      <trkpt lat="45.93215" lon="4.72664">
        <ele>170</ele>
        <time>2016-10-16T10:38:18Z</time>
      </trkpt>
      <trkpt lat="45.93211" lon="4.72669">
        <ele>169</ele>
        <time>2016-10-16T10:38:19Z</time>
      </trkpt>
      <trkpt lat="45.93207" lon="4.72673">
        <ele>169</ele>
        <time>2016-10-16T10:38:20Z</time>
      </trkpt>
      <trkpt lat="45.93204" lon="4.72677">
        <ele>169</ele>
        <time>2016-10-16T10:38:21Z</time>
      </trkpt>
      <trkpt lat="45.932" lon="4.72682">
        <ele>169</ele>
        <time>2016-10-16T10:38:22Z</time>
      </trkpt>
      <trkpt lat="45.93197" lon="4.72687">
        <ele>169</ele>
        <time>2016-10-16T10:38:23Z</time>
      </trkpt>
      <trkpt lat="45.93193" lon="4.72692">
        <ele>169</ele>
        <time>2016-10-16T10:38:24Z</time>
      </trkpt>
      <trkpt lat="45.93189" lon="4.72696">
        <ele>169</ele>
        <time>2016-10-16T10:38:25Z</time>
      </trkpt>
      <trkpt lat="45.93185" lon="4.72701">
        <ele>169</ele>
        <time>2016-10-16T10:38:26Z</time>
      </trkpt>
      <trkpt lat="45.93181" lon="4.72705">
        <ele>169</ele>
        <time>2016-10-16T10:38:27Z</time>
      </trkpt>
      <trkpt lat="45.93178" lon="4.72709">
        <ele>169</ele>
        <time>2016-10-16T10:38:28Z</time>
      </trkpt>
      <trkpt lat="45.93171" lon="4.72717">
        <ele>170</ele>
        <time>2016-10-16T10:38:30Z</time>
      </trkpt>
      <trkpt lat="45.93168" lon="4.72721">
        <ele>170</ele>
        <time>2016-10-16T10:38:31Z</time>
      </trkpt>
      <trkpt lat="45.93161" lon="4.72728">
        <ele>170</ele>
        <time>2016-10-16T10:38:33Z</time>
      </trkpt>
      <trkpt lat="45.93158" lon="4.72732">
        <ele>170</ele>
        <time>2016-10-16T10:38:34Z</time>
      </trkpt>
      <trkpt lat="45.93152" lon="4.7274">
        <ele>170</ele>
        <time>2016-10-16T10:38:36Z</time>
      </trkpt>
      <trkpt lat="45.93149" lon="4.72743">
        <ele>170</ele>
        <time>2016-10-16T10:38:37Z</time>
      </trkpt>
      <trkpt lat="45.93143" lon="4.72751">
        <ele>171</ele>
        <time>2016-10-16T10:38:40Z</time>
      </trkpt>
      <trkpt lat="45.93141" lon="4.72753">
        <ele>171</ele>
        <time>2016-10-16T10:38:41Z</time>
      </trkpt>
      <trkpt lat="45.93136" lon="4.72759">
        <ele>171</ele>
        <time>2016-10-16T10:38:44Z</time>
      </trkpt>
      <trkpt lat="45.93134" lon="4.72761">
        <ele>171</ele>
        <time>2016-10-16T10:38:45Z</time>
      </trkpt>
      <trkpt lat="45.93127" lon="4.72767">
        <ele>171</ele>
        <time>2016-10-16T10:38:48Z</time>
      </trkpt>
      <trkpt lat="45.93124" lon="4.72769">
        <ele>171</ele>
        <time>2016-10-16T10:38:49Z</time>
      </trkpt>
      <trkpt lat="45.93118" lon="4.72775">
        <ele>171</ele>
        <time>2016-10-16T10:38:51Z</time>
      </trkpt>
      <trkpt lat="45.93115" lon="4.72778">
        <ele>171</ele>
        <time>2016-10-16T10:38:52Z</time>
      </trkpt>
      <trkpt lat="45.93108" lon="4.72788">
        <ele>171</ele>
        <time>2016-10-16T10:38:54Z</time>
      </trkpt>
      <trkpt lat="45.93105" lon="4.72792">
        <ele>171</ele>
        <time>2016-10-16T10:38:55Z</time>
      </trkpt>
      <trkpt lat="45.93101" lon="4.72797">
        <ele>171</ele>
        <time>2016-10-16T10:38:56Z</time>
      </trkpt>
      <trkpt lat="45.93097" lon="4.72802">
        <ele>171</ele>
        <time>2016-10-16T10:38:57Z</time>
      </trkpt>
      <trkpt lat="45.93093" lon="4.72807">
        <ele>172</ele>
        <time>2016-10-16T10:38:58Z</time>
      </trkpt>
      <trkpt lat="45.93089" lon="4.72812">
        <ele>172</ele>
        <time>2016-10-16T10:38:59Z</time>
      </trkpt>
      <trkpt lat="45.93084" lon="4.72817">
        <ele>172</ele>
        <time>2016-10-16T10:39:00Z</time>
      </trkpt>
      <trkpt lat="45.9308" lon="4.72821">
        <ele>173</ele>
        <time>2016-10-16T10:39:01Z</time>
      </trkpt>
      <trkpt lat="45.93076" lon="4.72826">
        <ele>173</ele>
        <time>2016-10-16T10:39:02Z</time>
      </trkpt>
      <trkpt lat="45.93072" lon="4.72831">
        <ele>173</ele>
        <time>2016-10-16T10:39:03Z</time>
      </trkpt>
      <trkpt lat="45.93068" lon="4.72837">
        <ele>173</ele>
        <time>2016-10-16T10:39:04Z</time>
      </trkpt>
      <trkpt lat="45.93064" lon="4.72843">
        <ele>172</ele>
        <time>2016-10-16T10:39:05Z</time>
      </trkpt>
      <trkpt lat="45.9306" lon="4.72848">
        <ele>172</ele>
        <time>2016-10-16T10:39:06Z</time>
      </trkpt>
      <trkpt lat="45.93057" lon="4.72855">
        <ele>172</ele>
        <time>2016-10-16T10:39:07Z</time>
      </trkpt>
      <trkpt lat="45.93051" lon="4.72858">
        <ele>172</ele>
        <time>2016-10-16T10:39:08Z</time>
      </trkpt>
      <trkpt lat="45.93047" lon="4.72863">
        <ele>172</ele>
        <time>2016-10-16T10:39:09Z</time>
      </trkpt>
      <trkpt lat="45.93042" lon="4.72866">
        <ele>172</ele>
        <time>2016-10-16T10:39:10Z</time>
      </trkpt>
      <trkpt lat="45.93037" lon="4.7287">
        <ele>172</ele>
        <time>2016-10-16T10:39:11Z</time>
      </trkpt>
      <trkpt lat="45.93033" lon="4.72875">
        <ele>172</ele>
        <time>2016-10-16T10:39:12Z</time>
      </trkpt>
      <trkpt lat="45.93028" lon="4.7288">
        <ele>172</ele>
        <time>2016-10-16T10:39:13Z</time>
      </trkpt>
      <trkpt lat="45.93024" lon="4.72885">
        <ele>172</ele>
        <time>2016-10-16T10:39:14Z</time>
      </trkpt>
      <trkpt lat="45.9302" lon="4.7289">
        <ele>172</ele>
        <time>2016-10-16T10:39:15Z</time>
      </trkpt>
      <trkpt lat="45.93016" lon="4.72894">
        <ele>172</ele>
        <time>2016-10-16T10:39:16Z</time>
      </trkpt>
      <trkpt lat="45.93011" lon="4.729">
        <ele>172</ele>
        <time>2016-10-16T10:39:17Z</time>
      </trkpt>
      <trkpt lat="45.93007" lon="4.72905">
        <ele>171</ele>
        <time>2016-10-16T10:39:18Z</time>
      </trkpt>
      <trkpt lat="45.93003" lon="4.7291">
        <ele>171</ele>
        <time>2016-10-16T10:39:19Z</time>
      </trkpt>
      <trkpt lat="45.92999" lon="4.72915">
        <ele>171</ele>
        <time>2016-10-16T10:39:20Z</time>
      </trkpt>
      <trkpt lat="45.92995" lon="4.7292">
        <ele>171</ele>
        <time>2016-10-16T10:39:21Z</time>
      </trkpt>
      <trkpt lat="45.9299" lon="4.72925">
        <ele>171</ele>
        <time>2016-10-16T10:39:22Z</time>
      </trkpt>
      <trkpt lat="45.92986" lon="4.72929">
        <ele>171</ele>
        <time>2016-10-16T10:39:23Z</time>
      </trkpt>
      <trkpt lat="45.92983" lon="4.72934">
        <ele>171</ele>
        <time>2016-10-16T10:39:24Z</time>
      </trkpt>
      <trkpt lat="45.92979" lon="4.72939">
        <ele>171</ele>
        <time>2016-10-16T10:39:25Z</time>
      </trkpt>
      <trkpt lat="45.92975" lon="4.72944">
        <ele>171</ele>
        <time>2016-10-16T10:39:26Z</time>
      </trkpt>
      <trkpt lat="45.92971" lon="4.72949">
        <ele>171</ele>
        <time>2016-10-16T10:39:27Z</time>
      </trkpt>
      <trkpt lat="45.92967" lon="4.72954">
        <ele>171</ele>
        <time>2016-10-16T10:39:28Z</time>
      </trkpt>
      <trkpt lat="45.92963" lon="4.72959">
        <ele>171</ele>
        <time>2016-10-16T10:39:29Z</time>
      </trkpt>
      <trkpt lat="45.92958" lon="4.72965">
        <ele>171</ele>
        <time>2016-10-16T10:39:30Z</time>
      </trkpt>
      <trkpt lat="45.92954" lon="4.7297">
        <ele>171</ele>
        <time>2016-10-16T10:39:31Z</time>
      </trkpt>
      <trkpt lat="45.92949" lon="4.72976">
        <ele>171</ele>
        <time>2016-10-16T10:39:32Z</time>
      </trkpt>
      <trkpt lat="45.92945" lon="4.72981">
        <ele>171</ele>
        <time>2016-10-16T10:39:33Z</time>
      </trkpt>
      <trkpt lat="45.92941" lon="4.72986">
        <ele>171</ele>
        <time>2016-10-16T10:39:34Z</time>
      </trkpt>
      <trkpt lat="45.92937" lon="4.72991">
        <ele>171</ele>
        <time>2016-10-16T10:39:35Z</time>
      </trkpt>
      <trkpt lat="45.92933" lon="4.72996">
        <ele>172</ele>
        <time>2016-10-16T10:39:36Z</time>
      </trkpt>
      <trkpt lat="45.92929" lon="4.73">
        <ele>172</ele>
        <time>2016-10-16T10:39:37Z</time>
      </trkpt>
      <trkpt lat="45.92925" lon="4.73005">
        <ele>172</ele>
        <time>2016-10-16T10:39:38Z</time>
      </trkpt>
      <trkpt lat="45.92921" lon="4.73009">
        <ele>172</ele>
        <time>2016-10-16T10:39:39Z</time>
      </trkpt>
      <trkpt lat="45.92917" lon="4.73014">
        <ele>172</ele>
        <time>2016-10-16T10:39:40Z</time>
      </trkpt>
      <trkpt lat="45.92913" lon="4.73019">
        <ele>172</ele>
        <time>2016-10-16T10:39:41Z</time>
      </trkpt>
      <trkpt lat="45.92909" lon="4.73024">
        <ele>172</ele>
        <time>2016-10-16T10:39:42Z</time>
      </trkpt>
      <trkpt lat="45.92906" lon="4.73029">
        <ele>172</ele>
        <time>2016-10-16T10:39:43Z</time>
      </trkpt>
      <trkpt lat="45.92902" lon="4.73035">
        <ele>172</ele>
        <time>2016-10-16T10:39:44Z</time>
      </trkpt>
      <trkpt lat="45.92898" lon="4.7304">
        <ele>172</ele>
        <time>2016-10-16T10:39:45Z</time>
      </trkpt>
      <trkpt lat="45.92894" lon="4.73046">
        <ele>172</ele>
        <time>2016-10-16T10:39:46Z</time>
      </trkpt>
      <trkpt lat="45.9289" lon="4.73052">
        <ele>172</ele>
        <time>2016-10-16T10:39:47Z</time>
      </trkpt>
      <trkpt lat="45.92887" lon="4.73059">
        <ele>172</ele>
        <time>2016-10-16T10:39:48Z</time>
      </trkpt>
      <trkpt lat="45.92883" lon="4.73065">
        <ele>172</ele>
        <time>2016-10-16T10:39:49Z</time>
      </trkpt>
      <trkpt lat="45.9288" lon="4.73071">
        <ele>172</ele>
        <time>2016-10-16T10:39:50Z</time>
      </trkpt>
      <trkpt lat="45.92877" lon="4.73078">
        <ele>172</ele>
        <time>2016-10-16T10:39:51Z</time>
      </trkpt>
      <trkpt lat="45.92875" lon="4.73084">
        <ele>172</ele>
        <time>2016-10-16T10:39:52Z</time>
      </trkpt>
      <trkpt lat="45.92873" lon="4.73091">
        <ele>172</ele>
        <time>2016-10-16T10:39:53Z</time>
      </trkpt>
      <trkpt lat="45.92871" lon="4.73098">
        <ele>172</ele>
        <time>2016-10-16T10:39:54Z</time>
      </trkpt>
      <trkpt lat="45.92869" lon="4.73104">
        <ele>172</ele>
        <time>2016-10-16T10:39:55Z</time>
      </trkpt>
      <trkpt lat="45.92867" lon="4.73111">
        <ele>171</ele>
        <time>2016-10-16T10:39:56Z</time>
      </trkpt>
      <trkpt lat="45.92866" lon="4.73118">
        <ele>171</ele>
        <time>2016-10-16T10:39:57Z</time>
      </trkpt>
      <trkpt lat="45.92864" lon="4.73125">
        <ele>171</ele>
        <time>2016-10-16T10:39:58Z</time>
      </trkpt>
      <trkpt lat="45.92863" lon="4.73132">
        <ele>171</ele>
        <time>2016-10-16T10:39:59Z</time>
      </trkpt>
      <trkpt lat="45.92862" lon="4.7314">
        <ele>171</ele>
        <time>2016-10-16T10:40:00Z</time>
      </trkpt>
      <trkpt lat="45.92861" lon="4.73147">
        <ele>171</ele>
        <time>2016-10-16T10:40:01Z</time>
      </trkpt>
      <trkpt lat="45.9286" lon="4.73155">
        <ele>171</ele>
        <time>2016-10-16T10:40:02Z</time>
      </trkpt>
      <trkpt lat="45.92859" lon="4.73162">
        <ele>171</ele>
        <time>2016-10-16T10:40:03Z</time>
      </trkpt>
      <trkpt lat="45.92858" lon="4.7317">
        <ele>171</ele>
        <time>2016-10-16T10:40:04Z</time>
      </trkpt>
      <trkpt lat="45.92857" lon="4.73178">
        <ele>171</ele>
        <time>2016-10-16T10:40:05Z</time>
      </trkpt>
      <trkpt lat="45.92856" lon="4.73187">
        <ele>171</ele>
        <time>2016-10-16T10:40:06Z</time>
      </trkpt>
      <trkpt lat="45.92856" lon="4.73194">
        <ele>171</ele>
        <time>2016-10-16T10:40:07Z</time>
      </trkpt>
      <trkpt lat="45.92856" lon="4.73202">
        <ele>171</ele>
        <time>2016-10-16T10:40:08Z</time>
      </trkpt>
      <trkpt lat="45.92855" lon="4.7321">
        <ele>171</ele>
        <time>2016-10-16T10:40:09Z</time>
      </trkpt>
      <trkpt lat="45.92854" lon="4.73217">
        <ele>171</ele>
        <time>2016-10-16T10:40:10Z</time>
      </trkpt>
      <trkpt lat="45.92853" lon="4.73225">
        <ele>171</ele>
        <time>2016-10-16T10:40:11Z</time>
      </trkpt>
      <trkpt lat="45.92851" lon="4.73232">
        <ele>171</ele>
        <time>2016-10-16T10:40:12Z</time>
      </trkpt>
      <trkpt lat="45.9285" lon="4.7324">
        <ele>171</ele>
        <time>2016-10-16T10:40:13Z</time>
      </trkpt>
      <trkpt lat="45.9285" lon="4.73247">
        <ele>171</ele>
        <time>2016-10-16T10:40:14Z</time>
      </trkpt>
      <trkpt lat="45.92849" lon="4.73256">
        <ele>171</ele>
        <time>2016-10-16T10:40:15Z</time>
      </trkpt>
      <trkpt lat="45.92848" lon="4.73265">
        <ele>171</ele>
        <time>2016-10-16T10:40:16Z</time>
      </trkpt>
      <trkpt lat="45.92846" lon="4.73275">
        <ele>171</ele>
        <time>2016-10-16T10:40:17Z</time>
      </trkpt>
      <trkpt lat="45.92846" lon="4.73284">
        <ele>171</ele>
        <time>2016-10-16T10:40:18Z</time>
      </trkpt>
      <trkpt lat="45.92845" lon="4.73292">
        <ele>171</ele>
        <time>2016-10-16T10:40:19Z</time>
      </trkpt>
      <trkpt lat="45.92845" lon="4.73301">
        <ele>171</ele>
        <time>2016-10-16T10:40:20Z</time>
      </trkpt>
      <trkpt lat="45.92844" lon="4.7331">
        <ele>171</ele>
        <time>2016-10-16T10:40:21Z</time>
      </trkpt>
      <trkpt lat="45.92843" lon="4.73318">
        <ele>171</ele>
        <time>2016-10-16T10:40:22Z</time>
      </trkpt>
      <trkpt lat="45.92842" lon="4.73326">
        <ele>171</ele>
        <time>2016-10-16T10:40:23Z</time>
      </trkpt>
      <trkpt lat="45.9284" lon="4.73335">
        <ele>171</ele>
        <time>2016-10-16T10:40:24Z</time>
      </trkpt>
      <trkpt lat="45.92839" lon="4.73343">
        <ele>171</ele>
        <time>2016-10-16T10:40:25Z</time>
      </trkpt>
      <trkpt lat="45.92838" lon="4.73351">
        <ele>171</ele>
        <time>2016-10-16T10:40:26Z</time>
      </trkpt>
      <trkpt lat="45.92837" lon="4.73359">
        <ele>171</ele>
        <time>2016-10-16T10:40:27Z</time>
      </trkpt>
      <trkpt lat="45.92836" lon="4.73367">
        <ele>171</ele>
        <time>2016-10-16T10:40:28Z</time>
      </trkpt>
      <trkpt lat="45.92835" lon="4.73375">
        <ele>172</ele>
        <time>2016-10-16T10:40:29Z</time>
      </trkpt>
      <trkpt lat="45.92834" lon="4.73384">
        <ele>172</ele>
        <time>2016-10-16T10:40:30Z</time>
      </trkpt>
      <trkpt lat="45.92834" lon="4.73393">
        <ele>172</ele>
        <time>2016-10-16T10:40:31Z</time>
      </trkpt>
      <trkpt lat="45.92832" lon="4.73402">
        <ele>172</ele>
        <time>2016-10-16T10:40:32Z</time>
      </trkpt>
      <trkpt lat="45.92831" lon="4.7341">
        <ele>172</ele>
        <time>2016-10-16T10:40:33Z</time>
      </trkpt>
      <trkpt lat="45.9283" lon="4.73418">
        <ele>172</ele>
        <time>2016-10-16T10:40:34Z</time>
      </trkpt>
      <trkpt lat="45.92829" lon="4.73426">
        <ele>172</ele>
        <time>2016-10-16T10:40:35Z</time>
      </trkpt>
      <trkpt lat="45.92828" lon="4.73434">
        <ele>172</ele>
        <time>2016-10-16T10:40:36Z</time>
      </trkpt>
      <trkpt lat="45.92827" lon="4.73441">
        <ele>172</ele>
        <time>2016-10-16T10:40:37Z</time>
      </trkpt>
      <trkpt lat="45.92827" lon="4.73449">
        <ele>172</ele>
        <time>2016-10-16T10:40:38Z</time>
      </trkpt>
      <trkpt lat="45.92826" lon="4.73456">
        <ele>172</ele>
        <time>2016-10-16T10:40:39Z</time>
      </trkpt>
      <trkpt lat="45.92826" lon="4.73463">
        <ele>172</ele>
        <time>2016-10-16T10:40:40Z</time>
      </trkpt>
      <trkpt lat="45.92825" lon="4.7347">
        <ele>172</ele>
        <time>2016-10-16T10:40:41Z</time>
      </trkpt>
      <trkpt lat="45.92824" lon="4.73478">
        <ele>172</ele>
        <time>2016-10-16T10:40:42Z</time>
      </trkpt>
      <trkpt lat="45.92823" lon="4.73485">
        <ele>172</ele>
        <time>2016-10-16T10:40:43Z</time>
      </trkpt>
      <trkpt lat="45.92822" lon="4.73493">
        <ele>172</ele>
        <time>2016-10-16T10:40:44Z</time>
      </trkpt>
      <trkpt lat="45.92821" lon="4.735">
        <ele>172</ele>
        <time>2016-10-16T10:40:45Z</time>
      </trkpt>
      <trkpt lat="45.9282" lon="4.73507">
        <ele>172</ele>
        <time>2016-10-16T10:40:46Z</time>
      </trkpt>
      <trkpt lat="45.92819" lon="4.73515">
        <ele>172</ele>
        <time>2016-10-16T10:40:47Z</time>
      </trkpt>
      <trkpt lat="45.92818" lon="4.73522">
        <ele>172</ele>
        <time>2016-10-16T10:40:48Z</time>
      </trkpt>
      <trkpt lat="45.92817" lon="4.7353">
        <ele>172</ele>
        <time>2016-10-16T10:40:49Z</time>
      </trkpt>
      <trkpt lat="45.92816" lon="4.73538">
        <ele>172</ele>
        <time>2016-10-16T10:40:50Z</time>
      </trkpt>
      <trkpt lat="45.92816" lon="4.73546">
        <ele>171</ele>
        <time>2016-10-16T10:40:51Z</time>
      </trkpt>
      <trkpt lat="45.92815" lon="4.73554">
        <ele>171</ele>
        <time>2016-10-16T10:40:52Z</time>
      </trkpt>
      <trkpt lat="45.92816" lon="4.73561">
        <ele>171</ele>
        <time>2016-10-16T10:40:53Z</time>
      </trkpt>
      <trkpt lat="45.92816" lon="4.73568">
        <ele>171</ele>
        <time>2016-10-16T10:40:54Z</time>
      </trkpt>
      <trkpt lat="45.92815" lon="4.73575">
        <ele>171</ele>
        <time>2016-10-16T10:40:55Z</time>
      </trkpt>
      <trkpt lat="45.92815" lon="4.73582">
        <ele>171</ele>
        <time>2016-10-16T10:40:56Z</time>
      </trkpt>
      <trkpt lat="45.92815" lon="4.73589">
        <ele>171</ele>
        <time>2016-10-16T10:40:57Z</time>
      </trkpt>
      <trkpt lat="45.92815" lon="4.73596">
        <ele>171</ele>
        <time>2016-10-16T10:40:58Z</time>
      </trkpt>
      <trkpt lat="45.92816" lon="4.73603">
        <ele>172</ele>
        <time>2016-10-16T10:40:59Z</time>
      </trkpt>
      <trkpt lat="45.92815" lon="4.73609">
        <ele>172</ele>
        <time>2016-10-16T10:41:00Z</time>
      </trkpt>
      <trkpt lat="45.92815" lon="4.73616">
        <ele>172</ele>
        <time>2016-10-16T10:41:01Z</time>
      </trkpt>
      <trkpt lat="45.92811" lon="4.73628">
        <ele>172</ele>
        <time>2016-10-16T10:41:03Z</time>
      </trkpt>
      <trkpt lat="45.92808" lon="4.73633">
        <ele>172</ele>
        <time>2016-10-16T10:41:04Z</time>
      </trkpt>
      <trkpt lat="45.92805" lon="4.73638">
        <ele>172</ele>
        <time>2016-10-16T10:41:05Z</time>
      </trkpt>
      <trkpt lat="45.92802" lon="4.73644">
        <ele>172</ele>
        <time>2016-10-16T10:41:06Z</time>
      </trkpt>
      <trkpt lat="45.928" lon="4.7365">
        <ele>172</ele>
        <time>2016-10-16T10:41:07Z</time>
      </trkpt>
      <trkpt lat="45.92798" lon="4.73658">
        <ele>172</ele>
        <time>2016-10-16T10:41:08Z</time>
      </trkpt>
      <trkpt lat="45.92796" lon="4.73666">
        <ele>172</ele>
        <time>2016-10-16T10:41:09Z</time>
      </trkpt>
      <trkpt lat="45.92794" lon="4.73672">
        <ele>172</ele>
        <time>2016-10-16T10:41:10Z</time>
      </trkpt>
      <trkpt lat="45.92793" lon="4.73679">
        <ele>172</ele>
        <time>2016-10-16T10:41:11Z</time>
      </trkpt>
      <trkpt lat="45.92791" lon="4.73685">
        <ele>172</ele>
        <time>2016-10-16T10:41:12Z</time>
      </trkpt>
      <trkpt lat="45.92788" lon="4.73696">
        <ele>172</ele>
        <time>2016-10-16T10:41:14Z</time>
      </trkpt>
      <trkpt lat="45.92787" lon="4.73702">
        <ele>172</ele>
        <time>2016-10-16T10:41:15Z</time>
      </trkpt>
      <trkpt lat="45.92785" lon="4.73714">
        <ele>172</ele>
        <time>2016-10-16T10:41:17Z</time>
      </trkpt>
      <trkpt lat="45.92784" lon="4.73719">
        <ele>172</ele>
        <time>2016-10-16T10:41:18Z</time>
      </trkpt>
      <trkpt lat="45.92779" lon="4.7373">
        <ele>172</ele>
        <time>2016-10-16T10:41:20Z</time>
      </trkpt>
      <trkpt lat="45.92776" lon="4.73733">
        <ele>172</ele>
        <time>2016-10-16T10:41:21Z</time>
      </trkpt>
      <trkpt lat="45.9277" lon="4.7373">
        <ele>172</ele>
        <time>2016-10-16T10:41:23Z</time>
      </trkpt>
      <trkpt lat="45.92766" lon="4.73728">
        <ele>172</ele>
        <time>2016-10-16T10:41:24Z</time>
      </trkpt>
      <trkpt lat="45.92762" lon="4.73726">
        <ele>172</ele>
        <time>2016-10-16T10:41:25Z</time>
      </trkpt>
      <trkpt lat="45.92758" lon="4.73725">
        <ele>172</ele>
        <time>2016-10-16T10:41:26Z</time>
      </trkpt>
      <trkpt lat="45.92753" lon="4.73725">
        <ele>172</ele>
        <time>2016-10-16T10:41:27Z</time>
      </trkpt>
      <trkpt lat="45.92748" lon="4.73724">
        <ele>173</ele>
        <time>2016-10-16T10:41:28Z</time>
      </trkpt>
      <trkpt lat="45.92742" lon="4.73722">
        <ele>173</ele>
        <time>2016-10-16T10:41:29Z</time>
      </trkpt>
      <trkpt lat="45.92736" lon="4.73721">
        <ele>173</ele>
        <time>2016-10-16T10:41:30Z</time>
      </trkpt>
      <trkpt lat="45.92729" lon="4.73719">
        <ele>173</ele>
        <time>2016-10-16T10:41:31Z</time>
      </trkpt>
      <trkpt lat="45.92723" lon="4.73716">
        <ele>173</ele>
        <time>2016-10-16T10:41:32Z</time>
      </trkpt>
      <trkpt lat="45.92717" lon="4.73715">
        <ele>173</ele>
        <time>2016-10-16T10:41:33Z</time>
      </trkpt>
      <trkpt lat="45.92712" lon="4.73715">
        <ele>173</ele>
        <time>2016-10-16T10:41:34Z</time>
      </trkpt>
      <trkpt lat="45.92707" lon="4.73714">
        <ele>173</ele>
        <time>2016-10-16T10:41:35Z</time>
      </trkpt>
      <trkpt lat="45.92702" lon="4.73712">
        <ele>173</ele>
        <time>2016-10-16T10:41:36Z</time>
      </trkpt>
      <trkpt lat="45.92697" lon="4.73711">
        <ele>173</ele>
        <time>2016-10-16T10:41:37Z</time>
      </trkpt>
      <trkpt lat="45.92692" lon="4.7371">
        <ele>173</ele>
        <time>2016-10-16T10:41:38Z</time>
      </trkpt>
      <trkpt lat="45.92686" lon="4.73708">
        <ele>173</ele>
        <time>2016-10-16T10:41:39Z</time>
      </trkpt>
      <trkpt lat="45.92681" lon="4.73706">
        <ele>173</ele>
        <time>2016-10-16T10:41:40Z</time>
      </trkpt>
      <trkpt lat="45.92676" lon="4.73704">
        <ele>173</ele>
        <time>2016-10-16T10:41:41Z</time>
      </trkpt>
      <trkpt lat="45.9267" lon="4.73701">
        <ele>174</ele>
        <time>2016-10-16T10:41:42Z</time>
      </trkpt>
      <trkpt lat="45.92665" lon="4.73699">
        <ele>173</ele>
        <time>2016-10-16T10:41:43Z</time>
      </trkpt>
      <trkpt lat="45.92659" lon="4.73694">
        <ele>173</ele>
        <time>2016-10-16T10:41:44Z</time>
      </trkpt>
      <trkpt lat="45.92655" lon="4.73691">
        <ele>173</ele>
        <time>2016-10-16T10:41:45Z</time>
      </trkpt>
      <trkpt lat="45.92651" lon="4.73686">
        <ele>173</ele>
        <time>2016-10-16T10:41:46Z</time>
      </trkpt>
      <trkpt lat="45.92647" lon="4.73682">
        <ele>173</ele>
        <time>2016-10-16T10:41:47Z</time>
      </trkpt>
      <trkpt lat="45.92644" lon="4.73677">
        <ele>173</ele>
        <time>2016-10-16T10:41:48Z</time>
      </trkpt>
      <trkpt lat="45.92641" lon="4.73671">
        <ele>173</ele>
        <time>2016-10-16T10:41:49Z</time>
      </trkpt>
      <trkpt lat="45.92637" lon="4.73667">
        <ele>173</ele>
        <time>2016-10-16T10:41:50Z</time>
      </trkpt>
      <trkpt lat="45.92635" lon="4.7366">
        <ele>173</ele>
        <time>2016-10-16T10:41:51Z</time>
      </trkpt>
      <trkpt lat="45.92632" lon="4.73654">
        <ele>173</ele>
        <time>2016-10-16T10:41:52Z</time>
      </trkpt>
      <trkpt lat="45.9263" lon="4.73647">
        <ele>173</ele>
        <time>2016-10-16T10:41:53Z</time>
      </trkpt>
      <trkpt lat="45.92628" lon="4.7364">
        <ele>173</ele>
        <time>2016-10-16T10:41:54Z</time>
      </trkpt>
      <trkpt lat="45.92626" lon="4.73633">
        <ele>173</ele>
        <time>2016-10-16T10:41:55Z</time>
      </trkpt>
      <trkpt lat="45.92623" lon="4.73627">
        <ele>173</ele>
        <time>2016-10-16T10:41:56Z</time>
      </trkpt>
      <trkpt lat="45.92619" lon="4.73623">
        <ele>173</ele>
        <time>2016-10-16T10:41:57Z</time>
      </trkpt>
      <trkpt lat="45.92613" lon="4.73621">
        <ele>173</ele>
        <time>2016-10-16T10:41:58Z</time>
      </trkpt>
      <trkpt lat="45.92607" lon="4.7362">
        <ele>173</ele>
        <time>2016-10-16T10:41:59Z</time>
      </trkpt>
      <trkpt lat="45.92602" lon="4.7362">
        <ele>173</ele>
        <time>2016-10-16T10:42:00Z</time>
      </trkpt>
      <trkpt lat="45.92597" lon="4.7362">
        <ele>173</ele>
        <time>2016-10-16T10:42:01Z</time>
      </trkpt>
      <trkpt lat="45.92592" lon="4.7362">
        <ele>173</ele>
        <time>2016-10-16T10:42:02Z</time>
      </trkpt>
      <trkpt lat="45.92584" lon="4.73622">
        <ele>173</ele>
        <time>2016-10-16T10:42:04Z</time>
      </trkpt>
      <trkpt lat="45.9258" lon="4.73623">
        <ele>173</ele>
        <time>2016-10-16T10:42:05Z</time>
      </trkpt>
      <trkpt lat="45.92576" lon="4.73624">
        <ele>173</ele>
        <time>2016-10-16T10:42:06Z</time>
      </trkpt>
      <trkpt lat="45.92571" lon="4.73626">
        <ele>173</ele>
        <time>2016-10-16T10:42:07Z</time>
      </trkpt>
      <trkpt lat="45.92566" lon="4.73627">
        <ele>173</ele>
        <time>2016-10-16T10:42:08Z</time>
      </trkpt>
      <trkpt lat="45.92561" lon="4.73628">
        <ele>173</ele>
        <time>2016-10-16T10:42:09Z</time>
      </trkpt>
      <trkpt lat="45.92556" lon="4.7363">
        <ele>173</ele>
        <time>2016-10-16T10:42:10Z</time>
      </trkpt>
      <trkpt lat="45.92551" lon="4.73631">
        <ele>173</ele>
        <time>2016-10-16T10:42:11Z</time>
      </trkpt>
      <trkpt lat="45.92546" lon="4.73632">
        <ele>173</ele>
        <time>2016-10-16T10:42:12Z</time>
      </trkpt>
      <trkpt lat="45.92541" lon="4.73632">
        <ele>173</ele>
        <time>2016-10-16T10:42:13Z</time>
      </trkpt>
      <trkpt lat="45.92536" lon="4.73632">
        <ele>173</ele>
        <time>2016-10-16T10:42:14Z</time>
      </trkpt>
      <trkpt lat="45.92531" lon="4.73632">
        <ele>173</ele>
        <time>2016-10-16T10:42:15Z</time>
      </trkpt>
      <trkpt lat="45.92525" lon="4.73633">
        <ele>173</ele>
        <time>2016-10-16T10:42:16Z</time>
      </trkpt>
      <trkpt lat="45.92521" lon="4.73633">
        <ele>173</ele>
        <time>2016-10-16T10:42:17Z</time>
      </trkpt>
      <trkpt lat="45.92513" lon="4.73635">
        <ele>173</ele>
        <time>2016-10-16T10:42:19Z</time>
      </trkpt>
      <trkpt lat="45.92509" lon="4.73636">
        <ele>174</ele>
        <time>2016-10-16T10:42:20Z</time>
      </trkpt>
      <trkpt lat="45.92502" lon="4.73636">
        <ele>174</ele>
        <time>2016-10-16T10:42:22Z</time>
      </trkpt>
      <trkpt lat="45.92497" lon="4.73636">
        <ele>174</ele>
        <time>2016-10-16T10:42:23Z</time>
      </trkpt>
      <trkpt lat="45.92488" lon="4.73635">
        <ele>174</ele>
        <time>2016-10-16T10:42:25Z</time>
      </trkpt>
      <trkpt lat="45.92484" lon="4.73636">
        <ele>174</ele>
        <time>2016-10-16T10:42:26Z</time>
      </trkpt>
      <trkpt lat="45.92477" lon="4.73637">
        <ele>174</ele>
        <time>2016-10-16T10:42:28Z</time>
      </trkpt>
      <trkpt lat="45.92473" lon="4.73638">
        <ele>174</ele>
        <time>2016-10-16T10:42:29Z</time>
      </trkpt>
      <trkpt lat="45.92469" lon="4.73644">
        <ele>174</ele>
        <time>2016-10-16T10:42:31Z</time>
      </trkpt>
      <trkpt lat="45.92468" lon="4.73649">
        <ele>174</ele>
        <time>2016-10-16T10:42:32Z</time>
      </trkpt>
      <trkpt lat="45.92468" lon="4.7366">
        <ele>174</ele>
        <time>2016-10-16T10:42:34Z</time>
      </trkpt>
      <trkpt lat="45.92468" lon="4.73666">
        <ele>174</ele>
        <time>2016-10-16T10:42:35Z</time>
      </trkpt>
      <trkpt lat="45.92467" lon="4.73678">
        <ele>174</ele>
        <time>2016-10-16T10:42:37Z</time>
      </trkpt>
      <trkpt lat="45.92466" lon="4.73683">
        <ele>174</ele>
        <time>2016-10-16T10:42:38Z</time>
      </trkpt>
      <trkpt lat="45.92465" lon="4.73694">
        <ele>174</ele>
        <time>2016-10-16T10:42:40Z</time>
      </trkpt>
      <trkpt lat="45.92464" lon="4.73699">
        <ele>174</ele>
        <time>2016-10-16T10:42:41Z</time>
      </trkpt>
      <trkpt lat="45.92463" lon="4.73709">
        <ele>174</ele>
        <time>2016-10-16T10:42:44Z</time>
      </trkpt>
      <trkpt lat="45.92462" lon="4.73712">
        <ele>174</ele>
        <time>2016-10-16T10:42:45Z</time>
      </trkpt>
      <trkpt lat="45.92461" lon="4.73711">
        <ele>174</ele>
        <time>2016-10-16T10:43:13.085Z</time>
      </trkpt>
    </trkseg>
  </trk>
</gpx>